<?xml version="1.0" encoding="UTF-8"?>
<gpx version="1.1" creator="https://www.youtrack.es" xsi:schemaLocation="http://www.topografix.com/GPX/1/1 http://www.topografix.com/GPX/1/1/gpx.xsd http://www.garmin.com/xmlschemas/GpxExtensions/v3 http://www.garmin.com/xmlschemas/GpxExtensionsv3.xsd http://www.garmin.com/xmlschemas/TrackPointExtension/v1 http://www.garmin.com/xmlschemas/TrackPointExtensionv1.xsd" xmlns:gpxtpx="http://www.garmin.com/xmlschemas/TrackPointExtension/v1" xmlns:gpxx="http://www.garmin.com/xmlschemas/GpxExtensions/v3" xmlns:xsi="http://www.w3.org/2001/XMLSchema-instance">
  <metadata>
    <link href="https://www.youtrack.es">
      <text>YouTrack.es</text>
    </link>
    <time>2026-05-09T00:30:34Z</time>
  </metadata>
  <trk>
    <src>https://www.youtrack.es</src>
    <link href="https://www.youtrack.es/ruta/24131-media-maraton-montana-palentina">
      <text>YouTrack.es</text>
    </link>
    <trkseg>
      <trkpt lat="42.9722364060580730438232421875" lon="-4.75817467086017131805419921875">
        <ele>1421.4000244140625</ele>
        <time>2021-07-22T07:05:56.000Z</time>
      </trkpt>
      <trkpt lat="42.9722451232373714447021484375" lon="-4.75816846825182437896728515625">
        <ele>1421.4000244140625</ele>
        <time>2021-07-22T07:05:57.000Z</time>
      </trkpt>
      <trkpt lat="42.972300946712493896484375" lon="-4.75811750628054141998291015625">
        <ele>1421</ele>
        <time>2021-07-22T07:06:09.000Z</time>
      </trkpt>
      <trkpt lat="42.9723001085221767425537109375" lon="-4.7581169195473194122314453125">
        <ele>1421</ele>
        <time>2021-07-22T07:06:10.000Z</time>
      </trkpt>
      <trkpt lat="42.97231175936758518218994140625" lon="-4.7581068612635135650634765625">
        <ele>1421</ele>
        <time>2021-07-22T07:06:16.000Z</time>
      </trkpt>
      <trkpt lat="42.97235526144504547119140625" lon="-4.75808012299239635467529296875">
        <ele>1420.800048828125</ele>
        <time>2021-07-22T07:06:20.000Z</time>
      </trkpt>
      <trkpt lat="42.97239474020898342132568359375" lon="-4.75807073526084423065185546875">
        <ele>1421.4000244140625</ele>
        <time>2021-07-22T07:06:25.000Z</time>
      </trkpt>
      <trkpt lat="42.97245626337826251983642578125" lon="-4.75805564783513545989990234375">
        <ele>1421.199951171875</ele>
        <time>2021-07-22T07:06:29.000Z</time>
      </trkpt>
      <trkpt lat="42.97250437550246715545654296875" lon="-4.75805765949189662933349609375">
        <ele>1421.199951171875</ele>
        <time>2021-07-22T07:06:31.000Z</time>
      </trkpt>
      <trkpt lat="42.97251778654754161834716796875" lon="-4.758056066930294036865234375">
        <ele>1421.199951171875</ele>
        <time>2021-07-22T07:06:32.000Z</time>
      </trkpt>
      <trkpt lat="42.972672767937183380126953125" lon="-4.75801373831927776336669921875">
        <ele>1421.4000244140625</ele>
        <time>2021-07-22T07:06:45.000Z</time>
      </trkpt>
      <trkpt lat="42.97280059196054935455322265625" lon="-4.75801139138638973236083984375">
        <ele>1422.800048828125</ele>
        <time>2021-07-22T07:06:53.000Z</time>
      </trkpt>
      <trkpt lat="42.97288424335420131683349609375" lon="-4.75798959843814373016357421875">
        <ele>1423.5999755859375</ele>
        <time>2021-07-22T07:06:59.000Z</time>
      </trkpt>
      <trkpt lat="42.97291207127273082733154296875" lon="-4.7579871676862239837646484375">
        <ele>1423.800048828125</ele>
        <time>2021-07-22T07:07:01.000Z</time>
      </trkpt>
      <trkpt lat="42.9729606024920940399169921875" lon="-4.75798674859106540679931640625">
        <ele>1424.4000244140625</ele>
        <time>2021-07-22T07:07:05.000Z</time>
      </trkpt>
      <trkpt lat="42.972971498966217041015625" lon="-4.75798641331493854522705078125">
        <ele>1424.5999755859375</ele>
        <time>2021-07-22T07:07:06.000Z</time>
      </trkpt>
      <trkpt lat="42.9729944653809070587158203125" lon="-4.7579861618578433990478515625">
        <ele>1424.800048828125</ele>
        <time>2021-07-22T07:07:08.000Z</time>
      </trkpt>
      <trkpt lat="42.97304182313382625579833984375" lon="-4.75799060426652431488037109375">
        <ele>1425.199951171875</ele>
        <time>2021-07-22T07:07:12.000Z</time>
      </trkpt>
      <trkpt lat="42.973086498677730560302734375" lon="-4.758001081645488739013671875">
        <ele>1425.800048828125</ele>
        <time>2021-07-22T07:07:16.000Z</time>
      </trkpt>
      <trkpt lat="42.97309865243732929229736328125" lon="-4.75800183601677417755126953125">
        <ele>1426</ele>
        <time>2021-07-22T07:07:17.000Z</time>
      </trkpt>
      <trkpt lat="42.9731309227645397186279296875" lon="-4.757991023361682891845703125">
        <ele>1426.199951171875</ele>
        <time>2021-07-22T07:07:20.000Z</time>
      </trkpt>
      <trkpt lat="42.973208539187908172607421875" lon="-4.7580002434551715850830078125">
        <ele>1426.5999755859375</ele>
        <time>2021-07-22T07:07:28.000Z</time>
      </trkpt>
      <trkpt lat="42.97323913313448429107666015625" lon="-4.75800652988255023956298828125">
        <ele>1427</ele>
        <time>2021-07-22T07:07:31.000Z</time>
      </trkpt>
      <trkpt lat="42.9732838086783885955810546875" lon="-4.75800116546452045440673828125">
        <ele>1427.199951171875</ele>
        <time>2021-07-22T07:07:35.000Z</time>
      </trkpt>
      <trkpt lat="42.9733827151358127593994140625" lon="-4.75803318433463573455810546875">
        <ele>1427.5999755859375</ele>
        <time>2021-07-22T07:07:43.000Z</time>
      </trkpt>
      <trkpt lat="42.97346930019557476043701171875" lon="-4.7580465115606784820556640625">
        <ele>1427.5999755859375</ele>
        <time>2021-07-22T07:07:50.000Z</time>
      </trkpt>
      <trkpt lat="42.9734819568693637847900390625" lon="-4.75804391317069530487060546875">
        <ele>1427.5999755859375</ele>
        <time>2021-07-22T07:07:51.000Z</time>
      </trkpt>
      <trkpt lat="42.97352713532745838165283203125" lon="-4.7580066137015819549560546875">
        <ele>1428</ele>
        <time>2021-07-22T07:07:56.000Z</time>
      </trkpt>
      <trkpt lat="42.973561920225620269775390625" lon="-4.75796009413897991180419921875">
        <ele>1428</ele>
        <time>2021-07-22T07:07:59.000Z</time>
      </trkpt>
      <trkpt lat="42.97357994131743907928466796875" lon="-4.75792991928756237030029296875">
        <ele>1428.199951171875</ele>
        <time>2021-07-22T07:08:01.000Z</time>
      </trkpt>
      <trkpt lat="42.97366543672978878021240234375" lon="-4.75782296620309352874755859375">
        <ele>1428.199951171875</ele>
        <time>2021-07-22T07:08:09.000Z</time>
      </trkpt>
      <trkpt lat="42.97372545115649700164794921875" lon="-4.75777368061244487762451171875">
        <ele>1427.800048828125</ele>
        <time>2021-07-22T07:08:15.000Z</time>
      </trkpt>
      <trkpt lat="42.97379024326801300048828125" lon="-4.757724814116954803466796875">
        <ele>1428</ele>
        <time>2021-07-22T07:08:20.000Z</time>
      </trkpt>
      <trkpt lat="42.97382167540490627288818359375" lon="-4.75770662538707256317138671875">
        <ele>1427.800048828125</ele>
        <time>2021-07-22T07:08:22.000Z</time>
      </trkpt>
      <trkpt lat="42.97387179918587207794189453125" lon="-4.75767360068857669830322265625">
        <ele>1427.4000244140625</ele>
        <time>2021-07-22T07:08:28.000Z</time>
      </trkpt>
      <trkpt lat="42.97393801622092723846435546875" lon="-4.75767879746854305267333984375">
        <ele>1427.5999755859375</ele>
        <time>2021-07-22T07:08:34.000Z</time>
      </trkpt>
      <trkpt lat="42.97395142726600170135498046875" lon="-4.75767661817371845245361328125">
        <ele>1427.5999755859375</ele>
        <time>2021-07-22T07:08:35.000Z</time>
      </trkpt>
      <trkpt lat="42.97404312528669834136962890625" lon="-4.7576300986111164093017578125">
        <ele>1428.199951171875</ele>
        <time>2021-07-22T07:08:42.000Z</time>
      </trkpt>
      <trkpt lat="42.97412015497684478759765625" lon="-4.757567234337329864501953125">
        <ele>1428.800048828125</ele>
        <time>2021-07-22T07:08:49.000Z</time>
      </trkpt>
      <trkpt lat="42.97421981580555438995361328125" lon="-4.75750721991062164306640625">
        <ele>1428.5999755859375</ele>
        <time>2021-07-22T07:08:56.000Z</time>
      </trkpt>
      <trkpt lat="42.9743013717234134674072265625" lon="-4.7574976645410060882568359375">
        <ele>1429.199951171875</ele>
        <time>2021-07-22T07:09:04.000Z</time>
      </trkpt>
      <trkpt lat="42.9743422754108905792236328125" lon="-4.75745365954935550689697265625">
        <ele>1429.4000244140625</ele>
        <time>2021-07-22T07:09:10.000Z</time>
      </trkpt>
      <trkpt lat="42.97434554435312747955322265625" lon="-4.75744158960878849029541015625">
        <ele>1429.4000244140625</ele>
        <time>2021-07-22T07:09:11.000Z</time>
      </trkpt>
      <trkpt lat="42.97434101812541484832763671875" lon="-4.75739817135035991668701171875">
        <ele>1429.4000244140625</ele>
        <time>2021-07-22T07:09:18.000Z</time>
      </trkpt>
      <trkpt lat="42.97433883883059024810791015625" lon="-4.75737956352531909942626953125">
        <ele>1429.4000244140625</ele>
        <time>2021-07-22T07:09:24.000Z</time>
      </trkpt>
      <trkpt lat="42.9743409343063831329345703125" lon="-4.75737704895436763763427734375">
        <ele>1429.4000244140625</ele>
        <time>2021-07-22T07:09:25.000Z</time>
      </trkpt>
      <trkpt lat="42.97434839420020580291748046875" lon="-4.757379479706287384033203125">
        <ele>1429.4000244140625</ele>
        <time>2021-07-22T07:09:28.000Z</time>
      </trkpt>
      <trkpt lat="42.97438326291739940643310546875" lon="-4.75739188492298126220703125">
        <ele>1429.199951171875</ele>
        <time>2021-07-22T07:09:34.000Z</time>
      </trkpt>
      <trkpt lat="42.97448501922190189361572265625" lon="-4.7574312798678874969482421875">
        <ele>1429.5999755859375</ele>
        <time>2021-07-22T07:09:42.000Z</time>
      </trkpt>
      <trkpt lat="42.97453665174543857574462890625" lon="-4.75742784328758716583251953125">
        <ele>1429.800048828125</ele>
        <time>2021-07-22T07:09:44.000Z</time>
      </trkpt>
      <trkpt lat="42.97460295259952545166015625" lon="-4.75743211805820465087890625">
        <ele>1430.4000244140625</ele>
        <time>2021-07-22T07:09:46.000Z</time>
      </trkpt>
      <trkpt lat="42.9746369831264019012451171875" lon="-4.757423065602779388427734375">
        <ele>1430.5999755859375</ele>
        <time>2021-07-22T07:09:47.000Z</time>
      </trkpt>
      <trkpt lat="42.97478375025093555450439453125" lon="-4.757380150258541107177734375">
        <ele>1430.800048828125</ele>
        <time>2021-07-22T07:09:51.000Z</time>
      </trkpt>
      <trkpt lat="42.9748163558542728424072265625" lon="-4.7573719359934329986572265625">
        <ele>1431</ele>
        <time>2021-07-22T07:09:52.000Z</time>
      </trkpt>
      <trkpt lat="42.9748451896011829376220703125" lon="-4.75735307671129703521728515625">
        <ele>1431</ele>
        <time>2021-07-22T07:09:53.000Z</time>
      </trkpt>
      <trkpt lat="42.9748964868485927581787109375" lon="-4.757308401167392730712890625">
        <ele>1431.4000244140625</ele>
        <time>2021-07-22T07:09:55.000Z</time>
      </trkpt>
      <trkpt lat="42.97491886653006076812744140625" lon="-4.75728199817240238189697265625">
        <ele>1431.4000244140625</ele>
        <time>2021-07-22T07:09:56.000Z</time>
      </trkpt>
      <trkpt lat="42.97494216822087764739990234375" lon="-4.75725467316806316375732421875">
        <ele>1431.5999755859375</ele>
        <time>2021-07-22T07:09:57.000Z</time>
      </trkpt>
      <trkpt lat="42.97496513463556766510009765625" lon="-4.75723070092499256134033203125">
        <ele>1431.5999755859375</ele>
        <time>2021-07-22T07:09:58.000Z</time>
      </trkpt>
      <trkpt lat="42.9749979078769683837890625" lon="-4.7571959160268306732177734375">
        <ele>1431.800048828125</ele>
        <time>2021-07-22T07:10:00.000Z</time>
      </trkpt>
      <trkpt lat="42.97502062283456325531005859375" lon="-4.757167585194110870361328125">
        <ele>1431.800048828125</ele>
        <time>2021-07-22T07:10:02.000Z</time>
      </trkpt>
      <trkpt lat="42.97503319568932056427001953125" lon="-4.75715375505387783050537109375">
        <ele>1431.5999755859375</ele>
        <time>2021-07-22T07:10:03.000Z</time>
      </trkpt>
      <trkpt lat="42.97510720789432525634765625" lon="-4.757030121982097625732421875">
        <ele>1431.5999755859375</ele>
        <time>2021-07-22T07:10:10.000Z</time>
      </trkpt>
      <trkpt lat="42.97517166472971439361572265625" lon="-4.7569501586258411407470703125">
        <ele>1431.5999755859375</ele>
        <time>2021-07-22T07:10:16.000Z</time>
      </trkpt>
      <trkpt lat="42.97518876381218433380126953125" lon="-4.7569089196622371673583984375">
        <ele>1431</ele>
        <time>2021-07-22T07:10:18.000Z</time>
      </trkpt>
      <trkpt lat="42.975208126008510589599609375" lon="-4.75687044672667980194091796875">
        <ele>1430.5999755859375</ele>
        <time>2021-07-22T07:10:20.000Z</time>
      </trkpt>
      <trkpt lat="42.9752186872065067291259765625" lon="-4.7568472288548946380615234375">
        <ele>1430.199951171875</ele>
        <time>2021-07-22T07:10:21.000Z</time>
      </trkpt>
      <trkpt lat="42.9752433300018310546875" lon="-4.75679618306457996368408203125">
        <ele>1430</ele>
        <time>2021-07-22T07:10:24.000Z</time>
      </trkpt>
      <trkpt lat="42.97529035247862339019775390625" lon="-4.7567379288375377655029296875">
        <ele>1429.800048828125</ele>
        <time>2021-07-22T07:10:29.000Z</time>
      </trkpt>
      <trkpt lat="42.97532404772937297821044921875" lon="-4.75670264102518558502197265625">
        <ele>1430</ele>
        <time>2021-07-22T07:10:32.000Z</time>
      </trkpt>
      <trkpt lat="42.97538456507027149200439453125" lon="-4.7566346637904644012451171875">
        <ele>1430.5999755859375</ele>
        <time>2021-07-22T07:10:38.000Z</time>
      </trkpt>
      <trkpt lat="42.9753948748111724853515625" lon="-4.756616391241550445556640625">
        <ele>1430.800048828125</ele>
        <time>2021-07-22T07:10:39.000Z</time>
      </trkpt>
      <trkpt lat="42.975446172058582305908203125" lon="-4.75649694912135601043701171875">
        <ele>1431.199951171875</ele>
        <time>2021-07-22T07:10:46.000Z</time>
      </trkpt>
      <trkpt lat="42.97546503134071826934814453125" lon="-4.75640810094773769378662109375">
        <ele>1431</ele>
        <time>2021-07-22T07:10:52.000Z</time>
      </trkpt>
      <trkpt lat="42.97550618648529052734375" lon="-4.75629360415041446685791015625">
        <ele>1431.199951171875</ele>
        <time>2021-07-22T07:10:58.000Z</time>
      </trkpt>
      <trkpt lat="42.97551414929330348968505859375" lon="-4.7562725655734539031982421875">
        <ele>1431.199951171875</ele>
        <time>2021-07-22T07:10:59.000Z</time>
      </trkpt>
      <trkpt lat="42.9755341820418834686279296875" lon="-4.75622520782053470611572265625">
        <ele>1430.199951171875</ele>
        <time>2021-07-22T07:11:02.000Z</time>
      </trkpt>
      <trkpt lat="42.97557500191032886505126953125" lon="-4.7561411373317241668701171875">
        <ele>1429.800048828125</ele>
        <time>2021-07-22T07:11:08.000Z</time>
      </trkpt>
      <trkpt lat="42.975610457360744476318359375" lon="-4.75601968355476856231689453125">
        <ele>1431.199951171875</ele>
        <time>2021-07-22T07:11:14.000Z</time>
      </trkpt>
      <trkpt lat="42.975635267794132232666015625" lon="-4.75598313845694065093994140625">
        <ele>1431</ele>
        <time>2021-07-22T07:11:17.000Z</time>
      </trkpt>
      <trkpt lat="42.9756765067577362060546875" lon="-4.75590434856712818145751953125">
        <ele>1431</ele>
        <time>2021-07-22T07:11:23.000Z</time>
      </trkpt>
      <trkpt lat="42.9756847210228443145751953125" lon="-4.75589529611170291900634765625">
        <ele>1431</ele>
        <time>2021-07-22T07:11:24.000Z</time>
      </trkpt>
      <trkpt lat="42.9756931029260158538818359375" lon="-4.75588641129434108734130859375">
        <ele>1431</ele>
        <time>2021-07-22T07:11:25.000Z</time>
      </trkpt>
      <trkpt lat="42.9757212661206722259521484375" lon="-4.75586830638349056243896484375">
        <ele>1431.199951171875</ele>
        <time>2021-07-22T07:11:28.000Z</time>
      </trkpt>
      <trkpt lat="42.97577817924320697784423828125" lon="-4.75583209656178951263427734375">
        <ele>1432</ele>
        <time>2021-07-22T07:11:35.000Z</time>
      </trkpt>
      <trkpt lat="42.97580231912434101104736328125" lon="-4.75581072270870208740234375">
        <ele>1432.199951171875</ele>
        <time>2021-07-22T07:11:38.000Z</time>
      </trkpt>
      <trkpt lat="42.97581933438777923583984375" lon="-4.755788929760456085205078125">
        <ele>1432.199951171875</ele>
        <time>2021-07-22T07:11:40.000Z</time>
      </trkpt>
      <trkpt lat="42.9758402891457080841064453125" lon="-4.75576453842222690582275390625">
        <ele>1432.199951171875</ele>
        <time>2021-07-22T07:11:42.000Z</time>
      </trkpt>
      <trkpt lat="42.975890748202800750732421875" lon="-4.75573168136179447174072265625">
        <ele>1432</ele>
        <time>2021-07-22T07:11:46.000Z</time>
      </trkpt>
      <trkpt lat="42.97591128386557102203369140625" lon="-4.7557134926319122314453125">
        <ele>1432</ele>
        <time>2021-07-22T07:11:48.000Z</time>
      </trkpt>
      <trkpt lat="42.97600432299077510833740234375" lon="-4.75569463334977626800537109375">
        <ele>1432</ele>
        <time>2021-07-22T07:11:55.000Z</time>
      </trkpt>
      <trkpt lat="42.97609032131731510162353515625" lon="-4.7556818090379238128662109375">
        <ele>1432.4000244140625</ele>
        <time>2021-07-22T07:12:02.000Z</time>
      </trkpt>
      <trkpt lat="42.97616207040846347808837890625" lon="-4.7557012550532817840576171875">
        <ele>1432.800048828125</ele>
        <time>2021-07-22T07:12:08.000Z</time>
      </trkpt>
      <trkpt lat="42.976248823106288909912109375" lon="-4.7557317651808261871337890625">
        <ele>1433.199951171875</ele>
        <time>2021-07-22T07:12:15.000Z</time>
      </trkpt>
      <trkpt lat="42.976332642138004302978515625" lon="-4.7557491995394229888916015625">
        <ele>1434</ele>
        <time>2021-07-22T07:12:21.000Z</time>
      </trkpt>
      <trkpt lat="42.9763710312545299530029296875" lon="-4.75575917400419712066650390625">
        <ele>1434.4000244140625</ele>
        <time>2021-07-22T07:12:24.000Z</time>
      </trkpt>
      <trkpt lat="42.97641905955970287322998046875" lon="-4.75576571188867092132568359375">
        <ele>1434.800048828125</ele>
        <time>2021-07-22T07:12:28.000Z</time>
      </trkpt>
      <trkpt lat="42.9764913953840732574462890625" lon="-4.75578415207564830780029296875">
        <ele>1434.800048828125</ele>
        <time>2021-07-22T07:12:34.000Z</time>
      </trkpt>
      <trkpt lat="42.976569347083568572998046875" lon="-4.75583352148532867431640625">
        <ele>1435</ele>
        <time>2021-07-22T07:12:40.000Z</time>
      </trkpt>
      <trkpt lat="42.97664218582212924957275390625" lon="-4.7558598406612873077392578125">
        <ele>1435</ele>
        <time>2021-07-22T07:12:46.000Z</time>
      </trkpt>
      <trkpt lat="42.97668694518506526947021484375" lon="-4.75586763583123683929443359375">
        <ele>1435.4000244140625</ele>
        <time>2021-07-22T07:12:50.000Z</time>
      </trkpt>
      <trkpt lat="42.9767348058521747589111328125" lon="-4.75588984787464141845703125">
        <ele>1436.199951171875</ele>
        <time>2021-07-22T07:12:54.000Z</time>
      </trkpt>
      <trkpt lat="42.97676053829491138458251953125" lon="-4.75589462555944919586181640625">
        <ele>1436.5999755859375</ele>
        <time>2021-07-22T07:12:56.000Z</time>
      </trkpt>
      <trkpt lat="42.976795993745326995849609375" lon="-4.7558910213410854339599609375">
        <ele>1437.199951171875</ele>
        <time>2021-07-22T07:12:59.000Z</time>
      </trkpt>
      <trkpt lat="42.97681753523647785186767578125" lon="-4.75589479319751262664794921875">
        <ele>1437.5999755859375</ele>
        <time>2021-07-22T07:13:01.000Z</time>
      </trkpt>
      <trkpt lat="42.976830862462520599365234375" lon="-4.7559000737965106964111328125">
        <ele>1438</ele>
        <time>2021-07-22T07:13:02.000Z</time>
      </trkpt>
      <trkpt lat="42.97689515165984630584716796875" lon="-4.75589060224592685699462890625">
        <ele>1438.5999755859375</ele>
        <time>2021-07-22T07:13:06.000Z</time>
      </trkpt>
      <trkpt lat="42.97691090963780879974365234375" lon="-4.75589110516011714935302734375">
        <ele>1439</ele>
        <time>2021-07-22T07:13:07.000Z</time>
      </trkpt>
      <trkpt lat="42.976939491927623748779296875" lon="-4.75588825531303882598876953125">
        <ele>1439.4000244140625</ele>
        <time>2021-07-22T07:13:09.000Z</time>
      </trkpt>
      <trkpt lat="42.9769758693873882293701171875" lon="-4.7558688931167125701904296875">
        <ele>1440.199951171875</ele>
        <time>2021-07-22T07:13:12.000Z</time>
      </trkpt>
      <trkpt lat="42.976987101137638092041015625" lon="-4.75586344487965106964111328125">
        <ele>1440.4000244140625</ele>
        <time>2021-07-22T07:13:13.000Z</time>
      </trkpt>
      <trkpt lat="42.9770176112651824951171875" lon="-4.7558449208736419677734375">
        <ele>1440.800048828125</ele>
        <time>2021-07-22T07:13:16.000Z</time>
      </trkpt>
      <trkpt lat="42.97704267315566539764404296875" lon="-4.7558234632015228271484375">
        <ele>1441</ele>
        <time>2021-07-22T07:13:19.000Z</time>
      </trkpt>
      <trkpt lat="42.9770576767623424530029296875" lon="-4.7558182664215564727783203125">
        <ele>1441.4000244140625</ele>
        <time>2021-07-22T07:13:21.000Z</time>
      </trkpt>
      <trkpt lat="42.97708106227219104766845703125" lon="-4.75583016872406005859375">
        <ele>1441.800048828125</ele>
        <time>2021-07-22T07:13:23.000Z</time>
      </trkpt>
      <trkpt lat="42.9770898632705211639404296875" lon="-4.7558360360562801361083984375">
        <ele>1442</ele>
        <time>2021-07-22T07:13:24.000Z</time>
      </trkpt>
      <trkpt lat="42.9771327786147594451904296875" lon="-4.75583746097981929779052734375">
        <ele>1442.4000244140625</ele>
        <time>2021-07-22T07:13:28.000Z</time>
      </trkpt>
      <trkpt lat="42.9771676473319530487060546875" lon="-4.755843244493007659912109375">
        <ele>1442.4000244140625</ele>
        <time>2021-07-22T07:13:31.000Z</time>
      </trkpt>
      <trkpt lat="42.97721131704747676849365234375" lon="-4.7558610141277313232421875">
        <ele>1443.4000244140625</ele>
        <time>2021-07-22T07:13:35.000Z</time>
      </trkpt>
      <trkpt lat="42.9772383905947208404541015625" lon="-4.75586428306996822357177734375">
        <ele>1444</ele>
        <time>2021-07-22T07:13:38.000Z</time>
      </trkpt>
      <trkpt lat="42.9772474430501461029052734375" lon="-4.75586612708866596221923828125">
        <ele>1444.199951171875</ele>
        <time>2021-07-22T07:13:39.000Z</time>
      </trkpt>
      <trkpt lat="42.97725423239171504974365234375" lon="-4.75587048567831516265869140625">
        <ele>1444.5999755859375</ele>
        <time>2021-07-22T07:13:40.000Z</time>
      </trkpt>
      <trkpt lat="42.97731927596032619476318359375" lon="-4.7558717429637908935546875">
        <ele>1445.5999755859375</ele>
        <time>2021-07-22T07:13:47.000Z</time>
      </trkpt>
      <trkpt lat="42.977327741682529449462890625" lon="-4.75587065331637859344482421875">
        <ele>1445.800048828125</ele>
        <time>2021-07-22T07:13:48.000Z</time>
      </trkpt>
      <trkpt lat="42.9774110578000545501708984375" lon="-4.75584433414041996002197265625">
        <ele>1446.800048828125</ele>
        <time>2021-07-22T07:13:55.000Z</time>
      </trkpt>
      <trkpt lat="42.9774995706975460052490234375" lon="-4.75585355423390865325927734375">
        <ele>1447.800048828125</ele>
        <time>2021-07-22T07:14:01.000Z</time>
      </trkpt>
      <trkpt lat="42.9775245487689971923828125" lon="-4.75584416650235652923583984375">
        <ele>1447.800048828125</ele>
        <time>2021-07-22T07:14:03.000Z</time>
      </trkpt>
      <trkpt lat="42.97761532478034496307373046875" lon="-4.75584651343524456024169921875">
        <ele>1447.800048828125</ele>
        <time>2021-07-22T07:14:10.000Z</time>
      </trkpt>
      <trkpt lat="42.97767718322575092315673828125" lon="-4.75584399886429309844970703125">
        <ele>1449</ele>
        <time>2021-07-22T07:14:16.000Z</time>
      </trkpt>
      <trkpt lat="42.97770031727850437164306640625" lon="-4.75585766136646270751953125">
        <ele>1449.4000244140625</ele>
        <time>2021-07-22T07:14:19.000Z</time>
      </trkpt>
      <trkpt lat="42.977724038064479827880859375" lon="-4.75587316788733005523681640625">
        <ele>1450</ele>
        <time>2021-07-22T07:14:22.000Z</time>
      </trkpt>
      <trkpt lat="42.97774113714694976806640625" lon="-4.75588490255177021026611328125">
        <ele>1450.4000244140625</ele>
        <time>2021-07-22T07:14:24.000Z</time>
      </trkpt>
      <trkpt lat="42.97776921652257442474365234375" lon="-4.75593485869467258453369140625">
        <ele>1451.199951171875</ele>
        <time>2021-07-22T07:14:29.000Z</time>
      </trkpt>
      <trkpt lat="42.97777541913092136383056640625" lon="-4.7559610940515995025634765625">
        <ele>1451.4000244140625</ele>
        <time>2021-07-22T07:14:31.000Z</time>
      </trkpt>
      <trkpt lat="42.97778799198567867279052734375" lon="-4.7559795342385768890380859375">
        <ele>1451.800048828125</ele>
        <time>2021-07-22T07:14:33.000Z</time>
      </trkpt>
      <trkpt lat="42.97780282795429229736328125" lon="-4.75600694306194782257080078125">
        <ele>1452.4000244140625</ele>
        <time>2021-07-22T07:14:35.000Z</time>
      </trkpt>
      <trkpt lat="42.97785236500203609466552734375" lon="-4.75604801438748836517333984375">
        <ele>1453</ele>
        <time>2021-07-22T07:14:39.000Z</time>
      </trkpt>
      <trkpt lat="42.9778861440718173980712890625" lon="-4.75606913678348064422607421875">
        <ele>1453.4000244140625</ele>
        <time>2021-07-22T07:14:42.000Z</time>
      </trkpt>
      <trkpt lat="42.9779247008264064788818359375" lon="-4.75608740933239459991455078125">
        <ele>1453.800048828125</ele>
        <time>2021-07-22T07:14:45.000Z</time>
      </trkpt>
      <trkpt lat="42.97799921594560146331787109375" lon="-4.75613585673272609710693359375">
        <ele>1454.4000244140625</ele>
        <time>2021-07-22T07:14:51.000Z</time>
      </trkpt>
      <trkpt lat="42.9780422151088714599609375" lon="-4.756167791783809661865234375">
        <ele>1455.199951171875</ele>
        <time>2021-07-22T07:14:54.000Z</time>
      </trkpt>
      <trkpt lat="42.9780663549900054931640625" lon="-4.75617173127830028533935546875">
        <ele>1455.4000244140625</ele>
        <time>2021-07-22T07:14:56.000Z</time>
      </trkpt>
      <trkpt lat="42.97811069525778293609619140625" lon="-4.75616485811769962310791015625">
        <ele>1455.5999755859375</ele>
        <time>2021-07-22T07:14:59.000Z</time>
      </trkpt>
      <trkpt lat="42.97817842103540897369384765625" lon="-4.75614440627396106719970703125">
        <ele>1456.4000244140625</ele>
        <time>2021-07-22T07:15:05.000Z</time>
      </trkpt>
      <trkpt lat="42.97818831168115139007568359375" lon="-4.7561421431601047515869140625">
        <ele>1456.800048828125</ele>
        <time>2021-07-22T07:15:06.000Z</time>
      </trkpt>
      <trkpt lat="42.978200130164623260498046875" lon="-4.75614457391202449798583984375">
        <ele>1457</ele>
        <time>2021-07-22T07:15:07.000Z</time>
      </trkpt>
      <trkpt lat="42.97825276851654052734375" lon="-4.7561481781303882598876953125">
        <ele>1457.4000244140625</ele>
        <time>2021-07-22T07:15:11.000Z</time>
      </trkpt>
      <trkpt lat="42.97832527197897434234619140625" lon="-4.756148345768451690673828125">
        <ele>1456.5999755859375</ele>
        <time>2021-07-22T07:15:17.000Z</time>
      </trkpt>
      <trkpt lat="42.9783689416944980621337890625" lon="-4.7561548836529254913330078125">
        <ele>1456.199951171875</ele>
        <time>2021-07-22T07:15:22.000Z</time>
      </trkpt>
      <trkpt lat="42.9783793352544307708740234375" lon="-4.75615404546260833740234375">
        <ele>1456.199951171875</ele>
        <time>2021-07-22T07:15:24.000Z</time>
      </trkpt>
      <trkpt lat="42.97840054146945476531982421875" lon="-4.75613937713205814361572265625">
        <ele>1457.800048828125</ele>
        <time>2021-07-22T07:15:28.000Z</time>
      </trkpt>
      <trkpt lat="42.97840691171586513519287109375" lon="-4.75613652728497982025146484375">
        <ele>1458</ele>
        <time>2021-07-22T07:15:29.000Z</time>
      </trkpt>
      <trkpt lat="42.97842971049249172210693359375" lon="-4.756095707416534423828125">
        <ele>1458.800048828125</ele>
        <time>2021-07-22T07:15:33.000Z</time>
      </trkpt>
      <trkpt lat="42.97843557782471179962158203125" lon="-4.75608472712337970733642578125">
        <ele>1459.199951171875</ele>
        <time>2021-07-22T07:15:34.000Z</time>
      </trkpt>
      <trkpt lat="42.9784390144050121307373046875" lon="-4.75607198663055896759033203125">
        <ele>1459.199951171875</ele>
        <time>2021-07-22T07:15:35.000Z</time>
      </trkpt>
      <trkpt lat="42.97844731248915195465087890625" lon="-4.75601163692772388458251953125">
        <ele>1459.5999755859375</ele>
        <time>2021-07-22T07:15:41.000Z</time>
      </trkpt>
      <trkpt lat="42.97844588756561279296875" lon="-4.75600727833807468414306640625">
        <ele>1459.5999755859375</ele>
        <time>2021-07-22T07:15:42.000Z</time>
      </trkpt>
      <trkpt lat="42.97843314707279205322265625" lon="-4.75598498247563838958740234375">
        <ele>1459.4000244140625</ele>
        <time>2021-07-22T07:15:46.000Z</time>
      </trkpt>
      <trkpt lat="42.97843004576861858367919921875" lon="-4.75597224198281764984130859375">
        <ele>1459.4000244140625</ele>
        <time>2021-07-22T07:15:47.000Z</time>
      </trkpt>
      <trkpt lat="42.97844865359365940093994140625" lon="-4.755974002182483673095703125">
        <ele>1459.4000244140625</ele>
        <time>2021-07-22T07:15:49.000Z</time>
      </trkpt>
      <trkpt lat="42.978468351066112518310546875" lon="-4.75593385286629199981689453125">
        <ele>1459.4000244140625</ele>
        <time>2021-07-22T07:15:53.000Z</time>
      </trkpt>
      <trkpt lat="42.9784762300550937652587890625" lon="-4.75590049289166927337646484375">
        <ele>1459.4000244140625</ele>
        <time>2021-07-22T07:15:55.000Z</time>
      </trkpt>
      <trkpt lat="42.97846265137195587158203125" lon="-4.75584483705461025238037109375">
        <ele>1459.5999755859375</ele>
        <time>2021-07-22T07:15:59.000Z</time>
      </trkpt>
      <trkpt lat="42.97844898886978626251220703125" lon="-4.755823127925395965576171875">
        <ele>1459.5999755859375</ele>
        <time>2021-07-22T07:16:01.000Z</time>
      </trkpt>
      <trkpt lat="42.97841797582805156707763671875" lon="-4.75575506687164306640625">
        <ele>1460.199951171875</ele>
        <time>2021-07-22T07:16:07.000Z</time>
      </trkpt>
      <trkpt lat="42.9783997870981693267822265625" lon="-4.755692370235919952392578125">
        <ele>1461.199951171875</ele>
        <time>2021-07-22T07:16:11.000Z</time>
      </trkpt>
      <trkpt lat="42.97839668579399585723876953125" lon="-4.75567753426730632781982421875">
        <ele>1461.199951171875</ele>
        <time>2021-07-22T07:16:12.000Z</time>
      </trkpt>
      <trkpt lat="42.97839199192821979522705078125" lon="-4.75565113127231597900390625">
        <ele>1461.199951171875</ele>
        <time>2021-07-22T07:16:14.000Z</time>
      </trkpt>
      <trkpt lat="42.9783667623996734619140625" lon="-4.755558930337429046630859375">
        <ele>1460.800048828125</ele>
        <time>2021-07-22T07:16:21.000Z</time>
      </trkpt>
      <trkpt lat="42.9783608950674533843994140625" lon="-4.75554711185395717620849609375">
        <ele>1460.5999755859375</ele>
        <time>2021-07-22T07:16:22.000Z</time>
      </trkpt>
      <trkpt lat="42.97832845710217952728271484375" lon="-4.75547804497182369232177734375">
        <ele>1460.199951171875</ele>
        <time>2021-07-22T07:16:27.000Z</time>
      </trkpt>
      <trkpt lat="42.97831169329583644866943359375" lon="-4.75542406551539897918701171875">
        <ele>1460.199951171875</ele>
        <time>2021-07-22T07:16:31.000Z</time>
      </trkpt>
      <trkpt lat="42.97830968163907527923583984375" lon="-4.75540881045162677764892578125">
        <ele>1459.800048828125</ele>
        <time>2021-07-22T07:16:32.000Z</time>
      </trkpt>
      <trkpt lat="42.97829040326178073883056640625" lon="-4.75534309633076190948486328125">
        <ele>1459</ele>
        <time>2021-07-22T07:16:37.000Z</time>
      </trkpt>
      <trkpt lat="42.978279255330562591552734375" lon="-4.755317866802215576171875">
        <ele>1458.5999755859375</ele>
        <time>2021-07-22T07:16:39.000Z</time>
      </trkpt>
      <trkpt lat="42.97826861031353473663330078125" lon="-4.75520965643227100372314453125">
        <ele>1457.5999755859375</ele>
        <time>2021-07-22T07:16:45.000Z</time>
      </trkpt>
      <trkpt lat="42.9782690294086933135986328125" lon="-4.75515953265130519866943359375">
        <ele>1457.199951171875</ele>
        <time>2021-07-22T07:16:48.000Z</time>
      </trkpt>
      <trkpt lat="42.9782514274120330810546875" lon="-4.75506582297384738922119140625">
        <ele>1457</ele>
        <time>2021-07-22T07:16:52.000Z</time>
      </trkpt>
      <trkpt lat="42.9782281257212162017822265625" lon="-4.75492953322827816009521484375">
        <ele>1457.4000244140625</ele>
        <time>2021-07-22T07:16:59.000Z</time>
      </trkpt>
      <trkpt lat="42.97820943407714366912841796875" lon="-4.754786454141139984130859375">
        <ele>1457.199951171875</ele>
        <time>2021-07-22T07:17:06.000Z</time>
      </trkpt>
      <trkpt lat="42.97820390202105045318603515625" lon="-4.75465058349072933197021484375">
        <ele>1457.199951171875</ele>
        <time>2021-07-22T07:17:14.000Z</time>
      </trkpt>
      <trkpt lat="42.97821211628615856170654296875" lon="-4.75458562374114990234375">
        <ele>1457.4000244140625</ele>
        <time>2021-07-22T07:17:18.000Z</time>
      </trkpt>
      <trkpt lat="42.978210188448429107666015625" lon="-4.75455067120492458343505859375">
        <ele>1457.199951171875</ele>
        <time>2021-07-22T07:17:20.000Z</time>
      </trkpt>
      <trkpt lat="42.9782039858400821685791015625" lon="-4.7544996254146099090576171875">
        <ele>1456.4000244140625</ele>
        <time>2021-07-22T07:17:23.000Z</time>
      </trkpt>
      <trkpt lat="42.97819384373724460601806640625" lon="-4.754461906850337982177734375">
        <ele>1455.4000244140625</ele>
        <time>2021-07-22T07:17:25.000Z</time>
      </trkpt>
      <trkpt lat="42.97818663530051708221435546875" lon="-4.75442460738122463226318359375">
        <ele>1455.199951171875</ele>
        <time>2021-07-22T07:17:27.000Z</time>
      </trkpt>
      <trkpt lat="42.97819149680435657501220703125" lon="-4.75429200567305088043212890625">
        <ele>1454.5999755859375</ele>
        <time>2021-07-22T07:17:34.000Z</time>
      </trkpt>
      <trkpt lat="42.9781996272504329681396484375" lon="-4.75416543893516063690185546875">
        <ele>1454.800048828125</ele>
        <time>2021-07-22T07:17:42.000Z</time>
      </trkpt>
      <trkpt lat="42.97821245156228542327880859375" lon="-4.75400936789810657501220703125">
        <ele>1454.199951171875</ele>
        <time>2021-07-22T07:17:50.000Z</time>
      </trkpt>
      <trkpt lat="42.97821546904742717742919921875" lon="-4.7539960406720638275146484375">
        <ele>1453.800048828125</ele>
        <time>2021-07-22T07:17:51.000Z</time>
      </trkpt>
      <trkpt lat="42.97823659144341945648193359375" lon="-4.75395438261330127716064453125">
        <ele>1453.199951171875</ele>
        <time>2021-07-22T07:17:54.000Z</time>
      </trkpt>
      <trkpt lat="42.97825050540268421173095703125" lon="-4.75390861742198467254638671875">
        <ele>1453.199951171875</ele>
        <time>2021-07-22T07:17:57.000Z</time>
      </trkpt>
      <trkpt lat="42.97825084067881107330322265625" lon="-4.753893278539180755615234375">
        <ele>1453.199951171875</ele>
        <time>2021-07-22T07:17:58.000Z</time>
      </trkpt>
      <trkpt lat="42.97824807465076446533203125" lon="-4.75382513366639614105224609375">
        <ele>1453.4000244140625</ele>
        <time>2021-07-22T07:18:02.000Z</time>
      </trkpt>
      <trkpt lat="42.97824581153690814971923828125" lon="-4.7538079507648944854736328125">
        <ele>1453.4000244140625</ele>
        <time>2021-07-22T07:18:03.000Z</time>
      </trkpt>
      <trkpt lat="42.97824296168982982635498046875" lon="-4.75379345007240772247314453125">
        <ele>1453.4000244140625</ele>
        <time>2021-07-22T07:18:04.000Z</time>
      </trkpt>
      <trkpt lat="42.9782380163669586181640625" lon="-4.75373595021665096282958984375">
        <ele>1453.199951171875</ele>
        <time>2021-07-22T07:18:08.000Z</time>
      </trkpt>
      <trkpt lat="42.97823994420468807220458984375" lon="-4.7537254728376865386962890625">
        <ele>1453.199951171875</ele>
        <time>2021-07-22T07:18:09.000Z</time>
      </trkpt>
      <trkpt lat="42.9782509244978427886962890625" lon="-4.75368716754019260406494140625">
        <ele>1452.800048828125</ele>
        <time>2021-07-22T07:18:12.000Z</time>
      </trkpt>
      <trkpt lat="42.9782475717365741729736328125" lon="-4.7536728344857692718505859375">
        <ele>1452.800048828125</ele>
        <time>2021-07-22T07:18:14.000Z</time>
      </trkpt>
      <trkpt lat="42.97823944129049777984619140625" lon="-4.7536406479775905609130859375">
        <ele>1453</ele>
        <time>2021-07-22T07:18:17.000Z</time>
      </trkpt>
      <trkpt lat="42.97824095003306865692138671875" lon="-4.75357468239963054656982421875">
        <ele>1453</ele>
        <time>2021-07-22T07:18:22.000Z</time>
      </trkpt>
      <trkpt lat="42.97821463085711002349853515625" lon="-4.7534602694213390350341796875">
        <ele>1453</ele>
        <time>2021-07-22T07:18:29.000Z</time>
      </trkpt>
      <trkpt lat="42.97821429558098316192626953125" lon="-4.75335859693586826324462890625">
        <ele>1452.800048828125</ele>
        <time>2021-07-22T07:18:35.000Z</time>
      </trkpt>
      <trkpt lat="42.97818646766245365142822265625" lon="-4.75321778096258640289306640625">
        <ele>1452.4000244140625</ele>
        <time>2021-07-22T07:18:43.000Z</time>
      </trkpt>
      <trkpt lat="42.97818143852055072784423828125" lon="-4.75315793417394161224365234375">
        <ele>1452.4000244140625</ele>
        <time>2021-07-22T07:18:46.000Z</time>
      </trkpt>
      <trkpt lat="42.9781845398247241973876953125" lon="-4.7530616261065006256103515625">
        <ele>1453</ele>
        <time>2021-07-22T07:18:51.000Z</time>
      </trkpt>
      <trkpt lat="42.978167943656444549560546875" lon="-4.75294285453855991363525390625">
        <ele>1453</ele>
        <time>2021-07-22T07:18:58.000Z</time>
      </trkpt>
      <trkpt lat="42.9781808517873287200927734375" lon="-4.752886109054088592529296875">
        <ele>1453.4000244140625</ele>
        <time>2021-07-22T07:19:01.000Z</time>
      </trkpt>
      <trkpt lat="42.9781945981085300445556640625" lon="-4.75277773104608058929443359375">
        <ele>1454.4000244140625</ele>
        <time>2021-07-22T07:19:07.000Z</time>
      </trkpt>
      <trkpt lat="42.978189401328563690185546875" lon="-4.75274738855659961700439453125">
        <ele>1454.800048828125</ele>
        <time>2021-07-22T07:19:09.000Z</time>
      </trkpt>
      <trkpt lat="42.97818998806178569793701171875" lon="-4.7527290321886539459228515625">
        <ele>1455</ele>
        <time>2021-07-22T07:19:10.000Z</time>
      </trkpt>
      <trkpt lat="42.97819082625210285186767578125" lon="-4.7526716999709606170654296875">
        <ele>1455</ele>
        <time>2021-07-22T07:19:13.000Z</time>
      </trkpt>
      <trkpt lat="42.97819552011787891387939453125" lon="-4.75263037718832492828369140625">
        <ele>1455</ele>
        <time>2021-07-22T07:19:16.000Z</time>
      </trkpt>
      <trkpt lat="42.9781870543956756591796875" lon="-4.75258595310151576995849609375">
        <ele>1455</ele>
        <time>2021-07-22T07:19:19.000Z</time>
      </trkpt>
      <trkpt lat="42.978180684149265289306640625" lon="-4.75255946628749370574951171875">
        <ele>1455.4000244140625</ele>
        <time>2021-07-22T07:19:21.000Z</time>
      </trkpt>
      <trkpt lat="42.9781798459589481353759765625" lon="-4.75251705385744571685791015625">
        <ele>1455.199951171875</ele>
        <time>2021-07-22T07:19:23.000Z</time>
      </trkpt>
      <trkpt lat="42.9782036505639553070068359375" lon="-4.752405323088169097900390625">
        <ele>1455.5999755859375</ele>
        <time>2021-07-22T07:19:29.000Z</time>
      </trkpt>
      <trkpt lat="42.978230305016040802001953125" lon="-4.75227297283709049224853515625">
        <ele>1456.4000244140625</ele>
        <time>2021-07-22T07:19:36.000Z</time>
      </trkpt>
      <trkpt lat="42.97823189757764339447021484375" lon="-4.75225771777331829071044921875">
        <ele>1456.5999755859375</ele>
        <time>2021-07-22T07:19:37.000Z</time>
      </trkpt>
      <trkpt lat="42.9782482422888278961181640625" lon="-4.75216249935328960418701171875">
        <ele>1457.5999755859375</ele>
        <time>2021-07-22T07:19:43.000Z</time>
      </trkpt>
      <trkpt lat="42.97827095724642276763916015625" lon="-4.75207172334194183349609375">
        <ele>1457.800048828125</ele>
        <time>2021-07-22T07:19:48.000Z</time>
      </trkpt>
      <trkpt lat="42.9782809317111968994140625" lon="-4.75205428898334503173828125">
        <ele>1458</ele>
        <time>2021-07-22T07:19:49.000Z</time>
      </trkpt>
      <trkpt lat="42.9783506691455841064453125" lon="-4.75193493068218231201171875">
        <ele>1458.4000244140625</ele>
        <time>2021-07-22T07:19:56.000Z</time>
      </trkpt>
      <trkpt lat="42.9783551953732967376708984375" lon="-4.7519153170287609100341796875">
        <ele>1458.800048828125</ele>
        <time>2021-07-22T07:19:57.000Z</time>
      </trkpt>
      <trkpt lat="42.978365756571292877197265625" lon="-4.75181029178202152252197265625">
        <ele>1459.199951171875</ele>
        <time>2021-07-22T07:20:03.000Z</time>
      </trkpt>
      <trkpt lat="42.97836869023740291595458984375" lon="-4.7517929412424564361572265625">
        <ele>1459.4000244140625</ele>
        <time>2021-07-22T07:20:04.000Z</time>
      </trkpt>
      <trkpt lat="42.97842049039900302886962890625" lon="-4.75165673531591892242431640625">
        <ele>1459.5999755859375</ele>
        <time>2021-07-22T07:20:12.000Z</time>
      </trkpt>
      <trkpt lat="42.9784644953906536102294921875" lon="-4.7515394724905490875244140625">
        <ele>1459.800048828125</ele>
        <time>2021-07-22T07:20:18.000Z</time>
      </trkpt>
      <trkpt lat="42.97847799025475978851318359375" lon="-4.75150669924914836883544921875">
        <ele>1460.199951171875</ele>
        <time>2021-07-22T07:20:20.000Z</time>
      </trkpt>
      <trkpt lat="42.97852710820734500885009765625" lon="-4.7514429129660129547119140625">
        <ele>1459.800048828125</ele>
        <time>2021-07-22T07:20:25.000Z</time>
      </trkpt>
      <trkpt lat="42.97853800468146800994873046875" lon="-4.75142941810190677642822265625">
        <ele>1459.800048828125</ele>
        <time>2021-07-22T07:20:26.000Z</time>
      </trkpt>
      <trkpt lat="42.97857664525508880615234375" lon="-4.75137527100741863250732421875">
        <ele>1460.199951171875</ele>
        <time>2021-07-22T07:20:30.000Z</time>
      </trkpt>
      <trkpt lat="42.978617213666439056396484375" lon="-4.75132849998772144317626953125">
        <ele>1460.4000244140625</ele>
        <time>2021-07-22T07:20:33.000Z</time>
      </trkpt>
      <trkpt lat="42.9786336421966552734375" lon="-4.7513232193887233734130859375">
        <ele>1460.4000244140625</ele>
        <time>2021-07-22T07:20:34.000Z</time>
      </trkpt>
      <trkpt lat="42.9786820895969867706298828125" lon="-4.7512920387089252471923828125">
        <ele>1460.199951171875</ele>
        <time>2021-07-22T07:20:38.000Z</time>
      </trkpt>
      <trkpt lat="42.9786901362240314483642578125" lon="-4.75125440396368503570556640625">
        <ele>1460.199951171875</ele>
        <time>2021-07-22T07:20:40.000Z</time>
      </trkpt>
      <trkpt lat="42.9786924831569194793701171875" lon="-4.7512127459049224853515625">
        <ele>1460.199951171875</ele>
        <time>2021-07-22T07:20:43.000Z</time>
      </trkpt>
      <trkpt lat="42.9787236638367176055908203125" lon="-4.75114979781210422515869140625">
        <ele>1460</ele>
        <time>2021-07-22T07:20:47.000Z</time>
      </trkpt>
      <trkpt lat="42.9787598736584186553955078125" lon="-4.7511119954288005828857421875">
        <ele>1460.199951171875</ele>
        <time>2021-07-22T07:20:50.000Z</time>
      </trkpt>
      <trkpt lat="42.97884679399430751800537109375" lon="-4.75099205039441585540771484375">
        <ele>1460.4000244140625</ele>
        <time>2021-07-22T07:20:58.000Z</time>
      </trkpt>
      <trkpt lat="42.97887713648378849029541015625" lon="-4.75093505345284938812255859375">
        <ele>1461</ele>
        <time>2021-07-22T07:21:02.000Z</time>
      </trkpt>
      <trkpt lat="42.9788926430046558380126953125" lon="-4.75091091357171535491943359375">
        <ele>1461.199951171875</ele>
        <time>2021-07-22T07:21:04.000Z</time>
      </trkpt>
      <trkpt lat="42.97890345565974712371826171875" lon="-4.75089683197438716888427734375">
        <ele>1461.199951171875</ele>
        <time>2021-07-22T07:21:05.000Z</time>
      </trkpt>
      <trkpt lat="42.978944443166255950927734375" lon="-4.75085735321044921875">
        <ele>1461</ele>
        <time>2021-07-22T07:21:10.000Z</time>
      </trkpt>
      <trkpt lat="42.9789653979241847991943359375" lon="-4.75084436126053333282470703125">
        <ele>1461.199951171875</ele>
        <time>2021-07-22T07:21:12.000Z</time>
      </trkpt>
      <trkpt lat="42.97899909317493438720703125" lon="-4.75080211646854877471923828125">
        <ele>1461.5999755859375</ele>
        <time>2021-07-22T07:21:15.000Z</time>
      </trkpt>
      <trkpt lat="42.979006469249725341796875" lon="-4.75078334100544452667236328125">
        <ele>1461.800048828125</ele>
        <time>2021-07-22T07:21:16.000Z</time>
      </trkpt>
      <trkpt lat="42.9790076427161693572998046875" lon="-4.7507666610181331634521484375">
        <ele>1462</ele>
        <time>2021-07-22T07:21:17.000Z</time>
      </trkpt>
      <trkpt lat="42.97902650199830532073974609375" lon="-4.750692062079906463623046875">
        <ele>1462.199951171875</ele>
        <time>2021-07-22T07:21:21.000Z</time>
      </trkpt>
      <trkpt lat="42.97904745675623416900634765625" lon="-4.7506211511790752410888671875">
        <ele>1461.800048828125</ele>
        <time>2021-07-22T07:21:26.000Z</time>
      </trkpt>
      <trkpt lat="42.97905516810715198516845703125" lon="-4.75058452226221561431884765625">
        <ele>1462</ele>
        <time>2021-07-22T07:21:29.000Z</time>
      </trkpt>
      <trkpt lat="42.97907461412250995635986328125" lon="-4.750523753464221954345703125">
        <ele>1462.5999755859375</ele>
        <time>2021-07-22T07:21:34.000Z</time>
      </trkpt>
      <trkpt lat="42.9790941439568996429443359375" lon="-4.750503636896610260009765625">
        <ele>1462.5999755859375</ele>
        <time>2021-07-22T07:21:36.000Z</time>
      </trkpt>
      <trkpt lat="42.9791016876697540283203125" lon="-4.7505004517734050750732421875">
        <ele>1462.4000244140625</ele>
        <time>2021-07-22T07:21:37.000Z</time>
      </trkpt>
      <trkpt lat="42.97913781367242336273193359375" lon="-4.75051604211330413818359375">
        <ele>1462.800048828125</ele>
        <time>2021-07-22T07:21:41.000Z</time>
      </trkpt>
      <trkpt lat="42.97914368100464344024658203125" lon="-4.7505182214081287384033203125">
        <ele>1463</ele>
        <time>2021-07-22T07:21:42.000Z</time>
      </trkpt>
      <trkpt lat="42.97914887778460979461669921875" lon="-4.75051729939877986907958984375">
        <ele>1463.199951171875</ele>
        <time>2021-07-22T07:21:43.000Z</time>
      </trkpt>
      <trkpt lat="42.9791662283241748809814453125" lon="-4.75048092193901538848876953125">
        <ele>1464.800048828125</ele>
        <time>2021-07-22T07:21:48.000Z</time>
      </trkpt>
      <trkpt lat="42.9791982471942901611328125" lon="-4.750437922775745391845703125">
        <ele>1465.4000244140625</ele>
        <time>2021-07-22T07:21:53.000Z</time>
      </trkpt>
      <trkpt lat="42.97921945340931415557861328125" lon="-4.75041386671364307403564453125">
        <ele>1465.4000244140625</ele>
        <time>2021-07-22T07:21:55.000Z</time>
      </trkpt>
      <trkpt lat="42.9792653024196624755859375" lon="-4.7503758966922760009765625">
        <ele>1466</ele>
        <time>2021-07-22T07:21:59.000Z</time>
      </trkpt>
      <trkpt lat="42.97928198240697383880615234375" lon="-4.75035645067691802978515625">
        <ele>1466.4000244140625</ele>
        <time>2021-07-22T07:22:01.000Z</time>
      </trkpt>
      <trkpt lat="42.97931048087775707244873046875" lon="-4.75031328387558460235595703125">
        <ele>1467</ele>
        <time>2021-07-22T07:22:04.000Z</time>
      </trkpt>
      <trkpt lat="42.9793566651642322540283203125" lon="-4.75025259889662265777587890625">
        <ele>1467.4000244140625</ele>
        <time>2021-07-22T07:22:08.000Z</time>
      </trkpt>
      <trkpt lat="42.97936831600964069366455078125" lon="-4.7502362541854381561279296875">
        <ele>1467.5999755859375</ele>
        <time>2021-07-22T07:22:09.000Z</time>
      </trkpt>
      <trkpt lat="42.979416511952877044677734375" lon="-4.75013843737542629241943359375">
        <ele>1466.5999755859375</ele>
        <time>2021-07-22T07:22:16.000Z</time>
      </trkpt>
      <trkpt lat="42.97946437261998653411865234375" lon="-4.75009837187826633453369140625">
        <ele>1466.5999755859375</ele>
        <time>2021-07-22T07:22:20.000Z</time>
      </trkpt>
      <trkpt lat="42.97948264516890048980712890625" lon="-4.7500592283904552459716796875">
        <ele>1466.5999755859375</ele>
        <time>2021-07-22T07:22:23.000Z</time>
      </trkpt>
      <trkpt lat="42.9795348644256591796875" lon="-4.74994749762117862701416015625">
        <ele>1466.5999755859375</ele>
        <time>2021-07-22T07:22:30.000Z</time>
      </trkpt>
      <trkpt lat="42.979570738971233367919921875" lon="-4.74989418871700763702392578125">
        <ele>1466.5999755859375</ele>
        <time>2021-07-22T07:22:34.000Z</time>
      </trkpt>
      <trkpt lat="42.97958775423467159271240234375" lon="-4.74984322674572467803955078125">
        <ele>1466.4000244140625</ele>
        <time>2021-07-22T07:22:37.000Z</time>
      </trkpt>
      <trkpt lat="42.9796034283936023712158203125" lon="-4.74975102581083774566650390625">
        <ele>1466.199951171875</ele>
        <time>2021-07-22T07:22:44.000Z</time>
      </trkpt>
      <trkpt lat="42.979612313210964202880859375" lon="-4.74970065057277679443359375">
        <ele>1466.199951171875</ele>
        <time>2021-07-22T07:22:48.000Z</time>
      </trkpt>
      <trkpt lat="42.97962564043700695037841796875" lon="-4.7496693022549152374267578125">
        <ele>1466.800048828125</ele>
        <time>2021-07-22T07:22:51.000Z</time>
      </trkpt>
      <trkpt lat="42.97962329350411891937255859375" lon="-4.7496230341494083404541015625">
        <ele>1467</ele>
        <time>2021-07-22T07:22:54.000Z</time>
      </trkpt>
      <trkpt lat="42.97964156605303287506103515625" lon="-4.74954348988831043243408203125">
        <ele>1467.199951171875</ele>
        <time>2021-07-22T07:22:58.000Z</time>
      </trkpt>
      <trkpt lat="42.97968037426471710205078125" lon="-4.7494262270629405975341796875">
        <ele>1467</ele>
        <time>2021-07-22T07:23:04.000Z</time>
      </trkpt>
      <trkpt lat="42.979719601571559906005859375" lon="-4.7493673861026763916015625">
        <ele>1467.4000244140625</ele>
        <time>2021-07-22T07:23:09.000Z</time>
      </trkpt>
      <trkpt lat="42.9797294922173023223876953125" lon="-4.74933452904224395751953125">
        <ele>1467.5999755859375</ele>
        <time>2021-07-22T07:23:11.000Z</time>
      </trkpt>
      <trkpt lat="42.97977852635085582733154296875" lon="-4.74921123124659061431884765625">
        <ele>1468</ele>
        <time>2021-07-22T07:23:19.000Z</time>
      </trkpt>
      <trkpt lat="42.9797891713678836822509765625" lon="-4.74920268170535564422607421875">
        <ele>1468</ele>
        <time>2021-07-22T07:23:20.000Z</time>
      </trkpt>
      <trkpt lat="42.979842983186244964599609375" lon="-4.74912925623357295989990234375">
        <ele>1468.800048828125</ele>
        <time>2021-07-22T07:23:26.000Z</time>
      </trkpt>
      <trkpt lat="42.97987307421863079071044921875" lon="-4.74908642470836639404296875">
        <ele>1469</ele>
        <time>2021-07-22T07:23:29.000Z</time>
      </trkpt>
      <trkpt lat="42.97992168925702571868896484375" lon="-4.74904258735477924346923828125">
        <ele>1470.199951171875</ele>
        <time>2021-07-22T07:23:34.000Z</time>
      </trkpt>
      <trkpt lat="42.9799769259989261627197265625" lon="-4.749009646475315093994140625">
        <ele>1470.800048828125</ele>
        <time>2021-07-22T07:23:39.000Z</time>
      </trkpt>
      <trkpt lat="42.9800014011561870574951171875" lon="-4.7490047849714756011962890625">
        <ele>1471.4000244140625</ele>
        <time>2021-07-22T07:23:41.000Z</time>
      </trkpt>
      <trkpt lat="42.98001321963965892791748046875" lon="-4.749003946781158447265625">
        <ele>1471.5999755859375</ele>
        <time>2021-07-22T07:23:42.000Z</time>
      </trkpt>
      <trkpt lat="42.9800520278513431549072265625" lon="-4.74898944608867168426513671875">
        <ele>1472</ele>
        <time>2021-07-22T07:23:45.000Z</time>
      </trkpt>
      <trkpt lat="42.98006501980125904083251953125" lon="-4.748982153832912445068359375">
        <ele>1472.4000244140625</ele>
        <time>2021-07-22T07:23:46.000Z</time>
      </trkpt>
      <trkpt lat="42.9800781793892383575439453125" lon="-4.7489784657955169677734375">
        <ele>1472.5999755859375</ele>
        <time>2021-07-22T07:23:47.000Z</time>
      </trkpt>
      <trkpt lat="42.9801692068576812744140625" lon="-4.74895960651338100433349609375">
        <ele>1473.4000244140625</ele>
        <time>2021-07-22T07:23:54.000Z</time>
      </trkpt>
      <trkpt lat="42.98019938170909881591796875" lon="-4.74894938059151172637939453125">
        <ele>1473.5999755859375</ele>
        <time>2021-07-22T07:23:56.000Z</time>
      </trkpt>
      <trkpt lat="42.98025847412645816802978515625" lon="-4.74888199009001255035400390625">
        <ele>1474.199951171875</ele>
        <time>2021-07-22T07:24:01.000Z</time>
      </trkpt>
      <trkpt lat="42.98027959652245044708251953125" lon="-4.74886924959719181060791015625">
        <ele>1474.199951171875</ele>
        <time>2021-07-22T07:24:03.000Z</time>
      </trkpt>
      <trkpt lat="42.98030692152678966522216796875" lon="-4.74885600619018077850341796875">
        <ele>1474.4000244140625</ele>
        <time>2021-07-22T07:24:05.000Z</time>
      </trkpt>
      <trkpt lat="42.98038043081760406494140625" lon="-4.74877771921455860137939453125">
        <ele>1474.5999755859375</ele>
        <time>2021-07-22T07:24:11.000Z</time>
      </trkpt>
      <trkpt lat="42.98038981854915618896484375" lon="-4.74877470172941684722900390625">
        <ele>1474.800048828125</ele>
        <time>2021-07-22T07:24:12.000Z</time>
      </trkpt>
      <trkpt lat="42.9804835282266139984130859375" lon="-4.748728685081005096435546875">
        <ele>1475.800048828125</ele>
        <time>2021-07-22T07:24:20.000Z</time>
      </trkpt>
      <trkpt lat="42.98049752600491046905517578125" lon="-4.7487228177487850189208984375">
        <ele>1475.800048828125</ele>
        <time>2021-07-22T07:24:21.000Z</time>
      </trkpt>
      <trkpt lat="42.98057950101792812347412109375" lon="-4.7486919723451137542724609375">
        <ele>1476.5999755859375</ele>
        <time>2021-07-22T07:24:28.000Z</time>
      </trkpt>
      <trkpt lat="42.98059022985398769378662109375" lon="-4.74868820048868656158447265625">
        <ele>1476.800048828125</ele>
        <time>2021-07-22T07:24:29.000Z</time>
      </trkpt>
      <trkpt lat="42.98071034252643585205078125" lon="-4.74861863069236278533935546875">
        <ele>1477.199951171875</ele>
        <time>2021-07-22T07:24:38.000Z</time>
      </trkpt>
      <trkpt lat="42.9807953350245952606201171875" lon="-4.74856398068368434906005859375">
        <ele>1477.800048828125</ele>
        <time>2021-07-22T07:24:44.000Z</time>
      </trkpt>
      <trkpt lat="42.9808087460696697235107421875" lon="-4.748558364808559417724609375">
        <ele>1477.800048828125</ele>
        <time>2021-07-22T07:24:45.000Z</time>
      </trkpt>
      <trkpt lat="42.98090748488903045654296875" lon="-4.7485156171023845672607421875">
        <ele>1478.800048828125</ele>
        <time>2021-07-22T07:24:53.000Z</time>
      </trkpt>
      <trkpt lat="42.98091812990605831146240234375" lon="-4.7485079057514667510986328125">
        <ele>1478.800048828125</ele>
        <time>2021-07-22T07:24:54.000Z</time>
      </trkpt>
      <trkpt lat="42.98097948543727397918701171875" lon="-4.7484810836613178253173828125">
        <ele>1479.199951171875</ele>
        <time>2021-07-22T07:25:00.000Z</time>
      </trkpt>
      <trkpt lat="42.98104251734912395477294921875" lon="-4.74841327406466007232666015625">
        <ele>1479.5999755859375</ele>
        <time>2021-07-22T07:25:06.000Z</time>
      </trkpt>
      <trkpt lat="42.98109934665262699127197265625" lon="-4.74836549721658229827880859375">
        <ele>1479.800048828125</ele>
        <time>2021-07-22T07:25:11.000Z</time>
      </trkpt>
      <trkpt lat="42.98112113960087299346923828125" lon="-4.74834336899220943450927734375">
        <ele>1480</ele>
        <time>2021-07-22T07:25:13.000Z</time>
      </trkpt>
      <trkpt lat="42.9811902903020381927490234375" lon="-4.74827731959521770477294921875">
        <ele>1480</ele>
        <time>2021-07-22T07:25:19.000Z</time>
      </trkpt>
      <trkpt lat="42.98129883594810962677001953125" lon="-4.748186878859996795654296875">
        <ele>1480.5999755859375</ele>
        <time>2021-07-22T07:25:28.000Z</time>
      </trkpt>
      <trkpt lat="42.98138584010303020477294921875" lon="-4.74809710867702960968017578125">
        <ele>1480.4000244140625</ele>
        <time>2021-07-22T07:25:36.000Z</time>
      </trkpt>
      <trkpt lat="42.9814970679581165313720703125" lon="-4.747999124228954315185546875">
        <ele>1479.800048828125</ele>
        <time>2021-07-22T07:25:45.000Z</time>
      </trkpt>
      <trkpt lat="42.98160293139517307281494140625" lon="-4.74795629270374774932861328125">
        <ele>1480.5999755859375</ele>
        <time>2021-07-22T07:25:54.000Z</time>
      </trkpt>
      <trkpt lat="42.98163034021854400634765625" lon="-4.74793936125934123992919921875">
        <ele>1481</ele>
        <time>2021-07-22T07:25:56.000Z</time>
      </trkpt>
      <trkpt lat="42.98169814981520175933837890625" lon="-4.74792427383363246917724609375">
        <ele>1482.199951171875</ele>
        <time>2021-07-22T07:26:01.000Z</time>
      </trkpt>
      <trkpt lat="42.98176042735576629638671875" lon="-4.74788839928805828094482421875">
        <ele>1483.4000244140625</ele>
        <time>2021-07-22T07:26:07.000Z</time>
      </trkpt>
      <trkpt lat="42.9817733354866504669189453125" lon="-4.7478829510509967803955078125">
        <ele>1483.4000244140625</ele>
        <time>2021-07-22T07:26:08.000Z</time>
      </trkpt>
      <trkpt lat="42.9818460904061794281005859375" lon="-4.7478546202182769775390625">
        <ele>1484.199951171875</ele>
        <time>2021-07-22T07:26:14.000Z</time>
      </trkpt>
      <trkpt lat="42.9818554781377315521240234375" lon="-4.7478504292666912078857421875">
        <ele>1484.4000244140625</ele>
        <time>2021-07-22T07:26:15.000Z</time>
      </trkpt>
      <trkpt lat="42.98189898021519184112548828125" lon="-4.747830145061016082763671875">
        <ele>1485.199951171875</ele>
        <time>2021-07-22T07:26:19.000Z</time>
      </trkpt>
      <trkpt lat="42.98192429356276988983154296875" lon="-4.74781882949173450469970703125">
        <ele>1485.800048828125</ele>
        <time>2021-07-22T07:26:21.000Z</time>
      </trkpt>
      <trkpt lat="42.98197508789598941802978515625" lon="-4.74779988639056682586669921875">
        <ele>1486.199951171875</ele>
        <time>2021-07-22T07:26:25.000Z</time>
      </trkpt>
      <trkpt lat="42.98200308345258235931396484375" lon="-4.74779720418155193328857421875">
        <ele>1486.5999755859375</ele>
        <time>2021-07-22T07:26:28.000Z</time>
      </trkpt>
      <trkpt lat="42.9820187576115131378173828125" lon="-4.7477904148399829864501953125">
        <ele>1486.800048828125</ele>
        <time>2021-07-22T07:26:30.000Z</time>
      </trkpt>
      <trkpt lat="42.98205303959548473358154296875" lon="-4.74776233546435832977294921875">
        <ele>1488</ele>
        <time>2021-07-22T07:26:34.000Z</time>
      </trkpt>
      <trkpt lat="42.982063181698322296142578125" lon="-4.74774858914315700531005859375">
        <ele>1488.199951171875</ele>
        <time>2021-07-22T07:26:35.000Z</time>
      </trkpt>
      <trkpt lat="42.9821327514946460723876953125" lon="-4.747681282460689544677734375">
        <ele>1488.800048828125</ele>
        <time>2021-07-22T07:26:41.000Z</time>
      </trkpt>
      <trkpt lat="42.98221506178379058837890625" lon="-4.7475661151111125946044921875">
        <ele>1489</ele>
        <time>2021-07-22T07:26:48.000Z</time>
      </trkpt>
      <trkpt lat="42.98222872428596019744873046875" lon="-4.74754625000059604644775390625">
        <ele>1489</ele>
        <time>2021-07-22T07:26:49.000Z</time>
      </trkpt>
      <trkpt lat="42.9822651855647563934326171875" lon="-4.74749729968607425689697265625">
        <ele>1489.199951171875</ele>
        <time>2021-07-22T07:26:53.000Z</time>
      </trkpt>
      <trkpt lat="42.98233517445623874664306640625" lon="-4.7474065236747264862060546875">
        <ele>1489.199951171875</ele>
        <time>2021-07-22T07:26:58.000Z</time>
      </trkpt>
      <trkpt lat="42.982378341257572174072265625" lon="-4.7473646141588687896728515625">
        <ele>1488.199951171875</ele>
        <time>2021-07-22T07:27:02.000Z</time>
      </trkpt>
      <trkpt lat="42.9823982901871204376220703125" lon="-4.7473465092480182647705078125">
        <ele>1487.800048828125</ele>
        <time>2021-07-22T07:27:04.000Z</time>
      </trkpt>
      <trkpt lat="42.98242385499179363250732421875" lon="-4.747316502034664154052734375">
        <ele>1488</ele>
        <time>2021-07-22T07:27:07.000Z</time>
      </trkpt>
      <trkpt lat="42.982433997094631195068359375" lon="-4.74730434827506542205810546875">
        <ele>1488</ele>
        <time>2021-07-22T07:27:08.000Z</time>
      </trkpt>
      <trkpt lat="42.982502393424510955810546875" lon="-4.74720510654151439666748046875">
        <ele>1487.800048828125</ele>
        <time>2021-07-22T07:27:15.000Z</time>
      </trkpt>
      <trkpt lat="42.98254438675940036773681640625" lon="-4.7471215389668941497802734375">
        <ele>1488.5999755859375</ele>
        <time>2021-07-22T07:27:24.000Z</time>
      </trkpt>
      <trkpt lat="42.98257271759212017059326171875" lon="-4.7470836527645587921142578125">
        <ele>1488.800048828125</ele>
        <time>2021-07-22T07:27:28.000Z</time>
      </trkpt>
      <trkpt lat="42.98259115777909755706787109375" lon="-4.74704819731414318084716796875">
        <ele>1489.199951171875</ele>
        <time>2021-07-22T07:27:30.000Z</time>
      </trkpt>
      <trkpt lat="42.9826608113944530487060546875" lon="-4.7469453513622283935546875">
        <ele>1490</ele>
        <time>2021-07-22T07:27:37.000Z</time>
      </trkpt>
      <trkpt lat="42.9827540181577205657958984375" lon="-4.74686689674854278564453125">
        <ele>1491</ele>
        <time>2021-07-22T07:27:45.000Z</time>
      </trkpt>
      <trkpt lat="42.98276466317474842071533203125" lon="-4.74685910157859325408935546875">
        <ele>1491.199951171875</ele>
        <time>2021-07-22T07:27:46.000Z</time>
      </trkpt>
      <trkpt lat="42.98284563235938549041748046875" lon="-4.746791459619998931884765625">
        <ele>1491.5999755859375</ele>
        <time>2021-07-22T07:27:54.000Z</time>
      </trkpt>
      <trkpt lat="42.982857786118984222412109375" lon="-4.746780730783939361572265625">
        <ele>1491.5999755859375</ele>
        <time>2021-07-22T07:27:55.000Z</time>
      </trkpt>
      <trkpt lat="42.98291184939444065093994140625" lon="-4.74674594588577747344970703125">
        <ele>1492.199951171875</ele>
        <time>2021-07-22T07:28:00.000Z</time>
      </trkpt>
      <trkpt lat="42.98297052271664142608642578125" lon="-4.7466985881328582763671875">
        <ele>1493.199951171875</ele>
        <time>2021-07-22T07:28:05.000Z</time>
      </trkpt>
      <trkpt lat="42.98298460431396961212158203125" lon="-4.746675454080104827880859375">
        <ele>1493.4000244140625</ele>
        <time>2021-07-22T07:28:07.000Z</time>
      </trkpt>
      <trkpt lat="42.98303179442882537841796875" lon="-4.7466055490076541900634765625">
        <ele>1494.199951171875</ele>
        <time>2021-07-22T07:28:12.000Z</time>
      </trkpt>
      <trkpt lat="42.98304294236004352569580078125" lon="-4.74658786319196224212646484375">
        <ele>1494.199951171875</ele>
        <time>2021-07-22T07:28:13.000Z</time>
      </trkpt>
      <trkpt lat="42.9830758832395076751708984375" lon="-4.74648023955523967742919921875">
        <ele>1495</ele>
        <time>2021-07-22T07:28:19.000Z</time>
      </trkpt>
      <trkpt lat="42.98310211859643459320068359375" lon="-4.74642508663237094879150390625">
        <ele>1495.199951171875</ele>
        <time>2021-07-22T07:28:23.000Z</time>
      </trkpt>
      <trkpt lat="42.98312122933566570281982421875" lon="-4.7464114241302013397216796875">
        <ele>1495.199951171875</ele>
        <time>2021-07-22T07:28:25.000Z</time>
      </trkpt>
      <trkpt lat="42.983134053647518157958984375" lon="-4.7463993541896343231201171875">
        <ele>1495.199951171875</ele>
        <time>2021-07-22T07:28:26.000Z</time>
      </trkpt>
      <trkpt lat="42.98318644054234027862548828125" lon="-4.74632232449948787689208984375">
        <ele>1496.4000244140625</ele>
        <time>2021-07-22T07:28:32.000Z</time>
      </trkpt>
      <trkpt lat="42.98323136754333972930908203125" lon="-4.74622450768947601318359375">
        <ele>1497</ele>
        <time>2021-07-22T07:28:39.000Z</time>
      </trkpt>
      <trkpt lat="42.98323505558073520660400390625" lon="-4.74621067754924297332763671875">
        <ele>1497</ele>
        <time>2021-07-22T07:28:40.000Z</time>
      </trkpt>
      <trkpt lat="42.98324343748390674591064453125" lon="-4.74617547355592250823974609375">
        <ele>1497.5999755859375</ele>
        <time>2021-07-22T07:28:43.000Z</time>
      </trkpt>
      <trkpt lat="42.98325131647288799285888671875" lon="-4.7461549378931522369384765625">
        <ele>1497.800048828125</ele>
        <time>2021-07-22T07:28:45.000Z</time>
      </trkpt>
      <trkpt lat="42.98331384547054767608642578125" lon="-4.746064245700836181640625">
        <ele>1498.5999755859375</ele>
        <time>2021-07-22T07:28:52.000Z</time>
      </trkpt>
      <trkpt lat="42.98331879079341888427734375" lon="-4.74605158902704715728759765625">
        <ele>1498.5999755859375</ele>
        <time>2021-07-22T07:28:53.000Z</time>
      </trkpt>
      <trkpt lat="42.98334653489291667938232421875" lon="-4.74601353518664836883544921875">
        <ele>1498.800048828125</ele>
        <time>2021-07-22T07:28:57.000Z</time>
      </trkpt>
      <trkpt lat="42.98338693566620349884033203125" lon="-4.745972715318202972412109375">
        <ele>1499.5999755859375</ele>
        <time>2021-07-22T07:29:00.000Z</time>
      </trkpt>
      <trkpt lat="42.98340202309191226959228515625" lon="-4.7459574602544307708740234375">
        <ele>1499.800048828125</ele>
        <time>2021-07-22T07:29:01.000Z</time>
      </trkpt>
      <trkpt lat="42.9834232293069362640380859375" lon="-4.745923094451427459716796875">
        <ele>1500.199951171875</ele>
        <time>2021-07-22T07:29:03.000Z</time>
      </trkpt>
      <trkpt lat="42.9834443517029285430908203125" lon="-4.7458751499652862548828125">
        <ele>1500.4000244140625</ele>
        <time>2021-07-22T07:29:06.000Z</time>
      </trkpt>
      <trkpt lat="42.98347092233598232269287109375" lon="-4.745812453329563140869140625">
        <ele>1501</ele>
        <time>2021-07-22T07:29:11.000Z</time>
      </trkpt>
      <trkpt lat="42.98351350240409374237060546875" lon="-4.74575269035995006561279296875">
        <ele>1501.4000244140625</ele>
        <time>2021-07-22T07:29:15.000Z</time>
      </trkpt>
      <trkpt lat="42.98354032449424266815185546875" lon="-4.7456935979425907135009765625">
        <ele>1502</ele>
        <time>2021-07-22T07:29:19.000Z</time>
      </trkpt>
      <trkpt lat="42.98355080187320709228515625" lon="-4.74563199095427989959716796875">
        <ele>1502.4000244140625</ele>
        <time>2021-07-22T07:29:23.000Z</time>
      </trkpt>
      <trkpt lat="42.98361408524215221405029296875" lon="-4.74550374783575534820556640625">
        <ele>1502.5999755859375</ele>
        <time>2021-07-22T07:29:31.000Z</time>
      </trkpt>
      <trkpt lat="42.9836287535727024078369140625" lon="-4.74533560685813426971435546875">
        <ele>1502.5999755859375</ele>
        <time>2021-07-22T07:29:39.000Z</time>
      </trkpt>
      <trkpt lat="42.983644343912601470947265625" lon="-4.7452446632087230682373046875">
        <ele>1503</ele>
        <time>2021-07-22T07:29:44.000Z</time>
      </trkpt>
      <trkpt lat="42.98363956622779369354248046875" lon="-4.74517920054495334625244140625">
        <ele>1503.4000244140625</ele>
        <time>2021-07-22T07:29:48.000Z</time>
      </trkpt>
      <trkpt lat="42.98370645381510257720947265625" lon="-4.74500401876866817474365234375">
        <ele>1503.800048828125</ele>
        <time>2021-07-22T07:29:58.000Z</time>
      </trkpt>
      <trkpt lat="42.98372522927820682525634765625" lon="-4.74493696354329586029052734375">
        <ele>1504</ele>
        <time>2021-07-22T07:30:02.000Z</time>
      </trkpt>
      <trkpt lat="42.98374802805483341217041015625" lon="-4.744868986308574676513671875">
        <ele>1504.5999755859375</ele>
        <time>2021-07-22T07:30:06.000Z</time>
      </trkpt>
      <trkpt lat="42.9837526381015777587890625" lon="-4.74482296966016292572021484375">
        <ele>1505.4000244140625</ele>
        <time>2021-07-22T07:30:09.000Z</time>
      </trkpt>
      <trkpt lat="42.98375993035733699798583984375" lon="-4.74476127885282039642333984375">
        <ele>1506.199951171875</ele>
        <time>2021-07-22T07:30:13.000Z</time>
      </trkpt>
      <trkpt lat="42.98376881517469882965087890625" lon="-4.744738228619098663330078125">
        <ele>1506.4000244140625</ele>
        <time>2021-07-22T07:30:15.000Z</time>
      </trkpt>
      <trkpt lat="42.98381374217569828033447265625" lon="-4.74466077983379364013671875">
        <ele>1507.5999755859375</ele>
        <time>2021-07-22T07:30:20.000Z</time>
      </trkpt>
      <trkpt lat="42.9838277399539947509765625" lon="-4.74463638849556446075439453125">
        <ele>1508</ele>
        <time>2021-07-22T07:30:22.000Z</time>
      </trkpt>
      <trkpt lat="42.9838357865810394287109375" lon="-4.7446116618812084197998046875">
        <ele>1508.199951171875</ele>
        <time>2021-07-22T07:30:24.000Z</time>
      </trkpt>
      <trkpt lat="42.9838547296822071075439453125" lon="-4.7445689141750335693359375">
        <ele>1508.5999755859375</ele>
        <time>2021-07-22T07:30:27.000Z</time>
      </trkpt>
      <trkpt lat="42.9838667996227741241455078125" lon="-4.7445447742938995361328125">
        <ele>1509</ele>
        <time>2021-07-22T07:30:29.000Z</time>
      </trkpt>
      <trkpt lat="42.9838882572948932647705078125" lon="-4.7444899566471576690673828125">
        <ele>1509.800048828125</ele>
        <time>2021-07-22T07:30:33.000Z</time>
      </trkpt>
      <trkpt lat="42.983904182910919189453125" lon="-4.7444155253469944000244140625">
        <ele>1510</ele>
        <time>2021-07-22T07:30:37.000Z</time>
      </trkpt>
      <trkpt lat="42.98391826450824737548828125" lon="-4.7443481348454952239990234375">
        <ele>1510.800048828125</ele>
        <time>2021-07-22T07:30:40.000Z</time>
      </trkpt>
      <trkpt lat="42.98394550569355487823486328125" lon="-4.74425920285284519195556640625">
        <ele>1511.199951171875</ele>
        <time>2021-07-22T07:30:45.000Z</time>
      </trkpt>
      <trkpt lat="42.98397132195532321929931640625" lon="-4.74419248290359973907470703125">
        <ele>1511.800048828125</ele>
        <time>2021-07-22T07:30:50.000Z</time>
      </trkpt>
      <trkpt lat="42.9839807935059070587158203125" lon="-4.74417068995535373687744140625">
        <ele>1512.4000244140625</ele>
        <time>2021-07-22T07:30:52.000Z</time>
      </trkpt>
      <trkpt lat="42.9840009100735187530517578125" lon="-4.744130708277225494384765625">
        <ele>1512.800048828125</ele>
        <time>2021-07-22T07:30:56.000Z</time>
      </trkpt>
      <trkpt lat="42.98401214182376861572265625" lon="-4.744083099067211151123046875">
        <ele>1513.199951171875</ele>
        <time>2021-07-22T07:30:59.000Z</time>
      </trkpt>
      <trkpt lat="42.9840136505663394927978515625" lon="-4.74406206049025058746337890625">
        <ele>1514</ele>
        <time>2021-07-22T07:31:01.000Z</time>
      </trkpt>
      <trkpt lat="42.9840119741857051849365234375" lon="-4.74396885372698307037353515625">
        <ele>1514.800048828125</ele>
        <time>2021-07-22T07:31:08.000Z</time>
      </trkpt>
      <trkpt lat="42.98401976935565471649169921875" lon="-4.74394597113132476806640625">
        <ele>1515.4000244140625</ele>
        <time>2021-07-22T07:31:10.000Z</time>
      </trkpt>
      <trkpt lat="42.984048686921596527099609375" lon="-4.74388293921947479248046875">
        <ele>1516.4000244140625</ele>
        <time>2021-07-22T07:31:15.000Z</time>
      </trkpt>
      <trkpt lat="42.98405296169221401214599609375" lon="-4.74387514404952526092529296875">
        <ele>1516.800048828125</ele>
        <time>2021-07-22T07:31:16.000Z</time>
      </trkpt>
      <trkpt lat="42.98405882902443408966064453125" lon="-4.74386818706989288330078125">
        <ele>1516.800048828125</ele>
        <time>2021-07-22T07:31:17.000Z</time>
      </trkpt>
      <trkpt lat="42.98410526476800441741943359375" lon="-4.743782021105289459228515625">
        <ele>1517.5999755859375</ele>
        <time>2021-07-22T07:31:23.000Z</time>
      </trkpt>
      <trkpt lat="42.9841147363185882568359375" lon="-4.74373273551464080810546875">
        <ele>1518.800048828125</ele>
        <time>2021-07-22T07:31:27.000Z</time>
      </trkpt>
      <trkpt lat="42.9841165803372859954833984375" lon="-4.74368512630462646484375">
        <ele>1519</ele>
        <time>2021-07-22T07:31:30.000Z</time>
      </trkpt>
      <trkpt lat="42.98412186093628406524658203125" lon="-4.7435947693884372711181640625">
        <ele>1519.800048828125</ele>
        <time>2021-07-22T07:31:35.000Z</time>
      </trkpt>
      <trkpt lat="42.98413074575364589691162109375" lon="-4.74354389123618602752685546875">
        <ele>1520.4000244140625</ele>
        <time>2021-07-22T07:31:38.000Z</time>
      </trkpt>
      <trkpt lat="42.98414465971291065216064453125" lon="-4.743494689464569091796875">
        <ele>1521</ele>
        <time>2021-07-22T07:31:41.000Z</time>
      </trkpt>
      <trkpt lat="42.98414935357868671417236328125" lon="-4.74343911744654178619384765625">
        <ele>1521.199951171875</ele>
        <time>2021-07-22T07:31:45.000Z</time>
      </trkpt>
      <trkpt lat="42.98415689729154109954833984375" lon="-4.74339586682617664337158203125">
        <ele>1522</ele>
        <time>2021-07-22T07:31:48.000Z</time>
      </trkpt>
      <trkpt lat="42.98417173326015472412109375" lon="-4.7433030791580677032470703125">
        <ele>1523</ele>
        <time>2021-07-22T07:31:54.000Z</time>
      </trkpt>
      <trkpt lat="42.984182126820087432861328125" lon="-4.743242226541042327880859375">
        <ele>1524.199951171875</ele>
        <time>2021-07-22T07:31:59.000Z</time>
      </trkpt>
      <trkpt lat="42.9842000640928745269775390625" lon="-4.74320392124354839324951171875">
        <ele>1524.4000244140625</ele>
        <time>2021-07-22T07:32:01.000Z</time>
      </trkpt>
      <trkpt lat="42.9842114634811878204345703125" lon="-4.74315681494772434234619140625">
        <ele>1525</ele>
        <time>2021-07-22T07:32:05.000Z</time>
      </trkpt>
      <trkpt lat="42.98421305604279041290283203125" lon="-4.7431424818933010101318359375">
        <ele>1525.199951171875</ele>
        <time>2021-07-22T07:32:06.000Z</time>
      </trkpt>
      <trkpt lat="42.98423099331557750701904296875" lon="-4.74306352436542510986328125">
        <ele>1526.199951171875</ele>
        <time>2021-07-22T07:32:12.000Z</time>
      </trkpt>
      <trkpt lat="42.98423350788652896881103515625" lon="-4.7430546395480632781982421875">
        <ele>1526.4000244140625</ele>
        <time>2021-07-22T07:32:13.000Z</time>
      </trkpt>
      <trkpt lat="42.98423736356198787689208984375" lon="-4.7430412285029888153076171875">
        <ele>1526.4000244140625</ele>
        <time>2021-07-22T07:32:14.000Z</time>
      </trkpt>
      <trkpt lat="42.984236441552639007568359375" lon="-4.7429798729717731475830078125">
        <ele>1526.800048828125</ele>
        <time>2021-07-22T07:32:18.000Z</time>
      </trkpt>
      <trkpt lat="42.9842349328100681304931640625" lon="-4.74296688102185726165771484375">
        <ele>1527</ele>
        <time>2021-07-22T07:32:19.000Z</time>
      </trkpt>
      <trkpt lat="42.98423568718135356903076171875" lon="-4.74294508807361125946044921875">
        <ele>1527.4000244140625</ele>
        <time>2021-07-22T07:32:21.000Z</time>
      </trkpt>
      <trkpt lat="42.9842372797429561614990234375" lon="-4.74289513193070888519287109375">
        <ele>1527.800048828125</ele>
        <time>2021-07-22T07:32:24.000Z</time>
      </trkpt>
      <trkpt lat="42.984256558120250701904296875" lon="-4.74283176474273204803466796875">
        <ele>1528.4000244140625</ele>
        <time>2021-07-22T07:32:28.000Z</time>
      </trkpt>
      <trkpt lat="42.98426091670989990234375" lon="-4.74278616718947887420654296875">
        <ele>1528.5999755859375</ele>
        <time>2021-07-22T07:32:31.000Z</time>
      </trkpt>
      <trkpt lat="42.984263598918914794921875" lon="-4.7427696548402309417724609375">
        <ele>1528.800048828125</ele>
        <time>2021-07-22T07:32:32.000Z</time>
      </trkpt>
      <trkpt lat="42.98427491448819637298583984375" lon="-4.7427155077457427978515625">
        <ele>1529.5999755859375</ele>
        <time>2021-07-22T07:32:35.000Z</time>
      </trkpt>
      <trkpt lat="42.9842926003038883209228515625" lon="-4.74265658296644687652587890625">
        <ele>1530.5999755859375</ele>
        <time>2021-07-22T07:32:39.000Z</time>
      </trkpt>
      <trkpt lat="42.9843133874237537384033203125" lon="-4.742585755884647369384765625">
        <ele>1531.199951171875</ele>
        <time>2021-07-22T07:32:44.000Z</time>
      </trkpt>
      <trkpt lat="42.98431900329887866973876953125" lon="-4.74257594905793666839599609375">
        <ele>1531.5999755859375</ele>
        <time>2021-07-22T07:32:45.000Z</time>
      </trkpt>
      <trkpt lat="42.98435403965413570404052734375" lon="-4.742452315986156463623046875">
        <ele>1532.4000244140625</ele>
        <time>2021-07-22T07:32:52.000Z</time>
      </trkpt>
      <trkpt lat="42.98436258919537067413330078125" lon="-4.7424139268696308135986328125">
        <ele>1532.800048828125</ele>
        <time>2021-07-22T07:32:54.000Z</time>
      </trkpt>
      <trkpt lat="42.98439192585647106170654296875" lon="-4.74228291772305965423583984375">
        <ele>1533.800048828125</ele>
        <time>2021-07-22T07:33:01.000Z</time>
      </trkpt>
      <trkpt lat="42.9844381101429462432861328125" lon="-4.74214059300720691680908203125">
        <ele>1534.4000244140625</ele>
        <time>2021-07-22T07:33:09.000Z</time>
      </trkpt>
      <trkpt lat="42.984442971646785736083984375" lon="-4.74211175926029682159423828125">
        <ele>1534.199951171875</ele>
        <time>2021-07-22T07:33:11.000Z</time>
      </trkpt>
      <trkpt lat="42.98447406850755214691162109375" lon="-4.74202542565762996673583984375">
        <ele>1534.4000244140625</ele>
        <time>2021-07-22T07:33:16.000Z</time>
      </trkpt>
      <trkpt lat="42.984493933618068695068359375" lon="-4.74197446368634700775146484375">
        <ele>1534.800048828125</ele>
        <time>2021-07-22T07:33:19.000Z</time>
      </trkpt>
      <trkpt lat="42.98450139351189136505126953125" lon="-4.74195753224194049835205078125">
        <ele>1535</ele>
        <time>2021-07-22T07:33:20.000Z</time>
      </trkpt>
      <trkpt lat="42.98452955670654773712158203125" lon="-4.74185141734778881072998046875">
        <ele>1536</ele>
        <time>2021-07-22T07:33:26.000Z</time>
      </trkpt>
      <trkpt lat="42.98453676514327526092529296875" lon="-4.741815961897373199462890625">
        <ele>1536</ele>
        <time>2021-07-22T07:33:28.000Z</time>
      </trkpt>
      <trkpt lat="42.984573058784008026123046875" lon="-4.741667769849300384521484375">
        <ele>1536.800048828125</ele>
        <time>2021-07-22T07:33:37.000Z</time>
      </trkpt>
      <trkpt lat="42.984593845903873443603515625" lon="-4.7416062466800212860107421875">
        <ele>1537</ele>
        <time>2021-07-22T07:33:41.000Z</time>
      </trkpt>
      <trkpt lat="42.98464153893291950225830078125" lon="-4.74152821116149425506591796875">
        <ele>1538.199951171875</ele>
        <time>2021-07-22T07:33:46.000Z</time>
      </trkpt>
      <trkpt lat="42.984710521996021270751953125" lon="-4.7414000518620014190673828125">
        <ele>1538.800048828125</ele>
        <time>2021-07-22T07:33:54.000Z</time>
      </trkpt>
      <trkpt lat="42.98472820781171321868896484375" lon="-4.7413341701030731201171875">
        <ele>1539.199951171875</ele>
        <time>2021-07-22T07:33:59.000Z</time>
      </trkpt>
      <trkpt lat="42.9847499169409275054931640625" lon="-4.74126736633479595184326171875">
        <ele>1539.5999755859375</ele>
        <time>2021-07-22T07:34:03.000Z</time>
      </trkpt>
      <trkpt lat="42.98477833159267902374267578125" lon="-4.7412156499922275543212890625">
        <ele>1540.4000244140625</ele>
        <time>2021-07-22T07:34:07.000Z</time>
      </trkpt>
      <trkpt lat="42.98480599187314510345458984375" lon="-4.74115119315683841705322265625">
        <ele>1541.4000244140625</ele>
        <time>2021-07-22T07:34:11.000Z</time>
      </trkpt>
      <trkpt lat="42.9848094284534454345703125" lon="-4.74113292060792446136474609375">
        <ele>1541.4000244140625</ele>
        <time>2021-07-22T07:34:12.000Z</time>
      </trkpt>
      <trkpt lat="42.98483415506780147552490234375" lon="-4.74105547182261943817138671875">
        <ele>1541.5999755859375</ele>
        <time>2021-07-22T07:34:17.000Z</time>
      </trkpt>
      <trkpt lat="42.98490154556930065155029296875" lon="-4.74091683514416217803955078125">
        <ele>1542.4000244140625</ele>
        <time>2021-07-22T07:34:25.000Z</time>
      </trkpt>
      <trkpt lat="42.9849128611385822296142578125" lon="-4.740898311138153076171875">
        <ele>1542.5999755859375</ele>
        <time>2021-07-22T07:34:26.000Z</time>
      </trkpt>
      <trkpt lat="42.984941862523555755615234375" lon="-4.74079445935785770416259765625">
        <ele>1543</ele>
        <time>2021-07-22T07:34:33.000Z</time>
      </trkpt>
      <trkpt lat="42.9849529266357421875" lon="-4.74075271748006343841552734375">
        <ele>1543.5999755859375</ele>
        <time>2021-07-22T07:34:36.000Z</time>
      </trkpt>
      <trkpt lat="42.98499324358999729156494140625" lon="-4.74067375995218753814697265625">
        <ele>1544.199951171875</ele>
        <time>2021-07-22T07:34:42.000Z</time>
      </trkpt>
      <trkpt lat="42.98501000739634037017822265625" lon="-4.7406383045017719268798828125">
        <ele>1544.800048828125</ele>
        <time>2021-07-22T07:34:44.000Z</time>
      </trkpt>
      <trkpt lat="42.985060550272464752197265625" lon="-4.7405179403722286224365234375">
        <ele>1545.800048828125</ele>
        <time>2021-07-22T07:34:52.000Z</time>
      </trkpt>
      <trkpt lat="42.98510438762605190277099609375" lon="-4.74046471528708934783935546875">
        <ele>1546.800048828125</ele>
        <time>2021-07-22T07:34:57.000Z</time>
      </trkpt>
      <trkpt lat="42.985119558870792388916015625" lon="-4.74044359289109706878662109375">
        <ele>1547</ele>
        <time>2021-07-22T07:34:59.000Z</time>
      </trkpt>
      <trkpt lat="42.985171191394329071044921875" lon="-4.740342088043689727783203125">
        <ele>1548</ele>
        <time>2021-07-22T07:35:06.000Z</time>
      </trkpt>
      <trkpt lat="42.9851780645549297332763671875" lon="-4.74030713550746440887451171875">
        <ele>1548.4000244140625</ele>
        <time>2021-07-22T07:35:08.000Z</time>
      </trkpt>
      <trkpt lat="42.985193990170955657958984375" lon="-4.74026489071547985076904296875">
        <ele>1549</ele>
        <time>2021-07-22T07:35:11.000Z</time>
      </trkpt>
      <trkpt lat="42.9852152802050113677978515625" lon="-4.740214683115482330322265625">
        <ele>1549.5999755859375</ele>
        <time>2021-07-22T07:35:15.000Z</time>
      </trkpt>
      <trkpt lat="42.9852263443171977996826171875" lon="-4.74014955572783946990966796875">
        <ele>1550</ele>
        <time>2021-07-22T07:35:19.000Z</time>
      </trkpt>
      <trkpt lat="42.9852310381829738616943359375" lon="-4.74007646553218364715576171875">
        <ele>1550.199951171875</ele>
        <time>2021-07-22T07:35:23.000Z</time>
      </trkpt>
      <trkpt lat="42.98525978811085224151611328125" lon="-4.74000848829746246337890625">
        <ele>1550.800048828125</ele>
        <time>2021-07-22T07:35:27.000Z</time>
      </trkpt>
      <trkpt lat="42.9852950759232044219970703125" lon="-4.73995040170848369598388671875">
        <ele>1551</ele>
        <time>2021-07-22T07:35:31.000Z</time>
      </trkpt>
      <trkpt lat="42.98532935790717601776123046875" lon="-4.7398547641932964324951171875">
        <ele>1552</ele>
        <time>2021-07-22T07:35:38.000Z</time>
      </trkpt>
      <trkpt lat="42.98533639870584011077880859375" lon="-4.73984361626207828521728515625">
        <ele>1552.199951171875</ele>
        <time>2021-07-22T07:35:39.000Z</time>
      </trkpt>
      <trkpt lat="42.985357604920864105224609375" lon="-4.73983422853052616119384765625">
        <ele>1552.199951171875</ele>
        <time>2021-07-22T07:35:41.000Z</time>
      </trkpt>
      <trkpt lat="42.9853842593729496002197265625" lon="-4.73982986994087696075439453125">
        <ele>1552.5999755859375</ele>
        <time>2021-07-22T07:35:43.000Z</time>
      </trkpt>
      <trkpt lat="42.985410578548908233642578125" lon="-4.7398118488490581512451171875">
        <ele>1553.199951171875</ele>
        <time>2021-07-22T07:35:46.000Z</time>
      </trkpt>
      <trkpt lat="42.98546246252954006195068359375" lon="-4.73978125490248203277587890625">
        <ele>1553.800048828125</ele>
        <time>2021-07-22T07:35:51.000Z</time>
      </trkpt>
      <trkpt lat="42.9854747839272022247314453125" lon="-4.73977874033153057098388671875">
        <ele>1554.4000244140625</ele>
        <time>2021-07-22T07:35:53.000Z</time>
      </trkpt>
      <trkpt lat="42.98549464903771877288818359375" lon="-4.73975074477493762969970703125">
        <ele>1554.800048828125</ele>
        <time>2021-07-22T07:35:56.000Z</time>
      </trkpt>
      <trkpt lat="42.9855150170624256134033203125" lon="-4.73970539867877960205078125">
        <ele>1555.4000244140625</ele>
        <time>2021-07-22T07:36:00.000Z</time>
      </trkpt>
      <trkpt lat="42.985535971820354461669921875" lon="-4.73967321217060089111328125">
        <ele>1556.4000244140625</ele>
        <time>2021-07-22T07:36:03.000Z</time>
      </trkpt>
      <trkpt lat="42.985546030104160308837890625" lon="-4.7396653331816196441650390625">
        <ele>1556.5999755859375</ele>
        <time>2021-07-22T07:36:04.000Z</time>
      </trkpt>
      <trkpt lat="42.9856045357882976531982421875" lon="-4.73961629904806613922119140625">
        <ele>1557.4000244140625</ele>
        <time>2021-07-22T07:36:10.000Z</time>
      </trkpt>
      <trkpt lat="42.98561819829046726226806640625" lon="-4.73959366790950298309326171875">
        <ele>1557.5999755859375</ele>
        <time>2021-07-22T07:36:12.000Z</time>
      </trkpt>
      <trkpt lat="42.98564116470515727996826171875" lon="-4.73951655440032482147216796875">
        <ele>1558.4000244140625</ele>
        <time>2021-07-22T07:36:16.000Z</time>
      </trkpt>
      <trkpt lat="42.9856489598751068115234375" lon="-4.739481769502162933349609375">
        <ele>1558.800048828125</ele>
        <time>2021-07-22T07:36:18.000Z</time>
      </trkpt>
      <trkpt lat="42.98567988909780979156494140625" lon="-4.7394326515495777130126953125">
        <ele>1559.800048828125</ele>
        <time>2021-07-22T07:36:23.000Z</time>
      </trkpt>
      <trkpt lat="42.98572028987109661102294921875" lon="-4.73935914225876331329345703125">
        <ele>1560.199951171875</ele>
        <time>2021-07-22T07:36:29.000Z</time>
      </trkpt>
      <trkpt lat="42.9857711680233478546142578125" lon="-4.7392707131803035736083984375">
        <ele>1560.5999755859375</ele>
        <time>2021-07-22T07:36:36.000Z</time>
      </trkpt>
      <trkpt lat="42.9857912845909595489501953125" lon="-4.73923408426344394683837890625">
        <ele>1560.800048828125</ele>
        <time>2021-07-22T07:36:39.000Z</time>
      </trkpt>
      <trkpt lat="42.9858167655766010284423828125" lon="-4.739192426204681396484375">
        <ele>1561.199951171875</ele>
        <time>2021-07-22T07:36:43.000Z</time>
      </trkpt>
      <trkpt lat="42.985855154693126678466796875" lon="-4.73912604153156280517578125">
        <ele>1561.800048828125</ele>
        <time>2021-07-22T07:36:49.000Z</time>
      </trkpt>
      <trkpt lat="42.98587099649012088775634765625" lon="-4.739112295210361480712890625">
        <ele>1562</ele>
        <time>2021-07-22T07:36:51.000Z</time>
      </trkpt>
      <trkpt lat="42.98592246137559413909912109375" lon="-4.73901615478098392486572265625">
        <ele>1563</ele>
        <time>2021-07-22T07:36:58.000Z</time>
      </trkpt>
      <trkpt lat="42.98593620769679546356201171875" lon="-4.73898447118699550628662109375">
        <ele>1564</ele>
        <time>2021-07-22T07:37:03.000Z</time>
      </trkpt>
      <trkpt lat="42.98593469895422458648681640625" lon="-4.73898178897798061370849609375">
        <ele>1564.199951171875</ele>
        <time>2021-07-22T07:37:04.000Z</time>
      </trkpt>
      <trkpt lat="42.98595272004604339599609375" lon="-4.738958068192005157470703125">
        <ele>1564.5999755859375</ele>
        <time>2021-07-22T07:37:10.000Z</time>
      </trkpt>
      <trkpt lat="42.9859887622296810150146484375" lon="-4.73890475928783416748046875">
        <ele>1565.199951171875</ele>
        <time>2021-07-22T07:37:16.000Z</time>
      </trkpt>
      <trkpt lat="42.98604215495288372039794921875" lon="-4.7388680465519428253173828125">
        <ele>1565.5999755859375</ele>
        <time>2021-07-22T07:37:21.000Z</time>
      </trkpt>
      <trkpt lat="42.98605238087475299835205078125" lon="-4.73886184394359588623046875">
        <ele>1566.199951171875</ele>
        <time>2021-07-22T07:37:22.000Z</time>
      </trkpt>
      <trkpt lat="42.9860618524253368377685546875" lon="-4.73885379731655120849609375">
        <ele>1566.5999755859375</ele>
        <time>2021-07-22T07:37:23.000Z</time>
      </trkpt>
      <trkpt lat="42.9860807955265045166015625" lon="-4.738833010196685791015625">
        <ele>1567.199951171875</ele>
        <time>2021-07-22T07:37:25.000Z</time>
      </trkpt>
      <trkpt lat="42.986099906265735626220703125" lon="-4.7388130612671375274658203125">
        <ele>1567.5999755859375</ele>
        <time>2021-07-22T07:37:27.000Z</time>
      </trkpt>
      <trkpt lat="42.9861604236066341400146484375" lon="-4.7387758456170558929443359375">
        <ele>1568.4000244140625</ele>
        <time>2021-07-22T07:37:32.000Z</time>
      </trkpt>
      <trkpt lat="42.986190430819988250732421875" lon="-4.73876436240971088409423828125">
        <ele>1568.800048828125</ele>
        <time>2021-07-22T07:37:34.000Z</time>
      </trkpt>
      <trkpt lat="42.986239381134510040283203125" lon="-4.73875447176396846771240234375">
        <ele>1569.5999755859375</ele>
        <time>2021-07-22T07:37:38.000Z</time>
      </trkpt>
      <trkpt lat="42.986275255680084228515625" lon="-4.7387339361011981964111328125">
        <ele>1570.5999755859375</ele>
        <time>2021-07-22T07:37:41.000Z</time>
      </trkpt>
      <trkpt lat="42.98628606833517551422119140625" lon="-4.73872999660670757293701171875">
        <ele>1570.800048828125</ele>
        <time>2021-07-22T07:37:42.000Z</time>
      </trkpt>
      <trkpt lat="42.98634239472448825836181640625" lon="-4.738691858947277069091796875">
        <ele>1571.5999755859375</ele>
        <time>2021-07-22T07:37:47.000Z</time>
      </trkpt>
      <trkpt lat="42.986351363360881805419921875" lon="-4.73868490196764469146728515625">
        <ele>1571.800048828125</ele>
        <time>2021-07-22T07:37:48.000Z</time>
      </trkpt>
      <trkpt lat="42.9863599129021167755126953125" lon="-4.7386826388537883758544921875">
        <ele>1571.800048828125</ele>
        <time>2021-07-22T07:37:49.000Z</time>
      </trkpt>
      <trkpt lat="42.98638162203133106231689453125" lon="-4.73868171684443950653076171875">
        <ele>1572.199951171875</ele>
        <time>2021-07-22T07:37:52.000Z</time>
      </trkpt>
      <trkpt lat="42.9863974638283252716064453125" lon="-4.73868758417665958404541015625">
        <ele>1573</ele>
        <time>2021-07-22T07:37:55.000Z</time>
      </trkpt>
      <trkpt lat="42.98641213215887546539306640625" lon="-4.73868356086313724517822265625">
        <ele>1573.199951171875</ele>
        <time>2021-07-22T07:37:57.000Z</time>
      </trkpt>
      <trkpt lat="42.98643157817423343658447265625" lon="-4.73867316730320453643798828125">
        <ele>1573.199951171875</ele>
        <time>2021-07-22T07:38:02.000Z</time>
      </trkpt>
      <trkpt lat="42.9864678718149662017822265625" lon="-4.73867719061672687530517578125">
        <ele>1574.199951171875</ele>
        <time>2021-07-22T07:38:07.000Z</time>
      </trkpt>
      <trkpt lat="42.98648656345903873443603515625" lon="-4.738671071827411651611328125">
        <ele>1574.800048828125</ele>
        <time>2021-07-22T07:38:09.000Z</time>
      </trkpt>
      <trkpt lat="42.986511625349521636962890625" lon="-4.73865338601171970367431640625">
        <ele>1575.199951171875</ele>
        <time>2021-07-22T07:38:12.000Z</time>
      </trkpt>
      <trkpt lat="42.98653903417289257049560546875" lon="-4.73865003325045108795166015625">
        <ele>1575.5999755859375</ele>
        <time>2021-07-22T07:38:15.000Z</time>
      </trkpt>
      <trkpt lat="42.98658094368875026702880859375" lon="-4.73865556530654430389404296875">
        <ele>1576.4000244140625</ele>
        <time>2021-07-22T07:38:19.000Z</time>
      </trkpt>
      <trkpt lat="42.98660106025636196136474609375" lon="-4.73864014260470867156982421875">
        <ele>1577.4000244140625</ele>
        <time>2021-07-22T07:38:22.000Z</time>
      </trkpt>
      <trkpt lat="42.9866046644747257232666015625" lon="-4.7386367060244083404541015625">
        <ele>1577.4000244140625</ele>
        <time>2021-07-22T07:38:23.000Z</time>
      </trkpt>
      <trkpt lat="42.98667700029909610748291015625" lon="-4.7386048547923564910888671875">
        <ele>1578.4000244140625</ele>
        <time>2021-07-22T07:38:32.000Z</time>
      </trkpt>
      <trkpt lat="42.9866837896406650543212890625" lon="-4.738598652184009552001953125">
        <ele>1579</ele>
        <time>2021-07-22T07:38:33.000Z</time>
      </trkpt>
      <trkpt lat="42.9867246933281421661376953125" lon="-4.73856990225613117218017578125">
        <ele>1580</ele>
        <time>2021-07-22T07:38:38.000Z</time>
      </trkpt>
      <trkpt lat="42.98674137331545352935791015625" lon="-4.738564454019069671630859375">
        <ele>1580.199951171875</ele>
        <time>2021-07-22T07:38:40.000Z</time>
      </trkpt>
      <trkpt lat="42.98677406273782253265380859375" lon="-4.73855028860270977020263671875">
        <ele>1581.4000244140625</ele>
        <time>2021-07-22T07:38:43.000Z</time>
      </trkpt>
      <trkpt lat="42.986822426319122314453125" lon="-4.73854643292725086212158203125">
        <ele>1582.199951171875</ele>
        <time>2021-07-22T07:38:47.000Z</time>
      </trkpt>
      <trkpt lat="42.98683206550776958465576171875" lon="-4.7385495342314243316650390625">
        <ele>1582.199951171875</ele>
        <time>2021-07-22T07:38:48.000Z</time>
      </trkpt>
      <trkpt lat="42.98684162087738513946533203125" lon="-4.73855313844978809356689453125">
        <ele>1582.4000244140625</ele>
        <time>2021-07-22T07:38:49.000Z</time>
      </trkpt>
      <trkpt lat="42.98685302026569843292236328125" lon="-4.7385527193546295166015625">
        <ele>1582.5999755859375</ele>
        <time>2021-07-22T07:38:50.000Z</time>
      </trkpt>
      <trkpt lat="42.98688168637454509735107421875" lon="-4.73854777403175830841064453125">
        <ele>1582.800048828125</ele>
        <time>2021-07-22T07:38:53.000Z</time>
      </trkpt>
      <trkpt lat="42.9868908226490020751953125" lon="-4.7385538928210735321044921875">
        <ele>1583.199951171875</ele>
        <time>2021-07-22T07:38:54.000Z</time>
      </trkpt>
      <trkpt lat="42.98690062947571277618408203125" lon="-4.738557077944278717041015625">
        <ele>1583.4000244140625</ele>
        <time>2021-07-22T07:38:55.000Z</time>
      </trkpt>
      <trkpt lat="42.9869399406015872955322265625" lon="-4.73856034688651561737060546875">
        <ele>1584.5999755859375</ele>
        <time>2021-07-22T07:38:59.000Z</time>
      </trkpt>
      <trkpt lat="42.98695041798055171966552734375" lon="-4.73855833522975444793701171875">
        <ele>1584.800048828125</ele>
        <time>2021-07-22T07:39:00.000Z</time>
      </trkpt>
      <trkpt lat="42.98696869052946567535400390625" lon="-4.73855741322040557861328125">
        <ele>1585.199951171875</ele>
        <time>2021-07-22T07:39:02.000Z</time>
      </trkpt>
      <trkpt lat="42.98698109574615955352783203125" lon="-4.73856152035295963287353515625">
        <ele>1585.5999755859375</ele>
        <time>2021-07-22T07:39:03.000Z</time>
      </trkpt>
      <trkpt lat="42.98702082596719264984130859375" lon="-4.7385656274855136871337890625">
        <ele>1586.5999755859375</ele>
        <time>2021-07-22T07:39:06.000Z</time>
      </trkpt>
      <trkpt lat="42.98708058893680572509765625" lon="-4.73858029581606388092041015625">
        <ele>1588</ele>
        <time>2021-07-22T07:39:12.000Z</time>
      </trkpt>
      <trkpt lat="42.987107746303081512451171875" lon="-4.73858783952891826629638671875">
        <ele>1588.4000244140625</ele>
        <time>2021-07-22T07:39:14.000Z</time>
      </trkpt>
      <trkpt lat="42.987156696617603302001953125" lon="-4.73859337158501148223876953125">
        <ele>1589</ele>
        <time>2021-07-22T07:39:18.000Z</time>
      </trkpt>
      <trkpt lat="42.9872004501521587371826171875" lon="-4.7386253066360950469970703125">
        <ele>1589.4000244140625</ele>
        <time>2021-07-22T07:39:22.000Z</time>
      </trkpt>
      <trkpt lat="42.987231127917766571044921875" lon="-4.738661684095859527587890625">
        <ele>1590.199951171875</ele>
        <time>2021-07-22T07:39:26.000Z</time>
      </trkpt>
      <trkpt lat="42.98725820146501064300537109375" lon="-4.73867886699736118316650390625">
        <ele>1591.199951171875</ele>
        <time>2021-07-22T07:39:29.000Z</time>
      </trkpt>
      <trkpt lat="42.98726859502494335174560546875" lon="-4.73868322558701038360595703125">
        <ele>1591.199951171875</ele>
        <time>2021-07-22T07:39:30.000Z</time>
      </trkpt>
      <trkpt lat="42.98732307739555835723876953125" lon="-4.73871298134326934814453125">
        <ele>1592.199951171875</ele>
        <time>2021-07-22T07:39:36.000Z</time>
      </trkpt>
      <trkpt lat="42.9873375780880451202392578125" lon="-4.73872396163642406463623046875">
        <ele>1592.4000244140625</ele>
        <time>2021-07-22T07:39:38.000Z</time>
      </trkpt>
      <trkpt lat="42.98737890087068080902099609375" lon="-4.73874382674694061279296875">
        <ele>1593</ele>
        <time>2021-07-22T07:39:42.000Z</time>
      </trkpt>
      <trkpt lat="42.9874084889888763427734375" lon="-4.7387600876390933990478515625">
        <ele>1593.5999755859375</ele>
        <time>2021-07-22T07:39:46.000Z</time>
      </trkpt>
      <trkpt lat="42.98742030747234821319580078125" lon="-4.7387781925499439239501953125">
        <ele>1593.800048828125</ele>
        <time>2021-07-22T07:39:48.000Z</time>
      </trkpt>
      <trkpt lat="42.9874673299491405487060546875" lon="-4.7388345189392566680908203125">
        <ele>1594.5999755859375</ele>
        <time>2021-07-22T07:39:54.000Z</time>
      </trkpt>
      <trkpt lat="42.987483926117420196533203125" lon="-4.738851450383663177490234375">
        <ele>1594.800048828125</ele>
        <time>2021-07-22T07:39:56.000Z</time>
      </trkpt>
      <trkpt lat="42.98755810596048831939697265625" lon="-4.738908112049102783203125">
        <ele>1595.199951171875</ele>
        <time>2021-07-22T07:40:03.000Z</time>
      </trkpt>
      <trkpt lat="42.98756338655948638916015625" lon="-4.73891288973391056060791015625">
        <ele>1595.4000244140625</ele>
        <time>2021-07-22T07:40:04.000Z</time>
      </trkpt>
      <trkpt lat="42.98760102130472660064697265625" lon="-4.73893770016729831695556640625">
        <ele>1595.4000244140625</ele>
        <time>2021-07-22T07:40:08.000Z</time>
      </trkpt>
      <trkpt lat="42.98764175735414028167724609375" lon="-4.73894759081304073333740234375">
        <ele>1595.800048828125</ele>
        <time>2021-07-22T07:40:12.000Z</time>
      </trkpt>
      <trkpt lat="42.9876745305955410003662109375" lon="-4.73896083422005176544189453125">
        <ele>1596</ele>
        <time>2021-07-22T07:40:15.000Z</time>
      </trkpt>
      <trkpt lat="42.98768064938485622406005859375" lon="-4.7389525361359119415283203125">
        <ele>1596.5999755859375</ele>
        <time>2021-07-22T07:40:20.000Z</time>
      </trkpt>
      <trkpt lat="42.9877006821334362030029296875" lon="-4.73898950032889842987060546875">
        <ele>1596.5999755859375</ele>
        <time>2021-07-22T07:40:26.000Z</time>
      </trkpt>
      <trkpt lat="42.987715266644954681396484375" lon="-4.73899863660335540771484375">
        <ele>1596.800048828125</ele>
        <time>2021-07-22T07:40:27.000Z</time>
      </trkpt>
      <trkpt lat="42.9877831600606441497802734375" lon="-4.73903082311153411865234375">
        <ele>1598</ele>
        <time>2021-07-22T07:40:31.000Z</time>
      </trkpt>
      <trkpt lat="42.98781710676848888397216796875" lon="-4.73906560800969600677490234375">
        <ele>1598.4000244140625</ele>
        <time>2021-07-22T07:40:37.000Z</time>
      </trkpt>
      <trkpt lat="42.98786639235913753509521484375" lon="-4.73912159912288188934326171875">
        <ele>1599</ele>
        <time>2021-07-22T07:40:44.000Z</time>
      </trkpt>
      <trkpt lat="42.98787041567265987396240234375" lon="-4.73913601599633693695068359375">
        <ele>1599</ele>
        <time>2021-07-22T07:40:45.000Z</time>
      </trkpt>
      <trkpt lat="42.98789824359118938446044921875" lon="-4.73918915726244449615478515625">
        <ele>1599.4000244140625</ele>
        <time>2021-07-22T07:40:49.000Z</time>
      </trkpt>
      <trkpt lat="42.9879310168325901031494140625" lon="-4.73923643119633197784423828125">
        <ele>1599.5999755859375</ele>
        <time>2021-07-22T07:40:53.000Z</time>
      </trkpt>
      <trkpt lat="42.98800251446664333343505859375" lon="-4.7393719665706157684326171875">
        <ele>1598.800048828125</ele>
        <time>2021-07-22T07:41:01.000Z</time>
      </trkpt>
      <trkpt lat="42.98804861493408679962158203125" lon="-4.739438183605670928955078125">
        <ele>1598.199951171875</ele>
        <time>2021-07-22T07:41:06.000Z</time>
      </trkpt>
      <trkpt lat="42.98807837069034576416015625" lon="-4.73947363905608654022216796875">
        <ele>1598.199951171875</ele>
        <time>2021-07-22T07:41:09.000Z</time>
      </trkpt>
      <trkpt lat="42.98811768181622028350830078125" lon="-4.73959551192820072174072265625">
        <ele>1598.800048828125</ele>
        <time>2021-07-22T07:41:16.000Z</time>
      </trkpt>
      <trkpt lat="42.98812220804393291473388671875" lon="-4.73961294628679752349853515625">
        <ele>1598.800048828125</ele>
        <time>2021-07-22T07:41:17.000Z</time>
      </trkpt>
      <trkpt lat="42.98818423412740230560302734375" lon="-4.739776812493801116943359375">
        <ele>1599.5999755859375</ele>
        <time>2021-07-22T07:41:27.000Z</time>
      </trkpt>
      <trkpt lat="42.98821239732205867767333984375" lon="-4.7399047203361988067626953125">
        <ele>1599.199951171875</ele>
        <time>2021-07-22T07:41:34.000Z</time>
      </trkpt>
      <trkpt lat="42.9882622696459293365478515625" lon="-4.74002684466540813446044921875">
        <ele>1599.5999755859375</ele>
        <time>2021-07-22T07:41:40.000Z</time>
      </trkpt>
      <trkpt lat="42.988304011523723602294921875" lon="-4.74009540863335132598876953125">
        <ele>1600.4000244140625</ele>
        <time>2021-07-22T07:41:42.000Z</time>
      </trkpt>
      <trkpt lat="42.98836536705493927001953125" lon="-4.74019481800496578216552734375">
        <ele>1601</ele>
        <time>2021-07-22T07:41:45.000Z</time>
      </trkpt>
      <trkpt lat="42.9884208552539348602294921875" lon="-4.7402752004563808441162109375">
        <ele>1601</ele>
        <time>2021-07-22T07:41:48.000Z</time>
      </trkpt>
      <trkpt lat="42.98845362849533557891845703125" lon="-4.740326665341854095458984375">
        <ele>1601</ele>
        <time>2021-07-22T07:41:50.000Z</time>
      </trkpt>
      <trkpt lat="42.98846938647329807281494140625" lon="-4.74036077968776226043701171875">
        <ele>1601</ele>
        <time>2021-07-22T07:41:51.000Z</time>
      </trkpt>
      <trkpt lat="42.9885204322636127471923828125" lon="-4.7404378093779087066650390625">
        <ele>1600.800048828125</ele>
        <time>2021-07-22T07:41:54.000Z</time>
      </trkpt>
      <trkpt lat="42.98857566900551319122314453125" lon="-4.74050209857523441314697265625">
        <ele>1601</ele>
        <time>2021-07-22T07:41:57.000Z</time>
      </trkpt>
      <trkpt lat="42.98863467760384082794189453125" lon="-4.7405839897692203521728515625">
        <ele>1601.199951171875</ele>
        <time>2021-07-22T07:42:00.000Z</time>
      </trkpt>
      <trkpt lat="42.98872402869164943695068359375" lon="-4.7406785376369953155517578125">
        <ele>1600.800048828125</ele>
        <time>2021-07-22T07:42:04.000Z</time>
      </trkpt>
      <trkpt lat="42.98886920325458049774169921875" lon="-4.7408250533044338226318359375">
        <ele>1600</ele>
        <time>2021-07-22T07:42:11.000Z</time>
      </trkpt>
      <trkpt lat="42.9890008829534053802490234375" lon="-4.74094114266335964202880859375">
        <ele>1600.4000244140625</ele>
        <time>2021-07-22T07:42:17.000Z</time>
      </trkpt>
      <trkpt lat="42.98902443610131740570068359375" lon="-4.74096058867871761322021484375">
        <ele>1600.4000244140625</ele>
        <time>2021-07-22T07:42:18.000Z</time>
      </trkpt>
      <trkpt lat="42.9890689440071582794189453125" lon="-4.74101473577320575714111328125">
        <ele>1600.800048828125</ele>
        <time>2021-07-22T07:42:20.000Z</time>
      </trkpt>
      <trkpt lat="42.98912200145423412322998046875" lon="-4.7411093674600124359130859375">
        <ele>1601.4000244140625</ele>
        <time>2021-07-22T07:42:23.000Z</time>
      </trkpt>
      <trkpt lat="42.98914379440248012542724609375" lon="-4.7411462478339672088623046875">
        <ele>1601.5999755859375</ele>
        <time>2021-07-22T07:42:24.000Z</time>
      </trkpt>
      <trkpt lat="42.98922493122518062591552734375" lon="-4.74128111265599727630615234375">
        <ele>1602.199951171875</ele>
        <time>2021-07-22T07:42:28.000Z</time>
      </trkpt>
      <trkpt lat="42.9893472231924533843994140625" lon="-4.74145394749939441680908203125">
        <ele>1602.4000244140625</ele>
        <time>2021-07-22T07:42:34.000Z</time>
      </trkpt>
      <trkpt lat="42.98937857151031494140625" lon="-4.7415153868496417999267578125">
        <ele>1602.5999755859375</ele>
        <time>2021-07-22T07:42:36.000Z</time>
      </trkpt>
      <trkpt lat="42.9894364066421985626220703125" lon="-4.74158696830272674560546875">
        <ele>1602.800048828125</ele>
        <time>2021-07-22T07:42:39.000Z</time>
      </trkpt>
      <trkpt lat="42.9895296134054660797119140625" lon="-4.741695933043956756591796875">
        <ele>1603</ele>
        <time>2021-07-22T07:42:43.000Z</time>
      </trkpt>
      <trkpt lat="42.989584095776081085205078125" lon="-4.74176374264061450958251953125">
        <ele>1603.4000244140625</ele>
        <time>2021-07-22T07:42:46.000Z</time>
      </trkpt>
      <trkpt lat="42.98961955122649669647216796875" lon="-4.7418141178786754608154296875">
        <ele>1603.800048828125</ele>
        <time>2021-07-22T07:42:48.000Z</time>
      </trkpt>
      <trkpt lat="42.98968442715704441070556640625" lon="-4.7419492341578006744384765625">
        <ele>1604.4000244140625</ele>
        <time>2021-07-22T07:42:53.000Z</time>
      </trkpt>
      <trkpt lat="42.98970370553433895111083984375" lon="-4.742003381252288818359375">
        <ele>1605</ele>
        <time>2021-07-22T07:42:55.000Z</time>
      </trkpt>
      <trkpt lat="42.9897150211036205291748046875" lon="-4.74202676676213741302490234375">
        <ele>1605.800048828125</ele>
        <time>2021-07-22T07:42:56.000Z</time>
      </trkpt>
      <trkpt lat="42.98972683958709239959716796875" lon="-4.7420454584062099456787109375">
        <ele>1606</ele>
        <time>2021-07-22T07:42:57.000Z</time>
      </trkpt>
      <trkpt lat="42.989761792123317718505859375" lon="-4.7421282716095447540283203125">
        <ele>1607.199951171875</ele>
        <time>2021-07-22T07:43:01.000Z</time>
      </trkpt>
      <trkpt lat="42.98976992256939411163330078125" lon="-4.74215383641421794891357421875">
        <ele>1607.199951171875</ele>
        <time>2021-07-22T07:43:02.000Z</time>
      </trkpt>
      <trkpt lat="42.98980797640979290008544921875" lon="-4.742225669324398040771484375">
        <ele>1608.199951171875</ele>
        <time>2021-07-22T07:43:05.000Z</time>
      </trkpt>
      <trkpt lat="42.98983328975737094879150390625" lon="-4.7422560118138790130615234375">
        <ele>1608.5999755859375</ele>
        <time>2021-07-22T07:43:07.000Z</time>
      </trkpt>
      <trkpt lat="42.98986480571329593658447265625" lon="-4.7422925569117069244384765625">
        <ele>1609.199951171875</ele>
        <time>2021-07-22T07:43:09.000Z</time>
      </trkpt>
      <trkpt lat="42.9899088107049465179443359375" lon="-4.7423472069203853607177734375">
        <ele>1609.5999755859375</ele>
        <time>2021-07-22T07:43:12.000Z</time>
      </trkpt>
      <trkpt lat="42.98991710878908634185791015625" lon="-4.74236908368766307830810546875">
        <ele>1610.4000244140625</ele>
        <time>2021-07-22T07:43:13.000Z</time>
      </trkpt>
      <trkpt lat="42.98993336968123912811279296875" lon="-4.74240663461387157440185546875">
        <ele>1611.5999755859375</ele>
        <time>2021-07-22T07:43:15.000Z</time>
      </trkpt>
      <trkpt lat="42.98995097167789936065673828125" lon="-4.7424350492656230926513671875">
        <ele>1611.800048828125</ele>
        <time>2021-07-22T07:43:17.000Z</time>
      </trkpt>
      <trkpt lat="42.98997326754033565521240234375" lon="-4.74247251637279987335205078125">
        <ele>1612.5999755859375</ele>
        <time>2021-07-22T07:43:19.000Z</time>
      </trkpt>
      <trkpt lat="42.9900251515209674835205078125" lon="-4.742556251585483551025390625">
        <ele>1613.800048828125</ele>
        <time>2021-07-22T07:43:23.000Z</time>
      </trkpt>
      <trkpt lat="42.99004501663148403167724609375" lon="-4.742595143616199493408203125">
        <ele>1614.800048828125</ele>
        <time>2021-07-22T07:43:26.000Z</time>
      </trkpt>
      <trkpt lat="42.9900372214615345001220703125" lon="-4.742608554661273956298828125">
        <ele>1615</ele>
        <time>2021-07-22T07:43:27.000Z</time>
      </trkpt>
      <trkpt lat="42.99000914208590984344482421875" lon="-4.74265172146260738372802734375">
        <ele>1615</ele>
        <time>2021-07-22T07:43:30.000Z</time>
      </trkpt>
      <trkpt lat="42.9900080524384975433349609375" lon="-4.74266161210834980010986328125">
        <ele>1615</ele>
        <time>2021-07-22T07:43:32.000Z</time>
      </trkpt>
      <trkpt lat="42.9900030232965946197509765625" lon="-4.742657840251922607421875">
        <ele>1614.800048828125</ele>
        <time>2021-07-22T07:43:36.000Z</time>
      </trkpt>
      <trkpt lat="42.99000193364918231964111328125" lon="-4.742652811110019683837890625">
        <ele>1614.5999755859375</ele>
        <time>2021-07-22T07:43:38.000Z</time>
      </trkpt>
      <trkpt lat="42.990002520382404327392578125" lon="-4.74264836870133876800537109375">
        <ele>1614.199951171875</ele>
        <time>2021-07-22T07:43:42.000Z</time>
      </trkpt>
      <trkpt lat="42.9899946413934230804443359375" lon="-4.74264719523489475250244140625">
        <ele>1614.199951171875</ele>
        <time>2021-07-22T07:43:45.000Z</time>
      </trkpt>
      <trkpt lat="42.98999975435435771942138671875" lon="-4.742649458348751068115234375">
        <ele>1614.5999755859375</ele>
        <time>2021-07-22T07:43:51.000Z</time>
      </trkpt>
      <trkpt lat="42.99000059254467487335205078125" lon="-4.74265021272003650665283203125">
        <ele>1614.5999755859375</ele>
        <time>2021-07-22T07:43:52.000Z</time>
      </trkpt>
      <trkpt lat="42.9900060407817363739013671875" lon="-4.74264644086360931396484375">
        <ele>1614.4000244140625</ele>
        <time>2021-07-22T07:43:56.000Z</time>
      </trkpt>
      <trkpt lat="42.99000964500010013580322265625" lon="-4.7426489554345607757568359375">
        <ele>1614.4000244140625</ele>
        <time>2021-07-22T07:43:59.000Z</time>
      </trkpt>
      <trkpt lat="42.9900234751403331756591796875" lon="-4.74266194738447666168212890625">
        <ele>1614.800048828125</ele>
        <time>2021-07-22T07:44:01.000Z</time>
      </trkpt>
      <trkpt lat="42.99006110988557338714599609375" lon="-4.742702431976795196533203125">
        <ele>1614.800048828125</ele>
        <time>2021-07-22T07:44:03.000Z</time>
      </trkpt>
      <trkpt lat="42.99007602967321872711181640625" lon="-4.74271743558347225189208984375">
        <ele>1614.800048828125</ele>
        <time>2021-07-22T07:44:04.000Z</time>
      </trkpt>
      <trkpt lat="42.99017309211194515228271484375" lon="-4.74281198345124721527099609375">
        <ele>1615.5999755859375</ele>
        <time>2021-07-22T07:44:09.000Z</time>
      </trkpt>
      <trkpt lat="42.99019220285117626190185546875" lon="-4.742829836905002593994140625">
        <ele>1616</ele>
        <time>2021-07-22T07:44:10.000Z</time>
      </trkpt>
      <trkpt lat="42.99024450592696666717529296875" lon="-4.7428880073130130767822265625">
        <ele>1617</ele>
        <time>2021-07-22T07:44:13.000Z</time>
      </trkpt>
      <trkpt lat="42.990259341895580291748046875" lon="-4.74290787242352962493896484375">
        <ele>1617.4000244140625</ele>
        <time>2021-07-22T07:44:14.000Z</time>
      </trkpt>
      <trkpt lat="42.99028448760509490966796875" lon="-4.74294508807361125946044921875">
        <ele>1618.199951171875</ele>
        <time>2021-07-22T07:44:16.000Z</time>
      </trkpt>
      <trkpt lat="42.99033151008188724517822265625" lon="-4.743007533252239227294921875">
        <ele>1619</ele>
        <time>2021-07-22T07:44:19.000Z</time>
      </trkpt>
      <trkpt lat="42.9903654567897319793701171875" lon="-4.7430569864809513092041015625">
        <ele>1619.199951171875</ele>
        <time>2021-07-22T07:44:21.000Z</time>
      </trkpt>
      <trkpt lat="42.99041725695133209228515625" lon="-4.7431334294378757476806640625">
        <ele>1619.800048828125</ele>
        <time>2021-07-22T07:44:24.000Z</time>
      </trkpt>
      <trkpt lat="42.990518845617771148681640625" lon="-4.743232838809490203857421875">
        <ele>1620.4000244140625</ele>
        <time>2021-07-22T07:44:29.000Z</time>
      </trkpt>
      <trkpt lat="42.990582883358001708984375" lon="-4.7432836331427097320556640625">
        <ele>1621.4000244140625</ele>
        <time>2021-07-22T07:44:32.000Z</time>
      </trkpt>
      <trkpt lat="42.9906276427209377288818359375" lon="-4.743319340050220489501953125">
        <ele>1622</ele>
        <time>2021-07-22T07:44:34.000Z</time>
      </trkpt>
      <trkpt lat="42.99072830937802791595458984375" lon="-4.74336468614637851715087890625">
        <ele>1622</ele>
        <time>2021-07-22T07:44:38.000Z</time>
      </trkpt>
      <trkpt lat="42.99082738347351551055908203125" lon="-4.74341715686023235321044921875">
        <ele>1622.4000244140625</ele>
        <time>2021-07-22T07:44:42.000Z</time>
      </trkpt>
      <trkpt lat="42.99085001461207866668701171875" lon="-4.743430651724338531494140625">
        <ele>1622.800048828125</ele>
        <time>2021-07-22T07:44:43.000Z</time>
      </trkpt>
      <trkpt lat="42.9909377731382846832275390625" lon="-4.7434807755053043365478515625">
        <ele>1623.800048828125</ele>
        <time>2021-07-22T07:44:47.000Z</time>
      </trkpt>
      <trkpt lat="42.9909582249820232391357421875" lon="-4.74349745549261569976806640625">
        <ele>1624.199951171875</ele>
        <time>2021-07-22T07:44:48.000Z</time>
      </trkpt>
      <trkpt lat="42.99101195298135280609130859375" lon="-4.74356836639344692230224609375">
        <ele>1624.5999755859375</ele>
        <time>2021-07-22T07:44:51.000Z</time>
      </trkpt>
      <trkpt lat="42.991033159196376800537109375" lon="-4.74359854124486446380615234375">
        <ele>1624.5999755859375</ele>
        <time>2021-07-22T07:44:52.000Z</time>
      </trkpt>
      <trkpt lat="42.99112536013126373291015625" lon="-4.74369493313133716583251953125">
        <ele>1624.800048828125</ele>
        <time>2021-07-22T07:44:56.000Z</time>
      </trkpt>
      <trkpt lat="42.99123088829219341278076171875" lon="-4.74380540661513805389404296875">
        <ele>1625.199951171875</ele>
        <time>2021-07-22T07:45:01.000Z</time>
      </trkpt>
      <trkpt lat="42.991319485008716583251953125" lon="-4.74395544268190860748291015625">
        <ele>1626</ele>
        <time>2021-07-22T07:45:06.000Z</time>
      </trkpt>
      <trkpt lat="42.99133968539535999298095703125" lon="-4.743985198438167572021484375">
        <ele>1626.199951171875</ele>
        <time>2021-07-22T07:45:07.000Z</time>
      </trkpt>
      <trkpt lat="42.99140908755362033843994140625" lon="-4.74410749040544033050537109375">
        <ele>1626.800048828125</ele>
        <time>2021-07-22T07:45:11.000Z</time>
      </trkpt>
      <trkpt lat="42.99143171869218349456787109375" lon="-4.74417261779308319091796875">
        <ele>1626.4000244140625</ele>
        <time>2021-07-22T07:45:13.000Z</time>
      </trkpt>
      <trkpt lat="42.9914567805826663970947265625" lon="-4.74423690699040889739990234375">
        <ele>1626.4000244140625</ele>
        <time>2021-07-22T07:45:15.000Z</time>
      </trkpt>
      <trkpt lat="42.9915151186287403106689453125" lon="-4.7443675808608531951904296875">
        <ele>1627.199951171875</ele>
        <time>2021-07-22T07:45:20.000Z</time>
      </trkpt>
      <trkpt lat="42.99156649969518184661865234375" lon="-4.7444916330277919769287109375">
        <ele>1628.5999755859375</ele>
        <time>2021-07-22T07:45:25.000Z</time>
      </trkpt>
      <trkpt lat="42.99157169647514820098876953125" lon="-4.7445224784314632415771484375">
        <ele>1628.800048828125</ele>
        <time>2021-07-22T07:45:26.000Z</time>
      </trkpt>
      <trkpt lat="42.9915900528430938720703125" lon="-4.74469590000808238983154296875">
        <ele>1629.4000244140625</ele>
        <time>2021-07-22T07:45:31.000Z</time>
      </trkpt>
      <trkpt lat="42.99160011112689971923828125" lon="-4.74472917616367340087890625">
        <ele>1629.800048828125</ele>
        <time>2021-07-22T07:45:32.000Z</time>
      </trkpt>
      <trkpt lat="42.9916571080684661865234375" lon="-4.74490947090089321136474609375">
        <ele>1630.199951171875</ele>
        <time>2021-07-22T07:45:37.000Z</time>
      </trkpt>
      <trkpt lat="42.99171653576195240020751953125" lon="-4.74502815864980220794677734375">
        <ele>1630.800048828125</ele>
        <time>2021-07-22T07:45:41.000Z</time>
      </trkpt>
      <trkpt lat="42.99172726459801197052001953125" lon="-4.74505531601607799530029296875">
        <ele>1631</ele>
        <time>2021-07-22T07:45:42.000Z</time>
      </trkpt>
      <trkpt lat="42.9918041266500949859619140625" lon="-4.7451920248568058013916015625">
        <ele>1631.800048828125</ele>
        <time>2021-07-22T07:45:47.000Z</time>
      </trkpt>
      <trkpt lat="42.991890124976634979248046875" lon="-4.74528280086815357208251953125">
        <ele>1633</ele>
        <time>2021-07-22T07:45:51.000Z</time>
      </trkpt>
      <trkpt lat="42.99191015772521495819091796875" lon="-4.74529922939836978912353515625">
        <ele>1633</ele>
        <time>2021-07-22T07:45:52.000Z</time>
      </trkpt>
      <trkpt lat="42.9919687472283840179443359375" lon="-4.745432250201702117919921875">
        <ele>1633.5999755859375</ele>
        <time>2021-07-22T07:45:57.000Z</time>
      </trkpt>
      <trkpt lat="42.9919764585793018341064453125" lon="-4.74546267651021480560302734375">
        <ele>1634.199951171875</ele>
        <time>2021-07-22T07:45:58.000Z</time>
      </trkpt>
      <trkpt lat="42.992029599845409393310546875" lon="-4.7455720603466033935546875">
        <ele>1634.800048828125</ele>
        <time>2021-07-22T07:46:02.000Z</time>
      </trkpt>
      <trkpt lat="42.9920472018420696258544921875" lon="-4.7456218488514423370361328125">
        <ele>1635.4000244140625</ele>
        <time>2021-07-22T07:46:04.000Z</time>
      </trkpt>
      <trkpt lat="42.9920592717826366424560546875" lon="-4.74574296735227108001708984375">
        <ele>1636</ele>
        <time>2021-07-22T07:46:08.000Z</time>
      </trkpt>
      <trkpt lat="42.992067821323871612548828125" lon="-4.745806418359279632568359375">
        <ele>1636.4000244140625</ele>
        <time>2021-07-22T07:46:10.000Z</time>
      </trkpt>
      <trkpt lat="42.99208584241569042205810546875" lon="-4.74589602090418338775634765625">
        <ele>1637.4000244140625</ele>
        <time>2021-07-22T07:46:14.000Z</time>
      </trkpt>
      <trkpt lat="42.9920958168804645538330078125" lon="-4.74591144360601902008056640625">
        <ele>1637.4000244140625</ele>
        <time>2021-07-22T07:46:15.000Z</time>
      </trkpt>
      <trkpt lat="42.9920894466340541839599609375" lon="-4.7459933348000049591064453125">
        <ele>1637.4000244140625</ele>
        <time>2021-07-22T07:46:20.000Z</time>
      </trkpt>
      <trkpt lat="42.99209036864340305328369140625" lon="-4.74601135589182376861572265625">
        <ele>1637.4000244140625</ele>
        <time>2021-07-22T07:46:21.000Z</time>
      </trkpt>
      <trkpt lat="42.992135547101497650146484375" lon="-4.74608612246811389923095703125">
        <ele>1638.4000244140625</ele>
        <time>2021-07-22T07:46:26.000Z</time>
      </trkpt>
      <trkpt lat="42.9922326095402240753173828125" lon="-4.74606365896761417388916015625">
        <ele>1638.800048828125</ele>
        <time>2021-07-22T07:46:33.000Z</time>
      </trkpt>
      <trkpt lat="42.99226085655391216278076171875" lon="-4.74606013856828212738037109375">
        <ele>1638.800048828125</ele>
        <time>2021-07-22T07:46:35.000Z</time>
      </trkpt>
      <trkpt lat="42.99229321070015430450439453125" lon="-4.746050499379634857177734375">
        <ele>1639</ele>
        <time>2021-07-22T07:46:37.000Z</time>
      </trkpt>
      <trkpt lat="42.99231969751417636871337890625" lon="-4.74603935144841670989990234375">
        <ele>1639.199951171875</ele>
        <time>2021-07-22T07:46:39.000Z</time>
      </trkpt>
      <trkpt lat="42.992358505725860595703125" lon="-4.74600431509315967559814453125">
        <ele>1639.5999755859375</ele>
        <time>2021-07-22T07:46:44.000Z</time>
      </trkpt>
      <trkpt lat="42.99236915074288845062255859375" lon="-4.7459886409342288970947265625">
        <ele>1639.800048828125</ele>
        <time>2021-07-22T07:46:45.000Z</time>
      </trkpt>
      <trkpt lat="42.992427237331867218017578125" lon="-4.74594497121870517730712890625">
        <ele>1640.199951171875</ele>
        <time>2021-07-22T07:46:50.000Z</time>
      </trkpt>
      <trkpt lat="42.9924411512911319732666015625" lon="-4.7459437139332294464111328125">
        <ele>1640.5999755859375</ele>
        <time>2021-07-22T07:46:51.000Z</time>
      </trkpt>
      <trkpt lat="42.9924590885639190673828125" lon="-4.7459541074931621551513671875">
        <ele>1641</ele>
        <time>2021-07-22T07:46:53.000Z</time>
      </trkpt>
      <trkpt lat="42.9924696497619152069091796875" lon="-4.74594731815159320831298828125">
        <ele>1641.199951171875</ele>
        <time>2021-07-22T07:46:55.000Z</time>
      </trkpt>
      <trkpt lat="42.99251348711550235748291015625" lon="-4.7459313087165355682373046875">
        <ele>1641.199951171875</ele>
        <time>2021-07-22T07:47:00.000Z</time>
      </trkpt>
      <trkpt lat="42.99254064448177814483642578125" lon="-4.7459138743579387664794921875">
        <ele>1642</ele>
        <time>2021-07-22T07:47:03.000Z</time>
      </trkpt>
      <trkpt lat="42.99255824647843837738037109375" lon="-4.7459078393876552581787109375">
        <ele>1642.5999755859375</ele>
        <time>2021-07-22T07:47:05.000Z</time>
      </trkpt>
      <trkpt lat="42.99256897531449794769287109375" lon="-4.74591060541570186614990234375">
        <ele>1642.800048828125</ele>
        <time>2021-07-22T07:47:06.000Z</time>
      </trkpt>
      <trkpt lat="42.99257836304605007171630859375" lon="-4.74591630510985851287841796875">
        <ele>1643.199951171875</ele>
        <time>2021-07-22T07:47:07.000Z</time>
      </trkpt>
      <trkpt lat="42.9925950430333614349365234375" lon="-4.74593591876327991485595703125">
        <ele>1644</ele>
        <time>2021-07-22T07:47:09.000Z</time>
      </trkpt>
      <trkpt lat="42.9926025867462158203125" lon="-4.74594497121870517730712890625">
        <ele>1644.199951171875</ele>
        <time>2021-07-22T07:47:10.000Z</time>
      </trkpt>
      <trkpt lat="42.99262396059930324554443359375" lon="-4.74596760235726833343505859375">
        <ele>1645.4000244140625</ele>
        <time>2021-07-22T07:47:14.000Z</time>
      </trkpt>
      <trkpt lat="42.99263133667409420013427734375" lon="-4.74596776999533176422119140625">
        <ele>1645.5999755859375</ele>
        <time>2021-07-22T07:47:15.000Z</time>
      </trkpt>
      <trkpt lat="42.99263988621532917022705078125" lon="-4.7459690272808074951171875">
        <ele>1646</ele>
        <time>2021-07-22T07:47:16.000Z</time>
      </trkpt>
      <trkpt lat="42.992656230926513671875" lon="-4.74596827290952205657958984375">
        <ele>1646.4000244140625</ele>
        <time>2021-07-22T07:47:18.000Z</time>
      </trkpt>
      <trkpt lat="42.99266687594354152679443359375" lon="-4.7459715418517589569091796875">
        <ele>1646.800048828125</ele>
        <time>2021-07-22T07:47:19.000Z</time>
      </trkpt>
      <trkpt lat="42.99268883652985095977783203125" lon="-4.7459785826504230499267578125">
        <ele>1647.5999755859375</ele>
        <time>2021-07-22T07:47:21.000Z</time>
      </trkpt>
      <trkpt lat="42.99270652234554290771484375" lon="-4.74596642889082431793212890625">
        <ele>1648.199951171875</ele>
        <time>2021-07-22T07:47:23.000Z</time>
      </trkpt>
      <trkpt lat="42.99271783791482448577880859375" lon="-4.74594228900969028472900390625">
        <ele>1648.800048828125</ele>
        <time>2021-07-22T07:47:25.000Z</time>
      </trkpt>
      <trkpt lat="42.99272596836090087890625" lon="-4.74591848440468311309814453125">
        <ele>1649.5999755859375</ele>
        <time>2021-07-22T07:47:27.000Z</time>
      </trkpt>
      <trkpt lat="42.99273158423602581024169921875" lon="-4.74591094069182872772216796875">
        <ele>1650.199951171875</ele>
        <time>2021-07-22T07:47:28.000Z</time>
      </trkpt>
      <trkpt lat="42.99274264834821224212646484375" lon="-4.74588495679199695587158203125">
        <ele>1651.199951171875</ele>
        <time>2021-07-22T07:47:32.000Z</time>
      </trkpt>
      <trkpt lat="42.9927455820143222808837890625" lon="-4.74588244222104549407958984375">
        <ele>1651.4000244140625</ele>
        <time>2021-07-22T07:47:33.000Z</time>
      </trkpt>
      <trkpt lat="42.9927556402981281280517578125" lon="-4.74584355019032955169677734375">
        <ele>1652.199951171875</ele>
        <time>2021-07-22T07:47:36.000Z</time>
      </trkpt>
      <trkpt lat="42.992756478488445281982421875" lon="-4.7458303906023502349853515625">
        <ele>1652.4000244140625</ele>
        <time>2021-07-22T07:47:37.000Z</time>
      </trkpt>
      <trkpt lat="42.99275815486907958984375" lon="-4.74581605754792690277099609375">
        <ele>1652.800048828125</ele>
        <time>2021-07-22T07:47:38.000Z</time>
      </trkpt>
      <trkpt lat="42.9927727393805980682373046875" lon="-4.74578320048749446868896484375">
        <ele>1653.4000244140625</ele>
        <time>2021-07-22T07:47:40.000Z</time>
      </trkpt>
      <trkpt lat="42.99279126338660717010498046875" lon="-4.74576258100569248199462890625">
        <ele>1654.199951171875</ele>
        <time>2021-07-22T07:47:42.000Z</time>
      </trkpt>
      <trkpt lat="42.9928015731275081634521484375" lon="-4.7457616589963436126708984375">
        <ele>1654.4000244140625</ele>
        <time>2021-07-22T07:47:43.000Z</time>
      </trkpt>
      <trkpt lat="42.9928076080977916717529296875" lon="-4.7457713820040225982666015625">
        <ele>1654.5999755859375</ele>
        <time>2021-07-22T07:47:44.000Z</time>
      </trkpt>
      <trkpt lat="42.99281624145805835723876953125" lon="-4.74580205976963043212890625">
        <ele>1655.4000244140625</ele>
        <time>2021-07-22T07:47:47.000Z</time>
      </trkpt>
      <trkpt lat="42.9928220249712467193603515625" lon="-4.7458089329302310943603515625">
        <ele>1655.5999755859375</ele>
        <time>2021-07-22T07:47:48.000Z</time>
      </trkpt>
      <trkpt lat="42.99282847903668880462646484375" lon="-4.74581387825310230255126953125">
        <ele>1655.800048828125</ele>
        <time>2021-07-22T07:47:49.000Z</time>
      </trkpt>
      <trkpt lat="42.992848344147205352783203125" lon="-4.74586232565343379974365234375">
        <ele>1656.800048828125</ele>
        <time>2021-07-22T07:47:53.000Z</time>
      </trkpt>
      <trkpt lat="42.99285798333585262298583984375" lon="-4.74587908945977687835693359375">
        <ele>1657.199951171875</ele>
        <time>2021-07-22T07:47:54.000Z</time>
      </trkpt>
      <trkpt lat="42.99287374131381511688232421875" lon="-4.7459046542644500732421875">
        <ele>1657.800048828125</ele>
        <time>2021-07-22T07:47:56.000Z</time>
      </trkpt>
      <trkpt lat="42.99288866110146045684814453125" lon="-4.7459316439926624298095703125">
        <ele>1658.4000244140625</ele>
        <time>2021-07-22T07:47:58.000Z</time>
      </trkpt>
      <trkpt lat="42.99292872659862041473388671875" lon="-4.74594983272254467010498046875">
        <ele>1658.800048828125</ele>
        <time>2021-07-22T07:48:02.000Z</time>
      </trkpt>
      <trkpt lat="42.99294297583401203155517578125" lon="-4.74595452658832073211669921875">
        <ele>1659.199951171875</ele>
        <time>2021-07-22T07:48:03.000Z</time>
      </trkpt>
      <trkpt lat="42.9929705522954463958740234375" lon="-4.74596173502504825592041015625">
        <ele>1659.800048828125</ele>
        <time>2021-07-22T07:48:05.000Z</time>
      </trkpt>
      <trkpt lat="42.99298102967441082000732421875" lon="-4.7459631599485874176025390625">
        <ele>1660.199951171875</ele>
        <time>2021-07-22T07:48:06.000Z</time>
      </trkpt>
      <trkpt lat="42.99302838742733001708984375" lon="-4.745969362556934356689453125">
        <ele>1661</ele>
        <time>2021-07-22T07:48:10.000Z</time>
      </trkpt>
      <trkpt lat="42.99304020591080188751220703125" lon="-4.74596776999533176422119140625">
        <ele>1661.199951171875</ele>
        <time>2021-07-22T07:48:11.000Z</time>
      </trkpt>
      <trkpt lat="42.993050180375576019287109375" lon="-4.7459675185382366180419921875">
        <ele>1661.5999755859375</ele>
        <time>2021-07-22T07:48:12.000Z</time>
      </trkpt>
      <trkpt lat="42.9930691234767436981201171875" lon="-4.74595854990184307098388671875">
        <ele>1662.4000244140625</ele>
        <time>2021-07-22T07:48:14.000Z</time>
      </trkpt>
      <trkpt lat="42.9930858872830867767333984375" lon="-4.74594698287546634674072265625">
        <ele>1662.800048828125</ele>
        <time>2021-07-22T07:48:16.000Z</time>
      </trkpt>
      <trkpt lat="42.99310860224068164825439453125" lon="-4.74593541584908962249755859375">
        <ele>1663.5999755859375</ele>
        <time>2021-07-22T07:48:19.000Z</time>
      </trkpt>
      <trkpt lat="42.99312670715153217315673828125" lon="-4.7459001280367374420166015625">
        <ele>1664.5999755859375</ele>
        <time>2021-07-22T07:48:22.000Z</time>
      </trkpt>
      <trkpt lat="42.993137352168560028076171875" lon="-4.74589350633323192596435546875">
        <ele>1665</ele>
        <time>2021-07-22T07:48:23.000Z</time>
      </trkpt>
      <trkpt lat="42.993164844810962677001953125" lon="-4.7458873875439167022705078125">
        <ele>1665.5999755859375</ele>
        <time>2021-07-22T07:48:26.000Z</time>
      </trkpt>
      <trkpt lat="42.99318672157824039459228515625" lon="-4.7458870522677898406982421875">
        <ele>1665.800048828125</ele>
        <time>2021-07-22T07:48:28.000Z</time>
      </trkpt>
      <trkpt lat="42.99320767633616924285888671875" lon="-4.74585226736962795257568359375">
        <ele>1666.4000244140625</ele>
        <time>2021-07-22T07:48:32.000Z</time>
      </trkpt>
      <trkpt lat="42.99320809543132781982421875" lon="-4.74583734758198261260986328125">
        <ele>1666.5999755859375</ele>
        <time>2021-07-22T07:48:33.000Z</time>
      </trkpt>
      <trkpt lat="42.99320809543132781982421875" lon="-4.7458149679005146026611328125">
        <ele>1667</ele>
        <time>2021-07-22T07:48:34.000Z</time>
      </trkpt>
      <trkpt lat="42.993233241140842437744140625" lon="-4.74573341198265552520751953125">
        <ele>1668.199951171875</ele>
        <time>2021-07-22T07:48:38.000Z</time>
      </trkpt>
      <trkpt lat="42.99324623309075832366943359375" lon="-4.74571949802339076995849609375">
        <ele>1668.199951171875</ele>
        <time>2021-07-22T07:48:39.000Z</time>
      </trkpt>
      <trkpt lat="42.99327246844768524169921875" lon="-4.7457076795399188995361328125">
        <ele>1668.4000244140625</ele>
        <time>2021-07-22T07:48:41.000Z</time>
      </trkpt>
      <trkpt lat="42.99330574460327625274658203125" lon="-4.745715893805027008056640625">
        <ele>1668.800048828125</ele>
        <time>2021-07-22T07:48:44.000Z</time>
      </trkpt>
      <trkpt lat="42.993327118456363677978515625" lon="-4.7457123734056949615478515625">
        <ele>1669.4000244140625</ele>
        <time>2021-07-22T07:48:46.000Z</time>
      </trkpt>
      <trkpt lat="42.9933685250580310821533203125" lon="-4.74570424295961856842041015625">
        <ele>1670.4000244140625</ele>
        <time>2021-07-22T07:48:49.000Z</time>
      </trkpt>
      <trkpt lat="42.99337975680828094482421875" lon="-4.745695106685161590576171875">
        <ele>1670.5999755859375</ele>
        <time>2021-07-22T07:48:50.000Z</time>
      </trkpt>
      <trkpt lat="42.9934322275221347808837890625" lon="-4.7456587292253971099853515625">
        <ele>1671.5999755859375</ele>
        <time>2021-07-22T07:48:55.000Z</time>
      </trkpt>
      <trkpt lat="42.9934432916343212127685546875" lon="-4.74565596319735050201416015625">
        <ele>1671.800048828125</ele>
        <time>2021-07-22T07:48:56.000Z</time>
      </trkpt>
      <trkpt lat="42.993482686579227447509765625" lon="-4.7456590645015239715576171875">
        <ele>1672.5999755859375</ele>
        <time>2021-07-22T07:48:59.000Z</time>
      </trkpt>
      <trkpt lat="42.993505485355854034423828125" lon="-4.745654873549938201904296875">
        <ele>1673.199951171875</ele>
        <time>2021-07-22T07:49:01.000Z</time>
      </trkpt>
      <trkpt lat="42.99353306181728839874267578125" lon="-4.74565579555928707122802734375">
        <ele>1673.800048828125</ele>
        <time>2021-07-22T07:49:04.000Z</time>
      </trkpt>
      <trkpt lat="42.99355217255651950836181640625" lon="-4.74565261043608188629150390625">
        <ele>1674</ele>
        <time>2021-07-22T07:49:06.000Z</time>
      </trkpt>
      <trkpt lat="42.993569187819957733154296875" lon="-4.7456379421055316925048828125">
        <ele>1675</ele>
        <time>2021-07-22T07:49:08.000Z</time>
      </trkpt>
      <trkpt lat="42.993576563894748687744140625" lon="-4.74563567899167537689208984375">
        <ele>1675.4000244140625</ele>
        <time>2021-07-22T07:49:09.000Z</time>
      </trkpt>
      <trkpt lat="42.99358603544533252716064453125" lon="-4.745635427534580230712890625">
        <ele>1675.800048828125</ele>
        <time>2021-07-22T07:49:10.000Z</time>
      </trkpt>
      <trkpt lat="42.993593327701091766357421875" lon="-4.74563417024910449981689453125">
        <ele>1676</ele>
        <time>2021-07-22T07:49:11.000Z</time>
      </trkpt>
      <trkpt lat="42.99360212869942188262939453125" lon="-4.74563232623040676116943359375">
        <ele>1676.199951171875</ele>
        <time>2021-07-22T07:49:12.000Z</time>
      </trkpt>
      <trkpt lat="42.99364889971911907196044921875" lon="-4.74563903175294399261474609375">
        <ele>1677.199951171875</ele>
        <time>2021-07-22T07:49:16.000Z</time>
      </trkpt>
      <trkpt lat="42.993662059307098388671875" lon="-4.74564020521938800811767578125">
        <ele>1677.5999755859375</ele>
        <time>2021-07-22T07:49:17.000Z</time>
      </trkpt>
      <trkpt lat="42.99369818530976772308349609375" lon="-4.745640456676483154296875">
        <ele>1678.199951171875</ele>
        <time>2021-07-22T07:49:20.000Z</time>
      </trkpt>
      <trkpt lat="42.99370924942195415496826171875" lon="-4.7456391155719757080078125">
        <ele>1678.4000244140625</ele>
        <time>2021-07-22T07:49:21.000Z</time>
      </trkpt>
      <trkpt lat="42.99375685863196849822998046875" lon="-4.74562159739434719085693359375">
        <ele>1679.5999755859375</ele>
        <time>2021-07-22T07:49:25.000Z</time>
      </trkpt>
      <trkpt lat="42.9937886260449886322021484375" lon="-4.745612628757953643798828125">
        <ele>1680</ele>
        <time>2021-07-22T07:49:28.000Z</time>
      </trkpt>
      <trkpt lat="42.9938157834112644195556640625" lon="-4.7456096112728118896484375">
        <ele>1680.800048828125</ele>
        <time>2021-07-22T07:49:30.000Z</time>
      </trkpt>
      <trkpt lat="42.99387387000024318695068359375" lon="-4.7456131316721439361572265625">
        <ele>1682.199951171875</ele>
        <time>2021-07-22T07:49:34.000Z</time>
      </trkpt>
      <trkpt lat="42.9939120076596736907958984375" lon="-4.7456094436347484588623046875">
        <ele>1682.5999755859375</ele>
        <time>2021-07-22T07:49:37.000Z</time>
      </trkpt>
      <trkpt lat="42.99394628964364528656005859375" lon="-4.74560550414025783538818359375">
        <ele>1682.800048828125</ele>
        <time>2021-07-22T07:49:40.000Z</time>
      </trkpt>
      <trkpt lat="42.99395584501326084136962890625" lon="-4.7456030733883380889892578125">
        <ele>1683</ele>
        <time>2021-07-22T07:49:41.000Z</time>
      </trkpt>
      <trkpt lat="42.9939633049070835113525390625" lon="-4.7455977089703083038330078125">
        <ele>1683.4000244140625</ele>
        <time>2021-07-22T07:49:42.000Z</time>
      </trkpt>
      <trkpt lat="42.99396791495382785797119140625" lon="-4.74559460766613483428955078125">
        <ele>1683.4000244140625</ele>
        <time>2021-07-22T07:49:43.000Z</time>
      </trkpt>
      <trkpt lat="42.99397277645766735076904296875" lon="-4.745593182742595672607421875">
        <ele>1683.5999755859375</ele>
        <time>2021-07-22T07:49:46.000Z</time>
      </trkpt>
      <trkpt lat="42.99399423412978649139404296875" lon="-4.7455779276788234710693359375">
        <ele>1683.800048828125</ele>
        <time>2021-07-22T07:49:52.000Z</time>
      </trkpt>
      <trkpt lat="42.99399876035749912261962890625" lon="-4.74557365290820598602294921875">
        <ele>1683.800048828125</ele>
        <time>2021-07-22T07:49:53.000Z</time>
      </trkpt>
      <trkpt lat="42.99400026910006999969482421875" lon="-4.74556962959468364715576171875">
        <ele>1684</ele>
        <time>2021-07-22T07:49:56.000Z</time>
      </trkpt>
      <trkpt lat="42.99401250667870044708251953125" lon="-4.7455608285963535308837890625">
        <ele>1683.800048828125</ele>
        <time>2021-07-22T07:49:59.000Z</time>
      </trkpt>
      <trkpt lat="42.99403463490307331085205078125" lon="-4.7455370239913463592529296875">
        <ele>1684.4000244140625</ele>
        <time>2021-07-22T07:50:04.000Z</time>
      </trkpt>
      <trkpt lat="42.99403999932110309600830078125" lon="-4.745535515248775482177734375">
        <ele>1684.800048828125</ele>
        <time>2021-07-22T07:50:05.000Z</time>
      </trkpt>
      <trkpt lat="42.9940630495548248291015625" lon="-4.7455356828868389129638671875">
        <ele>1685.5999755859375</ele>
        <time>2021-07-22T07:50:08.000Z</time>
      </trkpt>
      <trkpt lat="42.99407118000090122222900390625" lon="-4.74553249776363372802734375">
        <ele>1685.5999755859375</ele>
        <time>2021-07-22T07:50:09.000Z</time>
      </trkpt>
      <trkpt lat="42.99410738982260227203369140625" lon="-4.7454996407032012939453125">
        <ele>1686</ele>
        <time>2021-07-22T07:50:13.000Z</time>
      </trkpt>
      <trkpt lat="42.99412080086767673492431640625" lon="-4.74548824131488800048828125">
        <ele>1686.199951171875</ele>
        <time>2021-07-22T07:50:14.000Z</time>
      </trkpt>
      <trkpt lat="42.9941336251795291900634765625" lon="-4.74547441117465496063232421875">
        <ele>1686.5999755859375</ele>
        <time>2021-07-22T07:50:15.000Z</time>
      </trkpt>
      <trkpt lat="42.9941577650606632232666015625" lon="-4.74544742144644260406494140625">
        <ele>1687.4000244140625</ele>
        <time>2021-07-22T07:50:17.000Z</time>
      </trkpt>
      <trkpt lat="42.9941792227327823638916015625" lon="-4.745418839156627655029296875">
        <ele>1688</ele>
        <time>2021-07-22T07:50:20.000Z</time>
      </trkpt>
      <trkpt lat="42.99418601207435131072998046875" lon="-4.74540987052023410797119140625">
        <ele>1688.4000244140625</ele>
        <time>2021-07-22T07:50:21.000Z</time>
      </trkpt>
      <trkpt lat="42.994205541908740997314453125" lon="-4.7453858144581317901611328125">
        <ele>1689.199951171875</ele>
        <time>2021-07-22T07:50:24.000Z</time>
      </trkpt>
      <trkpt lat="42.9942063800990581512451171875" lon="-4.74537667818367481231689453125">
        <ele>1689.4000244140625</ele>
        <time>2021-07-22T07:50:25.000Z</time>
      </trkpt>
      <trkpt lat="42.99420847557485103607177734375" lon="-4.74536125548183917999267578125">
        <ele>1689.4000244140625</ele>
        <time>2021-07-22T07:50:26.000Z</time>
      </trkpt>
      <trkpt lat="42.9942120797932147979736328125" lon="-4.74534382112324237823486328125">
        <ele>1690.4000244140625</ele>
        <time>2021-07-22T07:50:28.000Z</time>
      </trkpt>
      <trkpt lat="42.99423026852309703826904296875" lon="-4.745339043438434600830078125">
        <ele>1691.199951171875</ele>
        <time>2021-07-22T07:50:30.000Z</time>
      </trkpt>
      <trkpt lat="42.994240410625934600830078125" lon="-4.745327644050121307373046875">
        <ele>1691.4000244140625</ele>
        <time>2021-07-22T07:50:31.000Z</time>
      </trkpt>
      <trkpt lat="42.99425055272877216339111328125" lon="-4.74531599320471286773681640625">
        <ele>1691.5999755859375</ele>
        <time>2021-07-22T07:50:32.000Z</time>
      </trkpt>
      <trkpt lat="42.9942761175334453582763671875" lon="-4.7453066892921924591064453125">
        <ele>1692.800048828125</ele>
        <time>2021-07-22T07:50:34.000Z</time>
      </trkpt>
      <trkpt lat="42.99428978003561496734619140625" lon="-4.7453070245683193206787109375">
        <ele>1693</ele>
        <time>2021-07-22T07:50:35.000Z</time>
      </trkpt>
      <trkpt lat="42.9943009279668331146240234375" lon="-4.74530585110187530517578125">
        <ele>1693.199951171875</ele>
        <time>2021-07-22T07:50:36.000Z</time>
      </trkpt>
      <trkpt lat="42.99431961961090564727783203125" lon="-4.74529956467449665069580078125">
        <ele>1693.800048828125</ele>
        <time>2021-07-22T07:50:38.000Z</time>
      </trkpt>
      <trkpt lat="42.9943381436169147491455078125" lon="-4.7452875785529613494873046875">
        <ele>1694</ele>
        <time>2021-07-22T07:50:40.000Z</time>
      </trkpt>
      <trkpt lat="42.99435784108936786651611328125" lon="-4.74528615362942218780517578125">
        <ele>1694.199951171875</ele>
        <time>2021-07-22T07:50:42.000Z</time>
      </trkpt>
      <trkpt lat="42.99437225796282291412353515625" lon="-4.745264612138271331787109375">
        <ele>1694.800048828125</ele>
        <time>2021-07-22T07:50:44.000Z</time>
      </trkpt>
      <trkpt lat="42.99437510780990123748779296875" lon="-4.7452560625970363616943359375">
        <ele>1695.199951171875</ele>
        <time>2021-07-22T07:50:45.000Z</time>
      </trkpt>
      <trkpt lat="42.994377203285694122314453125" lon="-4.7452503629028797149658203125">
        <ele>1695.800048828125</ele>
        <time>2021-07-22T07:50:47.000Z</time>
      </trkpt>
      <trkpt lat="42.99438164569437503814697265625" lon="-4.7452443279325962066650390625">
        <ele>1696.199951171875</ele>
        <time>2021-07-22T07:50:48.000Z</time>
      </trkpt>
      <trkpt lat="42.994389943778514862060546875" lon="-4.7452372871339321136474609375">
        <ele>1696.4000244140625</ele>
        <time>2021-07-22T07:50:49.000Z</time>
      </trkpt>
      <trkpt lat="42.99442372284829616546630859375" lon="-4.74523167125880718231201171875">
        <ele>1696.800048828125</ele>
        <time>2021-07-22T07:50:51.000Z</time>
      </trkpt>
      <trkpt lat="42.994448281824588775634765625" lon="-4.7452148236334323883056640625">
        <ele>1697.4000244140625</ele>
        <time>2021-07-22T07:50:53.000Z</time>
      </trkpt>
      <trkpt lat="42.9944601841270923614501953125" lon="-4.7452057711780071258544921875">
        <ele>1697.5999755859375</ele>
        <time>2021-07-22T07:50:54.000Z</time>
      </trkpt>
      <trkpt lat="42.99448407255113124847412109375" lon="-4.74519588053226470947265625">
        <ele>1698.199951171875</ele>
        <time>2021-07-22T07:50:56.000Z</time>
      </trkpt>
      <trkpt lat="42.99449111334979534149169921875" lon="-4.7451992332935333251953125">
        <ele>1698.4000244140625</ele>
        <time>2021-07-22T07:50:57.000Z</time>
      </trkpt>
      <trkpt lat="42.99450251273810863494873046875" lon="-4.74520920775830745697021484375">
        <ele>1698.5999755859375</ele>
        <time>2021-07-22T07:50:58.000Z</time>
      </trkpt>
      <trkpt lat="42.994555570185184478759765625" lon="-4.745239131152629852294921875">
        <ele>1699.800048828125</ele>
        <time>2021-07-22T07:51:03.000Z</time>
      </trkpt>
      <trkpt lat="42.99458532594144344329833984375" lon="-4.74523083306849002838134765625">
        <ele>1700.199951171875</ele>
        <time>2021-07-22T07:51:06.000Z</time>
      </trkpt>
      <trkpt lat="42.994633354246616363525390625" lon="-4.7452490217983722686767578125">
        <ele>1700.4000244140625</ele>
        <time>2021-07-22T07:51:09.000Z</time>
      </trkpt>
      <trkpt lat="42.99464751966297626495361328125" lon="-4.7452501952648162841796875">
        <ele>1700.5999755859375</ele>
        <time>2021-07-22T07:51:10.000Z</time>
      </trkpt>
      <trkpt lat="42.99469697289168834686279296875" lon="-4.745270647108554840087890625">
        <ele>1700.800048828125</ele>
        <time>2021-07-22T07:51:14.000Z</time>
      </trkpt>
      <trkpt lat="42.99470988102257251739501953125" lon="-4.74528213031589984893798828125">
        <ele>1701.199951171875</ele>
        <time>2021-07-22T07:51:15.000Z</time>
      </trkpt>
      <trkpt lat="42.99473251216113567352294921875" lon="-4.745289422571659088134765625">
        <ele>1701.5999755859375</ele>
        <time>2021-07-22T07:51:17.000Z</time>
      </trkpt>
      <trkpt lat="42.99476972781121730804443359375" lon="-4.7452899254858493804931640625">
        <ele>1702</ele>
        <time>2021-07-22T07:51:21.000Z</time>
      </trkpt>
      <trkpt lat="42.99480811692774295806884765625" lon="-4.74529922939836978912353515625">
        <ele>1702.5999755859375</ele>
        <time>2021-07-22T07:51:25.000Z</time>
      </trkpt>
      <trkpt lat="42.9948551394045352935791015625" lon="-4.745330326259136199951171875">
        <ele>1703</ele>
        <time>2021-07-22T07:51:30.000Z</time>
      </trkpt>
      <trkpt lat="42.9948685504496097564697265625" lon="-4.74532521329820156097412109375">
        <ele>1703.199951171875</ele>
        <time>2021-07-22T07:51:32.000Z</time>
      </trkpt>
      <trkpt lat="42.99487483687698841094970703125" lon="-4.74531817249953746795654296875">
        <ele>1703.199951171875</ele>
        <time>2021-07-22T07:51:33.000Z</time>
      </trkpt>
      <trkpt lat="42.99489176832139492034912109375" lon="-4.7453123889863491058349609375">
        <ele>1704</ele>
        <time>2021-07-22T07:51:36.000Z</time>
      </trkpt>
      <trkpt lat="42.9949007369577884674072265625" lon="-4.74530585110187530517578125">
        <ele>1704.5999755859375</ele>
        <time>2021-07-22T07:51:38.000Z</time>
      </trkpt>
      <trkpt lat="42.9949392937123775482177734375" lon="-4.74531121551990509033203125">
        <ele>1705.199951171875</ele>
        <time>2021-07-22T07:51:41.000Z</time>
      </trkpt>
      <trkpt lat="42.9949587397277355194091796875" lon="-4.745305515825748443603515625">
        <ele>1705.800048828125</ele>
        <time>2021-07-22T07:51:43.000Z</time>
      </trkpt>
      <trkpt lat="42.9950093664228916168212890625" lon="-4.74529889412224292755126953125">
        <ele>1706.4000244140625</ele>
        <time>2021-07-22T07:51:47.000Z</time>
      </trkpt>
      <trkpt lat="42.99502403475344181060791015625" lon="-4.74528967402875423431396484375">
        <ele>1706.4000244140625</ele>
        <time>2021-07-22T07:51:49.000Z</time>
      </trkpt>
      <trkpt lat="42.99506125040352344512939453125" lon="-4.74527274258434772491455078125">
        <ele>1707.5999755859375</ele>
        <time>2021-07-22T07:51:54.000Z</time>
      </trkpt>
      <trkpt lat="42.99508170224726200103759765625" lon="-4.7452657856047153472900390625">
        <ele>1708</ele>
        <time>2021-07-22T07:51:56.000Z</time>
      </trkpt>
      <trkpt lat="42.9950921796262264251708984375" lon="-4.74526159465312957763671875">
        <ele>1708.4000244140625</ele>
        <time>2021-07-22T07:51:57.000Z</time>
      </trkpt>
      <trkpt lat="42.995102740824222564697265625" lon="-4.74525279365479946136474609375">
        <ele>1708.800048828125</ele>
        <time>2021-07-22T07:51:58.000Z</time>
      </trkpt>
      <trkpt lat="42.9951345920562744140625" lon="-4.74523351527750492095947265625">
        <ele>1709.5999755859375</ele>
        <time>2021-07-22T07:52:01.000Z</time>
      </trkpt>
      <trkpt lat="42.99515948630869388580322265625" lon="-4.74523569457232952117919921875">
        <ele>1709.800048828125</ele>
        <time>2021-07-22T07:52:03.000Z</time>
      </trkpt>
      <trkpt lat="42.99517423845827579498291015625" lon="-4.7452439926564693450927734375">
        <ele>1710</ele>
        <time>2021-07-22T07:52:04.000Z</time>
      </trkpt>
      <trkpt lat="42.99518488347530364990234375" lon="-4.74525765515863895416259765625">
        <ele>1710.4000244140625</ele>
        <time>2021-07-22T07:52:05.000Z</time>
      </trkpt>
      <trkpt lat="42.9951951093971729278564453125" lon="-4.74526603706181049346923828125">
        <ele>1710.5999755859375</ele>
        <time>2021-07-22T07:52:06.000Z</time>
      </trkpt>
      <trkpt lat="42.9952246136963367462158203125" lon="-4.74528062157332897186279296875">
        <ele>1711</ele>
        <time>2021-07-22T07:52:09.000Z</time>
      </trkpt>
      <trkpt lat="42.9952351748943328857421875" lon="-4.7452899254858493804931640625">
        <ele>1711</ele>
        <time>2021-07-22T07:52:10.000Z</time>
      </trkpt>
      <trkpt lat="42.99524523317813873291015625" lon="-4.74530140869319438934326171875">
        <ele>1711.199951171875</ele>
        <time>2021-07-22T07:52:11.000Z</time>
      </trkpt>
      <trkpt lat="42.99528102390468120574951171875" lon="-4.74534147419035434722900390625">
        <ele>1711.800048828125</ele>
        <time>2021-07-22T07:52:15.000Z</time>
      </trkpt>
      <trkpt lat="42.99532209523022174835205078125" lon="-4.745371900498867034912109375">
        <ele>1712.4000244140625</ele>
        <time>2021-07-22T07:52:18.000Z</time>
      </trkpt>
      <trkpt lat="42.995352856814861297607421875" lon="-4.74536620080471038818359375">
        <ele>1712.800048828125</ele>
        <time>2021-07-22T07:52:20.000Z</time>
      </trkpt>
      <trkpt lat="42.995420582592487335205078125" lon="-4.74536360241472721099853515625">
        <ele>1713.199951171875</ele>
        <time>2021-07-22T07:52:24.000Z</time>
      </trkpt>
      <trkpt lat="42.9954422079026699066162109375" lon="-4.7453667037189006805419921875">
        <ele>1713.4000244140625</ele>
        <time>2021-07-22T07:52:25.000Z</time>
      </trkpt>
      <trkpt lat="42.99550716765224933624267578125" lon="-4.7453735768795013427734375">
        <ele>1713.5999755859375</ele>
        <time>2021-07-22T07:52:28.000Z</time>
      </trkpt>
      <trkpt lat="42.99554304219782352447509765625" lon="-4.74538774229586124420166015625">
        <ele>1714.4000244140625</ele>
        <time>2021-07-22T07:52:30.000Z</time>
      </trkpt>
      <trkpt lat="42.99556215293705463409423828125" lon="-4.74538807757198810577392578125">
        <ele>1715.199951171875</ele>
        <time>2021-07-22T07:52:31.000Z</time>
      </trkpt>
      <trkpt lat="42.99562686122953891754150390625" lon="-4.74537382833659648895263671875">
        <ele>1716.199951171875</ele>
        <time>2021-07-22T07:52:35.000Z</time>
      </trkpt>
      <trkpt lat="42.995643205940723419189453125" lon="-4.74535354413092136383056640625">
        <ele>1716.800048828125</ele>
        <time>2021-07-22T07:52:37.000Z</time>
      </trkpt>
      <trkpt lat="42.99566424451768398284912109375" lon="-4.74535622633993625640869140625">
        <ele>1717.199951171875</ele>
        <time>2021-07-22T07:52:39.000Z</time>
      </trkpt>
      <trkpt lat="42.995686791837215423583984375" lon="-4.745370559394359588623046875">
        <ele>1717.4000244140625</ele>
        <time>2021-07-22T07:52:41.000Z</time>
      </trkpt>
      <trkpt lat="42.99570581875741481781005859375" lon="-4.74537617526948451995849609375">
        <ele>1718</ele>
        <time>2021-07-22T07:52:43.000Z</time>
      </trkpt>
      <trkpt lat="42.99571068026125431060791015625" lon="-4.74537014029920101165771484375">
        <ele>1718.5999755859375</ele>
        <time>2021-07-22T07:52:44.000Z</time>
      </trkpt>
      <trkpt lat="42.9957178048789501190185546875" lon="-4.74536812864243984222412109375">
        <ele>1718.800048828125</ele>
        <time>2021-07-22T07:52:45.000Z</time>
      </trkpt>
      <trkpt lat="42.995747141540050506591796875" lon="-4.74536745809018611907958984375">
        <ele>1719.800048828125</ele>
        <time>2021-07-22T07:52:49.000Z</time>
      </trkpt>
      <trkpt lat="42.9957546852529048919677734375" lon="-4.74536754190921783447265625">
        <ele>1720</ele>
        <time>2021-07-22T07:52:50.000Z</time>
      </trkpt>
      <trkpt lat="42.995785363018512725830078125" lon="-4.74536578170955181121826171875">
        <ele>1720.4000244140625</ele>
        <time>2021-07-22T07:52:53.000Z</time>
      </trkpt>
      <trkpt lat="42.99580313265323638916015625" lon="-4.74537265487015247344970703125">
        <ele>1721</ele>
        <time>2021-07-22T07:52:55.000Z</time>
      </trkpt>
      <trkpt lat="42.99582190811634063720703125" lon="-4.745385982096195220947265625">
        <ele>1721.5999755859375</ele>
        <time>2021-07-22T07:52:57.000Z</time>
      </trkpt>
      <trkpt lat="42.99583129584789276123046875" lon="-4.74539025686681270599365234375">
        <ele>1721.800048828125</ele>
        <time>2021-07-22T07:52:58.000Z</time>
      </trkpt>
      <trkpt lat="42.99583934247493743896484375" lon="-4.7453982196748256683349609375">
        <ele>1722</ele>
        <time>2021-07-22T07:52:59.000Z</time>
      </trkpt>
      <trkpt lat="42.995872199535369873046875" lon="-4.74538908340036869049072265625">
        <ele>1722.800048828125</ele>
        <time>2021-07-22T07:53:02.000Z</time>
      </trkpt>
      <trkpt lat="42.995881922543048858642578125" lon="-4.74538631737232208251953125">
        <ele>1723</ele>
        <time>2021-07-22T07:53:03.000Z</time>
      </trkpt>
      <trkpt lat="42.99588787369430065155029296875" lon="-4.74538790993392467498779296875">
        <ele>1723.199951171875</ele>
        <time>2021-07-22T07:53:04.000Z</time>
      </trkpt>
      <trkpt lat="42.99590078182518482208251953125" lon="-4.74540500901639461517333984375">
        <ele>1723.5999755859375</ele>
        <time>2021-07-22T07:53:06.000Z</time>
      </trkpt>
      <trkpt lat="42.99590614624321460723876953125" lon="-4.74541003815829753875732421875">
        <ele>1724</ele>
        <time>2021-07-22T07:53:07.000Z</time>
      </trkpt>
      <trkpt lat="42.99591201357543468475341796875" lon="-4.745421521365642547607421875">
        <ele>1724.199951171875</ele>
        <time>2021-07-22T07:53:08.000Z</time>
      </trkpt>
      <trkpt lat="42.9959273524582386016845703125" lon="-4.74544021300971508026123046875">
        <ele>1724.800048828125</ele>
        <time>2021-07-22T07:53:10.000Z</time>
      </trkpt>
      <trkpt lat="42.99594906158745288848876953125" lon="-4.74544356577098369598388671875">
        <ele>1725.199951171875</ele>
        <time>2021-07-22T07:53:12.000Z</time>
      </trkpt>
      <trkpt lat="42.99597588367760181427001953125" lon="-4.74545211531221866607666015625">
        <ele>1725.4000244140625</ele>
        <time>2021-07-22T07:53:14.000Z</time>
      </trkpt>
      <trkpt lat="42.99602583982050418853759765625" lon="-4.74544608034193515777587890625">
        <ele>1726.800048828125</ele>
        <time>2021-07-22T07:53:18.000Z</time>
      </trkpt>
      <trkpt lat="42.99605266191065311431884765625" lon="-4.7454352676868438720703125">
        <ele>1727.5999755859375</ele>
        <time>2021-07-22T07:53:21.000Z</time>
      </trkpt>
      <trkpt lat="42.99606171436607837677001953125" lon="-4.74543836899101734161376953125">
        <ele>1727.5999755859375</ele>
        <time>2021-07-22T07:53:22.000Z</time>
      </trkpt>
      <trkpt lat="42.99607747234404087066650390625" lon="-4.74543996155261993408203125">
        <ele>1728.199951171875</ele>
        <time>2021-07-22T07:53:24.000Z</time>
      </trkpt>
      <trkpt lat="42.99609909765422344207763671875" lon="-4.74544457159936428070068359375">
        <ele>1728.800048828125</ele>
        <time>2021-07-22T07:53:26.000Z</time>
      </trkpt>
      <trkpt lat="42.99610865302383899688720703125" lon="-4.74544473923742771148681640625">
        <ele>1729.4000244140625</ele>
        <time>2021-07-22T07:53:27.000Z</time>
      </trkpt>
      <trkpt lat="42.99612223170697689056396484375" lon="-4.7454273886978626251220703125">
        <ele>1729.800048828125</ele>
        <time>2021-07-22T07:53:29.000Z</time>
      </trkpt>
      <trkpt lat="42.99612893722951412200927734375" lon="-4.74540534429252147674560546875">
        <ele>1730.199951171875</ele>
        <time>2021-07-22T07:53:31.000Z</time>
      </trkpt>
      <trkpt lat="42.99613396637141704559326171875" lon="-4.7453978843986988067626953125">
        <ele>1730.4000244140625</ele>
        <time>2021-07-22T07:53:32.000Z</time>
      </trkpt>
      <trkpt lat="42.9961632192134857177734375" lon="-4.74538707174360752105712890625">
        <ele>1730.5999755859375</ele>
        <time>2021-07-22T07:53:36.000Z</time>
      </trkpt>
      <trkpt lat="42.9961707629263401031494140625" lon="-4.7453869879245758056640625">
        <ele>1731.4000244140625</ele>
        <time>2021-07-22T07:53:37.000Z</time>
      </trkpt>
      <trkpt lat="42.99618325196206569671630859375" lon="-4.745387993752956390380859375">
        <ele>1731.5999755859375</ele>
        <time>2021-07-22T07:53:38.000Z</time>
      </trkpt>
      <trkpt lat="42.9962076433002948760986328125" lon="-4.7453841380774974822998046875">
        <ele>1732.199951171875</ele>
        <time>2021-07-22T07:53:40.000Z</time>
      </trkpt>
      <trkpt lat="42.99621795304119586944580078125" lon="-4.74538472481071949005126953125">
        <ele>1732.4000244140625</ele>
        <time>2021-07-22T07:53:41.000Z</time>
      </trkpt>
      <trkpt lat="42.9962277598679065704345703125" lon="-4.7453868202865123748779296875">
        <ele>1732.4000244140625</ele>
        <time>2021-07-22T07:53:42.000Z</time>
      </trkpt>
      <trkpt lat="42.99623874016106128692626953125" lon="-4.74538958631455898284912109375">
        <ele>1732.800048828125</ele>
        <time>2021-07-22T07:53:43.000Z</time>
      </trkpt>
      <trkpt lat="42.9962475411593914031982421875" lon="-4.74539092741906642913818359375">
        <ele>1733</ele>
        <time>2021-07-22T07:53:44.000Z</time>
      </trkpt>
      <trkpt lat="42.99625399522483348846435546875" lon="-4.74539143033325672149658203125">
        <ele>1733.4000244140625</ele>
        <time>2021-07-22T07:53:45.000Z</time>
      </trkpt>
      <trkpt lat="42.996260114014148712158203125" lon="-4.74538631737232208251953125">
        <ele>1733.800048828125</ele>
        <time>2021-07-22T07:53:47.000Z</time>
      </trkpt>
      <trkpt lat="42.99626271240413188934326171875" lon="-4.7453817911446094512939453125">
        <ele>1734.199951171875</ele>
        <time>2021-07-22T07:53:48.000Z</time>
      </trkpt>
      <trkpt lat="42.99627251923084259033203125" lon="-4.74536494351923465728759765625">
        <ele>1734.800048828125</ele>
        <time>2021-07-22T07:53:50.000Z</time>
      </trkpt>
      <trkpt lat="42.9962827451527118682861328125" lon="-4.74534700624644756317138671875">
        <ele>1735.4000244140625</ele>
        <time>2021-07-22T07:53:52.000Z</time>
      </trkpt>
      <trkpt lat="42.9962871037423610687255859375" lon="-4.7453459165990352630615234375">
        <ele>1736</ele>
        <time>2021-07-22T07:53:53.000Z</time>
      </trkpt>
      <trkpt lat="42.99630328081548213958740234375" lon="-4.74534717388451099395751953125">
        <ele>1736.5999755859375</ele>
        <time>2021-07-22T07:53:56.000Z</time>
      </trkpt>
      <trkpt lat="42.99632993526756763458251953125" lon="-4.74535522051155567169189453125">
        <ele>1737</ele>
        <time>2021-07-22T07:53:59.000Z</time>
      </trkpt>
      <trkpt lat="42.996366061270236968994140625" lon="-4.74535413086414337158203125">
        <ele>1737.5999755859375</ele>
        <time>2021-07-22T07:54:03.000Z</time>
      </trkpt>
      <trkpt lat="42.9963873513042926788330078125" lon="-4.74535639397799968719482421875">
        <ele>1738.199951171875</ele>
        <time>2021-07-22T07:54:05.000Z</time>
      </trkpt>
      <trkpt lat="42.99642062745988368988037109375" lon="-4.7453252971172332763671875">
        <ele>1739.4000244140625</ele>
        <time>2021-07-22T07:54:09.000Z</time>
      </trkpt>
      <trkpt lat="42.99643973819911479949951171875" lon="-4.7452885843813419342041015625">
        <ele>1740.199951171875</ele>
        <time>2021-07-22T07:54:13.000Z</time>
      </trkpt>
      <trkpt lat="42.99644418060779571533203125" lon="-4.74528632126748561859130859375">
        <ele>1740.4000244140625</ele>
        <time>2021-07-22T07:54:14.000Z</time>
      </trkpt>
      <trkpt lat="42.996467649936676025390625" lon="-4.7452818788588047027587890625">
        <ele>1741.4000244140625</ele>
        <time>2021-07-22T07:54:17.000Z</time>
      </trkpt>
      <trkpt lat="42.99647376872599124908447265625" lon="-4.74527341313660144805908203125">
        <ele>1741.800048828125</ele>
        <time>2021-07-22T07:54:18.000Z</time>
      </trkpt>
      <trkpt lat="42.99648835323750972747802734375" lon="-4.74525564350187778472900390625">
        <ele>1742.5999755859375</ele>
        <time>2021-07-22T07:54:21.000Z</time>
      </trkpt>
      <trkpt lat="42.99649514257907867431640625" lon="-4.7452560625970363616943359375">
        <ele>1742.800048828125</ele>
        <time>2021-07-22T07:54:22.000Z</time>
      </trkpt>
      <trkpt lat="42.9965090565383434295654296875" lon="-4.74524357356131076812744140625">
        <ele>1743.4000244140625</ele>
        <time>2021-07-22T07:54:25.000Z</time>
      </trkpt>
      <trkpt lat="42.9965228028595447540283203125" lon="-4.74524474702775478363037109375">
        <ele>1743.800048828125</ele>
        <time>2021-07-22T07:54:27.000Z</time>
      </trkpt>
      <trkpt lat="42.996537387371063232421875" lon="-4.74524625577032566070556640625">
        <ele>1744.199951171875</ele>
        <time>2021-07-22T07:54:29.000Z</time>
      </trkpt>
      <trkpt lat="42.99656244926154613494873046875" lon="-4.74524818360805511474609375">
        <ele>1744.800048828125</ele>
        <time>2021-07-22T07:54:32.000Z</time>
      </trkpt>
      <trkpt lat="42.99657166935503482818603515625" lon="-4.74524793215095996856689453125">
        <ele>1744.800048828125</ele>
        <time>2021-07-22T07:54:33.000Z</time>
      </trkpt>
      <trkpt lat="42.99657871015369892120361328125" lon="-4.7452448308467864990234375">
        <ele>1745.199951171875</ele>
        <time>2021-07-22T07:54:34.000Z</time>
      </trkpt>
      <trkpt lat="42.99660184420645236968994140625" lon="-4.745243825018405914306640625">
        <ele>1746.4000244140625</ele>
        <time>2021-07-22T07:54:37.000Z</time>
      </trkpt>
      <trkpt lat="42.996608130633831024169921875" lon="-4.74524273537099361419677734375">
        <ele>1746.5999755859375</ele>
        <time>2021-07-22T07:54:38.000Z</time>
      </trkpt>
      <trkpt lat="42.99661776982247829437255859375" lon="-4.74523318000137805938720703125">
        <ele>1747.199951171875</ele>
        <time>2021-07-22T07:54:40.000Z</time>
      </trkpt>
      <trkpt lat="42.9966240562498569488525390625" lon="-4.7452319227159023284912109375">
        <ele>1747.4000244140625</ele>
        <time>2021-07-22T07:54:41.000Z</time>
      </trkpt>
      <trkpt lat="42.99665750004351139068603515625" lon="-4.74522144533693790435791015625">
        <ele>1748.199951171875</ele>
        <time>2021-07-22T07:54:45.000Z</time>
      </trkpt>
      <trkpt lat="42.99667241983115673065185546875" lon="-4.7452171705663204193115234375">
        <ele>1748.5999755859375</ele>
        <time>2021-07-22T07:54:47.000Z</time>
      </trkpt>
      <trkpt lat="42.9966795444488525390625" lon="-4.74521658383309841156005859375">
        <ele>1748.800048828125</ele>
        <time>2021-07-22T07:54:48.000Z</time>
      </trkpt>
      <trkpt lat="42.99668834544718265533447265625" lon="-4.7452158294618129730224609375">
        <ele>1749.199951171875</ele>
        <time>2021-07-22T07:54:49.000Z</time>
      </trkpt>
      <trkpt lat="42.9967011697590351104736328125" lon="-4.74520535208284854888916015625">
        <ele>1749.5999755859375</ele>
        <time>2021-07-22T07:54:51.000Z</time>
      </trkpt>
      <trkpt lat="42.99670527689158916473388671875" lon="-4.7452027536928653717041015625">
        <ele>1749.5999755859375</ele>
        <time>2021-07-22T07:54:52.000Z</time>
      </trkpt>
      <trkpt lat="42.996722124516963958740234375" lon="-4.7452057711780071258544921875">
        <ele>1750.800048828125</ele>
        <time>2021-07-22T07:54:55.000Z</time>
      </trkpt>
      <trkpt lat="42.996730171144008636474609375" lon="-4.745203591883182525634765625">
        <ele>1751</ele>
        <time>2021-07-22T07:54:56.000Z</time>
      </trkpt>
      <trkpt lat="42.9967796243727207183837890625" lon="-4.74520568735897541046142578125">
        <ele>1751.800048828125</ele>
        <time>2021-07-22T07:55:00.000Z</time>
      </trkpt>
      <trkpt lat="42.99678959883749485015869140625" lon="-4.74520392715930938720703125">
        <ele>1752.199951171875</ele>
        <time>2021-07-22T07:55:01.000Z</time>
      </trkpt>
      <trkpt lat="42.9968042671680450439453125" lon="-4.74520032294094562530517578125">
        <ele>1753</ele>
        <time>2021-07-22T07:55:03.000Z</time>
      </trkpt>
      <trkpt lat="42.99681340344250202178955078125" lon="-4.74518339149653911590576171875">
        <ele>1753.5999755859375</ele>
        <time>2021-07-22T07:55:05.000Z</time>
      </trkpt>
      <trkpt lat="42.996820025146007537841796875" lon="-4.74517978727817535400390625">
        <ele>1753.5999755859375</ele>
        <time>2021-07-22T07:55:06.000Z</time>
      </trkpt>
      <trkpt lat="42.99685724079608917236328125" lon="-4.74516361020505428314208984375">
        <ele>1754.199951171875</ele>
        <time>2021-07-22T07:55:09.000Z</time>
      </trkpt>
      <trkpt lat="42.99687140621244907379150390625" lon="-4.74515296518802642822265625">
        <ele>1754.800048828125</ele>
        <time>2021-07-22T07:55:12.000Z</time>
      </trkpt>
      <trkpt lat="42.996879704296588897705078125" lon="-4.74514902569353580474853515625">
        <ele>1755.199951171875</ele>
        <time>2021-07-22T07:55:14.000Z</time>
      </trkpt>
      <trkpt lat="42.9968919418752193450927734375" lon="-4.7451509535312652587890625">
        <ele>1756</ele>
        <time>2021-07-22T07:55:16.000Z</time>
      </trkpt>
      <trkpt lat="42.996901832520961761474609375" lon="-4.74515506066381931304931640625">
        <ele>1756.199951171875</ele>
        <time>2021-07-22T07:55:17.000Z</time>
      </trkpt>
      <trkpt lat="42.9969110526144504547119140625" lon="-4.74515673704445362091064453125">
        <ele>1756.5999755859375</ele>
        <time>2021-07-22T07:55:18.000Z</time>
      </trkpt>
      <trkpt lat="42.996938042342662811279296875" lon="-4.74515606649219989776611328125">
        <ele>1757</ele>
        <time>2021-07-22T07:55:20.000Z</time>
      </trkpt>
      <trkpt lat="42.9969486035406589508056640625" lon="-4.74514986388385295867919921875">
        <ele>1757</ele>
        <time>2021-07-22T07:55:21.000Z</time>
      </trkpt>
      <trkpt lat="42.9969571530818939208984375" lon="-4.74514801986515522003173828125">
        <ele>1757.4000244140625</ele>
        <time>2021-07-22T07:55:22.000Z</time>
      </trkpt>
      <trkpt lat="42.99696377478539943695068359375" lon="-4.7451454214751720428466796875">
        <ele>1757.5999755859375</ele>
        <time>2021-07-22T07:55:23.000Z</time>
      </trkpt>
      <trkpt lat="42.9969774372875690460205078125" lon="-4.74513729102909564971923828125">
        <ele>1758.199951171875</ele>
        <time>2021-07-22T07:55:25.000Z</time>
      </trkpt>
      <trkpt lat="42.996981628239154815673828125" lon="-4.745131842792034149169921875">
        <ele>1758.4000244140625</ele>
        <time>2021-07-22T07:55:26.000Z</time>
      </trkpt>
      <trkpt lat="42.99700082279741764068603515625" lon="-4.745129831135272979736328125">
        <ele>1759.5999755859375</ele>
        <time>2021-07-22T07:55:30.000Z</time>
      </trkpt>
      <trkpt lat="42.997039295732975006103515625" lon="-4.74510393105447292327880859375">
        <ele>1760.4000244140625</ele>
        <time>2021-07-22T07:55:34.000Z</time>
      </trkpt>
      <trkpt lat="42.99705061130225658416748046875" lon="-4.74510896019637584686279296875">
        <ele>1760.5999755859375</ele>
        <time>2021-07-22T07:55:35.000Z</time>
      </trkpt>
      <trkpt lat="42.99705932848155498504638671875" lon="-4.74510602653026580810546875">
        <ele>1760.800048828125</ele>
        <time>2021-07-22T07:55:36.000Z</time>
      </trkpt>
      <trkpt lat="42.99708925187587738037109375" lon="-4.745093286037445068359375">
        <ele>1761.4000244140625</ele>
        <time>2021-07-22T07:55:39.000Z</time>
      </trkpt>
      <trkpt lat="42.997098304331302642822265625" lon="-4.74509571678936481475830078125">
        <ele>1761.5999755859375</ele>
        <time>2021-07-22T07:55:40.000Z</time>
      </trkpt>
      <trkpt lat="42.99710668623447418212890625" lon="-4.74509538151323795318603515625">
        <ele>1762</ele>
        <time>2021-07-22T07:55:41.000Z</time>
      </trkpt>
      <trkpt lat="42.9971447400748729705810546875" lon="-4.74509236402809619903564453125">
        <ele>1763</ele>
        <time>2021-07-22T07:55:45.000Z</time>
      </trkpt>
      <trkpt lat="42.997178100049495697021484375" lon="-4.74508750252425670623779296875">
        <ele>1764</ele>
        <time>2021-07-22T07:55:48.000Z</time>
      </trkpt>
      <trkpt lat="42.99718924798071384429931640625" lon="-4.7450827248394489288330078125">
        <ele>1764.199951171875</ele>
        <time>2021-07-22T07:55:49.000Z</time>
      </trkpt>
      <trkpt lat="42.99722042866051197052001953125" lon="-4.74508280865848064422607421875">
        <ele>1765.4000244140625</ele>
        <time>2021-07-22T07:55:52.000Z</time>
      </trkpt>
      <trkpt lat="42.9972280561923980712890625" lon="-4.745084904134273529052734375">
        <ele>1765.5999755859375</ele>
        <time>2021-07-22T07:55:53.000Z</time>
      </trkpt>
      <trkpt lat="42.997241802513599395751953125" lon="-4.7450890950858592987060546875">
        <ele>1766</ele>
        <time>2021-07-22T07:55:55.000Z</time>
      </trkpt>
      <trkpt lat="42.99726401455700397491455078125" lon="-4.7450800426304340362548828125">
        <ele>1766.199951171875</ele>
        <time>2021-07-22T07:55:57.000Z</time>
      </trkpt>
      <trkpt lat="42.99727792851626873016357421875" lon="-4.74507224746048450469970703125">
        <ele>1766.4000244140625</ele>
        <time>2021-07-22T07:55:58.000Z</time>
      </trkpt>
      <trkpt lat="42.99729586578905582427978515625" lon="-4.74506487138569355010986328125">
        <ele>1766.800048828125</ele>
        <time>2021-07-22T07:56:00.000Z</time>
      </trkpt>
      <trkpt lat="42.99730592407286167144775390625" lon="-4.74505783058702945709228515625">
        <ele>1767.4000244140625</ele>
        <time>2021-07-22T07:56:02.000Z</time>
      </trkpt>
      <trkpt lat="42.9973096959292888641357421875" lon="-4.74505682475864887237548828125">
        <ele>1767.4000244140625</ele>
        <time>2021-07-22T07:56:03.000Z</time>
      </trkpt>
      <trkpt lat="42.99731723964214324951171875" lon="-4.74503335542976856231689453125">
        <ele>1767.5999755859375</ele>
        <time>2021-07-22T07:56:05.000Z</time>
      </trkpt>
      <trkpt lat="42.99732134677469730377197265625" lon="-4.74502681754529476165771484375">
        <ele>1768</ele>
        <time>2021-07-22T07:56:06.000Z</time>
      </trkpt>
      <trkpt lat="42.997326962649822235107421875" lon="-4.7450247220695018768310546875">
        <ele>1768.4000244140625</ele>
        <time>2021-07-22T07:56:07.000Z</time>
      </trkpt>
      <trkpt lat="42.99735772423446178436279296875" lon="-4.74501793272793292999267578125">
        <ele>1769.5999755859375</ele>
        <time>2021-07-22T07:56:11.000Z</time>
      </trkpt>
      <trkpt lat="42.99736795015633106231689453125" lon="-4.7450203634798526763916015625">
        <ele>1769.800048828125</ele>
        <time>2021-07-22T07:56:12.000Z</time>
      </trkpt>
      <trkpt lat="42.99737884663045406341552734375" lon="-4.7450206987559795379638671875">
        <ele>1770</ele>
        <time>2021-07-22T07:56:13.000Z</time>
      </trkpt>
      <trkpt lat="42.99740298651158809661865234375" lon="-4.7450260631740093231201171875">
        <ele>1770.4000244140625</ele>
        <time>2021-07-22T07:56:15.000Z</time>
      </trkpt>
      <trkpt lat="42.99741405062377452850341796875" lon="-4.7450284101068973541259765625">
        <ele>1770.5999755859375</ele>
        <time>2021-07-22T07:56:16.000Z</time>
      </trkpt>
      <trkpt lat="42.9974226839840412139892578125" lon="-4.74503285251557826995849609375">
        <ele>1770.800048828125</ele>
        <time>2021-07-22T07:56:17.000Z</time>
      </trkpt>
      <trkpt lat="42.997457720339298248291015625" lon="-4.7450394742190837860107421875">
        <ele>1771.5999755859375</ele>
        <time>2021-07-22T07:56:20.000Z</time>
      </trkpt>
      <trkpt lat="42.99746878445148468017578125" lon="-4.74503905512392520904541015625">
        <ele>1771.800048828125</ele>
        <time>2021-07-22T07:56:21.000Z</time>
      </trkpt>
      <trkpt lat="42.99752175807952880859375" lon="-4.74501751363277435302734375">
        <ele>1772.5999755859375</ele>
        <time>2021-07-22T07:56:27.000Z</time>
      </trkpt>
      <trkpt lat="42.99753022380173206329345703125" lon="-4.74501214921474456787109375">
        <ele>1773</ele>
        <time>2021-07-22T07:56:28.000Z</time>
      </trkpt>
      <trkpt lat="42.9975794255733489990234375" lon="-4.74500888027250766754150390625">
        <ele>1773.800048828125</ele>
        <time>2021-07-22T07:56:32.000Z</time>
      </trkpt>
      <trkpt lat="42.99759350717067718505859375" lon="-4.745010472834110260009765625">
        <ele>1774</ele>
        <time>2021-07-22T07:56:33.000Z</time>
      </trkpt>
      <trkpt lat="42.9976090975105762481689453125" lon="-4.74500888027250766754150390625">
        <ele>1774.199951171875</ele>
        <time>2021-07-22T07:56:34.000Z</time>
      </trkpt>
      <trkpt lat="42.99762309528887271881103515625" lon="-4.7450032643973827362060546875">
        <ele>1774.5999755859375</ele>
        <time>2021-07-22T07:56:35.000Z</time>
      </trkpt>
      <trkpt lat="42.99763700924813747406005859375" lon="-4.74499714560806751251220703125">
        <ele>1775</ele>
        <time>2021-07-22T07:56:36.000Z</time>
      </trkpt>
      <trkpt lat="42.997647821903228759765625" lon="-4.7449938766658306121826171875">
        <ele>1775.4000244140625</ele>
        <time>2021-07-22T07:56:37.000Z</time>
      </trkpt>
      <trkpt lat="42.9976697824895381927490234375" lon="-4.74498356692492961883544921875">
        <ele>1775.5999755859375</ele>
        <time>2021-07-22T07:56:39.000Z</time>
      </trkpt>
      <trkpt lat="42.99769082106649875640869140625" lon="-4.74497786723077297210693359375">
        <ele>1775.800048828125</ele>
        <time>2021-07-22T07:56:41.000Z</time>
      </trkpt>
      <trkpt lat="42.99769945442676544189453125" lon="-4.7449821420013904571533203125">
        <ele>1776</ele>
        <time>2021-07-22T07:56:42.000Z</time>
      </trkpt>
      <trkpt lat="42.997706495225429534912109375" lon="-4.74498155526816844940185546875">
        <ele>1776.4000244140625</ele>
        <time>2021-07-22T07:56:43.000Z</time>
      </trkpt>
      <trkpt lat="42.9977269470691680908203125" lon="-4.7449794597923755645751953125">
        <ele>1776.5999755859375</ele>
        <time>2021-07-22T07:56:45.000Z</time>
      </trkpt>
      <trkpt lat="42.99773968756198883056640625" lon="-4.74497686140239238739013671875">
        <ele>1776.800048828125</ele>
        <time>2021-07-22T07:56:46.000Z</time>
      </trkpt>
      <trkpt lat="42.99776785075664520263671875" lon="-4.7449714131653308868408203125">
        <ele>1777.199951171875</ele>
        <time>2021-07-22T07:56:48.000Z</time>
      </trkpt>
      <trkpt lat="42.9977898113429546356201171875" lon="-4.744959175586700439453125">
        <ele>1777.5999755859375</ele>
        <time>2021-07-22T07:56:50.000Z</time>
      </trkpt>
      <trkpt lat="42.99780028872191905975341796875" lon="-4.7449516318738460540771484375">
        <ele>1778.199951171875</ele>
        <time>2021-07-22T07:56:51.000Z</time>
      </trkpt>
      <trkpt lat="42.99781889654695987701416015625" lon="-4.744931347668170928955078125">
        <ele>1778.5999755859375</ele>
        <time>2021-07-22T07:56:53.000Z</time>
      </trkpt>
      <trkpt lat="42.997826524078845977783203125" lon="-4.74488918669521808624267578125">
        <ele>1779.4000244140625</ele>
        <time>2021-07-22T07:56:56.000Z</time>
      </trkpt>
      <trkpt lat="42.9978236742317676544189453125" lon="-4.74488013423979282379150390625">
        <ele>1779.5999755859375</ele>
        <time>2021-07-22T07:56:57.000Z</time>
      </trkpt>
      <trkpt lat="42.99780632369220256805419921875" lon="-4.744864962995052337646484375">
        <ele>1779.800048828125</ele>
        <time>2021-07-22T07:56:59.000Z</time>
      </trkpt>
      <trkpt lat="42.997800372540950775146484375" lon="-4.74485448561608791351318359375">
        <ele>1780.199951171875</ele>
        <time>2021-07-22T07:57:00.000Z</time>
      </trkpt>
      <trkpt lat="42.9977857880294322967529296875" lon="-4.744845516979694366455078125">
        <ele>1780.4000244140625</ele>
        <time>2021-07-22T07:57:01.000Z</time>
      </trkpt>
      <trkpt lat="42.99777128733694553375244140625" lon="-4.74483839236199855804443359375">
        <ele>1780.800048828125</ele>
        <time>2021-07-22T07:57:02.000Z</time>
      </trkpt>
      <trkpt lat="42.99775904975831508636474609375" lon="-4.74483571015298366546630859375">
        <ele>1781</ele>
        <time>2021-07-22T07:57:03.000Z</time>
      </trkpt>
      <trkpt lat="42.99775100313127040863037109375" lon="-4.74482917226850986480712890625">
        <ele>1781.4000244140625</ele>
        <time>2021-07-22T07:57:04.000Z</time>
      </trkpt>
      <trkpt lat="42.9977358318865299224853515625" lon="-4.74482011981308460235595703125">
        <ele>1781.800048828125</ele>
        <time>2021-07-22T07:57:06.000Z</time>
      </trkpt>
      <trkpt lat="42.99772820435464382171630859375" lon="-4.74480302073061466217041015625">
        <ele>1782</ele>
        <time>2021-07-22T07:57:08.000Z</time>
      </trkpt>
      <trkpt lat="42.9977056570351123809814453125" lon="-4.74477385170757770538330078125">
        <ele>1782.5999755859375</ele>
        <time>2021-07-22T07:57:11.000Z</time>
      </trkpt>
      <trkpt lat="42.9976969398558139801025390625" lon="-4.744762368500232696533203125">
        <ele>1783</ele>
        <time>2021-07-22T07:57:12.000Z</time>
      </trkpt>
      <trkpt lat="42.9976895637810230255126953125" lon="-4.74474904127418994903564453125">
        <ele>1783.199951171875</ele>
        <time>2021-07-22T07:57:13.000Z</time>
      </trkpt>
      <trkpt lat="42.9976493306457996368408203125" lon="-4.74470796994864940643310546875">
        <ele>1784.199951171875</ele>
        <time>2021-07-22T07:57:17.000Z</time>
      </trkpt>
      <trkpt lat="42.9976352490484714508056640625" lon="-4.744693972170352935791015625">
        <ele>1784.4000244140625</ele>
        <time>2021-07-22T07:57:18.000Z</time>
      </trkpt>
      <trkpt lat="42.99760046415030956268310546875" lon="-4.7446565888822078704833984375">
        <ele>1785.199951171875</ele>
        <time>2021-07-22T07:57:21.000Z</time>
      </trkpt>
      <trkpt lat="42.99759040586650371551513671875" lon="-4.74464762024581432342529296875">
        <ele>1785.5999755859375</ele>
        <time>2021-07-22T07:57:22.000Z</time>
      </trkpt>
      <trkpt lat="42.9975785873830318450927734375" lon="-4.74464007653295993804931640625">
        <ele>1785.800048828125</ele>
        <time>2021-07-22T07:57:23.000Z</time>
      </trkpt>
      <trkpt lat="42.9975464008748531341552734375" lon="-4.7446146793663501739501953125">
        <ele>1786.199951171875</ele>
        <time>2021-07-22T07:57:26.000Z</time>
      </trkpt>
      <trkpt lat="42.9975396953523159027099609375" lon="-4.74458173848688602447509765625">
        <ele>1786.5999755859375</ele>
        <time>2021-07-22T07:57:28.000Z</time>
      </trkpt>
      <trkpt lat="42.99753257073462009429931640625" lon="-4.744530022144317626953125">
        <ele>1787.4000244140625</ele>
        <time>2021-07-22T07:57:31.000Z</time>
      </trkpt>
      <trkpt lat="42.99752737395465373992919921875" lon="-4.7445171140134334564208984375">
        <ele>1787.5999755859375</ele>
        <time>2021-07-22T07:57:32.000Z</time>
      </trkpt>
      <trkpt lat="42.99752167426049709320068359375" lon="-4.74450923502445220947265625">
        <ele>1787.800048828125</ele>
        <time>2021-07-22T07:57:33.000Z</time>
      </trkpt>
      <trkpt lat="42.997506670653820037841796875" lon="-4.7444812394678592681884765625">
        <ele>1788.5999755859375</ele>
        <time>2021-07-22T07:57:36.000Z</time>
      </trkpt>
      <trkpt lat="42.99749401398003101348876953125" lon="-4.7444681636989116668701171875">
        <ele>1789.199951171875</ele>
        <time>2021-07-22T07:57:38.000Z</time>
      </trkpt>
      <trkpt lat="42.997470460832118988037109375" lon="-4.74444444291293621063232421875">
        <ele>1790.199951171875</ele>
        <time>2021-07-22T07:57:41.000Z</time>
      </trkpt>
      <trkpt lat="42.99746476113796234130859375" lon="-4.74443187005817890167236328125">
        <ele>1790.4000244140625</ele>
        <time>2021-07-22T07:57:42.000Z</time>
      </trkpt>
      <trkpt lat="42.9974495060741901397705078125" lon="-4.74441225640475749969482421875">
        <ele>1791</ele>
        <time>2021-07-22T07:57:44.000Z</time>
      </trkpt>
      <trkpt lat="42.99744372256100177764892578125" lon="-4.74440169520676136016845703125">
        <ele>1791.4000244140625</ele>
        <time>2021-07-22T07:57:45.000Z</time>
      </trkpt>
      <trkpt lat="42.99744254909455776214599609375" lon="-4.7443863563239574432373046875">
        <ele>1791.5999755859375</ele>
        <time>2021-07-22T07:57:46.000Z</time>
      </trkpt>
      <trkpt lat="42.997437603771686553955078125" lon="-4.7443528287112712860107421875">
        <ele>1791.800048828125</ele>
        <time>2021-07-22T07:57:48.000Z</time>
      </trkpt>
      <trkpt lat="42.9974303953349590301513671875" lon="-4.74432290531694889068603515625">
        <ele>1792.199951171875</ele>
        <time>2021-07-22T07:57:50.000Z</time>
      </trkpt>
      <trkpt lat="42.99742427654564380645751953125" lon="-4.744308404624462127685546875">
        <ele>1792.5999755859375</ele>
        <time>2021-07-22T07:57:51.000Z</time>
      </trkpt>
      <trkpt lat="42.99741237424314022064208984375" lon="-4.7442847676575183868408203125">
        <ele>1793</ele>
        <time>2021-07-22T07:57:53.000Z</time>
      </trkpt>
      <trkpt lat="42.99740550108253955841064453125" lon="-4.74427982233464717864990234375">
        <ele>1793.199951171875</ele>
        <time>2021-07-22T07:57:55.000Z</time>
      </trkpt>
      <trkpt lat="42.997404076159000396728515625" lon="-4.7442824207246303558349609375">
        <ele>1793</ele>
        <time>2021-07-22T07:57:58.000Z</time>
      </trkpt>
      <trkpt lat="42.99740843474864959716796875" lon="-4.74427730776369571685791015625">
        <ele>1793</ele>
        <time>2021-07-22T07:58:00.000Z</time>
      </trkpt>
      <trkpt lat="42.99741488881409168243408203125" lon="-4.744265489280223846435546875">
        <ele>1793.199951171875</ele>
        <time>2021-07-22T07:58:02.000Z</time>
      </trkpt>
      <trkpt lat="42.99742880277335643768310546875" lon="-4.744230620563030242919921875">
        <ele>1793.5999755859375</ele>
        <time>2021-07-22T07:58:04.000Z</time>
      </trkpt>
      <trkpt lat="42.99743332900106906890869140625" lon="-4.74421092309057712554931640625">
        <ele>1794</ele>
        <time>2021-07-22T07:58:06.000Z</time>
      </trkpt>
      <trkpt lat="42.99743651412427425384521484375" lon="-4.74420069716870784759521484375">
        <ele>1794.199951171875</ele>
        <time>2021-07-22T07:58:07.000Z</time>
      </trkpt>
      <trkpt lat="42.9974451474845409393310546875" lon="-4.744172282516956329345703125">
        <ele>1794.800048828125</ele>
        <time>2021-07-22T07:58:09.000Z</time>
      </trkpt>
      <trkpt lat="42.99744674004614353179931640625" lon="-4.74415577016770839691162109375">
        <ele>1795</ele>
        <time>2021-07-22T07:58:10.000Z</time>
      </trkpt>
      <trkpt lat="42.99744472838938236236572265625" lon="-4.7441429458558559417724609375">
        <ele>1795.199951171875</ele>
        <time>2021-07-22T07:58:11.000Z</time>
      </trkpt>
      <trkpt lat="42.99743349663913249969482421875" lon="-4.7441129386425018310546875">
        <ele>1795.800048828125</ele>
        <time>2021-07-22T07:58:13.000Z</time>
      </trkpt>
      <trkpt lat="42.99742645584046840667724609375" lon="-4.74410279653966426849365234375">
        <ele>1795.800048828125</ele>
        <time>2021-07-22T07:58:14.000Z</time>
      </trkpt>
      <trkpt lat="42.997421510517597198486328125" lon="-4.7440963424742221832275390625">
        <ele>1796</ele>
        <time>2021-07-22T07:58:15.000Z</time>
      </trkpt>
      <trkpt lat="42.99741153605282306671142578125" lon="-4.744077064096927642822265625">
        <ele>1797</ele>
        <time>2021-07-22T07:58:17.000Z</time>
      </trkpt>
      <trkpt lat="42.99741053022444248199462890625" lon="-4.74405736662447452545166015625">
        <ele>1798</ele>
        <time>2021-07-22T07:58:19.000Z</time>
      </trkpt>
      <trkpt lat="42.9974260367453098297119140625" lon="-4.74402819760143756866455078125">
        <ele>1798.4000244140625</ele>
        <time>2021-07-22T07:58:21.000Z</time>
      </trkpt>
      <trkpt lat="42.99744288437068462371826171875" lon="-4.7440165467560291290283203125">
        <ele>1798.5999755859375</ele>
        <time>2021-07-22T07:58:23.000Z</time>
      </trkpt>
      <trkpt lat="42.997450344264507293701171875" lon="-4.74401093088090419769287109375">
        <ele>1798.5999755859375</ele>
        <time>2021-07-22T07:58:24.000Z</time>
      </trkpt>
      <trkpt lat="42.99746970646083354949951171875" lon="-4.74399290978908538818359375">
        <ele>1799.199951171875</ele>
        <time>2021-07-22T07:58:26.000Z</time>
      </trkpt>
      <trkpt lat="42.99747775308787822723388671875" lon="-4.7439823485910892486572265625">
        <ele>1799.4000244140625</ele>
        <time>2021-07-22T07:58:27.000Z</time>
      </trkpt>
      <trkpt lat="42.99750901758670806884765625" lon="-4.74396885372698307037353515625">
        <ele>1800.199951171875</ele>
        <time>2021-07-22T07:58:30.000Z</time>
      </trkpt>
      <trkpt lat="42.99752268008887767791748046875" lon="-4.7439712844789028167724609375">
        <ele>1800.5999755859375</ele>
        <time>2021-07-22T07:58:31.000Z</time>
      </trkpt>
      <trkpt lat="42.9975638352334499359130859375" lon="-4.74396784789860248565673828125">
        <ele>1801.199951171875</ele>
        <time>2021-07-22T07:58:34.000Z</time>
      </trkpt>
      <trkpt lat="42.99759685993194580078125" lon="-4.743946976959705352783203125">
        <ele>1802.199951171875</ele>
        <time>2021-07-22T07:58:37.000Z</time>
      </trkpt>
      <trkpt lat="42.99760750494897365570068359375" lon="-4.74394035525619983673095703125">
        <ele>1802.4000244140625</ele>
        <time>2021-07-22T07:58:38.000Z</time>
      </trkpt>
      <trkpt lat="42.99764069728553295135498046875" lon="-4.7439162991940975189208984375">
        <ele>1803.4000244140625</ele>
        <time>2021-07-22T07:58:41.000Z</time>
      </trkpt>
      <trkpt lat="42.9976831935346126556396484375" lon="-4.74389542825520038604736328125">
        <ele>1804.5999755859375</ele>
        <time>2021-07-22T07:58:45.000Z</time>
      </trkpt>
      <trkpt lat="42.997709847986698150634765625" lon="-4.74388025701045989990234375">
        <ele>1805</ele>
        <time>2021-07-22T07:58:48.000Z</time>
      </trkpt>
      <trkpt lat="42.9977465607225894927978515625" lon="-4.74385519511997699737548828125">
        <ele>1805.800048828125</ele>
        <time>2021-07-22T07:58:51.000Z</time>
      </trkpt>
      <trkpt lat="42.997778914868831634521484375" lon="-4.74385033361613750457763671875">
        <ele>1806.5999755859375</ele>
        <time>2021-07-22T07:58:54.000Z</time>
      </trkpt>
      <trkpt lat="42.9977908171713352203369140625" lon="-4.743843041360378265380859375">
        <ele>1806.800048828125</ele>
        <time>2021-07-22T07:58:55.000Z</time>
      </trkpt>
      <trkpt lat="42.9978293739259243011474609375" lon="-4.74382518790662288665771484375">
        <ele>1808.199951171875</ele>
        <time>2021-07-22T07:58:58.000Z</time>
      </trkpt>
      <trkpt lat="42.99788360483944416046142578125" lon="-4.743811190128326416015625">
        <ele>1808.5999755859375</ele>
        <time>2021-07-22T07:59:02.000Z</time>
      </trkpt>
      <trkpt lat="42.9979329742491245269775390625" lon="-4.74377741105854511260986328125">
        <ele>1809.199951171875</ele>
        <time>2021-07-22T07:59:06.000Z</time>
      </trkpt>
      <trkpt lat="42.99795920960605144500732421875" lon="-4.74375662393867969512939453125">
        <ele>1810.199951171875</ele>
        <time>2021-07-22T07:59:09.000Z</time>
      </trkpt>
      <trkpt lat="42.9979688487946987152099609375" lon="-4.7437533549964427947998046875">
        <ele>1810.4000244140625</ele>
        <time>2021-07-22T07:59:10.000Z</time>
      </trkpt>
      <trkpt lat="42.99801654182374477386474609375" lon="-4.7437134571373462677001953125">
        <ele>1811.5999755859375</ele>
        <time>2021-07-22T07:59:15.000Z</time>
      </trkpt>
      <trkpt lat="42.9980251751840114593505859375" lon="-4.7437079250812530517578125">
        <ele>1811.800048828125</ele>
        <time>2021-07-22T07:59:16.000Z</time>
      </trkpt>
      <trkpt lat="42.998034060001373291015625" lon="-4.74370398558676242828369140625">
        <ele>1812</ele>
        <time>2021-07-22T07:59:17.000Z</time>
      </trkpt>
      <trkpt lat="42.99805509857833385467529296875" lon="-4.74370448850095272064208984375">
        <ele>1812.5999755859375</ele>
        <time>2021-07-22T07:59:19.000Z</time>
      </trkpt>
      <trkpt lat="42.9981066472828388214111328125" lon="-4.74366928450763225555419921875">
        <ele>1813.800048828125</ele>
        <time>2021-07-22T07:59:23.000Z</time>
      </trkpt>
      <trkpt lat="42.99811880104243755340576171875" lon="-4.74366140551865100860595703125">
        <ele>1814</ele>
        <time>2021-07-22T07:59:24.000Z</time>
      </trkpt>
      <trkpt lat="42.9981840960681438446044921875" lon="-4.743627123534679412841796875">
        <ele>1815.199951171875</ele>
        <time>2021-07-22T07:59:30.000Z</time>
      </trkpt>
      <trkpt lat="42.998194657266139984130859375" lon="-4.74362016655504703521728515625">
        <ele>1815.5999755859375</ele>
        <time>2021-07-22T07:59:31.000Z</time>
      </trkpt>
      <trkpt lat="42.9982353933155536651611328125" lon="-4.7436081804335117340087890625">
        <ele>1816.199951171875</ele>
        <time>2021-07-22T07:59:35.000Z</time>
      </trkpt>
      <trkpt lat="42.9982602037489414215087890625" lon="-4.74360139109194278717041015625">
        <ele>1816.4000244140625</ele>
        <time>2021-07-22T07:59:37.000Z</time>
      </trkpt>
      <trkpt lat="42.99829314462840557098388671875" lon="-4.7435860522091388702392578125">
        <ele>1817.5999755859375</ele>
        <time>2021-07-22T07:59:40.000Z</time>
      </trkpt>
      <trkpt lat="42.99831879325211048126220703125" lon="-4.74358378909528255462646484375">
        <ele>1818</ele>
        <time>2021-07-22T07:59:42.000Z</time>
      </trkpt>
      <trkpt lat="42.99836355261504650115966796875" lon="-4.743578173220157623291015625">
        <ele>1818.5999755859375</ele>
        <time>2021-07-22T07:59:46.000Z</time>
      </trkpt>
      <trkpt lat="42.998387105762958526611328125" lon="-4.74356702528893947601318359375">
        <ele>1819.4000244140625</ele>
        <time>2021-07-22T07:59:48.000Z</time>
      </trkpt>
      <trkpt lat="42.9983973316848278045654296875" lon="-4.74356082268059253692626953125">
        <ele>1819.5999755859375</ele>
        <time>2021-07-22T07:59:49.000Z</time>
      </trkpt>
      <trkpt lat="42.99846162088215351104736328125" lon="-4.7435297258198261260986328125">
        <ele>1820.800048828125</ele>
        <time>2021-07-22T07:59:54.000Z</time>
      </trkpt>
      <trkpt lat="42.99847302027046680450439453125" lon="-4.743526875972747802734375">
        <ele>1821.199951171875</ele>
        <time>2021-07-22T07:59:55.000Z</time>
      </trkpt>
      <trkpt lat="42.99848374910652637481689453125" lon="-4.7435226850211620330810546875">
        <ele>1821.4000244140625</ele>
        <time>2021-07-22T07:59:56.000Z</time>
      </trkpt>
      <trkpt lat="42.9985059611499309539794921875" lon="-4.74351011216640472412109375">
        <ele>1821.800048828125</ele>
        <time>2021-07-22T07:59:58.000Z</time>
      </trkpt>
      <trkpt lat="42.9985371418297290802001953125" lon="-4.74349477328360080718994140625">
        <ele>1822.4000244140625</ele>
        <time>2021-07-22T08:00:01.000Z</time>
      </trkpt>
      <trkpt lat="42.998558767139911651611328125" lon="-4.7434888221323490142822265625">
        <ele>1822.800048828125</ele>
        <time>2021-07-22T08:00:03.000Z</time>
      </trkpt>
      <trkpt lat="42.99861199222505092620849609375" lon="-4.7434847988188266754150390625">
        <ele>1824</ele>
        <time>2021-07-22T08:00:07.000Z</time>
      </trkpt>
      <trkpt lat="42.998638562858104705810546875" lon="-4.7434891574084758758544921875">
        <ele>1824.5999755859375</ele>
        <time>2021-07-22T08:00:09.000Z</time>
      </trkpt>
      <trkpt lat="42.99865297973155975341796875" lon="-4.74349259398877620697021484375">
        <ele>1824.800048828125</ele>
        <time>2021-07-22T08:00:10.000Z</time>
      </trkpt>
      <trkpt lat="42.998678795993328094482421875" lon="-4.74348689429461956024169921875">
        <ele>1825</ele>
        <time>2021-07-22T08:00:12.000Z</time>
      </trkpt>
      <trkpt lat="42.998750545084476470947265625" lon="-4.74348069168627262115478515625">
        <ele>1826</ele>
        <time>2021-07-22T08:00:17.000Z</time>
      </trkpt>
      <trkpt lat="42.99876403994858264923095703125" lon="-4.7434774227440357208251953125">
        <ele>1826.199951171875</ele>
        <time>2021-07-22T08:00:18.000Z</time>
      </trkpt>
      <trkpt lat="42.9988284967839717864990234375" lon="-4.74344414658844470977783203125">
        <ele>1827.5999755859375</ele>
        <time>2021-07-22T08:00:23.000Z</time>
      </trkpt>
      <trkpt lat="42.99883981235325336456298828125" lon="-4.74344280548393726348876953125">
        <ele>1828</ele>
        <time>2021-07-22T08:00:24.000Z</time>
      </trkpt>
      <trkpt lat="42.998861186206340789794921875" lon="-4.7434308193624019622802734375">
        <ele>1828.5999755859375</ele>
        <time>2021-07-22T08:00:26.000Z</time>
      </trkpt>
      <trkpt lat="42.99890913069248199462890625" lon="-4.74340642802417278289794921875">
        <ele>1829.800048828125</ele>
        <time>2021-07-22T08:00:30.000Z</time>
      </trkpt>
      <trkpt lat="42.9989582486450672149658203125" lon="-4.7433577291667461395263671875">
        <ele>1830.800048828125</ele>
        <time>2021-07-22T08:00:35.000Z</time>
      </trkpt>
      <trkpt lat="42.998966462910175323486328125" lon="-4.74334926344454288482666015625">
        <ele>1831.199951171875</ele>
        <time>2021-07-22T08:00:36.000Z</time>
      </trkpt>
      <trkpt lat="42.99900359474122524261474609375" lon="-4.74332596175372600555419921875">
        <ele>1832</ele>
        <time>2021-07-22T08:00:40.000Z</time>
      </trkpt>
      <trkpt lat="42.99900971353054046630859375" lon="-4.74331489764153957366943359375">
        <ele>1832.4000244140625</ele>
        <time>2021-07-22T08:00:43.000Z</time>
      </trkpt>
      <trkpt lat="42.9990162514150142669677734375" lon="-4.74332126788794994354248046875">
        <ele>1831.5999755859375</ele>
        <time>2021-07-22T08:00:49.000Z</time>
      </trkpt>
      <trkpt lat="42.999015748500823974609375" lon="-4.7433243691921234130859375">
        <ele>1831.5999755859375</ele>
        <time>2021-07-22T08:00:50.000Z</time>
      </trkpt>
      <trkpt lat="42.9990524612367153167724609375" lon="-4.74330701865255832672119140625">
        <ele>1832.5999755859375</ele>
        <time>2021-07-22T08:00:56.000Z</time>
      </trkpt>
      <trkpt lat="42.99909613095223903656005859375" lon="-4.74327675998210906982421875">
        <ele>1833.199951171875</ele>
        <time>2021-07-22T08:00:59.000Z</time>
      </trkpt>
      <trkpt lat="42.99915195442736148834228515625" lon="-4.7432678751647472381591796875">
        <ele>1834.199951171875</ele>
        <time>2021-07-22T08:01:03.000Z</time>
      </trkpt>
      <trkpt lat="42.99916452728211879730224609375" lon="-4.74326200783252716064453125">
        <ele>1834.5999755859375</ele>
        <time>2021-07-22T08:01:04.000Z</time>
      </trkpt>
      <trkpt lat="42.99920995719730854034423828125" lon="-4.743238873779773712158203125">
        <ele>1836</ele>
        <time>2021-07-22T08:01:08.000Z</time>
      </trkpt>
      <trkpt lat="42.9992496035993099212646484375" lon="-4.7432209365069866180419921875">
        <ele>1836.4000244140625</ele>
        <time>2021-07-22T08:01:11.000Z</time>
      </trkpt>
      <trkpt lat="42.9992844723165035247802734375" lon="-4.74320677109062671661376953125">
        <ele>1836.800048828125</ele>
        <time>2021-07-22T08:01:14.000Z</time>
      </trkpt>
      <trkpt lat="42.9993066005408763885498046875" lon="-4.7432031668722629547119140625">
        <ele>1837.199951171875</ele>
        <time>2021-07-22T08:01:16.000Z</time>
      </trkpt>
      <trkpt lat="42.99931950867176055908203125" lon="-4.74320165812969207763671875">
        <ele>1837.199951171875</ele>
        <time>2021-07-22T08:01:17.000Z</time>
      </trkpt>
      <trkpt lat="42.999432496726512908935546875" lon="-4.7431324236094951629638671875">
        <ele>1837.800048828125</ele>
        <time>2021-07-22T08:01:26.000Z</time>
      </trkpt>
      <trkpt lat="42.99944833852350711822509765625" lon="-4.74312362261116504669189453125">
        <ele>1838.4000244140625</ele>
        <time>2021-07-22T08:01:28.000Z</time>
      </trkpt>
      <trkpt lat="42.99947767518460750579833984375" lon="-4.7430921904742717742919921875">
        <ele>1838.800048828125</ele>
        <time>2021-07-22T08:01:31.000Z</time>
      </trkpt>
      <trkpt lat="42.9994873143732547760009765625" lon="-4.74308372475206851959228515625">
        <ele>1839.4000244140625</ele>
        <time>2021-07-22T08:01:32.000Z</time>
      </trkpt>
      <trkpt lat="42.99953232519328594207763671875" lon="-4.74305690266191959381103515625">
        <ele>1840</ele>
        <time>2021-07-22T08:01:37.000Z</time>
      </trkpt>
      <trkpt lat="42.999551855027675628662109375" lon="-4.743041060864925384521484375">
        <ele>1840.4000244140625</ele>
        <time>2021-07-22T08:01:39.000Z</time>
      </trkpt>
      <trkpt lat="42.99960625357925891876220703125" lon="-4.7430097125470638275146484375">
        <ele>1841</ele>
        <time>2021-07-22T08:01:44.000Z</time>
      </trkpt>
      <trkpt lat="42.9996690340340137481689453125" lon="-4.74297090433537960052490234375">
        <ele>1841.199951171875</ele>
        <time>2021-07-22T08:01:49.000Z</time>
      </trkpt>
      <trkpt lat="42.999680936336517333984375" lon="-4.74296788685023784637451171875">
        <ele>1841.4000244140625</ele>
        <time>2021-07-22T08:01:50.000Z</time>
      </trkpt>
      <trkpt lat="42.99973499961197376251220703125" lon="-4.74295062012970447540283203125">
        <ele>1842.800048828125</ele>
        <time>2021-07-22T08:01:54.000Z</time>
      </trkpt>
      <trkpt lat="42.99974706955254077911376953125" lon="-4.74294777028262615203857421875">
        <ele>1843</ele>
        <time>2021-07-22T08:01:55.000Z</time>
      </trkpt>
      <trkpt lat="42.99979627132415771484375" lon="-4.7429507039487361907958984375">
        <ele>1843.800048828125</ele>
        <time>2021-07-22T08:02:01.000Z</time>
      </trkpt>
      <trkpt lat="42.99976743757724761962890625" lon="-4.742955900728702545166015625">
        <ele>1843.4000244140625</ele>
        <time>2021-07-22T08:02:10.000Z</time>
      </trkpt>
      <trkpt lat="42.99977456219494342803955078125" lon="-4.742951206862926483154296875">
        <ele>1843.5999755859375</ele>
        <time>2021-07-22T08:02:15.000Z</time>
      </trkpt>
      <trkpt lat="42.99980658106505870819091796875" lon="-4.7429515421390533447265625">
        <ele>1843.800048828125</ele>
        <time>2021-07-22T08:02:21.000Z</time>
      </trkpt>
      <trkpt lat="42.9998584650456905364990234375" lon="-4.74293720908463001251220703125">
        <ele>1844</ele>
        <time>2021-07-22T08:02:25.000Z</time>
      </trkpt>
      <trkpt lat="42.99989090301096439361572265625" lon="-4.7429322637617588043212890625">
        <ele>1844.199951171875</ele>
        <time>2021-07-22T08:02:27.000Z</time>
      </trkpt>
      <trkpt lat="42.999944128096103668212890625" lon="-4.74292941391468048095703125">
        <ele>1845.199951171875</ele>
        <time>2021-07-22T08:02:30.000Z</time>
      </trkpt>
      <trkpt lat="43.00000808201730251312255859375" lon="-4.74291994236409664154052734375">
        <ele>1846.4000244140625</ele>
        <time>2021-07-22T08:02:33.000Z</time>
      </trkpt>
      <trkpt lat="43.00008821301162242889404296875" lon="-4.74288247525691986083984375">
        <ele>1847.4000244140625</ele>
        <time>2021-07-22T08:02:37.000Z</time>
      </trkpt>
      <trkpt lat="43.0001062341034412384033203125" lon="-4.7428695671260356903076171875">
        <ele>1847.800048828125</ele>
        <time>2021-07-22T08:02:38.000Z</time>
      </trkpt>
      <trkpt lat="43.00012341700494289398193359375" lon="-4.7428601793944835662841796875">
        <ele>1848</ele>
        <time>2021-07-22T08:02:39.000Z</time>
      </trkpt>
      <trkpt lat="43.00017555244266986846923828125" lon="-4.74282254464924335479736328125">
        <ele>1849.199951171875</ele>
        <time>2021-07-22T08:02:42.000Z</time>
      </trkpt>
      <trkpt lat="43.00019315443933010101318359375" lon="-4.7428065352141857147216796875">
        <ele>1849.5999755859375</ele>
        <time>2021-07-22T08:02:43.000Z</time>
      </trkpt>
      <trkpt lat="43.00024797208607196807861328125" lon="-4.74276437424123287200927734375">
        <ele>1850.5999755859375</ele>
        <time>2021-07-22T08:02:46.000Z</time>
      </trkpt>
      <trkpt lat="43.00029038451611995697021484375" lon="-4.7427411563694477081298828125">
        <ele>1852</ele>
        <time>2021-07-22T08:02:48.000Z</time>
      </trkpt>
      <trkpt lat="43.00034570507705211639404296875" lon="-4.74268223159015178680419921875">
        <ele>1853.199951171875</ele>
        <time>2021-07-22T08:02:52.000Z</time>
      </trkpt>
      <trkpt lat="43.0003516562283039093017578125" lon="-4.74266228266060352325439453125">
        <ele>1853.199951171875</ele>
        <time>2021-07-22T08:02:53.000Z</time>
      </trkpt>
      <trkpt lat="43.0003503151237964630126953125" lon="-4.7426331974565982818603515625">
        <ele>1853.800048828125</ele>
        <time>2021-07-22T08:02:55.000Z</time>
      </trkpt>
      <trkpt lat="43.0003338865935802459716796875" lon="-4.7426348738372325897216796875">
        <ele>1854</ele>
        <time>2021-07-22T08:02:58.000Z</time>
      </trkpt>
      <trkpt lat="43.0003255046904087066650390625" lon="-4.742643423378467559814453125">
        <ele>1854.199951171875</ele>
        <time>2021-07-22T08:03:00.000Z</time>
      </trkpt>
      <trkpt lat="43.00031284801661968231201171875" lon="-4.74263931624591350555419921875">
        <ele>1854.5999755859375</ele>
        <time>2021-07-22T08:03:04.000Z</time>
      </trkpt>
      <trkpt lat="43.00030999816954135894775390625" lon="-4.742625653743743896484375">
        <ele>1855</ele>
        <time>2021-07-22T08:03:08.000Z</time>
      </trkpt>
      <trkpt lat="43.00031192600727081298828125" lon="-4.74262473173439502716064453125">
        <ele>1855.199951171875</ele>
        <time>2021-07-22T08:03:12.000Z</time>
      </trkpt>
      <trkpt lat="43.00031326711177825927734375" lon="-4.7426269948482513427734375">
        <ele>1855.4000244140625</ele>
        <time>2021-07-22T08:03:15.000Z</time>
      </trkpt>
      <trkpt lat="43.00031569786369800567626953125" lon="-4.7426278330385684967041015625">
        <ele>1854.800048828125</ele>
        <time>2021-07-22T08:03:18.000Z</time>
      </trkpt>
      <trkpt lat="43.00031997263431549072265625" lon="-4.742632694542407989501953125">
        <ele>1854.800048828125</ele>
        <time>2021-07-22T08:03:22.000Z</time>
      </trkpt>
      <trkpt lat="43.00032055936753749847412109375" lon="-4.742633365094661712646484375">
        <ele>1854.800048828125</ele>
        <time>2021-07-22T08:03:23.000Z</time>
      </trkpt>
      <trkpt lat="43.000324331223964691162109375" lon="-4.74263495765626430511474609375">
        <ele>1854.800048828125</ele>
        <time>2021-07-22T08:03:26.000Z</time>
      </trkpt>
      <trkpt lat="43.000324331223964691162109375" lon="-4.7426321916282176971435546875">
        <ele>1854.5999755859375</ele>
        <time>2021-07-22T08:03:28.000Z</time>
      </trkpt>
      <trkpt lat="43.00031888298690319061279296875" lon="-4.74262841977179050445556640625">
        <ele>1854.5999755859375</ele>
        <time>2021-07-22T08:03:30.000Z</time>
      </trkpt>
      <trkpt lat="43.00031351856887340545654296875" lon="-4.7426271624863147735595703125">
        <ele>1854.5999755859375</ele>
        <time>2021-07-22T08:03:33.000Z</time>
      </trkpt>
      <trkpt lat="43.00031385384500026702880859375" lon="-4.7426150925457477569580078125">
        <ele>1854.5999755859375</ele>
        <time>2021-07-22T08:03:35.000Z</time>
      </trkpt>
      <trkpt lat="43.00030631013214588165283203125" lon="-4.742631353437900543212890625">
        <ele>1854.5999755859375</ele>
        <time>2021-07-22T08:03:44.000Z</time>
      </trkpt>
      <trkpt lat="43.00030924379825592041015625" lon="-4.74263093434274196624755859375">
        <ele>1854.5999755859375</ele>
        <time>2021-07-22T08:03:45.000Z</time>
      </trkpt>
      <trkpt lat="43.00031217746436595916748046875" lon="-4.74263126961886882781982421875">
        <ele>1854.800048828125</ele>
        <time>2021-07-22T08:03:52.000Z</time>
      </trkpt>
      <trkpt lat="43.00030832178890705108642578125" lon="-4.74264434538781642913818359375">
        <ele>1855</ele>
        <time>2021-07-22T08:03:56.000Z</time>
      </trkpt>
      <trkpt lat="43.00033614970743656158447265625" lon="-4.7426404058933258056640625">
        <ele>1855</ele>
        <time>2021-07-22T08:04:05.000Z</time>
      </trkpt>
      <trkpt lat="43.00036096014082431793212890625" lon="-4.742632023990154266357421875">
        <ele>1855</ele>
        <time>2021-07-22T08:04:17.000Z</time>
      </trkpt>
      <trkpt lat="43.0003543384373188018798828125" lon="-4.74262825213372707366943359375">
        <ele>1855.199951171875</ele>
        <time>2021-07-22T08:04:21.000Z</time>
      </trkpt>
      <trkpt lat="43.00034771673381328582763671875" lon="-4.74263495765626430511474609375">
        <ele>1855</ele>
        <time>2021-07-22T08:04:26.000Z</time>
      </trkpt>
      <trkpt lat="43.0003737844526767730712890625" lon="-4.74265071563422679901123046875">
        <ele>1855</ele>
        <time>2021-07-22T08:04:33.000Z</time>
      </trkpt>
      <trkpt lat="43.000437654554843902587890625" lon="-4.7426372207701206207275390625">
        <ele>1854.800048828125</ele>
        <time>2021-07-22T08:04:38.000Z</time>
      </trkpt>
      <trkpt lat="43.00051535479724407196044921875" lon="-4.74259673617780208587646484375">
        <ele>1856.5999755859375</ele>
        <time>2021-07-22T08:04:42.000Z</time>
      </trkpt>
      <trkpt lat="43.00061744637787342071533203125" lon="-4.74254091270267963409423828125">
        <ele>1857.5999755859375</ele>
        <time>2021-07-22T08:04:46.000Z</time>
      </trkpt>
      <trkpt lat="43.00064041279256343841552734375" lon="-4.74252850748598575592041015625">
        <ele>1857.800048828125</ele>
        <time>2021-07-22T08:04:47.000Z</time>
      </trkpt>
      <trkpt lat="43.000702522695064544677734375" lon="-4.7425168566405773162841796875">
        <ele>1859</ele>
        <time>2021-07-22T08:04:50.000Z</time>
      </trkpt>
      <trkpt lat="43.00074183382093906402587890625" lon="-4.7425007633864879608154296875">
        <ele>1860.199951171875</ele>
        <time>2021-07-22T08:04:52.000Z</time>
      </trkpt>
      <trkpt lat="43.00081090070307254791259765625" lon="-4.7424930520355701446533203125">
        <ele>1860.4000244140625</ele>
        <time>2021-07-22T08:04:56.000Z</time>
      </trkpt>
      <trkpt lat="43.00083051435649394989013671875" lon="-4.742488525807857513427734375">
        <ele>1861.199951171875</ele>
        <time>2021-07-22T08:04:57.000Z</time>
      </trkpt>
      <trkpt lat="43.00084928981959819793701171875" lon="-4.74249866791069507598876953125">
        <ele>1861.4000244140625</ele>
        <time>2021-07-22T08:04:58.000Z</time>
      </trkpt>
      <trkpt lat="43.00091131590306758880615234375" lon="-4.74250822328031063079833984375">
        <ele>1862.4000244140625</ele>
        <time>2021-07-22T08:05:01.000Z</time>
      </trkpt>
      <trkpt lat="43.00095423124730587005615234375" lon="-4.74249313585460186004638671875">
        <ele>1863.199951171875</ele>
        <time>2021-07-22T08:05:03.000Z</time>
      </trkpt>
      <trkpt lat="43.00097468309104442596435546875" lon="-4.742484502494335174560546875">
        <ele>1863.5999755859375</ele>
        <time>2021-07-22T08:05:04.000Z</time>
      </trkpt>
      <trkpt lat="43.00101466476917266845703125" lon="-4.742472432553768157958984375">
        <ele>1864.5999755859375</ele>
        <time>2021-07-22T08:05:06.000Z</time>
      </trkpt>
      <trkpt lat="43.00103344023227691650390625" lon="-4.7424702532589435577392578125">
        <ele>1864.800048828125</ele>
        <time>2021-07-22T08:05:07.000Z</time>
      </trkpt>
      <trkpt lat="43.00107342191040515899658203125" lon="-4.74246807396411895751953125">
        <ele>1865.800048828125</ele>
        <time>2021-07-22T08:05:09.000Z</time>
      </trkpt>
      <trkpt lat="43.0011315084993839263916015625" lon="-4.74245944060385227203369140625">
        <ele>1866.800048828125</ele>
        <time>2021-07-22T08:05:12.000Z</time>
      </trkpt>
      <trkpt lat="43.00114969722926616668701171875" lon="-4.74245332181453704833984375">
        <ele>1867</ele>
        <time>2021-07-22T08:05:13.000Z</time>
      </trkpt>
      <trkpt lat="43.00118439830839633941650390625" lon="-4.7424430958926677703857421875">
        <ele>1867.4000244140625</ele>
        <time>2021-07-22T08:05:15.000Z</time>
      </trkpt>
      <trkpt lat="43.00121893174946308135986328125" lon="-4.742444939911365509033203125">
        <ele>1868.4000244140625</ele>
        <time>2021-07-22T08:05:17.000Z</time>
      </trkpt>
      <trkpt lat="43.00127618014812469482421875" lon="-4.74243588745594024658203125">
        <ele>1869.4000244140625</ele>
        <time>2021-07-22T08:05:20.000Z</time>
      </trkpt>
      <trkpt lat="43.0012914352118968963623046875" lon="-4.74242909811437129974365234375">
        <ele>1869.5999755859375</ele>
        <time>2021-07-22T08:05:21.000Z</time>
      </trkpt>
      <trkpt lat="43.0013363622128963470458984375" lon="-4.74242172203958034515380859375">
        <ele>1870.800048828125</ele>
        <time>2021-07-22T08:05:25.000Z</time>
      </trkpt>
      <trkpt lat="43.001391850411891937255859375" lon="-4.74240680225193500518798828125">
        <ele>1871.4000244140625</ele>
        <time>2021-07-22T08:05:30.000Z</time>
      </trkpt>
      <trkpt lat="43.00141473300755023956298828125" lon="-4.74240546114742755889892578125">
        <ele>1871.800048828125</ele>
        <time>2021-07-22T08:05:32.000Z</time>
      </trkpt>
      <trkpt lat="43.0014587379992008209228515625" lon="-4.7424137592315673828125">
        <ele>1872.4000244140625</ele>
        <time>2021-07-22T08:05:35.000Z</time>
      </trkpt>
      <trkpt lat="43.00150416791439056396484375" lon="-4.74239456467330455780029296875">
        <ele>1873</ele>
        <time>2021-07-22T08:05:39.000Z</time>
      </trkpt>
      <trkpt lat="43.0015231110155582427978515625" lon="-4.74238517694175243377685546875">
        <ele>1873.199951171875</ele>
        <time>2021-07-22T08:05:41.000Z</time>
      </trkpt>
      <trkpt lat="43.00155789591372013092041015625" lon="-4.74237553775310516357421875">
        <ele>1874</ele>
        <time>2021-07-22T08:05:44.000Z</time>
      </trkpt>
      <trkpt lat="43.00156795419752597808837890625" lon="-4.7423746995627880096435546875">
        <ele>1874.800048828125</ele>
        <time>2021-07-22T08:05:45.000Z</time>
      </trkpt>
      <trkpt lat="43.0015784315764904022216796875" lon="-4.7423767112195491790771484375">
        <ele>1875.199951171875</ele>
        <time>2021-07-22T08:05:46.000Z</time>
      </trkpt>
      <trkpt lat="43.0016173236072063446044921875" lon="-4.7423951514065265655517578125">
        <ele>1875.5999755859375</ele>
        <time>2021-07-22T08:05:49.000Z</time>
      </trkpt>
      <trkpt lat="43.0016295611858367919921875" lon="-4.742395319044589996337890625">
        <ele>1876.199951171875</ele>
        <time>2021-07-22T08:05:50.000Z</time>
      </trkpt>
      <trkpt lat="43.00166920758783817291259765625" lon="-4.7423824109137058258056640625">
        <ele>1877.199951171875</ele>
        <time>2021-07-22T08:05:53.000Z</time>
      </trkpt>
      <trkpt lat="43.0017048306763172149658203125" lon="-4.742350392043590545654296875">
        <ele>1878.5999755859375</ele>
        <time>2021-07-22T08:05:57.000Z</time>
      </trkpt>
      <trkpt lat="43.001710362732410430908203125" lon="-4.7423515655100345611572265625">
        <ele>1878.800048828125</ele>
        <time>2021-07-22T08:05:58.000Z</time>
      </trkpt>
      <trkpt lat="43.0017567984759807586669921875" lon="-4.7423606179654598236083984375">
        <ele>1879.4000244140625</ele>
        <time>2021-07-22T08:06:02.000Z</time>
      </trkpt>
      <trkpt lat="43.00176694057881832122802734375" lon="-4.7423529066145420074462890625">
        <ele>1879.5999755859375</ele>
        <time>2021-07-22T08:06:03.000Z</time>
      </trkpt>
      <trkpt lat="43.0017765797674655914306640625" lon="-4.74235265515744686126708984375">
        <ele>1879.800048828125</ele>
        <time>2021-07-22T08:06:04.000Z</time>
      </trkpt>
      <trkpt lat="43.0017930082976818084716796875" lon="-4.7423572652041912078857421875">
        <ele>1880.199951171875</ele>
        <time>2021-07-22T08:06:06.000Z</time>
      </trkpt>
      <trkpt lat="43.00180885009467601776123046875" lon="-4.74236547946929931640625">
        <ele>1881</ele>
        <time>2021-07-22T08:06:08.000Z</time>
      </trkpt>
      <trkpt lat="43.00183533690869808197021484375" lon="-4.742388613522052764892578125">
        <ele>1881.800048828125</ele>
        <time>2021-07-22T08:06:11.000Z</time>
      </trkpt>
      <trkpt lat="43.00184204243123531341552734375" lon="-4.74239003844559192657470703125">
        <ele>1882</ele>
        <time>2021-07-22T08:06:12.000Z</time>
      </trkpt>
      <trkpt lat="43.0019073374569416046142578125" lon="-4.74241501651704311370849609375">
        <ele>1882.199951171875</ele>
        <time>2021-07-22T08:06:17.000Z</time>
      </trkpt>
      <trkpt lat="43.001929633319377899169921875" lon="-4.74241334013640880584716796875">
        <ele>1882.800048828125</ele>
        <time>2021-07-22T08:06:19.000Z</time>
      </trkpt>
      <trkpt lat="43.00194346345961093902587890625" lon="-4.74240696988999843597412109375">
        <ele>1883.199951171875</ele>
        <time>2021-07-22T08:06:20.000Z</time>
      </trkpt>
      <trkpt lat="43.001979254186153411865234375" lon="-4.74239188246428966522216796875">
        <ele>1884.199951171875</ele>
        <time>2021-07-22T08:06:23.000Z</time>
      </trkpt>
      <trkpt lat="43.002020157873630523681640625" lon="-4.74239171482622623443603515625">
        <ele>1884.800048828125</ele>
        <time>2021-07-22T08:06:26.000Z</time>
      </trkpt>
      <trkpt lat="43.0020471476018428802490234375" lon="-4.742391295731067657470703125">
        <ele>1885</ele>
        <time>2021-07-22T08:06:28.000Z</time>
      </trkpt>
      <trkpt lat="43.0020642466843128204345703125" lon="-4.74239121191203594207763671875">
        <ele>1885.5999755859375</ele>
        <time>2021-07-22T08:06:29.000Z</time>
      </trkpt>
      <trkpt lat="43.00207614898681640625" lon="-4.74238836206495761871337890625">
        <ele>1886</ele>
        <time>2021-07-22T08:06:30.000Z</time>
      </trkpt>
      <trkpt lat="43.00210204906761646270751953125" lon="-4.7423934750258922576904296875">
        <ele>1886.4000244140625</ele>
        <time>2021-07-22T08:06:32.000Z</time>
      </trkpt>
      <trkpt lat="43.00215049646794795989990234375" lon="-4.74238903261721134185791015625">
        <ele>1886.5999755859375</ele>
        <time>2021-07-22T08:06:36.000Z</time>
      </trkpt>
      <trkpt lat="43.0021614767611026763916015625" lon="-4.742383249104022979736328125">
        <ele>1886.800048828125</ele>
        <time>2021-07-22T08:06:37.000Z</time>
      </trkpt>
      <trkpt lat="43.00218670628964900970458984375" lon="-4.74236153997480869293212890625">
        <ele>1887.4000244140625</ele>
        <time>2021-07-22T08:06:41.000Z</time>
      </trkpt>
      <trkpt lat="43.002194501459598541259765625" lon="-4.7423609532415866851806640625">
        <ele>1887.5999755859375</ele>
        <time>2021-07-22T08:06:42.000Z</time>
      </trkpt>
      <trkpt lat="43.00222031772136688232421875" lon="-4.74236153997480869293212890625">
        <ele>1887.800048828125</ele>
        <time>2021-07-22T08:06:44.000Z</time>
      </trkpt>
      <trkpt lat="43.002232722938060760498046875" lon="-4.7423602826893329620361328125">
        <ele>1888</ele>
        <time>2021-07-22T08:06:45.000Z</time>
      </trkpt>
      <trkpt lat="43.0022466368973255157470703125" lon="-4.742360450327396392822265625">
        <ele>1888.199951171875</ele>
        <time>2021-07-22T08:06:46.000Z</time>
      </trkpt>
      <trkpt lat="43.0022935755550861358642578125" lon="-4.7423810698091983795166015625">
        <ele>1888.5999755859375</ele>
        <time>2021-07-22T08:06:50.000Z</time>
      </trkpt>
      <trkpt lat="43.00231595523655414581298828125" lon="-4.742393307387828826904296875">
        <ele>1889</ele>
        <time>2021-07-22T08:06:52.000Z</time>
      </trkpt>
      <trkpt lat="43.00234227441251277923583984375" lon="-4.74240210838615894317626953125">
        <ele>1889.5999755859375</ele>
        <time>2021-07-22T08:06:54.000Z</time>
      </trkpt>
      <trkpt lat="43.0023753829300403594970703125" lon="-4.74240747280418872833251953125">
        <ele>1890.199951171875</ele>
        <time>2021-07-22T08:06:56.000Z</time>
      </trkpt>
      <trkpt lat="43.00241704098880290985107421875" lon="-4.7424135915935039520263671875">
        <ele>1890.5999755859375</ele>
        <time>2021-07-22T08:06:58.000Z</time>
      </trkpt>
      <trkpt lat="43.00251125358045101165771484375" lon="-4.74244125187397003173828125">
        <ele>1891.4000244140625</ele>
        <time>2021-07-22T08:07:02.000Z</time>
      </trkpt>
      <trkpt lat="43.002534806728363037109375" lon="-4.74244452081620693206787109375">
        <ele>1891.4000244140625</ele>
        <time>2021-07-22T08:07:03.000Z</time>
      </trkpt>
      <trkpt lat="43.00262935459613800048828125" lon="-4.7424977459013462066650390625">
        <ele>1892.199951171875</ele>
        <time>2021-07-22T08:07:08.000Z</time>
      </trkpt>
      <trkpt lat="43.0026496388018131256103515625" lon="-4.742509983479976654052734375">
        <ele>1892.5999755859375</ele>
        <time>2021-07-22T08:07:09.000Z</time>
      </trkpt>
      <trkpt lat="43.0027346312999725341796875" lon="-4.7425413317978382110595703125">
        <ele>1893.4000244140625</ele>
        <time>2021-07-22T08:07:13.000Z</time>
      </trkpt>
      <trkpt lat="43.002779223024845123291015625" lon="-4.7425607778131961822509765625">
        <ele>1894.199951171875</ele>
        <time>2021-07-22T08:07:15.000Z</time>
      </trkpt>
      <trkpt lat="43.0028360523283481597900390625" lon="-4.7426026873290538787841796875">
        <ele>1895.199951171875</ele>
        <time>2021-07-22T08:07:18.000Z</time>
      </trkpt>
      <trkpt lat="43.00290486775338649749755859375" lon="-4.74263126961886882781982421875">
        <ele>1896.199951171875</ele>
        <time>2021-07-22T08:07:22.000Z</time>
      </trkpt>
      <trkpt lat="43.00293303094804286956787109375" lon="-4.7426318563520908355712890625">
        <ele>1896.4000244140625</ele>
        <time>2021-07-22T08:07:24.000Z</time>
      </trkpt>
      <trkpt lat="43.00296597182750701904296875" lon="-4.742644764482975006103515625">
        <ele>1897.4000244140625</ele>
        <time>2021-07-22T08:07:27.000Z</time>
      </trkpt>
      <trkpt lat="43.00298801623284816741943359375" lon="-4.74265960045158863067626953125">
        <ele>1897.800048828125</ele>
        <time>2021-07-22T08:07:29.000Z</time>
      </trkpt>
      <trkpt lat="43.00301668234169483184814453125" lon="-4.74267016164958477020263671875">
        <ele>1898.4000244140625</ele>
        <time>2021-07-22T08:07:31.000Z</time>
      </trkpt>
      <trkpt lat="43.00305808894336223602294921875" lon="-4.74268876947462558746337890625">
        <ele>1899.4000244140625</ele>
        <time>2021-07-22T08:07:34.000Z</time>
      </trkpt>
      <trkpt lat="43.00312648527324199676513671875" lon="-4.742717854678630828857421875">
        <ele>1900.4000244140625</ele>
        <time>2021-07-22T08:07:38.000Z</time>
      </trkpt>
      <trkpt lat="43.0031505413353443145751953125" lon="-4.7427210398018360137939453125">
        <ele>1900.800048828125</ele>
        <time>2021-07-22T08:07:40.000Z</time>
      </trkpt>
      <trkpt lat="43.0032142437994480133056640625" lon="-4.742750041186809539794921875">
        <ele>1901.4000244140625</ele>
        <time>2021-07-22T08:07:45.000Z</time>
      </trkpt>
      <trkpt lat="43.00324198789894580841064453125" lon="-4.7427673079073429107666015625">
        <ele>1901.800048828125</ele>
        <time>2021-07-22T08:07:47.000Z</time>
      </trkpt>
      <trkpt lat="43.00325372256338596343994140625" lon="-4.74277124740183353424072265625">
        <ele>1902</ele>
        <time>2021-07-22T08:07:48.000Z</time>
      </trkpt>
      <trkpt lat="43.00328372977674007415771484375" lon="-4.74279035814106464385986328125">
        <ele>1902.800048828125</ele>
        <time>2021-07-22T08:07:51.000Z</time>
      </trkpt>
      <trkpt lat="43.00329387187957763671875" lon="-4.742799662053585052490234375">
        <ele>1903</ele>
        <time>2021-07-22T08:07:52.000Z</time>
      </trkpt>
      <trkpt lat="43.00335447303950786590576171875" lon="-4.74280896596610546112060546875">
        <ele>1904</ele>
        <time>2021-07-22T08:07:57.000Z</time>
      </trkpt>
      <trkpt lat="43.00339118577539920806884765625" lon="-4.74279521964490413665771484375">
        <ele>1904.800048828125</ele>
        <time>2021-07-22T08:08:00.000Z</time>
      </trkpt>
      <trkpt lat="43.0034013278782367706298828125" lon="-4.7427894361317157745361328125">
        <ele>1905.4000244140625</ele>
        <time>2021-07-22T08:08:01.000Z</time>
      </trkpt>
      <trkpt lat="43.00342328846454620361328125" lon="-4.7427709959447383880615234375">
        <ele>1906</ele>
        <time>2021-07-22T08:08:03.000Z</time>
      </trkpt>
      <trkpt lat="43.00344348885118961334228515625" lon="-4.742754399776458740234375">
        <ele>1906.5999755859375</ele>
        <time>2021-07-22T08:08:05.000Z</time>
      </trkpt>
      <trkpt lat="43.00345270894467830657958984375" lon="-4.74275263957679271697998046875">
        <ele>1907.199951171875</ele>
        <time>2021-07-22T08:08:06.000Z</time>
      </trkpt>
      <trkpt lat="43.003473244607448577880859375" lon="-4.74275884218513965606689453125">
        <ele>1907.800048828125</ele>
        <time>2021-07-22T08:08:08.000Z</time>
      </trkpt>
      <trkpt lat="43.00348137505352497100830078125" lon="-4.74275381304323673248291015625">
        <ele>1908</ele>
        <time>2021-07-22T08:08:09.000Z</time>
      </trkpt>
      <trkpt lat="43.00350870005786418914794921875" lon="-4.74272766150534152984619140625">
        <ele>1908.800048828125</ele>
        <time>2021-07-22T08:08:12.000Z</time>
      </trkpt>
      <trkpt lat="43.0035285651683807373046875" lon="-4.74271886050701141357421875">
        <ele>1909</ele>
        <time>2021-07-22T08:08:14.000Z</time>
      </trkpt>
      <trkpt lat="43.0035364441573619842529296875" lon="-4.7427123226225376129150390625">
        <ele>1909.199951171875</ele>
        <time>2021-07-22T08:08:15.000Z</time>
      </trkpt>
      <trkpt lat="43.00355144776403903961181640625" lon="-4.7426972351968288421630859375">
        <ele>1910</ele>
        <time>2021-07-22T08:08:17.000Z</time>
      </trkpt>
      <trkpt lat="43.003576509654521942138671875" lon="-4.74267384968698024749755859375">
        <ele>1911.199951171875</ele>
        <time>2021-07-22T08:08:20.000Z</time>
      </trkpt>
      <trkpt lat="43.00360190682113170623779296875" lon="-4.7426392324268817901611328125">
        <ele>1912.4000244140625</ele>
        <time>2021-07-22T08:08:26.000Z</time>
      </trkpt>
      <trkpt lat="43.00360928289592266082763671875" lon="-4.74262556992471218109130859375">
        <ele>1912.5999755859375</ele>
        <time>2021-07-22T08:08:27.000Z</time>
      </trkpt>
      <trkpt lat="43.0036407150328159332275390625" lon="-4.74259086884558200836181640625">
        <ele>1913.5999755859375</ele>
        <time>2021-07-22T08:08:31.000Z</time>
      </trkpt>
      <trkpt lat="43.0036594904959201812744140625" lon="-4.74259623326361179351806640625">
        <ele>1914.199951171875</ele>
        <time>2021-07-22T08:08:33.000Z</time>
      </trkpt>
      <trkpt lat="43.00367918796837329864501953125" lon="-4.7426063753664493560791015625">
        <ele>1914.5999755859375</ele>
        <time>2021-07-22T08:08:35.000Z</time>
      </trkpt>
      <trkpt lat="43.00369025208055973052978515625" lon="-4.7426053695380687713623046875">
        <ele>1914.800048828125</ele>
        <time>2021-07-22T08:08:36.000Z</time>
      </trkpt>
      <trkpt lat="43.003728054463863372802734375" lon="-4.7426040284335613250732421875">
        <ele>1915.199951171875</ele>
        <time>2021-07-22T08:08:39.000Z</time>
      </trkpt>
      <trkpt lat="43.00375445745885372161865234375" lon="-4.74259707145392894744873046875">
        <ele>1916</ele>
        <time>2021-07-22T08:08:41.000Z</time>
      </trkpt>
      <trkpt lat="43.00377708859741687774658203125" lon="-4.742589108645915985107421875">
        <ele>1916.5999755859375</ele>
        <time>2021-07-22T08:08:43.000Z</time>
      </trkpt>
      <trkpt lat="43.00379888154566287994384765625" lon="-4.7425902821123600006103515625">
        <ele>1917.199951171875</ele>
        <time>2021-07-22T08:08:45.000Z</time>
      </trkpt>
      <trkpt lat="43.00382888875901699066162109375" lon="-4.74256991408765316009521484375">
        <ele>1917.800048828125</ele>
        <time>2021-07-22T08:08:48.000Z</time>
      </trkpt>
      <trkpt lat="43.0038415454328060150146484375" lon="-4.74257594905793666839599609375">
        <ele>1918.5999755859375</ele>
        <time>2021-07-22T08:08:49.000Z</time>
      </trkpt>
      <trkpt lat="43.00385386683046817779541015625" lon="-4.7425572574138641357421875">
        <ele>1919.4000244140625</ele>
        <time>2021-07-22T08:08:52.000Z</time>
      </trkpt>
      <trkpt lat="43.0038586445152759552001953125" lon="-4.742551557719707489013671875">
        <ele>1919.5999755859375</ele>
        <time>2021-07-22T08:08:53.000Z</time>
      </trkpt>
      <trkpt lat="43.00388102419674396514892578125" lon="-4.74252842366695404052734375">
        <ele>1920.199951171875</ele>
        <time>2021-07-22T08:08:56.000Z</time>
      </trkpt>
      <trkpt lat="43.00390231423079967498779296875" lon="-4.7425145097076892852783203125">
        <ele>1920.800048828125</ele>
        <time>2021-07-22T08:08:58.000Z</time>
      </trkpt>
      <trkpt lat="43.00392310135066509246826171875" lon="-4.742491208016872406005859375">
        <ele>1921.4000244140625</ele>
        <time>2021-07-22T08:09:00.000Z</time>
      </trkpt>
      <trkpt lat="43.0039427988231182098388671875" lon="-4.7424836643040180206298828125">
        <ele>1921.800048828125</ele>
        <time>2021-07-22T08:09:02.000Z</time>
      </trkpt>
      <trkpt lat="43.0039469897747039794921875" lon="-4.74247469566762447357177734375">
        <ele>1922</ele>
        <time>2021-07-22T08:09:03.000Z</time>
      </trkpt>
      <trkpt lat="43.00394573248922824859619140625" lon="-4.7424719296395778656005859375">
        <ele>1922</ele>
        <time>2021-07-22T08:09:05.000Z</time>
      </trkpt>
      <trkpt lat="43.00394187681376934051513671875" lon="-4.74249045364558696746826171875">
        <ele>1922</ele>
        <time>2021-07-22T08:09:10.000Z</time>
      </trkpt>
      <trkpt lat="43.00392645411193370819091796875" lon="-4.74249422550201416015625">
        <ele>1922</ele>
        <time>2021-07-22T08:09:15.000Z</time>
      </trkpt>
      <trkpt lat="43.0039267055690288543701171875" lon="-4.74248609505593776702880859375">
        <ele>1922</ele>
        <time>2021-07-22T08:09:16.000Z</time>
      </trkpt>
      <trkpt lat="43.0039389431476593017578125" lon="-4.74247704260051250457763671875">
        <ele>1922</ele>
        <time>2021-07-22T08:09:20.000Z</time>
      </trkpt>
      <trkpt lat="43.0039541982114315032958984375" lon="-4.74245809949934482574462890625">
        <ele>1922.199951171875</ele>
        <time>2021-07-22T08:09:22.000Z</time>
      </trkpt>
      <trkpt lat="43.00397590734064579010009765625" lon="-4.74244837649166584014892578125">
        <ele>1923</ele>
        <time>2021-07-22T08:09:24.000Z</time>
      </trkpt>
      <trkpt lat="43.0039934255182743072509765625" lon="-4.7424424253404140472412109375">
        <ele>1923.4000244140625</ele>
        <time>2021-07-22T08:09:26.000Z</time>
      </trkpt>
      <trkpt lat="43.004007004201412200927734375" lon="-4.74244602955877780914306640625">
        <ele>1924.4000244140625</ele>
        <time>2021-07-22T08:09:28.000Z</time>
      </trkpt>
      <trkpt lat="43.0040282942354679107666015625" lon="-4.74244452081620693206787109375">
        <ele>1925</ele>
        <time>2021-07-22T08:09:30.000Z</time>
      </trkpt>
      <trkpt lat="43.00404530949890613555908203125" lon="-4.742428176105022430419921875">
        <ele>1925.5999755859375</ele>
        <time>2021-07-22T08:09:32.000Z</time>
      </trkpt>
      <trkpt lat="43.0040678568184375762939453125" lon="-4.74242188967764377593994140625">
        <ele>1926.199951171875</ele>
        <time>2021-07-22T08:09:34.000Z</time>
      </trkpt>
      <trkpt lat="43.00409920513629913330078125" lon="-4.74240864627063274383544921875">
        <ele>1926.5999755859375</ele>
        <time>2021-07-22T08:09:37.000Z</time>
      </trkpt>
      <trkpt lat="43.00410901196300983428955078125" lon="-4.7423961572349071502685546875">
        <ele>1927</ele>
        <time>2021-07-22T08:09:38.000Z</time>
      </trkpt>
      <trkpt lat="43.0041347444057464599609375" lon="-4.74238584749400615692138671875">
        <ele>1927.4000244140625</ele>
        <time>2021-07-22T08:09:40.000Z</time>
      </trkpt>
      <trkpt lat="43.00414538942277431488037109375" lon="-4.74237327463924884796142578125">
        <ele>1927.4000244140625</ele>
        <time>2021-07-22T08:09:41.000Z</time>
      </trkpt>
      <trkpt lat="43.00416466780006885528564453125" lon="-4.74234008230268955230712890625">
        <ele>1927.5999755859375</ele>
        <time>2021-07-22T08:09:43.000Z</time>
      </trkpt>
      <trkpt lat="43.004173301160335540771484375" lon="-4.74232457578182220458984375">
        <ele>1928.199951171875</ele>
        <time>2021-07-22T08:09:44.000Z</time>
      </trkpt>
      <trkpt lat="43.00419065169990062713623046875" lon="-4.7423131763935089111328125">
        <ele>1928.800048828125</ele>
        <time>2021-07-22T08:09:46.000Z</time>
      </trkpt>
      <trkpt lat="43.00420649349689483642578125" lon="-4.7423024475574493408203125">
        <ele>1929.5999755859375</ele>
        <time>2021-07-22T08:09:48.000Z</time>
      </trkpt>
      <trkpt lat="43.00421764142811298370361328125" lon="-4.74229414947330951690673828125">
        <ele>1930</ele>
        <time>2021-07-22T08:09:49.000Z</time>
      </trkpt>
      <trkpt lat="43.0042297951877117156982421875" lon="-4.74228710867464542388916015625">
        <ele>1930.199951171875</ele>
        <time>2021-07-22T08:09:50.000Z</time>
      </trkpt>
      <trkpt lat="43.00425452180206775665283203125" lon="-4.74227269180119037628173828125">
        <ele>1930.5999755859375</ele>
        <time>2021-07-22T08:09:52.000Z</time>
      </trkpt>
      <trkpt lat="43.00426826812326908111572265625" lon="-4.74227101542055606842041015625">
        <ele>1931</ele>
        <time>2021-07-22T08:09:53.000Z</time>
      </trkpt>
      <trkpt lat="43.0042814277112483978271484375" lon="-4.74227093160152435302734375">
        <ele>1931.199951171875</ele>
        <time>2021-07-22T08:09:54.000Z</time>
      </trkpt>
      <trkpt lat="43.0043159611523151397705078125" lon="-4.74226028658449649810791015625">
        <ele>1931.800048828125</ele>
        <time>2021-07-22T08:09:57.000Z</time>
      </trkpt>
      <trkpt lat="43.00435401499271392822265625" lon="-4.74225777201354503631591796875">
        <ele>1932.4000244140625</ele>
        <time>2021-07-22T08:10:00.000Z</time>
      </trkpt>
      <trkpt lat="43.0043696053326129913330078125" lon="-4.742256514728069305419921875">
        <ele>1932.800048828125</ele>
        <time>2021-07-22T08:10:01.000Z</time>
      </trkpt>
      <trkpt lat="43.004430122673511505126953125" lon="-4.74225156940519809722900390625">
        <ele>1933.4000244140625</ele>
        <time>2021-07-22T08:10:05.000Z</time>
      </trkpt>
      <trkpt lat="43.0044431984424591064453125" lon="-4.74225324578583240509033203125">
        <ele>1933.5999755859375</ele>
        <time>2021-07-22T08:10:06.000Z</time>
      </trkpt>
      <trkpt lat="43.004457950592041015625" lon="-4.7422486357390880584716796875">
        <ele>1933.800048828125</ele>
        <time>2021-07-22T08:10:07.000Z</time>
      </trkpt>
      <trkpt lat="43.00448737107217311859130859375" lon="-4.7422362305223941802978515625">
        <ele>1934.199951171875</ele>
        <time>2021-07-22T08:10:09.000Z</time>
      </trkpt>
      <trkpt lat="43.004543781280517578125" lon="-4.742219634354114532470703125">
        <ele>1935</ele>
        <time>2021-07-22T08:10:13.000Z</time>
      </trkpt>
      <trkpt lat="43.00455828197300434112548828125" lon="-4.74221753887832164764404296875">
        <ele>1935</ele>
        <time>2021-07-22T08:10:14.000Z</time>
      </trkpt>
      <trkpt lat="43.00458175130188465118408203125" lon="-4.7422097437083721160888671875">
        <ele>1935.199951171875</ele>
        <time>2021-07-22T08:10:16.000Z</time>
      </trkpt>
      <trkpt lat="43.00460371188819408416748046875" lon="-4.74219624884426593780517578125">
        <ele>1935.5999755859375</ele>
        <time>2021-07-22T08:10:18.000Z</time>
      </trkpt>
      <trkpt lat="43.0046368204057216644287109375" lon="-4.74218769930303096771240234375">
        <ele>1936.199951171875</ele>
        <time>2021-07-22T08:10:21.000Z</time>
      </trkpt>
      <trkpt lat="43.00466339103877544403076171875" lon="-4.742184095084667205810546875">
        <ele>1936.4000244140625</ele>
        <time>2021-07-22T08:10:23.000Z</time>
      </trkpt>
      <trkpt lat="43.0047623813152313232421875" lon="-4.74218132905662059783935546875">
        <ele>1937.199951171875</ele>
        <time>2021-07-22T08:10:30.000Z</time>
      </trkpt>
      <trkpt lat="43.00478450953960418701171875" lon="-4.7421842627227306365966796875">
        <ele>1937.4000244140625</ele>
        <time>2021-07-22T08:10:32.000Z</time>
      </trkpt>
      <trkpt lat="43.0048410035669803619384765625" lon="-4.742185771465301513671875">
        <ele>1938.4000244140625</ele>
        <time>2021-07-22T08:10:36.000Z</time>
      </trkpt>
      <trkpt lat="43.004855923354625701904296875" lon="-4.7421829216182231903076171875">
        <ele>1938.800048828125</ele>
        <time>2021-07-22T08:10:37.000Z</time>
      </trkpt>
      <trkpt lat="43.004906885325908660888671875" lon="-4.74217663519084453582763671875">
        <ele>1939.5999755859375</ele>
        <time>2021-07-22T08:10:41.000Z</time>
      </trkpt>
      <trkpt lat="43.00493228249251842498779296875" lon="-4.74217378534376621246337890625">
        <ele>1940</ele>
        <time>2021-07-22T08:10:43.000Z</time>
      </trkpt>
      <trkpt lat="43.00494384951889514923095703125" lon="-4.74217110313475131988525390625">
        <ele>1940.199951171875</ele>
        <time>2021-07-22T08:10:44.000Z</time>
      </trkpt>
      <trkpt lat="43.00497318617999553680419921875" lon="-4.74216364324092864990234375">
        <ele>1940.800048828125</ele>
        <time>2021-07-22T08:10:47.000Z</time>
      </trkpt>
      <trkpt lat="43.0049984157085418701171875" lon="-4.74216087721288204193115234375">
        <ele>1941.199951171875</ele>
        <time>2021-07-22T08:10:49.000Z</time>
      </trkpt>
      <trkpt lat="43.0050207115709781646728515625" lon="-4.74216205067932605743408203125">
        <ele>1941.800048828125</ele>
        <time>2021-07-22T08:10:51.000Z</time>
      </trkpt>
      <trkpt lat="43.00505985505878925323486328125" lon="-4.74216766655445098876953125">
        <ele>1942.4000244140625</ele>
        <time>2021-07-22T08:10:55.000Z</time>
      </trkpt>
      <trkpt lat="43.00506974570453166961669921875" lon="-4.7421681694686412811279296875">
        <ele>1943</ele>
        <time>2021-07-22T08:10:56.000Z</time>
      </trkpt>
      <trkpt lat="43.00509824417531490325927734375" lon="-4.7421742044389247894287109375">
        <ele>1943.800048828125</ele>
        <time>2021-07-22T08:10:59.000Z</time>
      </trkpt>
      <trkpt lat="43.00510880537331104278564453125" lon="-4.74217546172440052032470703125">
        <ele>1944.199951171875</ele>
        <time>2021-07-22T08:11:00.000Z</time>
      </trkpt>
      <trkpt lat="43.005126826465129852294921875" lon="-4.742184095084667205810546875">
        <ele>1944.800048828125</ele>
        <time>2021-07-22T08:11:02.000Z</time>
      </trkpt>
      <trkpt lat="43.0051665566861629486083984375" lon="-4.74219708703458309173583984375">
        <ele>1945.199951171875</ele>
        <time>2021-07-22T08:11:05.000Z</time>
      </trkpt>
      <trkpt lat="43.005192540585994720458984375" lon="-4.74219708703458309173583984375">
        <ele>1946.199951171875</ele>
        <time>2021-07-22T08:11:07.000Z</time>
      </trkpt>
      <trkpt lat="43.00522078759968280792236328125" lon="-4.74219582974910736083984375">
        <ele>1947</ele>
        <time>2021-07-22T08:11:09.000Z</time>
      </trkpt>
      <trkpt lat="43.00523570738732814788818359375" lon="-4.74219373427331447601318359375">
        <ele>1947.4000244140625</ele>
        <time>2021-07-22T08:11:10.000Z</time>
      </trkpt>
      <trkpt lat="43.00528130494058132171630859375" lon="-4.7421953268349170684814453125">
        <ele>1948.199951171875</ele>
        <time>2021-07-22T08:11:13.000Z</time>
      </trkpt>
      <trkpt lat="43.00529253669083118438720703125" lon="-4.74219356663525104522705078125">
        <ele>1948.4000244140625</ele>
        <time>2021-07-22T08:11:14.000Z</time>
      </trkpt>
      <trkpt lat="43.0053311772644519805908203125" lon="-4.7422027029097080230712890625">
        <ele>1949.4000244140625</ele>
        <time>2021-07-22T08:11:17.000Z</time>
      </trkpt>
      <trkpt lat="43.0053546465933322906494140625" lon="-4.742200188338756561279296875">
        <ele>1949.5999755859375</ele>
        <time>2021-07-22T08:11:19.000Z</time>
      </trkpt>
      <trkpt lat="43.00539010204374790191650390625" lon="-4.742196500301361083984375">
        <ele>1950</ele>
        <time>2021-07-22T08:11:21.000Z</time>
      </trkpt>
      <trkpt lat="43.00551465712487697601318359375" lon="-4.742227680981159210205078125">
        <ele>1950.800048828125</ele>
        <time>2021-07-22T08:11:26.000Z</time>
      </trkpt>
      <trkpt lat="43.0055383779108524322509765625" lon="-4.7422322072088718414306640625">
        <ele>1951</ele>
        <time>2021-07-22T08:11:27.000Z</time>
      </trkpt>
      <trkpt lat="43.0056439898908138275146484375" lon="-4.74223338067531585693359375">
        <ele>1952</ele>
        <time>2021-07-22T08:11:32.000Z</time>
      </trkpt>
      <trkpt lat="43.00572873093187808990478515625" lon="-4.7422166168689727783203125">
        <ele>1953.4000244140625</ele>
        <time>2021-07-22T08:11:36.000Z</time>
      </trkpt>
      <trkpt lat="43.00574800930917263031005859375" lon="-4.742206223309040069580078125">
        <ele>1953.5999755859375</ele>
        <time>2021-07-22T08:11:37.000Z</time>
      </trkpt>
      <trkpt lat="43.00579209811985492706298828125" lon="-4.74219591356813907623291015625">
        <ele>1954.4000244140625</ele>
        <time>2021-07-22T08:11:39.000Z</time>
      </trkpt>
      <trkpt lat="43.005855716764926910400390625" lon="-4.7421866096556186676025390625">
        <ele>1955.4000244140625</ele>
        <time>2021-07-22T08:11:42.000Z</time>
      </trkpt>
      <trkpt lat="43.00587524659931659698486328125" lon="-4.74217680282890796661376953125">
        <ele>1955.5999755859375</ele>
        <time>2021-07-22T08:11:43.000Z</time>
      </trkpt>
      <trkpt lat="43.0059661902487277984619140625" lon="-4.74212734960019588470458984375">
        <ele>1956.5999755859375</ele>
        <time>2021-07-22T08:11:47.000Z</time>
      </trkpt>
      <trkpt lat="43.00599125213921070098876953125" lon="-4.742121398448944091796875">
        <ele>1956.800048828125</ele>
        <time>2021-07-22T08:11:48.000Z</time>
      </trkpt>
      <trkpt lat="43.0061080120503902435302734375" lon="-4.7421239130198955535888671875">
        <ele>1957.4000244140625</ele>
        <time>2021-07-22T08:11:53.000Z</time>
      </trkpt>
      <trkpt lat="43.00612821243703365325927734375" lon="-4.74213506095111370086669921875">
        <ele>1957.800048828125</ele>
        <time>2021-07-22T08:11:55.000Z</time>
      </trkpt>
      <trkpt lat="43.00615050829946994781494140625" lon="-4.74216272123157978057861328125">
        <ele>1958</ele>
        <time>2021-07-22T08:11:58.000Z</time>
      </trkpt>
      <trkpt lat="43.0061780847609043121337890625" lon="-4.7421959973871707916259765625">
        <ele>1958.800048828125</ele>
        <time>2021-07-22T08:12:01.000Z</time>
      </trkpt>
      <trkpt lat="43.00624656490981578826904296875" lon="-4.74222675897181034088134765625">
        <ele>1959.4000244140625</ele>
        <time>2021-07-22T08:12:06.000Z</time>
      </trkpt>
      <trkpt lat="43.00631261430680751800537109375" lon="-4.74225793965160846710205078125">
        <ele>1959.800048828125</ele>
        <time>2021-07-22T08:12:11.000Z</time>
      </trkpt>
      <trkpt lat="43.00632216967642307281494140625" lon="-4.74226062186062335968017578125">
        <ele>1960.199951171875</ele>
        <time>2021-07-22T08:12:12.000Z</time>
      </trkpt>
      <trkpt lat="43.006345219910144805908203125" lon="-4.74226565100252628326416015625">
        <ele>1960.5999755859375</ele>
        <time>2021-07-22T08:12:14.000Z</time>
      </trkpt>
      <trkpt lat="43.00636793486773967742919921875" lon="-4.74227587692439556121826171875">
        <ele>1961</ele>
        <time>2021-07-22T08:12:16.000Z</time>
      </trkpt>
      <trkpt lat="43.00637749023735523223876953125" lon="-4.74228023551404476165771484375">
        <ele>1961</ele>
        <time>2021-07-22T08:12:17.000Z</time>
      </trkpt>
      <trkpt lat="43.0064271949231624603271484375" lon="-4.74228291772305965423583984375">
        <ele>1962.4000244140625</ele>
        <time>2021-07-22T08:12:21.000Z</time>
      </trkpt>
      <trkpt lat="43.0064399354159832000732421875" lon="-4.74228677339851856231689453125">
        <ele>1962.5999755859375</ele>
        <time>2021-07-22T08:12:22.000Z</time>
      </trkpt>
      <trkpt lat="43.0064976029098033905029296875" lon="-4.74231409840285778045654296875">
        <ele>1963.4000244140625</ele>
        <time>2021-07-22T08:12:26.000Z</time>
      </trkpt>
      <trkpt lat="43.00651746802031993865966796875" lon="-4.74231376312673091888427734375">
        <ele>1963.800048828125</ele>
        <time>2021-07-22T08:12:28.000Z</time>
      </trkpt>
      <trkpt lat="43.00652819685637950897216796875" lon="-4.7423086501657962799072265625">
        <ele>1963.800048828125</ele>
        <time>2021-07-22T08:12:29.000Z</time>
      </trkpt>
      <trkpt lat="43.0065398477017879486083984375" lon="-4.7423079796135425567626953125">
        <ele>1964</ele>
        <time>2021-07-22T08:12:30.000Z</time>
      </trkpt>
      <trkpt lat="43.006556443870067596435546875" lon="-4.7423210553824901580810546875">
        <ele>1964.5999755859375</ele>
        <time>2021-07-22T08:12:32.000Z</time>
      </trkpt>
      <trkpt lat="43.006566502153873443603515625" lon="-4.7423247434198856353759765625">
        <ele>1965.199951171875</ele>
        <time>2021-07-22T08:12:33.000Z</time>
      </trkpt>
      <trkpt lat="43.00657580606639385223388671875" lon="-4.74233128130435943603515625">
        <ele>1965.5999755859375</ele>
        <time>2021-07-22T08:12:34.000Z</time>
      </trkpt>
      <trkpt lat="43.0066065676510334014892578125" lon="-4.74233354441821575164794921875">
        <ele>1966.800048828125</ele>
        <time>2021-07-22T08:12:37.000Z</time>
      </trkpt>
      <trkpt lat="43.0066511593759059906005859375" lon="-4.742330275475978851318359375">
        <ele>1967.4000244140625</ele>
        <time>2021-07-22T08:12:41.000Z</time>
      </trkpt>
      <trkpt lat="43.0066739581525325775146484375" lon="-4.74233069457113742828369140625">
        <ele>1967.5999755859375</ele>
        <time>2021-07-22T08:12:43.000Z</time>
      </trkpt>
      <trkpt lat="43.0066870339214801788330078125" lon="-4.74232482723891735076904296875">
        <ele>1967.800048828125</ele>
        <time>2021-07-22T08:12:44.000Z</time>
      </trkpt>
      <trkpt lat="43.00670153461396694183349609375" lon="-4.74232348613440990447998046875">
        <ele>1968.199951171875</ele>
        <time>2021-07-22T08:12:45.000Z</time>
      </trkpt>
      <trkpt lat="43.00671293400228023529052734375" lon="-4.74232315085828304290771484375">
        <ele>1968.800048828125</ele>
        <time>2021-07-22T08:12:46.000Z</time>
      </trkpt>
      <trkpt lat="43.00672383047640323638916015625" lon="-4.7423240728676319122314453125">
        <ele>1969</ele>
        <time>2021-07-22T08:12:47.000Z</time>
      </trkpt>
      <trkpt lat="43.00674797035753726959228515625" lon="-4.74231242202222347259521484375">
        <ele>1969.199951171875</ele>
        <time>2021-07-22T08:12:49.000Z</time>
      </trkpt>
      <trkpt lat="43.0067799054086208343505859375" lon="-4.7423093207180500030517578125">
        <ele>1970</ele>
        <time>2021-07-22T08:12:52.000Z</time>
      </trkpt>
      <trkpt lat="43.00683883018791675567626953125" lon="-4.7422855161130428314208984375">
        <ele>1971</ele>
        <time>2021-07-22T08:12:57.000Z</time>
      </trkpt>
      <trkpt lat="43.00685006193816661834716796875" lon="-4.74227621220052242279052734375">
        <ele>1971.199951171875</ele>
        <time>2021-07-22T08:12:58.000Z</time>
      </trkpt>
      <trkpt lat="43.0069027841091156005859375" lon="-4.742260873317718505859375">
        <ele>1972.4000244140625</ele>
        <time>2021-07-22T08:13:03.000Z</time>
      </trkpt>
      <trkpt lat="43.00693094730377197265625" lon="-4.742239080369472503662109375">
        <ele>1973.199951171875</ele>
        <time>2021-07-22T08:13:06.000Z</time>
      </trkpt>
      <trkpt lat="43.00693270750343799591064453125" lon="-4.742235057055950164794921875">
        <ele>1973.4000244140625</ele>
        <time>2021-07-22T08:13:07.000Z</time>
      </trkpt>
      <trkpt lat="43.00693773664534091949462890625" lon="-4.742227680981159210205078125">
        <ele>1973.5999755859375</ele>
        <time>2021-07-22T08:13:08.000Z</time>
      </trkpt>
      <trkpt lat="43.00694595091044902801513671875" lon="-4.74220312200486660003662109375">
        <ele>1975.199951171875</ele>
        <time>2021-07-22T08:13:11.000Z</time>
      </trkpt>
      <trkpt lat="43.0069525726139545440673828125" lon="-4.74221326410770416259765625">
        <ele>1975.800048828125</ele>
        <time>2021-07-22T08:13:13.000Z</time>
      </trkpt>
      <trkpt lat="43.0069683305919170379638671875" lon="-4.742234051227569580078125">
        <ele>1976.199951171875</ele>
        <time>2021-07-22T08:13:15.000Z</time>
      </trkpt>
      <trkpt lat="43.00699439831078052520751953125" lon="-4.7422488033771514892578125">
        <ele>1977</ele>
        <time>2021-07-22T08:13:18.000Z</time>
      </trkpt>
      <trkpt lat="43.00700462423264980316162109375" lon="-4.74224821664392948150634765625">
        <ele>1977.4000244140625</ele>
        <time>2021-07-22T08:13:19.000Z</time>
      </trkpt>
      <trkpt lat="43.00704569555819034576416015625" lon="-4.742223322391510009765625">
        <ele>1978.4000244140625</ele>
        <time>2021-07-22T08:13:23.000Z</time>
      </trkpt>
      <trkpt lat="43.0071084760129451751708984375" lon="-4.7422016970813274383544921875">
        <ele>1979.5999755859375</ele>
        <time>2021-07-22T08:13:29.000Z</time>
      </trkpt>
      <trkpt lat="43.00716924481093883514404296875" lon="-4.74218308925628662109375">
        <ele>1980.199951171875</ele>
        <time>2021-07-22T08:13:34.000Z</time>
      </trkpt>
      <trkpt lat="43.007217608392238616943359375" lon="-4.7421415150165557861328125">
        <ele>1980.4000244140625</ele>
        <time>2021-07-22T08:13:38.000Z</time>
      </trkpt>
      <trkpt lat="43.00723898224532604217529296875" lon="-4.74212206900119781494140625">
        <ele>1980.800048828125</ele>
        <time>2021-07-22T08:13:40.000Z</time>
      </trkpt>
      <trkpt lat="43.00726018846035003662109375" lon="-4.7421195544302463531494140625">
        <ele>1981.199951171875</ele>
        <time>2021-07-22T08:13:42.000Z</time>
      </trkpt>
      <trkpt lat="43.007290028035640716552734375" lon="-4.74207906983792781829833984375">
        <ele>1982</ele>
        <time>2021-07-22T08:13:45.000Z</time>
      </trkpt>
      <trkpt lat="43.0073287524282932281494140625" lon="-4.7420524992048740386962890625">
        <ele>1982.800048828125</ele>
        <time>2021-07-22T08:13:48.000Z</time>
      </trkpt>
      <trkpt lat="43.00736672244966030120849609375" lon="-4.74203229881823062896728515625">
        <ele>1983.199951171875</ele>
        <time>2021-07-22T08:13:51.000Z</time>
      </trkpt>
      <trkpt lat="43.00739874131977558135986328125" lon="-4.742002375423908233642578125">
        <ele>1983.800048828125</ele>
        <time>2021-07-22T08:13:54.000Z</time>
      </trkpt>
      <trkpt lat="43.00741533748805522918701171875" lon="-4.74197898991405963897705078125">
        <ele>1984.4000244140625</ele>
        <time>2021-07-22T08:13:56.000Z</time>
      </trkpt>
      <trkpt lat="43.00743411295115947723388671875" lon="-4.74197144620120525360107421875">
        <ele>1984.800048828125</ele>
        <time>2021-07-22T08:13:58.000Z</time>
      </trkpt>
      <trkpt lat="43.0074829794466495513916015625" lon="-4.7419579513370990753173828125">
        <ele>1985</ele>
        <time>2021-07-22T08:14:03.000Z</time>
      </trkpt>
      <trkpt lat="43.0075252242386341094970703125" lon="-4.741915874183177947998046875">
        <ele>1985.4000244140625</ele>
        <time>2021-07-22T08:14:06.000Z</time>
      </trkpt>
      <trkpt lat="43.0075411498546600341796875" lon="-4.74188712425529956817626953125">
        <ele>1985.5999755859375</ele>
        <time>2021-07-22T08:14:08.000Z</time>
      </trkpt>
      <trkpt lat="43.0075617693364620208740234375" lon="-4.74185250699520111083984375">
        <ele>1986</ele>
        <time>2021-07-22T08:14:11.000Z</time>
      </trkpt>
      <trkpt lat="43.00757224671542644500732421875" lon="-4.741848148405551910400390625">
        <ele>1986.4000244140625</ele>
        <time>2021-07-22T08:14:12.000Z</time>
      </trkpt>
      <trkpt lat="43.00760325975716114044189453125" lon="-4.74182761274278163909912109375">
        <ele>1987</ele>
        <time>2021-07-22T08:14:15.000Z</time>
      </trkpt>
      <trkpt lat="43.00764919258654117584228515625" lon="-4.74177078343927860260009765625">
        <ele>1988</ele>
        <time>2021-07-22T08:14:19.000Z</time>
      </trkpt>
      <trkpt lat="43.0076643638312816619873046875" lon="-4.74175821058452129364013671875">
        <ele>1988.4000244140625</ele>
        <time>2021-07-22T08:14:21.000Z</time>
      </trkpt>
      <trkpt lat="43.00767735578119754791259765625" lon="-4.74174111150205135345458984375">
        <ele>1989</ele>
        <time>2021-07-22T08:14:23.000Z</time>
      </trkpt>
      <trkpt lat="43.00770116038620471954345703125" lon="-4.74170842207968235015869140625">
        <ele>1989.5999755859375</ele>
        <time>2021-07-22T08:14:26.000Z</time>
      </trkpt>
      <trkpt lat="43.00772194750607013702392578125" lon="-4.74169559776782989501953125">
        <ele>1990.199951171875</ele>
        <time>2021-07-22T08:14:28.000Z</time>
      </trkpt>
      <trkpt lat="43.00772865302860736846923828125" lon="-4.7416813485324382781982421875">
        <ele>1990.5999755859375</ele>
        <time>2021-07-22T08:14:29.000Z</time>
      </trkpt>
      <trkpt lat="43.007734604179859161376953125" lon="-4.7416696138679981231689453125">
        <ele>1990.800048828125</ele>
        <time>2021-07-22T08:14:30.000Z</time>
      </trkpt>
      <trkpt lat="43.00773971714079380035400390625" lon="-4.74165670573711395263671875">
        <ele>1991.199951171875</ele>
        <time>2021-07-22T08:14:31.000Z</time>
      </trkpt>
      <trkpt lat="43.007745333015918731689453125" lon="-4.74165041930973529815673828125">
        <ele>1991.4000244140625</ele>
        <time>2021-07-22T08:14:32.000Z</time>
      </trkpt>
      <trkpt lat="43.00774809904396533966064453125" lon="-4.74165108986198902130126953125">
        <ele>1991.4000244140625</ele>
        <time>2021-07-22T08:14:33.000Z</time>
      </trkpt>
      <trkpt lat="43.00776117481291294097900390625" lon="-4.74164656363427639007568359375">
        <ele>1992</ele>
        <time>2021-07-22T08:14:35.000Z</time>
      </trkpt>
      <trkpt lat="43.00777911208570003509521484375" lon="-4.74163281731307506561279296875">
        <ele>1992.199951171875</ele>
        <time>2021-07-22T08:14:37.000Z</time>
      </trkpt>
      <trkpt lat="43.00778816454112529754638671875" lon="-4.74162317812442779541015625">
        <ele>1992.5999755859375</ele>
        <time>2021-07-22T08:14:38.000Z</time>
      </trkpt>
      <trkpt lat="43.007806353271007537841796875" lon="-4.74161320365965366363525390625">
        <ele>1993.4000244140625</ele>
        <time>2021-07-22T08:14:40.000Z</time>
      </trkpt>
      <trkpt lat="43.00781481899321079254150390625" lon="-4.7416085936129093170166015625">
        <ele>1993.5999755859375</ele>
        <time>2021-07-22T08:14:41.000Z</time>
      </trkpt>
      <trkpt lat="43.00784465856850147247314453125" lon="-4.74160130135715007781982421875">
        <ele>1994.5999755859375</ele>
        <time>2021-07-22T08:14:44.000Z</time>
      </trkpt>
      <trkpt lat="43.00785169936716556549072265625" lon="-4.74159074015915393829345703125">
        <ele>1994.800048828125</ele>
        <time>2021-07-22T08:14:45.000Z</time>
      </trkpt>
      <trkpt lat="43.00785957835614681243896484375" lon="-4.74158420227468013763427734375">
        <ele>1995.4000244140625</ele>
        <time>2021-07-22T08:14:47.000Z</time>
      </trkpt>
      <trkpt lat="43.00786242820322513580322265625" lon="-4.7415834479033946990966796875">
        <ele>1995.5999755859375</ele>
        <time>2021-07-22T08:14:48.000Z</time>
      </trkpt>
      <trkpt lat="43.00788111984729766845703125" lon="-4.74155922420322895050048828125">
        <ele>1996.199951171875</ele>
        <time>2021-07-22T08:14:51.000Z</time>
      </trkpt>
      <trkpt lat="43.007891178131103515625" lon="-4.74155335687100887298583984375">
        <ele>1996.4000244140625</ele>
        <time>2021-07-22T08:14:52.000Z</time>
      </trkpt>
      <trkpt lat="43.007901571691036224365234375" lon="-4.74153868854045867919921875">
        <ele>1996.800048828125</ele>
        <time>2021-07-22T08:14:54.000Z</time>
      </trkpt>
      <trkpt lat="43.0079030804336071014404296875" lon="-4.741524942219257354736328125">
        <ele>1997.199951171875</ele>
        <time>2021-07-22T08:14:55.000Z</time>
      </trkpt>
      <trkpt lat="43.00790551118552684783935546875" lon="-4.74151312373578548431396484375">
        <ele>1997.5999755859375</ele>
        <time>2021-07-22T08:14:56.000Z</time>
      </trkpt>
      <trkpt lat="43.00792193971574306488037109375" lon="-4.74150474183261394500732421875">
        <ele>1998</ele>
        <time>2021-07-22T08:14:58.000Z</time>
      </trkpt>
      <trkpt lat="43.00792948342859745025634765625" lon="-4.741500131785869598388671875">
        <ele>1998.199951171875</ele>
        <time>2021-07-22T08:14:59.000Z</time>
      </trkpt>
      <trkpt lat="43.007940463721752166748046875" lon="-4.741494767367839813232421875">
        <ele>1999</ele>
        <time>2021-07-22T08:15:01.000Z</time>
      </trkpt>
      <trkpt lat="43.00795362330973148345947265625" lon="-4.7415009699761867523193359375">
        <ele>1999.4000244140625</ele>
        <time>2021-07-22T08:15:03.000Z</time>
      </trkpt>
      <trkpt lat="43.00797642208635807037353515625" lon="-4.741480015218257904052734375">
        <ele>2000</ele>
        <time>2021-07-22T08:15:07.000Z</time>
      </trkpt>
      <trkpt lat="43.00798413343727588653564453125" lon="-4.74146551452577114105224609375">
        <ele>2000</ele>
        <time>2021-07-22T08:15:08.000Z</time>
      </trkpt>
      <trkpt lat="43.00801447592675685882568359375" lon="-4.74143466912209987640380859375">
        <ele>2000.4000244140625</ele>
        <time>2021-07-22T08:15:12.000Z</time>
      </trkpt>
      <trkpt lat="43.0080234445631504058837890625" lon="-4.74142628721892833709716796875">
        <ele>2000.5999755859375</ele>
        <time>2021-07-22T08:15:13.000Z</time>
      </trkpt>
      <trkpt lat="43.00803266465663909912109375" lon="-4.741418324410915374755859375">
        <ele>2000.800048828125</ele>
        <time>2021-07-22T08:15:14.000Z</time>
      </trkpt>
      <trkpt lat="43.008051104843616485595703125" lon="-4.74140885286033153533935546875">
        <ele>2001.199951171875</ele>
        <time>2021-07-22T08:15:16.000Z</time>
      </trkpt>
      <trkpt lat="43.00805680453777313232421875" lon="-4.74140784703195095062255859375">
        <ele>2001.199951171875</ele>
        <time>2021-07-22T08:15:17.000Z</time>
      </trkpt>
      <trkpt lat="43.008065521717071533203125" lon="-4.74140265025198459625244140625">
        <ele>2001.4000244140625</ele>
        <time>2021-07-22T08:15:19.000Z</time>
      </trkpt>
      <trkpt lat="43.0080817826092243194580078125" lon="-4.7413851320743560791015625">
        <ele>2002.199951171875</ele>
        <time>2021-07-22T08:15:23.000Z</time>
      </trkpt>
      <trkpt lat="43.00808253698050975799560546875" lon="-4.74138521589338779449462890625">
        <ele>2002.4000244140625</ele>
        <time>2021-07-22T08:15:24.000Z</time>
      </trkpt>
      <trkpt lat="43.00808764994144439697265625" lon="-4.7413846291601657867431640625">
        <ele>2002.800048828125</ele>
        <time>2021-07-22T08:15:25.000Z</time>
      </trkpt>
      <trkpt lat="43.00810516811907291412353515625" lon="-4.74139024503529071807861328125">
        <ele>2003.199951171875</ele>
        <time>2021-07-22T08:15:27.000Z</time>
      </trkpt>
      <trkpt lat="43.008124530315399169921875" lon="-4.7413789294660091400146484375">
        <ele>2003.4000244140625</ele>
        <time>2021-07-22T08:15:29.000Z</time>
      </trkpt>
      <trkpt lat="43.00815328024327754974365234375" lon="-4.74137968383729457855224609375">
        <ele>2004.199951171875</ele>
        <time>2021-07-22T08:15:34.000Z</time>
      </trkpt>
      <trkpt lat="43.00816015340387821197509765625" lon="-4.7413913346827030181884765625">
        <ele>2005</ele>
        <time>2021-07-22T08:15:39.000Z</time>
      </trkpt>
      <trkpt lat="43.008170463144779205322265625" lon="-4.74138102494180202484130859375">
        <ele>2005.5999755859375</ele>
        <time>2021-07-22T08:15:41.000Z</time>
      </trkpt>
      <trkpt lat="43.00817306153476238250732421875" lon="-4.74136375822126865386962890625">
        <ele>2006</ele>
        <time>2021-07-22T08:15:43.000Z</time>
      </trkpt>
      <trkpt lat="43.0081756599247455596923828125" lon="-4.7413611598312854766845703125">
        <ele>2006.800048828125</ele>
        <time>2021-07-22T08:15:46.000Z</time>
      </trkpt>
      <trkpt lat="43.0081803537905216217041015625" lon="-4.74135973490774631500244140625">
        <ele>2007.199951171875</ele>
        <time>2021-07-22T08:15:47.000Z</time>
      </trkpt>
      <trkpt lat="43.0082071758806705474853515625" lon="-4.74136593751609325408935546875">
        <ele>2007.800048828125</ele>
        <time>2021-07-22T08:15:51.000Z</time>
      </trkpt>
      <trkpt lat="43.00823651254177093505859375" lon="-4.7413824498653411865234375">
        <ele>2009</ele>
        <time>2021-07-22T08:15:54.000Z</time>
      </trkpt>
      <trkpt lat="43.00824455916881561279296875" lon="-4.74138102494180202484130859375">
        <ele>2009.4000244140625</ele>
        <time>2021-07-22T08:15:55.000Z</time>
      </trkpt>
      <trkpt lat="43.0082621611654758453369140625" lon="-4.74136275239288806915283203125">
        <ele>2010</ele>
        <time>2021-07-22T08:15:57.000Z</time>
      </trkpt>
      <trkpt lat="43.00827205181121826171875" lon="-4.74134800024330615997314453125">
        <ele>2010.4000244140625</ele>
        <time>2021-07-22T08:15:59.000Z</time>
      </trkpt>
      <trkpt lat="43.00827649421989917755126953125" lon="-4.74132142961025238037109375">
        <ele>2011.199951171875</ele>
        <time>2021-07-22T08:16:03.000Z</time>
      </trkpt>
      <trkpt lat="43.00828118808567523956298828125" lon="-4.741312377154827117919921875">
        <ele>2011.199951171875</ele>
        <time>2021-07-22T08:16:04.000Z</time>
      </trkpt>
      <trkpt lat="43.008283115923404693603515625" lon="-4.7413326613605022430419921875">
        <ele>2012.199951171875</ele>
        <time>2021-07-22T08:16:09.000Z</time>
      </trkpt>
      <trkpt lat="43.00828940235078334808349609375" lon="-4.74133760668337345123291015625">
        <ele>2013.199951171875</ele>
        <time>2021-07-22T08:16:11.000Z</time>
      </trkpt>
      <trkpt lat="43.00830834545195102691650390625" lon="-4.74132947623729705810546875">
        <ele>2013.800048828125</ele>
        <time>2021-07-22T08:16:13.000Z</time>
      </trkpt>
      <trkpt lat="43.00833231769502162933349609375" lon="-4.74131740629673004150390625">
        <ele>2014.199951171875</ele>
        <time>2021-07-22T08:16:16.000Z</time>
      </trkpt>
      <trkpt lat="43.00833835266530513763427734375" lon="-4.74131195805966854095458984375">
        <ele>2014.5999755859375</ele>
        <time>2021-07-22T08:16:17.000Z</time>
      </trkpt>
      <trkpt lat="43.008360229432582855224609375" lon="-4.74128798581659793853759765625">
        <ele>2015.5999755859375</ele>
        <time>2021-07-22T08:16:20.000Z</time>
      </trkpt>
      <trkpt lat="43.00836919806897640228271484375" lon="-4.74128580652177333831787109375">
        <ele>2015.800048828125</ele>
        <time>2021-07-22T08:16:21.000Z</time>
      </trkpt>
      <trkpt lat="43.00839384086430072784423828125" lon="-4.7412749938666820526123046875">
        <ele>2016.800048828125</ele>
        <time>2021-07-22T08:16:25.000Z</time>
      </trkpt>
      <trkpt lat="43.008415885269641876220703125" lon="-4.7412887401878833770751953125">
        <ele>2017.800048828125</ele>
        <time>2021-07-22T08:16:30.000Z</time>
      </trkpt>
      <trkpt lat="43.0084304697811603546142578125" lon="-4.74130407907068729400634765625">
        <ele>2018.4000244140625</ele>
        <time>2021-07-22T08:16:32.000Z</time>
      </trkpt>
      <trkpt lat="43.0084462277591228485107421875" lon="-4.74130659364163875579833984375">
        <ele>2018.800048828125</ele>
        <time>2021-07-22T08:16:34.000Z</time>
      </trkpt>
      <trkpt lat="43.0084584653377532958984375" lon="-4.74130910821259021759033203125">
        <ele>2019</ele>
        <time>2021-07-22T08:16:35.000Z</time>
      </trkpt>
      <trkpt lat="43.0084700323641300201416015625" lon="-4.74131363444030284881591796875">
        <ele>2019.4000244140625</ele>
        <time>2021-07-22T08:16:36.000Z</time>
      </trkpt>
      <trkpt lat="43.008481599390506744384765625" lon="-4.7413207590579986572265625">
        <ele>2019.5999755859375</ele>
        <time>2021-07-22T08:16:37.000Z</time>
      </trkpt>
      <trkpt lat="43.0084874667227268218994140625" lon="-4.74132838658988475799560546875">
        <ele>2019.800048828125</ele>
        <time>2021-07-22T08:16:38.000Z</time>
      </trkpt>
      <trkpt lat="43.0084971897304058074951171875" lon="-4.74133224226534366607666015625">
        <ele>2020.199951171875</ele>
        <time>2021-07-22T08:16:39.000Z</time>
      </trkpt>
      <trkpt lat="43.0085099302232265472412109375" lon="-4.74134330637753009796142578125">
        <ele>2020.5999755859375</ele>
        <time>2021-07-22T08:16:41.000Z</time>
      </trkpt>
      <trkpt lat="43.00851739011704921722412109375" lon="-4.74134464748203754425048828125">
        <ele>2020.5999755859375</ele>
        <time>2021-07-22T08:16:42.000Z</time>
      </trkpt>
      <trkpt lat="43.00855745561420917510986328125" lon="-4.74135361611843109130859375">
        <ele>2021.4000244140625</ele>
        <time>2021-07-22T08:16:46.000Z</time>
      </trkpt>
      <trkpt lat="43.008568100631237030029296875" lon="-4.74135369993746280670166015625">
        <ele>2021.4000244140625</ele>
        <time>2021-07-22T08:16:47.000Z</time>
      </trkpt>
      <trkpt lat="43.00858746282756328582763671875" lon="-4.74135068245232105255126953125">
        <ele>2021.5999755859375</ele>
        <time>2021-07-22T08:16:49.000Z</time>
      </trkpt>
      <trkpt lat="43.00863104872405529022216796875" lon="-4.74134162999689579010009765625">
        <ele>2022.4000244140625</ele>
        <time>2021-07-22T08:16:52.000Z</time>
      </trkpt>
      <trkpt lat="43.00866164267063140869140625" lon="-4.7413427196443080902099609375">
        <ele>2023</ele>
        <time>2021-07-22T08:16:54.000Z</time>
      </trkpt>
      <trkpt lat="43.008677065372467041015625" lon="-4.74134213291108608245849609375">
        <ele>2023.199951171875</ele>
        <time>2021-07-22T08:16:55.000Z</time>
      </trkpt>
      <trkpt lat="43.00871470011770725250244140625" lon="-4.741334505379199981689453125">
        <ele>2023.5999755859375</ele>
        <time>2021-07-22T08:16:58.000Z</time>
      </trkpt>
      <trkpt lat="43.0087493173778057098388671875" lon="-4.74131782539188861846923828125">
        <ele>2024.199951171875</ele>
        <time>2021-07-22T08:17:01.000Z</time>
      </trkpt>
      <trkpt lat="43.008773289620876312255859375" lon="-4.74130106158554553985595703125">
        <ele>2024.5999755859375</ele>
        <time>2021-07-22T08:17:04.000Z</time>
      </trkpt>
      <trkpt lat="43.008789382874965667724609375" lon="-4.7412924282252788543701171875">
        <ele>2025.199951171875</ele>
        <time>2021-07-22T08:17:06.000Z</time>
      </trkpt>
      <trkpt lat="43.0088123492896556854248046875" lon="-4.7412786819040775299072265625">
        <ele>2025.5999755859375</ele>
        <time>2021-07-22T08:17:08.000Z</time>
      </trkpt>
      <trkpt lat="43.0088240839540958404541015625" lon="-4.74127541296184062957763671875">
        <ele>2025.5999755859375</ele>
        <time>2021-07-22T08:17:09.000Z</time>
      </trkpt>
      <trkpt lat="43.008869178593158721923828125" lon="-4.74124976433813571929931640625">
        <ele>2026.4000244140625</ele>
        <time>2021-07-22T08:17:13.000Z</time>
      </trkpt>
      <trkpt lat="43.00889021717011928558349609375" lon="-4.74122822284698486328125">
        <ele>2026.800048828125</ele>
        <time>2021-07-22T08:17:15.000Z</time>
      </trkpt>
      <trkpt lat="43.00892257131636142730712890625" lon="-4.74122428335249423980712890625">
        <ele>2027.800048828125</ele>
        <time>2021-07-22T08:17:19.000Z</time>
      </trkpt>
      <trkpt lat="43.008931539952754974365234375" lon="-4.74121958948671817779541015625">
        <ele>2027.800048828125</ele>
        <time>2021-07-22T08:17:20.000Z</time>
      </trkpt>
      <trkpt lat="43.0089585296809673309326171875" lon="-4.74119176156818866729736328125">
        <ele>2028.800048828125</ele>
        <time>2021-07-22T08:17:23.000Z</time>
      </trkpt>
      <trkpt lat="43.00900764763355255126953125" lon="-4.74117256700992584228515625">
        <ele>2029.5999755859375</ele>
        <time>2021-07-22T08:17:28.000Z</time>
      </trkpt>
      <trkpt lat="43.00901896320283412933349609375" lon="-4.74117365665733814239501953125">
        <ele>2030</ele>
        <time>2021-07-22T08:17:29.000Z</time>
      </trkpt>
      <trkpt lat="43.0090378224849700927734375" lon="-4.74115337245166301727294921875">
        <ele>2031</ele>
        <time>2021-07-22T08:17:32.000Z</time>
      </trkpt>
      <trkpt lat="43.00905249081552028656005859375" lon="-4.7411415539681911468505859375">
        <ele>2032</ele>
        <time>2021-07-22T08:17:36.000Z</time>
      </trkpt>
      <trkpt lat="43.00905601121485233306884765625" lon="-4.7411402128636837005615234375">
        <ele>2032.4000244140625</ele>
        <time>2021-07-22T08:17:37.000Z</time>
      </trkpt>
      <trkpt lat="43.009062297642230987548828125" lon="-4.74112604744732379913330078125">
        <ele>2033.4000244140625</ele>
        <time>2021-07-22T08:17:40.000Z</time>
      </trkpt>
      <trkpt lat="43.00907160155475139617919921875" lon="-4.741113223135471343994140625">
        <ele>2034</ele>
        <time>2021-07-22T08:17:42.000Z</time>
      </trkpt>
      <trkpt lat="43.00908543169498443603515625" lon="-4.741095788776874542236328125">
        <ele>2034.4000244140625</ele>
        <time>2021-07-22T08:17:45.000Z</time>
      </trkpt>
      <trkpt lat="43.00909205339848995208740234375" lon="-4.74107977934181690216064453125">
        <ele>2034.800048828125</ele>
        <time>2021-07-22T08:17:47.000Z</time>
      </trkpt>
      <trkpt lat="43.00908635370433330535888671875" lon="-4.74107039161026477813720703125">
        <ele>2035.5999755859375</ele>
        <time>2021-07-22T08:17:50.000Z</time>
      </trkpt>
      <trkpt lat="43.0090782232582569122314453125" lon="-4.7410775162279605865478515625">
        <ele>2036</ele>
        <time>2021-07-22T08:17:52.000Z</time>
      </trkpt>
      <trkpt lat="43.009082414209842681884765625" lon="-4.7410594113171100616455078125">
        <ele>2036.5999755859375</ele>
        <time>2021-07-22T08:17:57.000Z</time>
      </trkpt>
      <trkpt lat="43.0090916343033313751220703125" lon="-4.74103443324565887451171875">
        <ele>2036.5999755859375</ele>
        <time>2021-07-22T08:17:59.000Z</time>
      </trkpt>
      <trkpt lat="43.0091097392141819000244140625" lon="-4.74100450985133647918701171875">
        <ele>2037.800048828125</ele>
        <time>2021-07-22T08:18:03.000Z</time>
      </trkpt>
      <trkpt lat="43.0091271735727787017822265625" lon="-4.74098120816051959991455078125">
        <ele>2039</ele>
        <time>2021-07-22T08:18:06.000Z</time>
      </trkpt>
      <trkpt lat="43.0091311968863010406494140625" lon="-4.74097684957087039947509765625">
        <ele>2039.199951171875</ele>
        <time>2021-07-22T08:18:07.000Z</time>
      </trkpt>
      <trkpt lat="43.0091254971921443939208984375" lon="-4.7409383766353130340576171875">
        <ele>2040.199951171875</ele>
        <time>2021-07-22T08:18:10.000Z</time>
      </trkpt>
      <trkpt lat="43.009115941822528839111328125" lon="-4.740916080772876739501953125">
        <ele>2040.800048828125</ele>
        <time>2021-07-22T08:18:12.000Z</time>
      </trkpt>
      <trkpt lat="43.00911652855575084686279296875" lon="-4.74090166389942169189453125">
        <ele>2041.199951171875</ele>
        <time>2021-07-22T08:18:13.000Z</time>
      </trkpt>
      <trkpt lat="43.0091248266398906707763671875" lon="-4.74085229448974132537841796875">
        <ele>2042.199951171875</ele>
        <time>2021-07-22T08:18:17.000Z</time>
      </trkpt>
      <trkpt lat="43.00912641920149326324462890625" lon="-4.7408455051481723785400390625">
        <ele>2042.4000244140625</ele>
        <time>2021-07-22T08:18:18.000Z</time>
      </trkpt>
      <trkpt lat="43.009127676486968994140625" lon="-4.74082932807505130767822265625">
        <ele>2042.5999755859375</ele>
        <time>2021-07-22T08:18:19.000Z</time>
      </trkpt>
      <trkpt lat="43.0091451108455657958984375" lon="-4.7407901845872402191162109375">
        <ele>2043.4000244140625</ele>
        <time>2021-07-22T08:18:22.000Z</time>
      </trkpt>
      <trkpt lat="43.0091519840061664581298828125" lon="-4.7407858259975910186767578125">
        <ele>2043.800048828125</ele>
        <time>2021-07-22T08:18:23.000Z</time>
      </trkpt>
      <trkpt lat="43.0091610364615917205810546875" lon="-4.74078037776052951812744140625">
        <ele>2044.800048828125</ele>
        <time>2021-07-22T08:18:25.000Z</time>
      </trkpt>
      <trkpt lat="43.009164892137050628662109375" lon="-4.74076445214450359344482421875">
        <ele>2045.4000244140625</ele>
        <time>2021-07-22T08:18:27.000Z</time>
      </trkpt>
      <trkpt lat="43.009174950420856475830078125" lon="-4.7407439164817333221435546875">
        <ele>2046.199951171875</ele>
        <time>2021-07-22T08:18:29.000Z</time>
      </trkpt>
      <trkpt lat="43.009191043674945831298828125" lon="-4.74072623066604137420654296875">
        <ele>2046.5999755859375</ele>
        <time>2021-07-22T08:18:31.000Z</time>
      </trkpt>
      <trkpt lat="43.009224571287631988525390625" lon="-4.74073310382664203643798828125">
        <ele>2047.5999755859375</ele>
        <time>2021-07-22T08:18:35.000Z</time>
      </trkpt>
      <trkpt lat="43.0092331208288669586181640625" lon="-4.7407362051308155059814453125">
        <ele>2047.800048828125</ele>
        <time>2021-07-22T08:18:36.000Z</time>
      </trkpt>
      <trkpt lat="43.00925633870065212249755859375" lon="-4.74075405858457088470458984375">
        <ele>2048.800048828125</ele>
        <time>2021-07-22T08:18:39.000Z</time>
      </trkpt>
      <trkpt lat="43.0092904530465602874755859375" lon="-4.7407697327435016632080078125">
        <ele>2049.39990234375</ele>
        <time>2021-07-22T08:18:42.000Z</time>
      </trkpt>
      <trkpt lat="43.00931953825056552886962890625" lon="-4.74077601917088031768798828125">
        <ele>2049.800048828125</ele>
        <time>2021-07-22T08:18:44.000Z</time>
      </trkpt>
      <trkpt lat="43.0093382298946380615234375" lon="-4.74078406579792499542236328125">
        <ele>2050.39990234375</ele>
        <time>2021-07-22T08:18:46.000Z</time>
      </trkpt>
      <trkpt lat="43.00937402062118053436279296875" lon="-4.74082052707672119140625">
        <ele>2050.800048828125</ele>
        <time>2021-07-22T08:18:50.000Z</time>
      </trkpt>
      <trkpt lat="43.00938810221850872039794921875" lon="-4.74082144908607006072998046875">
        <ele>2051</ele>
        <time>2021-07-22T08:18:51.000Z</time>
      </trkpt>
      <trkpt lat="43.00945700146257877349853515625" lon="-4.740848354995250701904296875">
        <ele>2051.39990234375</ele>
        <time>2021-07-22T08:18:56.000Z</time>
      </trkpt>
      <trkpt lat="43.00948365591466426849365234375" lon="-4.740863777697086334228515625">
        <ele>2051.800048828125</ele>
        <time>2021-07-22T08:18:59.000Z</time>
      </trkpt>
      <trkpt lat="43.009492456912994384765625" lon="-4.740871824324131011962890625">
        <ele>2052</ele>
        <time>2021-07-22T08:19:00.000Z</time>
      </trkpt>
      <trkpt lat="43.00952590070664882659912109375" lon="-4.7409018315374851226806640625">
        <ele>2052.60009765625</ele>
        <time>2021-07-22T08:19:03.000Z</time>
      </trkpt>
      <trkpt lat="43.00954853184521198272705078125" lon="-4.74092002026736736297607421875">
        <ele>2053</ele>
        <time>2021-07-22T08:19:05.000Z</time>
      </trkpt>
      <trkpt lat="43.00958910025656223297119140625" lon="-4.7409211099147796630859375">
        <ele>2054</ele>
        <time>2021-07-22T08:19:09.000Z</time>
      </trkpt>
      <trkpt lat="43.0095948837697505950927734375" lon="-4.74092387594282627105712890625">
        <ele>2054</ele>
        <time>2021-07-22T08:19:10.000Z</time>
      </trkpt>
      <trkpt lat="43.00960184074938297271728515625" lon="-4.740926809608936309814453125">
        <ele>2054.199951171875</ele>
        <time>2021-07-22T08:19:11.000Z</time>
      </trkpt>
      <trkpt lat="43.00961810164153575897216796875" lon="-4.74093879573047161102294921875">
        <ele>2054.800048828125</ele>
        <time>2021-07-22T08:19:13.000Z</time>
      </trkpt>
      <trkpt lat="43.009639643132686614990234375" lon="-4.74094592034816741943359375">
        <ele>2055.199951171875</ele>
        <time>2021-07-22T08:19:15.000Z</time>
      </trkpt>
      <trkpt lat="43.0096502043306827545166015625" lon="-4.74095371551811695098876953125">
        <ele>2055.60009765625</ele>
        <time>2021-07-22T08:19:16.000Z</time>
      </trkpt>
      <trkpt lat="43.00966336391866207122802734375" lon="-4.74095975048840045928955078125">
        <ele>2056</ele>
        <time>2021-07-22T08:19:17.000Z</time>
      </trkpt>
      <trkpt lat="43.00968750379979610443115234375" lon="-4.74097215570509433746337890625">
        <ele>2056.199951171875</ele>
        <time>2021-07-22T08:19:19.000Z</time>
      </trkpt>
      <trkpt lat="43.00973041914403438568115234375" lon="-4.7409843094646930694580078125">
        <ele>2057</ele>
        <time>2021-07-22T08:19:23.000Z</time>
      </trkpt>
      <trkpt lat="43.0097695626318454742431640625" lon="-4.7409926913678646087646484375">
        <ele>2057.199951171875</ele>
        <time>2021-07-22T08:19:26.000Z</time>
      </trkpt>
      <trkpt lat="43.00979244522750377655029296875" lon="-4.74099956452846527099609375">
        <ele>2057.60009765625</ele>
        <time>2021-07-22T08:19:28.000Z</time>
      </trkpt>
      <trkpt lat="43.0098158307373523712158203125" lon="-4.74102462641894817352294921875">
        <ele>2058.39990234375</ele>
        <time>2021-07-22T08:19:31.000Z</time>
      </trkpt>
      <trkpt lat="43.0098533816635608673095703125" lon="-4.7410443238914012908935546875">
        <ele>2058.60009765625</ele>
        <time>2021-07-22T08:19:34.000Z</time>
      </trkpt>
      <trkpt lat="43.00988833419978618621826171875" lon="-4.74108447320759296417236328125">
        <ele>2058.60009765625</ele>
        <time>2021-07-22T08:19:38.000Z</time>
      </trkpt>
      <trkpt lat="43.009900152683258056640625" lon="-4.74110224284231662750244140625">
        <ele>2059</ele>
        <time>2021-07-22T08:19:40.000Z</time>
      </trkpt>
      <trkpt lat="43.00991364754736423492431640625" lon="-4.74111816845834255218505859375">
        <ele>2059.60009765625</ele>
        <time>2021-07-22T08:19:42.000Z</time>
      </trkpt>
      <trkpt lat="43.009917922317981719970703125" lon="-4.74114381708204746246337890625">
        <ele>2060.199951171875</ele>
        <time>2021-07-22T08:19:44.000Z</time>
      </trkpt>
      <trkpt lat="43.0099283158779144287109375" lon="-4.74117432720959186553955078125">
        <ele>2060.800048828125</ele>
        <time>2021-07-22T08:19:47.000Z</time>
      </trkpt>
      <trkpt lat="43.00993435084819793701171875" lon="-4.7411777637898921966552734375">
        <ele>2060.800048828125</ele>
        <time>2021-07-22T08:19:48.000Z</time>
      </trkpt>
      <trkpt lat="43.009955473244190216064453125" lon="-4.741195030510425567626953125">
        <ele>2061.800048828125</ele>
        <time>2021-07-22T08:19:51.000Z</time>
      </trkpt>
      <trkpt lat="43.0099620111286640167236328125" lon="-4.74120433442294597625732421875">
        <ele>2062.199951171875</ele>
        <time>2021-07-22T08:19:52.000Z</time>
      </trkpt>
      <trkpt lat="43.009980283677577972412109375" lon="-4.74120852537453174591064453125">
        <ele>2062.800048828125</ele>
        <time>2021-07-22T08:19:54.000Z</time>
      </trkpt>
      <trkpt lat="43.009984306991100311279296875" lon="-4.741216488182544708251953125">
        <ele>2063</ele>
        <time>2021-07-22T08:19:55.000Z</time>
      </trkpt>
      <trkpt lat="43.01000333391129970550537109375" lon="-4.74123400636017322540283203125">
        <ele>2063.39990234375</ele>
        <time>2021-07-22T08:19:57.000Z</time>
      </trkpt>
      <trkpt lat="43.010023869574069976806640625" lon="-4.74124138243496417999267578125">
        <ele>2064.199951171875</ele>
        <time>2021-07-22T08:19:59.000Z</time>
      </trkpt>
      <trkpt lat="43.01003568805754184722900390625" lon="-4.74125881679356098175048828125">
        <ele>2064.39990234375</ele>
        <time>2021-07-22T08:20:01.000Z</time>
      </trkpt>
      <trkpt lat="43.01003904081881046295166015625" lon="-4.74128630943596363067626953125">
        <ele>2064.39990234375</ele>
        <time>2021-07-22T08:20:03.000Z</time>
      </trkpt>
      <trkpt lat="43.010039962828159332275390625" lon="-4.74141656421124935150146484375">
        <ele>2065.199951171875</ele>
        <time>2021-07-22T08:20:09.000Z</time>
      </trkpt>
      <trkpt lat="43.01004122011363506317138671875" lon="-4.7414245270192623138427734375">
        <ele>2065.60009765625</ele>
        <time>2021-07-22T08:20:10.000Z</time>
      </trkpt>
      <trkpt lat="43.010052703320980072021484375" lon="-4.74144883453845977783203125">
        <ele>2066.39990234375</ele>
        <time>2021-07-22T08:20:13.000Z</time>
      </trkpt>
      <trkpt lat="43.010060749948024749755859375" lon="-4.7415251098573207855224609375">
        <ele>2067.39990234375</ele>
        <time>2021-07-22T08:20:18.000Z</time>
      </trkpt>
      <trkpt lat="43.010072149336338043212890625" lon="-4.74162317812442779541015625">
        <ele>2067</ele>
        <time>2021-07-22T08:20:23.000Z</time>
      </trkpt>
      <trkpt lat="43.010086901485919952392578125" lon="-4.7416303865611553192138671875">
        <ele>2066.800048828125</ele>
        <time>2021-07-22T08:20:24.000Z</time>
      </trkpt>
      <trkpt lat="43.01012068055570125579833984375" lon="-4.7416407801210880279541015625">
        <ele>2066.60009765625</ele>
        <time>2021-07-22T08:20:26.000Z</time>
      </trkpt>
      <trkpt lat="43.01016175188124179840087890625" lon="-4.7416518442332744598388671875">
        <ele>2066.60009765625</ele>
        <time>2021-07-22T08:20:29.000Z</time>
      </trkpt>
      <trkpt lat="43.0102221854031085968017578125" lon="-4.74169417284429073333740234375">
        <ele>2067.39990234375</ele>
        <time>2021-07-22T08:20:36.000Z</time>
      </trkpt>
      <trkpt lat="43.01023718900978565216064453125" lon="-4.74168662913143634796142578125">
        <ele>2067.800048828125</ele>
        <time>2021-07-22T08:20:39.000Z</time>
      </trkpt>
      <trkpt lat="43.01025412045419216156005859375" lon="-4.741688556969165802001953125">
        <ele>2068</ele>
        <time>2021-07-22T08:20:43.000Z</time>
      </trkpt>
      <trkpt lat="43.0103118717670440673828125" lon="-4.74169299937784671783447265625">
        <ele>2068</ele>
        <time>2021-07-22T08:20:47.000Z</time>
      </trkpt>
      <trkpt lat="43.0103707127273082733154296875" lon="-4.74170154891908168792724609375">
        <ele>2068.199951171875</ele>
        <time>2021-07-22T08:20:51.000Z</time>
      </trkpt>
      <trkpt lat="43.010380603373050689697265625" lon="-4.74170624278485774993896484375">
        <ele>2068.39990234375</ele>
        <time>2021-07-22T08:20:52.000Z</time>
      </trkpt>
      <trkpt lat="43.01042695529758930206298828125" lon="-4.74172510206699371337890625">
        <ele>2069.60009765625</ele>
        <time>2021-07-22T08:20:56.000Z</time>
      </trkpt>
      <trkpt lat="43.01044053398072719573974609375" lon="-4.741725437343120574951171875">
        <ele>2069.800048828125</ele>
        <time>2021-07-22T08:20:57.000Z</time>
      </trkpt>
      <trkpt lat="43.01050574518740177154541015625" lon="-4.741714037954807281494140625">
        <ele>2070.60009765625</ele>
        <time>2021-07-22T08:21:02.000Z</time>
      </trkpt>
      <trkpt lat="43.0105138756334781646728515625" lon="-4.741714708507061004638671875">
        <ele>2070.800048828125</ele>
        <time>2021-07-22T08:21:03.000Z</time>
      </trkpt>
      <trkpt lat="43.0105410329997539520263671875" lon="-4.74174329079687595367431640625">
        <ele>2070.800048828125</ele>
        <time>2021-07-22T08:21:07.000Z</time>
      </trkpt>
      <trkpt lat="43.0105559527873992919921875" lon="-4.74174513481557369232177734375">
        <ele>2071</ele>
        <time>2021-07-22T08:21:09.000Z</time>
      </trkpt>
      <trkpt lat="43.0105923302471637725830078125" lon="-4.741792492568492889404296875">
        <ele>2071</ele>
        <time>2021-07-22T08:21:12.000Z</time>
      </trkpt>
      <trkpt lat="43.01063013263046741485595703125" lon="-4.741828031837940216064453125">
        <ele>2070.60009765625</ele>
        <time>2021-07-22T08:21:15.000Z</time>
      </trkpt>
      <trkpt lat="43.0106372572481632232666015625" lon="-4.741843454539775848388671875">
        <ele>2070.60009765625</ele>
        <time>2021-07-22T08:21:16.000Z</time>
      </trkpt>
      <trkpt lat="43.010638095438480377197265625" lon="-4.741860218346118927001953125">
        <ele>2070.60009765625</ele>
        <time>2021-07-22T08:21:17.000Z</time>
      </trkpt>
      <trkpt lat="43.01063449122011661529541015625" lon="-4.7419240884482860565185546875">
        <ele>2070.60009765625</ele>
        <time>2021-07-22T08:21:20.000Z</time>
      </trkpt>
      <trkpt lat="43.0106439627707004547119140625" lon="-4.74193640984594821929931640625">
        <ele>2070.60009765625</ele>
        <time>2021-07-22T08:21:21.000Z</time>
      </trkpt>
      <trkpt lat="43.0107046477496623992919921875" lon="-4.74197949282824993133544921875">
        <ele>2069.60009765625</ele>
        <time>2021-07-22T08:21:25.000Z</time>
      </trkpt>
      <trkpt lat="43.01071889698505401611328125" lon="-4.74197991192340850830078125">
        <ele>2069.39990234375</ele>
        <time>2021-07-22T08:21:26.000Z</time>
      </trkpt>
      <trkpt lat="43.01074848510324954986572265625" lon="-4.74196054972708225250244140625">
        <ele>2069.199951171875</ele>
        <time>2021-07-22T08:21:28.000Z</time>
      </trkpt>
      <trkpt lat="43.01078855060040950775146484375" lon="-4.74190824665129184722900390625">
        <ele>2069.199951171875</ele>
        <time>2021-07-22T08:21:31.000Z</time>
      </trkpt>
      <trkpt lat="43.01084630191326141357421875" lon="-4.7418737970292568206787109375">
        <ele>2070.39990234375</ele>
        <time>2021-07-22T08:21:35.000Z</time>
      </trkpt>
      <trkpt lat="43.01087773405015468597412109375" lon="-4.7418798319995403289794921875">
        <ele>2070</ele>
        <time>2021-07-22T08:21:38.000Z</time>
      </trkpt>
      <trkpt lat="43.01088175736367702484130859375" lon="-4.74188595078885555267333984375">
        <ele>2070</ele>
        <time>2021-07-22T08:21:39.000Z</time>
      </trkpt>
      <trkpt lat="43.0109078250825405120849609375" lon="-4.74190824665129184722900390625">
        <ele>2071</ele>
        <time>2021-07-22T08:21:43.000Z</time>
      </trkpt>
      <trkpt lat="43.01092769019305706024169921875" lon="-4.7419430315494537353515625">
        <ele>2072.199951171875</ele>
        <time>2021-07-22T08:21:48.000Z</time>
      </trkpt>
      <trkpt lat="43.0109379999339580535888671875" lon="-4.74195443093776702880859375">
        <ele>2072.60009765625</ele>
        <time>2021-07-22T08:21:49.000Z</time>
      </trkpt>
      <trkpt lat="43.010952584445476531982421875" lon="-4.7419779002666473388671875">
        <ele>2073.39990234375</ele>
        <time>2021-07-22T08:21:51.000Z</time>
      </trkpt>
      <trkpt lat="43.01096406765282154083251953125" lon="-4.74199307151138782501220703125">
        <ele>2073.800048828125</ele>
        <time>2021-07-22T08:21:53.000Z</time>
      </trkpt>
      <trkpt lat="43.010978065431118011474609375" lon="-4.74199525080621242523193359375">
        <ele>2074.39990234375</ele>
        <time>2021-07-22T08:21:56.000Z</time>
      </trkpt>
      <trkpt lat="43.010996170341968536376953125" lon="-4.74199927411973476409912109375">
        <ele>2074.60009765625</ele>
        <time>2021-07-22T08:21:58.000Z</time>
      </trkpt>
      <trkpt lat="43.0110043846070766448974609375" lon="-4.74200597964227199554443359375">
        <ele>2075</ele>
        <time>2021-07-22T08:21:59.000Z</time>
      </trkpt>
      <trkpt lat="43.01101804710924625396728515625" lon="-4.74201888777315616607666015625">
        <ele>2075.60009765625</ele>
        <time>2021-07-22T08:22:01.000Z</time>
      </trkpt>
      <trkpt lat="43.0110281892120838165283203125" lon="-4.7420213185250759124755859375">
        <ele>2076</ele>
        <time>2021-07-22T08:22:04.000Z</time>
      </trkpt>
      <trkpt lat="43.0110483057796955108642578125" lon="-4.74202794022858142852783203125">
        <ele>2076.60009765625</ele>
        <time>2021-07-22T08:22:08.000Z</time>
      </trkpt>
      <trkpt lat="43.01104838959872722625732421875" lon="-4.742035903036594390869140625">
        <ele>2076.39990234375</ele>
        <time>2021-07-22T08:22:09.000Z</time>
      </trkpt>
      <trkpt lat="43.0110496468842029571533203125" lon="-4.7420866973698139190673828125">
        <ele>2076.39990234375</ele>
        <time>2021-07-22T08:22:14.000Z</time>
      </trkpt>
      <trkpt lat="43.01106850616633892059326171875" lon="-4.7420840151607990264892578125">
        <ele>2077.60009765625</ele>
        <time>2021-07-22T08:22:17.000Z</time>
      </trkpt>
      <trkpt lat="43.01107940264046192169189453125" lon="-4.7420719452202320098876953125">
        <ele>2078.199951171875</ele>
        <time>2021-07-22T08:22:19.000Z</time>
      </trkpt>
      <trkpt lat="43.0110851861536502838134765625" lon="-4.7420851886272430419921875">
        <ele>2078.800048828125</ele>
        <time>2021-07-22T08:22:22.000Z</time>
      </trkpt>
      <trkpt lat="43.0110955797135829925537109375" lon="-4.74208611063659191131591796875">
        <ele>2078.800048828125</ele>
        <time>2021-07-22T08:22:24.000Z</time>
      </trkpt>
      <trkpt lat="43.009565882384777069091796875" lon="-4.7409184277057647705078125">
        <ele>2064.800048828125</ele>
        <time>2021-07-22T08:28:24.000Z</time>
      </trkpt>
      <trkpt lat="43.009523637592792510986328125" lon="-4.740895293653011322021484375">
        <ele>2063.39990234375</ele>
        <time>2021-07-22T08:28:26.000Z</time>
      </trkpt>
      <trkpt lat="43.009481728076934814453125" lon="-4.74087341688573360443115234375">
        <ele>2063</ele>
        <time>2021-07-22T08:28:28.000Z</time>
      </trkpt>
      <trkpt lat="43.00935340113937854766845703125" lon="-4.74080217070877552032470703125">
        <ele>2063.199951171875</ele>
        <time>2021-07-22T08:28:33.000Z</time>
      </trkpt>
      <trkpt lat="43.009274192154407501220703125" lon="-4.74075472913682460784912109375">
        <ele>2062.199951171875</ele>
        <time>2021-07-22T08:28:36.000Z</time>
      </trkpt>
      <trkpt lat="43.00922146998345851898193359375" lon="-4.74072623066604137420654296875">
        <ele>2060.60009765625</ele>
        <time>2021-07-22T08:28:38.000Z</time>
      </trkpt>
      <trkpt lat="43.00919833593070507049560546875" lon="-4.74071466363966464996337890625">
        <ele>2060</ele>
        <time>2021-07-22T08:28:39.000Z</time>
      </trkpt>
      <trkpt lat="43.00917671062052249908447265625" lon="-4.74070854485034942626953125">
        <ele>2059.39990234375</ele>
        <time>2021-07-22T08:28:40.000Z</time>
      </trkpt>
      <trkpt lat="43.00910445861518383026123046875" lon="-4.74077635444700717926025390625">
        <ele>2058.800048828125</ele>
        <time>2021-07-22T08:28:44.000Z</time>
      </trkpt>
      <trkpt lat="43.00909372977912425994873046875" lon="-4.74080937914550304412841796875">
        <ele>2058</ele>
        <time>2021-07-22T08:28:45.000Z</time>
      </trkpt>
      <trkpt lat="43.00906640477478504180908203125" lon="-4.740857742726802825927734375">
        <ele>2056.39990234375</ele>
        <time>2021-07-22T08:28:47.000Z</time>
      </trkpt>
      <trkpt lat="43.00905483774840831756591796875" lon="-4.740881882607936859130859375">
        <ele>2055.199951171875</ele>
        <time>2021-07-22T08:28:48.000Z</time>
      </trkpt>
      <trkpt lat="43.009048886597156524658203125" lon="-4.74093980155885219573974609375">
        <ele>2053.800048828125</ele>
        <time>2021-07-22T08:28:50.000Z</time>
      </trkpt>
      <trkpt lat="43.0090547539293766021728515625" lon="-4.74096645601093769073486328125">
        <ele>2053.60009765625</ele>
        <time>2021-07-22T08:28:51.000Z</time>
      </trkpt>
      <trkpt lat="43.00905986689031124114990234375" lon="-4.7409829683601856231689453125">
        <ele>2053.199951171875</ele>
        <time>2021-07-22T08:28:52.000Z</time>
      </trkpt>
      <trkpt lat="43.0090614594519138336181640625" lon="-4.7409908473491668701171875">
        <ele>2052.60009765625</ele>
        <time>2021-07-22T08:28:53.000Z</time>
      </trkpt>
      <trkpt lat="43.00905886106193065643310546875" lon="-4.74100358784198760986328125">
        <ele>2051</ele>
        <time>2021-07-22T08:28:55.000Z</time>
      </trkpt>
      <trkpt lat="43.00905634649097919464111328125" lon="-4.74101691506803035736083984375">
        <ele>2050.60009765625</ele>
        <time>2021-07-22T08:28:56.000Z</time>
      </trkpt>
      <trkpt lat="43.0090490542352199554443359375" lon="-4.7410315833985805511474609375">
        <ele>2050</ele>
        <time>2021-07-22T08:28:58.000Z</time>
      </trkpt>
      <trkpt lat="43.00905098207294940948486328125" lon="-4.74103082902729511260986328125">
        <ele>2050</ele>
        <time>2021-07-22T08:29:00.000Z</time>
      </trkpt>
      <trkpt lat="43.0090587772428989410400390625" lon="-4.741020016372203826904296875">
        <ele>2049.800048828125</ele>
        <time>2021-07-22T08:29:02.000Z</time>
      </trkpt>
      <trkpt lat="43.009064309298992156982421875" lon="-4.7410175018012523651123046875">
        <ele>2048.800048828125</ele>
        <time>2021-07-22T08:29:06.000Z</time>
      </trkpt>
      <trkpt lat="43.00907738506793975830078125" lon="-4.741008616983890533447265625">
        <ele>2047.800048828125</ele>
        <time>2021-07-22T08:29:12.000Z</time>
      </trkpt>
      <trkpt lat="43.00907872617244720458984375" lon="-4.74100534804165363311767578125">
        <ele>2047.800048828125</ele>
        <time>2021-07-22T08:29:13.000Z</time>
      </trkpt>
      <trkpt lat="43.00905953161418437957763671875" lon="-4.7410161606967449188232421875">
        <ele>2047.800048828125</ele>
        <time>2021-07-22T08:29:22.000Z</time>
      </trkpt>
      <trkpt lat="43.00905534066259860992431640625" lon="-4.741024710237979888916015625">
        <ele>2048.199951171875</ele>
        <time>2021-07-22T08:29:25.000Z</time>
      </trkpt>
      <trkpt lat="43.00905114971101284027099609375" lon="-4.7410708107054233551025390625">
        <ele>2048</ele>
        <time>2021-07-22T08:29:29.000Z</time>
      </trkpt>
      <trkpt lat="43.009038157761096954345703125" lon="-4.74111380986869335174560546875">
        <ele>2047.4000244140625</ele>
        <time>2021-07-22T08:29:32.000Z</time>
      </trkpt>
      <trkpt lat="43.0090242438018321990966796875" lon="-4.74114230833947658538818359375">
        <ele>2046.5999755859375</ele>
        <time>2021-07-22T08:29:34.000Z</time>
      </trkpt>
      <trkpt lat="43.0089876987040042877197265625" lon="-4.74116527475416660308837890625">
        <ele>2045.800048828125</ele>
        <time>2021-07-22T08:29:37.000Z</time>
      </trkpt>
      <trkpt lat="43.00896850414574146270751953125" lon="-4.74116628058254718780517578125">
        <ele>2045.5999755859375</ele>
        <time>2021-07-22T08:29:38.000Z</time>
      </trkpt>
      <trkpt lat="43.008944950997829437255859375" lon="-4.74117281846702098846435546875">
        <ele>2045</ele>
        <time>2021-07-22T08:29:39.000Z</time>
      </trkpt>
      <trkpt lat="43.00890094600617885589599609375" lon="-4.741195701062679290771484375">
        <ele>2043.4000244140625</ele>
        <time>2021-07-22T08:29:41.000Z</time>
      </trkpt>
      <trkpt lat="43.0088646523654460906982421875" lon="-4.741215147078037261962890625">
        <ele>2041.800048828125</ele>
        <time>2021-07-22T08:29:43.000Z</time>
      </trkpt>
      <trkpt lat="43.00884411670267581939697265625" lon="-4.74122461862862110137939453125">
        <ele>2041.199951171875</ele>
        <time>2021-07-22T08:29:44.000Z</time>
      </trkpt>
      <trkpt lat="43.00882198847830295562744140625" lon="-4.74123652093112468719482421875">
        <ele>2040.5999755859375</ele>
        <time>2021-07-22T08:29:45.000Z</time>
      </trkpt>
      <trkpt lat="43.00877504982054233551025390625" lon="-4.741261415183544158935546875">
        <ele>2039.5999755859375</ele>
        <time>2021-07-22T08:29:47.000Z</time>
      </trkpt>
      <trkpt lat="43.0087566934525966644287109375" lon="-4.741276167333126068115234375">
        <ele>2039</ele>
        <time>2021-07-22T08:29:48.000Z</time>
      </trkpt>
      <trkpt lat="43.0087392590939998626708984375" lon="-4.7412853874266147613525390625">
        <ele>2038.5999755859375</ele>
        <time>2021-07-22T08:29:49.000Z</time>
      </trkpt>
      <trkpt lat="43.0087235011160373687744140625" lon="-4.74130374379456043243408203125">
        <ele>2037.199951171875</ele>
        <time>2021-07-22T08:29:50.000Z</time>
      </trkpt>
      <trkpt lat="43.0086859501898288726806640625" lon="-4.7413329966366291046142578125">
        <ele>2036.199951171875</ele>
        <time>2021-07-22T08:29:52.000Z</time>
      </trkpt>
      <trkpt lat="43.00855644978582859039306640625" lon="-4.74135353229939937591552734375">
        <ele>2035</ele>
        <time>2021-07-22T08:29:57.000Z</time>
      </trkpt>
      <trkpt lat="43.00853180699050426483154296875" lon="-4.74134531803429126739501953125">
        <ele>2034.4000244140625</ele>
        <time>2021-07-22T08:29:58.000Z</time>
      </trkpt>
      <trkpt lat="43.0084318108856678009033203125" lon="-4.74126367829740047454833984375">
        <ele>2034</ele>
        <time>2021-07-22T08:30:03.000Z</time>
      </trkpt>
      <trkpt lat="43.008391745388507843017578125" lon="-4.74124758504331111907958984375">
        <ele>2032.800048828125</ele>
        <time>2021-07-22T08:30:05.000Z</time>
      </trkpt>
      <trkpt lat="43.00832913257181644439697265625" lon="-4.7412461601197719573974609375">
        <ele>2031</ele>
        <time>2021-07-22T08:30:08.000Z</time>
      </trkpt>
      <trkpt lat="43.00830650143325328826904296875" lon="-4.7412590682506561279296875">
        <ele>2030</ele>
        <time>2021-07-22T08:30:10.000Z</time>
      </trkpt>
      <trkpt lat="43.00829845480620861053466796875" lon="-4.74126049317419528961181640625">
        <ele>2029.4000244140625</ele>
        <time>2021-07-22T08:30:12.000Z</time>
      </trkpt>
      <trkpt lat="43.00829577259719371795654296875" lon="-4.74126468412578105926513671875">
        <ele>2028.5999755859375</ele>
        <time>2021-07-22T08:30:14.000Z</time>
      </trkpt>
      <trkpt lat="43.0082816071808338165283203125" lon="-4.74127440713346004486083984375">
        <ele>2027.5999755859375</ele>
        <time>2021-07-22T08:30:17.000Z</time>
      </trkpt>
      <trkpt lat="43.0082809366285800933837890625" lon="-4.741278849542140960693359375">
        <ele>2027.4000244140625</ele>
        <time>2021-07-22T08:30:18.000Z</time>
      </trkpt>
      <trkpt lat="43.00824615173041820526123046875" lon="-4.741308353841304779052734375">
        <ele>2026.5999755859375</ele>
        <time>2021-07-22T08:30:23.000Z</time>
      </trkpt>
      <trkpt lat="43.00823592580854892730712890625" lon="-4.741314388811588287353515625">
        <ele>2026.5999755859375</ele>
        <time>2021-07-22T08:30:24.000Z</time>
      </trkpt>
      <trkpt lat="43.00821505486965179443359375" lon="-4.74132184870541095733642578125">
        <ele>2026.4000244140625</ele>
        <time>2021-07-22T08:30:26.000Z</time>
      </trkpt>
      <trkpt lat="43.0081982910633087158203125" lon="-4.7413380257785320281982421875">
        <ele>2026.199951171875</ele>
        <time>2021-07-22T08:30:28.000Z</time>
      </trkpt>
      <trkpt lat="43.00819720141589641571044921875" lon="-4.74135587923228740692138671875">
        <ele>2025.800048828125</ele>
        <time>2021-07-22T08:30:29.000Z</time>
      </trkpt>
      <trkpt lat="43.00819502212107181549072265625" lon="-4.74137264303863048553466796875">
        <ele>2025.4000244140625</ele>
        <time>2021-07-22T08:30:30.000Z</time>
      </trkpt>
      <trkpt lat="43.00819225609302520751953125" lon="-4.74140700884163379669189453125">
        <ele>2024</ele>
        <time>2021-07-22T08:30:32.000Z</time>
      </trkpt>
      <trkpt lat="43.008190579712390899658203125" lon="-4.7414101101458072662353515625">
        <ele>2023.4000244140625</ele>
        <time>2021-07-22T08:30:33.000Z</time>
      </trkpt>
      <trkpt lat="43.00818697549402713775634765625" lon="-4.74140063859522342681884765625">
        <ele>2023</ele>
        <time>2021-07-22T08:30:34.000Z</time>
      </trkpt>
      <trkpt lat="43.0081821978092193603515625" lon="-4.741389490664005279541015625">
        <ele>2022.5999755859375</ele>
        <time>2021-07-22T08:30:35.000Z</time>
      </trkpt>
      <trkpt lat="43.0081780068576335906982421875" lon="-4.74137381650507450103759765625">
        <ele>2022.4000244140625</ele>
        <time>2021-07-22T08:30:36.000Z</time>
      </trkpt>
      <trkpt lat="43.00816568545997142791748046875" lon="-4.74134749732911586761474609375">
        <ele>2022</ele>
        <time>2021-07-22T08:30:38.000Z</time>
      </trkpt>
      <trkpt lat="43.0081548728048801422119140625" lon="-4.74133676849305629730224609375">
        <ele>2021.5999755859375</ele>
        <time>2021-07-22T08:30:39.000Z</time>
      </trkpt>
      <trkpt lat="43.008140958845615386962890625" lon="-4.74132855422794818878173828125">
        <ele>2021.4000244140625</ele>
        <time>2021-07-22T08:30:40.000Z</time>
      </trkpt>
      <trkpt lat="43.00811086781322956085205078125" lon="-4.7413296438753604888916015625">
        <ele>2020.800048828125</ele>
        <time>2021-07-22T08:30:42.000Z</time>
      </trkpt>
      <trkpt lat="43.00809779204428195953369140625" lon="-4.74134028889238834381103515625">
        <ele>2020.199951171875</ele>
        <time>2021-07-22T08:30:43.000Z</time>
      </trkpt>
      <trkpt lat="43.00808639265596866607666015625" lon="-4.74134984426200389862060546875">
        <ele>2019.5999755859375</ele>
        <time>2021-07-22T08:30:44.000Z</time>
      </trkpt>
      <trkpt lat="43.0080749094486236572265625" lon="-4.74135872907936573028564453125">
        <ele>2019.199951171875</ele>
        <time>2021-07-22T08:30:45.000Z</time>
      </trkpt>
      <trkpt lat="43.00806812010705471038818359375" lon="-4.74136476404964923858642578125">
        <ele>2017.800048828125</ele>
        <time>2021-07-22T08:30:46.000Z</time>
      </trkpt>
      <trkpt lat="43.008055128157138824462890625" lon="-4.7413702122867107391357421875">
        <ele>2016.5999755859375</ele>
        <time>2021-07-22T08:30:48.000Z</time>
      </trkpt>
      <trkpt lat="43.00804632715880870819091796875" lon="-4.74136912263929843902587890625">
        <ele>2016.199951171875</ele>
        <time>2021-07-22T08:30:50.000Z</time>
      </trkpt>
      <trkpt lat="43.00801414065062999725341796875" lon="-4.7413792647421360015869140625">
        <ele>2015.5999755859375</ele>
        <time>2021-07-22T08:30:53.000Z</time>
      </trkpt>
      <trkpt lat="43.0079996399581432342529296875" lon="-4.74139158613979816436767578125">
        <ele>2015.4000244140625</ele>
        <time>2021-07-22T08:30:54.000Z</time>
      </trkpt>
      <trkpt lat="43.0079124681651592254638671875" lon="-4.74146065302193164825439453125">
        <ele>2014.4000244140625</ele>
        <time>2021-07-22T08:30:59.000Z</time>
      </trkpt>
      <trkpt lat="43.007858656346797943115234375" lon="-4.7414922527968883514404296875">
        <ele>2013.199951171875</ele>
        <time>2021-07-22T08:31:02.000Z</time>
      </trkpt>
      <trkpt lat="43.0078254640102386474609375" lon="-4.74152301438152790069580078125">
        <ele>2012.199951171875</ele>
        <time>2021-07-22T08:31:04.000Z</time>
      </trkpt>
      <trkpt lat="43.00780878402292728424072265625" lon="-4.741539694368839263916015625">
        <ele>2012</ele>
        <time>2021-07-22T08:31:05.000Z</time>
      </trkpt>
      <trkpt lat="43.00773334689438343048095703125" lon="-4.741594009101390838623046875">
        <ele>2010.4000244140625</ele>
        <time>2021-07-22T08:31:09.000Z</time>
      </trkpt>
      <trkpt lat="43.0077180080115795135498046875" lon="-4.74160306155681610107421875">
        <ele>2010</ele>
        <time>2021-07-22T08:31:10.000Z</time>
      </trkpt>
      <trkpt lat="43.0076690576970577239990234375" lon="-4.7416273690760135650634765625">
        <ele>2008.800048828125</ele>
        <time>2021-07-22T08:31:13.000Z</time>
      </trkpt>
      <trkpt lat="43.00765489228069782257080078125" lon="-4.74164421670138835906982421875">
        <ele>2008.4000244140625</ele>
        <time>2021-07-22T08:31:14.000Z</time>
      </trkpt>
      <trkpt lat="43.00763796083629131317138671875" lon="-4.7416619025170803070068359375">
        <ele>2008.199951171875</ele>
        <time>2021-07-22T08:31:15.000Z</time>
      </trkpt>
      <trkpt lat="43.0076231248676776885986328125" lon="-4.74168009124696254730224609375">
        <ele>2007.5999755859375</ele>
        <time>2021-07-22T08:31:16.000Z</time>
      </trkpt>
      <trkpt lat="43.007608540356159210205078125" lon="-4.7417031414806842803955078125">
        <ele>2007</ele>
        <time>2021-07-22T08:31:17.000Z</time>
      </trkpt>
      <trkpt lat="43.007590435445308685302734375" lon="-4.741726778447628021240234375">
        <ele>2006.4000244140625</ele>
        <time>2021-07-22T08:31:18.000Z</time>
      </trkpt>
      <trkpt lat="43.00755397416651248931884765625" lon="-4.74176642484962940216064453125">
        <ele>2005.199951171875</ele>
        <time>2021-07-22T08:31:20.000Z</time>
      </trkpt>
      <trkpt lat="43.007497228682041168212890625" lon="-4.7418384253978729248046875">
        <ele>2004</ele>
        <time>2021-07-22T08:31:23.000Z</time>
      </trkpt>
      <trkpt lat="43.00742086954414844512939453125" lon="-4.741931296885013580322265625">
        <ele>2003.800048828125</ele>
        <time>2021-07-22T08:31:27.000Z</time>
      </trkpt>
      <trkpt lat="43.00738088786602020263671875" lon="-4.7419787384569644927978515625">
        <ele>2002.4000244140625</ele>
        <time>2021-07-22T08:31:29.000Z</time>
      </trkpt>
      <trkpt lat="43.00735917873680591583251953125" lon="-4.74199022166430950164794921875">
        <ele>2001</ele>
        <time>2021-07-22T08:31:30.000Z</time>
      </trkpt>
      <trkpt lat="43.00733788870275020599365234375" lon="-4.74200480617582798004150390625">
        <ele>2000.199951171875</ele>
        <time>2021-07-22T08:31:31.000Z</time>
      </trkpt>
      <trkpt lat="43.0073158442974090576171875" lon="-4.74201788194477558135986328125">
        <ele>1999.800048828125</ele>
        <time>2021-07-22T08:31:32.000Z</time>
      </trkpt>
      <trkpt lat="43.007293045520782470703125" lon="-4.7420317120850086212158203125">
        <ele>2000</ele>
        <time>2021-07-22T08:31:33.000Z</time>
      </trkpt>
      <trkpt lat="43.0071966536343097686767578125" lon="-4.742108993232250213623046875">
        <ele>1998.4000244140625</ele>
        <time>2021-07-22T08:31:37.000Z</time>
      </trkpt>
      <trkpt lat="43.00712398253381252288818359375" lon="-4.74216255359351634979248046875">
        <ele>1997</ele>
        <time>2021-07-22T08:31:40.000Z</time>
      </trkpt>
      <trkpt lat="43.0071010999381542205810546875" lon="-4.742180071771144866943359375">
        <ele>1996.800048828125</ele>
        <time>2021-07-22T08:31:41.000Z</time>
      </trkpt>
      <trkpt lat="43.0070266686379909515380859375" lon="-4.742224328219890594482421875">
        <ele>1995.800048828125</ele>
        <time>2021-07-22T08:31:44.000Z</time>
      </trkpt>
      <trkpt lat="43.00697746686637401580810546875" lon="-4.74224385805428028106689453125">
        <ele>1994.5999755859375</ele>
        <time>2021-07-22T08:31:46.000Z</time>
      </trkpt>
      <trkpt lat="43.00690873526036739349365234375" lon="-4.74225173704326152801513671875">
        <ele>1993.5999755859375</ele>
        <time>2021-07-22T08:31:49.000Z</time>
      </trkpt>
      <trkpt lat="43.00687319599092006683349609375" lon="-4.74225240759551525115966796875">
        <ele>1993.199951171875</ele>
        <time>2021-07-22T08:31:51.000Z</time>
      </trkpt>
      <trkpt lat="43.00683614797890186309814453125" lon="-4.74227906204760074615478515625">
        <ele>1991.5999755859375</ele>
        <time>2021-07-22T08:31:53.000Z</time>
      </trkpt>
      <trkpt lat="43.0067859403789043426513671875" lon="-4.7423009388148784637451171875">
        <ele>1990.199951171875</ele>
        <time>2021-07-22T08:31:55.000Z</time>
      </trkpt>
      <trkpt lat="43.00675953738391399383544921875" lon="-4.74231384694576263427734375">
        <ele>1989.800048828125</ele>
        <time>2021-07-22T08:31:56.000Z</time>
      </trkpt>
      <trkpt lat="43.00673087127506732940673828125" lon="-4.742326252162456512451171875">
        <ele>1989.199951171875</ele>
        <time>2021-07-22T08:31:57.000Z</time>
      </trkpt>
      <trkpt lat="43.0066977627575397491455078125" lon="-4.7423378191888332366943359375">
        <ele>1988.199951171875</ele>
        <time>2021-07-22T08:31:58.000Z</time>
      </trkpt>
      <trkpt lat="43.00663531757891178131103515625" lon="-4.7423485480248928070068359375">
        <ele>1986.4000244140625</ele>
        <time>2021-07-22T08:32:00.000Z</time>
      </trkpt>
      <trkpt lat="43.00660598091781139373779296875" lon="-4.74235516972839832305908203125">
        <ele>1985.199951171875</ele>
        <time>2021-07-22T08:32:01.000Z</time>
      </trkpt>
      <trkpt lat="43.00654009915888309478759765625" lon="-4.74234201014041900634765625">
        <ele>1984</ele>
        <time>2021-07-22T08:32:04.000Z</time>
      </trkpt>
      <trkpt lat="43.0064982734620571136474609375" lon="-4.74232851527631282806396484375">
        <ele>1983</ele>
        <time>2021-07-22T08:32:06.000Z</time>
      </trkpt>
      <trkpt lat="43.00647622905671596527099609375" lon="-4.74231979809701442718505859375">
        <ele>1982.5999755859375</ele>
        <time>2021-07-22T08:32:07.000Z</time>
      </trkpt>
      <trkpt lat="43.00642878748476505279541015625" lon="-4.74229230545461177825927734375">
        <ele>1981.4000244140625</ele>
        <time>2021-07-22T08:32:09.000Z</time>
      </trkpt>
      <trkpt lat="43.00637749023735523223876953125" lon="-4.74226363934576511383056640625">
        <ele>1980.199951171875</ele>
        <time>2021-07-22T08:32:11.000Z</time>
      </trkpt>
      <trkpt lat="43.006349913775920867919921875" lon="-4.7422519885003566741943359375">
        <ele>1980</ele>
        <time>2021-07-22T08:32:12.000Z</time>
      </trkpt>
      <trkpt lat="43.00629316829144954681396484375" lon="-4.74223748780786991119384765625">
        <ele>1978.4000244140625</ele>
        <time>2021-07-22T08:32:14.000Z</time>
      </trkpt>
      <trkpt lat="43.00623558461666107177734375" lon="-4.74221318028867244720458984375">
        <ele>1976.800048828125</ele>
        <time>2021-07-22T08:32:16.000Z</time>
      </trkpt>
      <trkpt lat="43.00620281137526035308837890625" lon="-4.74219339899718761444091796875">
        <ele>1976.4000244140625</ele>
        <time>2021-07-22T08:32:17.000Z</time>
      </trkpt>
      <trkpt lat="43.0061355046927928924560546875" lon="-4.74216003902256488800048828125">
        <ele>1975.4000244140625</ele>
        <time>2021-07-22T08:32:19.000Z</time>
      </trkpt>
      <trkpt lat="43.0060355924069881439208984375" lon="-4.74212802015244960784912109375">
        <ele>1973.4000244140625</ele>
        <time>2021-07-22T08:32:22.000Z</time>
      </trkpt>
      <trkpt lat="43.0059990473091602325439453125" lon="-4.74212164990603923797607421875">
        <ele>1973</ele>
        <time>2021-07-22T08:32:23.000Z</time>
      </trkpt>
      <trkpt lat="43.005922771990299224853515625" lon="-4.7421219013631343841552734375">
        <ele>1972.199951171875</ele>
        <time>2021-07-22T08:32:25.000Z</time>
      </trkpt>
      <trkpt lat="43.0057787708938121795654296875" lon="-4.7421661578118801116943359375">
        <ele>1971</ele>
        <time>2021-07-22T08:32:29.000Z</time>
      </trkpt>
      <trkpt lat="43.0056510306894779205322265625" lon="-4.7422141022980213165283203125">
        <ele>1970.4000244140625</ele>
        <time>2021-07-22T08:32:33.000Z</time>
      </trkpt>
      <trkpt lat="43.0056221969425678253173828125" lon="-4.74222223274409770965576171875">
        <ele>1969.800048828125</ele>
        <time>2021-07-22T08:32:34.000Z</time>
      </trkpt>
      <trkpt lat="43.005533516407012939453125" lon="-4.74223882891237735748291015625">
        <ele>1969.199951171875</ele>
        <time>2021-07-22T08:32:37.000Z</time>
      </trkpt>
      <trkpt lat="43.00550309009850025177001953125" lon="-4.74223765544593334197998046875">
        <ele>1968.800048828125</ele>
        <time>2021-07-22T08:32:38.000Z</time>
      </trkpt>
      <trkpt lat="43.00547157414257526397705078125" lon="-4.7422318719327449798583984375">
        <ele>1968.5999755859375</ele>
        <time>2021-07-22T08:32:39.000Z</time>
      </trkpt>
      <trkpt lat="43.0053806304931640625" lon="-4.742215611040592193603515625">
        <ele>1968.199951171875</ele>
        <time>2021-07-22T08:32:42.000Z</time>
      </trkpt>
      <trkpt lat="43.0053526349365711212158203125" lon="-4.7422094084322452545166015625">
        <ele>1967.5999755859375</ele>
        <time>2021-07-22T08:32:43.000Z</time>
      </trkpt>
      <trkpt lat="43.005238808691501617431640625" lon="-4.7421817481517791748046875">
        <ele>1966.4000244140625</ele>
        <time>2021-07-22T08:32:47.000Z</time>
      </trkpt>
      <trkpt lat="43.0051605217158794403076171875" lon="-4.742188788950443267822265625">
        <ele>1965.4000244140625</ele>
        <time>2021-07-22T08:32:50.000Z</time>
      </trkpt>
      <trkpt lat="43.0051373876631259918212890625" lon="-4.742187447845935821533203125">
        <ele>1965.199951171875</ele>
        <time>2021-07-22T08:32:51.000Z</time>
      </trkpt>
      <trkpt lat="43.0050931312143802642822265625" lon="-4.74218317307531833648681640625">
        <ele>1963.4000244140625</ele>
        <time>2021-07-22T08:32:53.000Z</time>
      </trkpt>
      <trkpt lat="43.00506119616329669952392578125" lon="-4.74218853749334812164306640625">
        <ele>1962.199951171875</ele>
        <time>2021-07-22T08:32:55.000Z</time>
      </trkpt>
      <trkpt lat="43.00505616702139377593994140625" lon="-4.7421899624168872833251953125">
        <ele>1961.800048828125</ele>
        <time>2021-07-22T08:32:56.000Z</time>
      </trkpt>
      <trkpt lat="43.0050582624971866607666015625" lon="-4.74218233488500118255615234375">
        <ele>1961</ele>
        <time>2021-07-22T08:32:58.000Z</time>
      </trkpt>
      <trkpt lat="43.0050626210868358612060546875" lon="-4.74217839539051055908203125">
        <ele>1960.5999755859375</ele>
        <time>2021-07-22T08:32:59.000Z</time>
      </trkpt>
      <trkpt lat="43.005075864493846893310546875" lon="-4.74217060022056102752685546875">
        <ele>1960</ele>
        <time>2021-07-22T08:33:01.000Z</time>
      </trkpt>
      <trkpt lat="43.00508047454059123992919921875" lon="-4.74216808564960956573486328125">
        <ele>1959.800048828125</ele>
        <time>2021-07-22T08:33:02.000Z</time>
      </trkpt>
      <trkpt lat="43.0051159299910068511962890625" lon="-4.74215366877615451812744140625">
        <ele>1959.4000244140625</ele>
        <time>2021-07-22T08:33:08.000Z</time>
      </trkpt>
      <trkpt lat="43.0051593482494354248046875" lon="-4.74217663519084453582763671875">
        <ele>1959.800048828125</ele>
        <time>2021-07-22T08:33:13.000Z</time>
      </trkpt>
      <trkpt lat="43.00516563467681407928466796875" lon="-4.7421772219240665435791015625">
        <ele>1959.800048828125</ele>
        <time>2021-07-22T08:33:14.000Z</time>
      </trkpt>
      <trkpt lat="43.005197234451770782470703125" lon="-4.74218887276947498321533203125">
        <ele>1960.4000244140625</ele>
        <time>2021-07-22T08:33:18.000Z</time>
      </trkpt>
      <trkpt lat="43.005213327705860137939453125" lon="-4.74217697046697139739990234375">
        <ele>1960.800048828125</ele>
        <time>2021-07-22T08:33:21.000Z</time>
      </trkpt>
      <trkpt lat="43.00522129051387310028076171875" lon="-4.74217311479151248931884765625">
        <ele>1961.199951171875</ele>
        <time>2021-07-22T08:33:22.000Z</time>
      </trkpt>
      <trkpt lat="43.0052285827696323394775390625" lon="-4.74217546172440052032470703125">
        <ele>1961.4000244140625</ele>
        <time>2021-07-22T08:33:23.000Z</time>
      </trkpt>
      <trkpt lat="43.00524492748081684112548828125" lon="-4.74218241870403289794921875">
        <ele>1961.4000244140625</ele>
        <time>2021-07-22T08:33:25.000Z</time>
      </trkpt>
      <trkpt lat="43.0052721686661243438720703125" lon="-4.74218401126563549041748046875">
        <ele>1961.800048828125</ele>
        <time>2021-07-22T08:33:28.000Z</time>
      </trkpt>
      <trkpt lat="43.00528784282505512237548828125" lon="-4.74217965267598628997802734375">
        <ele>1962</ele>
        <time>2021-07-22T08:33:30.000Z</time>
      </trkpt>
      <trkpt lat="43.00529320724308490753173828125" lon="-4.742180407047271728515625">
        <ele>1962.199951171875</ele>
        <time>2021-07-22T08:33:31.000Z</time>
      </trkpt>
      <trkpt lat="43.005311898887157440185546875" lon="-4.742181412875652313232421875">
        <ele>1962.800048828125</ele>
        <time>2021-07-22T08:33:34.000Z</time>
      </trkpt>
      <trkpt lat="43.005350120365619659423828125" lon="-4.74220295436680316925048828125">
        <ele>1963.199951171875</ele>
        <time>2021-07-22T08:33:38.000Z</time>
      </trkpt>
      <trkpt lat="43.00535984337329864501953125" lon="-4.74220111034810543060302734375">
        <ele>1963.4000244140625</ele>
        <time>2021-07-22T08:33:39.000Z</time>
      </trkpt>
      <trkpt lat="43.00537451170384883880615234375" lon="-4.74219381809234619140625">
        <ele>1963.5999755859375</ele>
        <time>2021-07-22T08:33:41.000Z</time>
      </trkpt>
      <trkpt lat="43.0053895153105258941650390625" lon="-4.7421933151781558990478515625">
        <ele>1963.5999755859375</ele>
        <time>2021-07-22T08:33:43.000Z</time>
      </trkpt>
      <trkpt lat="43.00542480312287807464599609375" lon="-4.742219634354114532470703125">
        <ele>1963.5999755859375</ele>
        <time>2021-07-22T08:33:49.000Z</time>
      </trkpt>
      <trkpt lat="43.00547794438898563385009765625" lon="-4.742213599383831024169921875">
        <ele>1964</ele>
        <time>2021-07-22T08:33:54.000Z</time>
      </trkpt>
      <trkpt lat="43.00551365129649639129638671875" lon="-4.7422080673277378082275390625">
        <ele>1964.4000244140625</ele>
        <time>2021-07-22T08:33:58.000Z</time>
      </trkpt>
      <trkpt lat="43.00552907399833202362060546875" lon="-4.7422134317457675933837890625">
        <ele>1964.4000244140625</ele>
        <time>2021-07-22T08:34:00.000Z</time>
      </trkpt>
      <trkpt lat="43.00555740483105182647705078125" lon="-4.74221368320286273956298828125">
        <ele>1964.5999755859375</ele>
        <time>2021-07-22T08:34:03.000Z</time>
      </trkpt>
      <trkpt lat="43.005596883594989776611328125" lon="-4.74220396019518375396728515625">
        <ele>1965</ele>
        <time>2021-07-22T08:34:08.000Z</time>
      </trkpt>
      <trkpt lat="43.00560501404106616973876953125" lon="-4.74220496602356433868408203125">
        <ele>1965</ele>
        <time>2021-07-22T08:34:09.000Z</time>
      </trkpt>
      <trkpt lat="43.005625717341899871826171875" lon="-4.74220144562423229217529296875">
        <ele>1965.4000244140625</ele>
        <time>2021-07-22T08:34:11.000Z</time>
      </trkpt>
      <trkpt lat="43.0056703090667724609375" lon="-4.74220546893775463104248046875">
        <ele>1966.199951171875</ele>
        <time>2021-07-22T08:34:15.000Z</time>
      </trkpt>
      <trkpt lat="43.0056872405111789703369140625" lon="-4.74219809286296367645263671875">
        <ele>1966.800048828125</ele>
        <time>2021-07-22T08:34:17.000Z</time>
      </trkpt>
      <trkpt lat="43.005716241896152496337890625" lon="-4.7421976737678050994873046875">
        <ele>1967.4000244140625</ele>
        <time>2021-07-22T08:34:20.000Z</time>
      </trkpt>
      <trkpt lat="43.00572470761835575103759765625" lon="-4.74220127798616886138916015625">
        <ele>1967.5999755859375</ele>
        <time>2021-07-22T08:34:21.000Z</time>
      </trkpt>
      <trkpt lat="43.0057532899081707000732421875" lon="-4.74220831878483295440673828125">
        <ele>1967.800048828125</ele>
        <time>2021-07-22T08:34:24.000Z</time>
      </trkpt>
      <trkpt lat="43.00579159520566463470458984375" lon="-4.74221804179251194000244140625">
        <ele>1968</ele>
        <time>2021-07-22T08:34:27.000Z</time>
      </trkpt>
      <trkpt lat="43.00580299459397792816162109375" lon="-4.74221569485962390899658203125">
        <ele>1968</ele>
        <time>2021-07-22T08:34:28.000Z</time>
      </trkpt>
      <trkpt lat="43.0058247037231922149658203125" lon="-4.74220161326229572296142578125">
        <ele>1968.199951171875</ele>
        <time>2021-07-22T08:34:30.000Z</time>
      </trkpt>
      <trkpt lat="43.005897961556911468505859375" lon="-4.7421447001397609710693359375">
        <ele>1968.5999755859375</ele>
        <time>2021-07-22T08:34:37.000Z</time>
      </trkpt>
      <trkpt lat="43.0059283040463924407958984375" lon="-4.7421212308108806610107421875">
        <ele>1968.800048828125</ele>
        <time>2021-07-22T08:34:40.000Z</time>
      </trkpt>
      <trkpt lat="43.00594230182468891143798828125" lon="-4.7421235777437686920166015625">
        <ele>1968.800048828125</ele>
        <time>2021-07-22T08:34:41.000Z</time>
      </trkpt>
      <trkpt lat="43.00595537759363651275634765625" lon="-4.742129109799861907958984375">
        <ele>1968.800048828125</ele>
        <time>2021-07-22T08:34:42.000Z</time>
      </trkpt>
      <trkpt lat="43.006003238260746002197265625" lon="-4.74213254638016223907470703125">
        <ele>1969</ele>
        <time>2021-07-22T08:34:46.000Z</time>
      </trkpt>
      <trkpt lat="43.00604087300598621368408203125" lon="-4.742127768695354461669921875">
        <ele>1969.199951171875</ele>
        <time>2021-07-22T08:34:49.000Z</time>
      </trkpt>
      <trkpt lat="43.00609200261533260345458984375" lon="-4.742129780352115631103515625">
        <ele>1969.5999755859375</ele>
        <time>2021-07-22T08:34:54.000Z</time>
      </trkpt>
      <trkpt lat="43.00616542808711528778076171875" lon="-4.74218334071338176727294921875">
        <ele>1970</ele>
        <time>2021-07-22T08:35:00.000Z</time>
      </trkpt>
      <trkpt lat="43.0062085948884487152099609375" lon="-4.74218820221722126007080078125">
        <ele>1971</ele>
        <time>2021-07-22T08:35:04.000Z</time>
      </trkpt>
      <trkpt lat="43.00621655769646167755126953125" lon="-4.74218920804560184478759765625">
        <ele>1971.199951171875</ele>
        <time>2021-07-22T08:35:05.000Z</time>
      </trkpt>
      <trkpt lat="43.00622410140931606292724609375" lon="-4.74219381809234619140625">
        <ele>1971.4000244140625</ele>
        <time>2021-07-22T08:35:06.000Z</time>
      </trkpt>
      <trkpt lat="43.006254024803638458251953125" lon="-4.742210246622562408447265625">
        <ele>1972</ele>
        <time>2021-07-22T08:35:10.000Z</time>
      </trkpt>
      <trkpt lat="43.00628378055989742279052734375" lon="-4.7422127611935138702392578125">
        <ele>1972.199951171875</ele>
        <time>2021-07-22T08:35:13.000Z</time>
      </trkpt>
      <trkpt lat="43.0063014663755893707275390625" lon="-4.74222843535244464874267578125">
        <ele>1972.4000244140625</ele>
        <time>2021-07-22T08:35:15.000Z</time>
      </trkpt>
      <trkpt lat="43.00632183440029621124267578125" lon="-4.74224218167364597320556640625">
        <ele>1972.4000244140625</ele>
        <time>2021-07-22T08:35:17.000Z</time>
      </trkpt>
      <trkpt lat="43.0063537694513797760009765625" lon="-4.742233045399188995361328125">
        <ele>1973</ele>
        <time>2021-07-22T08:35:20.000Z</time>
      </trkpt>
      <trkpt lat="43.0063591338694095611572265625" lon="-4.7422271780669689178466796875">
        <ele>1973.199951171875</ele>
        <time>2021-07-22T08:35:21.000Z</time>
      </trkpt>
      <trkpt lat="43.0063675157725811004638671875" lon="-4.74223162047564983367919921875">
        <ele>1973.4000244140625</ele>
        <time>2021-07-22T08:35:23.000Z</time>
      </trkpt>
      <trkpt lat="43.006375394761562347412109375" lon="-4.7422469593584537506103515625">
        <ele>1973.5999755859375</ele>
        <time>2021-07-22T08:35:27.000Z</time>
      </trkpt>
      <trkpt lat="43.00637598149478435516357421875" lon="-4.74224545061588287353515625">
        <ele>1973.4000244140625</ele>
        <time>2021-07-22T08:35:28.000Z</time>
      </trkpt>
      <trkpt lat="43.00637698732316493988037109375" lon="-4.74224469624459743499755859375">
        <ele>1973.4000244140625</ele>
        <time>2021-07-22T08:35:29.000Z</time>
      </trkpt>
      <trkpt lat="43.00638805143535137176513671875" lon="-4.74226430989801883697509765625">
        <ele>1973.4000244140625</ele>
        <time>2021-07-22T08:35:33.000Z</time>
      </trkpt>
      <trkpt lat="43.0063990317285060882568359375" lon="-4.742273949086666107177734375">
        <ele>1973.5999755859375</ele>
        <time>2021-07-22T08:35:34.000Z</time>
      </trkpt>
      <trkpt lat="43.0064084194600582122802734375" lon="-4.74228392355144023895263671875">
        <ele>1973.800048828125</ele>
        <time>2021-07-22T08:35:35.000Z</time>
      </trkpt>
      <trkpt lat="43.00643297843635082244873046875" lon="-4.7422928921878337860107421875">
        <ele>1974.4000244140625</ele>
        <time>2021-07-22T08:35:38.000Z</time>
      </trkpt>
      <trkpt lat="43.0064387619495391845703125" lon="-4.7422962449491024017333984375">
        <ele>1974.800048828125</ele>
        <time>2021-07-22T08:35:39.000Z</time>
      </trkpt>
      <trkpt lat="43.0064469762146472930908203125" lon="-4.74230336956679821014404296875">
        <ele>1975</ele>
        <time>2021-07-22T08:35:40.000Z</time>
      </trkpt>
      <trkpt lat="43.00646801479160785675048828125" lon="-4.742319546639919281005859375">
        <ele>1975.5999755859375</ele>
        <time>2021-07-22T08:35:42.000Z</time>
      </trkpt>
      <trkpt lat="43.006490729749202728271484375" lon="-4.7423431836068630218505859375">
        <ele>1976</ele>
        <time>2021-07-22T08:35:45.000Z</time>
      </trkpt>
      <trkpt lat="43.00651411525905132293701171875" lon="-4.74233874119818210601806640625">
        <ele>1976.5999755859375</ele>
        <time>2021-07-22T08:35:48.000Z</time>
      </trkpt>
      <trkpt lat="43.0065200664103031158447265625" lon="-4.74232952110469341278076171875">
        <ele>1976.800048828125</ele>
        <time>2021-07-22T08:35:49.000Z</time>
      </trkpt>
      <trkpt lat="43.00652660429477691650390625" lon="-4.7423265874385833740234375">
        <ele>1976.800048828125</ele>
        <time>2021-07-22T08:35:50.000Z</time>
      </trkpt>
      <trkpt lat="43.00654395483434200286865234375" lon="-4.7423344664275646209716796875">
        <ele>1977.4000244140625</ele>
        <time>2021-07-22T08:35:53.000Z</time>
      </trkpt>
      <trkpt lat="43.00654915161430835723876953125" lon="-4.7423378191888332366943359375">
        <ele>1977.800048828125</ele>
        <time>2021-07-22T08:35:54.000Z</time>
      </trkpt>
      <trkpt lat="43.006563819944858551025390625" lon="-4.74235248751938343048095703125">
        <ele>1978.4000244140625</ele>
        <time>2021-07-22T08:35:56.000Z</time>
      </trkpt>
      <trkpt lat="43.00658519379794597625732421875" lon="-4.74236355163156986236572265625">
        <ele>1978.800048828125</ele>
        <time>2021-07-22T08:35:58.000Z</time>
      </trkpt>
      <trkpt lat="43.00660966895520687103271484375" lon="-4.742377214133739471435546875">
        <ele>1979.199951171875</ele>
        <time>2021-07-22T08:36:00.000Z</time>
      </trkpt>
      <trkpt lat="43.006648309528827667236328125" lon="-4.7423723526298999786376953125">
        <ele>1979.800048828125</ele>
        <time>2021-07-22T08:36:03.000Z</time>
      </trkpt>
      <trkpt lat="43.0066592060029506683349609375" lon="-4.74237143062055110931396484375">
        <ele>1980</ele>
        <time>2021-07-22T08:36:04.000Z</time>
      </trkpt>
      <trkpt lat="43.00669382326304912567138671875" lon="-4.74236774258315563201904296875">
        <ele>1981.199951171875</ele>
        <time>2021-07-22T08:36:08.000Z</time>
      </trkpt>
      <trkpt lat="43.0067001096904277801513671875" lon="-4.7423683293163776397705078125">
        <ele>1981.199951171875</ele>
        <time>2021-07-22T08:36:09.000Z</time>
      </trkpt>
      <trkpt lat="43.00672718323767185211181640625" lon="-4.74235466681420803070068359375">
        <ele>1981.5999755859375</ele>
        <time>2021-07-22T08:36:14.000Z</time>
      </trkpt>
      <trkpt lat="43.00674746744334697723388671875" lon="-4.7423378191888332366943359375">
        <ele>1982.199951171875</ele>
        <time>2021-07-22T08:36:18.000Z</time>
      </trkpt>
      <trkpt lat="43.0067561008036136627197265625" lon="-4.7423250786960124969482421875">
        <ele>1982.800048828125</ele>
        <time>2021-07-22T08:36:20.000Z</time>
      </trkpt>
      <trkpt lat="43.00678367726504802703857421875" lon="-4.74230973981320858001708984375">
        <ele>1983.199951171875</ele>
        <time>2021-07-22T08:36:25.000Z</time>
      </trkpt>
      <trkpt lat="43.00679289735853672027587890625" lon="-4.7423069737851619720458984375">
        <ele>1983.199951171875</ele>
        <time>2021-07-22T08:36:26.000Z</time>
      </trkpt>
      <trkpt lat="43.00682022236287593841552734375" lon="-4.74231912754476070404052734375">
        <ele>1984</ele>
        <time>2021-07-22T08:36:31.000Z</time>
      </trkpt>
      <trkpt lat="43.006834723055362701416015625" lon="-4.7422985918819904327392578125">
        <ele>1984.4000244140625</ele>
        <time>2021-07-22T08:36:34.000Z</time>
      </trkpt>
      <trkpt lat="43.0068405903875827789306640625" lon="-4.7422885335981845855712890625">
        <ele>1984.800048828125</ele>
        <time>2021-07-22T08:36:36.000Z</time>
      </trkpt>
      <trkpt lat="43.00686498172581195831298828125" lon="-4.7422627173364162445068359375">
        <ele>1985.199951171875</ele>
        <time>2021-07-22T08:36:41.000Z</time>
      </trkpt>
      <trkpt lat="43.00687302835285663604736328125" lon="-4.74226062186062335968017578125">
        <ele>1985.5999755859375</ele>
        <time>2021-07-22T08:36:42.000Z</time>
      </trkpt>
      <trkpt lat="43.00690169446170330047607421875" lon="-4.74224838428199291229248046875">
        <ele>1986</ele>
        <time>2021-07-22T08:36:46.000Z</time>
      </trkpt>
      <trkpt lat="43.00692281685769557952880859375" lon="-4.74223866127431392669677734375">
        <ele>1986.800048828125</ele>
        <time>2021-07-22T08:36:48.000Z</time>
      </trkpt>
      <trkpt lat="43.00693907774984836578369140625" lon="-4.7422318719327449798583984375">
        <ele>1987.5999755859375</ele>
        <time>2021-07-22T08:36:52.000Z</time>
      </trkpt>
      <trkpt lat="43.00694896839559078216552734375" lon="-4.7422352246940135955810546875">
        <ele>1988</ele>
        <time>2021-07-22T08:36:54.000Z</time>
      </trkpt>
      <trkpt lat="43.00695885904133319854736328125" lon="-4.742236398160457611083984375">
        <ele>1988.4000244140625</ele>
        <time>2021-07-22T08:36:56.000Z</time>
      </trkpt>
      <trkpt lat="43.00697050988674163818359375" lon="-4.74224369041621685028076171875">
        <ele>1989.199951171875</ele>
        <time>2021-07-22T08:36:58.000Z</time>
      </trkpt>
      <trkpt lat="43.00698467530310153961181640625" lon="-4.74224721081554889678955078125">
        <ele>1989.5999755859375</ele>
        <time>2021-07-22T08:37:01.000Z</time>
      </trkpt>
      <trkpt lat="43.00700965337455272674560546875" lon="-4.7422409243881702423095703125">
        <ele>1990.199951171875</ele>
        <time>2021-07-22T08:37:05.000Z</time>
      </trkpt>
      <trkpt lat="43.00701401196420192718505859375" lon="-4.74224050529301166534423828125">
        <ele>1990.4000244140625</ele>
        <time>2021-07-22T08:37:06.000Z</time>
      </trkpt>
      <trkpt lat="43.0070263333618640899658203125" lon="-4.7422358952462673187255859375">
        <ele>1990.4000244140625</ele>
        <time>2021-07-22T08:37:09.000Z</time>
      </trkpt>
      <trkpt lat="43.0070487968623638153076171875" lon="-4.74221921525895595550537109375">
        <ele>1991.4000244140625</ele>
        <time>2021-07-22T08:37:13.000Z</time>
      </trkpt>
      <trkpt lat="43.00706581212580204010009765625" lon="-4.742212928831577301025390625">
        <ele>1991.800048828125</ele>
        <time>2021-07-22T08:37:15.000Z</time>
      </trkpt>
      <trkpt lat="43.00711811520159244537353515625" lon="-4.74218585528433322906494140625">
        <ele>1992.4000244140625</ele>
        <time>2021-07-22T08:37:20.000Z</time>
      </trkpt>
      <trkpt lat="43.0071285925805568695068359375" lon="-4.7421866096556186676025390625">
        <ele>1992.4000244140625</ele>
        <time>2021-07-22T08:37:21.000Z</time>
      </trkpt>
      <trkpt lat="43.007139824330806732177734375" lon="-4.742186777293682098388671875">
        <ele>1992.4000244140625</ele>
        <time>2021-07-22T08:37:22.000Z</time>
      </trkpt>
      <trkpt lat="43.0071694962680339813232421875" lon="-4.74217948503792285919189453125">
        <ele>1992.4000244140625</ele>
        <time>2021-07-22T08:37:25.000Z</time>
      </trkpt>
      <trkpt lat="43.007218949496746063232421875" lon="-4.74214226938784122467041015625">
        <ele>1993.199951171875</ele>
        <time>2021-07-22T08:37:30.000Z</time>
      </trkpt>
      <trkpt lat="43.007229678332805633544921875" lon="-4.742135815322399139404296875">
        <ele>1993.5999755859375</ele>
        <time>2021-07-22T08:37:31.000Z</time>
      </trkpt>
      <trkpt lat="43.00726597197353839874267578125" lon="-4.742097593843936920166015625">
        <ele>1994.5999755859375</ele>
        <time>2021-07-22T08:37:35.000Z</time>
      </trkpt>
      <trkpt lat="43.0072943866252899169921875" lon="-4.742064736783504486083984375">
        <ele>1995.4000244140625</ele>
        <time>2021-07-22T08:37:39.000Z</time>
      </trkpt>
      <trkpt lat="43.00732011906802654266357421875" lon="-4.7420508228242397308349609375">
        <ele>1995.5999755859375</ele>
        <time>2021-07-22T08:37:42.000Z</time>
      </trkpt>
      <trkpt lat="43.0073374696075916290283203125" lon="-4.7420390881597995758056640625">
        <ele>1996</ele>
        <time>2021-07-22T08:37:45.000Z</time>
      </trkpt>
      <trkpt lat="43.00734459422528743743896484375" lon="-4.7420310415327548980712890625">
        <ele>1996</ele>
        <time>2021-07-22T08:37:49.000Z</time>
      </trkpt>
      <trkpt lat="43.007349707186222076416015625" lon="-4.74202743731439113616943359375">
        <ele>1996</ele>
        <time>2021-07-22T08:37:51.000Z</time>
      </trkpt>
      <trkpt lat="43.0074038542807102203369140625" lon="-4.7419981844723224639892578125">
        <ele>1995.800048828125</ele>
        <time>2021-07-22T08:37:57.000Z</time>
      </trkpt>
      <trkpt lat="43.00742237828671932220458984375" lon="-4.74198888055980205535888671875">
        <ele>1996.199951171875</ele>
        <time>2021-07-22T08:37:59.000Z</time>
      </trkpt>
      <trkpt lat="43.0074397288262844085693359375" lon="-4.7419750504195690155029296875">
        <ele>1996.4000244140625</ele>
        <time>2021-07-22T08:38:01.000Z</time>
      </trkpt>
      <trkpt lat="43.007463701069355010986328125" lon="-4.7419525869190692901611328125">
        <ele>1996.5999755859375</ele>
        <time>2021-07-22T08:38:03.000Z</time>
      </trkpt>
      <trkpt lat="43.00749613903462886810302734375" lon="-4.7419284470379352569580078125">
        <ele>1997.199951171875</ele>
        <time>2021-07-22T08:38:06.000Z</time>
      </trkpt>
      <trkpt lat="43.007518015801906585693359375" lon="-4.7419001162052154541015625">
        <ele>1997.4000244140625</ele>
        <time>2021-07-22T08:38:08.000Z</time>
      </trkpt>
      <trkpt lat="43.00754592753946781158447265625" lon="-4.7418880462646484375">
        <ele>1997.5999755859375</ele>
        <time>2021-07-22T08:38:10.000Z</time>
      </trkpt>
      <trkpt lat="43.0075587518513202667236328125" lon="-4.74187991581857204437255859375">
        <ele>1997.800048828125</ele>
        <time>2021-07-22T08:38:11.000Z</time>
      </trkpt>
      <trkpt lat="43.007571659982204437255859375" lon="-4.74187220446765422821044921875">
        <ele>1998</ele>
        <time>2021-07-22T08:38:12.000Z</time>
      </trkpt>
      <trkpt lat="43.00758616067469120025634765625" lon="-4.74185443483293056488037109375">
        <ele>1998.4000244140625</ele>
        <time>2021-07-22T08:38:14.000Z</time>
      </trkpt>
      <trkpt lat="43.00760627724230289459228515625" lon="-4.741821326315402984619140625">
        <ele>1998.800048828125</ele>
        <time>2021-07-22T08:38:18.000Z</time>
      </trkpt>
      <trkpt lat="43.00760879181325435638427734375" lon="-4.7418161295354366302490234375">
        <ele>1999.199951171875</ele>
        <time>2021-07-22T08:38:19.000Z</time>
      </trkpt>
      <trkpt lat="43.00760979764163494110107421875" lon="-4.74180699326097965240478515625">
        <ele>1999.199951171875</ele>
        <time>2021-07-22T08:38:20.000Z</time>
      </trkpt>
      <trkpt lat="43.00760409794747829437255859375" lon="-4.74178687669336795806884765625">
        <ele>1999.5999755859375</ele>
        <time>2021-07-22T08:38:25.000Z</time>
      </trkpt>
      <trkpt lat="43.00760393030941486358642578125" lon="-4.74178536795079708099365234375">
        <ele>1999.5999755859375</ele>
        <time>2021-07-22T08:38:26.000Z</time>
      </trkpt>
      <trkpt lat="43.0076070316135883331298828125" lon="-4.741780422627925872802734375">
        <ele>1999.5999755859375</ele>
        <time>2021-07-22T08:38:27.000Z</time>
      </trkpt>
      <trkpt lat="43.00762639380991458892822265625" lon="-4.74177564494311809539794921875">
        <ele>2000</ele>
        <time>2021-07-22T08:38:30.000Z</time>
      </trkpt>
      <trkpt lat="43.00763108767569065093994140625" lon="-4.74177069962024688720703125">
        <ele>2000.199951171875</ele>
        <time>2021-07-22T08:38:31.000Z</time>
      </trkpt>
      <trkpt lat="43.00763611681759357452392578125" lon="-4.74176793359220027923583984375">
        <ele>2000.4000244140625</ele>
        <time>2021-07-22T08:38:32.000Z</time>
      </trkpt>
      <trkpt lat="43.0076543055474758148193359375" lon="-4.7417271137237548828125">
        <ele>2001.199951171875</ele>
        <time>2021-07-22T08:38:36.000Z</time>
      </trkpt>
      <trkpt lat="43.00765858031809329986572265625" lon="-4.74171915091574192047119140625">
        <ele>2001.4000244140625</ele>
        <time>2021-07-22T08:38:37.000Z</time>
      </trkpt>
      <trkpt lat="43.0076833069324493408203125" lon="-4.74168428219854831695556640625">
        <ele>2002.4000244140625</ele>
        <time>2021-07-22T08:38:41.000Z</time>
      </trkpt>
      <trkpt lat="43.00769076682627201080322265625" lon="-4.741680510342121124267578125">
        <ele>2002.5999755859375</ele>
        <time>2021-07-22T08:38:42.000Z</time>
      </trkpt>
      <trkpt lat="43.00769713707268238067626953125" lon="-4.74167690612375736236572265625">
        <ele>2002.5999755859375</ele>
        <time>2021-07-22T08:38:43.000Z</time>
      </trkpt>
      <trkpt lat="43.007721193134784698486328125" lon="-4.7416766546666622161865234375">
        <ele>2003</ele>
        <time>2021-07-22T08:38:46.000Z</time>
      </trkpt>
      <trkpt lat="43.0077253840863704681396484375" lon="-4.74167774431407451629638671875">
        <ele>2003.4000244140625</ele>
        <time>2021-07-22T08:38:47.000Z</time>
      </trkpt>
      <trkpt lat="43.0076988972723484039306640625" lon="-4.74165846593677997589111328125">
        <ele>2004</ele>
        <time>2021-07-22T08:38:53.000Z</time>
      </trkpt>
      <trkpt lat="43.00772613845765590667724609375" lon="-4.7416635788977146148681640625">
        <ele>2004.4000244140625</ele>
        <time>2021-07-22T08:38:59.000Z</time>
      </trkpt>
      <trkpt lat="43.00773535855114459991455078125" lon="-4.74166047759354114532470703125">
        <ele>2004.4000244140625</ele>
        <time>2021-07-22T08:39:00.000Z</time>
      </trkpt>
      <trkpt lat="43.0077503621578216552734375" lon="-4.741644971072673797607421875">
        <ele>2004.4000244140625</ele>
        <time>2021-07-22T08:39:02.000Z</time>
      </trkpt>
      <trkpt lat="43.00776846706867218017578125" lon="-4.7416345775127410888671875">
        <ele>2005.4000244140625</ele>
        <time>2021-07-22T08:39:05.000Z</time>
      </trkpt>
      <trkpt lat="43.00777441821992397308349609375" lon="-4.74163164384663105010986328125">
        <ele>2005.800048828125</ele>
        <time>2021-07-22T08:39:06.000Z</time>
      </trkpt>
      <trkpt lat="43.0078145675361156463623046875" lon="-4.7415971942245960235595703125">
        <ele>2006.4000244140625</ele>
        <time>2021-07-22T08:39:11.000Z</time>
      </trkpt>
      <trkpt lat="43.007822446525096893310546875" lon="-4.74158755503594875335693359375">
        <ele>2006.5999755859375</ele>
        <time>2021-07-22T08:39:12.000Z</time>
      </trkpt>
      <trkpt lat="43.00783946178853511810302734375" lon="-4.7415743954479694366455078125">
        <ele>2007.5999755859375</ele>
        <time>2021-07-22T08:39:16.000Z</time>
      </trkpt>
      <trkpt lat="43.00784331746399402618408203125" lon="-4.74157196469604969024658203125">
        <ele>2007.800048828125</ele>
        <time>2021-07-22T08:39:17.000Z</time>
      </trkpt>
      <trkpt lat="43.007875420153141021728515625" lon="-4.74156760610640048980712890625">
        <ele>2008.4000244140625</ele>
        <time>2021-07-22T08:39:21.000Z</time>
      </trkpt>
      <trkpt lat="43.00789587199687957763671875" lon="-4.74155738018453121185302734375">
        <ele>2008.800048828125</ele>
        <time>2021-07-22T08:39:24.000Z</time>
      </trkpt>
      <trkpt lat="43.007912971079349517822265625" lon="-4.7415247745811939239501953125">
        <ele>2009</ele>
        <time>2021-07-22T08:39:27.000Z</time>
      </trkpt>
      <trkpt lat="43.0079185031354427337646484375" lon="-4.74151588976383209228515625">
        <ele>2009.4000244140625</ele>
        <time>2021-07-22T08:39:28.000Z</time>
      </trkpt>
      <trkpt lat="43.00792965106666088104248046875" lon="-4.7415004670619964599609375">
        <ele>2010</ele>
        <time>2021-07-22T08:39:30.000Z</time>
      </trkpt>
      <trkpt lat="43.0079466663300991058349609375" lon="-4.7414942644536495208740234375">
        <ele>2010.5999755859375</ele>
        <time>2021-07-22T08:39:33.000Z</time>
      </trkpt>
      <trkpt lat="43.0079463310539722442626953125" lon="-4.74149300716817378997802734375">
        <ele>2011</ele>
        <time>2021-07-22T08:39:35.000Z</time>
      </trkpt>
      <trkpt lat="43.00794758833944797515869140625" lon="-4.74146786145865917205810546875">
        <ele>2011.4000244140625</ele>
        <time>2021-07-22T08:39:38.000Z</time>
      </trkpt>
      <trkpt lat="43.00794817507266998291015625" lon="-4.741462580859661102294921875">
        <ele>2012</ele>
        <time>2021-07-22T08:39:42.000Z</time>
      </trkpt>
      <trkpt lat="43.007958233356475830078125" lon="-4.74146065302193164825439453125">
        <ele>2012.5999755859375</ele>
        <time>2021-07-22T08:39:46.000Z</time>
      </trkpt>
      <trkpt lat="43.00798966549336910247802734375" lon="-4.74143601022660732269287109375">
        <ele>2013</ele>
        <time>2021-07-22T08:39:49.000Z</time>
      </trkpt>
      <trkpt lat="43.00799846649169921875" lon="-4.7414280474185943603515625">
        <ele>2013.199951171875</ele>
        <time>2021-07-22T08:39:50.000Z</time>
      </trkpt>
      <trkpt lat="43.00802386365830898284912109375" lon="-4.7414057515561580657958984375">
        <ele>2013.5999755859375</ele>
        <time>2021-07-22T08:39:54.000Z</time>
      </trkpt>
      <trkpt lat="43.00802998244762420654296875" lon="-4.74139845930039882659912109375">
        <ele>2013.5999755859375</ele>
        <time>2021-07-22T08:39:55.000Z</time>
      </trkpt>
      <trkpt lat="43.00804900936782360076904296875" lon="-4.7413775883615016937255859375">
        <ele>2014.199951171875</ele>
        <time>2021-07-22T08:39:58.000Z</time>
      </trkpt>
      <trkpt lat="43.0080911703407764434814453125" lon="-4.74138957448303699493408203125">
        <ele>2014.800048828125</ele>
        <time>2021-07-22T08:40:02.000Z</time>
      </trkpt>
      <trkpt lat="43.0081079341471195220947265625" lon="-4.7413772530853748321533203125">
        <ele>2015.199951171875</ele>
        <time>2021-07-22T08:40:05.000Z</time>
      </trkpt>
      <trkpt lat="43.008130230009555816650390625" lon="-4.741379432380199432373046875">
        <ele>2016.199951171875</ele>
        <time>2021-07-22T08:40:10.000Z</time>
      </trkpt>
      <trkpt lat="43.00813685171306133270263671875" lon="-4.74138890393078327178955078125">
        <ele>2016.4000244140625</ele>
        <time>2021-07-22T08:40:13.000Z</time>
      </trkpt>
      <trkpt lat="43.0081277154386043548583984375" lon="-4.74139343015849590301513671875">
        <ele>2017.4000244140625</ele>
        <time>2021-07-22T08:40:17.000Z</time>
      </trkpt>
      <trkpt lat="43.00812897272408008575439453125" lon="-4.74138974212110042572021484375">
        <ele>2017.5999755859375</ele>
        <time>2021-07-22T08:40:18.000Z</time>
      </trkpt>
      <trkpt lat="43.0081340856850147247314453125" lon="-4.74138588644564151763916015625">
        <ele>2018</ele>
        <time>2021-07-22T08:40:22.000Z</time>
      </trkpt>
      <trkpt lat="43.0081290565431118011474609375" lon="-4.74138312041759490966796875">
        <ele>2018.199951171875</ele>
        <time>2021-07-22T08:40:25.000Z</time>
      </trkpt>
      <trkpt lat="43.00812612287700176239013671875" lon="-4.74137951619923114776611328125">
        <ele>2018.5999755859375</ele>
        <time>2021-07-22T08:40:28.000Z</time>
      </trkpt>
      <trkpt lat="43.0081444792449474334716796875" lon="-4.74138236604630947113037109375">
        <ele>2018.5999755859375</ele>
        <time>2021-07-22T08:40:34.000Z</time>
      </trkpt>
      <trkpt lat="43.008146323263645172119140625" lon="-4.74140348844230175018310546875">
        <ele>2018.5999755859375</ele>
        <time>2021-07-22T08:40:43.000Z</time>
      </trkpt>
      <trkpt lat="43.00814506597816944122314453125" lon="-4.74139879457652568817138671875">
        <ele>2018.800048828125</ele>
        <time>2021-07-22T08:40:48.000Z</time>
      </trkpt>
      <trkpt lat="43.0081531964242458343505859375" lon="-4.74138923920691013336181640625">
        <ele>2018.800048828125</ele>
        <time>2021-07-22T08:40:55.000Z</time>
      </trkpt>
      <trkpt lat="43.0081739835441112518310546875" lon="-4.7413744032382965087890625">
        <ele>2020</ele>
        <time>2021-07-22T08:41:00.000Z</time>
      </trkpt>
      <trkpt lat="43.00818664021790027618408203125" lon="-4.74138437770307064056396484375">
        <ele>2021</ele>
        <time>2021-07-22T08:41:03.000Z</time>
      </trkpt>
      <trkpt lat="43.00819468684494495391845703125" lon="-4.74139175377786159515380859375">
        <ele>2021.199951171875</ele>
        <time>2021-07-22T08:41:05.000Z</time>
      </trkpt>
      <trkpt lat="43.00822754390537738800048828125" lon="-4.74139560945332050323486328125">
        <ele>2022.199951171875</ele>
        <time>2021-07-22T08:41:10.000Z</time>
      </trkpt>
      <trkpt lat="43.00823341123759746551513671875" lon="-4.741391837596893310546875">
        <ele>2022.4000244140625</ele>
        <time>2021-07-22T08:41:11.000Z</time>
      </trkpt>
      <trkpt lat="43.0082400329411029815673828125" lon="-4.74137465469539165496826171875">
        <ele>2023.199951171875</ele>
        <time>2021-07-22T08:41:14.000Z</time>
      </trkpt>
      <trkpt lat="43.00824514590203762054443359375" lon="-4.74137348122894763946533203125">
        <ele>2023.4000244140625</ele>
        <time>2021-07-22T08:41:17.000Z</time>
      </trkpt>
      <trkpt lat="43.0082588084042072296142578125" lon="-4.74133349955081939697265625">
        <ele>2024</ele>
        <time>2021-07-22T08:41:23.000Z</time>
      </trkpt>
      <trkpt lat="43.0082675255835056304931640625" lon="-4.74130935966968536376953125">
        <ele>2024.199951171875</ele>
        <time>2021-07-22T08:41:25.000Z</time>
      </trkpt>
      <trkpt lat="43.0082903243601322174072265625" lon="-4.74130810238420963287353515625">
        <ele>2025.199951171875</ele>
        <time>2021-07-22T08:41:29.000Z</time>
      </trkpt>
      <trkpt lat="43.0082906596362590789794921875" lon="-4.74130290560424327850341796875">
        <ele>2025.4000244140625</ele>
        <time>2021-07-22T08:41:30.000Z</time>
      </trkpt>
      <trkpt lat="43.00829342566430568695068359375" lon="-4.7412860579788684844970703125">
        <ele>2026.199951171875</ele>
        <time>2021-07-22T08:41:33.000Z</time>
      </trkpt>
      <trkpt lat="43.00829325802624225616455078125" lon="-4.7412832081317901611328125">
        <ele>2026.4000244140625</ele>
        <time>2021-07-22T08:41:34.000Z</time>
      </trkpt>
      <trkpt lat="43.00829350948333740234375" lon="-4.7412763349711894989013671875">
        <ele>2027.5999755859375</ele>
        <time>2021-07-22T08:41:37.000Z</time>
      </trkpt>
      <trkpt lat="43.0082963593304157257080078125" lon="-4.74128245376050472259521484375">
        <ele>2027.800048828125</ele>
        <time>2021-07-22T08:41:39.000Z</time>
      </trkpt>
      <trkpt lat="43.00828336738049983978271484375" lon="-4.7412873990833759307861328125">
        <ele>2028.5999755859375</ele>
        <time>2021-07-22T08:41:46.000Z</time>
      </trkpt>
      <trkpt lat="43.008275069296360015869140625" lon="-4.74128262139856815338134765625">
        <ele>2028</ele>
        <time>2021-07-22T08:41:55.000Z</time>
      </trkpt>
      <trkpt lat="43.0083077587187290191650390625" lon="-4.74127122201025485992431640625">
        <ele>2029</ele>
        <time>2021-07-22T08:42:02.000Z</time>
      </trkpt>
      <trkpt lat="43.00833617337048053741455078125" lon="-4.74125931970775127410888671875">
        <ele>2030</ele>
        <time>2021-07-22T08:42:05.000Z</time>
      </trkpt>
      <trkpt lat="43.00834673456847667694091796875" lon="-4.7412562184035778045654296875">
        <ele>2030</ele>
        <time>2021-07-22T08:42:06.000Z</time>
      </trkpt>
      <trkpt lat="43.008367605507373809814453125" lon="-4.7412505187094211578369140625">
        <ele>2030.4000244140625</ele>
        <time>2021-07-22T08:42:08.000Z</time>
      </trkpt>
      <trkpt lat="43.00838478840887546539306640625" lon="-4.74125303328037261962890625">
        <ele>2030.800048828125</ele>
        <time>2021-07-22T08:42:10.000Z</time>
      </trkpt>
      <trkpt lat="43.0083962716162204742431640625" lon="-4.741263091564178466796875">
        <ele>2031.199951171875</ele>
        <time>2021-07-22T08:42:11.000Z</time>
      </trkpt>
      <trkpt lat="43.00840549170970916748046875" lon="-4.74126887507736682891845703125">
        <ele>2031.5999755859375</ele>
        <time>2021-07-22T08:42:12.000Z</time>
      </trkpt>
      <trkpt lat="43.00841060467064380645751953125" lon="-4.74127591587603092193603515625">
        <ele>2032</ele>
        <time>2021-07-22T08:42:15.000Z</time>
      </trkpt>
      <trkpt lat="43.00841244868934154510498046875" lon="-4.74129251204431056976318359375">
        <ele>2032.4000244140625</ele>
        <time>2021-07-22T08:42:22.000Z</time>
      </trkpt>
      <trkpt lat="43.00842066295444965362548828125" lon="-4.741293601691722869873046875">
        <ele>2032.5999755859375</ele>
        <time>2021-07-22T08:42:23.000Z</time>
      </trkpt>
      <trkpt lat="43.00847179256379604339599609375" lon="-4.74130910821259021759033203125">
        <ele>2033.5999755859375</ele>
        <time>2021-07-22T08:42:28.000Z</time>
      </trkpt>
      <trkpt lat="43.00848419778048992156982421875" lon="-4.7413115389645099639892578125">
        <ele>2033.5999755859375</ele>
        <time>2021-07-22T08:42:29.000Z</time>
      </trkpt>
      <trkpt lat="43.00850900821387767791748046875" lon="-4.74132142961025238037109375">
        <ele>2034.199951171875</ele>
        <time>2021-07-22T08:42:32.000Z</time>
      </trkpt>
      <trkpt lat="43.00851705484092235565185546875" lon="-4.7413293085992336273193359375">
        <ele>2034.5999755859375</ele>
        <time>2021-07-22T08:42:33.000Z</time>
      </trkpt>
      <trkpt lat="43.00854471512138843536376953125" lon="-4.7413591481745243072509765625">
        <ele>2035</ele>
        <time>2021-07-22T08:42:36.000Z</time>
      </trkpt>
      <trkpt lat="43.00855661742389202117919921875" lon="-4.7413631714880466461181640625">
        <ele>2035.199951171875</ele>
        <time>2021-07-22T08:42:37.000Z</time>
      </trkpt>
      <trkpt lat="43.0085836909711360931396484375" lon="-4.741364009678363800048828125">
        <ele>2035.5999755859375</ele>
        <time>2021-07-22T08:42:39.000Z</time>
      </trkpt>
      <trkpt lat="43.00861202180385589599609375" lon="-4.7413614951074123382568359375">
        <ele>2036</ele>
        <time>2021-07-22T08:42:41.000Z</time>
      </trkpt>
      <trkpt lat="43.008659966289997100830078125" lon="-4.74133014678955078125">
        <ele>2036.199951171875</ele>
        <time>2021-07-22T08:42:46.000Z</time>
      </trkpt>
      <trkpt lat="43.00868921913206577301025390625" lon="-4.74133391864597797393798828125">
        <ele>2036.5999755859375</ele>
        <time>2021-07-22T08:42:49.000Z</time>
      </trkpt>
      <trkpt lat="43.00872207619249820709228515625" lon="-4.7413329966366291046142578125">
        <ele>2037</ele>
        <time>2021-07-22T08:42:53.000Z</time>
      </trkpt>
      <trkpt lat="43.00873272120952606201171875" lon="-4.74131606519222259521484375">
        <ele>2037.800048828125</ele>
        <time>2021-07-22T08:42:57.000Z</time>
      </trkpt>
      <trkpt lat="43.0087322182953357696533203125" lon="-4.74131078459322452545166015625">
        <ele>2038</ele>
        <time>2021-07-22T08:42:59.000Z</time>
      </trkpt>
      <trkpt lat="43.00872844643890857696533203125" lon="-4.74132972769439220428466796875">
        <ele>2038.199951171875</ele>
        <time>2021-07-22T08:43:06.000Z</time>
      </trkpt>
      <trkpt lat="43.0087556876242160797119140625" lon="-4.74132017232477664947509765625">
        <ele>2038.5999755859375</ele>
        <time>2021-07-22T08:43:14.000Z</time>
      </trkpt>
      <trkpt lat="43.0087939091026782989501953125" lon="-4.741285555064678192138671875">
        <ele>2038.5999755859375</ele>
        <time>2021-07-22T08:43:17.000Z</time>
      </trkpt>
      <trkpt lat="43.008803464472293853759765625" lon="-4.7412759996950626373291015625">
        <ele>2038.800048828125</ele>
        <time>2021-07-22T08:43:18.000Z</time>
      </trkpt>
      <trkpt lat="43.0088151991367340087890625" lon="-4.7412724792957305908203125">
        <ele>2039.199951171875</ele>
        <time>2021-07-22T08:43:19.000Z</time>
      </trkpt>
      <trkpt lat="43.00884562544524669647216796875" lon="-4.74125412292778491973876953125">
        <ele>2040</ele>
        <time>2021-07-22T08:43:23.000Z</time>
      </trkpt>
      <trkpt lat="43.008850403130054473876953125" lon="-4.7412511892616748809814453125">
        <ele>2040.199951171875</ele>
        <time>2021-07-22T08:43:24.000Z</time>
      </trkpt>
      <trkpt lat="43.00889122299849987030029296875" lon="-4.74123450927436351776123046875">
        <ele>2040.800048828125</ele>
        <time>2021-07-22T08:43:30.000Z</time>
      </trkpt>
      <trkpt lat="43.00889901816844940185546875" lon="-4.74122864194214344024658203125">
        <ele>2041</ele>
        <time>2021-07-22T08:43:31.000Z</time>
      </trkpt>
      <trkpt lat="43.0089246667921543121337890625" lon="-4.741206429898738861083984375">
        <ele>2041.4000244140625</ele>
        <time>2021-07-22T08:43:34.000Z</time>
      </trkpt>
      <trkpt lat="43.0089558474719524383544921875" lon="-4.7411884926259517669677734375">
        <ele>2041.800048828125</ele>
        <time>2021-07-22T08:43:38.000Z</time>
      </trkpt>
      <trkpt lat="43.00896339118480682373046875" lon="-4.7411864809691905975341796875">
        <ele>2042.4000244140625</ele>
        <time>2021-07-22T08:43:39.000Z</time>
      </trkpt>
      <trkpt lat="43.00898996181786060333251953125" lon="-4.74116510711610317230224609375">
        <ele>2043.4000244140625</ele>
        <time>2021-07-22T08:43:43.000Z</time>
      </trkpt>
      <trkpt lat="43.0089937336742877960205078125" lon="-4.74115923978388309478759765625">
        <ele>2043.4000244140625</ele>
        <time>2021-07-22T08:43:44.000Z</time>
      </trkpt>
      <trkpt lat="43.00901460461318492889404296875" lon="-4.7411529533565044403076171875">
        <ele>2044.199951171875</ele>
        <time>2021-07-22T08:43:48.000Z</time>
      </trkpt>
      <trkpt lat="43.00902667455375194549560546875" lon="-4.74114364944398403167724609375">
        <ele>2044.5999755859375</ele>
        <time>2021-07-22T08:43:50.000Z</time>
      </trkpt>
      <trkpt lat="43.009040839970111846923828125" lon="-4.74114800803363323211669921875">
        <ele>2045</ele>
        <time>2021-07-22T08:43:54.000Z</time>
      </trkpt>
      <trkpt lat="43.00906606949865818023681640625" lon="-4.74111950956284999847412109375">
        <ele>2045.199951171875</ele>
        <time>2021-07-22T08:43:59.000Z</time>
      </trkpt>
      <trkpt lat="43.0090758763253688812255859375" lon="-4.741103835403919219970703125">
        <ele>2045.5999755859375</ele>
        <time>2021-07-22T08:44:02.000Z</time>
      </trkpt>
      <trkpt lat="43.00908417440950870513916015625" lon="-4.74109687842428684234619140625">
        <ele>2046.800048828125</ele>
        <time>2021-07-22T08:44:04.000Z</time>
      </trkpt>
      <trkpt lat="43.0091023631393909454345703125" lon="-4.741075001657009124755859375">
        <ele>2047.5999755859375</ele>
        <time>2021-07-22T08:44:08.000Z</time>
      </trkpt>
      <trkpt lat="43.00910362042486667633056640625" lon="-4.74105714820325374603271484375">
        <ele>2048</ele>
        <time>2021-07-22T08:44:10.000Z</time>
      </trkpt>
      <trkpt lat="43.00910965539515018463134765625" lon="-4.7410597465932369232177734375">
        <ele>2048.60009765625</ele>
        <time>2021-07-22T08:44:13.000Z</time>
      </trkpt>
      <trkpt lat="43.00911250524222850799560546875" lon="-4.74104759283363819122314453125">
        <ele>2049.199951171875</ele>
        <time>2021-07-22T08:44:16.000Z</time>
      </trkpt>
      <trkpt lat="43.0091127566993236541748046875" lon="-4.7410329245030879974365234375">
        <ele>2049.60009765625</ele>
        <time>2021-07-22T08:44:18.000Z</time>
      </trkpt>
      <trkpt lat="43.0090882815420627593994140625" lon="-4.74102378822863101959228515625">
        <ele>2050.199951171875</ele>
        <time>2021-07-22T08:44:22.000Z</time>
      </trkpt>
      <trkpt lat="43.00907545723021030426025390625" lon="-4.7410255484282970428466796875">
        <ele>2050.39990234375</ele>
        <time>2021-07-22T08:44:24.000Z</time>
      </trkpt>
      <trkpt lat="43.00911921076476573944091796875" lon="-4.7410017438232898712158203125">
        <ele>2050.800048828125</ele>
        <time>2021-07-22T08:44:32.000Z</time>
      </trkpt>
      <trkpt lat="43.0091228149831295013427734375" lon="-4.740997217595577239990234375">
        <ele>2051.39990234375</ele>
        <time>2021-07-22T08:44:34.000Z</time>
      </trkpt>
      <trkpt lat="43.00911887548863887786865234375" lon="-4.74096310324966907501220703125">
        <ele>2052.60009765625</ele>
        <time>2021-07-22T08:44:37.000Z</time>
      </trkpt>
      <trkpt lat="43.00911518745124340057373046875" lon="-4.74094617180526256561279296875">
        <ele>2052.800048828125</ele>
        <time>2021-07-22T08:44:38.000Z</time>
      </trkpt>
      <trkpt lat="43.00910127349197864532470703125" lon="-4.740913398563861846923828125">
        <ele>2053.800048828125</ele>
        <time>2021-07-22T08:44:43.000Z</time>
      </trkpt>
      <trkpt lat="43.00909557379782199859619140625" lon="-4.7408934496343135833740234375">
        <ele>2054</ele>
        <time>2021-07-22T08:44:47.000Z</time>
      </trkpt>
      <trkpt lat="43.00908735953271389007568359375" lon="-4.74090510047972202301025390625">
        <ele>2054.60009765625</ele>
        <time>2021-07-22T08:44:53.000Z</time>
      </trkpt>
      <trkpt lat="43.0090755410492420196533203125" lon="-4.74090660922229290008544921875">
        <ele>2054.800048828125</ele>
        <time>2021-07-22T08:44:55.000Z</time>
      </trkpt>
      <trkpt lat="43.00907160155475139617919921875" lon="-4.7409035079181194305419921875">
        <ele>2055</ele>
        <time>2021-07-22T08:44:59.000Z</time>
      </trkpt>
      <trkpt lat="43.00907361321151256561279296875" lon="-4.740914069116115570068359375">
        <ele>2055</ele>
        <time>2021-07-22T08:45:02.000Z</time>
      </trkpt>
      <trkpt lat="43.009075708687305450439453125" lon="-4.74090694449841976165771484375">
        <ele>2055</ele>
        <time>2021-07-22T08:45:05.000Z</time>
      </trkpt>
      <trkpt lat="43.0090872757136821746826171875" lon="-4.740868471562862396240234375">
        <ele>2055.199951171875</ele>
        <time>2021-07-22T08:45:08.000Z</time>
      </trkpt>
      <trkpt lat="43.00910177640616893768310546875" lon="-4.74082932807505130767822265625">
        <ele>2055.800048828125</ele>
        <time>2021-07-22T08:45:11.000Z</time>
      </trkpt>
      <trkpt lat="43.0091134272515773773193359375" lon="-4.74082731641829013824462890625">
        <ele>2056.199951171875</ele>
        <time>2021-07-22T08:45:13.000Z</time>
      </trkpt>
      <trkpt lat="43.00912834703922271728515625" lon="-4.74079278297722339630126953125">
        <ele>2057</ele>
        <time>2021-07-22T08:45:16.000Z</time>
      </trkpt>
      <trkpt lat="43.00914234481751918792724609375" lon="-4.74076629616320133209228515625">
        <ele>2057.60009765625</ele>
        <time>2021-07-22T08:45:19.000Z</time>
      </trkpt>
      <trkpt lat="43.00915324129164218902587890625" lon="-4.7407452575862407684326171875">
        <ele>2058.199951171875</ele>
        <time>2021-07-22T08:45:21.000Z</time>
      </trkpt>
      <trkpt lat="43.00915793515741825103759765625" lon="-4.74072623066604137420654296875">
        <ele>2058.800048828125</ele>
        <time>2021-07-22T08:45:26.000Z</time>
      </trkpt>
      <trkpt lat="43.0091553367674350738525390625" lon="-4.74071818403899669647216796875">
        <ele>2059.199951171875</ele>
        <time>2021-07-22T08:45:27.000Z</time>
      </trkpt>
      <trkpt lat="43.00915692932903766632080078125" lon="-4.7407294996082782745361328125">
        <ele>2060</ele>
        <time>2021-07-22T08:45:34.000Z</time>
      </trkpt>
      <trkpt lat="43.00918861292302608489990234375" lon="-4.74075975827872753143310546875">
        <ele>2060.199951171875</ele>
        <time>2021-07-22T08:45:38.000Z</time>
      </trkpt>
      <trkpt lat="43.0092062987387180328369140625" lon="-4.74075506441295146942138671875">
        <ele>2060.39990234375</ele>
        <time>2021-07-22T08:45:40.000Z</time>
      </trkpt>
      <trkpt lat="43.0092254094779491424560546875" lon="-4.74073863588273525238037109375">
        <ele>2061.199951171875</ele>
        <time>2021-07-22T08:45:44.000Z</time>
      </trkpt>
      <trkpt lat="43.00922633148729801177978515625" lon="-4.7407382167875766754150390625">
        <ele>2061.39990234375</ele>
        <time>2021-07-22T08:45:45.000Z</time>
      </trkpt>
      <trkpt lat="43.00921283662319183349609375" lon="-4.74073980934917926788330078125">
        <ele>2061.60009765625</ele>
        <time>2021-07-22T08:45:50.000Z</time>
      </trkpt>
      <trkpt lat="43.0092005990445613861083984375" lon="-4.7407288290560245513916015625">
        <ele>2062</ele>
        <time>2021-07-22T08:45:57.000Z</time>
      </trkpt>
      <trkpt lat="43.00921141169965267181396484375" lon="-4.7407244704663753509521484375">
        <ele>2061.60009765625</ele>
        <time>2021-07-22T08:46:02.000Z</time>
      </trkpt>
      <trkpt lat="43.00924837589263916015625" lon="-4.7407130710780620574951171875">
        <ele>2061.60009765625</ele>
        <time>2021-07-22T08:46:06.000Z</time>
      </trkpt>
      <trkpt lat="43.00926807336509227752685546875" lon="-4.740715920925140380859375">
        <ele>2062</ele>
        <time>2021-07-22T08:46:13.000Z</time>
      </trkpt>
      <trkpt lat="43.00926254130899906158447265625" lon="-4.740721620619297027587890625">
        <ele>2062</ele>
        <time>2021-07-22T08:46:14.000Z</time>
      </trkpt>
      <trkpt lat="43.00925365649163722991943359375" lon="-4.74074265919625759124755859375">
        <ele>2061.800048828125</ele>
        <time>2021-07-22T08:46:21.000Z</time>
      </trkpt>
      <trkpt lat="43.0092485435307025909423828125" lon="-4.7407315112650394439697265625">
        <ele>2062</ele>
        <time>2021-07-22T08:46:28.000Z</time>
      </trkpt>
      <trkpt lat="43.009256757795810699462890625" lon="-4.7407305054366588592529296875">
        <ele>2062.199951171875</ele>
        <time>2021-07-22T08:46:34.000Z</time>
      </trkpt>
      <trkpt lat="43.0092411674559116363525390625" lon="-4.7407221235334873199462890625">
        <ele>2062.39990234375</ele>
        <time>2021-07-22T08:46:40.000Z</time>
      </trkpt>
      <trkpt lat="43.009277880191802978515625" lon="-4.74069655872881412506103515625">
        <ele>2062.39990234375</ele>
        <time>2021-07-22T08:46:48.000Z</time>
      </trkpt>
      <trkpt lat="43.00924493931233882904052734375" lon="-4.7407744266092777252197265625">
        <ele>2062.39990234375</ele>
        <time>2021-07-22T08:46:55.000Z</time>
      </trkpt>
      <trkpt lat="43.009286262094974517822265625" lon="-4.7408056072890758514404296875">
        <ele>2063.39990234375</ele>
        <time>2021-07-22T08:47:01.000Z</time>
      </trkpt>
      <trkpt lat="43.0093266628682613372802734375" lon="-4.74082865752279758453369140625">
        <ele>2064.39990234375</ele>
        <time>2021-07-22T08:47:06.000Z</time>
      </trkpt>
      <trkpt lat="43.009340576827526092529296875" lon="-4.74083787761628627777099609375">
        <ele>2064.60009765625</ele>
        <time>2021-07-22T08:47:09.000Z</time>
      </trkpt>
      <trkpt lat="43.00935792736709117889404296875" lon="-4.74082731641829013824462890625">
        <ele>2064.60009765625</ele>
        <time>2021-07-22T08:47:11.000Z</time>
      </trkpt>
      <trkpt lat="43.0093739368021488189697265625" lon="-4.74083921872079372406005859375">
        <ele>2064.800048828125</ele>
        <time>2021-07-22T08:47:17.000Z</time>
      </trkpt>
      <trkpt lat="43.00938357599079608917236328125" lon="-4.74083838053047657012939453125">
        <ele>2065.199951171875</ele>
        <time>2021-07-22T08:47:19.000Z</time>
      </trkpt>
      <trkpt lat="43.0094044469296932220458984375" lon="-4.7408478520810604095458984375">
        <ele>2065</ele>
        <time>2021-07-22T08:47:22.000Z</time>
      </trkpt>
      <trkpt lat="43.0094151757657527923583984375" lon="-4.7408515401184558868408203125">
        <ele>2064.800048828125</ele>
        <time>2021-07-22T08:47:23.000Z</time>
      </trkpt>
      <trkpt lat="43.0094594322144985198974609375" lon="-4.74086168222129344940185546875">
        <ele>2065.199951171875</ele>
        <time>2021-07-22T08:47:27.000Z</time>
      </trkpt>
      <trkpt lat="43.009491451084613800048828125" lon="-4.740892611443996429443359375">
        <ele>2065.39990234375</ele>
        <time>2021-07-22T08:47:32.000Z</time>
      </trkpt>
      <trkpt lat="43.0095005035400390625" lon="-4.7409021668136119842529296875">
        <ele>2065.800048828125</ele>
        <time>2021-07-22T08:47:33.000Z</time>
      </trkpt>
      <trkpt lat="43.009547106921672821044921875" lon="-4.7409420646727085113525390625">
        <ele>2066.800048828125</ele>
        <time>2021-07-22T08:47:37.000Z</time>
      </trkpt>
      <trkpt lat="43.00955523736774921417236328125" lon="-4.74094164557754993438720703125">
        <ele>2067</ele>
        <time>2021-07-22T08:47:38.000Z</time>
      </trkpt>
      <trkpt lat="43.0095801316201686859130859375" lon="-4.7409296594560146331787109375">
        <ele>2067.39990234375</ele>
        <time>2021-07-22T08:47:41.000Z</time>
      </trkpt>
      <trkpt lat="43.0095901899039745330810546875" lon="-4.74093074910342693328857421875">
        <ele>2067.60009765625</ele>
        <time>2021-07-22T08:47:42.000Z</time>
      </trkpt>
      <trkpt lat="43.00961826927959918975830078125" lon="-4.74094533361494541168212890625">
        <ele>2068</ele>
        <time>2021-07-22T08:47:45.000Z</time>
      </trkpt>
      <trkpt lat="43.00962598063051700592041015625" lon="-4.74094566889107227325439453125">
        <ele>2068.199951171875</ele>
        <time>2021-07-22T08:47:46.000Z</time>
      </trkpt>
      <trkpt lat="43.00965179689228534698486328125" lon="-4.74096343852579593658447265625">
        <ele>2069.199951171875</ele>
        <time>2021-07-22T08:47:50.000Z</time>
      </trkpt>
      <trkpt lat="43.00966286100447177886962890625" lon="-4.74097752012312412261962890625">
        <ele>2069.199951171875</ele>
        <time>2021-07-22T08:47:52.000Z</time>
      </trkpt>
      <trkpt lat="43.0096735060214996337890625" lon="-4.74099076353013515472412109375">
        <ele>2069.60009765625</ele>
        <time>2021-07-22T08:47:54.000Z</time>
      </trkpt>
      <trkpt lat="43.0096874199807643890380859375" lon="-4.74099864251911640167236328125">
        <ele>2069.800048828125</ele>
        <time>2021-07-22T08:47:56.000Z</time>
      </trkpt>
      <trkpt lat="43.009716756641864776611328125" lon="-4.741001240909099578857421875">
        <ele>2070</ele>
        <time>2021-07-22T08:47:59.000Z</time>
      </trkpt>
      <trkpt lat="43.0097273178398609161376953125" lon="-4.74100224673748016357421875">
        <ele>2070.199951171875</ele>
        <time>2021-07-22T08:48:00.000Z</time>
      </trkpt>
      <trkpt lat="43.00976076163351535797119140625" lon="-4.74101641215384006500244140625">
        <ele>2071.199951171875</ele>
        <time>2021-07-22T08:48:03.000Z</time>
      </trkpt>
      <trkpt lat="43.00977048464119434356689453125" lon="-4.74101808853447437286376953125">
        <ele>2071.39990234375</ele>
        <time>2021-07-22T08:48:04.000Z</time>
      </trkpt>
      <trkpt lat="43.00977869890630245208740234375" lon="-4.74102596752345561981201171875">
        <ele>2071.39990234375</ele>
        <time>2021-07-22T08:48:05.000Z</time>
      </trkpt>
      <trkpt lat="43.00982597284018993377685546875" lon="-4.7410466708242893218994140625">
        <ele>2072</ele>
        <time>2021-07-22T08:48:10.000Z</time>
      </trkpt>
      <trkpt lat="43.00986872054636478424072265625" lon="-4.7410708107054233551025390625">
        <ele>2072.60009765625</ele>
        <time>2021-07-22T08:48:13.000Z</time>
      </trkpt>
      <trkpt lat="43.0098882503807544708251953125" lon="-4.7410832159221172332763671875">
        <ele>2073</ele>
        <time>2021-07-22T08:48:15.000Z</time>
      </trkpt>
      <trkpt lat="43.00989386625587940216064453125" lon="-4.74108874797821044921875">
        <ele>2073</ele>
        <time>2021-07-22T08:48:16.000Z</time>
      </trkpt>
      <trkpt lat="43.0099278129637241363525390625" lon="-4.7411184199154376983642578125">
        <ele>2073.199951171875</ele>
        <time>2021-07-22T08:48:20.000Z</time>
      </trkpt>
      <trkpt lat="43.00994046963751316070556640625" lon="-4.74113744683563709259033203125">
        <ele>2073.60009765625</ele>
        <time>2021-07-22T08:48:22.000Z</time>
      </trkpt>
      <trkpt lat="43.009944073855876922607421875" lon="-4.7411418892443180084228515625">
        <ele>2073.60009765625</ele>
        <time>2021-07-22T08:48:23.000Z</time>
      </trkpt>
      <trkpt lat="43.0099589936435222625732421875" lon="-4.741160832345485687255859375">
        <ele>2074.60009765625</ele>
        <time>2021-07-22T08:48:26.000Z</time>
      </trkpt>
      <trkpt lat="43.009963519871234893798828125" lon="-4.74116988480091094970703125">
        <ele>2074.800048828125</ele>
        <time>2021-07-22T08:48:27.000Z</time>
      </trkpt>
      <trkpt lat="43.0099807865917682647705078125" lon="-4.74119343794882297515869140625">
        <ele>2075.800048828125</ele>
        <time>2021-07-22T08:48:31.000Z</time>
      </trkpt>
      <trkpt lat="43.00998539663851261138916015625" lon="-4.7411941923201084136962890625">
        <ele>2075.800048828125</ele>
        <time>2021-07-22T08:48:32.000Z</time>
      </trkpt>
      <trkpt lat="43.01000517792999744415283203125" lon="-4.741210453212261199951171875">
        <ele>2076.60009765625</ele>
        <time>2021-07-22T08:48:35.000Z</time>
      </trkpt>
      <trkpt lat="43.01001481711864471435546875" lon="-4.74122889339923858642578125">
        <ele>2076.800048828125</ele>
        <time>2021-07-22T08:48:37.000Z</time>
      </trkpt>
      <trkpt lat="43.0100263841450214385986328125" lon="-4.74125680513679981231689453125">
        <ele>2076.800048828125</ele>
        <time>2021-07-22T08:48:40.000Z</time>
      </trkpt>
      <trkpt lat="43.0100253783166408538818359375" lon="-4.74126602523028850555419921875">
        <ele>2077.39990234375</ele>
        <time>2021-07-22T08:48:42.000Z</time>
      </trkpt>
      <trkpt lat="43.01002479158341884613037109375" lon="-4.74126384593546390533447265625">
        <ele>2077.60009765625</ele>
        <time>2021-07-22T08:48:43.000Z</time>
      </trkpt>
      <trkpt lat="43.0100216902792453765869140625" lon="-4.7412780113518238067626953125">
        <ele>2078</ele>
        <time>2021-07-22T08:48:48.000Z</time>
      </trkpt>
      <trkpt lat="43.0100149847567081451416015625" lon="-4.7412766702473163604736328125">
        <ele>2078.199951171875</ele>
        <time>2021-07-22T08:48:51.000Z</time>
      </trkpt>
      <trkpt lat="43.0100156553089618682861328125" lon="-4.741279184818267822265625">
        <ele>2078.199951171875</ele>
        <time>2021-07-22T08:48:52.000Z</time>
      </trkpt>
      <trkpt lat="43.01003334112465381622314453125" lon="-4.74136878736317157745361328125">
        <ele>2078.199951171875</ele>
        <time>2021-07-22T08:48:58.000Z</time>
      </trkpt>
      <trkpt lat="43.0100478418171405792236328125" lon="-4.74145495332777500152587890625">
        <ele>2078.60009765625</ele>
        <time>2021-07-22T08:49:05.000Z</time>
      </trkpt>
      <trkpt lat="43.01005429588258266448974609375" lon="-4.7414671070873737335205078125">
        <ele>2079</ele>
        <time>2021-07-22T08:49:06.000Z</time>
      </trkpt>
      <trkpt lat="43.010070137679576873779296875" lon="-4.74151412956416606903076171875">
        <ele>2080</ele>
        <time>2021-07-22T08:49:10.000Z</time>
      </trkpt>
      <trkpt lat="43.01007784903049468994140625" lon="-4.7415247745811939239501953125">
        <ele>2080.199951171875</ele>
        <time>2021-07-22T08:49:11.000Z</time>
      </trkpt>
      <trkpt lat="43.0101021565496921539306640625" lon="-4.7415489144623279571533203125">
        <ele>2080.60009765625</ele>
        <time>2021-07-22T08:49:14.000Z</time>
      </trkpt>
      <trkpt lat="43.010101318359375" lon="-4.74156274460256099700927734375">
        <ele>2080.800048828125</ele>
        <time>2021-07-22T08:49:15.000Z</time>
      </trkpt>
      <trkpt lat="43.0101256258785724639892578125" lon="-4.74162242375314235687255859375">
        <ele>2080.199951171875</ele>
        <time>2021-07-22T08:49:19.000Z</time>
      </trkpt>
      <trkpt lat="43.0101353488862514495849609375" lon="-4.741633571684360504150390625">
        <ele>2079.800048828125</ele>
        <time>2021-07-22T08:49:20.000Z</time>
      </trkpt>
      <trkpt lat="43.0101842992007732391357421875" lon="-4.741663075983524322509765625">
        <ele>2079.60009765625</ele>
        <time>2021-07-22T08:49:24.000Z</time>
      </trkpt>
      <trkpt lat="43.0102260410785675048828125" lon="-4.74170188419520854949951171875">
        <ele>2080.199951171875</ele>
        <time>2021-07-22T08:49:29.000Z</time>
      </trkpt>
      <trkpt lat="43.01023417152464389801025390625" lon="-4.741709344089031219482421875">
        <ele>2080.39990234375</ele>
        <time>2021-07-22T08:49:30.000Z</time>
      </trkpt>
      <trkpt lat="43.010264933109283447265625" lon="-4.7417309693992137908935546875">
        <ele>2081</ele>
        <time>2021-07-22T08:49:34.000Z</time>
      </trkpt>
      <trkpt lat="43.01028697751462459564208984375" lon="-4.74174060858786106109619140625">
        <ele>2081</ele>
        <time>2021-07-22T08:49:36.000Z</time>
      </trkpt>
      <trkpt lat="43.0103231035172939300537109375" lon="-4.741748906672000885009765625">
        <ele>2081</ele>
        <time>2021-07-22T08:49:39.000Z</time>
      </trkpt>
      <trkpt lat="43.0103526078164577484130859375" lon="-4.74175401963293552398681640625">
        <ele>2081.39990234375</ele>
        <time>2021-07-22T08:49:42.000Z</time>
      </trkpt>
      <trkpt lat="43.01036241464316844940185546875" lon="-4.741746895015239715576171875">
        <ele>2081.800048828125</ele>
        <time>2021-07-22T08:49:43.000Z</time>
      </trkpt>
      <trkpt lat="43.01038940437138080596923828125" lon="-4.74172736518085002899169921875">
        <ele>2082.199951171875</ele>
        <time>2021-07-22T08:49:46.000Z</time>
      </trkpt>
      <trkpt lat="43.0104025639593601226806640625" lon="-4.74173474125564098358154296875">
        <ele>2082.39990234375</ele>
        <time>2021-07-22T08:49:47.000Z</time>
      </trkpt>
      <trkpt lat="43.01041186787188053131103515625" lon="-4.7417326457798480987548828125">
        <ele>2082.39990234375</ele>
        <time>2021-07-22T08:49:48.000Z</time>
      </trkpt>
      <trkpt lat="43.01041907630860805511474609375" lon="-4.74173289723694324493408203125">
        <ele>2082.800048828125</ele>
        <time>2021-07-22T08:49:49.000Z</time>
      </trkpt>
      <trkpt lat="43.01043785177171230316162109375" lon="-4.7417323105037212371826171875">
        <ele>2083.39990234375</ele>
        <time>2021-07-22T08:49:51.000Z</time>
      </trkpt>
      <trkpt lat="43.010445646941661834716796875" lon="-4.741736166179180145263671875">
        <ele>2083.39990234375</ele>
        <time>2021-07-22T08:49:52.000Z</time>
      </trkpt>
      <trkpt lat="43.01050859503448009490966796875" lon="-4.74171839654445648193359375">
        <ele>2084</ele>
        <time>2021-07-22T08:49:58.000Z</time>
      </trkpt>
      <trkpt lat="43.01053491421043872833251953125" lon="-4.7417292930185794830322265625">
        <ele>2084.199951171875</ele>
        <time>2021-07-22T08:50:01.000Z</time>
      </trkpt>
      <trkpt lat="43.01054983399808406829833984375" lon="-4.74174396134912967681884765625">
        <ele>2084.39990234375</ele>
        <time>2021-07-22T08:50:03.000Z</time>
      </trkpt>
      <trkpt lat="43.01055519841611385345458984375" lon="-4.74174563772976398468017578125">
        <ele>2084</ele>
        <time>2021-07-22T08:50:04.000Z</time>
      </trkpt>
      <trkpt lat="43.010570369660854339599609375" lon="-4.741749577224254608154296875">
        <ele>2083.60009765625</ele>
        <time>2021-07-22T08:50:08.000Z</time>
      </trkpt>
      <trkpt lat="43.010610602796077728271484375" lon="-4.74183146841824054718017578125">
        <ele>2083.39990234375</ele>
        <time>2021-07-22T08:50:14.000Z</time>
      </trkpt>
      <trkpt lat="43.01063080318272113800048828125" lon="-4.74184571765363216400146484375">
        <ele>2083.199951171875</ele>
        <time>2021-07-22T08:50:16.000Z</time>
      </trkpt>
      <trkpt lat="43.01065058447420597076416015625" lon="-4.74187958054244518280029296875">
        <ele>2083.39990234375</ele>
        <time>2021-07-22T08:50:19.000Z</time>
      </trkpt>
      <trkpt lat="43.0106605589389801025390625" lon="-4.7419006191194057464599609375">
        <ele>2084.199951171875</ele>
        <time>2021-07-22T08:50:22.000Z</time>
      </trkpt>
      <trkpt lat="43.01065728999674320220947265625" lon="-4.74189944565296173095703125">
        <ele>2084.39990234375</ele>
        <time>2021-07-22T08:50:24.000Z</time>
      </trkpt>
      <trkpt lat="43.010658882558345794677734375" lon="-4.7419049777090549468994140625">
        <ele>2084.60009765625</ele>
        <time>2021-07-22T08:50:26.000Z</time>
      </trkpt>
      <trkpt lat="43.01068712957203388214111328125" lon="-4.7419458813965320587158203125">
        <ele>2083.39990234375</ele>
        <time>2021-07-22T08:50:32.000Z</time>
      </trkpt>
      <trkpt lat="43.0107388459146022796630859375" lon="-4.741993658244609832763671875">
        <ele>2082.39990234375</ele>
        <time>2021-07-22T08:50:38.000Z</time>
      </trkpt>
      <trkpt lat="43.01074529998004436492919921875" lon="-4.741994328796863555908203125">
        <ele>2082.39990234375</ele>
        <time>2021-07-22T08:50:39.000Z</time>
      </trkpt>
      <trkpt lat="43.0107592977583408355712890625" lon="-4.7419884614646434783935546875">
        <ele>2082</ele>
        <time>2021-07-22T08:50:41.000Z</time>
      </trkpt>
      <trkpt lat="43.01077011041343212127685546875" lon="-4.74195568822324275970458984375">
        <ele>2081.800048828125</ele>
        <time>2021-07-22T08:50:45.000Z</time>
      </trkpt>
      <trkpt lat="43.010784275829792022705078125" lon="-4.74190908484160900115966796875">
        <ele>2082.60009765625</ele>
        <time>2021-07-22T08:50:49.000Z</time>
      </trkpt>
      <trkpt lat="43.0107705295085906982421875" lon="-4.74188963882625102996826171875">
        <ele>2082.60009765625</ele>
        <time>2021-07-22T08:50:54.000Z</time>
      </trkpt>
      <trkpt lat="43.010767512023448944091796875" lon="-4.7418895550072193145751953125">
        <ele>2082.60009765625</ele>
        <time>2021-07-22T08:50:55.000Z</time>
      </trkpt>
      <trkpt lat="43.01076038740575313568115234375" lon="-4.741944707930088043212890625">
        <ele>2082.39990234375</ele>
        <time>2021-07-22T08:51:07.000Z</time>
      </trkpt>
      <trkpt lat="43.010760806500911712646484375" lon="-4.741950072348117828369140625">
        <ele>2082.39990234375</ele>
        <time>2021-07-22T08:51:10.000Z</time>
      </trkpt>
      <trkpt lat="43.01076047122478485107421875" lon="-4.74194345064461231231689453125">
        <ele>2082.60009765625</ele>
        <time>2021-07-22T08:51:12.000Z</time>
      </trkpt>
      <trkpt lat="43.01076047122478485107421875" lon="-4.74194428883492946624755859375">
        <ele>2082.39990234375</ele>
        <time>2021-07-22T08:51:15.000Z</time>
      </trkpt>
      <trkpt lat="43.01076491363346576690673828125" lon="-4.7419349849224090576171875">
        <ele>2082</ele>
        <time>2021-07-22T08:51:23.000Z</time>
      </trkpt>
      <trkpt lat="43.0107666738331317901611328125" lon="-4.741911180317401885986328125">
        <ele>2082.60009765625</ele>
        <time>2021-07-22T08:51:29.000Z</time>
      </trkpt>
      <trkpt lat="43.01075535826385021209716796875" lon="-4.741938672959804534912109375">
        <ele>2082.800048828125</ele>
        <time>2021-07-22T08:51:34.000Z</time>
      </trkpt>
      <trkpt lat="43.01079894416034221649169921875" lon="-4.7419215738773345947265625">
        <ele>2082.800048828125</ele>
        <time>2021-07-22T08:51:38.000Z</time>
      </trkpt>
      <trkpt lat="43.01084839738905429840087890625" lon="-4.7419019602239131927490234375">
        <ele>2083.199951171875</ele>
        <time>2021-07-22T08:51:43.000Z</time>
      </trkpt>
      <trkpt lat="43.010832555592060089111328125" lon="-4.74187128245830535888671875">
        <ele>2083.199951171875</ele>
        <time>2021-07-22T08:51:47.000Z</time>
      </trkpt>
      <trkpt lat="43.010821826756000518798828125" lon="-4.74186348728835582733154296875">
        <ele>2083</ele>
        <time>2021-07-22T08:51:53.000Z</time>
      </trkpt>
      <trkpt lat="43.01087890751659870147705078125" lon="-4.74190690554678440093994140625">
        <ele>2083.39990234375</ele>
        <time>2021-07-22T08:51:59.000Z</time>
      </trkpt>
      <trkpt lat="43.0108867026865482330322265625" lon="-4.7419076599180698394775390625">
        <ele>2083.39990234375</ele>
        <time>2021-07-22T08:52:00.000Z</time>
      </trkpt>
      <trkpt lat="43.01090640015900135040283203125" lon="-4.741912521421909332275390625">
        <ele>2084.60009765625</ele>
        <time>2021-07-22T08:52:03.000Z</time>
      </trkpt>
      <trkpt lat="43.010910339653491973876953125" lon="-4.74191729910671710968017578125">
        <ele>2084.800048828125</ele>
        <time>2021-07-22T08:52:04.000Z</time>
      </trkpt>
      <trkpt lat="43.0109165422618389129638671875" lon="-4.74191746674478054046630859375">
        <ele>2085.800048828125</ele>
        <time>2021-07-22T08:52:08.000Z</time>
      </trkpt>
      <trkpt lat="43.01091914065182209014892578125" lon="-4.741917550563812255859375">
        <ele>2085.800048828125</ele>
        <time>2021-07-22T08:52:09.000Z</time>
      </trkpt>
      <trkpt lat="43.0109430290758609771728515625" lon="-4.7419559396803379058837890625">
        <ele>2085.800048828125</ele>
        <time>2021-07-22T08:52:13.000Z</time>
      </trkpt>
      <trkpt lat="43.01097228191792964935302734375" lon="-4.74198259413242340087890625">
        <ele>2087</ele>
        <time>2021-07-22T08:52:17.000Z</time>
      </trkpt>
      <trkpt lat="43.010978065431118011474609375" lon="-4.7419988550245761871337890625">
        <ele>2087.39990234375</ele>
        <time>2021-07-22T08:52:19.000Z</time>
      </trkpt>
      <trkpt lat="43.01098250783979892730712890625" lon="-4.74201620556414127349853515625">
        <ele>2087.60009765625</ele>
        <time>2021-07-22T08:52:21.000Z</time>
      </trkpt>
      <trkpt lat="43.0109859444200992584228515625" lon="-4.742030538618564605712890625">
        <ele>2088</ele>
        <time>2021-07-22T08:52:22.000Z</time>
      </trkpt>
      <trkpt lat="43.01098845899105072021484375" lon="-4.7420417703688144683837890625">
        <ele>2088</ele>
        <time>2021-07-22T08:52:23.000Z</time>
      </trkpt>
      <trkpt lat="43.0109856091439723968505859375" lon="-4.7420575283467769622802734375">
        <ele>2088.199951171875</ele>
        <time>2021-07-22T08:52:25.000Z</time>
      </trkpt>
      <trkpt lat="43.01098099909722805023193359375" lon="-4.7420608811080455780029296875">
        <ele>2088.60009765625</ele>
        <time>2021-07-22T08:52:26.000Z</time>
      </trkpt>
      <trkpt lat="43.0109809152781963348388671875" lon="-4.74206582643091678619384765625">
        <ele>2089</ele>
        <time>2021-07-22T08:52:27.000Z</time>
      </trkpt>
      <trkpt lat="43.01098150201141834259033203125" lon="-4.7420744597911834716796875">
        <ele>2089.199951171875</ele>
        <time>2021-07-22T08:52:28.000Z</time>
      </trkpt>
      <trkpt lat="43.0109996907413005828857421875" lon="-4.74211871623992919921875">
        <ele>2089.39990234375</ele>
        <time>2021-07-22T08:52:31.000Z</time>
      </trkpt>
      <trkpt lat="43.011014945805072784423828125" lon="-4.742135815322399139404296875">
        <ele>2089.39990234375</ele>
        <time>2021-07-22T08:52:33.000Z</time>
      </trkpt>
      <trkpt lat="43.0110211484134197235107421875" lon="-4.74213589914143085479736328125">
        <ele>2089.39990234375</ele>
        <time>2021-07-22T08:52:34.000Z</time>
      </trkpt>
      <trkpt lat="43.01102911122143268585205078125" lon="-4.74213036708533763885498046875">
        <ele>2089.39990234375</ele>
        <time>2021-07-22T08:52:36.000Z</time>
      </trkpt>
      <trkpt lat="43.01105023361742496490478515625" lon="-4.7421495616436004638671875">
        <ele>2089.800048828125</ele>
        <time>2021-07-22T08:52:40.000Z</time>
      </trkpt>
      <trkpt lat="43.01106414757668972015380859375" lon="-4.74215693771839141845703125">
        <ele>2090.199951171875</ele>
        <time>2021-07-22T08:52:42.000Z</time>
      </trkpt>
      <trkpt lat="43.01107772625982761383056640625" lon="-4.7421607933938503265380859375">
        <ele>2090.39990234375</ele>
        <time>2021-07-22T08:52:45.000Z</time>
      </trkpt>
      <trkpt lat="43.01110253669321537017822265625" lon="-4.74215291440486907958984375">
        <ele>2090.39990234375</ele>
        <time>2021-07-22T08:52:51.000Z</time>
      </trkpt>
      <trkpt lat="43.0111140199005603790283203125" lon="-4.742121733725070953369140625">
        <ele>2091</ele>
        <time>2021-07-22T08:52:54.000Z</time>
      </trkpt>
      <trkpt lat="43.011116199195384979248046875" lon="-4.74211595021188259124755859375">
        <ele>2091.199951171875</ele>
        <time>2021-07-22T08:52:55.000Z</time>
      </trkpt>
      <trkpt lat="43.01111913286149501800537109375" lon="-4.74212097935378551483154296875">
        <ele>2091.199951171875</ele>
        <time>2021-07-22T08:52:56.000Z</time>
      </trkpt>
      <trkpt lat="43.0111247487366199493408203125" lon="-4.74215752445161342620849609375">
        <ele>2091.39990234375</ele>
        <time>2021-07-22T08:53:01.000Z</time>
      </trkpt>
      <trkpt lat="43.01111242733895778656005859375" lon="-4.74212517030537128448486328125">
        <ele>2091.60009765625</ele>
        <time>2021-07-22T08:53:06.000Z</time>
      </trkpt>
      <trkpt lat="43.01111108623445034027099609375" lon="-4.74210605956614017486572265625">
        <ele>2091.60009765625</ele>
        <time>2021-07-22T08:53:08.000Z</time>
      </trkpt>
      <trkpt lat="43.01111091859638690948486328125" lon="-4.74210673011839389801025390625">
        <ele>2092.199951171875</ele>
        <time>2021-07-22T08:53:10.000Z</time>
      </trkpt>
      <trkpt lat="43.011110164225101470947265625" lon="-4.742109663784503936767578125">
        <ele>2092.39990234375</ele>
        <time>2021-07-22T08:53:11.000Z</time>
      </trkpt>
      <trkpt lat="43.0111301131546497344970703125" lon="-4.7421239130198955535888671875">
        <ele>2092</ele>
        <time>2021-07-22T08:53:17.000Z</time>
      </trkpt>
      <trkpt lat="43.01110270433127880096435546875" lon="-4.7420877031981945037841796875">
        <ele>2091.60009765625</ele>
        <time>2021-07-22T08:53:23.000Z</time>
      </trkpt>
      <trkpt lat="43.01112567074596881866455078125" lon="-4.74210153333842754364013671875">
        <ele>2092.199951171875</ele>
        <time>2021-07-22T08:53:30.000Z</time>
      </trkpt>
      <trkpt lat="43.0111103318631649017333984375" lon="-4.74211561493575572967529296875">
        <ele>2091.60009765625</ele>
        <time>2021-07-22T08:53:37.000Z</time>
      </trkpt>
      <trkpt lat="43.01114092580974102020263671875" lon="-4.74208426661789417266845703125">
        <ele>2119.60009765625</ele>
        <time>2021-07-22T08:54:07.000Z</time>
      </trkpt>
      <trkpt lat="43.01114746369421482086181640625" lon="-4.74207672290503978729248046875">
        <ele>2119.60009765625</ele>
        <time>2021-07-22T08:54:08.000Z</time>
      </trkpt>
      <trkpt lat="43.01117445342242717742919921875" lon="-4.74206976592540740966796875">
        <ele>2119.60009765625</ele>
        <time>2021-07-22T08:54:12.000Z</time>
      </trkpt>
      <trkpt lat="43.01118317060172557830810546875" lon="-4.74206850863993167877197265625">
        <ele>2119.60009765625</ele>
        <time>2021-07-22T08:54:13.000Z</time>
      </trkpt>
      <trkpt lat="43.01119423471391201019287109375" lon="-4.74206733517348766326904296875">
        <ele>2095.800048828125</ele>
        <time>2021-07-22T08:54:14.000Z</time>
      </trkpt>
      <trkpt lat="43.01120144315063953399658203125" lon="-4.74206465296447277069091796875">
        <ele>2084.39990234375</ele>
        <time>2021-07-22T08:54:15.000Z</time>
      </trkpt>
      <trkpt lat="43.0112089030444622039794921875" lon="-4.7420652396976947784423828125">
        <ele>2078.60009765625</ele>
        <time>2021-07-22T08:54:16.000Z</time>
      </trkpt>
      <trkpt lat="43.01121384836733341217041015625" lon="-4.742066748440265655517578125">
        <ele>2075.60009765625</ele>
        <time>2021-07-22T08:54:17.000Z</time>
      </trkpt>
      <trkpt lat="43.01121284253895282745361328125" lon="-4.74207068793475627899169921875">
        <ele>2074.199951171875</ele>
        <time>2021-07-22T08:54:18.000Z</time>
      </trkpt>
      <trkpt lat="43.0112166143953800201416015625" lon="-4.7420592047274112701416015625">
        <ele>2073.199951171875</ele>
        <time>2021-07-22T08:54:21.000Z</time>
      </trkpt>
      <trkpt lat="43.0112327076494693756103515625" lon="-4.742058701813220977783203125">
        <ele>2072.800048828125</ele>
        <time>2021-07-22T08:54:25.000Z</time>
      </trkpt>
      <trkpt lat="43.01125190220773220062255859375" lon="-4.74203716032207012176513671875">
        <ele>2073.199951171875</ele>
        <time>2021-07-22T08:54:32.000Z</time>
      </trkpt>
      <trkpt lat="43.011268414556980133056640625" lon="-4.7420048899948596954345703125">
        <ele>2074.60009765625</ele>
        <time>2021-07-22T08:54:36.000Z</time>
      </trkpt>
      <trkpt lat="43.01129029132425785064697265625" lon="-4.74202416837215423583984375">
        <ele>2075.800048828125</ele>
        <time>2021-07-22T08:54:40.000Z</time>
      </trkpt>
      <trkpt lat="43.0112967453896999359130859375" lon="-4.742024503648281097412109375">
        <ele>2076</ele>
        <time>2021-07-22T08:54:41.000Z</time>
      </trkpt>
      <trkpt lat="43.0113175325095653533935546875" lon="-4.7420337237417697906494140625">
        <ele>2076.60009765625</ele>
        <time>2021-07-22T08:54:44.000Z</time>
      </trkpt>
      <trkpt lat="43.01132868044078350067138671875" lon="-4.74203967489302158355712890625">
        <ele>2076.800048828125</ele>
        <time>2021-07-22T08:54:45.000Z</time>
      </trkpt>
      <trkpt lat="43.01134058274328708648681640625" lon="-4.74204336293041706085205078125">
        <ele>2077</ele>
        <time>2021-07-22T08:54:46.000Z</time>
      </trkpt>
      <trkpt lat="43.011377714574337005615234375" lon="-4.74205358885228633880615234375">
        <ele>2077.800048828125</ele>
        <time>2021-07-22T08:54:50.000Z</time>
      </trkpt>
      <trkpt lat="43.0113959871232509613037109375" lon="-4.74205828271806240081787109375">
        <ele>2078</ele>
        <time>2021-07-22T08:54:52.000Z</time>
      </trkpt>
      <trkpt lat="43.0114040337502956390380859375" lon="-4.7420618869364261627197265625">
        <ele>2078</ele>
        <time>2021-07-22T08:54:53.000Z</time>
      </trkpt>
      <trkpt lat="43.0114196240901947021484375" lon="-4.7420799918472766876220703125">
        <ele>2078</ele>
        <time>2021-07-22T08:54:55.000Z</time>
      </trkpt>
      <trkpt lat="43.01144854165613651275634765625" lon="-4.7421115078032016754150390625">
        <ele>2078.199951171875</ele>
        <time>2021-07-22T08:54:58.000Z</time>
      </trkpt>
      <trkpt lat="43.01145876757800579071044921875" lon="-4.74212248809635639190673828125">
        <ele>2078.60009765625</ele>
        <time>2021-07-22T08:55:00.000Z</time>
      </trkpt>
      <trkpt lat="43.01146295852959156036376953125" lon="-4.74213036708533763885498046875">
        <ele>2078.60009765625</ele>
        <time>2021-07-22T08:55:01.000Z</time>
      </trkpt>
      <trkpt lat="43.01147134043276309967041015625" lon="-4.742156602442264556884765625">
        <ele>2078.60009765625</ele>
        <time>2021-07-22T08:55:05.000Z</time>
      </trkpt>
      <trkpt lat="43.01146832294762134552001953125" lon="-4.7421477176249027252197265625">
        <ele>2078.39990234375</ele>
        <time>2021-07-22T08:55:07.000Z</time>
      </trkpt>
      <trkpt lat="43.01145189441740512847900390625" lon="-4.74211134016513824462890625">
        <ele>2078</ele>
        <time>2021-07-22T08:55:15.000Z</time>
      </trkpt>
      <trkpt lat="43.0114650540053844451904296875" lon="-4.742100946605205535888671875">
        <ele>2078</ele>
        <time>2021-07-22T08:55:22.000Z</time>
      </trkpt>
      <trkpt lat="43.01146815530955791473388671875" lon="-4.74210555665194988250732421875">
        <ele>2077.800048828125</ele>
        <time>2021-07-22T08:55:25.000Z</time>
      </trkpt>
      <trkpt lat="43.0114704184234142303466796875" lon="-4.74211595021188259124755859375">
        <ele>2078.199951171875</ele>
        <time>2021-07-22T08:55:30.000Z</time>
      </trkpt>
      <trkpt lat="43.0114553309977054595947265625" lon="-4.7421436943113803863525390625">
        <ele>2078</ele>
        <time>2021-07-22T08:55:35.000Z</time>
      </trkpt>
      <trkpt lat="43.011452816426753997802734375" lon="-4.7421386651694774627685546875">
        <ele>2078</ele>
        <time>2021-07-22T08:55:40.000Z</time>
      </trkpt>
      <trkpt lat="43.011454828083515167236328125" lon="-4.7421436943113803863525390625">
        <ele>2078</ele>
        <time>2021-07-22T08:55:42.000Z</time>
      </trkpt>
      <trkpt lat="43.0114759504795074462890625" lon="-4.742158614099025726318359375">
        <ele>2078</ele>
        <time>2021-07-22T08:55:45.000Z</time>
      </trkpt>
      <trkpt lat="43.0115022696554660797119140625" lon="-4.7421790659427642822265625">
        <ele>2078</ele>
        <time>2021-07-22T08:55:49.000Z</time>
      </trkpt>
      <trkpt lat="43.01153118722140789031982421875" lon="-4.74217713810503482818603515625">
        <ele>2078.60009765625</ele>
        <time>2021-07-22T08:55:54.000Z</time>
      </trkpt>
      <trkpt lat="43.0115723423659801483154296875" lon="-4.74218065850436687469482421875">
        <ele>2078</ele>
        <time>2021-07-22T08:55:59.000Z</time>
      </trkpt>
      <trkpt lat="43.01157896406948566436767578125" lon="-4.7421829216182231903076171875">
        <ele>2077.800048828125</ele>
        <time>2021-07-22T08:56:00.000Z</time>
      </trkpt>
      <trkpt lat="43.0116169340908527374267578125" lon="-4.74224385805428028106689453125">
        <ele>2078.60009765625</ele>
        <time>2021-07-22T08:56:06.000Z</time>
      </trkpt>
      <trkpt lat="43.0116283334791660308837890625" lon="-4.742282666265964508056640625">
        <ele>2079</ele>
        <time>2021-07-22T08:56:09.000Z</time>
      </trkpt>
      <trkpt lat="43.011638559401035308837890625" lon="-4.7422922216355800628662109375">
        <ele>2079.39990234375</ele>
        <time>2021-07-22T08:56:12.000Z</time>
      </trkpt>
      <trkpt lat="43.01165071316063404083251953125" lon="-4.74230269901454448699951171875">
        <ele>2079.60009765625</ele>
        <time>2021-07-22T08:56:16.000Z</time>
      </trkpt>
      <trkpt lat="43.01165339536964893341064453125" lon="-4.74230839870870113372802734375">
        <ele>2079.800048828125</ele>
        <time>2021-07-22T08:56:17.000Z</time>
      </trkpt>
      <trkpt lat="43.01165775395929813385009765625" lon="-4.742316864430904388427734375">
        <ele>2080.199951171875</ele>
        <time>2021-07-22T08:56:19.000Z</time>
      </trkpt>
      <trkpt lat="43.01166797988116741180419921875" lon="-4.74231242202222347259521484375">
        <ele>2081</ele>
        <time>2021-07-22T08:56:23.000Z</time>
      </trkpt>
      <trkpt lat="43.01167150028049945831298828125" lon="-4.7423123382031917572021484375">
        <ele>2081.199951171875</ele>
        <time>2021-07-22T08:56:24.000Z</time>
      </trkpt>
      <trkpt lat="43.011695556342601776123046875" lon="-4.74234335124492645263671875">
        <ele>2082.39990234375</ele>
        <time>2021-07-22T08:56:29.000Z</time>
      </trkpt>
      <trkpt lat="43.01172279752790927886962890625" lon="-4.74234871566295623779296875">
        <ele>2082.60009765625</ele>
        <time>2021-07-22T08:56:33.000Z</time>
      </trkpt>
      <trkpt lat="43.01172900013625621795654296875" lon="-4.7423475421965122222900390625">
        <ele>2082.800048828125</ele>
        <time>2021-07-22T08:56:34.000Z</time>
      </trkpt>
      <trkpt lat="43.011749871075153350830078125" lon="-4.74234737455844879150390625">
        <ele>2082.800048828125</ele>
        <time>2021-07-22T08:56:37.000Z</time>
      </trkpt>
      <trkpt lat="43.01177443005144596099853515625" lon="-4.742338657379150390625">
        <ele>2083.199951171875</ele>
        <time>2021-07-22T08:56:40.000Z</time>
      </trkpt>
      <trkpt lat="43.0117808841168880462646484375" lon="-4.74233874119818210601806640625">
        <ele>2083.60009765625</ele>
        <time>2021-07-22T08:56:41.000Z</time>
      </trkpt>
      <trkpt lat="43.01179924048483371734619140625" lon="-4.742343686521053314208984375">
        <ele>2084.60009765625</ele>
        <time>2021-07-22T08:56:44.000Z</time>
      </trkpt>
      <trkpt lat="43.0118050239980220794677734375" lon="-4.74234527908265590667724609375">
        <ele>2085</ele>
        <time>2021-07-22T08:56:45.000Z</time>
      </trkpt>
      <trkpt lat="43.0118328519165515899658203125" lon="-4.74234410561621189117431640625">
        <ele>2085.60009765625</ele>
        <time>2021-07-22T08:56:50.000Z</time>
      </trkpt>
      <trkpt lat="43.0118670500814914703369140625" lon="-4.742373861372470855712890625">
        <ele>2086.199951171875</ele>
        <time>2021-07-22T08:56:56.000Z</time>
      </trkpt>
      <trkpt lat="43.0119076184928417205810546875" lon="-4.74240495823323726654052734375">
        <ele>2086.60009765625</ele>
        <time>2021-07-22T08:57:03.000Z</time>
      </trkpt>
      <trkpt lat="43.01194223575294017791748046875" lon="-4.74243194796144962310791015625">
        <ele>2087.39990234375</ele>
        <time>2021-07-22T08:57:08.000Z</time>
      </trkpt>
      <trkpt lat="43.01195363514125347137451171875" lon="-4.74244032986462116241455078125">
        <ele>2087.800048828125</ele>
        <time>2021-07-22T08:57:10.000Z</time>
      </trkpt>
      <trkpt lat="43.0119642801582813262939453125" lon="-4.74244594573974609375">
        <ele>2088</ele>
        <time>2021-07-22T08:57:15.000Z</time>
      </trkpt>
      <trkpt lat="43.01202404312789440155029296875" lon="-4.742468409240245819091796875">
        <ele>2088.60009765625</ele>
        <time>2021-07-22T08:57:21.000Z</time>
      </trkpt>
      <trkpt lat="43.012043572962284088134765625" lon="-4.7424876876175403594970703125">
        <ele>2088.800048828125</ele>
        <time>2021-07-22T08:57:23.000Z</time>
      </trkpt>
      <trkpt lat="43.01205555908381938934326171875" lon="-4.74250973202288150787353515625">
        <ele>2089</ele>
        <time>2021-07-22T08:57:26.000Z</time>
      </trkpt>
      <trkpt lat="43.01206243224442005157470703125" lon="-4.742511324584484100341796875">
        <ele>2089.60009765625</ele>
        <time>2021-07-22T08:57:28.000Z</time>
      </trkpt>
      <trkpt lat="43.01207198761403560638427734375" lon="-4.74251828156411647796630859375">
        <ele>2090</ele>
        <time>2021-07-22T08:57:30.000Z</time>
      </trkpt>
      <trkpt lat="43.0120776034891605377197265625" lon="-4.74252347834408283233642578125">
        <ele>2090.39990234375</ele>
        <time>2021-07-22T08:57:31.000Z</time>
      </trkpt>
      <trkpt lat="43.0120821297168731689453125" lon="-4.74252716638147830963134765625">
        <ele>2090.60009765625</ele>
        <time>2021-07-22T08:57:32.000Z</time>
      </trkpt>
      <trkpt lat="43.012091182172298431396484375" lon="-4.742545187473297119140625">
        <ele>2090.800048828125</ele>
        <time>2021-07-22T08:57:34.000Z</time>
      </trkpt>
      <trkpt lat="43.01208958961069583892822265625" lon="-4.74256999790668487548828125">
        <ele>2091.199951171875</ele>
        <time>2021-07-22T08:57:36.000Z</time>
      </trkpt>
      <trkpt lat="43.0120910145342350006103515625" lon="-4.7425815649330615997314453125">
        <ele>2091.39990234375</ele>
        <time>2021-07-22T08:57:37.000Z</time>
      </trkpt>
      <trkpt lat="43.01209612749516963958740234375" lon="-4.74266798235476016998291015625">
        <ele>2091.39990234375</ele>
        <time>2021-07-22T08:57:43.000Z</time>
      </trkpt>
      <trkpt lat="43.01210367120802402496337890625" lon="-4.742694385349750518798828125">
        <ele>2092.199951171875</ele>
        <time>2021-07-22T08:57:45.000Z</time>
      </trkpt>
      <trkpt lat="43.01211674697697162628173828125" lon="-4.74273554049432277679443359375">
        <ele>2093</ele>
        <time>2021-07-22T08:57:48.000Z</time>
      </trkpt>
      <trkpt lat="43.0121238715946674346923828125" lon="-4.74275029264390468597412109375">
        <ele>2093.39990234375</ele>
        <time>2021-07-22T08:57:49.000Z</time>
      </trkpt>
      <trkpt lat="43.01215580664575099945068359375" lon="-4.742832519114017486572265625">
        <ele>2093.800048828125</ele>
        <time>2021-07-22T08:57:54.000Z</time>
      </trkpt>
      <trkpt lat="43.0121771804988384246826171875" lon="-4.7428813017904758453369140625">
        <ele>2093.39990234375</ele>
        <time>2021-07-22T08:57:58.000Z</time>
      </trkpt>
      <trkpt lat="43.01217877306044101715087890625" lon="-4.7428883425891399383544921875">
        <ele>2094</ele>
        <time>2021-07-22T08:58:00.000Z</time>
      </trkpt>
      <trkpt lat="43.01218061707913875579833984375" lon="-4.742890186607837677001953125">
        <ele>2094.39990234375</ele>
        <time>2021-07-22T08:58:01.000Z</time>
      </trkpt>
      <trkpt lat="43.0121840536594390869140625" lon="-4.74289597012102603912353515625">
        <ele>2094.60009765625</ele>
        <time>2021-07-22T08:58:02.000Z</time>
      </trkpt>
      <trkpt lat="43.01220593042671680450439453125" lon="-4.742922373116016387939453125">
        <ele>2095.39990234375</ele>
        <time>2021-07-22T08:58:05.000Z</time>
      </trkpt>
      <trkpt lat="43.01221548579633235931396484375" lon="-4.74293083883821964263916015625">
        <ele>2096</ele>
        <time>2021-07-22T08:58:06.000Z</time>
      </trkpt>
      <trkpt lat="43.01224750466644763946533203125" lon="-4.74294684827327728271484375">
        <ele>2096.800048828125</ele>
        <time>2021-07-22T08:58:10.000Z</time>
      </trkpt>
      <trkpt lat="43.01226695068180561065673828125" lon="-4.74295263178646564483642578125">
        <ele>2097</ele>
        <time>2021-07-22T08:58:12.000Z</time>
      </trkpt>
      <trkpt lat="43.01227885298430919647216796875" lon="-4.7429607622325420379638671875">
        <ele>2097.800048828125</ele>
        <time>2021-07-22T08:58:15.000Z</time>
      </trkpt>
      <trkpt lat="43.012280277907848358154296875" lon="-4.74295548163354396820068359375">
        <ele>2098</ele>
        <time>2021-07-22T08:58:16.000Z</time>
      </trkpt>
      <trkpt lat="43.012286983430385589599609375" lon="-4.7429403103888034820556640625">
        <ele>2097.800048828125</ele>
        <time>2021-07-22T08:58:24.000Z</time>
      </trkpt>
      <trkpt lat="43.0123092792928218841552734375" lon="-4.7429523803293704986572265625">
        <ele>2097.800048828125</ele>
        <time>2021-07-22T08:58:30.000Z</time>
      </trkpt>
      <trkpt lat="43.0123200081288814544677734375" lon="-4.742951877415180206298828125">
        <ele>2098.199951171875</ele>
        <time>2021-07-22T08:58:32.000Z</time>
      </trkpt>
      <trkpt lat="43.012337274849414825439453125" lon="-4.74295045249164104461669921875">
        <ele>2099</ele>
        <time>2021-07-22T08:58:35.000Z</time>
      </trkpt>
      <trkpt lat="43.01235370337963104248046875" lon="-4.74295531399548053741455078125">
        <ele>2099.199951171875</ele>
        <time>2021-07-22T08:58:37.000Z</time>
      </trkpt>
      <trkpt lat="43.01236032508313655853271484375" lon="-4.74295145832002162933349609375">
        <ele>2099.39990234375</ele>
        <time>2021-07-22T08:58:38.000Z</time>
      </trkpt>
      <trkpt lat="43.01236686296761035919189453125" lon="-4.7429443337023258209228515625">
        <ele>2099.60009765625</ele>
        <time>2021-07-22T08:58:39.000Z</time>
      </trkpt>
      <trkpt lat="43.01237172447144985198974609375" lon="-4.742937125265598297119140625">
        <ele>2099.800048828125</ele>
        <time>2021-07-22T08:58:40.000Z</time>
      </trkpt>
      <trkpt lat="43.0123803578317165374755859375" lon="-4.7429300844669342041015625">
        <ele>2100.60009765625</ele>
        <time>2021-07-22T08:58:42.000Z</time>
      </trkpt>
      <trkpt lat="43.01238630898296833038330078125" lon="-4.7429319284856319427490234375">
        <ele>2101</ele>
        <time>2021-07-22T08:58:43.000Z</time>
      </trkpt>
      <trkpt lat="43.012394271790981292724609375" lon="-4.74293653853237628936767578125">
        <ele>2101.39990234375</ele>
        <time>2021-07-22T08:58:44.000Z</time>
      </trkpt>
      <trkpt lat="43.0124061740934848785400390625" lon="-4.74294223822653293609619140625">
        <ele>2101.800048828125</ele>
        <time>2021-07-22T08:58:46.000Z</time>
      </trkpt>
      <trkpt lat="43.0124202556908130645751953125" lon="-4.74293477833271026611328125">
        <ele>2102.199951171875</ele>
        <time>2021-07-22T08:58:49.000Z</time>
      </trkpt>
      <trkpt lat="43.0124296434223651885986328125" lon="-4.74292145110666751861572265625">
        <ele>2102.800048828125</ele>
        <time>2021-07-22T08:58:51.000Z</time>
      </trkpt>
      <trkpt lat="43.0124460719525814056396484375" lon="-4.7429382987320423126220703125">
        <ele>2103.199951171875</ele>
        <time>2021-07-22T08:58:55.000Z</time>
      </trkpt>
      <trkpt lat="43.01244380883872509002685546875" lon="-4.74293150939047336578369140625">
        <ele>2103.39990234375</ele>
        <time>2021-07-22T08:58:59.000Z</time>
      </trkpt>
      <trkpt lat="43.01242771558463573455810546875" lon="-4.74292262457311153411865234375">
        <ele>2103.39990234375</ele>
        <time>2021-07-22T08:59:03.000Z</time>
      </trkpt>
      <trkpt lat="43.0124334990978240966796875" lon="-4.74294374696910381317138671875">
        <ele>2103.60009765625</ele>
        <time>2021-07-22T08:59:06.000Z</time>
      </trkpt>
      <trkpt lat="43.01243551075458526611328125" lon="-4.74294056184589862823486328125">
        <ele>2103.800048828125</ele>
        <time>2021-07-22T08:59:08.000Z</time>
      </trkpt>
      <trkpt lat="43.01243743859231472015380859375" lon="-4.7429362870752811431884765625">
        <ele>2103.800048828125</ele>
        <time>2021-07-22T08:59:14.000Z</time>
      </trkpt>
      <trkpt lat="43.0124755762517452239990234375" lon="-4.74290921352803707122802734375">
        <ele>2104.199951171875</ele>
        <time>2021-07-22T08:59:19.000Z</time>
      </trkpt>
      <trkpt lat="43.01254590041935443878173828125" lon="-4.74290468730032444000244140625">
        <ele>2104.800048828125</ele>
        <time>2021-07-22T08:59:24.000Z</time>
      </trkpt>
      <trkpt lat="43.01255931146442890167236328125" lon="-4.742908962070941925048828125">
        <ele>2105</ele>
        <time>2021-07-22T08:59:25.000Z</time>
      </trkpt>
      <trkpt lat="43.0125952698290348052978515625" lon="-4.74293385632336139678955078125">
        <ele>2105.39990234375</ele>
        <time>2021-07-22T08:59:29.000Z</time>
      </trkpt>
      <trkpt lat="43.01262150518596172332763671875" lon="-4.742925055325031280517578125">
        <ele>2105.199951171875</ele>
        <time>2021-07-22T08:59:34.000Z</time>
      </trkpt>
      <trkpt lat="43.012625612318515777587890625" lon="-4.742921032011508941650390625">
        <ele>2105</ele>
        <time>2021-07-22T08:59:35.000Z</time>
      </trkpt>
      <trkpt lat="43.01262720488011837005615234375" lon="-4.7429166734218597412109375">
        <ele>2105</ele>
        <time>2021-07-22T08:59:36.000Z</time>
      </trkpt>
      <trkpt lat="43.0126321502029895782470703125" lon="-4.742910303175449371337890625">
        <ele>2104.800048828125</ele>
        <time>2021-07-22T08:59:38.000Z</time>
      </trkpt>
      <trkpt lat="43.01264480687677860260009765625" lon="-4.7429287433624267578125">
        <ele>2105</ele>
        <time>2021-07-22T08:59:41.000Z</time>
      </trkpt>
      <trkpt lat="43.01264547742903232574462890625" lon="-4.7429336048662662506103515625">
        <ele>2105</ele>
        <time>2021-07-22T08:59:42.000Z</time>
      </trkpt>
      <trkpt lat="43.01267028786242008209228515625" lon="-4.74291860125958919525146484375">
        <ele>2104.800048828125</ele>
        <time>2021-07-22T08:59:47.000Z</time>
      </trkpt>
      <trkpt lat="43.01270431838929653167724609375" lon="-4.7428953833878040313720703125">
        <ele>2105</ele>
        <time>2021-07-22T08:59:50.000Z</time>
      </trkpt>
      <trkpt lat="43.01274941302835941314697265625" lon="-4.7428628616034984588623046875">
        <ele>2104.60009765625</ele>
        <time>2021-07-22T08:59:54.000Z</time>
      </trkpt>
      <trkpt lat="43.01279266364872455596923828125" lon="-4.74282640032470226287841796875">
        <ele>2104.800048828125</ele>
        <time>2021-07-22T08:59:59.000Z</time>
      </trkpt>
      <trkpt lat="43.01282602362334728240966796875" lon="-4.74281047470867633819580078125">
        <ele>2105.800048828125</ele>
        <time>2021-07-22T09:00:03.000Z</time>
      </trkpt>
      <trkpt lat="43.01283624954521656036376953125" lon="-4.74280376918613910675048828125">
        <ele>2106</ele>
        <time>2021-07-22T09:00:04.000Z</time>
      </trkpt>
      <trkpt lat="43.012852929532527923583984375" lon="-4.74279941059648990631103515625">
        <ele>2106</ele>
        <time>2021-07-22T09:00:05.000Z</time>
      </trkpt>
      <trkpt lat="43.01287447102367877960205078125" lon="-4.7427854128181934356689453125">
        <ele>2105.800048828125</ele>
        <time>2021-07-22T09:00:07.000Z</time>
      </trkpt>
      <trkpt lat="43.01293574273586273193359375" lon="-4.74278725683689117431640625">
        <ele>2106</ele>
        <time>2021-07-22T09:00:12.000Z</time>
      </trkpt>
      <trkpt lat="43.01297253929078578948974609375" lon="-4.74279153160750865936279296875">
        <ele>2106.39990234375</ele>
        <time>2021-07-22T09:00:15.000Z</time>
      </trkpt>
      <trkpt lat="43.01298444159328937530517578125" lon="-4.74279270507395267486572265625">
        <ele>2105.800048828125</ele>
        <time>2021-07-22T09:00:16.000Z</time>
      </trkpt>
      <trkpt lat="43.01301243714988231658935546875" lon="-4.74280603229999542236328125">
        <ele>2104.800048828125</ele>
        <time>2021-07-22T09:00:18.000Z</time>
      </trkpt>
      <trkpt lat="43.0130435340106487274169921875" lon="-4.74283411167562007904052734375">
        <ele>2104.60009765625</ele>
        <time>2021-07-22T09:00:20.000Z</time>
      </trkpt>
      <trkpt lat="43.0130665004253387451171875" lon="-4.74286227487027645111083984375">
        <ele>2104.60009765625</ele>
        <time>2021-07-22T09:00:22.000Z</time>
      </trkpt>
      <trkpt lat="43.01312307827174663543701171875" lon="-4.74287350662052631378173828125">
        <ele>2105</ele>
        <time>2021-07-22T09:00:28.000Z</time>
      </trkpt>
      <trkpt lat="43.01313246600329875946044921875" lon="-4.74287970922887325286865234375">
        <ele>2105.199951171875</ele>
        <time>2021-07-22T09:00:29.000Z</time>
      </trkpt>
      <trkpt lat="43.0131605453789234161376953125" lon="-4.74290200509130954742431640625">
        <ele>2105.199951171875</ele>
        <time>2021-07-22T09:00:33.000Z</time>
      </trkpt>
      <trkpt lat="43.0131711065769195556640625" lon="-4.74291927181184291839599609375">
        <ele>2106.199951171875</ele>
        <time>2021-07-22T09:00:35.000Z</time>
      </trkpt>
      <trkpt lat="43.01317848265171051025390625" lon="-4.74294341169297695159912109375">
        <ele>2106.800048828125</ele>
        <time>2021-07-22T09:00:37.000Z</time>
      </trkpt>
      <trkpt lat="43.01319264806807041168212890625" lon="-4.74297677166759967803955078125">
        <ele>2107</ele>
        <time>2021-07-22T09:00:40.000Z</time>
      </trkpt>
      <trkpt lat="43.013198263943195343017578125" lon="-4.74297794513404369354248046875">
        <ele>2107.199951171875</ele>
        <time>2021-07-22T09:00:41.000Z</time>
      </trkpt>
      <trkpt lat="43.01320572383701801300048828125" lon="-4.74298448301851749420166015625">
        <ele>2107.39990234375</ele>
        <time>2021-07-22T09:00:42.000Z</time>
      </trkpt>
      <trkpt lat="43.0132222361862659454345703125" lon="-4.74300242029130458831787109375">
        <ele>2108.199951171875</ele>
        <time>2021-07-22T09:00:44.000Z</time>
      </trkpt>
      <trkpt lat="43.0132259242236614227294921875" lon="-4.7430093772709369659423828125">
        <ele>2108.39990234375</ele>
        <time>2021-07-22T09:00:45.000Z</time>
      </trkpt>
      <trkpt lat="43.01323589868843555450439453125" lon="-4.74302555434405803680419921875">
        <ele>2109</ele>
        <time>2021-07-22T09:00:48.000Z</time>
      </trkpt>
      <trkpt lat="43.0132299475371837615966796875" lon="-4.743039719760417938232421875">
        <ele>2109.39990234375</ele>
        <time>2021-07-22T09:00:51.000Z</time>
      </trkpt>
      <trkpt lat="43.01323472522199153900146484375" lon="-4.7430744208395481109619140625">
        <ele>2110.800048828125</ele>
        <time>2021-07-22T09:00:54.000Z</time>
      </trkpt>
      <trkpt lat="43.01324612461030483245849609375" lon="-4.7431022487580776214599609375">
        <ele>2111.800048828125</ele>
        <time>2021-07-22T09:00:56.000Z</time>
      </trkpt>
      <trkpt lat="43.01325115375220775604248046875" lon="-4.74311205558478832244873046875">
        <ele>2112</ele>
        <time>2021-07-22T09:00:57.000Z</time>
      </trkpt>
      <trkpt lat="43.0132648162543773651123046875" lon="-4.74313166923820972442626953125">
        <ele>2112.60009765625</ele>
        <time>2021-07-22T09:01:00.000Z</time>
      </trkpt>
      <trkpt lat="43.01327906548976898193359375" lon="-4.743141643702983856201171875">
        <ele>2113</ele>
        <time>2021-07-22T09:01:03.000Z</time>
      </trkpt>
      <trkpt lat="43.01328032277524471282958984375" lon="-4.74313971586525440216064453125">
        <ele>2113.199951171875</ele>
        <time>2021-07-22T09:01:05.000Z</time>
      </trkpt>
      <trkpt lat="43.01327680237591266632080078125" lon="-4.74313728511333465576171875">
        <ele>2113.199951171875</ele>
        <time>2021-07-22T09:01:09.000Z</time>
      </trkpt>
      <trkpt lat="43.01327101886272430419921875" lon="-4.74314558319747447967529296875">
        <ele>2113.199951171875</ele>
        <time>2021-07-22T09:01:13.000Z</time>
      </trkpt>
      <trkpt lat="43.01327713765203952789306640625" lon="-4.74314440973103046417236328125">
        <ele>2112.800048828125</ele>
        <time>2021-07-22T09:01:16.000Z</time>
      </trkpt>
      <trkpt lat="43.01332424394786357879638671875" lon="-4.74317693151533603668212890625">
        <ele>2112.60009765625</ele>
        <time>2021-07-22T09:01:22.000Z</time>
      </trkpt>
      <trkpt lat="43.0133653990924358367919921875" lon="-4.74319361150264739990234375">
        <ele>2112.60009765625</ele>
        <time>2021-07-22T09:01:25.000Z</time>
      </trkpt>
      <trkpt lat="43.0133895389735698699951171875" lon="-4.7432041727006435394287109375">
        <ele>2112.800048828125</ele>
        <time>2021-07-22T09:01:27.000Z</time>
      </trkpt>
      <trkpt lat="43.01345131359994411468505859375" lon="-4.7432353533804416656494140625">
        <ele>2113.800048828125</ele>
        <time>2021-07-22T09:01:33.000Z</time>
      </trkpt>
      <trkpt lat="43.01346036605536937713623046875" lon="-4.74323828704655170440673828125">
        <ele>2113.800048828125</ele>
        <time>2021-07-22T09:01:34.000Z</time>
      </trkpt>
      <trkpt lat="43.01347352564334869384765625" lon="-4.74324398674070835113525390625">
        <ele>2114.199951171875</ele>
        <time>2021-07-22T09:01:36.000Z</time>
      </trkpt>
      <trkpt lat="43.01348668523132801055908203125" lon="-4.7432531230151653289794921875">
        <ele>2115.199951171875</ele>
        <time>2021-07-22T09:01:38.000Z</time>
      </trkpt>
      <trkpt lat="43.013510070741176605224609375" lon="-4.74325035698711872100830078125">
        <ele>2116</ele>
        <time>2021-07-22T09:01:41.000Z</time>
      </trkpt>
      <trkpt lat="43.01351870410144329071044921875" lon="-4.7432480938732624053955078125">
        <ele>2116.199951171875</ele>
        <time>2021-07-22T09:01:42.000Z</time>
      </trkpt>
      <trkpt lat="43.01352624781429767608642578125" lon="-4.74324482493102550506591796875">
        <ele>2116.39990234375</ele>
        <time>2021-07-22T09:01:43.000Z</time>
      </trkpt>
      <trkpt lat="43.013545610010623931884765625" lon="-4.7432383708655834197998046875">
        <ele>2117</ele>
        <time>2021-07-22T09:01:46.000Z</time>
      </trkpt>
      <trkpt lat="43.01355122588574886322021484375" lon="-4.74322454072535037994384765625">
        <ele>2117.60009765625</ele>
        <time>2021-07-22T09:01:49.000Z</time>
      </trkpt>
      <trkpt lat="43.01355189643800258636474609375" lon="-4.743218757212162017822265625">
        <ele>2118.39990234375</ele>
        <time>2021-07-22T09:01:53.000Z</time>
      </trkpt>
      <trkpt lat="43.0135625414550304412841796875" lon="-4.74322873167693614959716796875">
        <ele>2118.800048828125</ele>
        <time>2021-07-22T09:01:56.000Z</time>
      </trkpt>
      <trkpt lat="43.013574779033660888671875" lon="-4.74323711358010768890380859375">
        <ele>2118.800048828125</ele>
        <time>2021-07-22T09:01:58.000Z</time>
      </trkpt>
      <trkpt lat="43.01360000856220722198486328125" lon="-4.743218086659908294677734375">
        <ele>2119.39990234375</ele>
        <time>2021-07-22T09:02:02.000Z</time>
      </trkpt>
      <trkpt lat="43.0136051215231418609619140625" lon="-4.74321498535573482513427734375">
        <ele>2119.60009765625</ele>
        <time>2021-07-22T09:02:03.000Z</time>
      </trkpt>
      <trkpt lat="43.01361107267439365386962890625" lon="-4.74321238696575164794921875">
        <ele>2119.800048828125</ele>
        <time>2021-07-22T09:02:04.000Z</time>
      </trkpt>
      <trkpt lat="43.0136351287364959716796875" lon="-4.743223451077938079833984375">
        <ele>2120.800048828125</ele>
        <time>2021-07-22T09:02:08.000Z</time>
      </trkpt>
      <trkpt lat="43.01364996470510959625244140625" lon="-4.74324566312134265899658203125">
        <ele>2120.800048828125</ele>
        <time>2021-07-22T09:02:15.000Z</time>
      </trkpt>
      <trkpt lat="43.01366656087338924407958984375" lon="-4.74323979578912258148193359375">
        <ele>2120.800048828125</ele>
        <time>2021-07-22T09:02:18.000Z</time>
      </trkpt>
      <trkpt lat="43.013671673834323883056640625" lon="-4.743234179913997650146484375">
        <ele>2121</ele>
        <time>2021-07-22T09:02:19.000Z</time>
      </trkpt>
      <trkpt lat="43.0136954784393310546875" lon="-4.7432135604321956634521484375">
        <ele>2122.199951171875</ele>
        <time>2021-07-22T09:02:23.000Z</time>
      </trkpt>
      <trkpt lat="43.0137097276747226715087890625" lon="-4.74321682937443256378173828125">
        <ele>2122.39990234375</ele>
        <time>2021-07-22T09:02:25.000Z</time>
      </trkpt>
      <trkpt lat="43.01372372545301914215087890625" lon="-4.7432242892682552337646484375">
        <ele>2123.199951171875</ele>
        <time>2021-07-22T09:02:28.000Z</time>
      </trkpt>
      <trkpt lat="43.01373713649809360504150390625" lon="-4.74322487600147724151611328125">
        <ele>2124</ele>
        <time>2021-07-22T09:02:31.000Z</time>
      </trkpt>
      <trkpt lat="43.01374233327805995941162109375" lon="-4.74322420544922351837158203125">
        <ele>2124.39990234375</ele>
        <time>2021-07-22T09:02:32.000Z</time>
      </trkpt>
      <trkpt lat="43.0137616954743862152099609375" lon="-4.74321129731833934783935546875">
        <ele>2125.39990234375</ele>
        <time>2021-07-22T09:02:35.000Z</time>
      </trkpt>
      <trkpt lat="43.013772927224636077880859375" lon="-4.74320006556808948516845703125">
        <ele>2125.800048828125</ele>
        <time>2021-07-22T09:02:37.000Z</time>
      </trkpt>
      <trkpt lat="43.013788349926471710205078125" lon="-4.74318430759012699127197265625">
        <ele>2126.39990234375</ele>
        <time>2021-07-22T09:02:39.000Z</time>
      </trkpt>
      <trkpt lat="43.01381860859692096710205078125" lon="-4.74317642860114574432373046875">
        <ele>2126.800048828125</ele>
        <time>2021-07-22T09:02:41.000Z</time>
      </trkpt>
      <trkpt lat="43.0138783715665340423583984375" lon="-4.74316678941249847412109375">
        <ele>2127.800048828125</ele>
        <time>2021-07-22T09:02:46.000Z</time>
      </trkpt>
      <trkpt lat="43.013939559459686279296875" lon="-4.7431672923266887664794921875">
        <ele>2128.39990234375</ele>
        <time>2021-07-22T09:02:51.000Z</time>
      </trkpt>
      <trkpt lat="43.0139635317027568817138671875" lon="-4.7431662864983081817626953125">
        <ele>2129</ele>
        <time>2021-07-22T09:02:53.000Z</time>
      </trkpt>
      <trkpt lat="43.01399177871644496917724609375" lon="-4.74316067062318325042724609375">
        <ele>2129.199951171875</ele>
        <time>2021-07-22T09:02:55.000Z</time>
      </trkpt>
      <trkpt lat="43.0140255577862262725830078125" lon="-4.74316754378378391265869140625">
        <ele>2129.60009765625</ele>
        <time>2021-07-22T09:02:58.000Z</time>
      </trkpt>
      <trkpt lat="43.01404793746769428253173828125" lon="-4.74317190237343311309814453125">
        <ele>2130</ele>
        <time>2021-07-22T09:03:01.000Z</time>
      </trkpt>
      <trkpt lat="43.01405682228505611419677734375" lon="-4.743178524076938629150390625">
        <ele>2130.60009765625</ele>
        <time>2021-07-22T09:03:03.000Z</time>
      </trkpt>
      <trkpt lat="43.01406319253146648406982421875" lon="-4.74318296648561954498291015625">
        <ele>2130.800048828125</ele>
        <time>2021-07-22T09:03:05.000Z</time>
      </trkpt>
      <trkpt lat="43.0140696465969085693359375" lon="-4.7431951202452182769775390625">
        <ele>2131</ele>
        <time>2021-07-22T09:03:06.000Z</time>
      </trkpt>
      <trkpt lat="43.01407702267169952392578125" lon="-4.7432212717831134796142578125">
        <ele>2131</ele>
        <time>2021-07-22T09:03:08.000Z</time>
      </trkpt>
      <trkpt lat="43.0140803754329681396484375" lon="-4.7432331740856170654296875">
        <ele>2130.800048828125</ele>
        <time>2021-07-22T09:03:09.000Z</time>
      </trkpt>
      <trkpt lat="43.01408263854682445526123046875" lon="-4.7432400472462177276611328125">
        <ele>2131</ele>
        <time>2021-07-22T09:03:15.000Z</time>
      </trkpt>
      <trkpt lat="43.01408104598522186279296875" lon="-4.743233509361743927001953125">
        <ele>2131</ele>
        <time>2021-07-22T09:03:16.000Z</time>
      </trkpt>
      <trkpt lat="43.0140667967498302459716796875" lon="-4.743211381137371063232421875">
        <ele>2131</ele>
        <time>2021-07-22T09:03:20.000Z</time>
      </trkpt>
      <trkpt lat="43.01405958831310272216796875" lon="-4.74321397952735424041748046875">
        <ele>2130.800048828125</ele>
        <time>2021-07-22T09:03:24.000Z</time>
      </trkpt>
      <trkpt lat="43.0140590853989124298095703125" lon="-4.74321163259446620941162109375">
        <ele>2130.800048828125</ele>
        <time>2021-07-22T09:03:26.000Z</time>
      </trkpt>
      <trkpt lat="43.01406134851276874542236328125" lon="-4.7432182542979717254638671875">
        <ele>2131.199951171875</ele>
        <time>2021-07-22T09:03:34.000Z</time>
      </trkpt>
      <trkpt lat="43.014047853648662567138671875" lon="-4.74322319962084293365478515625">
        <ele>2131.60009765625</ele>
        <time>2021-07-22T09:03:41.000Z</time>
      </trkpt>
      <trkpt lat="43.01408766768872737884521484375" lon="-4.74320341832935810089111328125">
        <ele>2131.199951171875</ele>
        <time>2021-07-22T09:03:46.000Z</time>
      </trkpt>
      <trkpt lat="43.01414499990642070770263671875" lon="-4.74320408888161182403564453125">
        <ele>2132</ele>
        <time>2021-07-22T09:03:50.000Z</time>
      </trkpt>
      <trkpt lat="43.014205433428287506103515625" lon="-4.74323024041950702667236328125">
        <ele>2133</ele>
        <time>2021-07-22T09:03:56.000Z</time>
      </trkpt>
      <trkpt lat="43.01421540789306163787841796875" lon="-4.7432296536862850189208984375">
        <ele>2133.199951171875</ele>
        <time>2021-07-22T09:03:57.000Z</time>
      </trkpt>
      <trkpt lat="43.01423661410808563232421875" lon="-4.74322889931499958038330078125">
        <ele>2133.39990234375</ele>
        <time>2021-07-22T09:03:59.000Z</time>
      </trkpt>
      <trkpt lat="43.0142629332840442657470703125" lon="-4.743226803839206695556640625">
        <ele>2133.800048828125</ele>
        <time>2021-07-22T09:04:02.000Z</time>
      </trkpt>
      <trkpt lat="43.01427894271910190582275390625" lon="-4.74321163259446620941162109375">
        <ele>2133.800048828125</ele>
        <time>2021-07-22T09:04:08.000Z</time>
      </trkpt>
      <trkpt lat="43.01430308260023593902587890625" lon="-4.74323392845690250396728515625">
        <ele>2134.199951171875</ele>
        <time>2021-07-22T09:04:11.000Z</time>
      </trkpt>
      <trkpt lat="43.01432311534881591796875" lon="-4.74325236864387989044189453125">
        <ele>2134.199951171875</ele>
        <time>2021-07-22T09:04:13.000Z</time>
      </trkpt>
      <trkpt lat="43.01435865461826324462890625" lon="-4.7432588227093219757080078125">
        <ele>2134.39990234375</ele>
        <time>2021-07-22T09:04:19.000Z</time>
      </trkpt>
      <trkpt lat="43.01436628215014934539794921875" lon="-4.7432618401944637298583984375">
        <ele>2134.60009765625</ele>
        <time>2021-07-22T09:04:22.000Z</time>
      </trkpt>
      <trkpt lat="43.01437399350106716156005859375" lon="-4.74326343275606632232666015625">
        <ele>2135.199951171875</ele>
        <time>2021-07-22T09:04:25.000Z</time>
      </trkpt>
      <trkpt lat="43.014362342655658721923828125" lon="-4.74325404502451419830322265625">
        <ele>2135.60009765625</ele>
        <time>2021-07-22T09:04:33.000Z</time>
      </trkpt>
      <trkpt lat="43.0143973790109157562255859375" lon="-4.7432613372802734375">
        <ele>2135.39990234375</ele>
        <time>2021-07-22T09:04:41.000Z</time>
      </trkpt>
      <trkpt lat="43.01444674842059612274169921875" lon="-4.7432651929557323455810546875">
        <ele>2135.60009765625</ele>
        <time>2021-07-22T09:04:46.000Z</time>
      </trkpt>
      <trkpt lat="43.01445948891341686248779296875" lon="-4.74326762370765209197998046875">
        <ele>2135.60009765625</ele>
        <time>2021-07-22T09:04:47.000Z</time>
      </trkpt>
      <trkpt lat="43.01451631821691989898681640625" lon="-4.74327097646892070770263671875">
        <ele>2135.800048828125</ele>
        <time>2021-07-22T09:04:52.000Z</time>
      </trkpt>
      <trkpt lat="43.01452503539621829986572265625" lon="-4.743273071944713592529296875">
        <ele>2136.39990234375</ele>
        <time>2021-07-22T09:04:54.000Z</time>
      </trkpt>
      <trkpt lat="43.0145499296486377716064453125" lon="-4.7432926855981349945068359375">
        <ele>2137</ele>
        <time>2021-07-22T09:04:58.000Z</time>
      </trkpt>
      <trkpt lat="43.0145599879324436187744140625" lon="-4.74329687654972076416015625">
        <ele>2137.39990234375</ele>
        <time>2021-07-22T09:05:00.000Z</time>
      </trkpt>
      <trkpt lat="43.0145767517387866973876953125" lon="-4.743301905691623687744140625">
        <ele>2137.199951171875</ele>
        <time>2021-07-22T09:05:03.000Z</time>
      </trkpt>
      <trkpt lat="43.01456786692142486572265625" lon="-4.74329059012234210968017578125">
        <ele>2138.199951171875</ele>
        <time>2021-07-22T09:05:12.000Z</time>
      </trkpt>
      <trkpt lat="43.01455043256282806396484375" lon="-4.74327717907726764678955078125">
        <ele>2138</ele>
        <time>2021-07-22T09:05:20.000Z</time>
      </trkpt>
      <trkpt lat="43.01457189023494720458984375" lon="-4.74331523291766643524169921875">
        <ele>2138</ele>
        <time>2021-07-22T09:05:28.000Z</time>
      </trkpt>
      <trkpt lat="43.014617152512073516845703125" lon="-4.74331959150731563568115234375">
        <ele>2137.60009765625</ele>
        <time>2021-07-22T09:05:33.000Z</time>
      </trkpt>
      <trkpt lat="43.0146461538970470428466796875" lon="-4.74331825040280818939208984375">
        <ele>2138.199951171875</ele>
        <time>2021-07-22T09:05:39.000Z</time>
      </trkpt>
      <trkpt lat="43.014687560498714447021484375" lon="-4.7433647699654102325439453125">
        <ele>2138.39990234375</ele>
        <time>2021-07-22T09:05:45.000Z</time>
      </trkpt>
      <trkpt lat="43.01470323465764522552490234375" lon="-4.74338832311332225799560546875">
        <ele>2138.39990234375</ele>
        <time>2021-07-22T09:05:47.000Z</time>
      </trkpt>
      <trkpt lat="43.014727123081684112548828125" lon="-4.7434184141457080841064453125">
        <ele>2138.800048828125</ele>
        <time>2021-07-22T09:05:51.000Z</time>
      </trkpt>
      <trkpt lat="43.0147309787571430206298828125" lon="-4.74342201836407184600830078125">
        <ele>2138.800048828125</ele>
        <time>2021-07-22T09:05:52.000Z</time>
      </trkpt>
      <trkpt lat="43.01473952829837799072265625" lon="-4.7434437274932861328125">
        <ele>2139.199951171875</ele>
        <time>2021-07-22T09:05:55.000Z</time>
      </trkpt>
      <trkpt lat="43.014740534126758575439453125" lon="-4.74345135502517223358154296875">
        <ele>2139.60009765625</ele>
        <time>2021-07-22T09:05:56.000Z</time>
      </trkpt>
      <trkpt lat="43.0147420428693294525146484375" lon="-4.743459485471248626708984375">
        <ele>2139.800048828125</ele>
        <time>2021-07-22T09:05:57.000Z</time>
      </trkpt>
      <trkpt lat="43.0147457309067249298095703125" lon="-4.7434811107814311981201171875">
        <ele>2140.199951171875</ele>
        <time>2021-07-22T09:05:59.000Z</time>
      </trkpt>
      <trkpt lat="43.01474564708769321441650390625" lon="-4.74348924122750759124755859375">
        <ele>2140.39990234375</ele>
        <time>2021-07-22T09:06:00.000Z</time>
      </trkpt>
      <trkpt lat="43.0147430486977100372314453125" lon="-4.74350365810096263885498046875">
        <ele>2140.800048828125</ele>
        <time>2021-07-22T09:06:02.000Z</time>
      </trkpt>
      <trkpt lat="43.0147460661828517913818359375" lon="-4.74352419376373291015625">
        <ele>2141.39990234375</ele>
        <time>2021-07-22T09:06:05.000Z</time>
      </trkpt>
      <trkpt lat="43.014749586582183837890625" lon="-4.74352695979177951812744140625">
        <ele>2141.39990234375</ele>
        <time>2021-07-22T09:06:06.000Z</time>
      </trkpt>
      <trkpt lat="43.0147557891905307769775390625" lon="-4.74353970028460025787353515625">
        <ele>2141.800048828125</ele>
        <time>2021-07-22T09:06:09.000Z</time>
      </trkpt>
      <trkpt lat="43.0147611536085605621337890625" lon="-4.74356283433735370635986328125">
        <ele>2142</ele>
        <time>2021-07-22T09:06:12.000Z</time>
      </trkpt>
      <trkpt lat="43.0147675238549709320068359375" lon="-4.7435652650892734527587890625">
        <ele>2142.199951171875</ele>
        <time>2021-07-22T09:06:19.000Z</time>
      </trkpt>
      <trkpt lat="43.01480348221957683563232421875" lon="-4.74354288540780544281005859375">
        <ele>2142</ele>
        <time>2021-07-22T09:06:24.000Z</time>
      </trkpt>
      <trkpt lat="43.014798201620578765869140625" lon="-4.74353333003818988800048828125">
        <ele>2142</ele>
        <time>2021-07-22T09:06:27.000Z</time>
      </trkpt>
      <trkpt lat="43.01479451358318328857421875" lon="-4.74349267780780792236328125">
        <ele>2141.39990234375</ele>
        <time>2021-07-22T09:06:33.000Z</time>
      </trkpt>
      <trkpt lat="43.01479057408869266510009765625" lon="-4.74348588846623897552490234375">
        <ele>2141.800048828125</ele>
        <time>2021-07-22T09:06:39.000Z</time>
      </trkpt>
      <trkpt lat="43.0147671885788440704345703125" lon="-4.743476249277591705322265625">
        <ele>2141.60009765625</ele>
        <time>2021-07-22T09:06:43.000Z</time>
      </trkpt>
      <trkpt lat="43.01476023159921169281005859375" lon="-4.743472896516323089599609375">
        <ele>2141.39990234375</ele>
        <time>2021-07-22T09:06:45.000Z</time>
      </trkpt>
      <trkpt lat="43.01477900706231594085693359375" lon="-4.74351304583251476287841796875">
        <ele>2141.39990234375</ele>
        <time>2021-07-22T09:06:49.000Z</time>
      </trkpt>
      <trkpt lat="43.0147745646536350250244140625" lon="-4.7435458190739154815673828125">
        <ele>2141</ele>
        <time>2021-07-22T09:06:55.000Z</time>
      </trkpt>
      <trkpt lat="43.01477934233844280242919921875" lon="-4.74354271776974201202392578125">
        <ele>2140.800048828125</ele>
        <time>2021-07-22T09:06:56.000Z</time>
      </trkpt>
      <trkpt lat="43.014808930456638336181640625" lon="-4.74349980242550373077392578125">
        <ele>2141.39990234375</ele>
        <time>2021-07-22T09:07:04.000Z</time>
      </trkpt>
      <trkpt lat="43.0148355849087238311767578125" lon="-4.74350080825388431549072265625">
        <ele>2141.39990234375</ele>
        <time>2021-07-22T09:07:07.000Z</time>
      </trkpt>
      <trkpt lat="43.01486047916114330291748046875" lon="-4.743519164621829986572265625">
        <ele>2141.199951171875</ele>
        <time>2021-07-22T09:07:09.000Z</time>
      </trkpt>
      <trkpt lat="43.01487690769135951995849609375" lon="-4.7435283847153186798095703125">
        <ele>2141</ele>
        <time>2021-07-22T09:07:14.000Z</time>
      </trkpt>
      <trkpt lat="43.014879338443279266357421875" lon="-4.743535257875919342041015625">
        <ele>2141</ele>
        <time>2021-07-22T09:07:15.000Z</time>
      </trkpt>
      <trkpt lat="43.01482535898685455322265625" lon="-4.743484966456890106201171875">
        <ele>2142</ele>
        <time>2021-07-22T09:07:29.000Z</time>
      </trkpt>
      <trkpt lat="43.01482510752975940704345703125" lon="-4.74347968585789203643798828125">
        <ele>2142.199951171875</ele>
        <time>2021-07-22T09:07:30.000Z</time>
      </trkpt>
      <trkpt lat="43.01479040645062923431396484375" lon="-4.74348220042884349822998046875">
        <ele>2141.39990234375</ele>
        <time>2021-07-22T09:07:40.000Z</time>
      </trkpt>
      <trkpt lat="43.0147795937955379486083984375" lon="-4.74350097589194774627685546875">
        <ele>2141.199951171875</ele>
        <time>2021-07-22T09:07:49.000Z</time>
      </trkpt>
      <trkpt lat="43.0147551186382770538330078125" lon="-4.7434579767286777496337890625">
        <ele>2141.199951171875</ele>
        <time>2021-07-22T09:07:54.000Z</time>
      </trkpt>
      <trkpt lat="43.0147909931838512420654296875" lon="-4.7434879839420318603515625">
        <ele>2141.199951171875</ele>
        <time>2021-07-22T09:08:01.000Z</time>
      </trkpt>
      <trkpt lat="43.01479811780154705047607421875" lon="-4.743503071367740631103515625">
        <ele>2141.199951171875</ele>
        <time>2021-07-22T09:08:09.000Z</time>
      </trkpt>
      <trkpt lat="43.0147940106689929962158203125" lon="-4.74350231699645519256591796875">
        <ele>2141.199951171875</ele>
        <time>2021-07-22T09:08:12.000Z</time>
      </trkpt>
      <trkpt lat="43.0147973634302616119384765625" lon="-4.74349896423518657684326171875">
        <ele>2141.199951171875</ele>
        <time>2021-07-22T09:08:18.000Z</time>
      </trkpt>
      <trkpt lat="43.01481060683727264404296875" lon="-4.74349779076874256134033203125">
        <ele>2141.199951171875</ele>
        <time>2021-07-22T09:08:28.000Z</time>
      </trkpt>
      <trkpt lat="43.0148624069988727569580078125" lon="-4.743482284247875213623046875">
        <ele>2141.199951171875</ele>
        <time>2021-07-22T09:08:34.000Z</time>
      </trkpt>
      <trkpt lat="43.0148731358349323272705078125" lon="-4.74348555319011211395263671875">
        <ele>2141.199951171875</ele>
        <time>2021-07-22T09:08:36.000Z</time>
      </trkpt>
      <trkpt lat="43.01488176919519901275634765625" lon="-4.7434921748936176300048828125">
        <ele>2141.199951171875</ele>
        <time>2021-07-22T09:08:38.000Z</time>
      </trkpt>
      <trkpt lat="43.01488964818418025970458984375" lon="-4.74348127841949462890625">
        <ele>2141.199951171875</ele>
        <time>2021-07-22T09:08:40.000Z</time>
      </trkpt>
      <trkpt lat="43.0148935876786708831787109375" lon="-4.74347733892500400543212890625">
        <ele>2141.199951171875</ele>
        <time>2021-07-22T09:08:41.000Z</time>
      </trkpt>
      <trkpt lat="43.014904819428920745849609375" lon="-4.74345319904386997222900390625">
        <ele>2141.199951171875</ele>
        <time>2021-07-22T09:08:43.000Z</time>
      </trkpt>
      <trkpt lat="43.01494530402123928070068359375" lon="-4.74341531284153461456298828125">
        <ele>2141.199951171875</ele>
        <time>2021-07-22T09:08:48.000Z</time>
      </trkpt>
      <trkpt lat="43.01495720632374286651611328125" lon="-4.74338279105722904205322265625">
        <ele>2141.800048828125</ele>
        <time>2021-07-22T09:08:52.000Z</time>
      </trkpt>
      <trkpt lat="43.01496843807399272918701171875" lon="-4.74337591789662837982177734375">
        <ele>2142.39990234375</ele>
        <time>2021-07-22T09:08:54.000Z</time>
      </trkpt>
      <trkpt lat="43.014975227415561676025390625" lon="-4.74337876774370670318603515625">
        <ele>2142.60009765625</ele>
        <time>2021-07-22T09:08:55.000Z</time>
      </trkpt>
      <trkpt lat="43.01498604007065296173095703125" lon="-4.743382036685943603515625">
        <ele>2142.800048828125</ele>
        <time>2021-07-22T09:08:57.000Z</time>
      </trkpt>
      <trkpt lat="43.01499609835445880889892578125" lon="-4.74338731728494167327880859375">
        <ele>2143</ele>
        <time>2021-07-22T09:08:58.000Z</time>
      </trkpt>
      <trkpt lat="43.015004061162471771240234375" lon="-4.74339033477008342742919921875">
        <ele>2143</ele>
        <time>2021-07-22T09:08:59.000Z</time>
      </trkpt>
      <trkpt lat="43.0149867944419384002685546875" lon="-4.74338865838944911956787109375">
        <ele>2143</ele>
        <time>2021-07-22T09:09:04.000Z</time>
      </trkpt>
      <trkpt lat="43.014998696744441986083984375" lon="-4.74338010884821414947509765625">
        <ele>2142.800048828125</ele>
        <time>2021-07-22T09:09:15.000Z</time>
      </trkpt>
      <trkpt lat="43.01501445472240447998046875" lon="-4.74338564090430736541748046875">
        <ele>2142.800048828125</ele>
        <time>2021-07-22T09:09:18.000Z</time>
      </trkpt>
      <trkpt lat="43.01502761431038379669189453125" lon="-4.74338513799011707305908203125">
        <ele>2142.60009765625</ele>
        <time>2021-07-22T09:09:21.000Z</time>
      </trkpt>
      <trkpt lat="43.015034906566143035888671875" lon="-4.7433879040181636810302734375">
        <ele>2143</ele>
        <time>2021-07-22T09:09:24.000Z</time>
      </trkpt>
      <trkpt lat="43.0150320567190647125244140625" lon="-4.74342989735305309295654296875">
        <ele>2143.60009765625</ele>
        <time>2021-07-22T09:09:29.000Z</time>
      </trkpt>
      <trkpt lat="43.01504085771739482879638671875" lon="-4.74345236085355281829833984375">
        <ele>2144.199951171875</ele>
        <time>2021-07-22T09:09:31.000Z</time>
      </trkpt>
      <trkpt lat="43.0150518380105495452880859375" lon="-4.74349846132099628448486328125">
        <ele>2145.199951171875</ele>
        <time>2021-07-22T09:09:35.000Z</time>
      </trkpt>
      <trkpt lat="43.0150561966001987457275390625" lon="-4.7435079328715801239013671875">
        <ele>2145.39990234375</ele>
        <time>2021-07-22T09:09:36.000Z</time>
      </trkpt>
      <trkpt lat="43.01505778916180133819580078125" lon="-4.74355093203485012054443359375">
        <ele>2146.199951171875</ele>
        <time>2021-07-22T09:09:40.000Z</time>
      </trkpt>
      <trkpt lat="43.0150618962943553924560546875" lon="-4.74355981685221195220947265625">
        <ele>2146.39990234375</ele>
        <time>2021-07-22T09:09:41.000Z</time>
      </trkpt>
      <trkpt lat="43.0150808393955230712890625" lon="-4.7435652650892734527587890625">
        <ele>2147</ele>
        <time>2021-07-22T09:09:44.000Z</time>
      </trkpt>
      <trkpt lat="43.01509735174477100372314453125" lon="-4.74356149323284626007080078125">
        <ele>2147.60009765625</ele>
        <time>2021-07-22T09:09:46.000Z</time>
      </trkpt>
      <trkpt lat="43.01510506309568881988525390625" lon="-4.7435578890144824981689453125">
        <ele>2147.800048828125</ele>
        <time>2021-07-22T09:09:47.000Z</time>
      </trkpt>
      <trkpt lat="43.01511830650269985198974609375" lon="-4.74355302751064300537109375">
        <ele>2148.39990234375</ele>
        <time>2021-07-22T09:09:49.000Z</time>
      </trkpt>
      <trkpt lat="43.015128113329410552978515625" lon="-4.743545316159725189208984375">
        <ele>2148.800048828125</ele>
        <time>2021-07-22T09:09:50.000Z</time>
      </trkpt>
      <trkpt lat="43.01515124738216400146484375" lon="-4.74353835918009281158447265625">
        <ele>2149.800048828125</ele>
        <time>2021-07-22T09:09:53.000Z</time>
      </trkpt>
      <trkpt lat="43.0151628144085407257080078125" lon="-4.74353827536106109619140625">
        <ele>2150.39990234375</ele>
        <time>2021-07-22T09:09:56.000Z</time>
      </trkpt>
      <trkpt lat="43.01516574807465076446533203125" lon="-4.74354137666523456573486328125">
        <ele>2151</ele>
        <time>2021-07-22T09:09:58.000Z</time>
      </trkpt>
      <trkpt lat="43.01517412997782230377197265625" lon="-4.74354439415037631988525390625">
        <ele>2152.199951171875</ele>
        <time>2021-07-22T09:10:01.000Z</time>
      </trkpt>
      <trkpt lat="43.0151856131851673126220703125" lon="-4.74355570971965789794921875">
        <ele>2152.60009765625</ele>
        <time>2021-07-22T09:10:03.000Z</time>
      </trkpt>
      <trkpt lat="43.01519776694476604461669921875" lon="-4.74357088096439838409423828125">
        <ele>2153.199951171875</ele>
        <time>2021-07-22T09:10:07.000Z</time>
      </trkpt>
      <trkpt lat="43.0151876248419284820556640625" lon="-4.74357658065855503082275390625">
        <ele>2153.199951171875</ele>
        <time>2021-07-22T09:10:10.000Z</time>
      </trkpt>
      <trkpt lat="43.0151666700839996337890625" lon="-4.7435951046645641326904296875">
        <ele>2153.39990234375</ele>
        <time>2021-07-22T09:10:16.000Z</time>
      </trkpt>
      <trkpt lat="43.01517765037715435028076171875" lon="-4.7436433844268321990966796875">
        <ele>2153.800048828125</ele>
        <time>2021-07-22T09:10:20.000Z</time>
      </trkpt>
      <trkpt lat="43.01518502645194530487060546875" lon="-4.74365897476673126220703125">
        <ele>2154.199951171875</ele>
        <time>2021-07-22T09:10:23.000Z</time>
      </trkpt>
      <trkpt lat="43.01519089378416538238525390625" lon="-4.74365352652966976165771484375">
        <ele>2154.199951171875</ele>
        <time>2021-07-22T09:10:25.000Z</time>
      </trkpt>
      <trkpt lat="43.01518075168132781982421875" lon="-4.7436852939426898956298828125">
        <ele>2154.800048828125</ele>
        <time>2021-07-22T09:10:33.000Z</time>
      </trkpt>
      <trkpt lat="43.01516591571271419525146484375" lon="-4.7437111102044582366943359375">
        <ele>2154.800048828125</ele>
        <time>2021-07-22T09:10:36.000Z</time>
      </trkpt>
      <trkpt lat="43.015160299837589263916015625" lon="-4.74372376687824726104736328125">
        <ele>2155</ele>
        <time>2021-07-22T09:10:38.000Z</time>
      </trkpt>
      <trkpt lat="43.01515921019017696380615234375" lon="-4.74374212324619293212890625">
        <ele>2155.39990234375</ele>
        <time>2021-07-22T09:10:40.000Z</time>
      </trkpt>
      <trkpt lat="43.01515384577214717864990234375" lon="-4.74379132501780986785888671875">
        <ele>2156.199951171875</ele>
        <time>2021-07-22T09:10:44.000Z</time>
      </trkpt>
      <trkpt lat="43.01515124738216400146484375" lon="-4.74380004219710826873779296875">
        <ele>2156.60009765625</ele>
        <time>2021-07-22T09:10:45.000Z</time>
      </trkpt>
      <trkpt lat="43.0151437036693096160888671875" lon="-4.74382753483951091766357421875">
        <ele>2157.39990234375</ele>
        <time>2021-07-22T09:10:49.000Z</time>
      </trkpt>
      <trkpt lat="43.015142865478992462158203125" lon="-4.7438576258718967437744140625">
        <ele>2157.60009765625</ele>
        <time>2021-07-22T09:10:53.000Z</time>
      </trkpt>
      <trkpt lat="43.01514110527932643890380859375" lon="-4.74386290647089481353759765625">
        <ele>2158</ele>
        <time>2021-07-22T09:10:55.000Z</time>
      </trkpt>
      <trkpt lat="43.0151584558188915252685546875" lon="-4.74391034804284572601318359375">
        <ele>2158.60009765625</ele>
        <time>2021-07-22T09:11:00.000Z</time>
      </trkpt>
      <trkpt lat="43.01516423933207988739013671875" lon="-4.7439233399927616119384765625">
        <ele>2158.800048828125</ele>
        <time>2021-07-22T09:11:01.000Z</time>
      </trkpt>
      <trkpt lat="43.0151795782148838043212890625" lon="-4.7439471445977687835693359375">
        <ele>2159.800048828125</ele>
        <time>2021-07-22T09:11:06.000Z</time>
      </trkpt>
      <trkpt lat="43.01518335007131099700927734375" lon="-4.743951670825481414794921875">
        <ele>2160.199951171875</ele>
        <time>2021-07-22T09:11:07.000Z</time>
      </trkpt>
      <trkpt lat="43.01519307307898998260498046875" lon="-4.74396650679409503936767578125">
        <ele>2161</ele>
        <time>2021-07-22T09:11:09.000Z</time>
      </trkpt>
      <trkpt lat="43.01520296372473239898681640625" lon="-4.743973128497600555419921875">
        <ele>2161.800048828125</ele>
        <time>2021-07-22T09:11:12.000Z</time>
      </trkpt>
      <trkpt lat="43.0152040533721446990966796875" lon="-4.74398293532431125640869140625">
        <ele>2162</ele>
        <time>2021-07-22T09:11:14.000Z</time>
      </trkpt>
      <trkpt lat="43.01519952714443206787109375" lon="-4.74401612766087055206298828125">
        <ele>2162.39990234375</ele>
        <time>2021-07-22T09:11:18.000Z</time>
      </trkpt>
      <trkpt lat="43.01520581357181072235107421875" lon="-4.744052588939666748046875">
        <ele>2163.199951171875</ele>
        <time>2021-07-22T09:11:22.000Z</time>
      </trkpt>
      <trkpt lat="43.01520715467631816864013671875" lon="-4.74406088702380657196044921875">
        <ele>2163.39990234375</ele>
        <time>2021-07-22T09:11:23.000Z</time>
      </trkpt>
      <trkpt lat="43.01521738059818744659423828125" lon="-4.74409676156938076019287109375">
        <ele>2164.39990234375</ele>
        <time>2021-07-22T09:11:28.000Z</time>
      </trkpt>
      <trkpt lat="43.0152395926415920257568359375" lon="-4.74411034025251865386962890625">
        <ele>2164.39990234375</ele>
        <time>2021-07-22T09:11:32.000Z</time>
      </trkpt>
      <trkpt lat="43.01525325514376163482666015625" lon="-4.74412291310727596282958984375">
        <ele>2165.39990234375</ele>
        <time>2021-07-22T09:11:34.000Z</time>
      </trkpt>
      <trkpt lat="43.01525962539017200469970703125" lon="-4.7441318817436695098876953125">
        <ele>2165.60009765625</ele>
        <time>2021-07-22T09:11:35.000Z</time>
      </trkpt>
      <trkpt lat="43.01527462899684906005859375" lon="-4.744134731590747833251953125">
        <ele>2165.60009765625</ele>
        <time>2021-07-22T09:11:37.000Z</time>
      </trkpt>
      <trkpt lat="43.015282340347766876220703125" lon="-4.74413766525685787200927734375">
        <ele>2166.39990234375</ele>
        <time>2021-07-22T09:11:39.000Z</time>
      </trkpt>
      <trkpt lat="43.01528091542422771453857421875" lon="-4.74413967691361904144287109375">
        <ele>2166.60009765625</ele>
        <time>2021-07-22T09:11:40.000Z</time>
      </trkpt>
      <trkpt lat="43.01528292708098888397216796875" lon="-4.744146801531314849853515625">
        <ele>2167</ele>
        <time>2021-07-22T09:11:41.000Z</time>
      </trkpt>
      <trkpt lat="43.01529474556446075439453125" lon="-4.74419633857905864715576171875">
        <ele>2167.39990234375</ele>
        <time>2021-07-22T09:11:44.000Z</time>
      </trkpt>
      <trkpt lat="43.01530991680920124053955078125" lon="-4.744226932525634765625">
        <ele>2168</ele>
        <time>2021-07-22T09:11:47.000Z</time>
      </trkpt>
      <trkpt lat="43.01531427539885044097900390625" lon="-4.74423204548656940460205078125">
        <ele>2167.800048828125</ele>
        <time>2021-07-22T09:11:48.000Z</time>
      </trkpt>
      <trkpt lat="43.01532517187297344207763671875" lon="-4.74424696527421474456787109375">
        <ele>2168.60009765625</ele>
        <time>2021-07-22T09:11:51.000Z</time>
      </trkpt>
      <trkpt lat="43.01534025929868221282958984375" lon="-4.744240343570709228515625">
        <ele>2168.60009765625</ele>
        <time>2021-07-22T09:11:53.000Z</time>
      </trkpt>
      <trkpt lat="43.0153356492519378662109375" lon="-4.74418510682880878448486328125">
        <ele>2168.800048828125</ele>
        <time>2021-07-22T09:11:59.000Z</time>
      </trkpt>
      <trkpt lat="43.0153542570769786834716796875" lon="-4.74418938159942626953125">
        <ele>2169</ele>
        <time>2021-07-22T09:12:01.000Z</time>
      </trkpt>
      <trkpt lat="43.0153673328459262847900390625" lon="-4.74419030360877513885498046875">
        <ele>2169</ele>
        <time>2021-07-22T09:12:02.000Z</time>
      </trkpt>
      <trkpt lat="43.01538862287998199462890625" lon="-4.7441861964762210845947265625">
        <ele>2169.199951171875</ele>
        <time>2021-07-22T09:12:05.000Z</time>
      </trkpt>
      <trkpt lat="43.015346042811870574951171875" lon="-4.74418334662914276123046875">
        <ele>2169</ele>
        <time>2021-07-22T09:12:09.000Z</time>
      </trkpt>
      <trkpt lat="43.0153384990990161895751953125" lon="-4.74419684149324893951416015625">
        <ele>2169</ele>
        <time>2021-07-22T09:12:11.000Z</time>
      </trkpt>
      <trkpt lat="43.01534838974475860595703125" lon="-4.74425601772964000701904296875">
        <ele>2169.60009765625</ele>
        <time>2021-07-22T09:12:15.000Z</time>
      </trkpt>
      <trkpt lat="43.01534813828766345977783203125" lon="-4.7442827560007572174072265625">
        <ele>2170.199951171875</ele>
        <time>2021-07-22T09:12:19.000Z</time>
      </trkpt>
      <trkpt lat="43.0153498984873294830322265625" lon="-4.7442978434264659881591796875">
        <ele>2170.199951171875</ele>
        <time>2021-07-22T09:12:20.000Z</time>
      </trkpt>
      <trkpt lat="43.01535920239984989166259765625" lon="-4.7443216480314731597900390625">
        <ele>2171.39990234375</ele>
        <time>2021-07-22T09:12:25.000Z</time>
      </trkpt>
      <trkpt lat="43.015356771647930145263671875" lon="-4.74432189948856830596923828125">
        <ele>2171.39990234375</ele>
        <time>2021-07-22T09:12:26.000Z</time>
      </trkpt>
      <trkpt lat="43.0153525806963443756103515625" lon="-4.7443672455847263336181640625">
        <ele>2172.199951171875</ele>
        <time>2021-07-22T09:12:32.000Z</time>
      </trkpt>
      <trkpt lat="43.01535232923924922943115234375" lon="-4.744374789297580718994140625">
        <ele>2172.39990234375</ele>
        <time>2021-07-22T09:12:33.000Z</time>
      </trkpt>
      <trkpt lat="43.01534277386963367462158203125" lon="-4.74440068937838077545166015625">
        <ele>2173.60009765625</ele>
        <time>2021-07-22T09:12:38.000Z</time>
      </trkpt>
      <trkpt lat="43.01534495316445827484130859375" lon="-4.74443371407687664031982421875">
        <ele>2174.60009765625</ele>
        <time>2021-07-22T09:12:41.000Z</time>
      </trkpt>
      <trkpt lat="43.0153529159724712371826171875" lon="-4.7444674931466579437255859375">
        <ele>2175.199951171875</ele>
        <time>2021-07-22T09:12:43.000Z</time>
      </trkpt>
      <trkpt lat="43.01536540500819683074951171875" lon="-4.74448551423847675323486328125">
        <ele>2175.800048828125</ele>
        <time>2021-07-22T09:12:46.000Z</time>
      </trkpt>
      <trkpt lat="43.01536322571337223052978515625" lon="-4.74448970519006252288818359375">
        <ele>2176</ele>
        <time>2021-07-22T09:12:48.000Z</time>
      </trkpt>
      <trkpt lat="43.01536121405661106109619140625" lon="-4.74450529552996158599853515625">
        <ele>2176</ele>
        <time>2021-07-22T09:12:52.000Z</time>
      </trkpt>
      <trkpt lat="43.01536875776946544647216796875" lon="-4.7445206344127655029296875">
        <ele>2176.199951171875</ele>
        <time>2021-07-22T09:12:54.000Z</time>
      </trkpt>
      <trkpt lat="43.0153839290142059326171875" lon="-4.74454636685550212860107421875">
        <ele>2176.800048828125</ele>
        <time>2021-07-22T09:12:57.000Z</time>
      </trkpt>
      <trkpt lat="43.01540580578148365020751953125" lon="-4.74456824362277984619140625">
        <ele>2177.39990234375</ele>
        <time>2021-07-22T09:13:00.000Z</time>
      </trkpt>
      <trkpt lat="43.01542810164391994476318359375" lon="-4.74458743818104267120361328125">
        <ele>2178</ele>
        <time>2021-07-22T09:13:03.000Z</time>
      </trkpt>
      <trkpt lat="43.01543556153774261474609375" lon="-4.74459732882678508758544921875">
        <ele>2178.199951171875</ele>
        <time>2021-07-22T09:13:05.000Z</time>
      </trkpt>
      <trkpt lat="43.015444613993167877197265625" lon="-4.74462457001209259033203125">
        <ele>2179</ele>
        <time>2021-07-22T09:13:09.000Z</time>
      </trkpt>
      <trkpt lat="43.01544318906962871551513671875" lon="-4.74463270045816898345947265625">
        <ele>2179</ele>
        <time>2021-07-22T09:13:10.000Z</time>
      </trkpt>
      <trkpt lat="43.0154628865420818328857421875" lon="-4.74467008374631404876708984375">
        <ele>2180</ele>
        <time>2021-07-22T09:13:14.000Z</time>
      </trkpt>
      <trkpt lat="43.01546934060752391815185546875" lon="-4.7446882724761962890625">
        <ele>2180.60009765625</ele>
        <time>2021-07-22T09:13:16.000Z</time>
      </trkpt>
      <trkpt lat="43.0154712684452533721923828125" lon="-4.7446971572935581207275390625">
        <ele>2181</ele>
        <time>2021-07-22T09:13:18.000Z</time>
      </trkpt>
      <trkpt lat="43.01547923125326633453369140625" lon="-4.74470637738704681396484375">
        <ele>2181.60009765625</ele>
        <time>2021-07-22T09:13:21.000Z</time>
      </trkpt>
      <trkpt lat="43.0154840089380741119384765625" lon="-4.74470897577702999114990234375">
        <ele>2182.199951171875</ele>
        <time>2021-07-22T09:13:22.000Z</time>
      </trkpt>
      <trkpt lat="43.0154843442142009735107421875" lon="-4.74469891749322414398193359375">
        <ele>2182.800048828125</ele>
        <time>2021-07-22T09:13:27.000Z</time>
      </trkpt>
      <trkpt lat="43.01549431867897510528564453125" lon="-4.74474124610424041748046875">
        <ele>2183.199951171875</ele>
        <time>2021-07-22T09:13:31.000Z</time>
      </trkpt>
      <trkpt lat="43.0154987610876560211181640625" lon="-4.74476261995732784271240234375">
        <ele>2183.800048828125</ele>
        <time>2021-07-22T09:13:33.000Z</time>
      </trkpt>
      <trkpt lat="43.0155094899237155914306640625" lon="-4.74478374235332012176513671875">
        <ele>2184.39990234375</ele>
        <time>2021-07-22T09:13:35.000Z</time>
      </trkpt>
      <trkpt lat="43.01551644690334796905517578125" lon="-4.7447900287806987762451171875">
        <ele>2185.199951171875</ele>
        <time>2021-07-22T09:13:37.000Z</time>
      </trkpt>
      <trkpt lat="43.015517033636569976806640625" lon="-4.7447940520942211151123046875">
        <ele>2185.39990234375</ele>
        <time>2021-07-22T09:13:38.000Z</time>
      </trkpt>
      <trkpt lat="43.01552549935877323150634765625" lon="-4.7447943873703479766845703125">
        <ele>2186.199951171875</ele>
        <time>2021-07-22T09:13:43.000Z</time>
      </trkpt>
      <trkpt lat="43.0155346356332302093505859375" lon="-4.74482028745114803314208984375">
        <ele>2186.199951171875</ele>
        <time>2021-07-22T09:13:49.000Z</time>
      </trkpt>
      <trkpt lat="43.0155393294990062713623046875" lon="-4.7448255680501461029052734375">
        <ele>2186.800048828125</ele>
        <time>2021-07-22T09:13:50.000Z</time>
      </trkpt>
      <trkpt lat="43.01554528065025806427001953125" lon="-4.7448611073195934295654296875">
        <ele>2188</ele>
        <time>2021-07-22T09:13:54.000Z</time>
      </trkpt>
      <trkpt lat="43.01555315963923931121826171875" lon="-4.7449026815593242645263671875">
        <ele>2189.199951171875</ele>
        <time>2021-07-22T09:13:58.000Z</time>
      </trkpt>
      <trkpt lat="43.01555550657212734222412109375" lon="-4.74490712396800518035888671875">
        <ele>2189.199951171875</ele>
        <time>2021-07-22T09:13:59.000Z</time>
      </trkpt>
      <trkpt lat="43.01555768586695194244384765625" lon="-4.744910895824432373046875">
        <ele>2190.39990234375</ele>
        <time>2021-07-22T09:14:04.000Z</time>
      </trkpt>
      <trkpt lat="43.01556237973272800445556640625" lon="-4.74492992274463176727294921875">
        <ele>2190.800048828125</ele>
        <time>2021-07-22T09:14:06.000Z</time>
      </trkpt>
      <trkpt lat="43.01559238694608211517333984375" lon="-4.74496931768953800201416015625">
        <ele>2191.60009765625</ele>
        <time>2021-07-22T09:14:10.000Z</time>
      </trkpt>
      <trkpt lat="43.01559288986027240753173828125" lon="-4.74497116170823574066162109375">
        <ele>2191.800048828125</ele>
        <time>2021-07-22T09:14:11.000Z</time>
      </trkpt>
      <trkpt lat="43.01559724844992160797119140625" lon="-4.74497954361140727996826171875">
        <ele>2192.800048828125</ele>
        <time>2021-07-22T09:14:14.000Z</time>
      </trkpt>
      <trkpt lat="43.01559540443122386932373046875" lon="-4.74497250281274318695068359375">
        <ele>2193</ele>
        <time>2021-07-22T09:14:15.000Z</time>
      </trkpt>
      <trkpt lat="43.01560177467763423919677734375" lon="-4.745012819766998291015625">
        <ele>2193.800048828125</ele>
        <time>2021-07-22T09:14:20.000Z</time>
      </trkpt>
      <trkpt lat="43.0156038701534271240234375" lon="-4.7450230456888675689697265625">
        <ele>2194.39990234375</ele>
        <time>2021-07-22T09:14:22.000Z</time>
      </trkpt>
      <trkpt lat="43.015610240399837493896484375" lon="-4.74503352306783199310302734375">
        <ele>2195</ele>
        <time>2021-07-22T09:14:24.000Z</time>
      </trkpt>
      <trkpt lat="43.01562021486461162567138671875" lon="-4.74504928104579448699951171875">
        <ele>2195.39990234375</ele>
        <time>2021-07-22T09:14:26.000Z</time>
      </trkpt>
      <trkpt lat="43.01563161425292491912841796875" lon="-4.7450632788240909576416015625">
        <ele>2196.39990234375</ele>
        <time>2021-07-22T09:14:28.000Z</time>
      </trkpt>
      <trkpt lat="43.01564879715442657470703125" lon="-4.74508498795330524444580078125">
        <ele>2197.199951171875</ele>
        <time>2021-07-22T09:14:31.000Z</time>
      </trkpt>
      <trkpt lat="43.0156546644866466522216796875" lon="-4.74508968181908130645751953125">
        <ele>2197.39990234375</ele>
        <time>2021-07-22T09:14:32.000Z</time>
      </trkpt>
      <trkpt lat="43.01566430367529392242431640625" lon="-4.74509621970355510711669921875">
        <ele>2198</ele>
        <time>2021-07-22T09:14:35.000Z</time>
      </trkpt>
      <trkpt lat="43.01566095091402530670166015625" lon="-4.7451155818998813629150390625">
        <ele>2198.60009765625</ele>
        <time>2021-07-22T09:14:38.000Z</time>
      </trkpt>
      <trkpt lat="43.01566514186561107635498046875" lon="-4.74515388719737529754638671875">
        <ele>2199.60009765625</ele>
        <time>2021-07-22T09:14:42.000Z</time>
      </trkpt>
      <trkpt lat="43.01567620597779750823974609375" lon="-4.745174758136272430419921875">
        <ele>2200</ele>
        <time>2021-07-22T09:14:46.000Z</time>
      </trkpt>
      <trkpt lat="43.0156821571290493011474609375" lon="-4.74519009701907634735107421875">
        <ele>2200.199951171875</ele>
        <time>2021-07-22T09:14:48.000Z</time>
      </trkpt>
      <trkpt lat="43.0156816542148590087890625" lon="-4.74520417861640453338623046875">
        <ele>2200.800048828125</ele>
        <time>2021-07-22T09:14:49.000Z</time>
      </trkpt>
      <trkpt lat="43.0156737752258777618408203125" lon="-4.7452071122825145721435546875">
        <ele>2202</ele>
        <time>2021-07-22T09:14:52.000Z</time>
      </trkpt>
      <trkpt lat="43.01567436195909976959228515625" lon="-4.7451994009315967559814453125">
        <ele>2202.39990234375</ele>
        <time>2021-07-22T09:14:54.000Z</time>
      </trkpt>
      <trkpt lat="43.01570151932537555694580078125" lon="-4.7452032566070556640625">
        <ele>2203</ele>
        <time>2021-07-22T09:14:58.000Z</time>
      </trkpt>
      <trkpt lat="43.0157203786075115203857421875" lon="-4.74520702846348285675048828125">
        <ele>2203</ele>
        <time>2021-07-22T09:15:00.000Z</time>
      </trkpt>
      <trkpt lat="43.01575466059148311614990234375" lon="-4.7452205233275890350341796875">
        <ele>2203.199951171875</ele>
        <time>2021-07-22T09:15:04.000Z</time>
      </trkpt>
      <trkpt lat="43.0157592706382274627685546875" lon="-4.74521867930889129638671875">
        <ele>2203.199951171875</ele>
        <time>2021-07-22T09:15:05.000Z</time>
      </trkpt>
      <trkpt lat="43.01576773636043071746826171875" lon="-4.74521490745246410369873046875">
        <ele>2203.39990234375</ele>
        <time>2021-07-22T09:15:09.000Z</time>
      </trkpt>
      <trkpt lat="43.01576656289398670196533203125" lon="-4.74520786665380001068115234375">
        <ele>2203.199951171875</ele>
        <time>2021-07-22T09:15:18.000Z</time>
      </trkpt>
      <trkpt lat="43.01576052792370319366455078125" lon="-4.74522949196398258209228515625">
        <ele>2203.199951171875</ele>
        <time>2021-07-22T09:15:22.000Z</time>
      </trkpt>
      <trkpt lat="43.01576740108430385589599609375" lon="-4.74523804150521755218505859375">
        <ele>2203.199951171875</ele>
        <time>2021-07-22T09:15:25.000Z</time>
      </trkpt>
      <trkpt lat="43.015767820179462432861328125" lon="-4.74524005316197872161865234375">
        <ele>2203.60009765625</ele>
        <time>2021-07-22T09:15:26.000Z</time>
      </trkpt>
      <trkpt lat="43.0157723464071750640869140625" lon="-4.745238460600376129150390625">
        <ele>2204.199951171875</ele>
        <time>2021-07-22T09:15:29.000Z</time>
      </trkpt>
      <trkpt lat="43.01576321013271808624267578125" lon="-4.74523854441940784454345703125">
        <ele>2204.800048828125</ele>
        <time>2021-07-22T09:15:32.000Z</time>
      </trkpt>
      <trkpt lat="43.015747368335723876953125" lon="-4.74525044672191143035888671875">
        <ele>2205.199951171875</ele>
        <time>2021-07-22T09:15:36.000Z</time>
      </trkpt>
      <trkpt lat="43.01573328673839569091796875" lon="-4.74524910561740398406982421875">
        <ele>2205.39990234375</ele>
        <time>2021-07-22T09:15:38.000Z</time>
      </trkpt>
      <trkpt lat="43.01571895368397235870361328125" lon="-4.745257236063480377197265625">
        <ele>2206.199951171875</ele>
        <time>2021-07-22T09:15:41.000Z</time>
      </trkpt>
      <trkpt lat="43.0157190375030040740966796875" lon="-4.7452543862164020538330078125">
        <ele>2206.199951171875</ele>
        <time>2021-07-22T09:15:42.000Z</time>
      </trkpt>
      <trkpt lat="43.01571744494140148162841796875" lon="-4.745247177779674530029296875">
        <ele>2206.60009765625</ele>
        <time>2021-07-22T09:15:44.000Z</time>
      </trkpt>
      <trkpt lat="43.0157237313687801361083984375" lon="-4.74525891244411468505859375">
        <ele>2207.199951171875</ele>
        <time>2021-07-22T09:15:47.000Z</time>
      </trkpt>
      <trkpt lat="43.0157119967043399810791015625" lon="-4.7452677972614765167236328125">
        <ele>2207.39990234375</ele>
        <time>2021-07-22T09:15:53.000Z</time>
      </trkpt>
      <trkpt lat="43.015698082745075225830078125" lon="-4.74527928046882152557373046875">
        <ele>2207.60009765625</ele>
        <time>2021-07-22T09:15:58.000Z</time>
      </trkpt>
      <trkpt lat="43.015684671700000762939453125" lon="-4.7453092038631439208984375">
        <ele>2207.800048828125</ele>
        <time>2021-07-22T09:16:03.000Z</time>
      </trkpt>
      <trkpt lat="43.0156851746141910552978515625" lon="-4.74530073814094066619873046875">
        <ele>2208.39990234375</ele>
        <time>2021-07-22T09:16:08.000Z</time>
      </trkpt>
      <trkpt lat="43.0156695842742919921875" lon="-4.74534365348517894744873046875">
        <ele>2209</ele>
        <time>2021-07-22T09:16:16.000Z</time>
      </trkpt>
      <trkpt lat="43.01567134447395801544189453125" lon="-4.74531230516731739044189453125">
        <ele>2208.60009765625</ele>
        <time>2021-07-22T09:16:23.000Z</time>
      </trkpt>
      <trkpt lat="43.01567872054874897003173828125" lon="-4.74530392326414585113525390625">
        <ele>2208.60009765625</ele>
        <time>2021-07-22T09:16:30.000Z</time>
      </trkpt>
      <trkpt lat="43.01568274386227130889892578125" lon="-4.74531716667115688323974609375">
        <ele>2209</ele>
        <time>2021-07-22T09:16:33.000Z</time>
      </trkpt>
      <trkpt lat="43.0156794749200344085693359375" lon="-4.7453244589269161224365234375">
        <ele>2209.39990234375</ele>
        <time>2021-07-22T09:16:37.000Z</time>
      </trkpt>
      <trkpt lat="43.01567670889198780059814453125" lon="-4.7452993132174015045166015625">
        <ele>2209.39990234375</ele>
        <time>2021-07-22T09:16:39.000Z</time>
      </trkpt>
      <trkpt lat="43.0156707577407360076904296875" lon="-4.74529587663710117340087890625">
        <ele>2208.800048828125</ele>
        <time>2021-07-22T09:16:49.000Z</time>
      </trkpt>
      <trkpt lat="43.01568324677646160125732421875" lon="-4.74530107341706752777099609375">
        <ele>2208.60009765625</ele>
        <time>2021-07-22T09:16:54.000Z</time>
      </trkpt>
      <trkpt lat="43.01567553542554378509521484375" lon="-4.7453137300908565521240234375">
        <ele>2208.199951171875</ele>
        <time>2021-07-22T09:16:57.000Z</time>
      </trkpt>
      <trkpt lat="43.01567335613071918487548828125" lon="-4.745329320430755615234375">
        <ele>2208.199951171875</ele>
        <time>2021-07-22T09:16:59.000Z</time>
      </trkpt>
      <trkpt lat="43.01568358205258846282958984375" lon="-4.7453251294791698455810546875">
        <ele>2208</ele>
        <time>2021-07-22T09:17:02.000Z</time>
      </trkpt>
      <trkpt lat="43.01568877883255481719970703125" lon="-4.745320267975330352783203125">
        <ele>2207.800048828125</ele>
        <time>2021-07-22T09:17:07.000Z</time>
      </trkpt>
      <trkpt lat="43.0156898684799671173095703125" lon="-4.745329655706882476806640625">
        <ele>2208</ele>
        <time>2021-07-22T09:17:15.000Z</time>
      </trkpt>
      <trkpt lat="43.0156791396439075469970703125" lon="-4.74535354413092136383056640625">
        <ele>2208.39990234375</ele>
        <time>2021-07-22T09:17:21.000Z</time>
      </trkpt>
      <trkpt lat="43.01568123511970043182373046875" lon="-4.7453791089355945587158203125">
        <ele>2209.39990234375</ele>
        <time>2021-07-22T09:17:24.000Z</time>
      </trkpt>
      <trkpt lat="43.015689365565776824951171875" lon="-4.7454183362424373626708984375">
        <ele>2210.60009765625</ele>
        <time>2021-07-22T09:17:28.000Z</time>
      </trkpt>
      <trkpt lat="43.01570151932537555694580078125" lon="-4.74543401040136814117431640625">
        <ele>2211.39990234375</ele>
        <time>2021-07-22T09:17:30.000Z</time>
      </trkpt>
      <trkpt lat="43.01570621319115161895751953125" lon="-4.745436608791351318359375">
        <ele>2211.800048828125</ele>
        <time>2021-07-22T09:17:31.000Z</time>
      </trkpt>
      <trkpt lat="43.01571023650467395782470703125" lon="-4.74543401040136814117431640625">
        <ele>2212.199951171875</ele>
        <time>2021-07-22T09:17:33.000Z</time>
      </trkpt>
      <trkpt lat="43.01570671610534191131591796875" lon="-4.74542780779302120208740234375">
        <ele>2212.39990234375</ele>
        <time>2021-07-22T09:17:35.000Z</time>
      </trkpt>
      <trkpt lat="43.0157066322863101959228515625" lon="-4.74542177282273769378662109375">
        <ele>2212.39990234375</ele>
        <time>2021-07-22T09:17:37.000Z</time>
      </trkpt>
      <trkpt lat="43.015696741640567779541015625" lon="-4.74543250165879726409912109375">
        <ele>2212.60009765625</ele>
        <time>2021-07-22T09:17:42.000Z</time>
      </trkpt>
      <trkpt lat="43.01569414325058460235595703125" lon="-4.74543618969619274139404296875">
        <ele>2212.199951171875</ele>
        <time>2021-07-22T09:17:50.000Z</time>
      </trkpt>
      <trkpt lat="43.01569573581218719482421875" lon="-4.74543836899101734161376953125">
        <ele>2212.800048828125</ele>
        <time>2021-07-22T09:17:52.000Z</time>
      </trkpt>
      <trkpt lat="43.01569598726928234100341796875" lon="-4.74544222466647624969482421875">
        <ele>2213</ele>
        <time>2021-07-22T09:17:53.000Z</time>
      </trkpt>
      <trkpt lat="43.0156989209353923797607421875" lon="-4.7454639337956905364990234375">
        <ele>2212.60009765625</ele>
        <time>2021-07-22T09:17:57.000Z</time>
      </trkpt>
      <trkpt lat="43.01569917239248752593994140625" lon="-4.7454656101763248443603515625">
        <ele>2212.60009765625</ele>
        <time>2021-07-22T09:17:58.000Z</time>
      </trkpt>
      <trkpt lat="43.01571124233305454254150390625" lon="-4.7454822063446044921875">
        <ele>2214.199951171875</ele>
        <time>2021-07-22T09:18:06.000Z</time>
      </trkpt>
      <trkpt lat="43.0157099850475788116455078125" lon="-4.74548446945846080780029296875">
        <ele>2214.60009765625</ele>
        <time>2021-07-22T09:18:07.000Z</time>
      </trkpt>
      <trkpt lat="43.0156942270696163177490234375" lon="-4.74549989216029644012451171875">
        <ele>2215.39990234375</ele>
        <time>2021-07-22T09:18:10.000Z</time>
      </trkpt>
      <trkpt lat="43.0156868509948253631591796875" lon="-4.7455122135579586029052734375">
        <ele>2216.199951171875</ele>
        <time>2021-07-22T09:18:12.000Z</time>
      </trkpt>
      <trkpt lat="43.01569179631769657135009765625" lon="-4.7455122135579586029052734375">
        <ele>2216.800048828125</ele>
        <time>2021-07-22T09:18:13.000Z</time>
      </trkpt>
      <trkpt lat="43.01568659953773021697998046875" lon="-4.74551263265311717987060546875">
        <ele>2217.800048828125</ele>
        <time>2021-07-22T09:18:16.000Z</time>
      </trkpt>
      <trkpt lat="43.01567385904490947723388671875" lon="-4.74554750137031078338623046875">
        <ele>2217.60009765625</ele>
        <time>2021-07-22T09:18:21.000Z</time>
      </trkpt>
      <trkpt lat="43.01568098366260528564453125" lon="-4.7455715574324131011962890625">
        <ele>2217.39990234375</ele>
        <time>2021-07-22T09:18:25.000Z</time>
      </trkpt>
      <trkpt lat="43.0156938917934894561767578125" lon="-4.7455682046711444854736328125">
        <ele>2218.39990234375</ele>
        <time>2021-07-22T09:18:30.000Z</time>
      </trkpt>
      <trkpt lat="43.01572867669165134429931640625" lon="-4.74557884968817234039306640625">
        <ele>2218.800048828125</ele>
        <time>2021-07-22T09:18:41.000Z</time>
      </trkpt>
      <trkpt lat="43.015693388879299163818359375" lon="-4.7455688752233982086181640625">
        <ele>2218</ele>
        <time>2021-07-22T09:18:51.000Z</time>
      </trkpt>
      <trkpt lat="43.01570353098213672637939453125" lon="-4.7455702163279056549072265625">
        <ele>2217.800048828125</ele>
        <time>2021-07-22T09:18:53.000Z</time>
      </trkpt>
      <trkpt lat="43.0157089792191982269287109375" lon="-4.74557801149785518646240234375">
        <ele>2217.800048828125</ele>
        <time>2021-07-22T09:18:55.000Z</time>
      </trkpt>
      <trkpt lat="43.0157073028385639190673828125" lon="-4.74559955298900604248046875">
        <ele>2218</ele>
        <time>2021-07-22T09:18:58.000Z</time>
      </trkpt>
      <trkpt lat="43.01571677438914775848388671875" lon="-4.74558538757264614105224609375">
        <ele>2218.199951171875</ele>
        <time>2021-07-22T09:19:02.000Z</time>
      </trkpt>
      <trkpt lat="43.01571643911302089691162109375" lon="-4.7455749101936817169189453125">
        <ele>2218.39990234375</ele>
        <time>2021-07-22T09:19:05.000Z</time>
      </trkpt>
      <trkpt lat="43.0157096497714519500732421875" lon="-4.74556946195662021636962890625">
        <ele>2218.39990234375</ele>
        <time>2021-07-22T09:19:07.000Z</time>
      </trkpt>
      <trkpt lat="43.01571057178080081939697265625" lon="-4.74558882415294647216796875">
        <ele>2219</ele>
        <time>2021-07-22T09:19:13.000Z</time>
      </trkpt>
      <trkpt lat="43.01570856012403964996337890625" lon="-4.7455725632607936859130859375">
        <ele>2218.800048828125</ele>
        <time>2021-07-22T09:19:16.000Z</time>
      </trkpt>
      <trkpt lat="43.015693724155426025390625" lon="-4.74558907561004161834716796875">
        <ele>2219.199951171875</ele>
        <time>2021-07-22T09:19:24.000Z</time>
      </trkpt>
      <trkpt lat="43.01567855291068553924560546875" lon="-4.7456191666424274444580078125">
        <ele>2219</ele>
        <time>2021-07-22T09:19:28.000Z</time>
      </trkpt>
      <trkpt lat="43.01568056456744670867919921875" lon="-4.74561623297631740570068359375">
        <ele>2218.39990234375</ele>
        <time>2021-07-22T09:19:32.000Z</time>
      </trkpt>
      <trkpt lat="43.01568643189966678619384765625" lon="-4.74561522714793682098388671875">
        <ele>2218</ele>
        <time>2021-07-22T09:19:38.000Z</time>
      </trkpt>
      <trkpt lat="43.01568157039582729339599609375" lon="-4.745608605444431304931640625">
        <ele>2219.199951171875</ele>
        <time>2021-07-22T09:19:50.000Z</time>
      </trkpt>
      <trkpt lat="43.01569514907896518707275390625" lon="-4.7456096112728118896484375">
        <ele>2219</ele>
        <time>2021-07-22T09:19:59.000Z</time>
      </trkpt>
      <trkpt lat="43.01571157760918140411376953125" lon="-4.74560265429317951202392578125">
        <ele>2218.199951171875</ele>
        <time>2021-07-22T09:20:08.000Z</time>
      </trkpt>
      <trkpt lat="43.0157176963984966278076171875" lon="-4.745600558817386627197265625">
        <ele>2218</ele>
        <time>2021-07-22T09:20:10.000Z</time>
      </trkpt>
      <trkpt lat="43.0157176963984966278076171875" lon="-4.74560491740703582763671875">
        <ele>2217.800048828125</ele>
        <time>2021-07-22T09:20:11.000Z</time>
      </trkpt>
      <trkpt lat="43.015688024461269378662109375" lon="-4.7455960325896739959716796875">
        <ele>2218</ele>
        <time>2021-07-22T09:20:20.000Z</time>
      </trkpt>
      <trkpt lat="43.01565877161920070648193359375" lon="-4.74562059156596660614013671875">
        <ele>2219</ele>
        <time>2021-07-22T09:20:24.000Z</time>
      </trkpt>
      <trkpt lat="43.01565005443990230560302734375" lon="-4.74565110169351100921630859375">
        <ele>2219.39990234375</ele>
        <time>2021-07-22T09:20:27.000Z</time>
      </trkpt>
      <trkpt lat="43.0156506411731243133544921875" lon="-4.7456630878150463104248046875">
        <ele>2219.800048828125</ele>
        <time>2021-07-22T09:20:28.000Z</time>
      </trkpt>
      <trkpt lat="43.01565256901085376739501953125" lon="-4.7456793487071990966796875">
        <ele>2220.199951171875</ele>
        <time>2021-07-22T09:20:29.000Z</time>
      </trkpt>
      <trkpt lat="43.01565156318247318267822265625" lon="-4.74571698345243930816650390625">
        <ele>2221.39990234375</ele>
        <time>2021-07-22T09:20:32.000Z</time>
      </trkpt>
      <trkpt lat="43.0156494677066802978515625" lon="-4.74572293460369110107421875">
        <ele>2221.60009765625</ele>
        <time>2021-07-22T09:20:33.000Z</time>
      </trkpt>
      <trkpt lat="43.0156489647924900054931640625" lon="-4.745747409760951995849609375">
        <ele>2222.39990234375</ele>
        <time>2021-07-22T09:20:37.000Z</time>
      </trkpt>
      <trkpt lat="43.01564184017479419708251953125" lon="-4.7457593120634555816650390625">
        <ele>2222.800048828125</ele>
        <time>2021-07-22T09:20:39.000Z</time>
      </trkpt>
      <trkpt lat="43.01562859676778316497802734375" lon="-4.74578286521136760711669921875">
        <ele>2223.60009765625</ele>
        <time>2021-07-22T09:20:42.000Z</time>
      </trkpt>
      <trkpt lat="43.01562591455876827239990234375" lon="-4.7457945160567760467529296875">
        <ele>2223.800048828125</ele>
        <time>2021-07-22T09:20:44.000Z</time>
      </trkpt>
      <trkpt lat="43.01561820320785045623779296875" lon="-4.74581605754792690277099609375">
        <ele>2224.199951171875</ele>
        <time>2021-07-22T09:20:46.000Z</time>
      </trkpt>
      <trkpt lat="43.0156151019036769866943359375" lon="-4.7458256967365741729736328125">
        <ele>2224.39990234375</ele>
        <time>2021-07-22T09:20:47.000Z</time>
      </trkpt>
      <trkpt lat="43.015610910952091217041015625" lon="-4.745835252106189727783203125">
        <ele>2224.800048828125</ele>
        <time>2021-07-22T09:20:48.000Z</time>
      </trkpt>
      <trkpt lat="43.01560780964791774749755859375" lon="-4.74585075862705707550048828125">
        <ele>2225.199951171875</ele>
        <time>2021-07-22T09:20:50.000Z</time>
      </trkpt>
      <trkpt lat="43.0156067200005054473876953125" lon="-4.74585696123540401458740234375">
        <ele>2225.199951171875</ele>
        <time>2021-07-22T09:20:55.000Z</time>
      </trkpt>
      <trkpt lat="43.015602529048919677734375" lon="-4.7458954341709613800048828125">
        <ele>2225.800048828125</ele>
        <time>2021-07-22T09:21:00.000Z</time>
      </trkpt>
      <trkpt lat="43.01560060121119022369384765625" lon="-4.7459127008914947509765625">
        <ele>2225.800048828125</ele>
        <time>2021-07-22T09:21:01.000Z</time>
      </trkpt>
      <trkpt lat="43.01559641025960445404052734375" lon="-4.7459219209849834442138671875">
        <ele>2225.800048828125</ele>
        <time>2021-07-22T09:21:02.000Z</time>
      </trkpt>
      <trkpt lat="43.01558450795710086822509765625" lon="-4.74595637060701847076416015625">
        <ele>2226.800048828125</ele>
        <time>2021-07-22T09:21:06.000Z</time>
      </trkpt>
      <trkpt lat="43.01557780243456363677978515625" lon="-4.74598822183907032012939453125">
        <ele>2227</ele>
        <time>2021-07-22T09:21:10.000Z</time>
      </trkpt>
      <trkpt lat="43.01559154875576496124267578125" lon="-4.7460744716227054595947265625">
        <ele>2227.60009765625</ele>
        <time>2021-07-22T09:21:16.000Z</time>
      </trkpt>
      <trkpt lat="43.0155943147838115692138671875" lon="-4.74607790820300579071044921875">
        <ele>2228</ele>
        <time>2021-07-22T09:21:17.000Z</time>
      </trkpt>
      <trkpt lat="43.0156063847243785858154296875" lon="-4.7460694424808025360107421875">
        <ele>2228.60009765625</ele>
        <time>2021-07-22T09:21:23.000Z</time>
      </trkpt>
      <trkpt lat="43.01564921624958515167236328125" lon="-4.74607287906110286712646484375">
        <ele>2229.199951171875</ele>
        <time>2021-07-22T09:21:27.000Z</time>
      </trkpt>
      <trkpt lat="43.0156593583524227142333984375" lon="-4.7460704483091831207275390625">
        <ele>2229.800048828125</ele>
        <time>2021-07-22T09:21:30.000Z</time>
      </trkpt>
      <trkpt lat="43.0156549997627735137939453125" lon="-4.74607455544173717498779296875">
        <ele>2230.39990234375</ele>
        <time>2021-07-22T09:21:32.000Z</time>
      </trkpt>
      <trkpt lat="43.01566430367529392242431640625" lon="-4.74608042277395725250244140625">
        <ele>2231.60009765625</ele>
        <time>2021-07-22T09:21:40.000Z</time>
      </trkpt>
      <trkpt lat="43.01571124233305454254150390625" lon="-4.7460949234664440155029296875">
        <ele>2231.39990234375</ele>
        <time>2021-07-22T09:21:46.000Z</time>
      </trkpt>
      <trkpt lat="43.01572213880717754364013671875" lon="-4.74610783159732818603515625">
        <ele>2231.60009765625</ele>
        <time>2021-07-22T09:21:51.000Z</time>
      </trkpt>
      <trkpt lat="43.0157460272312164306640625" lon="-4.74614345468580722808837890625">
        <ele>2232.39990234375</ele>
        <time>2021-07-22T09:21:55.000Z</time>
      </trkpt>
      <trkpt lat="43.015764467418193817138671875" lon="-4.74614965729415416717529296875">
        <ele>2232.60009765625</ele>
        <time>2021-07-22T09:21:57.000Z</time>
      </trkpt>
      <trkpt lat="43.0157968215644359588623046875" lon="-4.7461660020053386688232421875">
        <ele>2233</ele>
        <time>2021-07-22T09:22:00.000Z</time>
      </trkpt>
      <trkpt lat="43.01583277992904186248779296875" lon="-4.7461648285388946533203125">
        <ele>2233.800048828125</ele>
        <time>2021-07-22T09:22:03.000Z</time>
      </trkpt>
      <trkpt lat="43.0158430896699428558349609375" lon="-4.74616474471986293792724609375">
        <ele>2233.800048828125</ele>
        <time>2021-07-22T09:22:04.000Z</time>
      </trkpt>
      <trkpt lat="43.01586605608463287353515625" lon="-4.746171198785305023193359375">
        <ele>2234.199951171875</ele>
        <time>2021-07-22T09:22:07.000Z</time>
      </trkpt>
      <trkpt lat="43.0158729292452335357666015625" lon="-4.74617497064173221588134765625">
        <ele>2234.60009765625</ele>
        <time>2021-07-22T09:22:09.000Z</time>
      </trkpt>
      <trkpt lat="43.01588592119514942169189453125" lon="-4.746204726397991180419921875">
        <ele>2234.800048828125</ele>
        <time>2021-07-22T09:22:11.000Z</time>
      </trkpt>
      <trkpt lat="43.01589547656476497650146484375" lon="-4.74623565562069416046142578125">
        <ele>2235.199951171875</ele>
        <time>2021-07-22T09:22:14.000Z</time>
      </trkpt>
      <trkpt lat="43.01589815877377986907958984375" lon="-4.7462387569248676300048828125">
        <ele>2235.199951171875</ele>
        <time>2021-07-22T09:22:15.000Z</time>
      </trkpt>
      <trkpt lat="43.015895225107669830322265625" lon="-4.74621654488146305084228515625">
        <ele>2236</ele>
        <time>2021-07-22T09:22:19.000Z</time>
      </trkpt>
      <trkpt lat="43.01589111797511577606201171875" lon="-4.74622895009815692901611328125">
        <ele>2235.60009765625</ele>
        <time>2021-07-22T09:22:24.000Z</time>
      </trkpt>
      <trkpt lat="43.01588692702353000640869140625" lon="-4.74622450768947601318359375">
        <ele>2235.60009765625</ele>
        <time>2021-07-22T09:22:25.000Z</time>
      </trkpt>
      <trkpt lat="43.015896566212177276611328125" lon="-4.74620648659765720367431640625">
        <ele>2236</ele>
        <time>2021-07-22T09:22:33.000Z</time>
      </trkpt>
      <trkpt lat="43.01589556038379669189453125" lon="-4.74622576497495174407958984375">
        <ele>2236.199951171875</ele>
        <time>2021-07-22T09:22:38.000Z</time>
      </trkpt>
      <trkpt lat="43.015908300876617431640625" lon="-4.74620229564607143402099609375">
        <ele>2236.39990234375</ele>
        <time>2021-07-22T09:22:42.000Z</time>
      </trkpt>
      <trkpt lat="43.0159074626863002777099609375" lon="-4.74621243774890899658203125">
        <ele>2236.39990234375</ele>
        <time>2021-07-22T09:22:45.000Z</time>
      </trkpt>
      <trkpt lat="43.01590402610599994659423828125" lon="-4.74622073583304882049560546875">
        <ele>2236.39990234375</ele>
        <time>2021-07-22T09:22:46.000Z</time>
      </trkpt>
      <trkpt lat="43.01591006107628345489501953125" lon="-4.74623850546777248382568359375">
        <ele>2236.39990234375</ele>
        <time>2021-07-22T09:22:49.000Z</time>
      </trkpt>
      <trkpt lat="43.01593042910099029541015625" lon="-4.7462692670524120330810546875">
        <ele>2236</ele>
        <time>2021-07-22T09:22:53.000Z</time>
      </trkpt>
      <trkpt lat="43.01594543270766735076904296875" lon="-4.746321737766265869140625">
        <ele>2236.199951171875</ele>
        <time>2021-07-22T09:22:58.000Z</time>
      </trkpt>
      <trkpt lat="43.0159453488886356353759765625" lon="-4.746322743594646453857421875">
        <ele>2236.39990234375</ele>
        <time>2021-07-22T09:22:59.000Z</time>
      </trkpt>
      <trkpt lat="43.01594995893537998199462890625" lon="-4.74633774720132350921630859375">
        <ele>2237.199951171875</ele>
        <time>2021-07-22T09:23:01.000Z</time>
      </trkpt>
      <trkpt lat="43.0159564130008220672607421875" lon="-4.74635182879865169525146484375">
        <ele>2237.39990234375</ele>
        <time>2021-07-22T09:23:02.000Z</time>
      </trkpt>
      <trkpt lat="43.01597728393971920013427734375" lon="-4.7463832609355449676513671875">
        <ele>2237.199951171875</ele>
        <time>2021-07-22T09:23:05.000Z</time>
      </trkpt>
      <trkpt lat="43.015991784632205963134765625" lon="-4.74639507941901683807373046875">
        <ele>2237.39990234375</ele>
        <time>2021-07-22T09:23:07.000Z</time>
      </trkpt>
      <trkpt lat="43.01601751707494258880615234375" lon="-4.7464154474437236785888671875">
        <ele>2238.39990234375</ele>
        <time>2021-07-22T09:23:10.000Z</time>
      </trkpt>
      <trkpt lat="43.0160330235958099365234375" lon="-4.74640329368412494659423828125">
        <ele>2238.800048828125</ele>
        <time>2021-07-22T09:23:12.000Z</time>
      </trkpt>
      <trkpt lat="43.01604174077510833740234375" lon="-4.74639642052352428436279296875">
        <ele>2238.60009765625</ele>
        <time>2021-07-22T09:23:13.000Z</time>
      </trkpt>
      <trkpt lat="43.0161133222281932830810546875" lon="-4.746364653110504150390625">
        <ele>2238</ele>
        <time>2021-07-22T09:23:19.000Z</time>
      </trkpt>
      <trkpt lat="43.01614240743219852447509765625" lon="-4.7463695146143436431884765625">
        <ele>2237.800048828125</ele>
        <time>2021-07-22T09:23:22.000Z</time>
      </trkpt>
      <trkpt lat="43.01616017706692218780517578125" lon="-4.7463433630764484405517578125">
        <ele>2237.60009765625</ele>
        <time>2021-07-22T09:23:25.000Z</time>
      </trkpt>
      <trkpt lat="43.0161649547517299652099609375" lon="-4.746340177953243255615234375">
        <ele>2237.60009765625</ele>
        <time>2021-07-22T09:23:26.000Z</time>
      </trkpt>
      <trkpt lat="43.0161827243864536285400390625" lon="-4.7463514097034931182861328125">
        <ele>2237.800048828125</ele>
        <time>2021-07-22T09:23:29.000Z</time>
      </trkpt>
      <trkpt lat="43.0161859095096588134765625" lon="-4.74635501392185688018798828125">
        <ele>2238</ele>
        <time>2021-07-22T09:23:30.000Z</time>
      </trkpt>
      <trkpt lat="43.01620409823954105377197265625" lon="-4.74637881852686405181884765625">
        <ele>2238.60009765625</ele>
        <time>2021-07-22T09:23:36.000Z</time>
      </trkpt>
      <trkpt lat="43.016253300011157989501953125" lon="-4.74635593593120574951171875">
        <ele>2237.800048828125</ele>
        <time>2021-07-22T09:23:41.000Z</time>
      </trkpt>
      <trkpt lat="43.0162742547690868377685546875" lon="-4.74637429229915142059326171875">
        <ele>2237.39990234375</ele>
        <time>2021-07-22T09:23:46.000Z</time>
      </trkpt>
      <trkpt lat="43.01627333275973796844482421875" lon="-4.74637680687010288238525390625">
        <ele>2237.39990234375</ele>
        <time>2021-07-22T09:23:47.000Z</time>
      </trkpt>
      <trkpt lat="43.01628724671900272369384765625" lon="-4.74637161009013652801513671875">
        <ele>2237.60009765625</ele>
        <time>2021-07-22T09:23:52.000Z</time>
      </trkpt>
      <trkpt lat="43.01631398499011993408203125" lon="-4.7463996894657611846923828125">
        <ele>2237.199951171875</ele>
        <time>2021-07-22T09:23:55.000Z</time>
      </trkpt>
      <trkpt lat="43.01633904688060283660888671875" lon="-4.74641150794923305511474609375">
        <ele>2237</ele>
        <time>2021-07-22T09:23:57.000Z</time>
      </trkpt>
      <trkpt lat="43.01636100746691226959228515625" lon="-4.74640748463571071624755859375">
        <ele>2236.60009765625</ele>
        <time>2021-07-22T09:23:59.000Z</time>
      </trkpt>
      <trkpt lat="43.0163838900625705718994140625" lon="-4.7464080713689327239990234375">
        <ele>2236.199951171875</ele>
        <time>2021-07-22T09:24:01.000Z</time>
      </trkpt>
      <trkpt lat="43.01641750149428844451904296875" lon="-4.74641787819564342498779296875">
        <ele>2235.800048828125</ele>
        <time>2021-07-22T09:24:05.000Z</time>
      </trkpt>
      <trkpt lat="43.0164246261119842529296875" lon="-4.7464214824140071868896484375">
        <ele>2236.39990234375</ele>
        <time>2021-07-22T09:24:07.000Z</time>
      </trkpt>
      <trkpt lat="43.016425631940364837646484375" lon="-4.74642173387110233306884765625">
        <ele>2236.60009765625</ele>
        <time>2021-07-22T09:24:08.000Z</time>
      </trkpt>
      <trkpt lat="43.0164241231977939605712890625" lon="-4.7464094124734401702880859375">
        <ele>2236.800048828125</ele>
        <time>2021-07-22T09:24:12.000Z</time>
      </trkpt>
      <trkpt lat="43.0164556391537189483642578125" lon="-4.7464409284293651580810546875">
        <ele>2236.60009765625</ele>
        <time>2021-07-22T09:24:18.000Z</time>
      </trkpt>
      <trkpt lat="43.01648824475705623626708984375" lon="-4.74644721485674381256103515625">
        <ele>2237</ele>
        <time>2021-07-22T09:24:25.000Z</time>
      </trkpt>
      <trkpt lat="43.01653468050062656402587890625" lon="-4.74645249545574188232421875">
        <ele>2237</ele>
        <time>2021-07-22T09:24:32.000Z</time>
      </trkpt>
      <trkpt lat="43.01655764691531658172607421875" lon="-4.7464516572654247283935546875">
        <ele>2236.60009765625</ele>
        <time>2021-07-22T09:24:37.000Z</time>
      </trkpt>
      <trkpt lat="43.01656208932399749755859375" lon="-4.7464550100266933441162109375">
        <ele>2236.60009765625</ele>
        <time>2021-07-22T09:24:38.000Z</time>
      </trkpt>
      <trkpt lat="43.01660366356372833251953125" lon="-4.74649851210415363311767578125">
        <ele>2237</ele>
        <time>2021-07-22T09:24:45.000Z</time>
      </trkpt>
      <trkpt lat="43.0166065134108066558837890625" lon="-4.7464972548186779022216796875">
        <ele>2237.199951171875</ele>
        <time>2021-07-22T09:24:47.000Z</time>
      </trkpt>
      <trkpt lat="43.0166048370301723480224609375" lon="-4.74648610688745975494384765625">
        <ele>2237.199951171875</ele>
        <time>2021-07-22T09:24:49.000Z</time>
      </trkpt>
      <trkpt lat="43.01661078818142414093017578125" lon="-4.74652399308979511260986328125">
        <ele>2238.39990234375</ele>
        <time>2021-07-22T09:24:55.000Z</time>
      </trkpt>
      <trkpt lat="43.0166392028331756591796875" lon="-4.74653556011617183685302734375">
        <ele>2239.39990234375</ele>
        <time>2021-07-22T09:25:01.000Z</time>
      </trkpt>
      <trkpt lat="43.0166470818221569061279296875" lon="-4.74652751348912715911865234375">
        <ele>2240</ele>
        <time>2021-07-22T09:25:04.000Z</time>
      </trkpt>
      <trkpt lat="43.0166464112699031829833984375" lon="-4.74651745520532131195068359375">
        <ele>2240.39990234375</ele>
        <time>2021-07-22T09:25:06.000Z</time>
      </trkpt>
      <trkpt lat="43.01664448343217372894287109375" lon="-4.746509157121181488037109375">
        <ele>2240.60009765625</ele>
        <time>2021-07-22T09:25:08.000Z</time>
      </trkpt>
      <trkpt lat="43.01665001548826694488525390625" lon="-4.746517203748226165771484375">
        <ele>2240.800048828125</ele>
        <time>2021-07-22T09:25:11.000Z</time>
      </trkpt>
      <trkpt lat="43.01666208542883396148681640625" lon="-4.74653027951717376708984375">
        <ele>2240.800048828125</ele>
        <time>2021-07-22T09:25:14.000Z</time>
      </trkpt>
      <trkpt lat="43.0166802741587162017822265625" lon="-4.7465425170958042144775390625">
        <ele>2241.199951171875</ele>
        <time>2021-07-22T09:25:17.000Z</time>
      </trkpt>
      <trkpt lat="43.01668639294803142547607421875" lon="-4.7465455345809459686279296875">
        <ele>2241.60009765625</ele>
        <time>2021-07-22T09:25:18.000Z</time>
      </trkpt>
      <trkpt lat="43.01669041626155376434326171875" lon="-4.74654578603804111480712890625">
        <ele>2242</ele>
        <time>2021-07-22T09:25:19.000Z</time>
      </trkpt>
      <trkpt lat="43.01669494248926639556884765625" lon="-4.74653807468712329864501953125">
        <ele>2242.800048828125</ele>
        <time>2021-07-22T09:25:21.000Z</time>
      </trkpt>
      <trkpt lat="43.0166963674128055572509765625" lon="-4.7465294413268566131591796875">
        <ele>2243.60009765625</ele>
        <time>2021-07-22T09:25:24.000Z</time>
      </trkpt>
      <trkpt lat="43.01669745706021785736083984375" lon="-4.74653053097426891326904296875">
        <ele>2243.800048828125</ele>
        <time>2021-07-22T09:25:25.000Z</time>
      </trkpt>
      <trkpt lat="43.01670558750629425048828125" lon="-4.74654109217226505279541015625">
        <ele>2244</ele>
        <time>2021-07-22T09:25:28.000Z</time>
      </trkpt>
      <trkpt lat="43.01672226749360561370849609375" lon="-4.74655450321733951568603515625">
        <ele>2244.39990234375</ele>
        <time>2021-07-22T09:25:31.000Z</time>
      </trkpt>
      <trkpt lat="43.01673081703484058380126953125" lon="-4.74656087346374988555908203125">
        <ele>2245</ele>
        <time>2021-07-22T09:25:35.000Z</time>
      </trkpt>
      <trkpt lat="43.01673131994903087615966796875" lon="-4.74655953235924243927001953125">
        <ele>2245.39990234375</ele>
        <time>2021-07-22T09:25:36.000Z</time>
      </trkpt>
      <trkpt lat="43.0167411267757415771484375" lon="-4.74655835889279842376708984375">
        <ele>2246.800048828125</ele>
        <time>2021-07-22T09:25:38.000Z</time>
      </trkpt>
      <trkpt lat="43.016756884753704071044921875" lon="-4.7465579397976398468017578125">
        <ele>2248</ele>
        <time>2021-07-22T09:25:40.000Z</time>
      </trkpt>
      <trkpt lat="43.0167728103697299957275390625" lon="-4.7465576045215129852294921875">
        <ele>2248.60009765625</ele>
        <time>2021-07-22T09:25:44.000Z</time>
      </trkpt>
      <trkpt lat="43.016771636903285980224609375" lon="-4.7465529106557369232177734375">
        <ele>2248.60009765625</ele>
        <time>2021-07-22T09:25:48.000Z</time>
      </trkpt>
      <trkpt lat="43.01677121780812740325927734375" lon="-4.7465314529836177825927734375">
        <ele>2248.199951171875</ele>
        <time>2021-07-22T09:25:55.000Z</time>
      </trkpt>
      <trkpt lat="43.0167915858328342437744140625" lon="-4.7465472109615802764892578125">
        <ele>2248.800048828125</ele>
        <time>2021-07-22T09:26:04.000Z</time>
      </trkpt>
      <trkpt lat="43.0167966149747371673583984375" lon="-4.74654771387577056884765625">
        <ele>2249.39990234375</ele>
        <time>2021-07-22T09:26:05.000Z</time>
      </trkpt>
      <trkpt lat="43.0168217606842517852783203125" lon="-4.746552072465419769287109375">
        <ele>2250.199951171875</ele>
        <time>2021-07-22T09:26:09.000Z</time>
      </trkpt>
      <trkpt lat="43.016819916665554046630859375" lon="-4.74654796533286571502685546875">
        <ele>2250.39990234375</ele>
        <time>2021-07-22T09:26:11.000Z</time>
      </trkpt>
      <trkpt lat="43.0168251134455204010009765625" lon="-4.74652131088078022003173828125">
        <ele>2250.39990234375</ele>
        <time>2021-07-22T09:26:16.000Z</time>
      </trkpt>
      <trkpt lat="43.01684212870895862579345703125" lon="-4.74652449600398540496826171875">
        <ele>2251.60009765625</ele>
        <time>2021-07-22T09:26:20.000Z</time>
      </trkpt>
      <trkpt lat="43.01684279926121234893798828125" lon="-4.746549390256404876708984375">
        <ele>2252.39990234375</ele>
        <time>2021-07-22T09:26:24.000Z</time>
      </trkpt>
      <trkpt lat="43.016843385994434356689453125" lon="-4.7465545870363712310791015625">
        <ele>2252.60009765625</ele>
        <time>2021-07-22T09:26:26.000Z</time>
      </trkpt>
      <trkpt lat="43.0168532766401767730712890625" lon="-4.74655785597860813140869140625">
        <ele>2253.199951171875</ele>
        <time>2021-07-22T09:26:28.000Z</time>
      </trkpt>
      <trkpt lat="43.01686115562915802001953125" lon="-4.746554754674434661865234375">
        <ele>2253.60009765625</ele>
        <time>2021-07-22T09:26:29.000Z</time>
      </trkpt>
      <trkpt lat="43.01686786115169525146484375" lon="-4.7465510666370391845703125">
        <ele>2253.800048828125</ele>
        <time>2021-07-22T09:26:30.000Z</time>
      </trkpt>
      <trkpt lat="43.0168928392231464385986328125" lon="-4.7465636394917964935302734375">
        <ele>2254.60009765625</ele>
        <time>2021-07-22T09:26:34.000Z</time>
      </trkpt>
      <trkpt lat="43.0169028975069522857666015625" lon="-4.7465586103498935699462890625">
        <ele>2255.39990234375</ele>
        <time>2021-07-22T09:26:36.000Z</time>
      </trkpt>
      <trkpt lat="43.01691538654267787933349609375" lon="-4.7465539164841175079345703125">
        <ele>2256.60009765625</ele>
        <time>2021-07-22T09:26:38.000Z</time>
      </trkpt>
      <trkpt lat="43.01693491637706756591796875" lon="-4.74655265919864177703857421875">
        <ele>2257.60009765625</ele>
        <time>2021-07-22T09:26:43.000Z</time>
      </trkpt>
      <trkpt lat="43.01693483255803585052490234375" lon="-4.74655400030314922332763671875">
        <ele>2257.60009765625</ele>
        <time>2021-07-22T09:26:44.000Z</time>
      </trkpt>
      <trkpt lat="43.01693064160645008087158203125" lon="-4.74652826786041259765625">
        <ele>2259</ele>
        <time>2021-07-22T09:26:48.000Z</time>
      </trkpt>
      <trkpt lat="43.016956709325313568115234375" lon="-4.74649314768612384796142578125">
        <ele>2260</ele>
        <time>2021-07-22T09:26:52.000Z</time>
      </trkpt>
      <trkpt lat="43.01696978509426116943359375" lon="-4.74648929201066493988037109375">
        <ele>2260.199951171875</ele>
        <time>2021-07-22T09:26:54.000Z</time>
      </trkpt>
      <trkpt lat="43.01698260940611362457275390625" lon="-4.74648945964872837066650390625">
        <ele>2259.39990234375</ele>
        <time>2021-07-22T09:26:56.000Z</time>
      </trkpt>
      <trkpt lat="43.01700524054467678070068359375" lon="-4.7464620508253574371337890625">
        <ele>2259.800048828125</ele>
        <time>2021-07-22T09:27:00.000Z</time>
      </trkpt>
      <trkpt lat="43.01701613701879978179931640625" lon="-4.74644134752452373504638671875">
        <ele>2260</ele>
        <time>2021-07-22T09:27:02.000Z</time>
      </trkpt>
      <trkpt lat="43.017033152282238006591796875" lon="-4.74642257206141948699951171875">
        <ele>2260.39990234375</ele>
        <time>2021-07-22T09:27:06.000Z</time>
      </trkpt>
      <trkpt lat="43.017039857804775238037109375" lon="-4.7464348934590816497802734375">
        <ele>2261</ele>
        <time>2021-07-22T09:27:12.000Z</time>
      </trkpt>
      <trkpt lat="43.01705829799175262451171875" lon="-4.7464048862457275390625">
        <ele>2261</ele>
        <time>2021-07-22T09:27:17.000Z</time>
      </trkpt>
      <trkpt lat="43.017063327133655548095703125" lon="-4.74641234613955020904541015625">
        <ele>2261.199951171875</ele>
        <time>2021-07-22T09:27:18.000Z</time>
      </trkpt>
      <trkpt lat="43.017078749835491180419921875" lon="-4.7464369051158428192138671875">
        <ele>2261.60009765625</ele>
        <time>2021-07-22T09:27:21.000Z</time>
      </trkpt>
      <trkpt lat="43.01708034239709377288818359375" lon="-4.74646666087210178375244140625">
        <ele>2262.199951171875</ele>
        <time>2021-07-22T09:27:24.000Z</time>
      </trkpt>
      <trkpt lat="43.01708109676837921142578125" lon="-4.74650337360799312591552734375">
        <ele>2263.60009765625</ele>
        <time>2021-07-22T09:27:27.000Z</time>
      </trkpt>
      <trkpt lat="43.0170795880258083343505859375" lon="-4.7465089894831180572509765625">
        <ele>2264.199951171875</ele>
        <time>2021-07-22T09:27:29.000Z</time>
      </trkpt>
      <trkpt lat="43.01707011647522449493408203125" lon="-4.7465089894831180572509765625">
        <ele>2264.800048828125</ele>
        <time>2021-07-22T09:27:31.000Z</time>
      </trkpt>
      <trkpt lat="43.01706659607589244842529296875" lon="-4.74654964171350002288818359375">
        <ele>2265.60009765625</ele>
        <time>2021-07-22T09:27:37.000Z</time>
      </trkpt>
      <trkpt lat="43.017070703208446502685546875" lon="-4.74656254984438419342041015625">
        <ele>2265.800048828125</ele>
        <time>2021-07-22T09:27:38.000Z</time>
      </trkpt>
      <trkpt lat="43.01707380451261997222900390625" lon="-4.74657076410949230194091796875">
        <ele>2265.800048828125</ele>
        <time>2021-07-22T09:27:39.000Z</time>
      </trkpt>
      <trkpt lat="43.0170852877199649810791015625" lon="-4.74659138359129428863525390625">
        <ele>2266.39990234375</ele>
        <time>2021-07-22T09:27:41.000Z</time>
      </trkpt>
      <trkpt lat="43.0170926637947559356689453125" lon="-4.74660077132284641265869140625">
        <ele>2266.800048828125</ele>
        <time>2021-07-22T09:27:42.000Z</time>
      </trkpt>
      <trkpt lat="43.01710389554500579833984375" lon="-4.746625162661075592041015625">
        <ele>2267.800048828125</ele>
        <time>2021-07-22T09:27:44.000Z</time>
      </trkpt>
      <trkpt lat="43.0171085894107818603515625" lon="-4.74663865752518177032470703125">
        <ele>2268.199951171875</ele>
        <time>2021-07-22T09:27:45.000Z</time>
      </trkpt>
      <trkpt lat="43.01711252890527248382568359375" lon="-4.7466541640460491180419921875">
        <ele>2268.800048828125</ele>
        <time>2021-07-22T09:27:46.000Z</time>
      </trkpt>
      <trkpt lat="43.01711118780076503753662109375" lon="-4.74667637608945369720458984375">
        <ele>2270</ele>
        <time>2021-07-22T09:27:48.000Z</time>
      </trkpt>
      <trkpt lat="43.01710481755435466766357421875" lon="-4.74669699557125568389892578125">
        <ele>2270.39990234375</ele>
        <time>2021-07-22T09:27:50.000Z</time>
      </trkpt>
      <trkpt lat="43.01710196770727634429931640625" lon="-4.74670537747442722320556640625">
        <ele>2270.800048828125</ele>
        <time>2021-07-22T09:27:51.000Z</time>
      </trkpt>
      <trkpt lat="43.0170926637947559356689453125" lon="-4.74671325646340847015380859375">
        <ele>2271</ele>
        <time>2021-07-22T09:27:53.000Z</time>
      </trkpt>
      <trkpt lat="43.017091490328311920166015625" lon="-4.74672767333686351776123046875">
        <ele>2271.60009765625</ele>
        <time>2021-07-22T09:27:55.000Z</time>
      </trkpt>
      <trkpt lat="43.01708436571061611175537109375" lon="-4.746710322797298431396484375">
        <ele>2272.199951171875</ele>
        <time>2021-07-22T09:27:58.000Z</time>
      </trkpt>
      <trkpt lat="43.01707045175135135650634765625" lon="-4.7467000968754291534423828125">
        <ele>2271.800048828125</ele>
        <time>2021-07-22T09:28:02.000Z</time>
      </trkpt>
      <trkpt lat="43.017084784805774688720703125" lon="-4.7467034496366977691650390625">
        <ele>2272.39990234375</ele>
        <time>2021-07-22T09:28:10.000Z</time>
      </trkpt>
      <trkpt lat="43.0170893110334873199462890625" lon="-4.7466954030096530914306640625">
        <ele>2272</ele>
        <time>2021-07-22T09:28:13.000Z</time>
      </trkpt>
      <trkpt lat="43.017094843089580535888671875" lon="-4.746696241199970245361328125">
        <ele>2271.199951171875</ele>
        <time>2021-07-22T09:28:16.000Z</time>
      </trkpt>
      <trkpt lat="43.01709853112697601318359375" lon="-4.74670738913118839263916015625">
        <ele>2271</ele>
        <time>2021-07-22T09:28:17.000Z</time>
      </trkpt>
      <trkpt lat="43.01706500351428985595703125" lon="-4.746763296425342559814453125">
        <ele>2271.60009765625</ele>
        <time>2021-07-22T09:28:26.000Z</time>
      </trkpt>
      <trkpt lat="43.0170629918575286865234375" lon="-4.74678634665906429290771484375">
        <ele>2272</ele>
        <time>2021-07-22T09:28:28.000Z</time>
      </trkpt>
      <trkpt lat="43.017053939402103424072265625" lon="-4.7468402422964572906494140625">
        <ele>2272.800048828125</ele>
        <time>2021-07-22T09:28:32.000Z</time>
      </trkpt>
      <trkpt lat="43.0170463956892490386962890625" lon="-4.7468459419906139373779296875">
        <ele>2273.199951171875</ele>
        <time>2021-07-22T09:28:33.000Z</time>
      </trkpt>
      <trkpt lat="43.01704161800444126129150390625" lon="-4.74687586538493633270263671875">
        <ele>2273.800048828125</ele>
        <time>2021-07-22T09:28:37.000Z</time>
      </trkpt>
      <trkpt lat="43.0170430429279804229736328125" lon="-4.74687770940363407135009765625">
        <ele>2274.39990234375</ele>
        <time>2021-07-22T09:28:38.000Z</time>
      </trkpt>
      <trkpt lat="43.0170695297420024871826171875" lon="-4.74691643379628658294677734375">
        <ele>2275.199951171875</ele>
        <time>2021-07-22T09:28:43.000Z</time>
      </trkpt>
      <trkpt lat="43.01708168350160121917724609375" lon="-4.7469140030443668365478515625">
        <ele>2275.60009765625</ele>
        <time>2021-07-22T09:28:45.000Z</time>
      </trkpt>
      <trkpt lat="43.01709526218473911285400390625" lon="-4.746900759637355804443359375">
        <ele>2276</ele>
        <time>2021-07-22T09:28:48.000Z</time>
      </trkpt>
      <trkpt lat="43.017106913030147552490234375" lon="-4.74689447320997714996337890625">
        <ele>2276.60009765625</ele>
        <time>2021-07-22T09:28:51.000Z</time>
      </trkpt>
      <trkpt lat="43.0171121098101139068603515625" lon="-4.7468918748199939727783203125">
        <ele>2277.199951171875</ele>
        <time>2021-07-22T09:28:54.000Z</time>
      </trkpt>
      <trkpt lat="43.01711864769458770751953125" lon="-4.7468999214470386505126953125">
        <ele>2277.800048828125</ele>
        <time>2021-07-22T09:28:56.000Z</time>
      </trkpt>
      <trkpt lat="43.017129711806774139404296875" lon="-4.7469066269695758819580078125">
        <ele>2278</ele>
        <time>2021-07-22T09:28:58.000Z</time>
      </trkpt>
      <trkpt lat="43.0171523429453372955322265625" lon="-4.74691559560596942901611328125">
        <ele>2278.800048828125</ele>
        <time>2021-07-22T09:29:01.000Z</time>
      </trkpt>
      <trkpt lat="43.01715888082981109619140625" lon="-4.74691651761531829833984375">
        <ele>2279.800048828125</ele>
        <time>2021-07-22T09:29:02.000Z</time>
      </trkpt>
      <trkpt lat="43.01716558635234832763671875" lon="-4.74691827781498432159423828125">
        <ele>2281.199951171875</ele>
        <time>2021-07-22T09:29:03.000Z</time>
      </trkpt>
      <trkpt lat="43.017179332673549652099609375" lon="-4.74691794253885746002197265625">
        <ele>2282.800048828125</ele>
        <time>2021-07-22T09:29:05.000Z</time>
      </trkpt>
      <trkpt lat="43.017190396785736083984375" lon="-4.74691651761531829833984375">
        <ele>2284.39990234375</ele>
        <time>2021-07-22T09:29:08.000Z</time>
      </trkpt>
      <trkpt lat="43.01719911396503448486328125" lon="-4.74692598916590213775634765625">
        <ele>2285.800048828125</ele>
        <time>2021-07-22T09:29:10.000Z</time>
      </trkpt>
      <trkpt lat="43.0172029696404933929443359375" lon="-4.74691517651081085205078125">
        <ele>2286.60009765625</ele>
        <time>2021-07-22T09:29:14.000Z</time>
      </trkpt>
      <trkpt lat="43.017182014882564544677734375" lon="-4.746926240622997283935546875">
        <ele>2283.60009765625</ele>
        <time>2021-07-22T09:35:16.000Z</time>
      </trkpt>
      <trkpt lat="43.017186038196086883544921875" lon="-4.74693537689745426177978515625">
        <ele>2283.800048828125</ele>
        <time>2021-07-22T09:35:17.000Z</time>
      </trkpt>
      <trkpt lat="43.01717790775001049041748046875" lon="-4.7469552420079708099365234375">
        <ele>2284</ele>
        <time>2021-07-22T09:35:21.000Z</time>
      </trkpt>
      <trkpt lat="43.017169944941997528076171875" lon="-4.74697393365204334259033203125">
        <ele>2284.800048828125</ele>
        <time>2021-07-22T09:35:25.000Z</time>
      </trkpt>
      <trkpt lat="43.0171711184084415435791015625" lon="-4.74697544239461421966552734375">
        <ele>2285</ele>
        <time>2021-07-22T09:35:27.000Z</time>
      </trkpt>
      <trkpt lat="43.01715795882046222686767578125" lon="-4.74698985926806926727294921875">
        <ele>2284.199951171875</ele>
        <time>2021-07-22T09:35:32.000Z</time>
      </trkpt>
      <trkpt lat="43.01714739762246608734130859375" lon="-4.747003354132175445556640625">
        <ele>2283.800048828125</ele>
        <time>2021-07-22T09:35:34.000Z</time>
      </trkpt>
      <trkpt lat="43.0171426199376583099365234375" lon="-4.7470115683972835540771484375">
        <ele>2283.60009765625</ele>
        <time>2021-07-22T09:35:35.000Z</time>
      </trkpt>
      <trkpt lat="43.01713071763515472412109375" lon="-4.74703696556389331817626953125">
        <ele>2282.39990234375</ele>
        <time>2021-07-22T09:35:37.000Z</time>
      </trkpt>
      <trkpt lat="43.01711437292397022247314453125" lon="-4.747061692178249359130859375">
        <ele>2281.800048828125</ele>
        <time>2021-07-22T09:35:40.000Z</time>
      </trkpt>
      <trkpt lat="43.01711252890527248382568359375" lon="-4.7470632009208202362060546875">
        <ele>2281.800048828125</ele>
        <time>2021-07-22T09:35:41.000Z</time>
      </trkpt>
      <trkpt lat="43.01710330881178379058837890625" lon="-4.7470447607338428497314453125">
        <ele>2281.800048828125</ele>
        <time>2021-07-22T09:35:45.000Z</time>
      </trkpt>
      <trkpt lat="43.0170651711523532867431640625" lon="-4.7470766119658946990966796875">
        <ele>2281.800048828125</ele>
        <time>2021-07-22T09:35:51.000Z</time>
      </trkpt>
      <trkpt lat="43.01705452613532543182373046875" lon="-4.74710829555988311767578125">
        <ele>2281.39990234375</ele>
        <time>2021-07-22T09:35:54.000Z</time>
      </trkpt>
      <trkpt lat="43.01705100573599338531494140625" lon="-4.7471168451011180877685546875">
        <ele>2280.800048828125</ele>
        <time>2021-07-22T09:35:57.000Z</time>
      </trkpt>
      <trkpt lat="43.0170309729874134063720703125" lon="-4.74714643321931362152099609375">
        <ele>2280.199951171875</ele>
        <time>2021-07-22T09:36:01.000Z</time>
      </trkpt>
      <trkpt lat="43.017008006572723388671875" lon="-4.74716001190245151519775390625">
        <ele>2280.39990234375</ele>
        <time>2021-07-22T09:36:04.000Z</time>
      </trkpt>
      <trkpt lat="43.016982860863208770751953125" lon="-4.7472234629094600677490234375">
        <ele>2280.60009765625</ele>
        <time>2021-07-22T09:36:11.000Z</time>
      </trkpt>
      <trkpt lat="43.01695008762180805206298828125" lon="-4.7472631931304931640625">
        <ele>2280.800048828125</ele>
        <time>2021-07-22T09:36:16.000Z</time>
      </trkpt>
      <trkpt lat="43.016935922205448150634765625" lon="-4.74730015732347965240478515625">
        <ele>2281.39990234375</ele>
        <time>2021-07-22T09:36:19.000Z</time>
      </trkpt>
      <trkpt lat="43.01692955195903778076171875" lon="-4.747323878109455108642578125">
        <ele>2282.199951171875</ele>
        <time>2021-07-22T09:36:21.000Z</time>
      </trkpt>
      <trkpt lat="43.01692686975002288818359375" lon="-4.7473262250423431396484375">
        <ele>2282.60009765625</ele>
        <time>2021-07-22T09:36:22.000Z</time>
      </trkpt>
      <trkpt lat="43.01691940985620021820068359375" lon="-4.747329913079738616943359375">
        <ele>2283</ele>
        <time>2021-07-22T09:36:26.000Z</time>
      </trkpt>
      <trkpt lat="43.01691622473299503326416015625" lon="-4.74732287228107452392578125">
        <ele>2284</ele>
        <time>2021-07-22T09:36:27.000Z</time>
      </trkpt>
      <trkpt lat="43.01690348424017429351806640625" lon="-4.7473341040313243865966796875">
        <ele>2285</ele>
        <time>2021-07-22T09:36:30.000Z</time>
      </trkpt>
      <trkpt lat="43.016884960234165191650390625" lon="-4.74734835326671600341796875">
        <ele>2285.60009765625</ele>
        <time>2021-07-22T09:36:32.000Z</time>
      </trkpt>
      <trkpt lat="43.016874901950359344482421875" lon="-4.747381545603275299072265625">
        <ele>2286.199951171875</ele>
        <time>2021-07-22T09:36:35.000Z</time>
      </trkpt>
      <trkpt lat="43.01686911843717098236083984375" lon="-4.7473843954503536224365234375">
        <ele>2286.199951171875</ele>
        <time>2021-07-22T09:36:36.000Z</time>
      </trkpt>
      <trkpt lat="43.01687649451196193695068359375" lon="-4.747403003275394439697265625">
        <ele>2286.800048828125</ele>
        <time>2021-07-22T09:36:40.000Z</time>
      </trkpt>
      <trkpt lat="43.016878925263881683349609375" lon="-4.74740761332213878631591796875">
        <ele>2287.199951171875</ele>
        <time>2021-07-22T09:36:42.000Z</time>
      </trkpt>
      <trkpt lat="43.016878925263881683349609375" lon="-4.74742001853883266448974609375">
        <ele>2287.800048828125</ele>
        <time>2021-07-22T09:36:46.000Z</time>
      </trkpt>
      <trkpt lat="43.016873896121978759765625" lon="-4.7474796138703823089599609375">
        <ele>2288.39990234375</ele>
        <time>2021-07-22T09:36:52.000Z</time>
      </trkpt>
      <trkpt lat="43.0168613232672214508056640625" lon="-4.74750501103699207305908203125">
        <ele>2289.199951171875</ele>
        <time>2021-07-22T09:36:56.000Z</time>
      </trkpt>
      <trkpt lat="43.01685989834368228912353515625" lon="-4.74751741625368595123291015625">
        <ele>2289.60009765625</ele>
        <time>2021-07-22T09:36:57.000Z</time>
      </trkpt>
      <trkpt lat="43.0168576352298259735107421875" lon="-4.747528731822967529296875">
        <ele>2290</ele>
        <time>2021-07-22T09:36:58.000Z</time>
      </trkpt>
      <trkpt lat="43.01683223806321620941162109375" lon="-4.7475449927151203155517578125">
        <ele>2290.39990234375</ele>
        <time>2021-07-22T09:37:02.000Z</time>
      </trkpt>
      <trkpt lat="43.01682184450328350067138671875" lon="-4.7475550509989261627197265625">
        <ele>2290.800048828125</ele>
        <time>2021-07-22T09:37:04.000Z</time>
      </trkpt>
      <trkpt lat="43.01681614480912685394287109375" lon="-4.747574329376220703125">
        <ele>2291.39990234375</ele>
        <time>2021-07-22T09:37:06.000Z</time>
      </trkpt>
      <trkpt lat="43.01680172793567180633544921875" lon="-4.74759821780025959014892578125">
        <ele>2291.60009765625</ele>
        <time>2021-07-22T09:37:08.000Z</time>
      </trkpt>
      <trkpt lat="43.016795106232166290283203125" lon="-4.74761615507304668426513671875">
        <ele>2291.60009765625</ele>
        <time>2021-07-22T09:37:09.000Z</time>
      </trkpt>
      <trkpt lat="43.01678915508091449737548828125" lon="-4.74765680730342864990234375">
        <ele>2291</ele>
        <time>2021-07-22T09:37:12.000Z</time>
      </trkpt>
      <trkpt lat="43.016785718500614166259765625" lon="-4.74766460247337818145751953125">
        <ele>2291</ele>
        <time>2021-07-22T09:37:14.000Z</time>
      </trkpt>
      <trkpt lat="43.01678043790161609649658203125" lon="-4.7476737387478351593017578125">
        <ele>2292</ele>
        <time>2021-07-22T09:37:18.000Z</time>
      </trkpt>
      <trkpt lat="43.01678194664418697357177734375" lon="-4.74767801351845264434814453125">
        <ele>2292.199951171875</ele>
        <time>2021-07-22T09:37:19.000Z</time>
      </trkpt>
      <trkpt lat="43.016774989664554595947265625" lon="-4.7476807795464992523193359375">
        <ele>2293.199951171875</ele>
        <time>2021-07-22T09:37:23.000Z</time>
      </trkpt>
      <trkpt lat="43.01677130162715911865234375" lon="-4.747697375714778900146484375">
        <ele>2293.39990234375</ele>
        <time>2021-07-22T09:37:25.000Z</time>
      </trkpt>
      <trkpt lat="43.01677071489393711090087890625" lon="-4.74777205847203731536865234375">
        <ele>2293.60009765625</ele>
        <time>2021-07-22T09:37:30.000Z</time>
      </trkpt>
      <trkpt lat="43.01676970906555652618408203125" lon="-4.74778144620358943939208984375">
        <ele>2293.800048828125</ele>
        <time>2021-07-22T09:37:31.000Z</time>
      </trkpt>
      <trkpt lat="43.0167731456458568572998046875" lon="-4.7477914206683635711669921875">
        <ele>2294.39990234375</ele>
        <time>2021-07-22T09:37:32.000Z</time>
      </trkpt>
      <trkpt lat="43.01678211428225040435791015625" lon="-4.7477996349334716796875">
        <ele>2295.199951171875</ele>
        <time>2021-07-22T09:37:34.000Z</time>
      </trkpt>
      <trkpt lat="43.0167853832244873046875" lon="-4.74780256859958171844482421875">
        <ele>2295.39990234375</ele>
        <time>2021-07-22T09:37:35.000Z</time>
      </trkpt>
      <trkpt lat="43.01678781397640705108642578125" lon="-4.7478078491985797882080078125">
        <ele>2296.199951171875</ele>
        <time>2021-07-22T09:37:36.000Z</time>
      </trkpt>
      <trkpt lat="43.01679066382348537445068359375" lon="-4.74781262688338756561279296875">
        <ele>2296.60009765625</ele>
        <time>2021-07-22T09:37:37.000Z</time>
      </trkpt>
      <trkpt lat="43.0167935974895954132080078125" lon="-4.7478205896914005279541015625">
        <ele>2298.199951171875</ele>
        <time>2021-07-22T09:37:41.000Z</time>
      </trkpt>
      <trkpt lat="43.0167942680418491363525390625" lon="-4.7478277981281280517578125">
        <ele>2299</ele>
        <time>2021-07-22T09:37:43.000Z</time>
      </trkpt>
      <trkpt lat="43.0167942680418491363525390625" lon="-4.74784313701093196868896484375">
        <ele>2299.199951171875</ele>
        <time>2021-07-22T09:37:45.000Z</time>
      </trkpt>
      <trkpt lat="43.0167892388999462127685546875" lon="-4.7478738985955715179443359375">
        <ele>2301.39990234375</ele>
        <time>2021-07-22T09:37:49.000Z</time>
      </trkpt>
      <trkpt lat="43.01679217256605625152587890625" lon="-4.7478960268199443817138671875">
        <ele>2303.199951171875</ele>
        <time>2021-07-22T09:37:51.000Z</time>
      </trkpt>
      <trkpt lat="43.01679485477507114410400390625" lon="-4.74792502820491790771484375">
        <ele>2303.39990234375</ele>
        <time>2021-07-22T09:37:54.000Z</time>
      </trkpt>
      <trkpt lat="43.01679669879376888275146484375" lon="-4.74792636930942535400390625">
        <ele>2304.39990234375</ele>
        <time>2021-07-22T09:37:55.000Z</time>
      </trkpt>
      <trkpt lat="43.016804158687591552734375" lon="-4.7479305602610111236572265625">
        <ele>2303.60009765625</ele>
        <time>2021-07-22T09:37:58.000Z</time>
      </trkpt>
      <trkpt lat="43.0167992971837520599365234375" lon="-4.74792796187102794647216796875">
        <ele>2303.199951171875</ele>
        <time>2021-07-22T09:38:00.000Z</time>
      </trkpt>
      <trkpt lat="43.016783036291599273681640625" lon="-4.74796283058822154998779296875">
        <ele>2302.800048828125</ele>
        <time>2021-07-22T09:38:05.000Z</time>
      </trkpt>
      <trkpt lat="43.01677255891263484954833984375" lon="-4.74798495881259441375732421875">
        <ele>2304.39990234375</ele>
        <time>2021-07-22T09:38:09.000Z</time>
      </trkpt>
      <trkpt lat="43.01676870323717594146728515625" lon="-4.747984707355499267578125">
        <ele>2304.60009765625</ele>
        <time>2021-07-22T09:38:11.000Z</time>
      </trkpt>
      <trkpt lat="43.01675713621079921722412109375" lon="-4.74800071679055690765380859375">
        <ele>2305.199951171875</ele>
        <time>2021-07-22T09:38:15.000Z</time>
      </trkpt>
      <trkpt lat="43.01675445400178432464599609375" lon="-4.74800507538020610809326171875">
        <ele>2305.800048828125</ele>
        <time>2021-07-22T09:38:16.000Z</time>
      </trkpt>
      <trkpt lat="43.016754873096942901611328125" lon="-4.74801027216017246246337890625">
        <ele>2306.800048828125</ele>
        <time>2021-07-22T09:38:20.000Z</time>
      </trkpt>
      <trkpt lat="43.0167557112872600555419921875" lon="-4.7480180673301219940185546875">
        <ele>2307</ele>
        <time>2021-07-22T09:38:21.000Z</time>
      </trkpt>
      <trkpt lat="43.016754202544689178466796875" lon="-4.74803759716451168060302734375">
        <ele>2308.39990234375</ele>
        <time>2021-07-22T09:38:23.000Z</time>
      </trkpt>
      <trkpt lat="43.016750849783420562744140625" lon="-4.74805251695215702056884765625">
        <ele>2309.39990234375</ele>
        <time>2021-07-22T09:38:25.000Z</time>
      </trkpt>
      <trkpt lat="43.01674674265086650848388671875" lon="-4.74811085499823093414306640625">
        <ele>2308.800048828125</ele>
        <time>2021-07-22T09:38:31.000Z</time>
      </trkpt>
      <trkpt lat="43.01673869602382183074951171875" lon="-4.74814656190574169158935546875">
        <ele>2310.39990234375</ele>
        <time>2021-07-22T09:38:35.000Z</time>
      </trkpt>
      <trkpt lat="43.0167376063764095306396484375" lon="-4.74815662018954753875732421875">
        <ele>2310.60009765625</ele>
        <time>2021-07-22T09:38:36.000Z</time>
      </trkpt>
      <trkpt lat="43.016729392111301422119140625" lon="-4.74819433875381946563720703125">
        <ele>2311.39990234375</ele>
        <time>2021-07-22T09:38:40.000Z</time>
      </trkpt>
      <trkpt lat="43.01672897301614284515380859375" lon="-4.74820355884730815887451171875">
        <ele>2311.800048828125</ele>
        <time>2021-07-22T09:38:41.000Z</time>
      </trkpt>
      <trkpt lat="43.0167288891971111297607421875" lon="-4.74821110256016254425048828125">
        <ele>2312</ele>
        <time>2021-07-22T09:38:42.000Z</time>
      </trkpt>
      <trkpt lat="43.01672570407390594482421875" lon="-4.7482172213494777679443359375">
        <ele>2312.199951171875</ele>
        <time>2021-07-22T09:38:44.000Z</time>
      </trkpt>
      <trkpt lat="43.016717992722988128662109375" lon="-4.74820473231375217437744140625">
        <ele>2313.199951171875</ele>
        <time>2021-07-22T09:38:47.000Z</time>
      </trkpt>
      <trkpt lat="43.016714639961719512939453125" lon="-4.7481991164386272430419921875">
        <ele>2315.39990234375</ele>
        <time>2021-07-22T09:38:49.000Z</time>
      </trkpt>
      <trkpt lat="43.016710616648197174072265625" lon="-4.74819450639188289642333984375">
        <ele>2317</ele>
        <time>2021-07-22T09:38:51.000Z</time>
      </trkpt>
      <trkpt lat="43.0167087726294994354248046875" lon="-4.74820129573345184326171875">
        <ele>2317.60009765625</ele>
        <time>2021-07-22T09:38:54.000Z</time>
      </trkpt>
      <trkpt lat="43.0167008936405181884765625" lon="-4.74820808507502079010009765625">
        <ele>2317.39990234375</ele>
        <time>2021-07-22T09:38:59.000Z</time>
      </trkpt>
      <trkpt lat="43.01669980399310588836669921875" lon="-4.7482113540172576904296875">
        <ele>2317.199951171875</ele>
        <time>2021-07-22T09:39:02.000Z</time>
      </trkpt>
      <trkpt lat="43.0167094431817531585693359375" lon="-4.74820205010473728179931640625">
        <ele>2317.199951171875</ele>
        <time>2021-07-22T09:39:06.000Z</time>
      </trkpt>
      <trkpt lat="43.0167074315249919891357421875" lon="-4.74819383583962917327880859375">
        <ele>2317.199951171875</ele>
        <time>2021-07-22T09:39:12.000Z</time>
      </trkpt>
      <trkpt lat="43.016703240573406219482421875" lon="-4.74819517694413661956787109375">
        <ele>2317.199951171875</ele>
        <time>2021-07-22T09:39:15.000Z</time>
      </trkpt>
      <trkpt lat="43.01671338267624378204345703125" lon="-4.74821143783628940582275390625">
        <ele>2317.60009765625</ele>
        <time>2021-07-22T09:39:19.000Z</time>
      </trkpt>
      <trkpt lat="43.01671589724719524383544921875" lon="-4.74821261130273342132568359375">
        <ele>2317.800048828125</ele>
        <time>2021-07-22T09:39:20.000Z</time>
      </trkpt>
      <trkpt lat="43.0167127959430217742919921875" lon="-4.7482085041701793670654296875">
        <ele>2318</ele>
        <time>2021-07-22T09:39:22.000Z</time>
      </trkpt>
      <trkpt lat="43.01671522669494152069091796875" lon="-4.748206995427608489990234375">
        <ele>2316.60009765625</ele>
        <time>2021-07-22T09:39:25.000Z</time>
      </trkpt>
      <trkpt lat="43.01671740598976612091064453125" lon="-4.74820322357118129730224609375">
        <ele>2316.199951171875</ele>
        <time>2021-07-22T09:39:31.000Z</time>
      </trkpt>
      <trkpt lat="43.016708604991436004638671875" lon="-4.748211018741130828857421875">
        <ele>2318</ele>
        <time>2021-07-22T09:39:34.000Z</time>
      </trkpt>
      <trkpt lat="43.0167035758495330810546875" lon="-4.74821470677852630615234375">
        <ele>2319</ele>
        <time>2021-07-22T09:39:36.000Z</time>
      </trkpt>
      <trkpt lat="43.0167034082114696502685546875" lon="-4.748219065368175506591796875">
        <ele>2319.199951171875</ele>
        <time>2021-07-22T09:39:37.000Z</time>
      </trkpt>
      <trkpt lat="43.01670885644853115081787109375" lon="-4.7482235915958881378173828125">
        <ele>2319.199951171875</ele>
        <time>2021-07-22T09:39:40.000Z</time>
      </trkpt>
      <trkpt lat="43.01671891473233699798583984375" lon="-4.7482044808566570281982421875">
        <ele>2318.39990234375</ele>
        <time>2021-07-22T09:39:43.000Z</time>
      </trkpt>
      <trkpt lat="43.01671497523784637451171875" lon="-4.748223088681697845458984375">
        <ele>2318</ele>
        <time>2021-07-22T09:39:45.000Z</time>
      </trkpt>
      <trkpt lat="43.0167087726294994354248046875" lon="-4.7482373379170894622802734375">
        <ele>2318</ele>
        <time>2021-07-22T09:39:48.000Z</time>
      </trkpt>
      <trkpt lat="43.016707263886928558349609375" lon="-4.7482795827090740203857421875">
        <ele>2316.800048828125</ele>
        <time>2021-07-22T09:39:52.000Z</time>
      </trkpt>
      <trkpt lat="43.01670692861080169677734375" lon="-4.74828151054680347442626953125">
        <ele>2316.39990234375</ele>
        <time>2021-07-22T09:39:53.000Z</time>
      </trkpt>
      <trkpt lat="43.01671120338141918182373046875" lon="-4.7482919879257678985595703125">
        <ele>2319.199951171875</ele>
        <time>2021-07-22T09:39:56.000Z</time>
      </trkpt>
      <trkpt lat="43.01671405322849750518798828125" lon="-4.7482996992766857147216796875">
        <ele>2320.39990234375</ele>
        <time>2021-07-22T09:39:57.000Z</time>
      </trkpt>
      <trkpt lat="43.0167134664952754974365234375" lon="-4.74830430932343006134033203125">
        <ele>2321</ele>
        <time>2021-07-22T09:39:58.000Z</time>
      </trkpt>
      <trkpt lat="43.016722016036510467529296875" lon="-4.74832476116716861724853515625">
        <ele>2321.60009765625</ele>
        <time>2021-07-22T09:40:02.000Z</time>
      </trkpt>
      <trkpt lat="43.0167238600552082061767578125" lon="-4.74833448417484760284423828125">
        <ele>2319.199951171875</ele>
        <time>2021-07-22T09:40:03.000Z</time>
      </trkpt>
      <trkpt lat="43.01672914065420627593994140625" lon="-4.7483499906957149505615234375">
        <ele>2317.800048828125</ele>
        <time>2021-07-22T09:40:05.000Z</time>
      </trkpt>
      <trkpt lat="43.0167161487042903900146484375" lon="-4.7483831830322742462158203125">
        <ele>2317.199951171875</ele>
        <time>2021-07-22T09:40:09.000Z</time>
      </trkpt>
      <trkpt lat="43.01670969463884830474853515625" lon="-4.74839064292609691619873046875">
        <ele>2317.199951171875</ele>
        <time>2021-07-22T09:40:10.000Z</time>
      </trkpt>
      <trkpt lat="43.0167074315249919891357421875" lon="-4.7484130226075649261474609375">
        <ele>2318.199951171875</ele>
        <time>2021-07-22T09:40:13.000Z</time>
      </trkpt>
      <trkpt lat="43.01671271212399005889892578125" lon="-4.74842517636716365814208984375">
        <ele>2318.60009765625</ele>
        <time>2021-07-22T09:40:14.000Z</time>
      </trkpt>
      <trkpt lat="43.01671489141881465911865234375" lon="-4.7484317980706691741943359375">
        <ele>2319.199951171875</ele>
        <time>2021-07-22T09:40:15.000Z</time>
      </trkpt>
      <trkpt lat="43.01673416979610919952392578125" lon="-4.748460464179515838623046875">
        <ele>2319.800048828125</ele>
        <time>2021-07-22T09:40:19.000Z</time>
      </trkpt>
      <trkpt lat="43.01673869602382183074951171875" lon="-4.748465828597545623779296875">
        <ele>2320.60009765625</ele>
        <time>2021-07-22T09:40:20.000Z</time>
      </trkpt>
      <trkpt lat="43.01674657501280307769775390625" lon="-4.74848854355514049530029296875">
        <ele>2321</ele>
        <time>2021-07-22T09:40:24.000Z</time>
      </trkpt>
      <trkpt lat="43.01674506627023220062255859375" lon="-4.7484928183257579803466796875">
        <ele>2321.800048828125</ele>
        <time>2021-07-22T09:40:26.000Z</time>
      </trkpt>
      <trkpt lat="43.0167305655777454376220703125" lon="-4.74850363098084926605224609375">
        <ele>2323</ele>
        <time>2021-07-22T09:40:29.000Z</time>
      </trkpt>
      <trkpt lat="43.01672277040779590606689453125" lon="-4.7485035471618175506591796875">
        <ele>2323.800048828125</ele>
        <time>2021-07-22T09:40:31.000Z</time>
      </trkpt>
      <trkpt lat="43.01671572960913181304931640625" lon="-4.7485112585127353668212890625">
        <ele>2324.39990234375</ele>
        <time>2021-07-22T09:40:33.000Z</time>
      </trkpt>
      <trkpt lat="43.0167030729353427886962890625" lon="-4.74851704202592372894287109375">
        <ele>2325.39990234375</ele>
        <time>2021-07-22T09:40:36.000Z</time>
      </trkpt>
      <trkpt lat="43.01670097745954990386962890625" lon="-4.7485182993113994598388671875">
        <ele>2325.39990234375</ele>
        <time>2021-07-22T09:40:37.000Z</time>
      </trkpt>
      <trkpt lat="43.0166826210916042327880859375" lon="-4.74853481166064739227294921875">
        <ele>2326.60009765625</ele>
        <time>2021-07-22T09:40:42.000Z</time>
      </trkpt>
      <trkpt lat="43.016674406826496124267578125" lon="-4.748571775853633880615234375">
        <ele>2327.60009765625</ele>
        <time>2021-07-22T09:40:47.000Z</time>
      </trkpt>
      <trkpt lat="43.0166725628077983856201171875" lon="-4.74857747554779052734375">
        <ele>2327.60009765625</ele>
        <time>2021-07-22T09:40:48.000Z</time>
      </trkpt>
      <trkpt lat="43.01666443236172199249267578125" lon="-4.748607985675334930419921875">
        <ele>2328.39990234375</ele>
        <time>2021-07-22T09:40:54.000Z</time>
      </trkpt>
      <trkpt lat="43.0166581459343433380126953125" lon="-4.748605974018573760986328125">
        <ele>2327.800048828125</ele>
        <time>2021-07-22T09:40:59.000Z</time>
      </trkpt>
      <trkpt lat="43.016644902527332305908203125" lon="-4.748636148869991302490234375">
        <ele>2328.39990234375</ele>
        <time>2021-07-22T09:41:05.000Z</time>
      </trkpt>
      <trkpt lat="43.01664582453668117523193359375" lon="-4.74863824434578418731689453125">
        <ele>2328.60009765625</ele>
        <time>2021-07-22T09:41:07.000Z</time>
      </trkpt>
      <trkpt lat="43.0166497640311717987060546875" lon="-4.7486376576125621795654296875">
        <ele>2328.800048828125</ele>
        <time>2021-07-22T09:41:12.000Z</time>
      </trkpt>
      <trkpt lat="43.01664297468960285186767578125" lon="-4.74863271228969097137451171875">
        <ele>2329.199951171875</ele>
        <time>2021-07-22T09:41:19.000Z</time>
      </trkpt>
      <trkpt lat="43.01664163358509540557861328125" lon="-4.74863606505095958709716796875">
        <ele>2329.800048828125</ele>
        <time>2021-07-22T09:41:21.000Z</time>
      </trkpt>
      <trkpt lat="43.01665194332599639892578125" lon="-4.7486919723451137542724609375">
        <ele>2330</ele>
        <time>2021-07-22T09:41:25.000Z</time>
      </trkpt>
      <trkpt lat="43.01666309125721454620361328125" lon="-4.74871753714978694915771484375">
        <ele>2330.800048828125</ele>
        <time>2021-07-22T09:41:30.000Z</time>
      </trkpt>
      <trkpt lat="43.01667817868292331695556640625" lon="-4.7487546689808368682861328125">
        <ele>2331.60009765625</ele>
        <time>2021-07-22T09:41:35.000Z</time>
      </trkpt>
      <trkpt lat="43.01667482592165470123291015625" lon="-4.74876145832240581512451171875">
        <ele>2332</ele>
        <time>2021-07-22T09:41:37.000Z</time>
      </trkpt>
      <trkpt lat="43.01667750813066959381103515625" lon="-4.74876883439719676971435546875">
        <ele>2332.199951171875</ele>
        <time>2021-07-22T09:41:39.000Z</time>
      </trkpt>
      <trkpt lat="43.016686141490936279296875" lon="-4.74880336783826351165771484375">
        <ele>2333.39990234375</ele>
        <time>2021-07-22T09:41:43.000Z</time>
      </trkpt>
      <trkpt lat="43.01669728942215442657470703125" lon="-4.74881577305495738983154296875">
        <ele>2334</ele>
        <time>2021-07-22T09:41:45.000Z</time>
      </trkpt>
      <trkpt lat="43.0167171545326709747314453125" lon="-4.74884142167866230010986328125">
        <ele>2334.39990234375</ele>
        <time>2021-07-22T09:41:49.000Z</time>
      </trkpt>
      <trkpt lat="43.01672109402716159820556640625" lon="-4.74884812720119953155517578125">
        <ele>2333.60009765625</ele>
        <time>2021-07-22T09:41:55.000Z</time>
      </trkpt>
      <trkpt lat="43.01672025583684444427490234375" lon="-4.74884770810604095458984375">
        <ele>2333.60009765625</ele>
        <time>2021-07-22T09:41:56.000Z</time>
      </trkpt>
      <trkpt lat="43.01671572960913181304931640625" lon="-4.74884376861155033111572265625">
        <ele>2333.39990234375</ele>
        <time>2021-07-22T09:41:57.000Z</time>
      </trkpt>
      <trkpt lat="43.0167040787637233734130859375" lon="-4.74887528456747531890869140625">
        <ele>2333.60009765625</ele>
        <time>2021-07-22T09:42:01.000Z</time>
      </trkpt>
      <trkpt lat="43.01670533604919910430908203125" lon="-4.748880229890346527099609375">
        <ele>2334.39990234375</ele>
        <time>2021-07-22T09:42:04.000Z</time>
      </trkpt>
      <trkpt lat="43.01671497523784637451171875" lon="-4.7488928027451038360595703125">
        <ele>2335.800048828125</ele>
        <time>2021-07-22T09:42:06.000Z</time>
      </trkpt>
      <trkpt lat="43.0167198367416858673095703125" lon="-4.7488979995250701904296875">
        <ele>2336.60009765625</ele>
        <time>2021-07-22T09:42:07.000Z</time>
      </trkpt>
      <trkpt lat="43.01672494970262050628662109375" lon="-4.74890395067632198333740234375">
        <ele>2337.199951171875</ele>
        <time>2021-07-22T09:42:08.000Z</time>
      </trkpt>
      <trkpt lat="43.01673685200512409210205078125" lon="-4.74891585297882556915283203125">
        <ele>2338</ele>
        <time>2021-07-22T09:42:10.000Z</time>
      </trkpt>
      <trkpt lat="43.01674338988959789276123046875" lon="-4.7489213012158870697021484375">
        <ele>2338.199951171875</ele>
        <time>2021-07-22T09:42:11.000Z</time>
      </trkpt>
      <trkpt lat="43.01675512455403804779052734375" lon="-4.74893127568066120147705078125">
        <ele>2338.39990234375</ele>
        <time>2021-07-22T09:42:13.000Z</time>
      </trkpt>
      <trkpt lat="43.01676752977073192596435546875" lon="-4.7489410825073719024658203125">
        <ele>2337.60009765625</ele>
        <time>2021-07-22T09:42:15.000Z</time>
      </trkpt>
      <trkpt lat="43.0167972855269908905029296875" lon="-4.748970083892345428466796875">
        <ele>2338</ele>
        <time>2021-07-22T09:42:20.000Z</time>
      </trkpt>
      <trkpt lat="43.016799129545688629150390625" lon="-4.74895725958049297332763671875">
        <ele>2338.39990234375</ele>
        <time>2021-07-22T09:42:28.000Z</time>
      </trkpt>
      <trkpt lat="43.0168028175830841064453125" lon="-4.7489236481487751007080078125">
        <ele>2338.60009765625</ele>
        <time>2021-07-22T09:42:37.000Z</time>
      </trkpt>
      <trkpt lat="43.0167920887470245361328125" lon="-4.74893362261354923248291015625">
        <ele>2338.199951171875</ele>
        <time>2021-07-22T09:42:40.000Z</time>
      </trkpt>
      <trkpt lat="43.0167895741760730743408203125" lon="-4.74893814884126186370849609375">
        <ele>2337.800048828125</ele>
        <time>2021-07-22T09:42:43.000Z</time>
      </trkpt>
      <trkpt lat="43.01679736934602260589599609375" lon="-4.748930521309375762939453125">
        <ele>2337.60009765625</ele>
        <time>2021-07-22T09:42:46.000Z</time>
      </trkpt>
      <trkpt lat="43.016799800097942352294921875" lon="-4.74894418381154537200927734375">
        <ele>2337.60009765625</ele>
        <time>2021-07-22T09:42:48.000Z</time>
      </trkpt>
      <trkpt lat="43.0168200843036174774169921875" lon="-4.74893496371805667877197265625">
        <ele>2337.60009765625</ele>
        <time>2021-07-22T09:42:53.000Z</time>
      </trkpt>
      <trkpt lat="43.0168174020946025848388671875" lon="-4.74893362261354923248291015625">
        <ele>2337.39990234375</ele>
        <time>2021-07-22T09:42:54.000Z</time>
      </trkpt>
      <trkpt lat="43.0168147198855876922607421875" lon="-4.74893345497548580169677734375">
        <ele>2337.60009765625</ele>
        <time>2021-07-22T09:42:59.000Z</time>
      </trkpt>
      <trkpt lat="43.01681631244719028472900390625" lon="-4.7489266656339168548583984375">
        <ele>2337.800048828125</ele>
        <time>2021-07-22T09:43:00.000Z</time>
      </trkpt>
      <trkpt lat="43.01680809818208217620849609375" lon="-4.7489229775965213775634765625">
        <ele>2337</ele>
        <time>2021-07-22T09:43:04.000Z</time>
      </trkpt>
      <trkpt lat="43.01680223084986209869384765625" lon="-4.748921133577823638916015625">
        <ele>2336.199951171875</ele>
        <time>2021-07-22T09:43:05.000Z</time>
      </trkpt>
      <trkpt lat="43.01679820753633975982666015625" lon="-4.74892373196780681610107421875">
        <ele>2335.60009765625</ele>
        <time>2021-07-22T09:43:06.000Z</time>
      </trkpt>
      <trkpt lat="43.01679200492799282073974609375" lon="-4.748927168548107147216796875">
        <ele>2335.60009765625</ele>
        <time>2021-07-22T09:43:09.000Z</time>
      </trkpt>
      <trkpt lat="43.01679275929927825927734375" lon="-4.74893244914710521697998046875">
        <ele>2335.800048828125</ele>
        <time>2021-07-22T09:43:12.000Z</time>
      </trkpt>
      <trkpt lat="43.0167894065380096435546875" lon="-4.7489544935524463653564453125">
        <ele>2335.199951171875</ele>
        <time>2021-07-22T09:43:15.000Z</time>
      </trkpt>
      <trkpt lat="43.01679074764251708984375" lon="-4.74895365536212921142578125">
        <ele>2335.800048828125</ele>
        <time>2021-07-22T09:43:26.000Z</time>
      </trkpt>
      <trkpt lat="43.01679569296538829803466796875" lon="-4.7489350475370883941650390625">
        <ele>2335.800048828125</ele>
        <time>2021-07-22T09:43:31.000Z</time>
      </trkpt>
      <trkpt lat="43.0167974531650543212890625" lon="-4.74892691709101200103759765625">
        <ele>2335.60009765625</ele>
        <time>2021-07-22T09:43:35.000Z</time>
      </trkpt>
      <trkpt lat="43.0168108642101287841796875" lon="-4.748934209346771240234375">
        <ele>2335</ele>
        <time>2021-07-22T09:43:41.000Z</time>
      </trkpt>
      <trkpt lat="43.01679820753633975982666015625" lon="-4.74894938059151172637939453125">
        <ele>2335.60009765625</ele>
        <time>2021-07-22T09:43:45.000Z</time>
      </trkpt>
      <trkpt lat="43.0167909152805805206298828125" lon="-4.74895105697214603424072265625">
        <ele>2336</ele>
        <time>2021-07-22T09:43:47.000Z</time>
      </trkpt>
      <trkpt lat="43.016786389052867889404296875" lon="-4.74894963204860687255859375">
        <ele>2335.60009765625</ele>
        <time>2021-07-22T09:44:03.000Z</time>
      </trkpt>
      <trkpt lat="43.01678228192031383514404296875" lon="-4.74900587461888790130615234375">
        <ele>2336.60009765625</ele>
        <time>2021-07-22T09:44:08.000Z</time>
      </trkpt>
      <trkpt lat="43.01678068935871124267578125" lon="-4.74901978857815265655517578125">
        <ele>2336.800048828125</ele>
        <time>2021-07-22T09:44:09.000Z</time>
      </trkpt>
      <trkpt lat="43.0167733132839202880859375" lon="-4.749061278998851776123046875">
        <ele>2337.60009765625</ele>
        <time>2021-07-22T09:44:12.000Z</time>
      </trkpt>
      <trkpt lat="43.016774989664554595947265625" lon="-4.7490765340626239776611328125">
        <ele>2337.800048828125</ele>
        <time>2021-07-22T09:44:13.000Z</time>
      </trkpt>
      <trkpt lat="43.01677943207323551177978515625" lon="-4.74909455515444278717041015625">
        <ele>2338.800048828125</ele>
        <time>2021-07-22T09:44:14.000Z</time>
      </trkpt>
      <trkpt lat="43.0167840421199798583984375" lon="-4.7491130791604518890380859375">
        <ele>2339.800048828125</ele>
        <time>2021-07-22T09:44:15.000Z</time>
      </trkpt>
      <trkpt lat="43.01678563468158245086669921875" lon="-4.7491285018622875213623046875">
        <ele>2340.39990234375</ele>
        <time>2021-07-22T09:44:16.000Z</time>
      </trkpt>
      <trkpt lat="43.01678471267223358154296875" lon="-4.74914283491671085357666015625">
        <ele>2340.800048828125</ele>
        <time>2021-07-22T09:44:17.000Z</time>
      </trkpt>
      <trkpt lat="43.0167852155864238739013671875" lon="-4.7491553239524364471435546875">
        <ele>2341</ele>
        <time>2021-07-22T09:44:18.000Z</time>
      </trkpt>
      <trkpt lat="43.016787059605121612548828125" lon="-4.74917954765260219573974609375">
        <ele>2341.60009765625</ele>
        <time>2021-07-22T09:44:20.000Z</time>
      </trkpt>
      <trkpt lat="43.01678647287189960479736328125" lon="-4.74919279105961322784423828125">
        <ele>2342</ele>
        <time>2021-07-22T09:44:21.000Z</time>
      </trkpt>
      <trkpt lat="43.01678446121513843536376953125" lon="-4.74921894259750843048095703125">
        <ele>2343</ele>
        <time>2021-07-22T09:44:23.000Z</time>
      </trkpt>
      <trkpt lat="43.01678228192031383514404296875" lon="-4.7492287494242191314697265625">
        <ele>2343.199951171875</ele>
        <time>2021-07-22T09:44:24.000Z</time>
      </trkpt>
      <trkpt lat="43.01678127609193325042724609375" lon="-4.74924844689667224884033203125">
        <ele>2344</ele>
        <time>2021-07-22T09:44:26.000Z</time>
      </trkpt>
      <trkpt lat="43.01678312011063098907470703125" lon="-4.749251715838909149169921875">
        <ele>2344.199951171875</ele>
        <time>2021-07-22T09:44:27.000Z</time>
      </trkpt>
      <trkpt lat="43.01678965799510478973388671875" lon="-4.7492574155330657958984375">
        <ele>2344.39990234375</ele>
        <time>2021-07-22T09:44:28.000Z</time>
      </trkpt>
      <trkpt lat="43.016791753470897674560546875" lon="-4.74928214214742183685302734375">
        <ele>2344.60009765625</ele>
        <time>2021-07-22T09:44:31.000Z</time>
      </trkpt>
      <trkpt lat="43.0167932622134685516357421875" lon="-4.7492880932986736297607421875">
        <ele>2345.39990234375</ele>
        <time>2021-07-22T09:44:35.000Z</time>
      </trkpt>
      <trkpt lat="43.01679451949894428253173828125" lon="-4.7492922842502593994140625">
        <ele>2345</ele>
        <time>2021-07-22T09:44:42.000Z</time>
      </trkpt>
      <trkpt lat="43.01679468713700771331787109375" lon="-4.7492921166121959686279296875">
        <ele>2345</ele>
        <time>2021-07-22T09:44:43.000Z</time>
      </trkpt>
      <trkpt lat="43.016793765127658843994140625" lon="-4.7492968104779720306396484375">
        <ele>2345</ele>
        <time>2021-07-22T09:44:52.000Z</time>
      </trkpt>
      <trkpt lat="43.016793765127658843994140625" lon="-4.74929831922054290771484375">
        <ele>2344.60009765625</ele>
        <time>2021-07-22T09:44:57.000Z</time>
      </trkpt>
      <trkpt lat="43.016793429851531982421875" lon="-4.74929773248732089996337890625">
        <ele>2344.60009765625</ele>
        <time>2021-07-22T09:44:59.000Z</time>
      </trkpt>
      <trkpt lat="43.0167652666568756103515625" lon="-4.7492907755076885223388671875">
        <ele>2346.60009765625</ele>
        <time>2021-07-22T09:45:05.000Z</time>
      </trkpt>
      <trkpt lat="43.01675520837306976318359375" lon="-4.74932782351970672607421875">
        <ele>2347.199951171875</ele>
        <time>2021-07-22T09:45:11.000Z</time>
      </trkpt>
      <trkpt lat="43.01675378344953060150146484375" lon="-4.74934182129800319671630859375">
        <ele>2347.39990234375</ele>
        <time>2021-07-22T09:45:14.000Z</time>
      </trkpt>
      <trkpt lat="43.01675386726856231689453125" lon="-4.74934659898281097412109375">
        <ele>2347.60009765625</ele>
        <time>2021-07-22T09:45:15.000Z</time>
      </trkpt>
      <trkpt lat="43.0167518556118011474609375" lon="-4.7493574954569339752197265625">
        <ele>2347.800048828125</ele>
        <time>2021-07-22T09:45:17.000Z</time>
      </trkpt>
      <trkpt lat="43.01675210706889629364013671875" lon="-4.749375768005847930908203125">
        <ele>2348.60009765625</ele>
        <time>2021-07-22T09:45:23.000Z</time>
      </trkpt>
      <trkpt lat="43.0167439766228199005126953125" lon="-4.749379120767116546630859375">
        <ele>2349</ele>
        <time>2021-07-22T09:45:28.000Z</time>
      </trkpt>
      <trkpt lat="43.0167231895029544830322265625" lon="-4.74936428479850292205810546875">
        <ele>2350</ele>
        <time>2021-07-22T09:45:32.000Z</time>
      </trkpt>
      <trkpt lat="43.01671137101948261260986328125" lon="-4.749364368617534637451171875">
        <ele>2351</ele>
        <time>2021-07-22T09:45:36.000Z</time>
      </trkpt>
      <trkpt lat="43.016709275543689727783203125" lon="-4.74936026148498058319091796875">
        <ele>2351.39990234375</ele>
        <time>2021-07-22T09:45:37.000Z</time>
      </trkpt>
      <trkpt lat="43.0166973732411861419677734375" lon="-4.749352969229221343994140625">
        <ele>2352.39990234375</ele>
        <time>2021-07-22T09:45:42.000Z</time>
      </trkpt>
      <trkpt lat="43.0166928470134735107421875" lon="-4.74935858510434627532958984375">
        <ele>2352.39990234375</ele>
        <time>2021-07-22T09:45:43.000Z</time>
      </trkpt>
      <trkpt lat="43.01668521948158740997314453125" lon="-4.74935892038047313690185546875">
        <ele>2352.60009765625</ele>
        <time>2021-07-22T09:45:47.000Z</time>
      </trkpt>
      <trkpt lat="43.01667097024619579315185546875" lon="-4.74937886931002140045166015625">
        <ele>2353.39990234375</ele>
        <time>2021-07-22T09:45:52.000Z</time>
      </trkpt>
      <trkpt lat="43.01666325889527797698974609375" lon="-4.74938540719449520111083984375">
        <ele>2354.60009765625</ele>
        <time>2021-07-22T09:45:54.000Z</time>
      </trkpt>
      <trkpt lat="43.01665588282048702239990234375" lon="-4.74938951432704925537109375">
        <ele>2355.39990234375</ele>
        <time>2021-07-22T09:45:56.000Z</time>
      </trkpt>
      <trkpt lat="43.0166504345834255218505859375" lon="-4.7493940405547618865966796875">
        <ele>2355.800048828125</ele>
        <time>2021-07-22T09:45:57.000Z</time>
      </trkpt>
      <trkpt lat="43.016639538109302520751953125" lon="-4.74941725842654705047607421875">
        <ele>2356.39990234375</ele>
        <time>2021-07-22T09:46:01.000Z</time>
      </trkpt>
      <trkpt lat="43.01662352867424488067626953125" lon="-4.74945229478180408477783203125">
        <ele>2356.60009765625</ele>
        <time>2021-07-22T09:46:06.000Z</time>
      </trkpt>
      <trkpt lat="43.01662243902683258056640625" lon="-4.74945631809532642364501953125">
        <ele>2357</ele>
        <time>2021-07-22T09:46:07.000Z</time>
      </trkpt>
      <trkpt lat="43.0166102014482021331787109375" lon="-4.74946905858814716339111328125">
        <ele>2358</ele>
        <time>2021-07-22T09:46:13.000Z</time>
      </trkpt>
      <trkpt lat="43.01659762859344482421875" lon="-4.7494859062135219573974609375">
        <ele>2358</ele>
        <time>2021-07-22T09:46:15.000Z</time>
      </trkpt>
      <trkpt lat="43.01657692529261112213134765625" lon="-4.749509878456592559814453125">
        <ele>2358.60009765625</ele>
        <time>2021-07-22T09:46:19.000Z</time>
      </trkpt>
      <trkpt lat="43.016568459570407867431640625" lon="-4.74951985292136669158935546875">
        <ele>2359</ele>
        <time>2021-07-22T09:46:20.000Z</time>
      </trkpt>
      <trkpt lat="43.01655228249728679656982421875" lon="-4.74954667501151561737060546875">
        <ele>2359.800048828125</ele>
        <time>2021-07-22T09:46:24.000Z</time>
      </trkpt>
      <trkpt lat="43.01654926501214504241943359375" lon="-4.7495613433420658111572265625">
        <ele>2360.199951171875</ele>
        <time>2021-07-22T09:46:28.000Z</time>
      </trkpt>
      <trkpt lat="43.0165414698421955108642578125" lon="-4.74957726895809173583984375">
        <ele>2360.199951171875</ele>
        <time>2021-07-22T09:46:30.000Z</time>
      </trkpt>
      <trkpt lat="43.0165300704538822174072265625" lon="-4.749591685831546783447265625">
        <ele>2361.199951171875</ele>
        <time>2021-07-22T09:46:32.000Z</time>
      </trkpt>
      <trkpt lat="43.01651959307491779327392578125" lon="-4.74961540661752223968505859375">
        <ele>2362.39990234375</ele>
        <time>2021-07-22T09:46:34.000Z</time>
      </trkpt>
      <trkpt lat="43.0165109597146511077880859375" lon="-4.74963636137545108795166015625">
        <ele>2363.60009765625</ele>
        <time>2021-07-22T09:46:38.000Z</time>
      </trkpt>
      <trkpt lat="43.0165077745914459228515625" lon="-4.749647676944732666015625">
        <ele>2363.60009765625</ele>
        <time>2021-07-22T09:46:39.000Z</time>
      </trkpt>
      <trkpt lat="43.0164972133934497833251953125" lon="-4.74968464113771915435791015625">
        <ele>2364.199951171875</ele>
        <time>2021-07-22T09:46:43.000Z</time>
      </trkpt>
      <trkpt lat="43.01649570465087890625" lon="-4.74969930946826934814453125">
        <ele>2365</ele>
        <time>2021-07-22T09:46:45.000Z</time>
      </trkpt>
      <trkpt lat="43.016498051583766937255859375" lon="-4.74972554482519626617431640625">
        <ele>2365.39990234375</ele>
        <time>2021-07-22T09:46:48.000Z</time>
      </trkpt>
      <trkpt lat="43.01649042405188083648681640625" lon="-4.74975203163921833038330078125">
        <ele>2366.199951171875</ele>
        <time>2021-07-22T09:46:54.000Z</time>
      </trkpt>
      <trkpt lat="43.0164891667664051055908203125" lon="-4.74975563585758209228515625">
        <ele>2366.39990234375</ele>
        <time>2021-07-22T09:46:55.000Z</time>
      </trkpt>
      <trkpt lat="43.01649629138410091400146484375" lon="-4.74975689314305782318115234375">
        <ele>2365.60009765625</ele>
        <time>2021-07-22T09:47:03.000Z</time>
      </trkpt>
      <trkpt lat="43.01649109460413455963134765625" lon="-4.74974566139280796051025390625">
        <ele>2366.199951171875</ele>
        <time>2021-07-22T09:47:07.000Z</time>
      </trkpt>
      <trkpt lat="43.01648690365254878997802734375" lon="-4.74974448792636394500732421875">
        <ele>2366.39990234375</ele>
        <time>2021-07-22T09:47:10.000Z</time>
      </trkpt>
      <trkpt lat="43.01648422144353389739990234375" lon="-4.74974490702152252197265625">
        <ele>2366.39990234375</ele>
        <time>2021-07-22T09:47:11.000Z</time>
      </trkpt>
      <trkpt lat="43.01648153923451900482177734375" lon="-4.74974733777344226837158203125">
        <ele>2366</ele>
        <time>2021-07-22T09:47:14.000Z</time>
      </trkpt>
      <trkpt lat="43.01648187451064586639404296875" lon="-4.74974784068763256072998046875">
        <ele>2365.800048828125</ele>
        <time>2021-07-22T09:47:16.000Z</time>
      </trkpt>
      <trkpt lat="43.01648237742483615875244140625" lon="-4.7497534565627574920654296875">
        <ele>2365.60009765625</ele>
        <time>2021-07-22T09:47:19.000Z</time>
      </trkpt>
      <trkpt lat="43.01648237742483615875244140625" lon="-4.74975370801985263824462890625">
        <ele>2365.60009765625</ele>
        <time>2021-07-22T09:47:20.000Z</time>
      </trkpt>
      <trkpt lat="43.01648237742483615875244140625" lon="-4.7497541271150112152099609375">
        <ele>2365.60009765625</ele>
        <time>2021-07-22T09:47:21.000Z</time>
      </trkpt>
      <trkpt lat="43.01648254506289958953857421875" lon="-4.7497547976672649383544921875">
        <ele>2365.800048828125</ele>
        <time>2021-07-22T09:47:23.000Z</time>
      </trkpt>
      <trkpt lat="43.01648271270096302032470703125" lon="-4.7497554682195186614990234375">
        <ele>2366</ele>
        <time>2021-07-22T09:47:25.000Z</time>
      </trkpt>
      <trkpt lat="43.01648606546223163604736328125" lon="-4.7497514449059963226318359375">
        <ele>2366.39990234375</ele>
        <time>2021-07-22T09:47:28.000Z</time>
      </trkpt>
      <trkpt lat="43.01648807711899280548095703125" lon="-4.749754965305328369140625">
        <ele>2366.800048828125</ele>
        <time>2021-07-22T09:47:32.000Z</time>
      </trkpt>
      <trkpt lat="43.0164888314902782440185546875" lon="-4.749753959476947784423828125">
        <ele>2367.199951171875</ele>
        <time>2021-07-22T09:47:36.000Z</time>
      </trkpt>
      <trkpt lat="43.01648790948092937469482421875" lon="-4.74975387565791606903076171875">
        <ele>2367.39990234375</ele>
        <time>2021-07-22T09:47:41.000Z</time>
      </trkpt>
      <trkpt lat="43.01648623310029506683349609375" lon="-4.74975504912436008453369140625">
        <ele>2367.60009765625</ele>
        <time>2021-07-22T09:47:48.000Z</time>
      </trkpt>
      <trkpt lat="43.01648690365254878997802734375" lon="-4.74975563585758209228515625">
        <ele>2367.199951171875</ele>
        <time>2021-07-22T09:47:49.000Z</time>
      </trkpt>
      <trkpt lat="43.01647969521582126617431640625" lon="-4.74975605495274066925048828125">
        <ele>2366.60009765625</ele>
        <time>2021-07-22T09:47:57.000Z</time>
      </trkpt>
      <trkpt lat="43.0164717324078083038330078125" lon="-4.74976426921784877777099609375">
        <ele>2366.800048828125</ele>
        <time>2021-07-22T09:48:02.000Z</time>
      </trkpt>
      <trkpt lat="43.016462512314319610595703125" lon="-4.74979050457477569580078125">
        <ele>2367.199951171875</ele>
        <time>2021-07-22T09:48:06.000Z</time>
      </trkpt>
      <trkpt lat="43.01646511070430278778076171875" lon="-4.74981271661818027496337890625">
        <ele>2368.199951171875</ele>
        <time>2021-07-22T09:48:10.000Z</time>
      </trkpt>
      <trkpt lat="43.01646946929395198822021484375" lon="-4.74981330335140228271484375">
        <ele>2368.39990234375</ele>
        <time>2021-07-22T09:48:11.000Z</time>
      </trkpt>
      <trkpt lat="43.016473241150379180908203125" lon="-4.7498099505901336669921875">
        <ele>2368.800048828125</ele>
        <time>2021-07-22T09:48:18.000Z</time>
      </trkpt>
      <trkpt lat="43.01646477542817592620849609375" lon="-4.74981489591300487518310546875">
        <ele>2368.800048828125</ele>
        <time>2021-07-22T09:48:21.000Z</time>
      </trkpt>
      <trkpt lat="43.0164388753473758697509765625" lon="-4.74985345266759395599365234375">
        <ele>2368.60009765625</ele>
        <time>2021-07-22T09:48:26.000Z</time>
      </trkpt>
      <trkpt lat="43.0164273083209991455078125" lon="-4.74986418150365352630615234375">
        <ele>2369.39990234375</ele>
        <time>2021-07-22T09:48:28.000Z</time>
      </trkpt>
      <trkpt lat="43.0163976363837718963623046875" lon="-4.74989016540348529815673828125">
        <ele>2369.800048828125</ele>
        <time>2021-07-22T09:48:31.000Z</time>
      </trkpt>
      <trkpt lat="43.0163817107677459716796875" lon="-4.7499091923236846923828125">
        <ele>2371</ele>
        <time>2021-07-22T09:48:34.000Z</time>
      </trkpt>
      <trkpt lat="43.01637425087392330169677734375" lon="-4.7499241121113300323486328125">
        <ele>2371.800048828125</ele>
        <time>2021-07-22T09:48:36.000Z</time>
      </trkpt>
      <trkpt lat="43.0163724906742572784423828125" lon="-4.74992469884455204010009765625">
        <ele>2372.39990234375</ele>
        <time>2021-07-22T09:48:37.000Z</time>
      </trkpt>
      <trkpt lat="43.016369305551052093505859375" lon="-4.749921262264251708984375">
        <ele>2373.199951171875</ele>
        <time>2021-07-22T09:48:41.000Z</time>
      </trkpt>
      <trkpt lat="43.0163682997226715087890625" lon="-4.74992201663553714752197265625">
        <ele>2373.199951171875</ele>
        <time>2021-07-22T09:48:42.000Z</time>
      </trkpt>
      <trkpt lat="43.01637324504554271697998046875" lon="-4.7499519400298595428466796875">
        <ele>2372.800048828125</ele>
        <time>2021-07-22T09:48:48.000Z</time>
      </trkpt>
      <trkpt lat="43.01637542434036731719970703125" lon="-4.74996996112167835235595703125">
        <ele>2373.60009765625</ele>
        <time>2021-07-22T09:48:51.000Z</time>
      </trkpt>
      <trkpt lat="43.01636955700814723968505859375" lon="-4.7499925084412097930908203125">
        <ele>2374.199951171875</ele>
        <time>2021-07-22T09:48:55.000Z</time>
      </trkpt>
      <trkpt lat="43.016368634998798370361328125" lon="-4.75000231526792049407958984375">
        <ele>2374.60009765625</ele>
        <time>2021-07-22T09:48:56.000Z</time>
      </trkpt>
      <trkpt lat="43.0163594149053096771240234375" lon="-4.7500283829867839813232421875">
        <ele>2375.60009765625</ele>
        <time>2021-07-22T09:48:59.000Z</time>
      </trkpt>
      <trkpt lat="43.01635396666824817657470703125" lon="-4.7500357590615749359130859375">
        <ele>2375.800048828125</ele>
        <time>2021-07-22T09:49:00.000Z</time>
      </trkpt>
      <trkpt lat="43.01633954979479312896728515625" lon="-4.7500526905059814453125">
        <ele>2376.800048828125</ele>
        <time>2021-07-22T09:49:03.000Z</time>
      </trkpt>
      <trkpt lat="43.01633586175739765167236328125" lon="-4.75005947984755039215087890625">
        <ele>2377</ele>
        <time>2021-07-22T09:49:04.000Z</time>
      </trkpt>
      <trkpt lat="43.0163295753300189971923828125" lon="-4.7500666044652462005615234375">
        <ele>2377.39990234375</ele>
        <time>2021-07-22T09:49:05.000Z</time>
      </trkpt>
      <trkpt lat="43.01632882095873355865478515625" lon="-4.75007540546357631683349609375">
        <ele>2378.199951171875</ele>
        <time>2021-07-22T09:49:07.000Z</time>
      </trkpt>
      <trkpt lat="43.01631792448461055755615234375" lon="-4.7500883974134922027587890625">
        <ele>2378.60009765625</ele>
        <time>2021-07-22T09:49:09.000Z</time>
      </trkpt>
      <trkpt lat="43.01631398499011993408203125" lon="-4.750097952783107757568359375">
        <ele>2379</ele>
        <time>2021-07-22T09:49:10.000Z</time>
      </trkpt>
      <trkpt lat="43.01630635745823383331298828125" lon="-4.75010298192501068115234375">
        <ele>2379.39990234375</ele>
        <time>2021-07-22T09:49:11.000Z</time>
      </trkpt>
      <trkpt lat="43.0163040943443775177001953125" lon="-4.7501031495630741119384765625">
        <ele>2379.60009765625</ele>
        <time>2021-07-22T09:49:12.000Z</time>
      </trkpt>
      <trkpt lat="43.0163066089153289794921875" lon="-4.75010457448661327362060546875">
        <ele>2379.800048828125</ele>
        <time>2021-07-22T09:49:13.000Z</time>
      </trkpt>
      <trkpt lat="43.01630459725856781005859375" lon="-4.7501184046268463134765625">
        <ele>2380.60009765625</ele>
        <time>2021-07-22T09:49:17.000Z</time>
      </trkpt>
      <trkpt lat="43.0163004063069820404052734375" lon="-4.750134162604808807373046875">
        <ele>2380.800048828125</ele>
        <time>2021-07-22T09:49:19.000Z</time>
      </trkpt>
      <trkpt lat="43.01629227586090564727783203125" lon="-4.7501661814749240875244140625">
        <ele>2381.60009765625</ele>
        <time>2021-07-22T09:49:25.000Z</time>
      </trkpt>
      <trkpt lat="43.0162918567657470703125" lon="-4.75016894750297069549560546875">
        <ele>2382.199951171875</ele>
        <time>2021-07-22T09:49:26.000Z</time>
      </trkpt>
      <trkpt lat="43.01627551205456256866455078125" lon="-4.7501785866916179656982421875">
        <ele>2383.199951171875</ele>
        <time>2021-07-22T09:49:30.000Z</time>
      </trkpt>
      <trkpt lat="43.01626780070364475250244140625" lon="-4.75018336437642574310302734375">
        <ele>2383.60009765625</ele>
        <time>2021-07-22T09:49:31.000Z</time>
      </trkpt>
      <trkpt lat="43.01626143045723438262939453125" lon="-4.7501980327069759368896484375">
        <ele>2384.199951171875</ele>
        <time>2021-07-22T09:49:35.000Z</time>
      </trkpt>
      <trkpt lat="43.01625631749629974365234375" lon="-4.75020222365856170654296875">
        <ele>2384.39990234375</ele>
        <time>2021-07-22T09:49:36.000Z</time>
      </trkpt>
      <trkpt lat="43.016247265040874481201171875" lon="-4.75021722726523876190185546875">
        <ele>2384.800048828125</ele>
        <time>2021-07-22T09:49:39.000Z</time>
      </trkpt>
      <trkpt lat="43.016240559518337249755859375" lon="-4.75022024475038051605224609375">
        <ele>2385</ele>
        <time>2021-07-22T09:49:40.000Z</time>
      </trkpt>
      <trkpt lat="43.01623226143419742584228515625" lon="-4.75022996775805950164794921875">
        <ele>2385.60009765625</ele>
        <time>2021-07-22T09:49:42.000Z</time>
      </trkpt>
      <trkpt lat="43.016219437122344970703125" lon="-4.75023575127124786376953125">
        <ele>2386.39990234375</ele>
        <time>2021-07-22T09:49:44.000Z</time>
      </trkpt>
      <trkpt lat="43.0162075348198413848876953125" lon="-4.7502449713647365570068359375">
        <ele>2386.60009765625</ele>
        <time>2021-07-22T09:49:46.000Z</time>
      </trkpt>
      <trkpt lat="43.01620175130665302276611328125" lon="-4.75025008432567119598388671875">
        <ele>2387</ele>
        <time>2021-07-22T09:49:48.000Z</time>
      </trkpt>
      <trkpt lat="43.01619973964989185333251953125" lon="-4.75025075487792491912841796875">
        <ele>2387</ele>
        <time>2021-07-22T09:49:49.000Z</time>
      </trkpt>
      <trkpt lat="43.0161966383457183837890625" lon="-4.75024539045989513397216796875">
        <ele>2387.60009765625</ele>
        <time>2021-07-22T09:49:52.000Z</time>
      </trkpt>
      <trkpt lat="43.01619705744087696075439453125" lon="-4.75025863386690616607666015625">
        <ele>2388</ele>
        <time>2021-07-22T09:49:55.000Z</time>
      </trkpt>
      <trkpt lat="43.01620476879179477691650390625" lon="-4.750259220600128173828125">
        <ele>2388</ele>
        <time>2021-07-22T09:50:03.000Z</time>
      </trkpt>
      <trkpt lat="43.01620476879179477691650390625" lon="-4.7502590529620647430419921875">
        <ele>2387.800048828125</ele>
        <time>2021-07-22T09:50:04.000Z</time>
      </trkpt>
      <trkpt lat="43.01620527170598506927490234375" lon="-4.75025963969528675079345703125">
        <ele>2387.60009765625</ele>
        <time>2021-07-22T09:50:09.000Z</time>
      </trkpt>
      <trkpt lat="43.01620476879179477691650390625" lon="-4.7502600587904453277587890625">
        <ele>2387.60009765625</ele>
        <time>2021-07-22T09:50:14.000Z</time>
      </trkpt>
      <trkpt lat="43.0162048526108264923095703125" lon="-4.750260226428508758544921875">
        <ele>2387.39990234375</ele>
        <time>2021-07-22T09:50:15.000Z</time>
      </trkpt>
      <trkpt lat="43.01620258949697017669677734375" lon="-4.7502587176859378814697265625">
        <ele>2387.39990234375</ele>
        <time>2021-07-22T09:50:18.000Z</time>
      </trkpt>
      <trkpt lat="43.01620258949697017669677734375" lon="-4.7502577118575572967529296875">
        <ele>2387.39990234375</ele>
        <time>2021-07-22T09:50:22.000Z</time>
      </trkpt>
      <trkpt lat="43.016201667487621307373046875" lon="-4.75025855004787445068359375">
        <ele>2387.39990234375</ele>
        <time>2021-07-22T09:50:25.000Z</time>
      </trkpt>
      <trkpt lat="43.01620141603052616119384765625" lon="-4.75025863386690616607666015625">
        <ele>2387.60009765625</ele>
        <time>2021-07-22T09:50:27.000Z</time>
      </trkpt>
      <trkpt lat="43.0162025056779384613037109375" lon="-4.7502600587904453277587890625">
        <ele>2387.60009765625</ele>
        <time>2021-07-22T09:50:31.000Z</time>
      </trkpt>
      <trkpt lat="43.0162031762301921844482421875" lon="-4.75025712512433528900146484375">
        <ele>2387.199951171875</ele>
        <time>2021-07-22T09:50:34.000Z</time>
      </trkpt>
      <trkpt lat="43.01620359532535076141357421875" lon="-4.7502593882381916046142578125">
        <ele>2387.39990234375</ele>
        <time>2021-07-22T09:50:37.000Z</time>
      </trkpt>
      <trkpt lat="43.01619655452668666839599609375" lon="-4.75025930441915988922119140625">
        <ele>2387.60009765625</ele>
        <time>2021-07-22T09:50:42.000Z</time>
      </trkpt>
      <trkpt lat="43.0161958001554012298583984375" lon="-4.75026014260947704315185546875">
        <ele>2387.60009765625</ele>
        <time>2021-07-22T09:50:48.000Z</time>
      </trkpt>
      <trkpt lat="43.0161966383457183837890625" lon="-4.75025796331465244293212890625">
        <ele>2387.60009765625</ele>
        <time>2021-07-22T09:50:53.000Z</time>
      </trkpt>
      <trkpt lat="43.016195632517337799072265625" lon="-4.75025855004787445068359375">
        <ele>2387.800048828125</ele>
        <time>2021-07-22T09:50:58.000Z</time>
      </trkpt>
      <trkpt lat="43.0161971412599086761474609375" lon="-4.75025578401982784271240234375">
        <ele>2388</ele>
        <time>2021-07-22T09:51:01.000Z</time>
      </trkpt>
      <trkpt lat="43.0161968059837818145751953125" lon="-4.750256873667240142822265625">
        <ele>2387.800048828125</ele>
        <time>2021-07-22T09:51:10.000Z</time>
      </trkpt>
      <trkpt lat="43.01619990728795528411865234375" lon="-4.750259555876255035400390625">
        <ele>2388.60009765625</ele>
        <time>2021-07-22T09:51:18.000Z</time>
      </trkpt>
      <trkpt lat="43.01619236357510089874267578125" lon="-4.75025846622884273529052734375">
        <ele>2388.800048828125</ele>
        <time>2021-07-22T09:51:31.000Z</time>
      </trkpt>
      <trkpt lat="43.01619370467960834503173828125" lon="-4.75025880150496959686279296875">
        <ele>2388.800048828125</ele>
        <time>2021-07-22T09:51:34.000Z</time>
      </trkpt>
      <trkpt lat="43.0161952972412109375" lon="-4.750268273055553436279296875">
        <ele>2388.199951171875</ele>
        <time>2021-07-22T09:51:46.000Z</time>
      </trkpt>
      <trkpt lat="43.0161951296031475067138671875" lon="-4.75026793777942657470703125">
        <ele>2388.199951171875</ele>
        <time>2021-07-22T09:51:47.000Z</time>
      </trkpt>
      <trkpt lat="43.0161934532225131988525390625" lon="-4.75026433356106281280517578125">
        <ele>2388.199951171875</ele>
        <time>2021-07-22T09:51:57.000Z</time>
      </trkpt>
      <trkpt lat="43.01619320176541805267333984375" lon="-4.750264249742031097412109375">
        <ele>2387.199951171875</ele>
        <time>2021-07-22T09:51:58.000Z</time>
      </trkpt>
      <trkpt lat="43.01618255674839019775390625" lon="-4.75027254782617092132568359375">
        <ele>2388</ele>
        <time>2021-07-22T09:52:06.000Z</time>
      </trkpt>
      <trkpt lat="43.01617719233036041259765625" lon="-4.75028713233768939971923828125">
        <ele>2388</ele>
        <time>2021-07-22T09:52:08.000Z</time>
      </trkpt>
      <trkpt lat="43.01616847515106201171875" lon="-4.7502929158508777618408203125">
        <ele>2388</ele>
        <time>2021-07-22T09:52:10.000Z</time>
      </trkpt>
      <trkpt lat="43.01615062169730663299560546875" lon="-4.7503110207617282867431640625">
        <ele>2388</ele>
        <time>2021-07-22T09:52:14.000Z</time>
      </trkpt>
      <trkpt lat="43.0161555670201778411865234375" lon="-4.750318564474582672119140625">
        <ele>2388</ele>
        <time>2021-07-22T09:52:19.000Z</time>
      </trkpt>
      <trkpt lat="43.01614659838378429412841796875" lon="-4.75031160749495029449462890625">
        <ele>2388</ele>
        <time>2021-07-22T09:52:25.000Z</time>
      </trkpt>
      <trkpt lat="43.01614634692668914794921875" lon="-4.7503115236759185791015625">
        <ele>2388</ele>
        <time>2021-07-22T09:52:27.000Z</time>
      </trkpt>
      <trkpt lat="43.0161468498408794403076171875" lon="-4.75030875764787197113037109375">
        <ele>2388</ele>
        <time>2021-07-22T09:52:37.000Z</time>
      </trkpt>
      <trkpt lat="43.01614525727927684783935546875" lon="-4.75030892528593540191650390625">
        <ele>2388</ele>
        <time>2021-07-22T09:52:46.000Z</time>
      </trkpt>
      <trkpt lat="43.01614441908895969390869140625" lon="-4.75031043402850627899169921875">
        <ele>2388</ele>
        <time>2021-07-22T09:52:52.000Z</time>
      </trkpt>
      <trkpt lat="43.016146011650562286376953125" lon="-4.750309176743030548095703125">
        <ele>2388</ele>
        <time>2021-07-22T09:52:56.000Z</time>
      </trkpt>
      <trkpt lat="43.016144670546054840087890625" lon="-4.75030859000980854034423828125">
        <ele>2391</ele>
        <time>2021-07-22T09:52:59.000Z</time>
      </trkpt>
      <trkpt lat="43.01614341326057910919189453125" lon="-4.75030909292399883270263671875">
        <ele>2391</ele>
        <time>2021-07-22T09:53:01.000Z</time>
      </trkpt>
      <trkpt lat="43.01614324562251567840576171875" lon="-4.7503116913139820098876953125">
        <ele>2390.60009765625</ele>
        <time>2021-07-22T09:53:08.000Z</time>
      </trkpt>
      <trkpt lat="43.01614207215607166290283203125" lon="-4.750310517847537994384765625">
        <ele>2390.60009765625</ele>
        <time>2021-07-22T09:53:11.000Z</time>
      </trkpt>
      <trkpt lat="43.01613905467092990875244140625" lon="-4.75031009875237941741943359375">
        <ele>2390.39990234375</ele>
        <time>2021-07-22T09:53:22.000Z</time>
      </trkpt>
      <trkpt lat="43.01613938994705677032470703125" lon="-4.75030993111431598663330078125">
        <ele>2390.39990234375</ele>
        <time>2021-07-22T09:53:23.000Z</time>
      </trkpt>
      <trkpt lat="43.01613838411867618560791015625" lon="-4.7503137029707431793212890625">
        <ele>2390</ele>
        <time>2021-07-22T09:53:29.000Z</time>
      </trkpt>
      <trkpt lat="43.01613628864288330078125" lon="-4.7503301315009593963623046875">
        <ele>2390</ele>
        <time>2021-07-22T09:53:31.000Z</time>
      </trkpt>
      <trkpt lat="43.01613972522318363189697265625" lon="-4.7503073327243328094482421875">
        <ele>2389.800048828125</ele>
        <time>2021-07-22T09:53:38.000Z</time>
      </trkpt>
      <trkpt lat="43.0161451734602451324462890625" lon="-4.75031395442783832550048828125">
        <ele>2389.60009765625</ele>
        <time>2021-07-22T09:53:45.000Z</time>
      </trkpt>
      <trkpt lat="43.01614098250865936279296875" lon="-4.750320911407470703125">
        <ele>2389.60009765625</ele>
        <time>2021-07-22T09:53:48.000Z</time>
      </trkpt>
      <trkpt lat="43.01613536663353443145751953125" lon="-4.75032828748226165771484375">
        <ele>2390</ele>
        <time>2021-07-22T09:53:51.000Z</time>
      </trkpt>
      <trkpt lat="43.0161304213106632232666015625" lon="-4.75033021531999111175537109375">
        <ele>2390.199951171875</ele>
        <time>2021-07-22T09:53:55.000Z</time>
      </trkpt>
      <trkpt lat="43.01612229086458683013916015625" lon="-4.7503264434635639190673828125">
        <ele>2390</ele>
        <time>2021-07-22T09:53:59.000Z</time>
      </trkpt>
      <trkpt lat="43.01611977629363536834716796875" lon="-4.75031898356974124908447265625">
        <ele>2389.60009765625</ele>
        <time>2021-07-22T09:54:03.000Z</time>
      </trkpt>
      <trkpt lat="43.0161237157881259918212890625" lon="-4.75030322559177875518798828125">
        <ele>2389.39990234375</ele>
        <time>2021-07-22T09:54:08.000Z</time>
      </trkpt>
      <trkpt lat="43.01611692644655704498291015625" lon="-4.750305153429508209228515625">
        <ele>2389.60009765625</ele>
        <time>2021-07-22T09:54:14.000Z</time>
      </trkpt>
      <trkpt lat="43.016119189560413360595703125" lon="-4.75031889975070953369140625">
        <ele>2389.800048828125</ele>
        <time>2021-07-22T09:54:17.000Z</time>
      </trkpt>
      <trkpt lat="43.01612765528261661529541015625" lon="-4.75031219422817230224609375">
        <ele>2391</ele>
        <time>2021-07-22T09:54:23.000Z</time>
      </trkpt>
      <trkpt lat="43.01613888703286647796630859375" lon="-4.75032267160713672637939453125">
        <ele>2391</ele>
        <time>2021-07-22T09:54:27.000Z</time>
      </trkpt>
      <trkpt lat="43.01615037024021148681640625" lon="-4.75029819644987583160400390625">
        <ele>2391.199951171875</ele>
        <time>2021-07-22T09:54:32.000Z</time>
      </trkpt>
      <trkpt lat="43.01615037024021148681640625" lon="-4.75029853172600269317626953125">
        <ele>2391.199951171875</ele>
        <time>2021-07-22T09:54:33.000Z</time>
      </trkpt>
      <trkpt lat="43.01615766249597072601318359375" lon="-4.75030758418142795562744140625">
        <ele>2392.199951171875</ele>
        <time>2021-07-22T09:54:37.000Z</time>
      </trkpt>
      <trkpt lat="43.0161565728485584259033203125" lon="-4.75031361915171146392822265625">
        <ele>2392</ele>
        <time>2021-07-22T09:54:42.000Z</time>
      </trkpt>
      <trkpt lat="43.01615280099213123321533203125" lon="-4.75034245289862155914306640625">
        <ele>2391.199951171875</ele>
        <time>2021-07-22T09:54:48.000Z</time>
      </trkpt>
      <trkpt lat="43.01614458672702312469482421875" lon="-4.75035117007791996002197265625">
        <ele>2391</ele>
        <time>2021-07-22T09:54:49.000Z</time>
      </trkpt>
      <trkpt lat="43.01614006049931049346923828125" lon="-4.7503720410168170928955078125">
        <ele>2390.800048828125</ele>
        <time>2021-07-22T09:54:51.000Z</time>
      </trkpt>
      <trkpt lat="43.01613553427159786224365234375" lon="-4.7503918223083019256591796875">
        <ele>2391.199951171875</ele>
        <time>2021-07-22T09:54:54.000Z</time>
      </trkpt>
      <trkpt lat="43.0161327682435512542724609375" lon="-4.7503898106515407562255859375">
        <ele>2391.39990234375</ele>
        <time>2021-07-22T09:54:55.000Z</time>
      </trkpt>
      <trkpt lat="43.0161307565867900848388671875" lon="-4.75038603879511356353759765625">
        <ele>2391.39990234375</ele>
        <time>2021-07-22T09:54:58.000Z</time>
      </trkpt>
      <trkpt lat="43.0161404795944690704345703125" lon="-4.7504107654094696044921875">
        <ele>2391.199951171875</ele>
        <time>2021-07-22T09:55:04.000Z</time>
      </trkpt>
      <trkpt lat="43.0161029286682605743408203125" lon="-4.7504602186381816864013671875">
        <ele>2391.800048828125</ele>
        <time>2021-07-22T09:55:10.000Z</time>
      </trkpt>
      <trkpt lat="43.0160905234515666961669921875" lon="-4.75047790445387363433837890625">
        <ele>2392</ele>
        <time>2021-07-22T09:55:12.000Z</time>
      </trkpt>
      <trkpt lat="43.0160851590335369110107421875" lon="-4.75048611871898174285888671875">
        <ele>2392.199951171875</ele>
        <time>2021-07-22T09:55:13.000Z</time>
      </trkpt>
      <trkpt lat="43.01607652567327022552490234375" lon="-4.75050539709627628326416015625">
        <ele>2392.800048828125</ele>
        <time>2021-07-22T09:55:15.000Z</time>
      </trkpt>
      <trkpt lat="43.01606856286525726318359375" lon="-4.7505316324532032012939453125">
        <ele>2393.199951171875</ele>
        <time>2021-07-22T09:55:17.000Z</time>
      </trkpt>
      <trkpt lat="43.0160673893988132476806640625" lon="-4.75056038238108158111572265625">
        <ele>2394.199951171875</ele>
        <time>2021-07-22T09:55:20.000Z</time>
      </trkpt>
      <trkpt lat="43.0160657130181789398193359375" lon="-4.7505688481032848358154296875">
        <ele>2394.60009765625</ele>
        <time>2021-07-22T09:55:21.000Z</time>
      </trkpt>
      <trkpt lat="43.0160637013614177703857421875" lon="-4.750574715435504913330078125">
        <ele>2395.39990234375</ele>
        <time>2021-07-22T09:55:22.000Z</time>
      </trkpt>
      <trkpt lat="43.01606344990432262420654296875" lon="-4.7505896352231502532958984375">
        <ele>2396</ele>
        <time>2021-07-22T09:55:23.000Z</time>
      </trkpt>
      <trkpt lat="43.01606629975140094757080078125" lon="-4.75059382617473602294921875">
        <ele>2396.60009765625</ele>
        <time>2021-07-22T09:55:24.000Z</time>
      </trkpt>
      <trkpt lat="43.016072250902652740478515625" lon="-4.7505909763276576995849609375">
        <ele>2397.60009765625</ele>
        <time>2021-07-22T09:55:27.000Z</time>
      </trkpt>
      <trkpt lat="43.0160724185407161712646484375" lon="-4.75059122778475284576416015625">
        <ele>2398.199951171875</ele>
        <time>2021-07-22T09:55:28.000Z</time>
      </trkpt>
      <trkpt lat="43.01606856286525726318359375" lon="-4.75060698576271533966064453125">
        <ele>2398.60009765625</ele>
        <time>2021-07-22T09:55:31.000Z</time>
      </trkpt>
      <trkpt lat="43.0160516314208507537841796875" lon="-4.750623665750026702880859375">
        <ele>2398.39990234375</ele>
        <time>2021-07-22T09:55:34.000Z</time>
      </trkpt>
      <trkpt lat="43.0160308443009853363037109375" lon="-4.75063296966254711151123046875">
        <ele>2397.60009765625</ele>
        <time>2021-07-22T09:55:40.000Z</time>
      </trkpt>
      <trkpt lat="43.0160073749721050262451171875" lon="-4.75066062994301319122314453125">
        <ele>2398</ele>
        <time>2021-07-22T09:55:46.000Z</time>
      </trkpt>
      <trkpt lat="43.01600360311567783355712890625" lon="-4.75066892802715301513671875">
        <ele>2398.199951171875</ele>
        <time>2021-07-22T09:55:47.000Z</time>
      </trkpt>
      <trkpt lat="43.015983067452907562255859375" lon="-4.7506908886134624481201171875">
        <ele>2398.199951171875</ele>
        <time>2021-07-22T09:55:50.000Z</time>
      </trkpt>
      <trkpt lat="43.01597024314105510711669921875" lon="-4.75068963132798671722412109375">
        <ele>2398</ele>
        <time>2021-07-22T09:55:52.000Z</time>
      </trkpt>
      <trkpt lat="43.0159611068665981292724609375" lon="-4.75069382227957248687744140625">
        <ele>2398</ele>
        <time>2021-07-22T09:55:53.000Z</time>
      </trkpt>
      <trkpt lat="43.01593470387160778045654296875" lon="-4.75074402987957000732421875">
        <ele>2398.800048828125</ele>
        <time>2021-07-22T09:55:59.000Z</time>
      </trkpt>
      <trkpt lat="43.0159218795597553253173828125" lon="-4.75075769238173961639404296875">
        <ele>2399.60009765625</ele>
        <time>2021-07-22T09:56:02.000Z</time>
      </trkpt>
      <trkpt lat="43.01591056399047374725341796875" lon="-4.750762470066547393798828125">
        <ele>2400.39990234375</ele>
        <time>2021-07-22T09:56:04.000Z</time>
      </trkpt>
      <trkpt lat="43.01590268500149250030517578125" lon="-4.7507596202194690704345703125">
        <ele>2400.60009765625</ele>
        <time>2021-07-22T09:56:05.000Z</time>
      </trkpt>
      <trkpt lat="43.015892207622528076171875" lon="-4.750753082334995269775390625">
        <ele>2401</ele>
        <time>2021-07-22T09:56:07.000Z</time>
      </trkpt>
      <trkpt lat="43.0158836580812931060791015625" lon="-4.75075098685920238494873046875">
        <ele>2401.199951171875</ele>
        <time>2021-07-22T09:56:08.000Z</time>
      </trkpt>
      <trkpt lat="43.01582389511168003082275390625" lon="-4.75074377842247486114501953125">
        <ele>2401.60009765625</ele>
        <time>2021-07-22T09:56:13.000Z</time>
      </trkpt>
      <trkpt lat="43.01581148989498615264892578125" lon="-4.750747047364711761474609375">
        <ele>2401.60009765625</ele>
        <time>2021-07-22T09:56:14.000Z</time>
      </trkpt>
      <trkpt lat="43.01578651182353496551513671875" lon="-4.75076070986688137054443359375">
        <ele>2402.800048828125</ele>
        <time>2021-07-22T09:56:16.000Z</time>
      </trkpt>
      <trkpt lat="43.01577578298747539520263671875" lon="-4.75076925940811634063720703125">
        <ele>2403</ele>
        <time>2021-07-22T09:56:17.000Z</time>
      </trkpt>
      <trkpt lat="43.01575566641986370086669921875" lon="-4.7507830895483493804931640625">
        <ele>2403.39990234375</ele>
        <time>2021-07-22T09:56:20.000Z</time>
      </trkpt>
      <trkpt lat="43.01575181074440479278564453125" lon="-4.7507824189960956573486328125">
        <ele>2403.800048828125</ele>
        <time>2021-07-22T09:56:21.000Z</time>
      </trkpt>
      <trkpt lat="43.01574896089732646942138671875" lon="-4.750779904425144195556640625">
        <ele>2404.199951171875</ele>
        <time>2021-07-22T09:56:22.000Z</time>
      </trkpt>
      <trkpt lat="43.01573739387094974517822265625" lon="-4.75076615810394287109375">
        <ele>2404.800048828125</ele>
        <time>2021-07-22T09:56:25.000Z</time>
      </trkpt>
      <trkpt lat="43.01573085598647594451904296875" lon="-4.75076640956103801727294921875">
        <ele>2405</ele>
        <time>2021-07-22T09:56:26.000Z</time>
      </trkpt>
      <trkpt lat="43.01569716073572635650634765625" lon="-4.7507924772799015045166015625">
        <ele>2405.60009765625</ele>
        <time>2021-07-22T09:56:30.000Z</time>
      </trkpt>
      <trkpt lat="43.0156858451664447784423828125" lon="-4.75080706179141998291015625">
        <ele>2405.800048828125</ele>
        <time>2021-07-22T09:56:32.000Z</time>
      </trkpt>
      <trkpt lat="43.01568391732871532440185546875" lon="-4.7508142702281475067138671875">
        <ele>2406</ele>
        <time>2021-07-22T09:56:33.000Z</time>
      </trkpt>
      <trkpt lat="43.01568442024290561676025390625" lon="-4.7508176229894161224365234375">
        <ele>2406</ele>
        <time>2021-07-22T09:56:34.000Z</time>
      </trkpt>
      <trkpt lat="43.01568659953773021697998046875" lon="-4.75081787444651126861572265625">
        <ele>2406.199951171875</ele>
        <time>2021-07-22T09:56:35.000Z</time>
      </trkpt>
      <trkpt lat="43.01568634808063507080078125" lon="-4.75081318058073520660400390625">
        <ele>2407</ele>
        <time>2021-07-22T09:56:37.000Z</time>
      </trkpt>
      <trkpt lat="43.01568341441452503204345703125" lon="-4.75080949254333972930908203125">
        <ele>2407.60009765625</ele>
        <time>2021-07-22T09:56:40.000Z</time>
      </trkpt>
      <trkpt lat="43.015656173229217529296875" lon="-4.7508236579596996307373046875">
        <ele>2434</ele>
        <time>2021-07-22T10:03:16.000Z</time>
      </trkpt>
      <trkpt lat="43.015655837953090667724609375" lon="-4.7508323751389980316162109375">
        <ele>2434</ele>
        <time>2021-07-22T10:03:17.000Z</time>
      </trkpt>
      <trkpt lat="43.0156244896352291107177734375" lon="-4.7509034536778926849365234375">
        <ele>2434</ele>
        <time>2021-07-22T10:03:23.000Z</time>
      </trkpt>
      <trkpt lat="43.0155949853360652923583984375" lon="-4.75098350085318088531494140625">
        <ele>2433.800048828125</ele>
        <time>2021-07-22T10:03:27.000Z</time>
      </trkpt>
      <trkpt lat="43.01558484323322772979736328125" lon="-4.75101686082780361175537109375">
        <ele>2433.800048828125</ele>
        <time>2021-07-22T10:03:28.000Z</time>
      </trkpt>
      <trkpt lat="43.0155904591083526611328125" lon="-4.75111140869557857513427734375">
        <ele>2433.39990234375</ele>
        <time>2021-07-22T10:03:32.000Z</time>
      </trkpt>
      <trkpt lat="43.01559917628765106201171875" lon="-4.7511730156838893890380859375">
        <ele>2434.199951171875</ele>
        <time>2021-07-22T10:03:37.000Z</time>
      </trkpt>
      <trkpt lat="43.0156214721500873565673828125" lon="-4.75123495794832706451416015625">
        <ele>2434.199951171875</ele>
        <time>2021-07-22T10:03:44.000Z</time>
      </trkpt>
      <trkpt lat="43.01558953709900379180908203125" lon="-4.75128457881510257720947265625">
        <ele>2432.800048828125</ele>
        <time>2021-07-22T10:03:48.000Z</time>
      </trkpt>
      <trkpt lat="43.01558149047195911407470703125" lon="-4.75130167789757251739501953125">
        <ele>2432.199951171875</ele>
        <time>2021-07-22T10:03:49.000Z</time>
      </trkpt>
      <trkpt lat="43.0155755393207073211669921875" lon="-4.7513242252171039581298828125">
        <ele>2431.800048828125</ele>
        <time>2021-07-22T10:03:50.000Z</time>
      </trkpt>
      <trkpt lat="43.0155634693801403045654296875" lon="-4.7513736784458160400390625">
        <ele>2431.199951171875</ele>
        <time>2021-07-22T10:03:53.000Z</time>
      </trkpt>
      <trkpt lat="43.01556070335209369659423828125" lon="-4.75139454938471317291259765625">
        <ele>2431.199951171875</ele>
        <time>2021-07-22T10:03:54.000Z</time>
      </trkpt>
      <trkpt lat="43.0155584402382373809814453125" lon="-4.75143159739673137664794921875">
        <ele>2431</ele>
        <time>2021-07-22T10:03:56.000Z</time>
      </trkpt>
      <trkpt lat="43.015555925667285919189453125" lon="-4.75148121826350688934326171875">
        <ele>2430.39990234375</ele>
        <time>2021-07-22T10:03:58.000Z</time>
      </trkpt>
      <trkpt lat="43.01554259844124317169189453125" lon="-4.751526229083538055419921875">
        <ele>2429.60009765625</ele>
        <time>2021-07-22T10:04:00.000Z</time>
      </trkpt>
      <trkpt lat="43.0155403353273868560791015625" lon="-4.75154793821275234222412109375">
        <ele>2429.199951171875</ele>
        <time>2021-07-22T10:04:01.000Z</time>
      </trkpt>
      <trkpt lat="43.01553346216678619384765625" lon="-4.75160728208720684051513671875">
        <ele>2428</ele>
        <time>2021-07-22T10:04:04.000Z</time>
      </trkpt>
      <trkpt lat="43.01553539000451564788818359375" lon="-4.75162287242710590362548828125">
        <ele>2428</ele>
        <time>2021-07-22T10:04:05.000Z</time>
      </trkpt>
      <trkpt lat="43.01555483601987361907958984375" lon="-4.75166327320039272308349609375">
        <ele>2427.60009765625</ele>
        <time>2021-07-22T10:04:08.000Z</time>
      </trkpt>
      <trkpt lat="43.0155601166188716888427734375" lon="-4.751684479415416717529296875">
        <ele>2427.39990234375</ele>
        <time>2021-07-22T10:04:10.000Z</time>
      </trkpt>
      <trkpt lat="43.01555684767663478851318359375" lon="-4.75169579498469829559326171875">
        <ele>2427</ele>
        <time>2021-07-22T10:04:16.000Z</time>
      </trkpt>
      <trkpt lat="43.015561290085315704345703125" lon="-4.75174742750823497772216796875">
        <ele>2428</ele>
        <time>2021-07-22T10:04:21.000Z</time>
      </trkpt>
      <trkpt lat="43.01557662896811962127685546875" lon="-4.7517979703843593597412109375">
        <ele>2428</ele>
        <time>2021-07-22T10:04:25.000Z</time>
      </trkpt>
      <trkpt lat="43.01558149047195911407470703125" lon="-4.75181297399103641510009765625">
        <ele>2427.800048828125</ele>
        <time>2021-07-22T10:04:26.000Z</time>
      </trkpt>
      <trkpt lat="43.01558568142354488372802734375" lon="-4.75182705558836460113525390625">
        <ele>2427.800048828125</ele>
        <time>2021-07-22T10:04:27.000Z</time>
      </trkpt>
      <trkpt lat="43.01558769308030605316162109375" lon="-4.7518673725426197052001953125">
        <ele>2428</ele>
        <time>2021-07-22T10:04:30.000Z</time>
      </trkpt>
      <trkpt lat="43.015575706958770751953125" lon="-4.75188799202442169189453125">
        <ele>2426.60009765625</ele>
        <time>2021-07-22T10:04:32.000Z</time>
      </trkpt>
      <trkpt lat="43.01556036807596683502197265625" lon="-4.75192646495997905731201171875">
        <ele>2425.39990234375</ele>
        <time>2021-07-22T10:04:35.000Z</time>
      </trkpt>
      <trkpt lat="43.01555030979216098785400390625" lon="-4.7519692964851856231689453125">
        <ele>2425.60009765625</ele>
        <time>2021-07-22T10:04:38.000Z</time>
      </trkpt>
      <trkpt lat="43.015554249286651611328125" lon="-4.7520849667489528656005859375">
        <ele>2424.199951171875</ele>
        <time>2021-07-22T10:04:46.000Z</time>
      </trkpt>
      <trkpt lat="43.01555299200117588043212890625" lon="-4.75209376774728298187255859375">
        <ele>2424</ele>
        <time>2021-07-22T10:04:47.000Z</time>
      </trkpt>
      <trkpt lat="43.0155490525066852569580078125" lon="-4.75216023623943328857421875">
        <ele>2425.800048828125</ele>
        <time>2021-07-22T10:04:52.000Z</time>
      </trkpt>
      <trkpt lat="43.01555735059082508087158203125" lon="-4.7521821968257427215576171875">
        <ele>2426</ele>
        <time>2021-07-22T10:04:54.000Z</time>
      </trkpt>
      <trkpt lat="43.015565313398838043212890625" lon="-4.75223064422607421875">
        <ele>2427</ele>
        <time>2021-07-22T10:04:58.000Z</time>
      </trkpt>
      <trkpt lat="43.0155798979103565216064453125" lon="-4.75227029062807559967041015625">
        <ele>2426.39990234375</ele>
        <time>2021-07-22T10:05:02.000Z</time>
      </trkpt>
      <trkpt lat="43.01558953709900379180908203125" lon="-4.7523057460784912109375">
        <ele>2426.39990234375</ele>
        <time>2021-07-22T10:05:05.000Z</time>
      </trkpt>
      <trkpt lat="43.01559775136411190032958984375" lon="-4.752367436885833740234375">
        <ele>2425.800048828125</ele>
        <time>2021-07-22T10:05:11.000Z</time>
      </trkpt>
      <trkpt lat="43.0155953206121921539306640625" lon="-4.75247003138065338134765625">
        <ele>2426.60009765625</ele>
        <time>2021-07-22T10:05:18.000Z</time>
      </trkpt>
      <trkpt lat="43.015599511563777923583984375" lon="-4.7525597177445888519287109375">
        <ele>2426.60009765625</ele>
        <time>2021-07-22T10:05:25.000Z</time>
      </trkpt>
      <trkpt lat="43.015599511563777923583984375" lon="-4.75256734527647495269775390625">
        <ele>2426.39990234375</ele>
        <time>2021-07-22T10:05:26.000Z</time>
      </trkpt>
      <trkpt lat="43.01560093648731708526611328125" lon="-4.75260590203106403350830078125">
        <ele>2427</ele>
        <time>2021-07-22T10:05:30.000Z</time>
      </trkpt>
      <trkpt lat="43.01560529507696628570556640625" lon="-4.75265921093523502349853515625">
        <ele>2426.800048828125</ele>
        <time>2021-07-22T10:05:34.000Z</time>
      </trkpt>
      <trkpt lat="43.0156053788959980010986328125" lon="-4.7527491487562656402587890625">
        <ele>2425.60009765625</ele>
        <time>2021-07-22T10:05:39.000Z</time>
      </trkpt>
      <trkpt lat="43.01560185849666595458984375" lon="-4.75276683457195758819580078125">
        <ele>2425</ele>
        <time>2021-07-22T10:05:40.000Z</time>
      </trkpt>
      <trkpt lat="43.01560076884925365447998046875" lon="-4.75278896279633045196533203125">
        <ele>2424.39990234375</ele>
        <time>2021-07-22T10:05:41.000Z</time>
      </trkpt>
      <trkpt lat="43.01559783518314361572265625" lon="-4.75285585038363933563232421875">
        <ele>2423.39990234375</ele>
        <time>2021-07-22T10:05:44.000Z</time>
      </trkpt>
      <trkpt lat="43.0155959911644458770751953125" lon="-4.75288367830216884613037109375">
        <ele>2423.199951171875</ele>
        <time>2021-07-22T10:05:45.000Z</time>
      </trkpt>
      <trkpt lat="43.01560319960117340087890625" lon="-4.75305031053721904754638671875">
        <ele>2423.800048828125</ele>
        <time>2021-07-22T10:05:50.000Z</time>
      </trkpt>
      <trkpt lat="43.0156060494482517242431640625" lon="-4.75307755172252655029296875">
        <ele>2424</ele>
        <time>2021-07-22T10:05:51.000Z</time>
      </trkpt>
      <trkpt lat="43.01561635918915271759033203125" lon="-4.75316396914422512054443359375">
        <ele>2423.39990234375</ele>
        <time>2021-07-22T10:05:54.000Z</time>
      </trkpt>
      <trkpt lat="43.0156117491424083709716796875" lon="-4.7532165236771106719970703125">
        <ele>2422.800048828125</ele>
        <time>2021-07-22T10:05:56.000Z</time>
      </trkpt>
      <trkpt lat="43.0156094022095203399658203125" lon="-4.75327360443770885467529296875">
        <ele>2422.39990234375</ele>
        <time>2021-07-22T10:05:58.000Z</time>
      </trkpt>
      <trkpt lat="43.0156124196946620941162109375" lon="-4.7533285059034824371337890625">
        <ele>2420.39990234375</ele>
        <time>2021-07-22T10:06:00.000Z</time>
      </trkpt>
      <trkpt lat="43.0156174488365650177001953125" lon="-4.7533730976283550262451171875">
        <ele>2419</ele>
        <time>2021-07-22T10:06:02.000Z</time>
      </trkpt>
      <trkpt lat="43.01561635918915271759033203125" lon="-4.7534183599054813385009765625">
        <ele>2418</ele>
        <time>2021-07-22T10:06:05.000Z</time>
      </trkpt>
      <trkpt lat="43.0156013555824756622314453125" lon="-4.75345649756491184234619140625">
        <ele>2417.39990234375</ele>
        <time>2021-07-22T10:06:07.000Z</time>
      </trkpt>
      <trkpt lat="43.01558987237513065338134765625" lon="-4.75347041152417659759521484375">
        <ele>2416.199951171875</ele>
        <time>2021-07-22T10:06:08.000Z</time>
      </trkpt>
      <trkpt lat="43.0155661515891551971435546875" lon="-4.75351097993552684783935546875">
        <ele>2414.800048828125</ele>
        <time>2021-07-22T10:06:10.000Z</time>
      </trkpt>
      <trkpt lat="43.0155604518949985504150390625" lon="-4.75353159941732883453369140625">
        <ele>2414.199951171875</ele>
        <time>2021-07-22T10:06:11.000Z</time>
      </trkpt>
      <trkpt lat="43.01555282436311244964599609375" lon="-4.75355498492717742919921875">
        <ele>2413.60009765625</ele>
        <time>2021-07-22T10:06:12.000Z</time>
      </trkpt>
      <trkpt lat="43.0155584402382373809814453125" lon="-4.7536352835595607757568359375">
        <ele>2412.199951171875</ele>
        <time>2021-07-22T10:06:15.000Z</time>
      </trkpt>
      <trkpt lat="43.01555299200117588043212890625" lon="-4.75366093218326568603515625">
        <ele>2411.800048828125</ele>
        <time>2021-07-22T10:06:16.000Z</time>
      </trkpt>
      <trkpt lat="43.01553212106227874755859375" lon="-4.75371264852583408355712890625">
        <ele>2411.39990234375</ele>
        <time>2021-07-22T10:06:18.000Z</time>
      </trkpt>
      <trkpt lat="43.0155269242823123931884765625" lon="-4.7537425719201564788818359375">
        <ele>2410.39990234375</ele>
        <time>2021-07-22T10:06:19.000Z</time>
      </trkpt>
      <trkpt lat="43.01552114076912403106689453125" lon="-4.75376981310546398162841796875">
        <ele>2409.199951171875</ele>
        <time>2021-07-22T10:06:20.000Z</time>
      </trkpt>
      <trkpt lat="43.01551158539950847625732421875" lon="-4.75379747338593006134033203125">
        <ele>2408.199951171875</ele>
        <time>2021-07-22T10:06:21.000Z</time>
      </trkpt>
      <trkpt lat="43.0154957436025142669677734375" lon="-4.75385296158492565155029296875">
        <ele>2407</ele>
        <time>2021-07-22T10:06:23.000Z</time>
      </trkpt>
      <trkpt lat="43.01548040471971035003662109375" lon="-4.7539004869759082794189453125">
        <ele>2405.800048828125</ele>
        <time>2021-07-22T10:06:25.000Z</time>
      </trkpt>
      <trkpt lat="43.0154538340866565704345703125" lon="-4.753987491130828857421875">
        <ele>2405</ele>
        <time>2021-07-22T10:06:28.000Z</time>
      </trkpt>
      <trkpt lat="43.0154434405267238616943359375" lon="-4.7540433146059513092041015625">
        <ele>2404.39990234375</ele>
        <time>2021-07-22T10:06:30.000Z</time>
      </trkpt>
      <trkpt lat="43.0154206417500972747802734375" lon="-4.754164852201938629150390625">
        <ele>2403.60009765625</ele>
        <time>2021-07-22T10:06:34.000Z</time>
      </trkpt>
      <trkpt lat="43.01540949381887912750244140625" lon="-4.7541925124824047088623046875">
        <ele>2403.39990234375</ele>
        <time>2021-07-22T10:06:35.000Z</time>
      </trkpt>
      <trkpt lat="43.01535283215343952178955078125" lon="-4.7543165646493434906005859375">
        <ele>2402.60009765625</ele>
        <time>2021-07-22T10:06:39.000Z</time>
      </trkpt>
      <trkpt lat="43.015336655080318450927734375" lon="-4.75434732623398303985595703125">
        <ele>2402.39990234375</ele>
        <time>2021-07-22T10:06:40.000Z</time>
      </trkpt>
      <trkpt lat="43.01530656404793262481689453125" lon="-4.7544795088469982147216796875">
        <ele>2401.800048828125</ele>
        <time>2021-07-22T10:06:44.000Z</time>
      </trkpt>
      <trkpt lat="43.01530086435377597808837890625" lon="-4.75450574420392513275146484375">
        <ele>2401.199951171875</ele>
        <time>2021-07-22T10:06:45.000Z</time>
      </trkpt>
      <trkpt lat="43.01528074778616428375244140625" lon="-4.754648990929126739501953125">
        <ele>2400.39990234375</ele>
        <time>2021-07-22T10:06:49.000Z</time>
      </trkpt>
      <trkpt lat="43.01526750437915325164794921875" lon="-4.7547380067408084869384765625">
        <ele>2400</ele>
        <time>2021-07-22T10:06:52.000Z</time>
      </trkpt>
      <trkpt lat="43.01526566036045551300048828125" lon="-4.75480397231876850128173828125">
        <ele>2399.800048828125</ele>
        <time>2021-07-22T10:06:54.000Z</time>
      </trkpt>
      <trkpt lat="43.0152623914182186126708984375" lon="-4.7548667527735233306884765625">
        <ele>2401.39990234375</ele>
        <time>2021-07-22T10:06:56.000Z</time>
      </trkpt>
      <trkpt lat="43.0152268521487712860107421875" lon="-4.75498502142727375030517578125">
        <ele>2402.39990234375</ele>
        <time>2021-07-22T10:07:00.000Z</time>
      </trkpt>
      <trkpt lat="43.01520145498216152191162109375" lon="-4.75508124567568302154541015625">
        <ele>2402.39990234375</ele>
        <time>2021-07-22T10:07:03.000Z</time>
      </trkpt>
      <trkpt lat="43.01518770866096019744873046875" lon="-4.7551510669291019439697265625">
        <ele>2402.39990234375</ele>
        <time>2021-07-22T10:07:05.000Z</time>
      </trkpt>
      <trkpt lat="43.01517211832106113433837890625" lon="-4.75531208328902721405029296875">
        <ele>2402.39990234375</ele>
        <time>2021-07-22T10:07:10.000Z</time>
      </trkpt>
      <trkpt lat="43.01513188518583774566650390625" lon="-4.755454994738101959228515625">
        <ele>2402.800048828125</ele>
        <time>2021-07-22T10:07:15.000Z</time>
      </trkpt>
      <trkpt lat="43.0151084996759891510009765625" lon="-4.75553789176046848297119140625">
        <ele>2403.39990234375</ele>
        <time>2021-07-22T10:07:18.000Z</time>
      </trkpt>
      <trkpt lat="43.01510028541088104248046875" lon="-4.7555825673043727874755859375">
        <ele>2404</ele>
        <time>2021-07-22T10:07:20.000Z</time>
      </trkpt>
      <trkpt lat="43.0150969326496124267578125" lon="-4.7555959783494472503662109375">
        <ele>2404.39990234375</ele>
        <time>2021-07-22T10:07:24.000Z</time>
      </trkpt>
      <trkpt lat="43.01509416662156581878662109375" lon="-4.755593128502368927001953125">
        <ele>2404.39990234375</ele>
        <time>2021-07-22T10:07:25.000Z</time>
      </trkpt>
      <trkpt lat="43.01510028541088104248046875" lon="-4.7556831501424312591552734375">
        <ele>2405</ele>
        <time>2021-07-22T10:07:31.000Z</time>
      </trkpt>
      <trkpt lat="43.015096597373485565185546875" lon="-4.75570066832005977630615234375">
        <ele>2405.60009765625</ele>
        <time>2021-07-22T10:07:32.000Z</time>
      </trkpt>
      <trkpt lat="43.01506969146430492401123046875" lon="-4.75581684149801731109619140625">
        <ele>2406</ele>
        <time>2021-07-22T10:07:36.000Z</time>
      </trkpt>
      <trkpt lat="43.01502694375813007354736328125" lon="-4.755926392972469329833984375">
        <ele>2404.60009765625</ele>
        <time>2021-07-22T10:07:40.000Z</time>
      </trkpt>
      <trkpt lat="43.015014119446277618408203125" lon="-4.75595028139650821685791015625">
        <ele>2404.39990234375</ele>
        <time>2021-07-22T10:07:41.000Z</time>
      </trkpt>
      <trkpt lat="43.01498402841389179229736328125" lon="-4.75602571852505207061767578125">
        <ele>2404</ele>
        <time>2021-07-22T10:07:46.000Z</time>
      </trkpt>
      <trkpt lat="43.0149817653000354766845703125" lon="-4.75609906017780303955078125">
        <ele>2405.60009765625</ele>
        <time>2021-07-22T10:07:49.000Z</time>
      </trkpt>
      <trkpt lat="43.01497514359652996063232421875" lon="-4.7561319172382354736328125">
        <ele>2406.39990234375</ele>
        <time>2021-07-22T10:07:51.000Z</time>
      </trkpt>
      <trkpt lat="43.01497447304427623748779296875" lon="-4.75614599883556365966796875">
        <ele>2407</ele>
        <time>2021-07-22T10:07:52.000Z</time>
      </trkpt>
      <trkpt lat="43.014976568520069122314453125" lon="-4.756167121231555938720703125">
        <ele>2408</ele>
        <time>2021-07-22T10:07:54.000Z</time>
      </trkpt>
      <trkpt lat="43.01498830318450927734375" lon="-4.75618782453238964080810546875">
        <ele>2409.60009765625</ele>
        <time>2021-07-22T10:07:56.000Z</time>
      </trkpt>
      <trkpt lat="43.01499542780220508575439453125" lon="-4.756197966635227203369140625">
        <ele>2410.800048828125</ele>
        <time>2021-07-22T10:07:57.000Z</time>
      </trkpt>
      <trkpt lat="43.015007413923740386962890625" lon="-4.7562115453183650970458984375">
        <ele>2411.800048828125</ele>
        <time>2021-07-22T10:07:59.000Z</time>
      </trkpt>
      <trkpt lat="43.01500800065696239471435546875" lon="-4.75621447898447513580322265625">
        <ele>2411.800048828125</ele>
        <time>2021-07-22T10:08:00.000Z</time>
      </trkpt>
      <trkpt lat="43.0150002054870128631591796875" lon="-4.75622034631669521331787109375">
        <ele>2412</ele>
        <time>2021-07-22T10:08:02.000Z</time>
      </trkpt>
      <trkpt lat="43.0149854533374309539794921875" lon="-4.75628237240016460418701171875">
        <ele>2413</ele>
        <time>2021-07-22T10:08:08.000Z</time>
      </trkpt>
      <trkpt lat="43.01498629152774810791015625" lon="-4.756287150084972381591796875">
        <ele>2413.39990234375</ele>
        <time>2021-07-22T10:08:09.000Z</time>
      </trkpt>
      <trkpt lat="43.01499676890671253204345703125" lon="-4.7563171572983264923095703125">
        <ele>2414</ele>
        <time>2021-07-22T10:08:12.000Z</time>
      </trkpt>
      <trkpt lat="43.015001714229583740234375" lon="-4.75632570683956146240234375">
        <ele>2414.199951171875</ele>
        <time>2021-07-22T10:08:13.000Z</time>
      </trkpt>
      <trkpt lat="43.015012778341770172119140625" lon="-4.75636082701385021209716796875">
        <ele>2415.199951171875</ele>
        <time>2021-07-22T10:08:18.000Z</time>
      </trkpt>
      <trkpt lat="43.01501269452273845672607421875" lon="-4.756376333534717559814453125">
        <ele>2415.199951171875</ele>
        <time>2021-07-22T10:08:19.000Z</time>
      </trkpt>
      <trkpt lat="43.01499006338417530059814453125" lon="-4.75644581951200962066650390625">
        <ele>2416</ele>
        <time>2021-07-22T10:08:25.000Z</time>
      </trkpt>
      <trkpt lat="43.0149874649941921234130859375" lon="-4.75645587779581546783447265625">
        <ele>2416.39990234375</ele>
        <time>2021-07-22T10:08:26.000Z</time>
      </trkpt>
      <trkpt lat="43.01497279666364192962646484375" lon="-4.75649678148329257965087890625">
        <ele>2417.39990234375</ele>
        <time>2021-07-22T10:08:30.000Z</time>
      </trkpt>
      <trkpt lat="43.01496273837983608245849609375" lon="-4.75651522167026996612548828125">
        <ele>2417.60009765625</ele>
        <time>2021-07-22T10:08:32.000Z</time>
      </trkpt>
      <trkpt lat="43.014955781400203704833984375" lon="-4.756519161164760589599609375">
        <ele>2417.800048828125</ele>
        <time>2021-07-22T10:08:33.000Z</time>
      </trkpt>
      <trkpt lat="43.0149360001087188720703125" lon="-4.7565505094826221466064453125">
        <ele>2418.800048828125</ele>
        <time>2021-07-22T10:08:37.000Z</time>
      </trkpt>
      <trkpt lat="43.0149271152913570404052734375" lon="-4.75656308233737945556640625">
        <ele>2419.39990234375</ele>
        <time>2021-07-22T10:08:39.000Z</time>
      </trkpt>
      <trkpt lat="43.01491898484528064727783203125" lon="-4.75660205818712711334228515625">
        <ele>2420.800048828125</ele>
        <time>2021-07-22T10:08:42.000Z</time>
      </trkpt>
      <trkpt lat="43.0149264447391033172607421875" lon="-4.7566361725330352783203125">
        <ele>2422</ele>
        <time>2021-07-22T10:08:46.000Z</time>
      </trkpt>
      <trkpt lat="43.01494278945028781890869140625" lon="-4.75666274316608905792236328125">
        <ele>2421.60009765625</ele>
        <time>2021-07-22T10:08:52.000Z</time>
      </trkpt>
      <trkpt lat="43.01492233760654926300048828125" lon="-4.75671370513737201690673828125">
        <ele>2422.39990234375</ele>
        <time>2021-07-22T10:08:58.000Z</time>
      </trkpt>
      <trkpt lat="43.01490926183760166168212890625" lon="-4.756760895252227783203125">
        <ele>2423.39990234375</ele>
        <time>2021-07-22T10:09:02.000Z</time>
      </trkpt>
      <trkpt lat="43.01491194404661655426025390625" lon="-4.7567905671894550323486328125">
        <ele>2424.39990234375</ele>
        <time>2021-07-22T10:09:05.000Z</time>
      </trkpt>
      <trkpt lat="43.014934323728084564208984375" lon="-4.75681043229997158050537109375">
        <ele>2425.39990234375</ele>
        <time>2021-07-22T10:09:10.000Z</time>
      </trkpt>
      <trkpt lat="43.0149452202022075653076171875" lon="-4.7568251006305217742919921875">
        <ele>2426.199951171875</ele>
        <time>2021-07-22T10:09:12.000Z</time>
      </trkpt>
      <trkpt lat="43.0149458907544612884521484375" lon="-4.7568361647427082061767578125">
        <ele>2426.60009765625</ele>
        <time>2021-07-22T10:09:13.000Z</time>
      </trkpt>
      <trkpt lat="43.01494111306965351104736328125" lon="-4.75687396712601184844970703125">
        <ele>2427.39990234375</ele>
        <time>2021-07-22T10:09:18.000Z</time>
      </trkpt>
      <trkpt lat="43.0149401910603046417236328125" lon="-4.75688167847692966461181640625">
        <ele>2427.60009765625</ele>
        <time>2021-07-22T10:09:19.000Z</time>
      </trkpt>
      <trkpt lat="43.01493608392775058746337890625" lon="-4.75690045394003391265869140625">
        <ele>2428.60009765625</ele>
        <time>2021-07-22T10:09:21.000Z</time>
      </trkpt>
      <trkpt lat="43.01491999067366123199462890625" lon="-4.75693733431398868560791015625">
        <ele>2430</ele>
        <time>2021-07-22T10:09:25.000Z</time>
      </trkpt>
      <trkpt lat="43.01492636092007160186767578125" lon="-4.7569719515740871429443359375">
        <ele>2431.39990234375</ele>
        <time>2021-07-22T10:09:29.000Z</time>
      </trkpt>
      <trkpt lat="43.01492393016815185546875" lon="-4.75699818693101406097412109375">
        <ele>2432.60009765625</ele>
        <time>2021-07-22T10:09:32.000Z</time>
      </trkpt>
      <trkpt lat="43.01491655409336090087890625" lon="-4.75701905786991119384765625">
        <ele>2433.39990234375</ele>
        <time>2021-07-22T10:09:35.000Z</time>
      </trkpt>
      <trkpt lat="43.01491546444594860076904296875" lon="-4.75703909061849117279052734375">
        <ele>2433.800048828125</ele>
        <time>2021-07-22T10:09:37.000Z</time>
      </trkpt>
      <trkpt lat="43.01492988131940364837646484375" lon="-4.757066667079925537109375">
        <ele>2434.60009765625</ele>
        <time>2021-07-22T10:09:40.000Z</time>
      </trkpt>
      <trkpt lat="43.01493189297616481781005859375" lon="-4.757080413401126861572265625">
        <ele>2435</ele>
        <time>2021-07-22T10:09:42.000Z</time>
      </trkpt>
      <trkpt lat="43.01492325961589813232421875" lon="-4.75709424354135990142822265625">
        <ele>2434</ele>
        <time>2021-07-22T10:09:45.000Z</time>
      </trkpt>
      <trkpt lat="43.0149227567017078399658203125" lon="-4.757103212177753448486328125">
        <ele>2433.199951171875</ele>
        <time>2021-07-22T10:09:47.000Z</time>
      </trkpt>
      <trkpt lat="43.01492786966264247894287109375" lon="-4.757122658193111419677734375">
        <ele>2435</ele>
        <time>2021-07-22T10:09:52.000Z</time>
      </trkpt>
      <trkpt lat="43.01493507809937000274658203125" lon="-4.7571328841149806976318359375">
        <ele>2435.60009765625</ele>
        <time>2021-07-22T10:09:53.000Z</time>
      </trkpt>
      <trkpt lat="43.014939017593860626220703125" lon="-4.75715274922549724578857421875">
        <ele>2436.199951171875</ele>
        <time>2021-07-22T10:09:56.000Z</time>
      </trkpt>
      <trkpt lat="43.0149415321648120880126953125" lon="-4.75718267261981964111328125">
        <ele>2437</ele>
        <time>2021-07-22T10:09:59.000Z</time>
      </trkpt>
      <trkpt lat="43.01494195125997066497802734375" lon="-4.75719080306589603424072265625">
        <ele>2437.39990234375</ele>
        <time>2021-07-22T10:10:00.000Z</time>
      </trkpt>
      <trkpt lat="43.01493801176548004150390625" lon="-4.7572240792214870452880859375">
        <ele>2438.39990234375</ele>
        <time>2021-07-22T10:10:03.000Z</time>
      </trkpt>
      <trkpt lat="43.01493139006197452545166015625" lon="-4.75727227516472339630126953125">
        <ele>2439</ele>
        <time>2021-07-22T10:10:07.000Z</time>
      </trkpt>
      <trkpt lat="43.0149297975003719329833984375" lon="-4.7572924755513668060302734375">
        <ele>2439.39990234375</ele>
        <time>2021-07-22T10:10:09.000Z</time>
      </trkpt>
      <trkpt lat="43.014926947653293609619140625" lon="-4.7573146037757396697998046875">
        <ele>2440.60009765625</ele>
        <time>2021-07-22T10:10:12.000Z</time>
      </trkpt>
      <trkpt lat="43.01491999067366123199462890625" lon="-4.7573243267834186553955078125">
        <ele>2441</ele>
        <time>2021-07-22T10:10:13.000Z</time>
      </trkpt>
      <trkpt lat="43.014917559921741485595703125" lon="-4.75734117440879344940185546875">
        <ele>2441.199951171875</ele>
        <time>2021-07-22T10:10:14.000Z</time>
      </trkpt>
      <trkpt lat="43.01491915248334407806396484375" lon="-4.75736916996538639068603515625">
        <ele>2442.199951171875</ele>
        <time>2021-07-22T10:10:16.000Z</time>
      </trkpt>
      <trkpt lat="43.01491797901690006256103515625" lon="-4.7573960758745670318603515625">
        <ele>2443.60009765625</ele>
        <time>2021-07-22T10:10:18.000Z</time>
      </trkpt>
      <trkpt lat="43.0149199068546295166015625" lon="-4.75743806920945644378662109375">
        <ele>2444.800048828125</ele>
        <time>2021-07-22T10:10:21.000Z</time>
      </trkpt>
      <trkpt lat="43.01492393016815185546875" lon="-4.7574718482792377471923828125">
        <ele>2445.800048828125</ele>
        <time>2021-07-22T10:10:24.000Z</time>
      </trkpt>
      <trkpt lat="43.0149261094629764556884765625" lon="-4.757484756410121917724609375">
        <ele>2446</ele>
        <time>2021-07-22T10:10:25.000Z</time>
      </trkpt>
      <trkpt lat="43.0149294622242450714111328125" lon="-4.75753613747656345367431640625">
        <ele>2446.39990234375</ele>
        <time>2021-07-22T10:10:30.000Z</time>
      </trkpt>
      <trkpt lat="43.01489031873643398284912109375" lon="-4.75757201202213764190673828125">
        <ele>2447.199951171875</ele>
        <time>2021-07-22T10:16:33.000Z</time>
      </trkpt>
      <trkpt lat="43.01486249081790447235107421875" lon="-4.7575784660875797271728515625">
        <ele>2447.800048828125</ele>
        <time>2021-07-22T10:16:36.000Z</time>
      </trkpt>
      <trkpt lat="43.01485176198184490203857421875" lon="-4.75757896900177001953125">
        <ele>2447.800048828125</ele>
        <time>2021-07-22T10:16:37.000Z</time>
      </trkpt>
      <trkpt lat="43.0148070864379405975341796875" lon="-4.75758156739175319671630859375">
        <ele>2447.800048828125</ele>
        <time>2021-07-22T10:16:41.000Z</time>
      </trkpt>
      <trkpt lat="43.01479979418218135833740234375" lon="-4.7575856745243072509765625">
        <ele>2447.39990234375</ele>
        <time>2021-07-22T10:16:42.000Z</time>
      </trkpt>
      <trkpt lat="43.0147884786128997802734375" lon="-4.757592044770717620849609375">
        <ele>2447</ele>
        <time>2021-07-22T10:16:44.000Z</time>
      </trkpt>
      <trkpt lat="43.01478110253810882568359375" lon="-4.757588021457195281982421875">
        <ele>2444.800048828125</ele>
        <time>2021-07-22T10:16:45.000Z</time>
      </trkpt>
      <trkpt lat="43.01477372646331787109375" lon="-4.75757285021245479583740234375">
        <ele>2443.60009765625</ele>
        <time>2021-07-22T10:16:46.000Z</time>
      </trkpt>
      <trkpt lat="43.0147661827504634857177734375" lon="-4.75756044499576091766357421875">
        <ele>2443</ele>
        <time>2021-07-22T10:16:47.000Z</time>
      </trkpt>
      <trkpt lat="43.01473692990839481353759765625" lon="-4.75754301063716411590576171875">
        <ele>2442</ele>
        <time>2021-07-22T10:16:49.000Z</time>
      </trkpt>
      <trkpt lat="43.01468630321323871612548828125" lon="-4.75756824016571044921875">
        <ele>2441.39990234375</ele>
        <time>2021-07-22T10:16:53.000Z</time>
      </trkpt>
      <trkpt lat="43.01466484554111957550048828125" lon="-4.75757871754467487335205078125">
        <ele>2441</ele>
        <time>2021-07-22T10:16:55.000Z</time>
      </trkpt>
      <trkpt lat="43.01462628878653049468994140625" lon="-4.75759346969425678253173828125">
        <ele>2440.199951171875</ele>
        <time>2021-07-22T10:16:59.000Z</time>
      </trkpt>
      <trkpt lat="43.01461975090205669403076171875" lon="-4.75758844055235385894775390625">
        <ele>2440</ele>
        <time>2021-07-22T10:17:00.000Z</time>
      </trkpt>
      <trkpt lat="43.01461421884596347808837890625" lon="-4.75758709944784641265869140625">
        <ele>2439.39990234375</ele>
        <time>2021-07-22T10:17:01.000Z</time>
      </trkpt>
      <trkpt lat="43.014610446989536285400390625" lon="-4.757579974830150604248046875">
        <ele>2438.199951171875</ele>
        <time>2021-07-22T10:17:02.000Z</time>
      </trkpt>
      <trkpt lat="43.0146005563437938690185546875" lon="-4.757560528814792633056640625">
        <ele>2437.199951171875</ele>
        <time>2021-07-22T10:17:04.000Z</time>
      </trkpt>
      <trkpt lat="43.01459041424095630645751953125" lon="-4.7575580142438411712646484375">
        <ele>2436</ele>
        <time>2021-07-22T10:17:08.000Z</time>
      </trkpt>
      <trkpt lat="43.01458471454679965972900390625" lon="-4.75756228901445865631103515625">
        <ele>2435.39990234375</ele>
        <time>2021-07-22T10:17:10.000Z</time>
      </trkpt>
      <trkpt lat="43.01456610672175884246826171875" lon="-4.75756865926086902618408203125">
        <ele>2434.800048828125</ele>
        <time>2021-07-22T10:17:14.000Z</time>
      </trkpt>
      <trkpt lat="43.01456074230372905731201171875" lon="-4.7575590200722217559814453125">
        <ele>2434.800048828125</ele>
        <time>2021-07-22T10:17:15.000Z</time>
      </trkpt>
      <trkpt lat="43.01453995518386363983154296875" lon="-4.757548458874225616455078125">
        <ele>2433.199951171875</ele>
        <time>2021-07-22T10:17:18.000Z</time>
      </trkpt>
      <trkpt lat="43.014524281024932861328125" lon="-4.7575560025870800018310546875">
        <ele>2432.60009765625</ele>
        <time>2021-07-22T10:17:19.000Z</time>
      </trkpt>
      <trkpt lat="43.01451380364596843719482421875" lon="-4.75756622850894927978515625">
        <ele>2431.800048828125</ele>
        <time>2021-07-22T10:17:20.000Z</time>
      </trkpt>
      <trkpt lat="43.014498464763164520263671875" lon="-4.7575838305056095123291015625">
        <ele>2430.39990234375</ele>
        <time>2021-07-22T10:17:22.000Z</time>
      </trkpt>
      <trkpt lat="43.01448832266032695770263671875" lon="-4.75758760236203670501708984375">
        <ele>2429.39990234375</ele>
        <time>2021-07-22T10:17:24.000Z</time>
      </trkpt>
      <trkpt lat="43.0144872330129146575927734375" lon="-4.75760336033999919891357421875">
        <ele>2428.60009765625</ele>
        <time>2021-07-22T10:17:26.000Z</time>
      </trkpt>
      <trkpt lat="43.014485053718090057373046875" lon="-4.757606796920299530029296875">
        <ele>2428</ele>
        <time>2021-07-22T10:17:27.000Z</time>
      </trkpt>
      <trkpt lat="43.0144862271845340728759765625" lon="-4.75760419853031635284423828125">
        <ele>2427.60009765625</ele>
        <time>2021-07-22T10:17:28.000Z</time>
      </trkpt>
      <trkpt lat="43.01448404788970947265625" lon="-4.75760470144450664520263671875">
        <ele>2427.39990234375</ele>
        <time>2021-07-22T10:17:29.000Z</time>
      </trkpt>
      <trkpt lat="43.01448329351842403411865234375" lon="-4.7576156817376613616943359375">
        <ele>2428</ele>
        <time>2021-07-22T10:17:32.000Z</time>
      </trkpt>
      <trkpt lat="43.01449268124997615814208984375" lon="-4.75762112997472286224365234375">
        <ele>2428</ele>
        <time>2021-07-22T10:17:36.000Z</time>
      </trkpt>
      <trkpt lat="43.01448564045131206512451171875" lon="-4.7576193697750568389892578125">
        <ele>2428</ele>
        <time>2021-07-22T10:17:41.000Z</time>
      </trkpt>
      <trkpt lat="43.014478348195552825927734375" lon="-4.75760419853031635284423828125">
        <ele>2428</ele>
        <time>2021-07-22T10:17:43.000Z</time>
      </trkpt>
      <trkpt lat="43.01443182863295078277587890625" lon="-4.75762012414634227752685546875">
        <ele>2428</ele>
        <time>2021-07-22T10:17:48.000Z</time>
      </trkpt>
      <trkpt lat="43.014418669044971466064453125" lon="-4.75764074362814426422119140625">
        <ele>2425.800048828125</ele>
        <time>2021-07-22T10:17:51.000Z</time>
      </trkpt>
      <trkpt lat="43.01440299488604068756103515625" lon="-4.75763537921011447906494140625">
        <ele>2424.800048828125</ele>
        <time>2021-07-22T10:17:53.000Z</time>
      </trkpt>
      <trkpt lat="43.01439377479255199432373046875" lon="-4.75763185881078243255615234375">
        <ele>2424.60009765625</ele>
        <time>2021-07-22T10:17:54.000Z</time>
      </trkpt>
      <trkpt lat="43.01438421942293643951416015625" lon="-4.75764292292296886444091796875">
        <ele>2424.39990234375</ele>
        <time>2021-07-22T10:17:56.000Z</time>
      </trkpt>
      <trkpt lat="43.01436678506433963775634765625" lon="-4.7576425038278102874755859375">
        <ele>2424.199951171875</ele>
        <time>2021-07-22T10:17:58.000Z</time>
      </trkpt>
      <trkpt lat="43.01435722969472408294677734375" lon="-4.75764811970293521881103515625">
        <ele>2423.800048828125</ele>
        <time>2021-07-22T10:17:59.000Z</time>
      </trkpt>
      <trkpt lat="43.01434767432510852813720703125" lon="-4.75765532813966274261474609375">
        <ele>2423.39990234375</ele>
        <time>2021-07-22T10:18:00.000Z</time>
      </trkpt>
      <trkpt lat="43.014324121177196502685546875" lon="-4.7576639614999294281005859375">
        <ele>2422.800048828125</ele>
        <time>2021-07-22T10:18:02.000Z</time>
      </trkpt>
      <trkpt lat="43.01429151557385921478271484375" lon="-4.75768064148724079132080078125">
        <ele>2422</ele>
        <time>2021-07-22T10:18:05.000Z</time>
      </trkpt>
      <trkpt lat="43.01427190192043781280517578125" lon="-4.7576723434031009674072265625">
        <ele>2421</ele>
        <time>2021-07-22T10:18:07.000Z</time>
      </trkpt>
      <trkpt lat="43.01425362937152385711669921875" lon="-4.75766723044216632843017578125">
        <ele>2420.60009765625</ele>
        <time>2021-07-22T10:18:08.000Z</time>
      </trkpt>
      <trkpt lat="43.01424776203930377960205078125" lon="-4.75766438059508800506591796875">
        <ele>2420.800048828125</ele>
        <time>2021-07-22T10:18:09.000Z</time>
      </trkpt>
      <trkpt lat="43.01424222998321056365966796875" lon="-4.75767393596470355987548828125">
        <ele>2420.60009765625</ele>
        <time>2021-07-22T10:18:10.000Z</time>
      </trkpt>
      <trkpt lat="43.01422446034848690032958984375" lon="-4.75769304670393466949462890625">
        <ele>2418.60009765625</ele>
        <time>2021-07-22T10:18:12.000Z</time>
      </trkpt>
      <trkpt lat="43.01421976648271083831787109375" lon="-4.757699333131313323974609375">
        <ele>2418.800048828125</ele>
        <time>2021-07-22T10:18:13.000Z</time>
      </trkpt>
      <trkpt lat="43.0142139829695224761962890625" lon="-4.75769991986453533172607421875">
        <ele>2418.800048828125</ele>
        <time>2021-07-22T10:18:14.000Z</time>
      </trkpt>
      <trkpt lat="43.014197051525115966796875" lon="-4.75767678581178188323974609375">
        <ele>2417.199951171875</ele>
        <time>2021-07-22T10:18:16.000Z</time>
      </trkpt>
      <trkpt lat="43.01418690942227840423583984375" lon="-4.75767577998340129852294921875">
        <ele>2417</ele>
        <time>2021-07-22T10:18:17.000Z</time>
      </trkpt>
      <trkpt lat="43.01417953334748744964599609375" lon="-4.75768550299108028411865234375">
        <ele>2416.800048828125</ele>
        <time>2021-07-22T10:18:18.000Z</time>
      </trkpt>
      <trkpt lat="43.01416310481727123260498046875" lon="-4.75769639946520328521728515625">
        <ele>2416.60009765625</ele>
        <time>2021-07-22T10:18:20.000Z</time>
      </trkpt>
      <trkpt lat="43.01415438763797283172607421875" lon="-4.75770427845418453216552734375">
        <ele>2416</ele>
        <time>2021-07-22T10:18:21.000Z</time>
      </trkpt>
      <trkpt lat="43.0141499452292919158935546875" lon="-4.75772674195468425750732421875">
        <ele>2415</ele>
        <time>2021-07-22T10:18:23.000Z</time>
      </trkpt>
      <trkpt lat="43.01413980312645435333251953125" lon="-4.75772741250693798065185546875">
        <ele>2414.60009765625</ele>
        <time>2021-07-22T10:18:24.000Z</time>
      </trkpt>
      <trkpt lat="43.0141254700720310211181640625" lon="-4.7577290050685405731201171875">
        <ele>2414.199951171875</ele>
        <time>2021-07-22T10:18:25.000Z</time>
      </trkpt>
      <trkpt lat="43.01410677842795848846435546875" lon="-4.757770411670207977294921875">
        <ele>2413.800048828125</ele>
        <time>2021-07-22T10:18:27.000Z</time>
      </trkpt>
      <trkpt lat="43.01409889943897724151611328125" lon="-4.75779111497104167938232421875">
        <ele>2413.39990234375</ele>
        <time>2021-07-22T10:18:28.000Z</time>
      </trkpt>
      <trkpt lat="43.01409739069640636444091796875" lon="-4.75781475193798542022705078125">
        <ele>2413.199951171875</ele>
        <time>2021-07-22T10:18:30.000Z</time>
      </trkpt>
      <trkpt lat="43.014090768992900848388671875" lon="-4.75781592540442943572998046875">
        <ele>2413</ele>
        <time>2021-07-22T10:18:31.000Z</time>
      </trkpt>
      <trkpt lat="43.01407861523330211639404296875" lon="-4.75779564119875431060791015625">
        <ele>2412.39990234375</ele>
        <time>2021-07-22T10:18:32.000Z</time>
      </trkpt>
      <trkpt lat="43.01405246369540691375732421875" lon="-4.75777669809758663177490234375">
        <ele>2411.39990234375</ele>
        <time>2021-07-22T10:18:34.000Z</time>
      </trkpt>
      <trkpt lat="43.01404307596385478973388671875" lon="-4.7577752731740474700927734375">
        <ele>2411.199951171875</ele>
        <time>2021-07-22T10:18:35.000Z</time>
      </trkpt>
      <trkpt lat="43.0140295810997486114501953125" lon="-4.7578212060034275054931640625">
        <ele>2410.60009765625</ele>
        <time>2021-07-22T10:18:38.000Z</time>
      </trkpt>
      <trkpt lat="43.01401239819824695587158203125" lon="-4.75783201865851879119873046875">
        <ele>2410.39990234375</ele>
        <time>2021-07-22T10:18:40.000Z</time>
      </trkpt>
      <trkpt lat="43.01398389972746372222900390625" lon="-4.75783805362880229949951171875">
        <ele>2410.199951171875</ele>
        <time>2021-07-22T10:18:42.000Z</time>
      </trkpt>
      <trkpt lat="43.013955652713775634765625" lon="-4.757860600948333740234375">
        <ele>2410</ele>
        <time>2021-07-22T10:18:45.000Z</time>
      </trkpt>
      <trkpt lat="43.0139467678964138031005859375" lon="-4.75786529481410980224609375">
        <ele>2406.800048828125</ele>
        <time>2021-07-22T10:18:46.000Z</time>
      </trkpt>
      <trkpt lat="43.01393687725067138671875" lon="-4.75787200033664703369140625">
        <ele>2404.39990234375</ele>
        <time>2021-07-22T10:18:47.000Z</time>
      </trkpt>
      <trkpt lat="43.01392790861427783966064453125" lon="-4.75788935087621212005615234375">
        <ele>2403</ele>
        <time>2021-07-22T10:18:48.000Z</time>
      </trkpt>
      <trkpt lat="43.01392254419624805450439453125" lon="-4.7579107247292995452880859375">
        <ele>2402.199951171875</ele>
        <time>2021-07-22T10:18:49.000Z</time>
      </trkpt>
      <trkpt lat="43.0139216221868991851806640625" lon="-4.75792438723146915435791015625">
        <ele>2401.800048828125</ele>
        <time>2021-07-22T10:18:50.000Z</time>
      </trkpt>
      <trkpt lat="43.01390142180025577545166015625" lon="-4.75792841054499149322509765625">
        <ele>2401.39990234375</ele>
        <time>2021-07-22T10:18:53.000Z</time>
      </trkpt>
      <trkpt lat="43.01389002241194248199462890625" lon="-4.7579449228942394256591796875">
        <ele>2401.199951171875</ele>
        <time>2021-07-22T10:18:55.000Z</time>
      </trkpt>
      <trkpt lat="43.01386646926403045654296875" lon="-4.75795322097837924957275390625">
        <ele>2402</ele>
        <time>2021-07-22T10:18:57.000Z</time>
      </trkpt>
      <trkpt lat="43.0138632841408252716064453125" lon="-4.7579687274992465972900390625">
        <ele>2401.60009765625</ele>
        <time>2021-07-22T10:18:58.000Z</time>
      </trkpt>
      <trkpt lat="43.01386353559792041778564453125" lon="-4.757988341152667999267578125">
        <ele>2400.39990234375</ele>
        <time>2021-07-22T10:18:59.000Z</time>
      </trkpt>
      <trkpt lat="43.0138589255511760711669921875" lon="-4.7580049373209476470947265625">
        <ele>2399</ele>
        <time>2021-07-22T10:19:01.000Z</time>
      </trkpt>
      <trkpt lat="43.013854734599590301513671875" lon="-4.75799362175166606903076171875">
        <ele>2398.39990234375</ele>
        <time>2021-07-22T10:19:02.000Z</time>
      </trkpt>
      <trkpt lat="43.0138394795358180999755859375" lon="-4.75799010135233402252197265625">
        <ele>2398</ele>
        <time>2021-07-22T10:19:04.000Z</time>
      </trkpt>
      <trkpt lat="43.01383160054683685302734375" lon="-4.7579952143132686614990234375">
        <ele>2397.800048828125</ele>
        <time>2021-07-22T10:19:05.000Z</time>
      </trkpt>
      <trkpt lat="43.01381911151111125946044921875" lon="-4.75802446715533733367919921875">
        <ele>2396.800048828125</ele>
        <time>2021-07-22T10:19:07.000Z</time>
      </trkpt>
      <trkpt lat="43.0138183571398258209228515625" lon="-4.75804307498037815093994140625">
        <ele>2397.199951171875</ele>
        <time>2021-07-22T10:19:08.000Z</time>
      </trkpt>
      <trkpt lat="43.013817854225635528564453125" lon="-4.7580827213823795318603515625">
        <ele>2395.39990234375</ele>
        <time>2021-07-22T10:19:11.000Z</time>
      </trkpt>
      <trkpt lat="43.0138156749308109283447265625" lon="-4.7580907680094242095947265625">
        <ele>2395.199951171875</ele>
        <time>2021-07-22T10:19:12.000Z</time>
      </trkpt>
      <trkpt lat="43.01378726027905941009521484375" lon="-4.75809604860842227935791015625">
        <ele>2394.199951171875</ele>
        <time>2021-07-22T10:19:15.000Z</time>
      </trkpt>
      <trkpt lat="43.0137700773775577545166015625" lon="-4.75808347575366497039794921875">
        <ele>2393.60009765625</ele>
        <time>2021-07-22T10:19:17.000Z</time>
      </trkpt>
      <trkpt lat="43.013766221702098846435546875" lon="-4.758080206811428070068359375">
        <ele>2393.39990234375</ele>
        <time>2021-07-22T10:19:18.000Z</time>
      </trkpt>
      <trkpt lat="43.01376295275986194610595703125" lon="-4.75807593204081058502197265625">
        <ele>2393.199951171875</ele>
        <time>2021-07-22T10:19:19.000Z</time>
      </trkpt>
      <trkpt lat="43.01376144401729106903076171875" lon="-4.75807039998471736907958984375">
        <ele>2392.800048828125</ele>
        <time>2021-07-22T10:19:20.000Z</time>
      </trkpt>
      <trkpt lat="43.0137606896460056304931640625" lon="-4.758069477975368499755859375">
        <ele>2392</ele>
        <time>2021-07-22T10:19:22.000Z</time>
      </trkpt>
      <trkpt lat="43.01375842653214931488037109375" lon="-4.75807559676468372344970703125">
        <ele>2391.800048828125</ele>
        <time>2021-07-22T10:19:23.000Z</time>
      </trkpt>
      <trkpt lat="43.0137187801301479339599609375" lon="-4.7580780275166034698486328125">
        <ele>2391.60009765625</ele>
        <time>2021-07-22T10:19:28.000Z</time>
      </trkpt>
      <trkpt lat="43.0136936344206333160400390625" lon="-4.75810023956000804901123046875">
        <ele>2390.39990234375</ele>
        <time>2021-07-22T10:19:30.000Z</time>
      </trkpt>
      <trkpt lat="43.01368248648941516876220703125" lon="-4.758126474916934967041015625">
        <ele>2389.199951171875</ele>
        <time>2021-07-22T10:19:32.000Z</time>
      </trkpt>
      <trkpt lat="43.0136778764426708221435546875" lon="-4.75815706886351108551025390625">
        <ele>2388.60009765625</ele>
        <time>2021-07-22T10:19:34.000Z</time>
      </trkpt>
      <trkpt lat="43.01366941072046756744384765625" lon="-4.7581796161830425262451171875">
        <ele>2388.199951171875</ele>
        <time>2021-07-22T10:19:36.000Z</time>
      </trkpt>
      <trkpt lat="43.01365834660828113555908203125" lon="-4.75825999863445758819580078125">
        <ele>2387.60009765625</ele>
        <time>2021-07-22T10:19:42.000Z</time>
      </trkpt>
      <trkpt lat="43.01365633495151996612548828125" lon="-4.75826905108988285064697265625">
        <ele>2386.800048828125</ele>
        <time>2021-07-22T10:19:43.000Z</time>
      </trkpt>
      <trkpt lat="43.013646192848682403564453125" lon="-4.75825698114931583404541015625">
        <ele>2385.39990234375</ele>
        <time>2021-07-22T10:19:45.000Z</time>
      </trkpt>
      <trkpt lat="43.0136259086430072784423828125" lon="-4.7582449950277805328369140625">
        <ele>2384.60009765625</ele>
        <time>2021-07-22T10:19:47.000Z</time>
      </trkpt>
      <trkpt lat="43.01360637880861759185791015625" lon="-4.75823736749589443206787109375">
        <ele>2383.39990234375</ele>
        <time>2021-07-22T10:19:49.000Z</time>
      </trkpt>
      <trkpt lat="43.0135816521942615509033203125" lon="-4.75821959786117076873779296875">
        <ele>2382.800048828125</ele>
        <time>2021-07-22T10:19:53.000Z</time>
      </trkpt>
      <trkpt lat="43.01354653201997280120849609375" lon="-4.75821666419506072998046875">
        <ele>2382.199951171875</ele>
        <time>2021-07-22T10:19:58.000Z</time>
      </trkpt>
      <trkpt lat="43.013529516756534576416015625" lon="-4.75823015905916690826416015625">
        <ele>2381</ele>
        <time>2021-07-22T10:20:00.000Z</time>
      </trkpt>
      <trkpt lat="43.01351048983633518218994140625" lon="-4.75822529755532741546630859375">
        <ele>2379.800048828125</ele>
        <time>2021-07-22T10:20:02.000Z</time>
      </trkpt>
      <trkpt lat="43.01350009627640247344970703125" lon="-4.7582191787660121917724609375">
        <ele>2379.39990234375</ele>
        <time>2021-07-22T10:20:03.000Z</time>
      </trkpt>
      <trkpt lat="43.01346682012081146240234375" lon="-4.75820484571158885955810546875">
        <ele>2378.60009765625</ele>
        <time>2021-07-22T10:20:06.000Z</time>
      </trkpt>
      <trkpt lat="43.01345382817089557647705078125" lon="-4.7582025825977325439453125">
        <ele>2377.60009765625</ele>
        <time>2021-07-22T10:20:08.000Z</time>
      </trkpt>
      <trkpt lat="43.01344879902899265289306640625" lon="-4.75820727646350860595703125">
        <ele>2377.199951171875</ele>
        <time>2021-07-22T10:20:09.000Z</time>
      </trkpt>
      <trkpt lat="43.0134331248700618743896484375" lon="-4.75822999142110347747802734375">
        <ele>2376.800048828125</ele>
        <time>2021-07-22T10:20:11.000Z</time>
      </trkpt>
      <trkpt lat="43.01342524588108062744140625" lon="-4.7582382895052433013916015625">
        <ele>2375.800048828125</ele>
        <time>2021-07-22T10:20:12.000Z</time>
      </trkpt>
      <trkpt lat="43.0134056322276592254638671875" lon="-4.758241474628448486328125">
        <ele>2374.60009765625</ele>
        <time>2021-07-22T10:20:14.000Z</time>
      </trkpt>
      <trkpt lat="43.01339129917323589324951171875" lon="-4.7582446597516536712646484375">
        <ele>2374.199951171875</ele>
        <time>2021-07-22T10:20:15.000Z</time>
      </trkpt>
      <trkpt lat="43.01337772049009799957275390625" lon="-4.7582882456481456756591796875">
        <ele>2373.800048828125</ele>
        <time>2021-07-22T10:20:18.000Z</time>
      </trkpt>
      <trkpt lat="43.0133749544620513916015625" lon="-4.75830459035933017730712890625">
        <ele>2373.39990234375</ele>
        <time>2021-07-22T10:20:19.000Z</time>
      </trkpt>
      <trkpt lat="43.01334586925804615020751953125" lon="-4.75834800861775875091552734375">
        <ele>2372.39990234375</ele>
        <time>2021-07-22T10:20:25.000Z</time>
      </trkpt>
      <trkpt lat="43.0132998526096343994140625" lon="-4.7583623416721820831298828125">
        <ele>2371.800048828125</ele>
        <time>2021-07-22T10:20:29.000Z</time>
      </trkpt>
      <trkpt lat="43.01329758949577808380126953125" lon="-4.7583780996501445770263671875">
        <ele>2371.800048828125</ele>
        <time>2021-07-22T10:20:30.000Z</time>
      </trkpt>
      <trkpt lat="43.01329784095287322998046875" lon="-4.75838891230523586273193359375">
        <ele>2371.39990234375</ele>
        <time>2021-07-22T10:20:31.000Z</time>
      </trkpt>
      <trkpt lat="43.01328334026038646697998046875" lon="-4.7583894990384578704833984375">
        <ele>2369.60009765625</ele>
        <time>2021-07-22T10:20:33.000Z</time>
      </trkpt>
      <trkpt lat="43.0132658220827579498291015625" lon="-4.75838874466717243194580078125">
        <ele>2368.39990234375</ele>
        <time>2021-07-22T10:20:35.000Z</time>
      </trkpt>
      <trkpt lat="43.01323086954653263092041015625" lon="-4.7583782672882080078125">
        <ele>2367.39990234375</ele>
        <time>2021-07-22T10:20:39.000Z</time>
      </trkpt>
      <trkpt lat="43.01319030113518238067626953125" lon="-4.758387319743633270263671875">
        <ele>2366.39990234375</ele>
        <time>2021-07-22T10:20:42.000Z</time>
      </trkpt>
      <trkpt lat="43.013177812099456787109375" lon="-4.75839394144713878631591796875">
        <ele>2366</ele>
        <time>2021-07-22T10:20:43.000Z</time>
      </trkpt>
      <trkpt lat="43.01316440105438232421875" lon="-4.7584280557930469512939453125">
        <ele>2364.800048828125</ele>
        <time>2021-07-22T10:20:45.000Z</time>
      </trkpt>
      <trkpt lat="43.013151995837688446044921875" lon="-4.7584424726665019989013671875">
        <ele>2364.60009765625</ele>
        <time>2021-07-22T10:20:46.000Z</time>
      </trkpt>
      <trkpt lat="43.01314093172550201416015625" lon="-4.75846032612025737762451171875">
        <ele>2363.800048828125</ele>
        <time>2021-07-22T10:20:48.000Z</time>
      </trkpt>
      <trkpt lat="43.013129532337188720703125" lon="-4.75846200250089168548583984375">
        <ele>2363.60009765625</ele>
        <time>2021-07-22T10:20:49.000Z</time>
      </trkpt>
      <trkpt lat="43.01311142742633819580078125" lon="-4.75846820510923862457275390625">
        <ele>2363.199951171875</ele>
        <time>2021-07-22T10:20:50.000Z</time>
      </trkpt>
      <trkpt lat="43.01306725479662418365478515625" lon="-4.75849695503711700439453125">
        <ele>2363</ele>
        <time>2021-07-22T10:20:52.000Z</time>
      </trkpt>
      <trkpt lat="43.01303942687809467315673828125" lon="-4.7585137188434600830078125">
        <ele>2362.39990234375</ele>
        <time>2021-07-22T10:20:53.000Z</time>
      </trkpt>
      <trkpt lat="43.0129704438149929046630859375" lon="-4.75855194032192230224609375">
        <ele>2361.39990234375</ele>
        <time>2021-07-22T10:20:55.000Z</time>
      </trkpt>
      <trkpt lat="43.01290816627442836761474609375" lon="-4.75859393365681171417236328125">
        <ele>2360.60009765625</ele>
        <time>2021-07-22T10:20:57.000Z</time>
      </trkpt>
      <trkpt lat="43.012845218181610107421875" lon="-4.7586194984614849090576171875">
        <ele>2360.199951171875</ele>
        <time>2021-07-22T10:20:59.000Z</time>
      </trkpt>
      <trkpt lat="43.0128143727779388427734375" lon="-4.75863106548786163330078125">
        <ele>2358.800048828125</ele>
        <time>2021-07-22T10:21:00.000Z</time>
      </trkpt>
      <trkpt lat="43.012753017246723175048828125" lon="-4.75865277461707592010498046875">
        <ele>2357</ele>
        <time>2021-07-22T10:21:02.000Z</time>
      </trkpt>
      <trkpt lat="43.0127240158617496490478515625" lon="-4.75866752676665782928466796875">
        <ele>2357.199951171875</ele>
        <time>2021-07-22T10:21:03.000Z</time>
      </trkpt>
      <trkpt lat="43.01267850212752819061279296875" lon="-4.75869677960872650146484375">
        <ele>2355.60009765625</ele>
        <time>2021-07-22T10:21:05.000Z</time>
      </trkpt>
      <trkpt lat="43.0126381851732730865478515625" lon="-4.75870423950254917144775390625">
        <ele>2355.199951171875</ele>
        <time>2021-07-22T10:21:07.000Z</time>
      </trkpt>
      <trkpt lat="43.012607507407665252685546875" lon="-4.758738689124584197998046875">
        <ele>2355.39990234375</ele>
        <time>2021-07-22T10:21:09.000Z</time>
      </trkpt>
      <trkpt lat="43.01256819628179073333740234375" lon="-4.75876576267182826995849609375">
        <ele>2355</ele>
        <time>2021-07-22T10:21:11.000Z</time>
      </trkpt>
      <trkpt lat="43.01252142526209354400634765625" lon="-4.7587764076888561248779296875">
        <ele>2354.800048828125</ele>
        <time>2021-07-22T10:21:13.000Z</time>
      </trkpt>
      <trkpt lat="43.012502901256084442138671875" lon="-4.75878520868718624114990234375">
        <ele>2354</ele>
        <time>2021-07-22T10:21:14.000Z</time>
      </trkpt>
      <trkpt lat="43.01245202310383319854736328125" lon="-4.7588015533983707427978515625">
        <ele>2352.60009765625</ele>
        <time>2021-07-22T10:21:16.000Z</time>
      </trkpt>
      <trkpt lat="43.01240558736026287078857421875" lon="-4.75879996083676815032958984375">
        <ele>2351.60009765625</ele>
        <time>2021-07-22T10:21:18.000Z</time>
      </trkpt>
      <trkpt lat="43.01235563121736049652099609375" lon="-4.7588045708835124969482421875">
        <ele>2351.39990234375</ele>
        <time>2021-07-22T10:21:20.000Z</time>
      </trkpt>
      <trkpt lat="43.01226477138698101043701171875" lon="-4.7588166408240795135498046875">
        <ele>2350.39990234375</ele>
        <time>2021-07-22T10:21:24.000Z</time>
      </trkpt>
      <trkpt lat="43.01224750466644763946533203125" lon="-4.75882141850888729095458984375">
        <ele>2350.199951171875</ele>
        <time>2021-07-22T10:21:25.000Z</time>
      </trkpt>
      <trkpt lat="43.01223375834524631500244140625" lon="-4.75882418453693389892578125">
        <ele>2349.199951171875</ele>
        <time>2021-07-22T10:21:26.000Z</time>
      </trkpt>
      <trkpt lat="43.012197129428386688232421875" lon="-4.75884639658033847808837890625">
        <ele>2347.800048828125</ele>
        <time>2021-07-22T10:21:29.000Z</time>
      </trkpt>
      <trkpt lat="43.01217265427112579345703125" lon="-4.75883499719202518463134765625">
        <ele>2347.199951171875</ele>
        <time>2021-07-22T10:21:31.000Z</time>
      </trkpt>
      <trkpt lat="43.012126721441745758056640625" lon="-4.75885880179703235626220703125">
        <ele>2346.199951171875</ele>
        <time>2021-07-22T10:21:34.000Z</time>
      </trkpt>
      <trkpt lat="43.01205723546445369720458984375" lon="-4.75887187756597995758056640625">
        <ele>2345.199951171875</ele>
        <time>2021-07-22T10:21:37.000Z</time>
      </trkpt>
      <trkpt lat="43.01203778944909572601318359375" lon="-4.75888914428651332855224609375">
        <ele>2345</ele>
        <time>2021-07-22T10:21:38.000Z</time>
      </trkpt>
      <trkpt lat="43.01200568675994873046875" lon="-4.75891244597733020782470703125">
        <ele>2344</ele>
        <time>2021-07-22T10:21:41.000Z</time>
      </trkpt>
      <trkpt lat="43.0119964666664600372314453125" lon="-4.75890624336898326873779296875">
        <ele>2343.199951171875</ele>
        <time>2021-07-22T10:21:43.000Z</time>
      </trkpt>
      <trkpt lat="43.01200476475059986114501953125" lon="-4.75890062749385833740234375">
        <ele>2342.800048828125</ele>
        <time>2021-07-22T10:21:45.000Z</time>
      </trkpt>
      <trkpt lat="43.012010045349597930908203125" lon="-4.75890976376831531524658203125">
        <ele>2342.800048828125</ele>
        <time>2021-07-22T10:21:48.000Z</time>
      </trkpt>
      <trkpt lat="43.01198280416429042816162109375" lon="-4.7588945925235748291015625">
        <ele>2342.60009765625</ele>
        <time>2021-07-22T10:21:50.000Z</time>
      </trkpt>
      <trkpt lat="43.0119629390537738800048828125" lon="-4.75888947956264019012451171875">
        <ele>2342.199951171875</ele>
        <time>2021-07-22T10:21:53.000Z</time>
      </trkpt>
      <trkpt lat="43.01193854771554470062255859375" lon="-4.7588847018778324127197265625">
        <ele>2342</ele>
        <time>2021-07-22T10:21:56.000Z</time>
      </trkpt>
      <trkpt lat="43.01192547194659709930419921875" lon="-4.7588847018778324127197265625">
        <ele>2342</ele>
        <time>2021-07-22T10:21:57.000Z</time>
      </trkpt>
      <trkpt lat="43.01187031902372837066650390625" lon="-4.75889618508517742156982421875">
        <ele>2341.800048828125</ele>
        <time>2021-07-22T10:22:01.000Z</time>
      </trkpt>
      <trkpt lat="43.0118479393422603607177734375" lon="-4.758909009397029876708984375">
        <ele>2341.60009765625</ele>
        <time>2021-07-22T10:22:03.000Z</time>
      </trkpt>
      <trkpt lat="43.011839725077152252197265625" lon="-4.75891479291021823883056640625">
        <ele>2341.60009765625</ele>
        <time>2021-07-22T10:22:04.000Z</time>
      </trkpt>
      <trkpt lat="43.01181248389184474945068359375" lon="-4.7589256055653095245361328125">
        <ele>2341</ele>
        <time>2021-07-22T10:22:08.000Z</time>
      </trkpt>
      <trkpt lat="43.01178499124944210052490234375" lon="-4.75892418064177036285400390625">
        <ele>2340.800048828125</ele>
        <time>2021-07-22T10:22:11.000Z</time>
      </trkpt>
      <trkpt lat="43.011747859418392181396484375" lon="-4.75893474183976650238037109375">
        <ele>2340.60009765625</ele>
        <time>2021-07-22T10:22:14.000Z</time>
      </trkpt>
      <trkpt lat="43.011705614626407623291015625" lon="-4.75895485840737819671630859375">
        <ele>2340</ele>
        <time>2021-07-22T10:22:19.000Z</time>
      </trkpt>
      <trkpt lat="43.0116963945329189300537109375" lon="-4.75896676070988178253173828125">
        <ele>2340</ele>
        <time>2021-07-22T10:22:20.000Z</time>
      </trkpt>
      <trkpt lat="43.011659681797027587890625" lon="-4.75901017896831035614013671875">
        <ele>2340</ele>
        <time>2021-07-22T10:22:23.000Z</time>
      </trkpt>
      <trkpt lat="43.011648952960968017578125" lon="-4.759029708802700042724609375">
        <ele>2340</ele>
        <time>2021-07-22T10:22:25.000Z</time>
      </trkpt>
      <trkpt lat="43.011644594371318817138671875" lon="-4.75903448648750782012939453125">
        <ele>2339.800048828125</ele>
        <time>2021-07-22T10:22:26.000Z</time>
      </trkpt>
      <trkpt lat="43.01160779781639575958251953125" lon="-4.759052507579326629638671875">
        <ele>2340.199951171875</ele>
        <time>2021-07-22T10:22:31.000Z</time>
      </trkpt>
      <trkpt lat="43.01159329712390899658203125" lon="-4.75905309431254863739013671875">
        <ele>2340.199951171875</ele>
        <time>2021-07-22T10:22:32.000Z</time>
      </trkpt>
      <trkpt lat="43.0115401558578014373779296875" lon="-4.75905644707381725311279296875">
        <ele>2340.60009765625</ele>
        <time>2021-07-22T10:22:36.000Z</time>
      </trkpt>
      <trkpt lat="43.0114928819239139556884765625" lon="-4.7590566985309123992919921875">
        <ele>2341.800048828125</ele>
        <time>2021-07-22T10:22:41.000Z</time>
      </trkpt>
      <trkpt lat="43.0114650540053844451904296875" lon="-4.7590593807399272918701171875">
        <ele>2342</ele>
        <time>2021-07-22T10:22:43.000Z</time>
      </trkpt>
      <trkpt lat="43.0113788880407810211181640625" lon="-4.7590600512921810150146484375">
        <ele>2342.39990234375</ele>
        <time>2021-07-22T10:22:48.000Z</time>
      </trkpt>
      <trkpt lat="43.0113631300628185272216796875" lon="-4.759065248072147369384765625">
        <ele>2342</ele>
        <time>2021-07-22T10:22:49.000Z</time>
      </trkpt>
      <trkpt lat="43.011280484497547149658203125" lon="-4.75914529524743556976318359375">
        <ele>2341</ele>
        <time>2021-07-22T10:22:57.000Z</time>
      </trkpt>
      <trkpt lat="43.01126430742442607879638671875" lon="-4.75914898328483104705810546875">
        <ele>2340.800048828125</ele>
        <time>2021-07-22T10:22:58.000Z</time>
      </trkpt>
      <trkpt lat="43.01121552474796772003173828125" lon="-4.7591686807572841644287109375">
        <ele>2341.39990234375</ele>
        <time>2021-07-22T10:23:02.000Z</time>
      </trkpt>
      <trkpt lat="43.01114528439939022064208984375" lon="-4.75918519310653209686279296875">
        <ele>2341.60009765625</ele>
        <time>2021-07-22T10:23:09.000Z</time>
      </trkpt>
      <trkpt lat="43.011088036000728607177734375" lon="-4.75922643207013607025146484375">
        <ele>2342.199951171875</ele>
        <time>2021-07-22T10:23:15.000Z</time>
      </trkpt>
      <trkpt lat="43.01106062717735767364501953125" lon="-4.75922626443207263946533203125">
        <ele>2342.199951171875</ele>
        <time>2021-07-22T10:23:17.000Z</time>
      </trkpt>
      <trkpt lat="43.011011593043804168701171875" lon="-4.759255014359951019287109375">
        <ele>2341.800048828125</ele>
        <time>2021-07-22T10:23:21.000Z</time>
      </trkpt>
      <trkpt lat="43.01098049618303775787353515625" lon="-4.75925459526479244232177734375">
        <ele>2341.60009765625</ele>
        <time>2021-07-22T10:23:24.000Z</time>
      </trkpt>
      <trkpt lat="43.01094898022711277008056640625" lon="-4.75924168713390827178955078125">
        <ele>2341.60009765625</ele>
        <time>2021-07-22T10:23:27.000Z</time>
      </trkpt>
      <trkpt lat="43.01090874709188938140869140625" lon="-4.759265072643756866455078125">
        <ele>2340.60009765625</ele>
        <time>2021-07-22T10:23:30.000Z</time>
      </trkpt>
      <trkpt lat="43.01087354309856891632080078125" lon="-4.75929046981036663055419921875">
        <ele>2340.199951171875</ele>
        <time>2021-07-22T10:23:32.000Z</time>
      </trkpt>
      <trkpt lat="43.010836578905582427978515625" lon="-4.75934679619967937469482421875">
        <ele>2339.800048828125</ele>
        <time>2021-07-22T10:23:37.000Z</time>
      </trkpt>
      <trkpt lat="43.01077765412628650665283203125" lon="-4.759401865303516387939453125">
        <ele>2340.60009765625</ele>
        <time>2021-07-22T10:23:43.000Z</time>
      </trkpt>
      <trkpt lat="43.01076659001410007476806640625" lon="-4.7594412602484226226806640625">
        <ele>2340.60009765625</ele>
        <time>2021-07-22T10:23:46.000Z</time>
      </trkpt>
      <trkpt lat="43.01077966578304767608642578125" lon="-4.75942759774625301361083984375">
        <ele>2340.60009765625</ele>
        <time>2021-07-22T10:23:48.000Z</time>
      </trkpt>
      <trkpt lat="43.01078997552394866943359375" lon="-4.75942307151854038238525390625">
        <ele>2340.800048828125</ele>
        <time>2021-07-22T10:23:52.000Z</time>
      </trkpt>
      <trkpt lat="43.010788299143314361572265625" lon="-4.7594214789569377899169921875">
        <ele>2340.800048828125</ele>
        <time>2021-07-22T10:23:54.000Z</time>
      </trkpt>
      <trkpt lat="43.01076306961476802825927734375" lon="-4.7594352252781391143798828125">
        <ele>2340.800048828125</ele>
        <time>2021-07-22T10:23:59.000Z</time>
      </trkpt>
      <trkpt lat="43.010755442082881927490234375" lon="-4.75944587029516696929931640625">
        <ele>2340.60009765625</ele>
        <time>2021-07-22T10:24:02.000Z</time>
      </trkpt>
      <trkpt lat="43.0107408575713634490966796875" lon="-4.7594590298831462860107421875">
        <ele>2340.39990234375</ele>
        <time>2021-07-22T10:24:04.000Z</time>
      </trkpt>
      <trkpt lat="43.01073289476335048675537109375" lon="-4.7594952397048473358154296875">
        <ele>2339.800048828125</ele>
        <time>2021-07-22T10:24:09.000Z</time>
      </trkpt>
      <trkpt lat="43.01072451286017894744873046875" lon="-4.7594818286597728729248046875">
        <ele>2339.60009765625</ele>
        <time>2021-07-22T10:24:11.000Z</time>
      </trkpt>
      <trkpt lat="43.01071998663246631622314453125" lon="-4.759474284946918487548828125">
        <ele>2340</ele>
        <time>2021-07-22T10:24:15.000Z</time>
      </trkpt>
      <trkpt lat="43.01071831025183200836181640625" lon="-4.759480319917201995849609375">
        <ele>2340.39990234375</ele>
        <time>2021-07-22T10:24:17.000Z</time>
      </trkpt>
      <trkpt lat="43.01072082482278347015380859375" lon="-4.75947101600468158721923828125">
        <ele>2340.39990234375</ele>
        <time>2021-07-22T10:24:19.000Z</time>
      </trkpt>
      <trkpt lat="43.010717891156673431396484375" lon="-4.75947705097496509552001953125">
        <ele>2340</ele>
        <time>2021-07-22T10:24:23.000Z</time>
      </trkpt>
      <trkpt lat="43.010721914470195770263671875" lon="-4.7594999335706233978271484375">
        <ele>2339.800048828125</ele>
        <time>2021-07-22T10:24:29.000Z</time>
      </trkpt>
      <trkpt lat="43.01072870381176471710205078125" lon="-4.75950186140835285186767578125">
        <ele>2339.60009765625</ele>
        <time>2021-07-22T10:24:31.000Z</time>
      </trkpt>
      <trkpt lat="43.01073172129690647125244140625" lon="-4.7595153562724590301513671875">
        <ele>2339.60009765625</ele>
        <time>2021-07-22T10:24:38.000Z</time>
      </trkpt>
      <trkpt lat="43.010714538395404815673828125" lon="-4.75952013395726680755615234375">
        <ele>2338.800048828125</ele>
        <time>2021-07-22T10:24:41.000Z</time>
      </trkpt>
      <trkpt lat="43.010714538395404815673828125" lon="-4.75951896049082279205322265625">
        <ele>2338.60009765625</ele>
        <time>2021-07-22T10:24:44.000Z</time>
      </trkpt>
      <trkpt lat="43.01071730442345142364501953125" lon="-4.75951795466244220733642578125">
        <ele>2338.60009765625</ele>
        <time>2021-07-22T10:24:45.000Z</time>
      </trkpt>
      <trkpt lat="43.0107230879366397857666015625" lon="-4.7595383226871490478515625">
        <ele>2338.60009765625</ele>
        <time>2021-07-22T10:24:51.000Z</time>
      </trkpt>
      <trkpt lat="43.0107002891600131988525390625" lon="-4.75961585529148578643798828125">
        <ele>2338.60009765625</ele>
        <time>2021-07-22T10:24:57.000Z</time>
      </trkpt>
      <trkpt lat="43.01068763248622417449951171875" lon="-4.75964133627712726593017578125">
        <ele>2337.39990234375</ele>
        <time>2021-07-22T10:25:01.000Z</time>
      </trkpt>
      <trkpt lat="43.01068075932562351226806640625" lon="-4.759647957980632781982421875">
        <ele>2337.199951171875</ele>
        <time>2021-07-22T10:25:02.000Z</time>
      </trkpt>
      <trkpt lat="43.0106697790324687957763671875" lon="-4.75965005345642566680908203125">
        <ele>2336.800048828125</ele>
        <time>2021-07-22T10:25:04.000Z</time>
      </trkpt>
      <trkpt lat="43.0106526799499988555908203125" lon="-4.759655334055423736572265625">
        <ele>2335.800048828125</ele>
        <time>2021-07-22T10:25:06.000Z</time>
      </trkpt>
      <trkpt lat="43.010624013841152191162109375" lon="-4.759670086205005645751953125">
        <ele>2334.39990234375</ele>
        <time>2021-07-22T10:25:09.000Z</time>
      </trkpt>
      <trkpt lat="43.01060515455901622772216796875" lon="-4.75968894548714160919189453125">
        <ele>2332.60009765625</ele>
        <time>2021-07-22T10:25:11.000Z</time>
      </trkpt>
      <trkpt lat="43.01058721728622913360595703125" lon="-4.7597161866724491119384765625">
        <ele>2331.60009765625</ele>
        <time>2021-07-22T10:25:13.000Z</time>
      </trkpt>
      <trkpt lat="43.01058151759207248687744140625" lon="-4.7597500495612621307373046875">
        <ele>2331.199951171875</ele>
        <time>2021-07-22T10:25:15.000Z</time>
      </trkpt>
      <trkpt lat="43.0105400271713733673095703125" lon="-4.7598476149141788482666015625">
        <ele>2331</ele>
        <time>2021-07-22T10:25:22.000Z</time>
      </trkpt>
      <trkpt lat="43.010543882846832275390625" lon="-4.75985641591250896453857421875">
        <ele>2331</ele>
        <time>2021-07-22T10:25:23.000Z</time>
      </trkpt>
      <trkpt lat="43.010548241436481475830078125" lon="-4.75988022051751613616943359375">
        <ele>2330.39990234375</ele>
        <time>2021-07-22T10:25:27.000Z</time>
      </trkpt>
      <trkpt lat="43.0105417035520076751708984375" lon="-4.7598814778029918670654296875">
        <ele>2330.199951171875</ele>
        <time>2021-07-22T10:25:28.000Z</time>
      </trkpt>
      <trkpt lat="43.01052133552730083465576171875" lon="-4.75988826714456081390380859375">
        <ele>2329.800048828125</ele>
        <time>2021-07-22T10:25:30.000Z</time>
      </trkpt>
      <trkpt lat="43.010509349405765533447265625" lon="-4.7598938830196857452392578125">
        <ele>2329</ele>
        <time>2021-07-22T10:25:31.000Z</time>
      </trkpt>
      <trkpt lat="43.010505996644496917724609375" lon="-4.75991961546242237091064453125">
        <ele>2328</ele>
        <time>2021-07-22T10:25:33.000Z</time>
      </trkpt>
      <trkpt lat="43.01048244349658489227294921875" lon="-4.75996722467243671417236328125">
        <ele>2327</ele>
        <time>2021-07-22T10:25:39.000Z</time>
      </trkpt>
      <trkpt lat="43.01047339104115962982177734375" lon="-4.75998298265039920806884765625">
        <ele>2326.800048828125</ele>
        <time>2021-07-22T10:25:40.000Z</time>
      </trkpt>
      <trkpt lat="43.010463081300258636474609375" lon="-4.76002220995724201202392578125">
        <ele>2326.199951171875</ele>
        <time>2021-07-22T10:25:42.000Z</time>
      </trkpt>
      <trkpt lat="43.010465092957019805908203125" lon="-4.760055653750896453857421875">
        <ele>2325.60009765625</ele>
        <time>2021-07-22T10:25:44.000Z</time>
      </trkpt>
      <trkpt lat="43.01046266220510005950927734375" lon="-4.7600665502250194549560546875">
        <ele>2325.199951171875</ele>
        <time>2021-07-22T10:25:45.000Z</time>
      </trkpt>
      <trkpt lat="43.0104528553783893585205078125" lon="-4.760089181363582611083984375">
        <ele>2324.199951171875</ele>
        <time>2021-07-22T10:25:47.000Z</time>
      </trkpt>
      <trkpt lat="43.01043902523815631866455078125" lon="-4.7601104713976383209228515625">
        <ele>2323</ele>
        <time>2021-07-22T10:25:51.000Z</time>
      </trkpt>
      <trkpt lat="43.01043651066720485687255859375" lon="-4.760110639035701751708984375">
        <ele>2322.60009765625</ele>
        <time>2021-07-22T10:25:52.000Z</time>
      </trkpt>
      <trkpt lat="43.01041538827121257781982421875" lon="-4.7601362876594066619873046875">
        <ele>2322</ele>
        <time>2021-07-22T10:25:55.000Z</time>
      </trkpt>
      <trkpt lat="43.01040197722613811492919921875" lon="-4.76017124019563198089599609375">
        <ele>2321</ele>
        <time>2021-07-22T10:25:57.000Z</time>
      </trkpt>
      <trkpt lat="43.010385967791080474853515625" lon="-4.7602036781609058380126953125">
        <ele>2320.199951171875</ele>
        <time>2021-07-22T10:25:59.000Z</time>
      </trkpt>
      <trkpt lat="43.0103827826678752899169921875" lon="-4.7602194361388683319091796875">
        <ele>2319.800048828125</ele>
        <time>2021-07-22T10:26:01.000Z</time>
      </trkpt>
      <trkpt lat="43.01038102246820926666259765625" lon="-4.760227985680103302001953125">
        <ele>2319.800048828125</ele>
        <time>2021-07-22T10:26:02.000Z</time>
      </trkpt>
      <trkpt lat="43.010363169014453887939453125" lon="-4.76024164818227291107177734375">
        <ele>2319.199951171875</ele>
        <time>2021-07-22T10:26:05.000Z</time>
      </trkpt>
      <trkpt lat="43.0103536136448383331298828125" lon="-4.76026243530213832855224609375">
        <ele>2318</ele>
        <time>2021-07-22T10:26:06.000Z</time>
      </trkpt>
      <trkpt lat="43.0103502608835697174072265625" lon="-4.7602828033268451690673828125">
        <ele>2317.39990234375</ele>
        <time>2021-07-22T10:26:07.000Z</time>
      </trkpt>
      <trkpt lat="43.0103549547493457794189453125" lon="-4.7603257186710834503173828125">
        <ele>2316.800048828125</ele>
        <time>2021-07-22T10:26:09.000Z</time>
      </trkpt>
      <trkpt lat="43.01035017706453800201416015625" lon="-4.76033938117325305938720703125">
        <ele>2316.60009765625</ele>
        <time>2021-07-22T10:26:10.000Z</time>
      </trkpt>
      <trkpt lat="43.01033508963882923126220703125" lon="-4.76042118854820728302001953125">
        <ele>2316</ele>
        <time>2021-07-22T10:26:15.000Z</time>
      </trkpt>
      <trkpt lat="43.01032000221312046051025390625" lon="-4.76045236922800540924072265625">
        <ele>2316.39990234375</ele>
        <time>2021-07-22T10:26:17.000Z</time>
      </trkpt>
      <trkpt lat="43.01025160588324069976806640625" lon="-4.76058497093617916107177734375">
        <ele>2315.199951171875</ele>
        <time>2021-07-22T10:26:22.000Z</time>
      </trkpt>
      <trkpt lat="43.0102238617837429046630859375" lon="-4.76069234311580657958984375">
        <ele>2314.39990234375</ele>
        <time>2021-07-22T10:26:26.000Z</time>
      </trkpt>
      <trkpt lat="43.010212965309619903564453125" lon="-4.7607176564633846282958984375">
        <ele>2314.39990234375</ele>
        <time>2021-07-22T10:26:27.000Z</time>
      </trkpt>
      <trkpt lat="43.01020449958741664886474609375" lon="-4.7607453167438507080078125">
        <ele>2314.199951171875</ele>
        <time>2021-07-22T10:26:28.000Z</time>
      </trkpt>
      <trkpt lat="43.01019628532230854034423828125" lon="-4.76081295870244503021240234375">
        <ele>2312.60009765625</ele>
        <time>2021-07-22T10:26:30.000Z</time>
      </trkpt>
      <trkpt lat="43.010155297815799713134765625" lon="-4.7608970291912555694580078125">
        <ele>2311.800048828125</ele>
        <time>2021-07-22T10:26:33.000Z</time>
      </trkpt>
      <trkpt lat="43.01014046184718608856201171875" lon="-4.76092477329075336456298828125">
        <ele>2309.800048828125</ele>
        <time>2021-07-22T10:26:34.000Z</time>
      </trkpt>
      <trkpt lat="43.01012772135436534881591796875" lon="-4.7609563730657100677490234375">
        <ele>2308.39990234375</ele>
        <time>2021-07-22T10:26:35.000Z</time>
      </trkpt>
      <trkpt lat="43.01011481322348117828369140625" lon="-4.76101932115852832794189453125">
        <ele>2307</ele>
        <time>2021-07-22T10:26:37.000Z</time>
      </trkpt>
      <trkpt lat="43.0101080238819122314453125" lon="-4.76104748435318470001220703125">
        <ele>2306.800048828125</ele>
        <time>2021-07-22T10:26:38.000Z</time>
      </trkpt>
      <trkpt lat="43.01007742993533611297607421875" lon="-4.76110942661762237548828125">
        <ele>2305.60009765625</ele>
        <time>2021-07-22T10:26:41.000Z</time>
      </trkpt>
      <trkpt lat="43.0100515298545360565185546875" lon="-4.7611709497869014739990234375">
        <ele>2304.39990234375</ele>
        <time>2021-07-22T10:26:44.000Z</time>
      </trkpt>
      <trkpt lat="43.00998405553400516510009765625" lon="-4.76127161644399166107177734375">
        <ele>2303.199951171875</ele>
        <time>2021-07-22T10:26:49.000Z</time>
      </trkpt>
      <trkpt lat="43.009960167109966278076171875" lon="-4.7613868676126003265380859375">
        <ele>2302</ele>
        <time>2021-07-22T10:26:52.000Z</time>
      </trkpt>
      <trkpt lat="43.009945414960384368896484375" lon="-4.76146054454147815704345703125">
        <ele>2301.60009765625</ele>
        <time>2021-07-22T10:26:54.000Z</time>
      </trkpt>
      <trkpt lat="43.009929992258548736572265625" lon="-4.761556684970855712890625">
        <ele>2300.800048828125</ele>
        <time>2021-07-22T10:26:57.000Z</time>
      </trkpt>
      <trkpt lat="43.00992219708859920501708984375" lon="-4.76162097416818141937255859375">
        <ele>2300.60009765625</ele>
        <time>2021-07-22T10:26:59.000Z</time>
      </trkpt>
      <trkpt lat="43.009907193481922149658203125" lon="-4.76174938492476940155029296875">
        <ele>2300</ele>
        <time>2021-07-22T10:27:03.000Z</time>
      </trkpt>
      <trkpt lat="43.0099033378064632415771484375" lon="-4.76177805103361606597900390625">
        <ele>2299.800048828125</ele>
        <time>2021-07-22T10:27:04.000Z</time>
      </trkpt>
      <trkpt lat="43.009869642555713653564453125" lon="-4.76187896914780139923095703125">
        <ele>2298.60009765625</ele>
        <time>2021-07-22T10:27:07.000Z</time>
      </trkpt>
      <trkpt lat="43.00985564477741718292236328125" lon="-4.76191165857017040252685546875">
        <ele>2297.800048828125</ele>
        <time>2021-07-22T10:27:08.000Z</time>
      </trkpt>
      <trkpt lat="43.00983888097107410430908203125" lon="-4.76194283924996852874755859375">
        <ele>2297.199951171875</ele>
        <time>2021-07-22T10:27:09.000Z</time>
      </trkpt>
      <trkpt lat="43.0097802914679050445556640625" lon="-4.76208181120455265045166015625">
        <ele>2296.199951171875</ele>
        <time>2021-07-22T10:27:13.000Z</time>
      </trkpt>
      <trkpt lat="43.00970694981515407562255859375" lon="-4.76222656667232513427734375">
        <ele>2296</ele>
        <time>2021-07-22T10:27:18.000Z</time>
      </trkpt>
      <trkpt lat="43.009667806327342987060546875" lon="-4.7623122297227382659912109375">
        <ele>2294.800048828125</ele>
        <time>2021-07-22T10:27:21.000Z</time>
      </trkpt>
      <trkpt lat="43.0096310935914516448974609375" lon="-4.762365706264972686767578125">
        <ele>2293.60009765625</ele>
        <time>2021-07-22T10:27:24.000Z</time>
      </trkpt>
      <trkpt lat="43.00961893983185291290283203125" lon="-4.762393198907375335693359375">
        <ele>2293.199951171875</ele>
        <time>2021-07-22T10:27:25.000Z</time>
      </trkpt>
      <trkpt lat="43.00959362648427486419677734375" lon="-4.7624753415584564208984375">
        <ele>2292.800048828125</ele>
        <time>2021-07-22T10:27:28.000Z</time>
      </trkpt>
      <trkpt lat="43.00957988016307353973388671875" lon="-4.76250157691538333892822265625">
        <ele>2292.39990234375</ele>
        <time>2021-07-22T10:27:29.000Z</time>
      </trkpt>
      <trkpt lat="43.00952506251633167266845703125" lon="-4.76259537041187286376953125">
        <ele>2290.800048828125</ele>
        <time>2021-07-22T10:27:33.000Z</time>
      </trkpt>
      <trkpt lat="43.0095057003200054168701171875" lon="-4.7626548819243907928466796875">
        <ele>2289.39990234375</ele>
        <time>2021-07-22T10:27:35.000Z</time>
      </trkpt>
      <trkpt lat="43.00948164425790309906005859375" lon="-4.76270198822021484375">
        <ele>2288.199951171875</ele>
        <time>2021-07-22T10:27:37.000Z</time>
      </trkpt>
      <trkpt lat="43.00946739502251148223876953125" lon="-4.762723110616207122802734375">
        <ele>2287.60009765625</ele>
        <time>2021-07-22T10:27:38.000Z</time>
      </trkpt>
      <trkpt lat="43.00945498980581760406494140625" lon="-4.762745909392833709716796875">
        <ele>2287</ele>
        <time>2021-07-22T10:27:39.000Z</time>
      </trkpt>
      <trkpt lat="43.0094366334378719329833984375" lon="-4.76277147419750690460205078125">
        <ele>2285.800048828125</ele>
        <time>2021-07-22T10:27:41.000Z</time>
      </trkpt>
      <trkpt lat="43.00942598842084407806396484375" lon="-4.762784801423549652099609375">
        <ele>2285.199951171875</ele>
        <time>2021-07-22T10:27:43.000Z</time>
      </trkpt>
      <trkpt lat="43.00941861234605312347412109375" lon="-4.762786813080310821533203125">
        <ele>2284.800048828125</ele>
        <time>2021-07-22T10:27:46.000Z</time>
      </trkpt>
      <trkpt lat="43.00941576249897480010986328125" lon="-4.7627846337854862213134765625">
        <ele>2284.800048828125</ele>
        <time>2021-07-22T10:27:47.000Z</time>
      </trkpt>
      <trkpt lat="43.0094027705490589141845703125" lon="-4.7627930156886577606201171875">
        <ele>2284.39990234375</ele>
        <time>2021-07-22T10:27:49.000Z</time>
      </trkpt>
      <trkpt lat="43.0093233101069927215576171875" lon="-4.76286350749433040618896484375">
        <ele>2283.60009765625</ele>
        <time>2021-07-22T10:27:54.000Z</time>
      </trkpt>
      <trkpt lat="43.0093041993677616119384765625" lon="-4.7628885693848133087158203125">
        <ele>2283.39990234375</ele>
        <time>2021-07-22T10:27:55.000Z</time>
      </trkpt>
      <trkpt lat="43.00928768701851367950439453125" lon="-4.76291547529399394989013671875">
        <ele>2282.39990234375</ele>
        <time>2021-07-22T10:27:56.000Z</time>
      </trkpt>
      <trkpt lat="43.009250052273273468017578125" lon="-4.76294414140284061431884765625">
        <ele>2281.199951171875</ele>
        <time>2021-07-22T10:27:58.000Z</time>
      </trkpt>
      <trkpt lat="43.00921476446092128753662109375" lon="-4.76295654661953449249267578125">
        <ele>2280.39990234375</ele>
        <time>2021-07-22T10:28:00.000Z</time>
      </trkpt>
      <trkpt lat="43.0091965757310390472412109375" lon="-4.762956798076629638671875">
        <ele>2280</ele>
        <time>2021-07-22T10:28:01.000Z</time>
      </trkpt>
      <trkpt lat="43.0091737769544124603271484375" lon="-4.76295520551502704620361328125">
        <ele>2279</ele>
        <time>2021-07-22T10:28:02.000Z</time>
      </trkpt>
      <trkpt lat="43.00915709696710109710693359375" lon="-4.7629688680171966552734375">
        <ele>2278.199951171875</ele>
        <time>2021-07-22T10:28:03.000Z</time>
      </trkpt>
      <trkpt lat="43.00914938561618328094482421875" lon="-4.76299996487796306610107421875">
        <ele>2277.39990234375</ele>
        <time>2021-07-22T10:28:04.000Z</time>
      </trkpt>
      <trkpt lat="43.0091419257223606109619140625" lon="-4.76301454938948154449462890625">
        <ele>2276.800048828125</ele>
        <time>2021-07-22T10:28:05.000Z</time>
      </trkpt>
      <trkpt lat="43.0091231502592563629150390625" lon="-4.7630075924098491668701171875">
        <ele>2276.39990234375</ele>
        <time>2021-07-22T10:28:06.000Z</time>
      </trkpt>
      <trkpt lat="43.0090986751019954681396484375" lon="-4.76300164125859737396240234375">
        <ele>2275.800048828125</ele>
        <time>2021-07-22T10:28:07.000Z</time>
      </trkpt>
      <trkpt lat="43.009079396724700927734375" lon="-4.76300683803856372833251953125">
        <ele>2275</ele>
        <time>2021-07-22T10:28:08.000Z</time>
      </trkpt>
      <trkpt lat="43.00906531512737274169921875" lon="-4.7630102746188640594482421875">
        <ele>2274.199951171875</ele>
        <time>2021-07-22T10:28:09.000Z</time>
      </trkpt>
      <trkpt lat="43.009042851626873016357421875" lon="-4.76299661211669445037841796875">
        <ele>2273.199951171875</ele>
        <time>2021-07-22T10:28:10.000Z</time>
      </trkpt>
      <trkpt lat="43.00902617163956165313720703125" lon="-4.76298957131803035736083984375">
        <ele>2272.800048828125</ele>
        <time>2021-07-22T10:28:11.000Z</time>
      </trkpt>
      <trkpt lat="43.009005971252918243408203125" lon="-4.7629857994616031646728515625">
        <ele>2272.39990234375</ele>
        <time>2021-07-22T10:28:12.000Z</time>
      </trkpt>
      <trkpt lat="43.00896297208964824676513671875" lon="-4.76299493573606014251708984375">
        <ele>2271.60009765625</ele>
        <time>2021-07-22T10:28:14.000Z</time>
      </trkpt>
      <trkpt lat="43.008949644863605499267578125" lon="-4.7630220092833042144775390625">
        <ele>2271.199951171875</ele>
        <time>2021-07-22T10:28:15.000Z</time>
      </trkpt>
      <trkpt lat="43.0089380778372287750244140625" lon="-4.763058722019195556640625">
        <ele>2270.800048828125</ele>
        <time>2021-07-22T10:28:16.000Z</time>
      </trkpt>
      <trkpt lat="43.0089251697063446044921875" lon="-4.7630957700312137603759765625">
        <ele>2270.199951171875</ele>
        <time>2021-07-22T10:28:17.000Z</time>
      </trkpt>
      <trkpt lat="43.00885752774775028228759765625" lon="-4.76311504840850830078125">
        <ele>2269</ele>
        <time>2021-07-22T10:28:20.000Z</time>
      </trkpt>
      <trkpt lat="43.0088274367153644561767578125" lon="-4.76311261765658855438232421875">
        <ele>2267</ele>
        <time>2021-07-22T10:28:21.000Z</time>
      </trkpt>
      <trkpt lat="43.0088031291961669921875" lon="-4.76310574449598789215087890625">
        <ele>2266</ele>
        <time>2021-07-22T10:28:22.000Z</time>
      </trkpt>
      <trkpt lat="43.0087513290345668792724609375" lon="-4.76308948360383510589599609375">
        <ele>2264.800048828125</ele>
        <time>2021-07-22T10:28:24.000Z</time>
      </trkpt>
      <trkpt lat="43.00867111422121524810791015625" lon="-4.76308579556643962860107421875">
        <ele>2263.60009765625</ele>
        <time>2021-07-22T10:28:27.000Z</time>
      </trkpt>
      <trkpt lat="43.00858813337981700897216796875" lon="-4.76308328099548816680908203125">
        <ele>2262.800048828125</ele>
        <time>2021-07-22T10:28:30.000Z</time>
      </trkpt>
      <trkpt lat="43.0085645802319049835205078125" lon="-4.76309434510767459869384765625">
        <ele>2262.199951171875</ele>
        <time>2021-07-22T10:28:31.000Z</time>
      </trkpt>
      <trkpt lat="43.0085122771561145782470703125" lon="-4.76312753744423389434814453125">
        <ele>2261.199951171875</ele>
        <time>2021-07-22T10:28:33.000Z</time>
      </trkpt>
      <trkpt lat="43.008486963808536529541015625" lon="-4.7631463967263698577880859375">
        <ele>2261</ele>
        <time>2021-07-22T10:28:34.000Z</time>
      </trkpt>
      <trkpt lat="43.008464165031909942626953125" lon="-4.7631520964205265045166015625">
        <ele>2260.60009765625</ele>
        <time>2021-07-22T10:28:35.000Z</time>
      </trkpt>
      <trkpt lat="43.0084405280649662017822265625" lon="-4.76314614526927471160888671875">
        <ele>2259.800048828125</ele>
        <time>2021-07-22T10:28:36.000Z</time>
      </trkpt>
      <trkpt lat="43.00838797353208065032958984375" lon="-4.7631544433534145355224609375">
        <ele>2259.199951171875</ele>
        <time>2021-07-22T10:28:38.000Z</time>
      </trkpt>
      <trkpt lat="43.0083580501377582550048828125" lon="-4.76317581720650196075439453125">
        <ele>2258.800048828125</ele>
        <time>2021-07-22T10:28:39.000Z</time>
      </trkpt>
      <trkpt lat="43.00833784975111484527587890625" lon="-4.76320565678179264068603515625">
        <ele>2258.39990234375</ele>
        <time>2021-07-22T10:28:40.000Z</time>
      </trkpt>
      <trkpt lat="43.0082920007407665252685546875" lon="-4.76325326599180698394775390625">
        <ele>2257.60009765625</ele>
        <time>2021-07-22T10:28:42.000Z</time>
      </trkpt>
      <trkpt lat="43.00827515311539173126220703125" lon="-4.763276316225528717041015625">
        <ele>2257.39990234375</ele>
        <time>2021-07-22T10:28:43.000Z</time>
      </trkpt>
      <trkpt lat="43.00823542289435863494873046875" lon="-4.7633831016719341278076171875">
        <ele>2256.800048828125</ele>
        <time>2021-07-22T10:28:47.000Z</time>
      </trkpt>
      <trkpt lat="43.0082038231194019317626953125" lon="-4.76342207752168178558349609375">
        <ele>2256.199951171875</ele>
        <time>2021-07-22T10:28:49.000Z</time>
      </trkpt>
      <trkpt lat="43.0081746540963649749755859375" lon="-4.76345174945890903472900390625">
        <ele>2254.800048828125</ele>
        <time>2021-07-22T10:28:51.000Z</time>
      </trkpt>
      <trkpt lat="43.00814322195947170257568359375" lon="-4.763478152453899383544921875">
        <ele>2253.39990234375</ele>
        <time>2021-07-22T10:28:53.000Z</time>
      </trkpt>
      <trkpt lat="43.008104749023914337158203125" lon="-4.7635265998542308807373046875">
        <ele>2252</ele>
        <time>2021-07-22T10:28:56.000Z</time>
      </trkpt>
      <trkpt lat="43.00809695385396480560302734375" lon="-4.76355853490531444549560546875">
        <ele>2251.60009765625</ele>
        <time>2021-07-22T10:28:57.000Z</time>
      </trkpt>
      <trkpt lat="43.00809645093977451324462890625" lon="-4.763594828546047210693359375">
        <ele>2251.199951171875</ele>
        <time>2021-07-22T10:28:58.000Z</time>
      </trkpt>
      <trkpt lat="43.0080918408930301666259765625" lon="-4.76361955516040325164794921875">
        <ele>2251</ele>
        <time>2021-07-22T10:28:59.000Z</time>
      </trkpt>
      <trkpt lat="43.0080774240195751190185546875" lon="-4.76368107832968235015869140625">
        <ele>2249.60009765625</ele>
        <time>2021-07-22T10:29:01.000Z</time>
      </trkpt>
      <trkpt lat="43.00807432271540164947509765625" lon="-4.7637136839330196380615234375">
        <ele>2249</ele>
        <time>2021-07-22T10:29:02.000Z</time>
      </trkpt>
      <trkpt lat="43.00805303268134593963623046875" lon="-4.763746373355388641357421875">
        <ele>2247.60009765625</ele>
        <time>2021-07-22T10:29:04.000Z</time>
      </trkpt>
      <trkpt lat="43.00803534686565399169921875" lon="-4.7637472115457057952880859375">
        <ele>2246.800048828125</ele>
        <time>2021-07-22T10:29:05.000Z</time>
      </trkpt>
      <trkpt lat="43.008020929992198944091796875" lon="-4.76374343968927860260009765625">
        <ele>2246.199951171875</ele>
        <time>2021-07-22T10:29:06.000Z</time>
      </trkpt>
      <trkpt lat="43.007984720170497894287109375" lon="-4.7637525759637355804443359375">
        <ele>2244.60009765625</ele>
        <time>2021-07-22T10:29:08.000Z</time>
      </trkpt>
      <trkpt lat="43.00797021947801113128662109375" lon="-4.7637777216732501983642578125">
        <ele>2244</ele>
        <time>2021-07-22T10:29:09.000Z</time>
      </trkpt>
      <trkpt lat="43.007963597774505615234375" lon="-4.7638115845620632171630859375">
        <ele>2243</ele>
        <time>2021-07-22T10:29:10.000Z</time>
      </trkpt>
      <trkpt lat="43.00792805850505828857421875" lon="-4.763910658657550811767578125">
        <ele>2241.39990234375</ele>
        <time>2021-07-22T10:29:14.000Z</time>
      </trkpt>
      <trkpt lat="43.0079104565083980560302734375" lon="-4.76390965282917022705078125">
        <ele>2239.800048828125</ele>
        <time>2021-07-22T10:29:15.000Z</time>
      </trkpt>
      <trkpt lat="43.007886819541454315185546875" lon="-4.7639130055904388427734375">
        <ele>2238.39990234375</ele>
        <time>2021-07-22T10:29:16.000Z</time>
      </trkpt>
      <trkpt lat="43.00786628387868404388427734375" lon="-4.76392750628292560577392578125">
        <ele>2237.800048828125</ele>
        <time>2021-07-22T10:29:17.000Z</time>
      </trkpt>
      <trkpt lat="43.00784750841557979583740234375" lon="-4.76395265199244022369384765625">
        <ele>2236.800048828125</ele>
        <time>2021-07-22T10:29:18.000Z</time>
      </trkpt>
      <trkpt lat="43.0078041739761829376220703125" lon="-4.76398718543350696563720703125">
        <ele>2236.199951171875</ele>
        <time>2021-07-22T10:29:20.000Z</time>
      </trkpt>
      <trkpt lat="43.007778860628604888916015625" lon="-4.7640023566782474517822265625">
        <ele>2235.800048828125</ele>
        <time>2021-07-22T10:29:21.000Z</time>
      </trkpt>
      <trkpt lat="43.0077558942139148712158203125" lon="-4.7640117444097995758056640625">
        <ele>2234.800048828125</ele>
        <time>2021-07-22T10:29:22.000Z</time>
      </trkpt>
      <trkpt lat="43.00772110931575298309326171875" lon="-4.7640449367463588714599609375">
        <ele>2233.39990234375</ele>
        <time>2021-07-22T10:29:24.000Z</time>
      </trkpt>
      <trkpt lat="43.00771121867001056671142578125" lon="-4.76407620124518871307373046875">
        <ele>2232.199951171875</ele>
        <time>2021-07-22T10:29:25.000Z</time>
      </trkpt>
      <trkpt lat="43.00770350731909275054931640625" lon="-4.76411106996238231658935546875">
        <ele>2231.199951171875</ele>
        <time>2021-07-22T10:29:26.000Z</time>
      </trkpt>
      <trkpt lat="43.00768774934113025665283203125" lon="-4.76417209021747112274169921875">
        <ele>2230</ele>
        <time>2021-07-22T10:29:28.000Z</time>
      </trkpt>
      <trkpt lat="43.00767266191542148590087890625" lon="-4.7641793824732303619384765625">
        <ele>2229.60009765625</ele>
        <time>2021-07-22T10:29:29.000Z</time>
      </trkpt>
      <trkpt lat="43.0076492764055728912353515625" lon="-4.76419036276638507843017578125">
        <ele>2228.199951171875</ele>
        <time>2021-07-22T10:29:30.000Z</time>
      </trkpt>
      <trkpt lat="43.00763360224664211273193359375" lon="-4.7642259858548641204833984375">
        <ele>2227.199951171875</ele>
        <time>2021-07-22T10:29:31.000Z</time>
      </trkpt>
      <trkpt lat="43.00762220285832881927490234375" lon="-4.76425875909626483917236328125">
        <ele>2226.39990234375</ele>
        <time>2021-07-22T10:29:32.000Z</time>
      </trkpt>
      <trkpt lat="43.0075805447995662689208984375" lon="-4.76435766555368900299072265625">
        <ele>2225</ele>
        <time>2021-07-22T10:29:35.000Z</time>
      </trkpt>
      <trkpt lat="43.00755816511809825897216796875" lon="-4.764378368854522705078125">
        <ele>2224.39990234375</ele>
        <time>2021-07-22T10:29:36.000Z</time>
      </trkpt>
      <trkpt lat="43.007539808750152587890625" lon="-4.764404185116291046142578125">
        <ele>2223.60009765625</ele>
        <time>2021-07-22T10:29:37.000Z</time>
      </trkpt>
      <trkpt lat="43.00750317983329296112060546875" lon="-4.76445271633565425872802734375">
        <ele>2222.199951171875</ele>
        <time>2021-07-22T10:29:39.000Z</time>
      </trkpt>
      <trkpt lat="43.00748012959957122802734375" lon="-4.76446629501879215240478515625">
        <ele>2220.199951171875</ele>
        <time>2021-07-22T10:29:40.000Z</time>
      </trkpt>
      <trkpt lat="43.00743495114147663116455078125" lon="-4.76449026726186275482177734375">
        <ele>2218.800048828125</ele>
        <time>2021-07-22T10:29:42.000Z</time>
      </trkpt>
      <trkpt lat="43.0073834024369716644287109375" lon="-4.76450242102146148681640625">
        <ele>2217.39990234375</ele>
        <time>2021-07-22T10:29:44.000Z</time>
      </trkpt>
      <trkpt lat="43.00736269913613796234130859375" lon="-4.76451977156102657318115234375">
        <ele>2216.60009765625</ele>
        <time>2021-07-22T10:29:45.000Z</time>
      </trkpt>
      <trkpt lat="43.00734207965433597564697265625" lon="-4.7645411454141139984130859375">
        <ele>2216.199951171875</ele>
        <time>2021-07-22T10:29:46.000Z</time>
      </trkpt>
      <trkpt lat="43.00727468915283679962158203125" lon="-4.76457995362579822540283203125">
        <ele>2215</ele>
        <time>2021-07-22T10:29:49.000Z</time>
      </trkpt>
      <trkpt lat="43.0072219669818878173828125" lon="-4.764599986374378204345703125">
        <ele>2214</ele>
        <time>2021-07-22T10:29:51.000Z</time>
      </trkpt>
      <trkpt lat="43.00717678852379322052001953125" lon="-4.76465840823948383331298828125">
        <ele>2213</ele>
        <time>2021-07-22T10:29:53.000Z</time>
      </trkpt>
      <trkpt lat="43.0071527324616909027099609375" lon="-4.76468338631093502044677734375">
        <ele>2212.39990234375</ele>
        <time>2021-07-22T10:29:54.000Z</time>
      </trkpt>
      <trkpt lat="43.00708643160760402679443359375" lon="-4.76477173157036304473876953125">
        <ele>2210.800048828125</ele>
        <time>2021-07-22T10:29:57.000Z</time>
      </trkpt>
      <trkpt lat="43.00706614740192890167236328125" lon="-4.76483141072094440460205078125">
        <ele>2209.60009765625</ele>
        <time>2021-07-22T10:29:59.000Z</time>
      </trkpt>
      <trkpt lat="43.00699959509074687957763671875" lon="-4.76491891779005527496337890625">
        <ele>2208.800048828125</ele>
        <time>2021-07-22T10:30:03.000Z</time>
      </trkpt>
      <trkpt lat="43.00697855651378631591796875" lon="-4.7649411298334598541259765625">
        <ele>2208</ele>
        <time>2021-07-22T10:30:04.000Z</time>
      </trkpt>
      <trkpt lat="43.0069046281278133392333984375" lon="-4.7649907507002353668212890625">
        <ele>2206.800048828125</ele>
        <time>2021-07-22T10:30:07.000Z</time>
      </trkpt>
      <trkpt lat="43.00688358955085277557373046875" lon="-4.7650073468685150146484375">
        <ele>2206.199951171875</ele>
        <time>2021-07-22T10:30:08.000Z</time>
      </trkpt>
      <trkpt lat="43.006861209869384765625" lon="-4.76502545177936553955078125">
        <ele>2205.39990234375</ele>
        <time>2021-07-22T10:30:09.000Z</time>
      </trkpt>
      <trkpt lat="43.00679490901529788970947265625" lon="-4.7650943510234355926513671875">
        <ele>2204</ele>
        <time>2021-07-22T10:30:12.000Z</time>
      </trkpt>
      <trkpt lat="43.006774373352527618408203125" lon="-4.76511253975331783294677734375">
        <ele>2203.199951171875</ele>
        <time>2021-07-22T10:30:13.000Z</time>
      </trkpt>
      <trkpt lat="43.00675467588007450103759765625" lon="-4.7651272080838680267333984375">
        <ele>2202.60009765625</ele>
        <time>2021-07-22T10:30:14.000Z</time>
      </trkpt>
      <trkpt lat="43.00670807249844074249267578125" lon="-4.76515696384012699127197265625">
        <ele>2201.60009765625</ele>
        <time>2021-07-22T10:30:16.000Z</time>
      </trkpt>
      <trkpt lat="43.00666079856455326080322265625" lon="-4.7651959396898746490478515625">
        <ele>2200.60009765625</ele>
        <time>2021-07-22T10:30:18.000Z</time>
      </trkpt>
      <trkpt lat="43.0065898038446903228759765625" lon="-4.7652867995202541351318359375">
        <ele>2199.199951171875</ele>
        <time>2021-07-22T10:30:21.000Z</time>
      </trkpt>
      <trkpt lat="43.00655384548008441925048828125" lon="-4.7653518430888652801513671875">
        <ele>2198.199951171875</ele>
        <time>2021-07-22T10:30:23.000Z</time>
      </trkpt>
      <trkpt lat="43.0065406858921051025390625" lon="-4.76538897491991519927978515625">
        <ele>2198.199951171875</ele>
        <time>2021-07-22T10:30:24.000Z</time>
      </trkpt>
      <trkpt lat="43.00650673918426036834716796875" lon="-4.76542769931256771087646484375">
        <ele>2196.60009765625</ele>
        <time>2021-07-22T10:30:26.000Z</time>
      </trkpt>
      <trkpt lat="43.0064734630286693572998046875" lon="-4.76547681726515293121337890625">
        <ele>2194.60009765625</ele>
        <time>2021-07-22T10:30:28.000Z</time>
      </trkpt>
      <trkpt lat="43.00644286908209323883056640625" lon="-4.76554471068084239959716796875">
        <ele>2193.39990234375</ele>
        <time>2021-07-22T10:30:30.000Z</time>
      </trkpt>
      <trkpt lat="43.0063420347869396209716796875" lon="-4.76560606621205806732177734375">
        <ele>2191.39990234375</ele>
        <time>2021-07-22T10:30:34.000Z</time>
      </trkpt>
      <trkpt lat="43.0062897317111492156982421875" lon="-4.76564847864210605621337890625">
        <ele>2190.199951171875</ele>
        <time>2021-07-22T10:30:36.000Z</time>
      </trkpt>
      <trkpt lat="43.00621412694454193115234375" lon="-4.76571469567716121673583984375">
        <ele>2189.60009765625</ele>
        <time>2021-07-22T10:30:39.000Z</time>
      </trkpt>
      <trkpt lat="43.00609267316758632659912109375" lon="-4.7658208943903446197509765625">
        <ele>2189.199951171875</ele>
        <time>2021-07-22T10:30:44.000Z</time>
      </trkpt>
      <trkpt lat="43.00595805980265140533447265625" lon="-4.76590664125978946685791015625">
        <ele>2190</ele>
        <time>2021-07-22T10:30:50.000Z</time>
      </trkpt>
      <trkpt lat="43.0058486759662628173828125" lon="-4.76599331013858318328857421875">
        <ele>2191</ele>
        <time>2021-07-22T10:30:55.000Z</time>
      </trkpt>
      <trkpt lat="43.005824200809001922607421875" lon="-4.76600286550819873809814453125">
        <ele>2190.800048828125</ele>
        <time>2021-07-22T10:30:56.000Z</time>
      </trkpt>
      <trkpt lat="43.00580332987010478973388671875" lon="-4.7660170309245586395263671875">
        <ele>2191.199951171875</ele>
        <time>2021-07-22T10:30:57.000Z</time>
      </trkpt>
      <trkpt lat="43.0056932754814624786376953125" lon="-4.7660948149859905242919921875">
        <ele>2192.199951171875</ele>
        <time>2021-07-22T10:31:02.000Z</time>
      </trkpt>
      <trkpt lat="43.0055725760757923126220703125" lon="-4.7661605291068553924560546875">
        <ele>2192.60009765625</ele>
        <time>2021-07-22T10:31:07.000Z</time>
      </trkpt>
      <trkpt lat="43.00554701127111911773681640625" lon="-4.76617368869483470916748046875">
        <ele>2192.800048828125</ele>
        <time>2021-07-22T10:31:08.000Z</time>
      </trkpt>
      <trkpt lat="43.00552471540868282318115234375" lon="-4.76618793793022632598876953125">
        <ele>2193.39990234375</ele>
        <time>2021-07-22T10:31:09.000Z</time>
      </trkpt>
      <trkpt lat="43.0054357834160327911376953125" lon="-4.76621593348681926727294921875">
        <ele>2193.60009765625</ele>
        <time>2021-07-22T10:31:13.000Z</time>
      </trkpt>
      <trkpt lat="43.00531717948615550994873046875" lon="-4.76627410389482975006103515625">
        <ele>2194.39990234375</ele>
        <time>2021-07-22T10:31:18.000Z</time>
      </trkpt>
      <trkpt lat="43.0052701570093631744384765625" lon="-4.766287766396999359130859375">
        <ele>2194.800048828125</ele>
        <time>2021-07-22T10:31:20.000Z</time>
      </trkpt>
      <trkpt lat="43.005224727094173431396484375" lon="-4.76632095873355865478515625">
        <ele>2195.199951171875</ele>
        <time>2021-07-22T10:31:23.000Z</time>
      </trkpt>
      <trkpt lat="43.0051672272384166717529296875" lon="-4.7663415782153606414794921875">
        <ele>2196</ele>
        <time>2021-07-22T10:31:28.000Z</time>
      </trkpt>
      <trkpt lat="43.00515390001237392425537109375" lon="-4.766338728368282318115234375">
        <ele>2196.199951171875</ele>
        <time>2021-07-22T10:31:29.000Z</time>
      </trkpt>
      <trkpt lat="43.00514451228082180023193359375" lon="-4.76633344776928424835205078125">
        <ele>2197.199951171875</ele>
        <time>2021-07-22T10:31:32.000Z</time>
      </trkpt>
      <trkpt lat="43.00513763912022113800048828125" lon="-4.76632607169449329376220703125">
        <ele>2197.39990234375</ele>
        <time>2021-07-22T10:31:35.000Z</time>
      </trkpt>
      <trkpt lat="43.0050998367369174957275390625" lon="-4.76633864454925060272216796875">
        <ele>2197.60009765625</ele>
        <time>2021-07-22T10:31:40.000Z</time>
      </trkpt>
      <trkpt lat="43.00506614148616790771484375" lon="-4.7663754411041736602783203125">
        <ele>2198.199951171875</ele>
        <time>2021-07-22T10:31:45.000Z</time>
      </trkpt>
      <trkpt lat="43.00506253726780414581298828125" lon="-4.766379296779632568359375">
        <ele>2198.39990234375</ele>
        <time>2021-07-22T10:31:46.000Z</time>
      </trkpt>
      <trkpt lat="43.00505817867815494537353515625" lon="-4.766377620398998260498046875">
        <ele>2198.39990234375</ele>
        <time>2021-07-22T10:31:47.000Z</time>
      </trkpt>
      <trkpt lat="43.0050311051309108734130859375" lon="-4.76636253297328948974609375">
        <ele>2199.199951171875</ele>
        <time>2021-07-22T10:31:52.000Z</time>
      </trkpt>
      <trkpt lat="43.0050277523696422576904296875" lon="-4.7663543187081813812255859375">
        <ele>2199.39990234375</ele>
        <time>2021-07-22T10:31:53.000Z</time>
      </trkpt>
      <trkpt lat="43.00498961471021175384521484375" lon="-4.76634719409048557281494140625">
        <ele>2200.199951171875</ele>
        <time>2021-07-22T10:31:58.000Z</time>
      </trkpt>
      <trkpt lat="43.00498433411121368408203125" lon="-4.7663462720811367034912109375">
        <ele>2200.39990234375</ele>
        <time>2021-07-22T10:31:59.000Z</time>
      </trkpt>
      <trkpt lat="43.0049234814941883087158203125" lon="-4.7663392312824726104736328125">
        <ele>2200.39990234375</ele>
        <time>2021-07-22T10:32:05.000Z</time>
      </trkpt>
      <trkpt lat="43.0049125850200653076171875" lon="-4.7663305141031742095947265625">
        <ele>2201.39990234375</ele>
        <time>2021-07-22T10:32:11.000Z</time>
      </trkpt>
      <trkpt lat="43.0049033649265766143798828125" lon="-4.766336046159267425537109375">
        <ele>2201.39990234375</ele>
        <time>2021-07-22T10:32:12.000Z</time>
      </trkpt>
      <trkpt lat="43.00486522726714611053466796875" lon="-4.76634702645242214202880859375">
        <ele>2202.39990234375</ele>
        <time>2021-07-22T10:32:18.000Z</time>
      </trkpt>
      <trkpt lat="43.00486095249652862548828125" lon="-4.76634065620601177215576171875">
        <ele>2202.800048828125</ele>
        <time>2021-07-22T10:32:19.000Z</time>
      </trkpt>
      <trkpt lat="43.00484620034694671630859375" lon="-4.766331352293491363525390625">
        <ele>2203.39990234375</ele>
        <time>2021-07-22T10:32:21.000Z</time>
      </trkpt>
      <trkpt lat="43.00482415594160556793212890625" lon="-4.76634819991886615753173828125">
        <ele>2203.60009765625</ele>
        <time>2021-07-22T10:32:23.000Z</time>
      </trkpt>
      <trkpt lat="43.0048195458948612213134765625" lon="-4.7663513012230396270751953125">
        <ele>2203.800048828125</ele>
        <time>2021-07-22T10:32:24.000Z</time>
      </trkpt>
      <trkpt lat="43.00481812097132205963134765625" lon="-4.766345433890819549560546875">
        <ele>2205</ele>
        <time>2021-07-22T10:32:26.000Z</time>
      </trkpt>
      <trkpt lat="43.00481258891522884368896484375" lon="-4.766325317323207855224609375">
        <ele>2205.800048828125</ele>
        <time>2021-07-22T10:32:28.000Z</time>
      </trkpt>
      <trkpt lat="43.00480621866881847381591796875" lon="-4.76631299592554569244384765625">
        <ele>2206</ele>
        <time>2021-07-22T10:32:29.000Z</time>
      </trkpt>
      <trkpt lat="43.0047853477299213409423828125" lon="-4.76629924960434436798095703125">
        <ele>2207</ele>
        <time>2021-07-22T10:32:31.000Z</time>
      </trkpt>
      <trkpt lat="43.004776127636432647705078125" lon="-4.76629807613790035247802734375">
        <ele>2207.199951171875</ele>
        <time>2021-07-22T10:32:32.000Z</time>
      </trkpt>
      <trkpt lat="43.004769422113895416259765625" lon="-4.766300506889820098876953125">
        <ele>2208</ele>
        <time>2021-07-22T10:32:34.000Z</time>
      </trkpt>
      <trkpt lat="43.00476246513426303863525390625" lon="-4.7663103975355625152587890625">
        <ele>2208.39990234375</ele>
        <time>2021-07-22T10:32:35.000Z</time>
      </trkpt>
      <trkpt lat="43.00474000163376331329345703125" lon="-4.766352809965610504150390625">
        <ele>2209.39990234375</ele>
        <time>2021-07-22T10:32:40.000Z</time>
      </trkpt>
      <trkpt lat="43.00473446957767009735107421875" lon="-4.76636387407779693603515625">
        <ele>2209.800048828125</ele>
        <time>2021-07-22T10:32:41.000Z</time>
      </trkpt>
      <trkpt lat="43.00471049733459949493408203125" lon="-4.7664116509258747100830078125">
        <ele>2210.800048828125</ele>
        <time>2021-07-22T10:32:45.000Z</time>
      </trkpt>
      <trkpt lat="43.00467981956899166107177734375" lon="-4.7664471901953220367431640625">
        <ele>2212</ele>
        <time>2021-07-22T10:32:49.000Z</time>
      </trkpt>
      <trkpt lat="43.00466808490455150604248046875" lon="-4.76646018214523792266845703125">
        <ele>2212.199951171875</ele>
        <time>2021-07-22T10:32:50.000Z</time>
      </trkpt>
      <trkpt lat="43.0046586133539676666259765625" lon="-4.7664669714868068695068359375">
        <ele>2212.39990234375</ele>
        <time>2021-07-22T10:32:51.000Z</time>
      </trkpt>
      <trkpt lat="43.00463204272091388702392578125" lon="-4.7664807178080081939697265625">
        <ele>2213.60009765625</ele>
        <time>2021-07-22T10:32:54.000Z</time>
      </trkpt>
      <trkpt lat="43.00461695529520511627197265625" lon="-4.76648264564573764801025390625">
        <ele>2214.60009765625</ele>
        <time>2021-07-22T10:32:56.000Z</time>
      </trkpt>
      <trkpt lat="43.0046073161065578460693359375" lon="-4.76648499257862567901611328125">
        <ele>2215</ele>
        <time>2021-07-22T10:32:57.000Z</time>
      </trkpt>
      <trkpt lat="43.0045960843563079833984375" lon="-4.76649890653789043426513671875">
        <ele>2215.39990234375</ele>
        <time>2021-07-22T10:32:59.000Z</time>
      </trkpt>
      <trkpt lat="43.00459365360438823699951171875" lon="-4.7665078751742839813232421875">
        <ele>2215.800048828125</ele>
        <time>2021-07-22T10:33:00.000Z</time>
      </trkpt>
      <trkpt lat="43.00458510406315326690673828125" lon="-4.7665169276297092437744140625">
        <ele>2216.199951171875</ele>
        <time>2021-07-22T10:33:01.000Z</time>
      </trkpt>
      <trkpt lat="43.00454453565180301666259765625" lon="-4.76653059013187885284423828125">
        <ele>2216.60009765625</ele>
        <time>2021-07-22T10:33:04.000Z</time>
      </trkpt>
      <trkpt lat="43.00454034470021724700927734375" lon="-4.7665336914360523223876953125">
        <ele>2216.60009765625</ele>
        <time>2021-07-22T10:33:05.000Z</time>
      </trkpt>
      <trkpt lat="43.0045214854180812835693359375" lon="-4.76654517464339733123779296875">
        <ele>2216.800048828125</ele>
        <time>2021-07-22T10:33:07.000Z</time>
      </trkpt>
      <trkpt lat="43.00447178073227405548095703125" lon="-4.76655841805040836334228515625">
        <ele>2217.199951171875</ele>
        <time>2021-07-22T10:33:11.000Z</time>
      </trkpt>
      <trkpt lat="43.00446130335330963134765625" lon="-4.76657166145741939544677734375">
        <ele>2217.39990234375</ele>
        <time>2021-07-22T10:33:14.000Z</time>
      </trkpt>
      <trkpt lat="43.0044587887823581695556640625" lon="-4.7665662132203578948974609375">
        <ele>2217.39990234375</ele>
        <time>2021-07-22T10:33:16.000Z</time>
      </trkpt>
      <trkpt lat="43.004468344151973724365234375" lon="-4.7665598429739475250244140625">
        <ele>2217</ele>
        <time>2021-07-22T10:33:23.000Z</time>
      </trkpt>
      <trkpt lat="43.004464320838451385498046875" lon="-4.76657669059932231903076171875">
        <ele>2216.800048828125</ele>
        <time>2021-07-22T10:33:26.000Z</time>
      </trkpt>
      <trkpt lat="43.00444445572793483734130859375" lon="-4.76658222265541553497314453125">
        <ele>2217</ele>
        <time>2021-07-22T10:33:32.000Z</time>
      </trkpt>
      <trkpt lat="43.00437924452126026153564453125" lon="-4.76659496314823627471923828125">
        <ele>2217.199951171875</ele>
        <time>2021-07-22T10:33:37.000Z</time>
      </trkpt>
      <trkpt lat="43.0043401010334491729736328125" lon="-4.76662262342870235443115234375">
        <ele>2218</ele>
        <time>2021-07-22T10:33:41.000Z</time>
      </trkpt>
      <trkpt lat="43.0043037235736846923828125" lon="-4.7666557319462299346923828125">
        <ele>2219</ele>
        <time>2021-07-22T10:33:44.000Z</time>
      </trkpt>
      <trkpt lat="43.0042820982635021209716796875" lon="-4.76667861454188823699951171875">
        <ele>2219</ele>
        <time>2021-07-22T10:33:46.000Z</time>
      </trkpt>
      <trkpt lat="43.00420355983078479766845703125" lon="-4.76671180687844753265380859375">
        <ele>2219.60009765625</ele>
        <time>2021-07-22T10:33:53.000Z</time>
      </trkpt>
      <trkpt lat="43.00411923788487911224365234375" lon="-4.7667373716831207275390625">
        <ele>2219.800048828125</ele>
        <time>2021-07-22T10:33:59.000Z</time>
      </trkpt>
      <trkpt lat="43.00405017100274562835693359375" lon="-4.7667814604938030242919921875">
        <ele>2220.39990234375</ele>
        <time>2021-07-22T10:34:03.000Z</time>
      </trkpt>
      <trkpt lat="43.0040140450000762939453125" lon="-4.766805432736873626708984375">
        <ele>2221</ele>
        <time>2021-07-22T10:34:05.000Z</time>
      </trkpt>
      <trkpt lat="43.0039498396217823028564453125" lon="-4.7668351046741008758544921875">
        <ele>2221.800048828125</ele>
        <time>2021-07-22T10:34:09.000Z</time>
      </trkpt>
      <trkpt lat="43.003907091915607452392578125" lon="-4.76685077883303165435791015625">
        <ele>2222.39990234375</ele>
        <time>2021-07-22T10:34:11.000Z</time>
      </trkpt>
      <trkpt lat="43.00385084934532642364501953125" lon="-4.7668793611228466033935546875">
        <ele>2223</ele>
        <time>2021-07-22T10:34:14.000Z</time>
      </trkpt>
      <trkpt lat="43.00379083491861820220947265625" lon="-4.7669149003922939300537109375">
        <ele>2224.39990234375</ele>
        <time>2021-07-22T10:34:17.000Z</time>
      </trkpt>
      <trkpt lat="43.0037362687289714813232421875" lon="-4.76691062562167644500732421875">
        <ele>2225.60009765625</ele>
        <time>2021-07-22T10:34:20.000Z</time>
      </trkpt>
      <trkpt lat="43.0037029087543487548828125" lon="-4.766898639500141143798828125">
        <ele>2226</ele>
        <time>2021-07-22T10:34:22.000Z</time>
      </trkpt>
      <trkpt lat="43.0036641843616962432861328125" lon="-4.76689285598695278167724609375">
        <ele>2226.60009765625</ele>
        <time>2021-07-22T10:34:25.000Z</time>
      </trkpt>
      <trkpt lat="43.00364247523248195648193359375" lon="-4.7669024951756000518798828125">
        <ele>2227</ele>
        <time>2021-07-22T10:34:27.000Z</time>
      </trkpt>
      <trkpt lat="43.00361699424684047698974609375" lon="-4.76692839525640010833740234375">
        <ele>2227.39990234375</ele>
        <time>2021-07-22T10:34:30.000Z</time>
      </trkpt>
      <trkpt lat="43.00360567867755889892578125" lon="-4.7669439017772674560546875">
        <ele>2227.800048828125</ele>
        <time>2021-07-22T10:34:31.000Z</time>
      </trkpt>
      <trkpt lat="43.00359402783215045928955078125" lon="-4.76695102639496326446533203125">
        <ele>2227.800048828125</ele>
        <time>2021-07-22T10:34:32.000Z</time>
      </trkpt>
      <trkpt lat="43.00357273779809474945068359375" lon="-4.766958989202976226806640625">
        <ele>2228</ele>
        <time>2021-07-22T10:34:34.000Z</time>
      </trkpt>
      <trkpt lat="43.0035565607249736785888671875" lon="-4.7669618390500545501708984375">
        <ele>2228.60009765625</ele>
        <time>2021-07-22T10:34:36.000Z</time>
      </trkpt>
      <trkpt lat="43.00355329178273677825927734375" lon="-4.76696468889713287353515625">
        <ele>2228.800048828125</ele>
        <time>2021-07-22T10:34:37.000Z</time>
      </trkpt>
      <trkpt lat="43.00355211831629276275634765625" lon="-4.76696661673486232757568359375">
        <ele>2228.60009765625</ele>
        <time>2021-07-22T10:34:38.000Z</time>
      </trkpt>
      <trkpt lat="43.00355312414467334747314453125" lon="-4.76695857010781764984130859375">
        <ele>2228.60009765625</ele>
        <time>2021-07-22T10:34:41.000Z</time>
      </trkpt>
      <trkpt lat="43.00355681218206882476806640625" lon="-4.7669604979455471038818359375">
        <ele>2228.39990234375</ele>
        <time>2021-07-22T10:34:43.000Z</time>
      </trkpt>
      <trkpt lat="43.003532923758029937744140625" lon="-4.7669658623635768890380859375">
        <ele>2228.39990234375</ele>
        <time>2021-07-22T10:34:50.000Z</time>
      </trkpt>
      <trkpt lat="43.00348154269158840179443359375" lon="-4.76694482378661632537841796875">
        <ele>2229.39990234375</ele>
        <time>2021-07-22T10:34:55.000Z</time>
      </trkpt>
      <trkpt lat="43.00345606170594692230224609375" lon="-4.76695320568978786468505859375">
        <ele>2230</ele>
        <time>2021-07-22T10:34:57.000Z</time>
      </trkpt>
      <trkpt lat="43.0034261383116245269775390625" lon="-4.7669547982513904571533203125">
        <ele>2231.199951171875</ele>
        <time>2021-07-22T10:34:59.000Z</time>
      </trkpt>
      <trkpt lat="43.00341046415269374847412109375" lon="-4.76695337332785129547119140625">
        <ele>2231.39990234375</ele>
        <time>2021-07-22T10:35:00.000Z</time>
      </trkpt>
      <trkpt lat="43.0033493600785732269287109375" lon="-4.76695387624204158782958984375">
        <ele>2232.199951171875</ele>
        <time>2021-07-22T10:35:03.000Z</time>
      </trkpt>
      <trkpt lat="43.00329588353633880615234375" lon="-4.766936860978603363037109375">
        <ele>2232.800048828125</ele>
        <time>2021-07-22T10:35:06.000Z</time>
      </trkpt>
      <trkpt lat="43.003252632915973663330078125" lon="-4.76692738942801952362060546875">
        <ele>2233.39990234375</ele>
        <time>2021-07-22T10:35:08.000Z</time>
      </trkpt>
      <trkpt lat="43.00319823436439037322998046875" lon="-4.76692101918160915374755859375">
        <ele>2234.39990234375</ele>
        <time>2021-07-22T10:35:11.000Z</time>
      </trkpt>
      <trkpt lat="43.0031776987016201019287109375" lon="-4.766922779381275177001953125">
        <ele>2234.60009765625</ele>
        <time>2021-07-22T10:35:12.000Z</time>
      </trkpt>
      <trkpt lat="43.00306596793234348297119140625" lon="-4.76692588068544864654541015625">
        <ele>2235.39990234375</ele>
        <time>2021-07-22T10:35:18.000Z</time>
      </trkpt>
      <trkpt lat="43.0030466057360172271728515625" lon="-4.76692604832351207733154296875">
        <ele>2235.39990234375</ele>
        <time>2021-07-22T10:35:19.000Z</time>
      </trkpt>
      <trkpt lat="43.0029403232038021087646484375" lon="-4.76690442301332950592041015625">
        <ele>2236.39990234375</ele>
        <time>2021-07-22T10:35:24.000Z</time>
      </trkpt>
      <trkpt lat="43.0029245652258396148681640625" lon="-4.76689495146274566650390625">
        <ele>2236.60009765625</ele>
        <time>2021-07-22T10:35:25.000Z</time>
      </trkpt>
      <trkpt lat="43.002877794206142425537109375" lon="-4.766886234283447265625">
        <ele>2237.800048828125</ele>
        <time>2021-07-22T10:35:28.000Z</time>
      </trkpt>
      <trkpt lat="43.00286748446524143218994140625" lon="-4.7668830491602420806884765625">
        <ele>2238.60009765625</ele>
        <time>2021-07-22T10:35:29.000Z</time>
      </trkpt>
      <trkpt lat="43.00285289995372295379638671875" lon="-4.766887240111827850341796875">
        <ele>2238.60009765625</ele>
        <time>2021-07-22T10:35:30.000Z</time>
      </trkpt>
      <trkpt lat="43.00281367264688014984130859375" lon="-4.766899980604648590087890625">
        <ele>2239</ele>
        <time>2021-07-22T10:35:33.000Z</time>
      </trkpt>
      <trkpt lat="43.002784252166748046875" lon="-4.766908697783946990966796875">
        <ele>2239.60009765625</ele>
        <time>2021-07-22T10:35:35.000Z</time>
      </trkpt>
      <trkpt lat="43.00273823551833629608154296875" lon="-4.766915403306484222412109375">
        <ele>2240</ele>
        <time>2021-07-22T10:35:39.000Z</time>
      </trkpt>
      <trkpt lat="43.0027190409600734710693359375" lon="-4.766921438276767730712890625">
        <ele>2240.60009765625</ele>
        <time>2021-07-22T10:35:41.000Z</time>
      </trkpt>
      <trkpt lat="43.00269314087927341461181640625" lon="-4.766932837665081024169921875">
        <ele>2241.199951171875</ele>
        <time>2021-07-22T10:35:43.000Z</time>
      </trkpt>
      <trkpt lat="43.00264519639313220977783203125" lon="-4.76694901473820209503173828125">
        <ele>2241</ele>
        <time>2021-07-22T10:35:46.000Z</time>
      </trkpt>
      <trkpt lat="43.00261217169463634490966796875" lon="-4.766964353621006011962890625">
        <ele>2241</ele>
        <time>2021-07-22T10:35:49.000Z</time>
      </trkpt>
      <trkpt lat="43.00258576869964599609375" lon="-4.76700617931783199310302734375">
        <ele>2241.800048828125</ele>
        <time>2021-07-22T10:35:52.000Z</time>
      </trkpt>
      <trkpt lat="43.0025685019791126251220703125" lon="-4.76703937165439128875732421875">
        <ele>2242.39990234375</ele>
        <time>2021-07-22T10:35:54.000Z</time>
      </trkpt>
      <trkpt lat="43.00251527689397335052490234375" lon="-4.76711296476423740386962890625">
        <ele>2243</ele>
        <time>2021-07-22T10:35:58.000Z</time>
      </trkpt>
      <trkpt lat="43.00246615894138813018798828125" lon="-4.767142720520496368408203125">
        <ele>2243.39990234375</ele>
        <time>2021-07-22T10:36:00.000Z</time>
      </trkpt>
      <trkpt lat="43.0023914761841297149658203125" lon="-4.76716987788677215576171875">
        <ele>2243.800048828125</ele>
        <time>2021-07-22T10:36:03.000Z</time>
      </trkpt>
      <trkpt lat="43.00229181535542011260986328125" lon="-4.76724590174853801727294921875">
        <ele>2243.800048828125</ele>
        <time>2021-07-22T10:36:08.000Z</time>
      </trkpt>
      <trkpt lat="43.00218410789966583251953125" lon="-4.7673355042934417724609375">
        <ele>2244.199951171875</ele>
        <time>2021-07-22T10:36:14.000Z</time>
      </trkpt>
      <trkpt lat="43.00205075182020664215087890625" lon="-4.76739627309143543243408203125">
        <ele>2244.199951171875</ele>
        <time>2021-07-22T10:36:20.000Z</time>
      </trkpt>
      <trkpt lat="43.00201940350234508514404296875" lon="-4.7674191556870937347412109375">
        <ele>2244.800048828125</ele>
        <time>2021-07-22T10:36:23.000Z</time>
      </trkpt>
      <trkpt lat="43.00201244652271270751953125" lon="-4.767425693571567535400390625">
        <ele>2245.199951171875</ele>
        <time>2021-07-22T10:36:24.000Z</time>
      </trkpt>
      <trkpt lat="43.00201722420752048492431640625" lon="-4.767427034676074981689453125">
        <ele>2246.199951171875</ele>
        <time>2021-07-22T10:36:26.000Z</time>
      </trkpt>
      <trkpt lat="43.00202594138681888580322265625" lon="-4.767427034676074981689453125">
        <ele>2246.800048828125</ele>
        <time>2021-07-22T10:36:30.000Z</time>
      </trkpt>
      <trkpt lat="43.00202392973005771636962890625" lon="-4.76742041297256946563720703125">
        <ele>2246.39990234375</ele>
        <time>2021-07-22T10:36:33.000Z</time>
      </trkpt>
      <trkpt lat="43.0016391165554523468017578125" lon="-4.76770690642297267913818359375">
        <ele>2241</ele>
        <time>2021-07-22T10:44:43.000Z</time>
      </trkpt>
      <trkpt lat="43.00162998028099536895751953125" lon="-4.7677155397832393646240234375">
        <ele>2241.199951171875</ele>
        <time>2021-07-22T10:44:44.000Z</time>
      </trkpt>
      <trkpt lat="43.00161958672106266021728515625" lon="-4.76773305796086788177490234375">
        <ele>2241.39990234375</ele>
        <time>2021-07-22T10:44:46.000Z</time>
      </trkpt>
      <trkpt lat="43.00160718150436878204345703125" lon="-4.7677483968436717987060546875">
        <ele>2239.800048828125</ele>
        <time>2021-07-22T10:44:52.000Z</time>
      </trkpt>
      <trkpt lat="43.00160265527665615081787109375" lon="-4.7677577845752239227294921875">
        <ele>2239.39990234375</ele>
        <time>2021-07-22T10:44:56.000Z</time>
      </trkpt>
      <trkpt lat="43.001607768237590789794921875" lon="-4.76775552146136760711669921875">
        <ele>2240.60009765625</ele>
        <time>2021-07-22T10:45:00.000Z</time>
      </trkpt>
      <trkpt lat="43.0016099475324153900146484375" lon="-4.767748899757862091064453125">
        <ele>2240.800048828125</ele>
        <time>2021-07-22T10:45:02.000Z</time>
      </trkpt>
      <trkpt lat="43.0016096122562885284423828125" lon="-4.7677346505224704742431640625">
        <ele>2240.60009765625</ele>
        <time>2021-07-22T10:45:12.000Z</time>
      </trkpt>
      <trkpt lat="43.0016054213047027587890625" lon="-4.76773473434150218963623046875">
        <ele>2239.60009765625</ele>
        <time>2021-07-22T10:45:13.000Z</time>
      </trkpt>
      <trkpt lat="43.00159712322056293487548828125" lon="-4.7677557729184627532958984375">
        <ele>2238.60009765625</ele>
        <time>2021-07-22T10:45:16.000Z</time>
      </trkpt>
      <trkpt lat="43.00158589147031307220458984375" lon="-4.767764993011951446533203125">
        <ele>2239.800048828125</ele>
        <time>2021-07-22T10:45:19.000Z</time>
      </trkpt>
      <trkpt lat="43.00158237107098102569580078125" lon="-4.7677378356456756591796875">
        <ele>2239.60009765625</ele>
        <time>2021-07-22T10:45:25.000Z</time>
      </trkpt>
      <trkpt lat="43.0015839636325836181640625" lon="-4.7677405178546905517578125">
        <ele>2239.800048828125</ele>
        <time>2021-07-22T10:45:27.000Z</time>
      </trkpt>
      <trkpt lat="43.00157968886196613311767578125" lon="-4.76774345152080059051513671875">
        <ele>2239.199951171875</ele>
        <time>2021-07-22T10:45:35.000Z</time>
      </trkpt>
      <trkpt lat="43.0015839636325836181640625" lon="-4.7677520848810672760009765625">
        <ele>2239.199951171875</ele>
        <time>2021-07-22T10:45:39.000Z</time>
      </trkpt>
      <trkpt lat="43.0016025714576244354248046875" lon="-4.767750240862369537353515625">
        <ele>2238.800048828125</ele>
        <time>2021-07-22T10:45:43.000Z</time>
      </trkpt>
      <trkpt lat="43.0015955306589603424072265625" lon="-4.7677547670900821685791015625">
        <ele>2238.39990234375</ele>
        <time>2021-07-22T10:45:49.000Z</time>
      </trkpt>
      <trkpt lat="43.00159142352640628814697265625" lon="-4.76776599884033203125">
        <ele>2238.39990234375</ele>
        <time>2021-07-22T10:45:53.000Z</time>
      </trkpt>
      <trkpt lat="43.001586310565471649169921875" lon="-4.767767675220966339111328125">
        <ele>2238.39990234375</ele>
        <time>2021-07-22T10:45:54.000Z</time>
      </trkpt>
      <trkpt lat="43.00152386538684368133544921875" lon="-4.76780422031879425048828125">
        <ele>2238.60009765625</ele>
        <time>2021-07-22T10:45:59.000Z</time>
      </trkpt>
      <trkpt lat="43.00148296169936656951904296875" lon="-4.7678268514573574066162109375">
        <ele>2237.199951171875</ele>
        <time>2021-07-22T10:46:05.000Z</time>
      </trkpt>
      <trkpt lat="43.0014788545668125152587890625" lon="-4.76783582009375095367431640625">
        <ele>2236.39990234375</ele>
        <time>2021-07-22T10:46:06.000Z</time>
      </trkpt>
      <trkpt lat="43.0014738254249095916748046875" lon="-4.76783967576920986175537109375">
        <ele>2235.800048828125</ele>
        <time>2021-07-22T10:46:07.000Z</time>
      </trkpt>
      <trkpt lat="43.001453876495361328125" lon="-4.76785912178456783294677734375">
        <ele>2235.199951171875</ele>
        <time>2021-07-22T10:46:11.000Z</time>
      </trkpt>
      <trkpt lat="43.0014364421367645263671875" lon="-4.76788602769374847412109375">
        <ele>2234</ele>
        <time>2021-07-22T10:46:13.000Z</time>
      </trkpt>
      <trkpt lat="43.00142814405262470245361328125" lon="-4.76790589280426502227783203125">
        <ele>2232.800048828125</ele>
        <time>2021-07-22T10:46:15.000Z</time>
      </trkpt>
      <trkpt lat="43.00141406245529651641845703125" lon="-4.7679550945758819580078125">
        <ele>2231.39990234375</ele>
        <time>2021-07-22T10:46:17.000Z</time>
      </trkpt>
      <trkpt lat="43.00139159895479679107666015625" lon="-4.7679680027067661285400390625">
        <ele>2230.60009765625</ele>
        <time>2021-07-22T10:46:19.000Z</time>
      </trkpt>
      <trkpt lat="43.00136997364461421966552734375" lon="-4.7679686732590198516845703125">
        <ele>2229.39990234375</ele>
        <time>2021-07-22T10:46:20.000Z</time>
      </trkpt>
      <trkpt lat="43.00133510492742061614990234375" lon="-4.76797965355217456817626953125">
        <ele>2228</ele>
        <time>2021-07-22T10:46:22.000Z</time>
      </trkpt>
      <trkpt lat="43.0013004876673221588134765625" lon="-4.7680136002600193023681640625">
        <ele>2227.800048828125</ele>
        <time>2021-07-22T10:46:24.000Z</time>
      </trkpt>
      <trkpt lat="43.0012424848973751068115234375" lon="-4.76802349090576171875">
        <ele>2226.800048828125</ele>
        <time>2021-07-22T10:46:27.000Z</time>
      </trkpt>
      <trkpt lat="43.0011982284486293792724609375" lon="-4.76801921613514423370361328125">
        <ele>2225.39990234375</ele>
        <time>2021-07-22T10:46:29.000Z</time>
      </trkpt>
      <trkpt lat="43.00113796256482601165771484375" lon="-4.7680162824690341949462890625">
        <ele>2224.39990234375</ele>
        <time>2021-07-22T10:46:32.000Z</time>
      </trkpt>
      <trkpt lat="43.00109571777284145355224609375" lon="-4.7680409252643585205078125">
        <ele>2223.60009765625</ele>
        <time>2021-07-22T10:46:34.000Z</time>
      </trkpt>
      <trkpt lat="43.001082055270671844482421875" lon="-4.7680716030299663543701171875">
        <ele>2223.39990234375</ele>
        <time>2021-07-22T10:46:35.000Z</time>
      </trkpt>
      <trkpt lat="43.00106319598853588104248046875" lon="-4.7681342996656894683837890625">
        <ele>2222.60009765625</ele>
        <time>2021-07-22T10:46:38.000Z</time>
      </trkpt>
      <trkpt lat="43.00105615518987178802490234375" lon="-4.7681359760463237762451171875">
        <ele>2221.199951171875</ele>
        <time>2021-07-22T10:46:39.000Z</time>
      </trkpt>
      <trkpt lat="43.00104827620089054107666015625" lon="-4.7681436873972415924072265625">
        <ele>2219</ele>
        <time>2021-07-22T10:46:41.000Z</time>
      </trkpt>
      <trkpt lat="43.00103880465030670166015625" lon="-4.768182747066020965576171875">
        <ele>2218.199951171875</ele>
        <time>2021-07-22T10:46:43.000Z</time>
      </trkpt>
      <trkpt lat="43.001033775508403778076171875" lon="-4.76821769960224628448486328125">
        <ele>2218.800048828125</ele>
        <time>2021-07-22T10:46:45.000Z</time>
      </trkpt>
      <trkpt lat="43.00103880465030670166015625" lon="-4.76828492246568202972412109375">
        <ele>2220.199951171875</ele>
        <time>2021-07-22T10:46:49.000Z</time>
      </trkpt>
      <trkpt lat="43.00104592926800251007080078125" lon="-4.7683260776102542877197265625">
        <ele>2219.60009765625</ele>
        <time>2021-07-22T10:46:52.000Z</time>
      </trkpt>
      <trkpt lat="43.00105565227568149566650390625" lon="-4.76839430630207061767578125">
        <ele>2221.800048828125</ele>
        <time>2021-07-22T10:46:56.000Z</time>
      </trkpt>
      <trkpt lat="43.00105347298085689544677734375" lon="-4.76842674426734447479248046875">
        <ele>2221.800048828125</ele>
        <time>2021-07-22T10:46:58.000Z</time>
      </trkpt>
      <trkpt lat="43.001048527657985687255859375" lon="-4.76845063269138336181640625">
        <ele>2222</ele>
        <time>2021-07-22T10:47:00.000Z</time>
      </trkpt>
      <trkpt lat="43.00104291178286075592041015625" lon="-4.768493883311748504638671875">
        <ele>2218</ele>
        <time>2021-07-22T10:47:03.000Z</time>
      </trkpt>
      <trkpt lat="43.00103754736483097076416015625" lon="-4.76849815808236598968505859375">
        <ele>2215.800048828125</ele>
        <time>2021-07-22T10:47:04.000Z</time>
      </trkpt>
      <trkpt lat="43.00103008747100830078125" lon="-4.768495894968509674072265625">
        <ele>2213</ele>
        <time>2021-07-22T10:47:05.000Z</time>
      </trkpt>
      <trkpt lat="43.00102271139621734619140625" lon="-4.7684917040169239044189453125">
        <ele>2210.39990234375</ele>
        <time>2021-07-22T10:47:06.000Z</time>
      </trkpt>
      <trkpt lat="43.001015670597553253173828125" lon="-4.7684940509498119354248046875">
        <ele>2209</ele>
        <time>2021-07-22T10:47:07.000Z</time>
      </trkpt>
      <trkpt lat="43.00100217573344707489013671875" lon="-4.76849983446300029754638671875">
        <ele>2208.199951171875</ele>
        <time>2021-07-22T10:47:08.000Z</time>
      </trkpt>
      <trkpt lat="43.000989854335784912109375" lon="-4.76850972510874271392822265625">
        <ele>2207.800048828125</ele>
        <time>2021-07-22T10:47:09.000Z</time>
      </trkpt>
      <trkpt lat="43.00097485072910785675048828125" lon="-4.768551886081695556640625">
        <ele>2207.800048828125</ele>
        <time>2021-07-22T10:47:11.000Z</time>
      </trkpt>
      <trkpt lat="43.0009715817868709564208984375" lon="-4.76857057772576808929443359375">
        <ele>2209</ele>
        <time>2021-07-22T10:47:12.000Z</time>
      </trkpt>
      <trkpt lat="43.0009643733501434326171875" lon="-4.76861399598419666290283203125">
        <ele>2210.199951171875</ele>
        <time>2021-07-22T10:47:15.000Z</time>
      </trkpt>
      <trkpt lat="43.000964038074016571044921875" lon="-4.76861852221190929412841796875">
        <ele>2210.199951171875</ele>
        <time>2021-07-22T10:47:16.000Z</time>
      </trkpt>
      <trkpt lat="43.0009568296372890472412109375" lon="-4.76864702068269252777099609375">
        <ele>2209.39990234375</ele>
        <time>2021-07-22T10:47:18.000Z</time>
      </trkpt>
      <trkpt lat="43.0009561590850353240966796875" lon="-4.76866629905998706817626953125">
        <ele>2208.60009765625</ele>
        <time>2021-07-22T10:47:19.000Z</time>
      </trkpt>
      <trkpt lat="43.00095356069505214691162109375" lon="-4.76873251609504222869873046875">
        <ele>2207.800048828125</ele>
        <time>2021-07-22T10:47:24.000Z</time>
      </trkpt>
      <trkpt lat="43.00095942802727222442626953125" lon="-4.768739975988864898681640625">
        <ele>2207.60009765625</ele>
        <time>2021-07-22T10:47:25.000Z</time>
      </trkpt>
      <trkpt lat="43.0009635351598262786865234375" lon="-4.7687367908656597137451171875">
        <ele>2207.39990234375</ele>
        <time>2021-07-22T10:47:27.000Z</time>
      </trkpt>
      <trkpt lat="43.00094702281057834625244140625" lon="-4.768731594085693359375">
        <ele>2205.800048828125</ele>
        <time>2021-07-22T10:47:29.000Z</time>
      </trkpt>
      <trkpt lat="43.0009348690509796142578125" lon="-4.768731258809566497802734375">
        <ele>2205.199951171875</ele>
        <time>2021-07-22T10:47:30.000Z</time>
      </trkpt>
      <trkpt lat="43.00091852433979511260986328125" lon="-4.76873536594212055206298828125">
        <ele>2204.800048828125</ele>
        <time>2021-07-22T10:47:31.000Z</time>
      </trkpt>
      <trkpt lat="43.000886924564838409423828125" lon="-4.76876570843160152435302734375">
        <ele>2203.800048828125</ele>
        <time>2021-07-22T10:47:33.000Z</time>
      </trkpt>
      <trkpt lat="43.00088298507034778594970703125" lon="-4.76879487745463848114013671875">
        <ele>2203.60009765625</ele>
        <time>2021-07-22T10:47:34.000Z</time>
      </trkpt>
      <trkpt lat="43.00088415853679180145263671875" lon="-4.76882371120154857635498046875">
        <ele>2203.60009765625</ele>
        <time>2021-07-22T10:47:35.000Z</time>
      </trkpt>
      <trkpt lat="43.00089036114513874053955078125" lon="-4.76891088299453258514404296875">
        <ele>2203.39990234375</ele>
        <time>2021-07-22T10:47:39.000Z</time>
      </trkpt>
      <trkpt lat="43.000887595117092132568359375" lon="-4.76896452717483043670654296875">
        <ele>2203</ele>
        <time>2021-07-22T10:47:41.000Z</time>
      </trkpt>
      <trkpt lat="43.00088466145098209381103515625" lon="-4.76898849941790103912353515625">
        <ele>2202</ele>
        <time>2021-07-22T10:47:42.000Z</time>
      </trkpt>
      <trkpt lat="43.0008867569267749786376953125" lon="-4.769050441682338714599609375">
        <ele>2200.800048828125</ele>
        <time>2021-07-22T10:47:45.000Z</time>
      </trkpt>
      <trkpt lat="43.0008864216506481170654296875" lon="-4.76908899843692779541015625">
        <ele>2200.60009765625</ele>
        <time>2021-07-22T10:47:47.000Z</time>
      </trkpt>
      <trkpt lat="43.00087091512978076934814453125" lon="-4.7691934369504451751708984375">
        <ele>2199.800048828125</ele>
        <time>2021-07-22T10:47:53.000Z</time>
      </trkpt>
      <trkpt lat="43.00087426789104938507080078125" lon="-4.7692775912582874298095703125">
        <ele>2199.39990234375</ele>
        <time>2021-07-22T10:47:57.000Z</time>
      </trkpt>
      <trkpt lat="43.000868819653987884521484375" lon="-4.76931723766028881072998046875">
        <ele>2199</ele>
        <time>2021-07-22T10:48:00.000Z</time>
      </trkpt>
      <trkpt lat="43.00087309442460536956787109375" lon="-4.76945704780519008636474609375">
        <ele>2200</ele>
        <time>2021-07-22T10:48:07.000Z</time>
      </trkpt>
      <trkpt lat="43.0008666403591632843017578125" lon="-4.76951588876545429229736328125">
        <ele>2197.39990234375</ele>
        <time>2021-07-22T10:48:10.000Z</time>
      </trkpt>
      <trkpt lat="43.0008696578443050384521484375" lon="-4.7695622406899929046630859375">
        <ele>2194.60009765625</ele>
        <time>2021-07-22T10:48:12.000Z</time>
      </trkpt>
      <trkpt lat="43.0008637905120849609375" lon="-4.76957825012505054473876953125">
        <ele>2193.60009765625</ele>
        <time>2021-07-22T10:48:13.000Z</time>
      </trkpt>
      <trkpt lat="43.00086370669305324554443359375" lon="-4.769694171845912933349609375">
        <ele>2193</ele>
        <time>2021-07-22T10:48:18.000Z</time>
      </trkpt>
      <trkpt lat="43.0008669756352901458740234375" lon="-4.76972443051636219024658203125">
        <ele>2193.199951171875</ele>
        <time>2021-07-22T10:48:19.000Z</time>
      </trkpt>
      <trkpt lat="43.00087678246200084686279296875" lon="-4.76981143467128276824951171875">
        <ele>2194</ele>
        <time>2021-07-22T10:48:25.000Z</time>
      </trkpt>
      <trkpt lat="43.00088667310774326324462890625" lon="-4.76989089511334896087646484375">
        <ele>2192.800048828125</ele>
        <time>2021-07-22T10:48:31.000Z</time>
      </trkpt>
      <trkpt lat="43.00089186988770961761474609375" lon="-4.76992844603955745697021484375">
        <ele>2192.39990234375</ele>
        <time>2021-07-22T10:48:33.000Z</time>
      </trkpt>
      <trkpt lat="43.00089455209672451019287109375" lon="-4.77000086568295955657958984375">
        <ele>2192</ele>
        <time>2021-07-22T10:48:37.000Z</time>
      </trkpt>
      <trkpt lat="43.00089539028704166412353515625" lon="-4.77002534084022045135498046875">
        <ele>2192</ele>
        <time>2021-07-22T10:48:38.000Z</time>
      </trkpt>
      <trkpt lat="43.00085649825632572174072265625" lon="-4.77012994699180126190185546875">
        <ele>2193.199951171875</ele>
        <time>2021-07-22T10:48:45.000Z</time>
      </trkpt>
      <trkpt lat="43.00085373222827911376953125" lon="-4.77014520205557346343994140625">
        <ele>2193.39990234375</ele>
        <time>2021-07-22T10:48:46.000Z</time>
      </trkpt>
      <trkpt lat="43.00083160400390625" lon="-4.77021292783319950103759765625">
        <ele>2193.60009765625</ele>
        <time>2021-07-22T10:48:50.000Z</time>
      </trkpt>
      <trkpt lat="43.00082020461559295654296875" lon="-4.7703731060028076171875">
        <ele>2193.60009765625</ele>
        <time>2021-07-22T10:48:59.000Z</time>
      </trkpt>
      <trkpt lat="43.000799082219600677490234375" lon="-4.77047913707792758941650390625">
        <ele>2193.199951171875</ele>
        <time>2021-07-22T10:49:04.000Z</time>
      </trkpt>
      <trkpt lat="43.0007918737828731536865234375" lon="-4.7705124132335186004638671875">
        <ele>2192</ele>
        <time>2021-07-22T10:49:06.000Z</time>
      </trkpt>
      <trkpt lat="43.0007737688720226287841796875" lon="-4.77055507712066173553466796875">
        <ele>2191</ele>
        <time>2021-07-22T10:49:09.000Z</time>
      </trkpt>
      <trkpt lat="43.0007643811404705047607421875" lon="-4.77061810903251171112060546875">
        <ele>2190</ele>
        <time>2021-07-22T10:49:12.000Z</time>
      </trkpt>
      <trkpt lat="43.00075910054147243499755859375" lon="-4.7706441767513751983642578125">
        <ele>2189.800048828125</ele>
        <time>2021-07-22T10:49:13.000Z</time>
      </trkpt>
      <trkpt lat="43.0007405765354633331298828125" lon="-4.770718775689601898193359375">
        <ele>2189.60009765625</ele>
        <time>2021-07-22T10:49:18.000Z</time>
      </trkpt>
      <trkpt lat="43.00072766840457916259765625" lon="-4.7707444243133068084716796875">
        <ele>2188.800048828125</ele>
        <time>2021-07-22T10:49:20.000Z</time>
      </trkpt>
      <trkpt lat="43.00072104670107364654541015625" lon="-4.77076470851898193359375">
        <ele>2188.60009765625</ele>
        <time>2021-07-22T10:49:21.000Z</time>
      </trkpt>
      <trkpt lat="43.00068282522261142730712890625" lon="-4.770867638289928436279296875">
        <ele>2187.60009765625</ele>
        <time>2021-07-22T10:49:27.000Z</time>
      </trkpt>
      <trkpt lat="43.000668995082378387451171875" lon="-4.7709207795560359954833984375">
        <ele>2186.60009765625</ele>
        <time>2021-07-22T10:49:30.000Z</time>
      </trkpt>
      <trkpt lat="43.000660948455333709716796875" lon="-4.770932011306285858154296875">
        <ele>2186</ele>
        <time>2021-07-22T10:49:31.000Z</time>
      </trkpt>
      <trkpt lat="43.00063253380358219146728515625" lon="-4.7709824703633785247802734375">
        <ele>2187.39990234375</ele>
        <time>2021-07-22T10:49:35.000Z</time>
      </trkpt>
      <trkpt lat="43.00060370005667209625244140625" lon="-4.7710351087152957916259765625">
        <ele>2187</ele>
        <time>2021-07-22T10:49:38.000Z</time>
      </trkpt>
      <trkpt lat="43.00055508501827716827392578125" lon="-4.77108883671462535858154296875">
        <ele>2186</ele>
        <time>2021-07-22T10:49:44.000Z</time>
      </trkpt>
      <trkpt lat="43.000510744750499725341796875" lon="-4.77119847200810909271240234375">
        <ele>2185.60009765625</ele>
        <time>2021-07-22T10:49:49.000Z</time>
      </trkpt>
      <trkpt lat="43.00049574114382266998291015625" lon="-4.7712332569062709808349609375">
        <ele>2185.39990234375</ele>
        <time>2021-07-22T10:49:51.000Z</time>
      </trkpt>
      <trkpt lat="43.000455759465694427490234375" lon="-4.77135119028389453887939453125">
        <ele>2185.39990234375</ele>
        <time>2021-07-22T10:49:57.000Z</time>
      </trkpt>
      <trkpt lat="43.00042717717587947845458984375" lon="-4.7714200057089328765869140625">
        <ele>2185</ele>
        <time>2021-07-22T10:50:02.000Z</time>
      </trkpt>
      <trkpt lat="43.00041041336953639984130859375" lon="-4.77147616446018218994140625">
        <ele>2184.60009765625</ele>
        <time>2021-07-22T10:50:04.000Z</time>
      </trkpt>
      <trkpt lat="43.00040982663631439208984375" lon="-4.77153651416301727294921875">
        <ele>2183.39990234375</ele>
        <time>2021-07-22T10:50:08.000Z</time>
      </trkpt>
      <trkpt lat="43.00040303729474544525146484375" lon="-4.771542213857173919677734375">
        <ele>2183.199951171875</ele>
        <time>2021-07-22T10:50:09.000Z</time>
      </trkpt>
      <trkpt lat="43.00039348192512989044189453125" lon="-4.7716302238404750823974609375">
        <ele>2182.199951171875</ele>
        <time>2021-07-22T10:50:12.000Z</time>
      </trkpt>
      <trkpt lat="43.00039331428706645965576171875" lon="-4.77171328850090503692626953125">
        <ele>2181.800048828125</ele>
        <time>2021-07-22T10:50:16.000Z</time>
      </trkpt>
      <trkpt lat="43.0003610439598560333251953125" lon="-4.7717955149710178375244140625">
        <ele>2182</ele>
        <time>2021-07-22T10:50:21.000Z</time>
      </trkpt>
      <trkpt lat="43.00035576336085796356201171875" lon="-4.77185376919806003570556640625">
        <ele>2182.199951171875</ele>
        <time>2021-07-22T10:50:26.000Z</time>
      </trkpt>
      <trkpt lat="43.00036967732012271881103515625" lon="-4.7718468122184276580810546875">
        <ele>2182.39990234375</ele>
        <time>2021-07-22T10:50:32.000Z</time>
      </trkpt>
      <trkpt lat="43.00036598928272724151611328125" lon="-4.7718984447419643402099609375">
        <ele>2182.199951171875</ele>
        <time>2021-07-22T10:50:35.000Z</time>
      </trkpt>
      <trkpt lat="43.0003660731017589569091796875" lon="-4.77190422825515270233154296875">
        <ele>2182.199951171875</ele>
        <time>2021-07-22T10:50:36.000Z</time>
      </trkpt>
      <trkpt lat="43.0003637261688709259033203125" lon="-4.7719168849289417266845703125">
        <ele>2182.199951171875</ele>
        <time>2021-07-22T10:50:38.000Z</time>
      </trkpt>
      <trkpt lat="43.00033430568873882293701171875" lon="-4.77201688103377819061279296875">
        <ele>2183.199951171875</ele>
        <time>2021-07-22T10:50:44.000Z</time>
      </trkpt>
      <trkpt lat="43.000333718955516815185546875" lon="-4.77203138172626495361328125">
        <ele>2183.60009765625</ele>
        <time>2021-07-22T10:50:45.000Z</time>
      </trkpt>
      <trkpt lat="43.00033447332680225372314453125" lon="-4.772069267928600311279296875">
        <ele>2184.39990234375</ele>
        <time>2021-07-22T10:50:48.000Z</time>
      </trkpt>
      <trkpt lat="43.0003125965595245361328125" lon="-4.77215887047350406646728515625">
        <ele>2184.800048828125</ele>
        <time>2021-07-22T10:50:52.000Z</time>
      </trkpt>
      <trkpt lat="43.0003057233989238739013671875" lon="-4.772177226841449737548828125">
        <ele>2184.800048828125</ele>
        <time>2021-07-22T10:50:53.000Z</time>
      </trkpt>
      <trkpt lat="43.0002540908753871917724609375" lon="-4.77225945331156253814697265625">
        <ele>2185.39990234375</ele>
        <time>2021-07-22T10:51:00.000Z</time>
      </trkpt>
      <trkpt lat="43.0002497322857379913330078125" lon="-4.7722742892801761627197265625">
        <ele>2185.60009765625</ele>
        <time>2021-07-22T10:51:01.000Z</time>
      </trkpt>
      <trkpt lat="43.000247888267040252685546875" lon="-4.7722910530865192413330078125">
        <ele>2185.800048828125</ele>
        <time>2021-07-22T10:51:02.000Z</time>
      </trkpt>
      <trkpt lat="43.00024797208607196807861328125" lon="-4.77233581244945526123046875">
        <ele>2186.60009765625</ele>
        <time>2021-07-22T10:51:04.000Z</time>
      </trkpt>
      <trkpt lat="43.00024218857288360595703125" lon="-4.77237814106047153472900390625">
        <ele>2187.39990234375</ele>
        <time>2021-07-22T10:51:08.000Z</time>
      </trkpt>
      <trkpt lat="43.00022684969007968902587890625" lon="-4.7724422626197338104248046875">
        <ele>2187.800048828125</ele>
        <time>2021-07-22T10:51:12.000Z</time>
      </trkpt>
      <trkpt lat="43.0002200603485107421875" lon="-4.77245843969285488128662109375">
        <ele>2188</ele>
        <time>2021-07-22T10:51:13.000Z</time>
      </trkpt>
      <trkpt lat="43.00021000206470489501953125" lon="-4.77254779078066349029541015625">
        <ele>2188.60009765625</ele>
        <time>2021-07-22T10:51:18.000Z</time>
      </trkpt>
      <trkpt lat="43.0002148635685443878173828125" lon="-4.7725792229175567626953125">
        <ele>2188.800048828125</ele>
        <time>2021-07-22T10:51:20.000Z</time>
      </trkpt>
      <trkpt lat="43.00021863542497158050537109375" lon="-4.772594980895519256591796875">
        <ele>2188.800048828125</ele>
        <time>2021-07-22T10:51:21.000Z</time>
      </trkpt>
      <trkpt lat="43.0002214014530181884765625" lon="-4.77263546548783779144287109375">
        <ele>2189</ele>
        <time>2021-07-22T10:51:24.000Z</time>
      </trkpt>
      <trkpt lat="43.000219054520130157470703125" lon="-4.7726591862738132476806640625">
        <ele>2189</ele>
        <time>2021-07-22T10:51:26.000Z</time>
      </trkpt>
      <trkpt lat="43.0002249218523502349853515625" lon="-4.7727294266223907470703125">
        <ele>2190.199951171875</ele>
        <time>2021-07-22T10:51:32.000Z</time>
      </trkpt>
      <trkpt lat="43.0002296157181262969970703125" lon="-4.77275599725544452667236328125">
        <ele>2190.800048828125</ele>
        <time>2021-07-22T10:51:34.000Z</time>
      </trkpt>
      <trkpt lat="43.00022735260426998138427734375" lon="-4.77277996949851512908935546875">
        <ele>2191.39990234375</ele>
        <time>2021-07-22T10:51:36.000Z</time>
      </trkpt>
      <trkpt lat="43.00023003481328487396240234375" lon="-4.77284149266779422760009765625">
        <ele>2192.39990234375</ele>
        <time>2021-07-22T10:51:40.000Z</time>
      </trkpt>
      <trkpt lat="43.00023104064166545867919921875" lon="-4.77286295033991336822509765625">
        <ele>2192.39990234375</ele>
        <time>2021-07-22T10:51:41.000Z</time>
      </trkpt>
      <trkpt lat="43.00022341310977935791015625" lon="-4.7729418240487575531005859375">
        <ele>2192.800048828125</ele>
        <time>2021-07-22T10:51:47.000Z</time>
      </trkpt>
      <trkpt lat="43.00022752024233341217041015625" lon="-4.77296386845409870147705078125">
        <ele>2192.800048828125</ele>
        <time>2021-07-22T10:51:48.000Z</time>
      </trkpt>
      <trkpt lat="43.000233806669712066650390625" lon="-4.77299295365810394287109375">
        <ele>2193</ele>
        <time>2021-07-22T10:51:50.000Z</time>
      </trkpt>
      <trkpt lat="43.00023254938423633575439453125" lon="-4.7729978151619434356689453125">
        <ele>2193.39990234375</ele>
        <time>2021-07-22T10:51:51.000Z</time>
      </trkpt>
      <trkpt lat="43.00022399984300136566162109375" lon="-4.77304383181035518646240234375">
        <ele>2194</ele>
        <time>2021-07-22T10:51:55.000Z</time>
      </trkpt>
      <trkpt lat="43.00021679140627384185791015625" lon="-4.77309412322938442230224609375">
        <ele>2194.39990234375</ele>
        <time>2021-07-22T10:51:58.000Z</time>
      </trkpt>
      <trkpt lat="43.00021360628306865692138671875" lon="-4.7731292434036731719970703125">
        <ele>2195.39990234375</ele>
        <time>2021-07-22T10:52:00.000Z</time>
      </trkpt>
      <trkpt lat="43.00020656548440456390380859375" lon="-4.7731315903365612030029296875">
        <ele>2196</ele>
        <time>2021-07-22T10:52:01.000Z</time>
      </trkpt>
      <trkpt lat="43.0001856945455074310302734375" lon="-4.7731627710163593292236328125">
        <ele>2197</ele>
        <time>2021-07-22T10:52:05.000Z</time>
      </trkpt>
      <trkpt lat="43.00017823465168476104736328125" lon="-4.77316922508180141448974609375">
        <ele>2197.199951171875</ele>
        <time>2021-07-22T10:52:06.000Z</time>
      </trkpt>
      <trkpt lat="43.00013012252748012542724609375" lon="-4.77320074103772640228271484375">
        <ele>2197.800048828125</ele>
        <time>2021-07-22T10:52:12.000Z</time>
      </trkpt>
      <trkpt lat="43.00012660212814807891845703125" lon="-4.7732095420360565185546875">
        <ele>2197.800048828125</ele>
        <time>2021-07-22T10:52:13.000Z</time>
      </trkpt>
      <trkpt lat="43.0001260153949260711669921875" lon="-4.77322538383305072784423828125">
        <ele>2198.39990234375</ele>
        <time>2021-07-22T10:52:14.000Z</time>
      </trkpt>
      <trkpt lat="43.000113777816295623779296875" lon="-4.77326922118663787841796875">
        <ele>2199.39990234375</ele>
        <time>2021-07-22T10:52:18.000Z</time>
      </trkpt>
      <trkpt lat="43.00010531209409236907958984375" lon="-4.773267209529876708984375">
        <ele>2199.60009765625</ele>
        <time>2021-07-22T10:52:19.000Z</time>
      </trkpt>
      <trkpt lat="43.0000894702970981597900390625" lon="-4.77329914458096027374267578125">
        <ele>2199.60009765625</ele>
        <time>2021-07-22T10:52:24.000Z</time>
      </trkpt>
      <trkpt lat="43.00003306008875370025634765625" lon="-4.773323200643062591552734375">
        <ele>2200.800048828125</ele>
        <time>2021-07-22T10:52:31.000Z</time>
      </trkpt>
      <trkpt lat="42.9999853670597076416015625" lon="-4.77332982234656810760498046875">
        <ele>2202</ele>
        <time>2021-07-22T10:52:36.000Z</time>
      </trkpt>
      <trkpt lat="42.999983020126819610595703125" lon="-4.7733283974230289459228515625">
        <ele>2202.199951171875</ele>
        <time>2021-07-22T10:52:37.000Z</time>
      </trkpt>
      <trkpt lat="42.9999851994216442108154296875" lon="-4.77332965470850467681884765625">
        <ele>2203.60009765625</ele>
        <time>2021-07-22T10:52:40.000Z</time>
      </trkpt>
      <trkpt lat="42.99997606314718723297119140625" lon="-4.773348681628704071044921875">
        <ele>2205.60009765625</ele>
        <time>2021-07-22T10:52:42.000Z</time>
      </trkpt>
      <trkpt lat="42.99997086636722087860107421875" lon="-4.7733597457408905029296875">
        <ele>2206.199951171875</ele>
        <time>2021-07-22T10:52:43.000Z</time>
      </trkpt>
      <trkpt lat="42.9999563656747341156005859375" lon="-4.77338346652686595916748046875">
        <ele>2206.60009765625</ele>
        <time>2021-07-22T10:52:45.000Z</time>
      </trkpt>
      <trkpt lat="42.9999204911291599273681640625" lon="-4.773435182869434356689453125">
        <ele>2206</ele>
        <time>2021-07-22T10:52:49.000Z</time>
      </trkpt>
      <trkpt lat="42.99991420470178127288818359375" lon="-4.7734537906944751739501953125">
        <ele>2206.199951171875</ele>
        <time>2021-07-22T10:52:50.000Z</time>
      </trkpt>
      <trkpt lat="42.9999027214944362640380859375" lon="-4.7734923474490642547607421875">
        <ele>2207.60009765625</ele>
        <time>2021-07-22T10:52:52.000Z</time>
      </trkpt>
      <trkpt lat="42.99987732432782649993896484375" lon="-4.7735340893268585205078125">
        <ele>2209</ele>
        <time>2021-07-22T10:52:55.000Z</time>
      </trkpt>
      <trkpt lat="42.99986994825303554534912109375" lon="-4.773549176752567291259765625">
        <ele>2209.800048828125</ele>
        <time>2021-07-22T10:52:56.000Z</time>
      </trkpt>
      <trkpt lat="42.999860979616641998291015625" lon="-4.77355965413153171539306640625">
        <ele>2210.199951171875</ele>
        <time>2021-07-22T10:52:57.000Z</time>
      </trkpt>
      <trkpt lat="42.99985100515186786651611328125" lon="-4.773565940558910369873046875">
        <ele>2210.39990234375</ele>
        <time>2021-07-22T10:52:58.000Z</time>
      </trkpt>
      <trkpt lat="42.999804317951202392578125" lon="-4.7736133821308612823486328125">
        <ele>2210.39990234375</ele>
        <time>2021-07-22T10:53:03.000Z</time>
      </trkpt>
      <trkpt lat="42.9997763223946094512939453125" lon="-4.77369225583970546722412109375">
        <ele>2209.60009765625</ele>
        <time>2021-07-22T10:53:08.000Z</time>
      </trkpt>
      <trkpt lat="42.99976567737758159637451171875" lon="-4.7737106122076511383056640625">
        <ele>2209.199951171875</ele>
        <time>2021-07-22T10:53:09.000Z</time>
      </trkpt>
      <trkpt lat="42.999756373465061187744140625" lon="-4.77372326888144016265869140625">
        <ele>2209</ele>
        <time>2021-07-22T10:53:10.000Z</time>
      </trkpt>
      <trkpt lat="42.9997448064386844635009765625" lon="-4.77374254725873470306396484375">
        <ele>2208.199951171875</ele>
        <time>2021-07-22T10:53:12.000Z</time>
      </trkpt>
      <trkpt lat="42.99974237568676471710205078125" lon="-4.773750007152557373046875">
        <ele>2208.199951171875</ele>
        <time>2021-07-22T10:53:13.000Z</time>
      </trkpt>
      <trkpt lat="42.9997431300580501556396484375" lon="-4.77374874986708164215087890625">
        <ele>2208</ele>
        <time>2021-07-22T10:53:14.000Z</time>
      </trkpt>
      <trkpt lat="42.999741621315479278564453125" lon="-4.773731231689453125">
        <ele>2208</ele>
        <time>2021-07-22T10:53:19.000Z</time>
      </trkpt>
      <trkpt lat="42.99974187277257442474365234375" lon="-4.7737367637455463409423828125">
        <ele>2207.60009765625</ele>
        <time>2021-07-22T10:53:23.000Z</time>
      </trkpt>
      <trkpt lat="42.9997414536774158477783203125" lon="-4.773740284144878387451171875">
        <ele>2207</ele>
        <time>2021-07-22T10:53:26.000Z</time>
      </trkpt>
      <trkpt lat="42.99973885528743267059326171875" lon="-4.7737419605255126953125">
        <ele>2207</ele>
        <time>2021-07-22T10:53:28.000Z</time>
      </trkpt>
      <trkpt lat="42.99974053166806697845458984375" lon="-4.77374841459095478057861328125">
        <ele>2206.800048828125</ele>
        <time>2021-07-22T10:53:31.000Z</time>
      </trkpt>
      <trkpt lat="42.99974329769611358642578125" lon="-4.77375344373285770416259765625">
        <ele>2206.39990234375</ele>
        <time>2021-07-22T10:53:34.000Z</time>
      </trkpt>
      <trkpt lat="42.99974120222032070159912109375" lon="-4.77375696413218975067138671875">
        <ele>2206.199951171875</ele>
        <time>2021-07-22T10:53:35.000Z</time>
      </trkpt>
      <trkpt lat="42.99974204041063785552978515625" lon="-4.773741625249385833740234375">
        <ele>2206</ele>
        <time>2021-07-22T10:53:42.000Z</time>
      </trkpt>
      <trkpt lat="42.99975343979895114898681640625" lon="-4.773746989667415618896484375">
        <ele>2206</ele>
        <time>2021-07-22T10:53:45.000Z</time>
      </trkpt>
      <trkpt lat="42.99975645728409290313720703125" lon="-4.77375193499028682708740234375">
        <ele>2206</ele>
        <time>2021-07-22T10:53:47.000Z</time>
      </trkpt>
      <trkpt lat="42.99975880421698093414306640625" lon="-4.7737531922757625579833984375">
        <ele>2206</ele>
        <time>2021-07-22T10:53:48.000Z</time>
      </trkpt>
      <trkpt lat="42.9997602291405200958251953125" lon="-4.77375260554254055023193359375">
        <ele>2205.800048828125</ele>
        <time>2021-07-22T10:53:49.000Z</time>
      </trkpt>
      <trkpt lat="42.99974455498158931732177734375" lon="-4.77373458445072174072265625">
        <ele>2205.60009765625</ele>
        <time>2021-07-22T10:53:57.000Z</time>
      </trkpt>
      <trkpt lat="42.99973852001130580902099609375" lon="-4.773744307458400726318359375">
        <ele>2206.199951171875</ele>
        <time>2021-07-22T10:54:02.000Z</time>
      </trkpt>
      <trkpt lat="42.99974069930613040924072265625" lon="-4.77374657057225704193115234375">
        <ele>2206.199951171875</ele>
        <time>2021-07-22T10:54:03.000Z</time>
      </trkpt>
      <trkpt lat="42.999737598001956939697265625" lon="-4.77373818866908550262451171875">
        <ele>2206.60009765625</ele>
        <time>2021-07-22T10:54:10.000Z</time>
      </trkpt>
      <trkpt lat="42.9997461475431919097900390625" lon="-4.77372947148978710174560546875">
        <ele>2206.39990234375</ele>
        <time>2021-07-22T10:54:20.000Z</time>
      </trkpt>
      <trkpt lat="42.99974539317190647125244140625" lon="-4.7737310640513896942138671875">
        <ele>2207</ele>
        <time>2021-07-22T10:54:22.000Z</time>
      </trkpt>
      <trkpt lat="42.9997508414089679718017578125" lon="-4.77373550646007061004638671875">
        <ele>2207</ele>
        <time>2021-07-22T10:54:25.000Z</time>
      </trkpt>
      <trkpt lat="42.999754361808300018310546875" lon="-4.7737857140600681304931640625">
        <ele>2207</ele>
        <time>2021-07-22T10:54:29.000Z</time>
      </trkpt>
      <trkpt lat="42.99975360743701457977294921875" lon="-4.77378546260297298431396484375">
        <ele>2207</ele>
        <time>2021-07-22T10:54:30.000Z</time>
      </trkpt>
      <trkpt lat="42.99974723719060420989990234375" lon="-4.77373030968010425567626953125">
        <ele>2205.800048828125</ele>
        <time>2021-07-22T10:54:37.000Z</time>
      </trkpt>
      <trkpt lat="42.99974606372416019439697265625" lon="-4.77371178567409515380859375">
        <ele>2205.39990234375</ele>
        <time>2021-07-22T10:54:39.000Z</time>
      </trkpt>
      <trkpt lat="42.99974421970546245574951171875" lon="-4.7737406194210052490234375">
        <ele>2205.39990234375</ele>
        <time>2021-07-22T10:54:44.000Z</time>
      </trkpt>
      <trkpt lat="42.99974790774285793304443359375" lon="-4.77375277318060398101806640625">
        <ele>2205.800048828125</ele>
        <time>2021-07-22T10:54:49.000Z</time>
      </trkpt>
      <trkpt lat="42.9997411184012889862060546875" lon="-4.773744307458400726318359375">
        <ele>2205.60009765625</ele>
        <time>2021-07-22T10:54:53.000Z</time>
      </trkpt>
      <trkpt lat="42.999744974076747894287109375" lon="-4.77374020032584667205810546875">
        <ele>2206</ele>
        <time>2021-07-22T10:54:56.000Z</time>
      </trkpt>
      <trkpt lat="42.99973868764936923980712890625" lon="-4.77373802103102207183837890625">
        <ele>2206.39990234375</ele>
        <time>2021-07-22T10:55:01.000Z</time>
      </trkpt>
      <trkpt lat="42.99973147921264171600341796875" lon="-4.77374204434454441070556640625">
        <ele>2205.60009765625</ele>
        <time>2021-07-22T10:55:04.000Z</time>
      </trkpt>
      <trkpt lat="42.99973064102232456207275390625" lon="-4.773747660219669342041015625">
        <ele>2206.199951171875</ele>
        <time>2021-07-22T10:55:11.000Z</time>
      </trkpt>
      <trkpt lat="42.999737262725830078125" lon="-4.77373735047876834869384765625">
        <ele>2205.60009765625</ele>
        <time>2021-07-22T10:55:16.000Z</time>
      </trkpt>
      <trkpt lat="42.99973499961197376251220703125" lon="-4.7737411223351955413818359375">
        <ele>2205.60009765625</ele>
        <time>2021-07-22T10:55:18.000Z</time>
      </trkpt>
      <trkpt lat="42.99975763075053691864013671875" lon="-4.77375210262835025787353515625">
        <ele>2205.800048828125</ele>
        <time>2021-07-22T10:55:28.000Z</time>
      </trkpt>
      <trkpt lat="42.999740950763225555419921875" lon="-4.77375310845673084259033203125">
        <ele>2205.39990234375</ele>
        <time>2021-07-22T10:55:41.000Z</time>
      </trkpt>
      <trkpt lat="42.999734915792942047119140625" lon="-4.77374271489679813385009765625">
        <ele>2205.199951171875</ele>
        <time>2021-07-22T10:55:49.000Z</time>
      </trkpt>
      <trkpt lat="42.99974556080996990203857421875" lon="-4.7737501747906208038330078125">
        <ele>2205.39990234375</ele>
        <time>2021-07-22T10:55:55.000Z</time>
      </trkpt>
      <trkpt lat="42.9997438006103038787841796875" lon="-4.773728549480438232421875">
        <ele>2206.39990234375</ele>
        <time>2021-07-22T10:56:01.000Z</time>
      </trkpt>
      <trkpt lat="42.999751679599285125732421875" lon="-4.77373584173619747161865234375">
        <ele>2204.800048828125</ele>
        <time>2021-07-22T10:56:06.000Z</time>
      </trkpt>
      <trkpt lat="42.99975058995187282562255859375" lon="-4.77373667992651462554931640625">
        <ele>2204.39990234375</ele>
        <time>2021-07-22T10:56:07.000Z</time>
      </trkpt>
      <trkpt lat="42.99972929991781711578369140625" lon="-4.77373458445072174072265625">
        <ele>2205.800048828125</ele>
        <time>2021-07-22T10:56:13.000Z</time>
      </trkpt>
      <trkpt lat="42.99974120222032070159912109375" lon="-4.77373265661299228668212890625">
        <ele>2206.60009765625</ele>
        <time>2021-07-22T10:56:15.000Z</time>
      </trkpt>
      <trkpt lat="42.999743632972240447998046875" lon="-4.7737354226410388946533203125">
        <ele>2207</ele>
        <time>2021-07-22T10:56:16.000Z</time>
      </trkpt>
      <trkpt lat="42.99974941648542881011962890625" lon="-4.77373936213552951812744140625">
        <ele>2207.39990234375</ele>
        <time>2021-07-22T10:56:19.000Z</time>
      </trkpt>
      <trkpt lat="42.99973852001130580902099609375" lon="-4.7737350873649120330810546875">
        <ele>2206.800048828125</ele>
        <time>2021-07-22T10:56:23.000Z</time>
      </trkpt>
      <trkpt lat="42.99972318112850189208984375" lon="-4.77373751811683177947998046875">
        <ele>2205.800048828125</ele>
        <time>2021-07-22T10:56:26.000Z</time>
      </trkpt>
      <trkpt lat="42.999718151986598968505859375" lon="-4.77374439127743244171142578125">
        <ele>2205.800048828125</ele>
        <time>2021-07-22T10:56:27.000Z</time>
      </trkpt>
      <trkpt lat="42.99969091080129146575927734375" lon="-4.77376752533018589019775390625">
        <ele>2205.39990234375</ele>
        <time>2021-07-22T10:56:31.000Z</time>
      </trkpt>
      <trkpt lat="42.99968269653618335723876953125" lon="-4.773776829242706298828125">
        <ele>2205</ele>
        <time>2021-07-22T10:56:32.000Z</time>
      </trkpt>
      <trkpt lat="42.9996740631759166717529296875" lon="-4.77378596551716327667236328125">
        <ele>2204.60009765625</ele>
        <time>2021-07-22T10:56:33.000Z</time>
      </trkpt>
      <trkpt lat="42.99966157414019107818603515625" lon="-4.7737987898290157318115234375">
        <ele>2203.39990234375</ele>
        <time>2021-07-22T10:56:37.000Z</time>
      </trkpt>
      <trkpt lat="42.99963307566940784454345703125" lon="-4.77379803545773029327392578125">
        <ele>2202.199951171875</ele>
        <time>2021-07-22T10:56:42.000Z</time>
      </trkpt>
      <trkpt lat="42.9996133781969547271728515625" lon="-4.77380440570414066314697265625">
        <ele>2202</ele>
        <time>2021-07-22T10:56:44.000Z</time>
      </trkpt>
      <trkpt lat="42.99959351308643817901611328125" lon="-4.7738044895231723785400390625">
        <ele>2201</ele>
        <time>2021-07-22T10:56:46.000Z</time>
      </trkpt>
      <trkpt lat="42.99956216476857662200927734375" lon="-4.77379216812551021575927734375">
        <ele>2199.199951171875</ele>
        <time>2021-07-22T10:56:49.000Z</time>
      </trkpt>
      <trkpt lat="42.99955177120864391326904296875" lon="-4.77379183284938335418701171875">
        <ele>2198.60009765625</ele>
        <time>2021-07-22T10:56:50.000Z</time>
      </trkpt>
      <trkpt lat="42.9995416291058063507080078125" lon="-4.7737937606871128082275390625">
        <ele>2198.199951171875</ele>
        <time>2021-07-22T10:56:51.000Z</time>
      </trkpt>
      <trkpt lat="42.9995228536427021026611328125" lon="-4.77379518561065196990966796875">
        <ele>2197</ele>
        <time>2021-07-22T10:56:53.000Z</time>
      </trkpt>
      <trkpt lat="42.99947381950914859771728515625" lon="-4.7738138772547245025634765625">
        <ele>2196</ele>
        <time>2021-07-22T10:56:57.000Z</time>
      </trkpt>
      <trkpt lat="42.99944397993385791778564453125" lon="-4.77382385171949863433837890625">
        <ele>2194.60009765625</ele>
        <time>2021-07-22T10:57:00.000Z</time>
      </trkpt>
      <trkpt lat="42.9994004778563976287841796875" lon="-4.7738225944340229034423828125">
        <ele>2193.39990234375</ele>
        <time>2021-07-22T10:57:04.000Z</time>
      </trkpt>
      <trkpt lat="42.99937759526073932647705078125" lon="-4.7738319821655750274658203125">
        <ele>2193.39990234375</ele>
        <time>2021-07-22T10:57:06.000Z</time>
      </trkpt>
      <trkpt lat="42.9993035830557346343994140625" lon="-4.77387179620563983917236328125">
        <ele>2192.39990234375</ele>
        <time>2021-07-22T10:57:13.000Z</time>
      </trkpt>
      <trkpt lat="42.9992462508380413055419921875" lon="-4.77385662496089935302734375">
        <ele>2191</ele>
        <time>2021-07-22T10:57:18.000Z</time>
      </trkpt>
      <trkpt lat="42.99921984784305095672607421875" lon="-4.77386224083602428436279296875">
        <ele>2190.60009765625</ele>
        <time>2021-07-22T10:57:20.000Z</time>
      </trkpt>
      <trkpt lat="42.9991892538964748382568359375" lon="-4.77386173792183399200439453125">
        <ele>2190</ele>
        <time>2021-07-22T10:57:23.000Z</time>
      </trkpt>
      <trkpt lat="42.9991620965301990509033203125" lon="-4.77388587780296802520751953125">
        <ele>2188.800048828125</ele>
        <time>2021-07-22T10:57:28.000Z</time>
      </trkpt>
      <trkpt lat="42.99915983341634273529052734375" lon="-4.7738832794129848480224609375">
        <ele>2188.39990234375</ele>
        <time>2021-07-22T10:57:29.000Z</time>
      </trkpt>
      <trkpt lat="42.99915187060832977294921875" lon="-4.77388135157525539398193359375">
        <ele>2187.800048828125</ele>
        <time>2021-07-22T10:57:31.000Z</time>
      </trkpt>
      <trkpt lat="42.9991604201495647430419921875" lon="-4.7738782502710819244384765625">
        <ele>2187.39990234375</ele>
        <time>2021-07-22T10:57:36.000Z</time>
      </trkpt>
      <trkpt lat="42.999160252511501312255859375" lon="-4.773905575275421142578125">
        <ele>2186.60009765625</ele>
        <time>2021-07-22T10:57:46.000Z</time>
      </trkpt>
      <trkpt lat="42.999156899750232696533203125" lon="-4.773897863924503326416015625">
        <ele>2186.60009765625</ele>
        <time>2021-07-22T10:57:47.000Z</time>
      </trkpt>
      <trkpt lat="42.99910149537026882171630859375" lon="-4.77389358915388584136962890625">
        <ele>2186.800048828125</ele>
        <time>2021-07-22T10:57:52.000Z</time>
      </trkpt>
      <trkpt lat="42.999089173972606658935546875" lon="-4.77389417588710784912109375">
        <ele>2186.800048828125</ele>
        <time>2021-07-22T10:57:53.000Z</time>
      </trkpt>
      <trkpt lat="42.99905204214155673980712890625" lon="-4.77389409206807613372802734375">
        <ele>2185.800048828125</ele>
        <time>2021-07-22T10:57:56.000Z</time>
      </trkpt>
      <trkpt lat="42.99904315732419490814208984375" lon="-4.77389828301966190338134765625">
        <ele>2185.60009765625</ele>
        <time>2021-07-22T10:57:57.000Z</time>
      </trkpt>
      <trkpt lat="42.99900996498763561248779296875" lon="-4.77391722612082958221435546875">
        <ele>2184.39990234375</ele>
        <time>2021-07-22T10:58:00.000Z</time>
      </trkpt>
      <trkpt lat="42.9989726655185222625732421875" lon="-4.77393834851682186126708984375">
        <ele>2183</ele>
        <time>2021-07-22T10:58:03.000Z</time>
      </trkpt>
      <trkpt lat="42.9989391379058361053466796875" lon="-4.7739479877054691314697265625">
        <ele>2181.60009765625</ele>
        <time>2021-07-22T10:58:06.000Z</time>
      </trkpt>
      <trkpt lat="42.99891139380633831024169921875" lon="-4.77395142428576946258544921875">
        <ele>2180.60009765625</ele>
        <time>2021-07-22T10:58:09.000Z</time>
      </trkpt>
      <trkpt lat="42.99888364970684051513671875" lon="-4.77395494468510150909423828125">
        <ele>2179.60009765625</ele>
        <time>2021-07-22T10:58:12.000Z</time>
      </trkpt>
      <trkpt lat="42.99887518398463726043701171875" lon="-4.7739590518176555633544921875">
        <ele>2179</ele>
        <time>2021-07-22T10:58:13.000Z</time>
      </trkpt>
      <trkpt lat="42.99886914901435375213623046875" lon="-4.7739634104073047637939453125">
        <ele>2178</ele>
        <time>2021-07-22T10:58:14.000Z</time>
      </trkpt>
      <trkpt lat="42.99886680208146572113037109375" lon="-4.773969948291778564453125">
        <ele>2177.39990234375</ele>
        <time>2021-07-22T10:58:15.000Z</time>
      </trkpt>
      <trkpt lat="42.99885925836861133575439453125" lon="-4.773976989090442657470703125">
        <ele>2177</ele>
        <time>2021-07-22T10:58:16.000Z</time>
      </trkpt>
      <trkpt lat="42.99885003827512264251708984375" lon="-4.773984365165233612060546875">
        <ele>2176.199951171875</ele>
        <time>2021-07-22T10:58:17.000Z</time>
      </trkpt>
      <trkpt lat="42.99883629195392131805419921875" lon="-4.77398947812616825103759765625">
        <ele>2175.800048828125</ele>
        <time>2021-07-22T10:58:18.000Z</time>
      </trkpt>
      <trkpt lat="42.99880963750183582305908203125" lon="-4.77399685420095920562744140625">
        <ele>2175.60009765625</ele>
        <time>2021-07-22T10:58:20.000Z</time>
      </trkpt>
      <trkpt lat="42.99879974685609340667724609375" lon="-4.7739954292774200439453125">
        <ele>2176</ele>
        <time>2021-07-22T10:58:21.000Z</time>
      </trkpt>
      <trkpt lat="42.99878180958330631256103515625" lon="-4.77399517782032489776611328125">
        <ele>2176.39990234375</ele>
        <time>2021-07-22T10:58:23.000Z</time>
      </trkpt>
      <trkpt lat="42.998765967786312103271484375" lon="-4.77399609982967376708984375">
        <ele>2176.60009765625</ele>
        <time>2021-07-22T10:58:25.000Z</time>
      </trkpt>
      <trkpt lat="42.9987567476928234100341796875" lon="-4.77399685420095920562744140625">
        <ele>2175.39990234375</ele>
        <time>2021-07-22T10:58:27.000Z</time>
      </trkpt>
      <trkpt lat="42.99875649623572826385498046875" lon="-4.77400339208543300628662109375">
        <ele>2174.199951171875</ele>
        <time>2021-07-22T10:58:28.000Z</time>
      </trkpt>
      <trkpt lat="42.99876756034791469573974609375" lon="-4.77403256110846996307373046875">
        <ele>2172.800048828125</ele>
        <time>2021-07-22T10:58:30.000Z</time>
      </trkpt>
      <trkpt lat="42.998758591711521148681640625" lon="-4.77400682866573333740234375">
        <ele>2171.800048828125</ele>
        <time>2021-07-22T10:58:36.000Z</time>
      </trkpt>
      <trkpt lat="42.99875414930284023284912109375" lon="-4.77400791831314563751220703125">
        <ele>2171.39990234375</ele>
        <time>2021-07-22T10:58:37.000Z</time>
      </trkpt>
      <trkpt lat="42.9987128265202045440673828125" lon="-4.7740334831178188323974609375">
        <ele>2170.39990234375</ele>
        <time>2021-07-22T10:58:43.000Z</time>
      </trkpt>
      <trkpt lat="42.99870796501636505126953125" lon="-4.77407497353851795196533203125">
        <ele>2169.39990234375</ele>
        <time>2021-07-22T10:58:46.000Z</time>
      </trkpt>
      <trkpt lat="42.99870436079800128936767578125" lon="-4.774105735123157501220703125">
        <ele>2168.60009765625</ele>
        <time>2021-07-22T10:58:48.000Z</time>
      </trkpt>
      <trkpt lat="42.9987054504454135894775390625" lon="-4.7741323895752429962158203125">
        <ele>2168.199951171875</ele>
        <time>2021-07-22T10:58:50.000Z</time>
      </trkpt>
      <trkpt lat="42.99871408380568027496337890625" lon="-4.7741585411131381988525390625">
        <ele>2167.60009765625</ele>
        <time>2021-07-22T10:58:53.000Z</time>
      </trkpt>
      <trkpt lat="42.998712994158267974853515625" lon="-4.77423238568007946014404296875">
        <ele>2167</ele>
        <time>2021-07-22T10:59:00.000Z</time>
      </trkpt>
      <trkpt lat="42.9987111501395702362060546875" lon="-4.7742413543164730072021484375">
        <ele>2165.800048828125</ele>
        <time>2021-07-22T10:59:01.000Z</time>
      </trkpt>
      <trkpt lat="42.99871073104441165924072265625" lon="-4.77427664212882518768310546875">
        <ele>2164.800048828125</ele>
        <time>2021-07-22T10:59:04.000Z</time>
      </trkpt>
      <trkpt lat="42.9987113177776336669921875" lon="-4.77429072372615337371826171875">
        <ele>2164.800048828125</ele>
        <time>2021-07-22T10:59:05.000Z</time>
      </trkpt>
      <trkpt lat="42.99871391616761684417724609375" lon="-4.77431201376020908355712890625">
        <ele>2164.60009765625</ele>
        <time>2021-07-22T10:59:07.000Z</time>
      </trkpt>
      <trkpt lat="42.99870100803673267364501953125" lon="-4.774353839457035064697265625">
        <ele>2163</ele>
        <time>2021-07-22T10:59:12.000Z</time>
      </trkpt>
      <trkpt lat="42.998688183724880218505859375" lon="-4.77438325993716716766357421875">
        <ele>2161.39990234375</ele>
        <time>2021-07-22T10:59:14.000Z</time>
      </trkpt>
      <trkpt lat="42.9986833222210407257080078125" lon="-4.77439382113516330718994140625">
        <ele>2161</ele>
        <time>2021-07-22T10:59:15.000Z</time>
      </trkpt>
      <trkpt lat="42.9986769519746303558349609375" lon="-4.7744073159992694854736328125">
        <ele>2160.39990234375</ele>
        <time>2021-07-22T10:59:17.000Z</time>
      </trkpt>
      <trkpt lat="42.99867577850818634033203125" lon="-4.7744066454470157623291015625">
        <ele>2160</ele>
        <time>2021-07-22T10:59:18.000Z</time>
      </trkpt>
      <trkpt lat="42.998680137097835540771484375" lon="-4.7743996046483516693115234375">
        <ele>2159.199951171875</ele>
        <time>2021-07-22T10:59:20.000Z</time>
      </trkpt>
      <trkpt lat="42.9986823163926601409912109375" lon="-4.77439516223967075347900390625">
        <ele>2158.800048828125</ele>
        <time>2021-07-22T10:59:22.000Z</time>
      </trkpt>
      <trkpt lat="42.9986766166985034942626953125" lon="-4.77440622635185718536376953125">
        <ele>2158.199951171875</ele>
        <time>2021-07-22T10:59:25.000Z</time>
      </trkpt>
      <trkpt lat="42.99866815097630023956298828125" lon="-4.77441159076988697052001953125">
        <ele>2158</ele>
        <time>2021-07-22T10:59:28.000Z</time>
      </trkpt>
      <trkpt lat="42.99867385067045688629150390625" lon="-4.774420559406280517578125">
        <ele>2157.800048828125</ele>
        <time>2021-07-22T10:59:30.000Z</time>
      </trkpt>
      <trkpt lat="42.99867737106978893280029296875" lon="-4.77442181669175624847412109375">
        <ele>2158.199951171875</ele>
        <time>2021-07-22T10:59:32.000Z</time>
      </trkpt>
      <trkpt lat="42.99868114292621612548828125" lon="-4.774426259100437164306640625">
        <ele>2157.800048828125</ele>
        <time>2021-07-22T10:59:34.000Z</time>
      </trkpt>
      <trkpt lat="42.99869162030518054962158203125" lon="-4.7744244150817394256591796875">
        <ele>2157.800048828125</ele>
        <time>2021-07-22T10:59:40.000Z</time>
      </trkpt>
      <trkpt lat="42.998686172068119049072265625" lon="-4.77443824522197246551513671875">
        <ele>2158.39990234375</ele>
        <time>2021-07-22T10:59:46.000Z</time>
      </trkpt>
      <trkpt lat="42.99866362474858760833740234375" lon="-4.77448283694684505462646484375">
        <ele>2156.800048828125</ele>
        <time>2021-07-22T10:59:52.000Z</time>
      </trkpt>
      <trkpt lat="42.99865826033055782318115234375" lon="-4.77448694407939910888671875">
        <ele>2156.60009765625</ele>
        <time>2021-07-22T10:59:53.000Z</time>
      </trkpt>
      <trkpt lat="42.99862037412822246551513671875" lon="-4.77451669983565807342529296875">
        <ele>2156</ele>
        <time>2021-07-22T10:59:57.000Z</time>
      </trkpt>
      <trkpt lat="42.9986115731298923492431640625" lon="-4.77453614585101604461669921875">
        <ele>2155.800048828125</ele>
        <time>2021-07-22T10:59:58.000Z</time>
      </trkpt>
      <trkpt lat="42.99860444851219654083251953125" lon="-4.7745595313608646392822265625">
        <ele>2154.199951171875</ele>
        <time>2021-07-22T11:00:00.000Z</time>
      </trkpt>
      <trkpt lat="42.9985981620848178863525390625" lon="-4.77459817193448543548583984375">
        <ele>2152.800048828125</ele>
        <time>2021-07-22T11:00:02.000Z</time>
      </trkpt>
      <trkpt lat="42.99859388731420040130615234375" lon="-4.7746480442583560943603515625">
        <ele>2152</ele>
        <time>2021-07-22T11:00:06.000Z</time>
      </trkpt>
      <trkpt lat="42.99859120510518550872802734375" lon="-4.77465986274182796478271484375">
        <ele>2151.60009765625</ele>
        <time>2021-07-22T11:00:07.000Z</time>
      </trkpt>
      <trkpt lat="42.9985750280320644378662109375" lon="-4.774705208837985992431640625">
        <ele>2150.60009765625</ele>
        <time>2021-07-22T11:00:11.000Z</time>
      </trkpt>
      <trkpt lat="42.99856689758598804473876953125" lon="-4.77470512501895427703857421875">
        <ele>2149.60009765625</ele>
        <time>2021-07-22T11:00:13.000Z</time>
      </trkpt>
      <trkpt lat="42.99856119789183139801025390625" lon="-4.7746959887444972991943359375">
        <ele>2149</ele>
        <time>2021-07-22T11:00:14.000Z</time>
      </trkpt>
      <trkpt lat="42.99855784513056278228759765625" lon="-4.77468601427972316741943359375">
        <ele>2148.60009765625</ele>
        <time>2021-07-22T11:00:15.000Z</time>
      </trkpt>
      <trkpt lat="42.9985545761883258819580078125" lon="-4.7746748663485050201416015625">
        <ele>2148.39990234375</ele>
        <time>2021-07-22T11:00:16.000Z</time>
      </trkpt>
      <trkpt lat="42.998559437692165374755859375" lon="-4.77466422133147716522216796875">
        <ele>2148</ele>
        <time>2021-07-22T11:00:21.000Z</time>
      </trkpt>
      <trkpt lat="42.99855918623507022857666015625" lon="-4.77467327378690242767333984375">
        <ele>2148</ele>
        <time>2021-07-22T11:00:22.000Z</time>
      </trkpt>
      <trkpt lat="42.99855851568281650543212890625" lon="-4.7746946476399898529052734375">
        <ele>2148</ele>
        <time>2021-07-22T11:00:29.000Z</time>
      </trkpt>
      <trkpt lat="42.99856656230986118316650390625" lon="-4.77469506673514842987060546875">
        <ele>2147.199951171875</ele>
        <time>2021-07-22T11:00:34.000Z</time>
      </trkpt>
      <trkpt lat="42.9985664784908294677734375" lon="-4.774694144725799560546875">
        <ele>2147.199951171875</ele>
        <time>2021-07-22T11:00:35.000Z</time>
      </trkpt>
      <trkpt lat="42.99856044352054595947265625" lon="-4.77475826628506183624267578125">
        <ele>2147</ele>
        <time>2021-07-22T11:00:42.000Z</time>
      </trkpt>
      <trkpt lat="42.99855985678732395172119140625" lon="-4.77480084635317325592041015625">
        <ele>2146</ele>
        <time>2021-07-22T11:00:46.000Z</time>
      </trkpt>
      <trkpt lat="42.99855910241603851318359375" lon="-4.7748217172920703887939453125">
        <ele>2145.39990234375</ele>
        <time>2021-07-22T11:00:48.000Z</time>
      </trkpt>
      <trkpt lat="42.99855734221637248992919921875" lon="-4.7748391516506671905517578125">
        <ele>2145</ele>
        <time>2021-07-22T11:00:50.000Z</time>
      </trkpt>
      <trkpt lat="42.99855172634124755859375" lon="-4.77490126155316829681396484375">
        <ele>2145</ele>
        <time>2021-07-22T11:00:55.000Z</time>
      </trkpt>
      <trkpt lat="42.9985512234270572662353515625" lon="-4.774978794157505035400390625">
        <ele>2143.800048828125</ele>
        <time>2021-07-22T11:01:01.000Z</time>
      </trkpt>
      <trkpt lat="42.99855415709316730499267578125" lon="-4.77499522268772125244140625">
        <ele>2143.800048828125</ele>
        <time>2021-07-22T11:01:02.000Z</time>
      </trkpt>
      <trkpt lat="42.9985582642257213592529296875" lon="-4.77501332759857177734375">
        <ele>2143.60009765625</ele>
        <time>2021-07-22T11:01:03.000Z</time>
      </trkpt>
      <trkpt lat="42.9985691606998443603515625" lon="-4.7750372998416423797607421875">
        <ele>2142.800048828125</ele>
        <time>2021-07-22T11:01:05.000Z</time>
      </trkpt>
      <trkpt lat="42.998571507632732391357421875" lon="-4.7750468552112579345703125">
        <ele>2142.39990234375</ele>
        <time>2021-07-22T11:01:06.000Z</time>
      </trkpt>
      <trkpt lat="42.99857175908982753753662109375" lon="-4.775080382823944091796875">
        <ele>2141.800048828125</ele>
        <time>2021-07-22T11:01:09.000Z</time>
      </trkpt>
      <trkpt lat="42.99857745878398418426513671875" lon="-4.77510460652410984039306640625">
        <ele>2140.39990234375</ele>
        <time>2021-07-22T11:01:11.000Z</time>
      </trkpt>
      <trkpt lat="42.9985825717449188232421875" lon="-4.77512941695749759674072265625">
        <ele>2139.39990234375</ele>
        <time>2021-07-22T11:01:13.000Z</time>
      </trkpt>
      <trkpt lat="42.99858500249683856964111328125" lon="-4.775141738355159759521484375">
        <ele>2139.199951171875</ele>
        <time>2021-07-22T11:01:14.000Z</time>
      </trkpt>
      <trkpt lat="42.99859623424708843231201171875" lon="-4.77519948966801166534423828125">
        <ele>2138.60009765625</ele>
        <time>2021-07-22T11:01:19.000Z</time>
      </trkpt>
      <trkpt lat="42.99859623424708843231201171875" lon="-4.77523938752710819244384765625">
        <ele>2137.800048828125</ele>
        <time>2021-07-22T11:01:22.000Z</time>
      </trkpt>
      <trkpt lat="42.99859455786645412445068359375" lon="-4.7752857394516468048095703125">
        <ele>2136.800048828125</ele>
        <time>2021-07-22T11:01:25.000Z</time>
      </trkpt>
      <trkpt lat="42.9985907860100269317626953125" lon="-4.7753293253481388092041015625">
        <ele>2135.199951171875</ele>
        <time>2021-07-22T11:01:27.000Z</time>
      </trkpt>
      <trkpt lat="42.99857192672789096832275390625" lon="-4.77535773999989032745361328125">
        <ele>2134</ele>
        <time>2021-07-22T11:01:30.000Z</time>
      </trkpt>
      <trkpt lat="42.9985649697482585906982421875" lon="-4.7753564827144145965576171875">
        <ele>2134</ele>
        <time>2021-07-22T11:01:31.000Z</time>
      </trkpt>
      <trkpt lat="42.99854108132421970367431640625" lon="-4.77536008693277835845947265625">
        <ele>2133</ele>
        <time>2021-07-22T11:01:33.000Z</time>
      </trkpt>
      <trkpt lat="42.9985294304788112640380859375" lon="-4.77535371668636798858642578125">
        <ele>2132.800048828125</ele>
        <time>2021-07-22T11:01:34.000Z</time>
      </trkpt>
      <trkpt lat="42.9984895326197147369384765625" lon="-4.77535271085798740386962890625">
        <ele>2132</ele>
        <time>2021-07-22T11:01:37.000Z</time>
      </trkpt>
      <trkpt lat="42.99847687594592571258544921875" lon="-4.77535086683928966522216796875">
        <ele>2131.39990234375</ele>
        <time>2021-07-22T11:01:38.000Z</time>
      </trkpt>
      <trkpt lat="42.9984633810818195343017578125" lon="-4.77534525096416473388671875">
        <ele>2131</ele>
        <time>2021-07-22T11:01:39.000Z</time>
      </trkpt>
      <trkpt lat="42.99845659174025058746337890625" lon="-4.77534935809671878814697265625">
        <ele>2129.800048828125</ele>
        <time>2021-07-22T11:01:40.000Z</time>
      </trkpt>
      <trkpt lat="42.9984476231038570404052734375" lon="-4.77534868754446506500244140625">
        <ele>2128.60009765625</ele>
        <time>2021-07-22T11:01:41.000Z</time>
      </trkpt>
      <trkpt lat="42.99844820983707904815673828125" lon="-4.77535866200923919677734375">
        <ele>2127.39990234375</ele>
        <time>2021-07-22T11:01:44.000Z</time>
      </trkpt>
      <trkpt lat="42.9984476231038570404052734375" lon="-4.7753579914569854736328125">
        <ele>2128</ele>
        <time>2021-07-22T11:01:45.000Z</time>
      </trkpt>
      <trkpt lat="42.99844737164676189422607421875" lon="-4.77535539306700229644775390625">
        <ele>2128.60009765625</ele>
        <time>2021-07-22T11:01:47.000Z</time>
      </trkpt>
      <trkpt lat="42.99845390953123569488525390625" lon="-4.7753625176846981048583984375">
        <ele>2128.60009765625</ele>
        <time>2021-07-22T11:01:51.000Z</time>
      </trkpt>
      <trkpt lat="42.9984818212687969207763671875" lon="-4.77539814077317714691162109375">
        <ele>2127.39990234375</ele>
        <time>2021-07-22T11:01:56.000Z</time>
      </trkpt>
      <trkpt lat="42.9984865151345729827880859375" lon="-4.7753936983644962310791015625">
        <ele>2126.60009765625</ele>
        <time>2021-07-22T11:02:01.000Z</time>
      </trkpt>
      <trkpt lat="42.9984342120587825775146484375" lon="-4.77538489736616611480712890625">
        <ele>2127</ele>
        <time>2021-07-22T11:02:07.000Z</time>
      </trkpt>
      <trkpt lat="42.99841434694826602935791015625" lon="-4.77538816630840301513671875">
        <ele>2126.39990234375</ele>
        <time>2021-07-22T11:02:09.000Z</time>
      </trkpt>
      <trkpt lat="42.99839003942906856536865234375" lon="-4.77537835948169231414794921875">
        <ele>2125.199951171875</ele>
        <time>2021-07-22T11:02:12.000Z</time>
      </trkpt>
      <trkpt lat="42.99837964586913585662841796875" lon="-4.77537383325397968292236328125">
        <ele>2124.800048828125</ele>
        <time>2021-07-22T11:02:13.000Z</time>
      </trkpt>
      <trkpt lat="42.998338155448436737060546875" lon="-4.77537735365331172943115234375">
        <ele>2123.60009765625</ele>
        <time>2021-07-22T11:02:17.000Z</time>
      </trkpt>
      <trkpt lat="42.9983279295265674591064453125" lon="-4.77538087405264377593994140625">
        <ele>2123</ele>
        <time>2021-07-22T11:02:18.000Z</time>
      </trkpt>
      <trkpt lat="42.99831761978566646575927734375" lon="-4.775383807718753814697265625">
        <ele>2122.199951171875</ele>
        <time>2021-07-22T11:02:19.000Z</time>
      </trkpt>
      <trkpt lat="42.9982821643352508544921875" lon="-4.775399230420589447021484375">
        <ele>2121</ele>
        <time>2021-07-22T11:02:22.000Z</time>
      </trkpt>
      <trkpt lat="42.99827839247882366180419921875" lon="-4.7754004038870334625244140625">
        <ele>2120.39990234375</ele>
        <time>2021-07-22T11:02:23.000Z</time>
      </trkpt>
      <trkpt lat="42.99827403388917446136474609375" lon="-4.77540333755314350128173828125">
        <ele>2119.39990234375</ele>
        <time>2021-07-22T11:02:24.000Z</time>
      </trkpt>
      <trkpt lat="42.99827135168015956878662109375" lon="-4.77539621293544769287109375">
        <ele>2118.199951171875</ele>
        <time>2021-07-22T11:02:26.000Z</time>
      </trkpt>
      <trkpt lat="42.9982674121856689453125" lon="-4.77537869475781917572021484375">
        <ele>2117.60009765625</ele>
        <time>2021-07-22T11:02:28.000Z</time>
      </trkpt>
      <trkpt lat="42.99822516739368438720703125" lon="-4.7753526270389556884765625">
        <ele>2117.39990234375</ele>
        <time>2021-07-22T11:02:33.000Z</time>
      </trkpt>
      <trkpt lat="42.998194992542266845703125" lon="-4.775340892374515533447265625">
        <ele>2117</ele>
        <time>2021-07-22T11:02:36.000Z</time>
      </trkpt>
      <trkpt lat="42.998180575668811798095703125" lon="-4.77534013800323009490966796875">
        <ele>2117</ele>
        <time>2021-07-22T11:02:37.000Z</time>
      </trkpt>
      <trkpt lat="42.99815677106380462646484375" lon="-4.77534583769738674163818359375">
        <ele>2116.39990234375</ele>
        <time>2021-07-22T11:02:39.000Z</time>
      </trkpt>
      <trkpt lat="42.9981324635446071624755859375" lon="-4.77535019628703594207763671875">
        <ele>2116</ele>
        <time>2021-07-22T11:02:41.000Z</time>
      </trkpt>
      <trkpt lat="42.99809415824711322784423828125" lon="-4.77535237558186054229736328125">
        <ele>2114.39990234375</ele>
        <time>2021-07-22T11:02:44.000Z</time>
      </trkpt>
      <trkpt lat="42.99806716851890087127685546875" lon="-4.775351621210575103759765625">
        <ele>2113.39990234375</ele>
        <time>2021-07-22T11:02:46.000Z</time>
      </trkpt>
      <trkpt lat="42.99805509857833385467529296875" lon="-4.775348939001560211181640625">
        <ele>2112.199951171875</ele>
        <time>2021-07-22T11:02:48.000Z</time>
      </trkpt>
      <trkpt lat="42.9980461299419403076171875" lon="-4.77535120211541652679443359375">
        <ele>2111</ele>
        <time>2021-07-22T11:02:51.000Z</time>
      </trkpt>
      <trkpt lat="42.99804210662841796875" lon="-4.77535472251474857330322265625">
        <ele>2110.60009765625</ele>
        <time>2021-07-22T11:02:52.000Z</time>
      </trkpt>
      <trkpt lat="42.99803732894361019134521484375" lon="-4.7753687202930450439453125">
        <ele>2108.39990234375</ele>
        <time>2021-07-22T11:02:54.000Z</time>
      </trkpt>
      <trkpt lat="42.9980312101542949676513671875" lon="-4.77535824291408061981201171875">
        <ele>2107</ele>
        <time>2021-07-22T11:02:56.000Z</time>
      </trkpt>
      <trkpt lat="42.99801268614828586578369140625" lon="-4.77534550242125988006591796875">
        <ele>2107.199951171875</ele>
        <time>2021-07-22T11:03:00.000Z</time>
      </trkpt>
      <trkpt lat="42.9980053938925266265869140625" lon="-4.77534768171608448028564453125">
        <ele>2107.39990234375</ele>
        <time>2021-07-22T11:03:01.000Z</time>
      </trkpt>
      <trkpt lat="42.9979953356087207794189453125" lon="-4.77534868754446506500244140625">
        <ele>2105.800048828125</ele>
        <time>2021-07-22T11:03:06.000Z</time>
      </trkpt>
      <trkpt lat="42.99797597341239452362060546875" lon="-4.7753306664526462554931640625">
        <ele>2105.199951171875</ele>
        <time>2021-07-22T11:03:10.000Z</time>
      </trkpt>
      <trkpt lat="42.99795920960605144500732421875" lon="-4.77532890625298023223876953125">
        <ele>2105.199951171875</ele>
        <time>2021-07-22T11:03:12.000Z</time>
      </trkpt>
      <trkpt lat="42.9979483969509601593017578125" lon="-4.77534784935414791107177734375">
        <ele>2105</ele>
        <time>2021-07-22T11:03:14.000Z</time>
      </trkpt>
      <trkpt lat="42.99795233644545078277587890625" lon="-4.7753615118563175201416015625">
        <ele>2104.60009765625</ele>
        <time>2021-07-22T11:03:15.000Z</time>
      </trkpt>
      <trkpt lat="42.99795518629252910614013671875" lon="-4.77537919767200946807861328125">
        <ele>2104.199951171875</ele>
        <time>2021-07-22T11:03:16.000Z</time>
      </trkpt>
      <trkpt lat="42.997958622872829437255859375" lon="-4.77540769614279270172119140625">
        <ele>2103.60009765625</ele>
        <time>2021-07-22T11:03:18.000Z</time>
      </trkpt>
      <trkpt lat="42.99795820377767086029052734375" lon="-4.7754322551190853118896484375">
        <ele>2103.39990234375</ele>
        <time>2021-07-22T11:03:20.000Z</time>
      </trkpt>
      <trkpt lat="42.997959963977336883544921875" lon="-4.77549101226031780242919921875">
        <ele>2101.800048828125</ele>
        <time>2021-07-22T11:03:25.000Z</time>
      </trkpt>
      <trkpt lat="42.99794462509453296661376953125" lon="-4.775512218475341796875">
        <ele>2100.39990234375</ele>
        <time>2021-07-22T11:03:28.000Z</time>
      </trkpt>
      <trkpt lat="42.997925095260143280029296875" lon="-4.7755117155611515045166015625">
        <ele>2099.800048828125</ele>
        <time>2021-07-22T11:03:30.000Z</time>
      </trkpt>
      <trkpt lat="42.99791176803410053253173828125" lon="-4.77551154792308807373046875">
        <ele>2099.199951171875</ele>
        <time>2021-07-22T11:03:31.000Z</time>
      </trkpt>
      <trkpt lat="42.99787304364144802093505859375" lon="-4.7755028307437896728515625">
        <ele>2098.199951171875</ele>
        <time>2021-07-22T11:03:34.000Z</time>
      </trkpt>
      <trkpt lat="42.99786298535764217376708984375" lon="-4.77550073526799678802490234375">
        <ele>2097.39990234375</ele>
        <time>2021-07-22T11:03:36.000Z</time>
      </trkpt>
      <trkpt lat="42.997856028378009796142578125" lon="-4.77550308220088481903076171875">
        <ele>2096.800048828125</ele>
        <time>2021-07-22T11:03:37.000Z</time>
      </trkpt>
      <trkpt lat="42.99781420268118381500244140625" lon="-4.77551062591373920440673828125">
        <ele>2095.800048828125</ele>
        <time>2021-07-22T11:03:42.000Z</time>
      </trkpt>
      <trkpt lat="42.9978100955486297607421875" lon="-4.775520265102386474609375">
        <ele>2094.800048828125</ele>
        <time>2021-07-22T11:03:44.000Z</time>
      </trkpt>
      <trkpt lat="42.99780414439737796783447265625" lon="-4.7755162417888641357421875">
        <ele>2094</ele>
        <time>2021-07-22T11:03:45.000Z</time>
      </trkpt>
      <trkpt lat="42.9977941699326038360595703125" lon="-4.77551934309303760528564453125">
        <ele>2093.39990234375</ele>
        <time>2021-07-22T11:03:46.000Z</time>
      </trkpt>
      <trkpt lat="42.99777816049754619598388671875" lon="-4.7755224443972110748291015625">
        <ele>2092.39990234375</ele>
        <time>2021-07-22T11:03:48.000Z</time>
      </trkpt>
      <trkpt lat="42.9977683536708354949951171875" lon="-4.775521941483020782470703125">
        <ele>2092.199951171875</ele>
        <time>2021-07-22T11:03:49.000Z</time>
      </trkpt>
      <trkpt lat="42.997725270688533782958984375" lon="-4.77553325705230236053466796875">
        <ele>2091</ele>
        <time>2021-07-22T11:03:52.000Z</time>
      </trkpt>
      <trkpt lat="42.9977133683860301971435546875" lon="-4.7755375318229198455810546875">
        <ele>2090.60009765625</ele>
        <time>2021-07-22T11:03:53.000Z</time>
      </trkpt>
      <trkpt lat="42.9977043159306049346923828125" lon="-4.7755261324346065521240234375">
        <ele>2089.800048828125</ele>
        <time>2021-07-22T11:03:55.000Z</time>
      </trkpt>
      <trkpt lat="42.99770490266382694244384765625" lon="-4.7755137272179126739501953125">
        <ele>2089.39990234375</ele>
        <time>2021-07-22T11:03:56.000Z</time>
      </trkpt>
      <trkpt lat="42.997690737247467041015625" lon="-4.7754936106503009796142578125">
        <ele>2089</ele>
        <time>2021-07-22T11:03:58.000Z</time>
      </trkpt>
      <trkpt lat="42.99768093042075634002685546875" lon="-4.77548648603260517120361328125">
        <ele>2088.60009765625</ele>
        <time>2021-07-22T11:03:59.000Z</time>
      </trkpt>
      <trkpt lat="42.99766215495765209197998046875" lon="-4.77546938695013523101806640625">
        <ele>2087.800048828125</ele>
        <time>2021-07-22T11:04:01.000Z</time>
      </trkpt>
      <trkpt lat="42.99765653908252716064453125" lon="-4.77544742636382579803466796875">
        <ele>2087.60009765625</ele>
        <time>2021-07-22T11:04:03.000Z</time>
      </trkpt>
      <trkpt lat="42.9976516775786876678466796875" lon="-4.7754392959177494049072265625">
        <ele>2087.60009765625</ele>
        <time>2021-07-22T11:04:04.000Z</time>
      </trkpt>
      <trkpt lat="42.99761773087084293365478515625" lon="-4.77545681409537792205810546875">
        <ele>2086.39990234375</ele>
        <time>2021-07-22T11:04:07.000Z</time>
      </trkpt>
      <trkpt lat="42.9976027272641658782958984375" lon="-4.775462932884693145751953125">
        <ele>2085.800048828125</ele>
        <time>2021-07-22T11:04:09.000Z</time>
      </trkpt>
      <trkpt lat="42.99761496484279632568359375" lon="-4.77546184323728084564208984375">
        <ele>2085.39990234375</ele>
        <time>2021-07-22T11:04:11.000Z</time>
      </trkpt>
      <trkpt lat="42.9976144619286060333251953125" lon="-4.77546460926532745361328125">
        <ele>2084.800048828125</ele>
        <time>2021-07-22T11:04:13.000Z</time>
      </trkpt>
      <trkpt lat="42.997597865760326385498046875" lon="-4.7754181735217571258544921875">
        <ele>2085.39990234375</ele>
        <time>2021-07-22T11:04:18.000Z</time>
      </trkpt>
      <trkpt lat="42.99760423600673675537109375" lon="-4.7753759287297725677490234375">
        <ele>2085.199951171875</ele>
        <time>2021-07-22T11:04:20.000Z</time>
      </trkpt>
      <trkpt lat="42.997591830790042877197265625" lon="-4.7753853164613246917724609375">
        <ele>2084.60009765625</ele>
        <time>2021-07-22T11:04:23.000Z</time>
      </trkpt>
      <trkpt lat="42.99758386798202991485595703125" lon="-4.77539428509771823883056640625">
        <ele>2084.199951171875</ele>
        <time>2021-07-22T11:04:24.000Z</time>
      </trkpt>
      <trkpt lat="42.9975685290992259979248046875" lon="-4.77539914660155773162841796875">
        <ele>2083.199951171875</ele>
        <time>2021-07-22T11:04:26.000Z</time>
      </trkpt>
      <trkpt lat="42.997556626796722412109375" lon="-4.77538825012743473052978515625">
        <ele>2082.800048828125</ele>
        <time>2021-07-22T11:04:28.000Z</time>
      </trkpt>
      <trkpt lat="42.99753407947719097137451171875" lon="-4.775344915688037872314453125">
        <ele>2082.199951171875</ele>
        <time>2021-07-22T11:04:32.000Z</time>
      </trkpt>
      <trkpt lat="42.99752871505916118621826171875" lon="-4.775329492986202239990234375">
        <ele>2082.199951171875</ele>
        <time>2021-07-22T11:04:33.000Z</time>
      </trkpt>
      <trkpt lat="42.9975242726504802703857421875" lon="-4.77526704780757427215576171875">
        <ele>2082</ele>
        <time>2021-07-22T11:04:36.000Z</time>
      </trkpt>
      <trkpt lat="42.99749921075999736785888671875" lon="-4.77524039335548877716064453125">
        <ele>2081</ele>
        <time>2021-07-22T11:04:39.000Z</time>
      </trkpt>
      <trkpt lat="42.99744623713195323944091796875" lon="-4.7752049379050731658935546875">
        <ele>2080.199951171875</ele>
        <time>2021-07-22T11:04:44.000Z</time>
      </trkpt>
      <trkpt lat="42.9974374361336231231689453125" lon="-4.77519311942160129547119140625">
        <ele>2079.60009765625</ele>
        <time>2021-07-22T11:04:45.000Z</time>
      </trkpt>
      <trkpt lat="42.9974186606705188751220703125" lon="-4.7751730866730213165283203125">
        <ele>2079.199951171875</ele>
        <time>2021-07-22T11:04:47.000Z</time>
      </trkpt>
      <trkpt lat="42.997409440577030181884765625" lon="-4.7751576639711856842041015625">
        <ele>2078.199951171875</ele>
        <time>2021-07-22T11:04:48.000Z</time>
      </trkpt>
      <trkpt lat="42.99736979417502880096435546875" lon="-4.77510946802794933319091796875">
        <ele>2077.39990234375</ele>
        <time>2021-07-22T11:04:52.000Z</time>
      </trkpt>
      <trkpt lat="42.9973653517663478851318359375" lon="-4.77509538643062114715576171875">
        <ele>2076.60009765625</ele>
        <time>2021-07-22T11:04:53.000Z</time>
      </trkpt>
      <trkpt lat="42.99735319800674915313720703125" lon="-4.77502849884331226348876953125">
        <ele>2075.800048828125</ele>
        <time>2021-07-22T11:04:57.000Z</time>
      </trkpt>
      <trkpt lat="42.997339703142642974853515625" lon="-4.77498323656618595123291015625">
        <ele>2076</ele>
        <time>2021-07-22T11:05:00.000Z</time>
      </trkpt>
      <trkpt lat="42.9973447322845458984375" lon="-4.77489463984966278076171875">
        <ele>2075.60009765625</ele>
        <time>2021-07-22T11:05:03.000Z</time>
      </trkpt>
      <trkpt lat="42.997335679829120635986328125" lon="-4.774877540767192840576171875">
        <ele>2075</ele>
        <time>2021-07-22T11:05:04.000Z</time>
      </trkpt>
      <trkpt lat="42.99732662737369537353515625" lon="-4.77475658990442752838134765625">
        <ele>2074.39990234375</ele>
        <time>2021-07-22T11:05:09.000Z</time>
      </trkpt>
      <trkpt lat="42.99731967039406299591064453125" lon="-4.77470562793314456939697265625">
        <ele>2073.800048828125</ele>
        <time>2021-07-22T11:05:12.000Z</time>
      </trkpt>
      <trkpt lat="42.9972993023693561553955078125" lon="-4.7746869362890720367431640625">
        <ele>2073</ele>
        <time>2021-07-22T11:05:16.000Z</time>
      </trkpt>
      <trkpt lat="42.99729251302778720855712890625" lon="-4.77468282915651798248291015625">
        <ele>2073.199951171875</ele>
        <time>2021-07-22T11:05:17.000Z</time>
      </trkpt>
      <trkpt lat="42.99728379584848880767822265625" lon="-4.7746819071471691131591796875">
        <ele>2073</ele>
        <time>2021-07-22T11:05:18.000Z</time>
      </trkpt>
      <trkpt lat="42.9972708038985729217529296875" lon="-4.77457503788173198699951171875">
        <ele>2073.60009765625</ele>
        <time>2021-07-22T11:05:24.000Z</time>
      </trkpt>
      <trkpt lat="42.99726703204214572906494140625" lon="-4.77457621134817600250244140625">
        <ele>2073.39990234375</ele>
        <time>2021-07-22T11:05:26.000Z</time>
      </trkpt>
      <trkpt lat="42.9972510226070880889892578125" lon="-4.77455408312380313873291015625">
        <ele>2073.199951171875</ele>
        <time>2021-07-22T11:05:31.000Z</time>
      </trkpt>
      <trkpt lat="42.9972521960735321044921875" lon="-4.77452994324266910552978515625">
        <ele>2073.199951171875</ele>
        <time>2021-07-22T11:05:32.000Z</time>
      </trkpt>
      <trkpt lat="42.9972288943827152252197265625" lon="-4.77448535151779651641845703125">
        <ele>2073.39990234375</ele>
        <time>2021-07-22T11:05:37.000Z</time>
      </trkpt>
      <trkpt lat="42.9972064308822154998779296875" lon="-4.7744616307318210601806640625">
        <ele>2073.60009765625</ele>
        <time>2021-07-22T11:05:43.000Z</time>
      </trkpt>
      <trkpt lat="42.997195534408092498779296875" lon="-4.77440270595252513885498046875">
        <ele>2073.199951171875</ele>
        <time>2021-07-22T11:05:49.000Z</time>
      </trkpt>
      <trkpt lat="42.9971950314939022064208984375" lon="-4.77436959743499755859375">
        <ele>2073</ele>
        <time>2021-07-22T11:05:51.000Z</time>
      </trkpt>
      <trkpt lat="42.9971903376281261444091796875" lon="-4.7743268497288227081298828125">
        <ele>2073</ele>
        <time>2021-07-22T11:05:55.000Z</time>
      </trkpt>
      <trkpt lat="42.9971886612474918365478515625" lon="-4.77429256774485111236572265625">
        <ele>2073</ele>
        <time>2021-07-22T11:05:57.000Z</time>
      </trkpt>
      <trkpt lat="42.99718170426785945892333984375" lon="-4.774275720119476318359375">
        <ele>2072.800048828125</ele>
        <time>2021-07-22T11:05:59.000Z</time>
      </trkpt>
      <trkpt lat="42.9971732385456562042236328125" lon="-4.7742745466530323028564453125">
        <ele>2072.60009765625</ele>
        <time>2021-07-22T11:06:00.000Z</time>
      </trkpt>
      <trkpt lat="42.99716770648956298828125" lon="-4.77425887249410152435302734375">
        <ele>2072.39990234375</ele>
        <time>2021-07-22T11:06:01.000Z</time>
      </trkpt>
      <trkpt lat="42.99714214168488979339599609375" lon="-4.7742386721074581146240234375">
        <ele>2072.39990234375</ele>
        <time>2021-07-22T11:06:05.000Z</time>
      </trkpt>
      <trkpt lat="42.9971366934478282928466796875" lon="-4.774233140051364898681640625">
        <ele>2071.800048828125</ele>
        <time>2021-07-22T11:06:09.000Z</time>
      </trkpt>
      <trkpt lat="42.9971397109329700469970703125" lon="-4.77422802709043025970458984375">
        <ele>2071.60009765625</ele>
        <time>2021-07-22T11:06:10.000Z</time>
      </trkpt>
      <trkpt lat="42.99714314751327037811279296875" lon="-4.77421813644468784332275390625">
        <ele>2071.39990234375</ele>
        <time>2021-07-22T11:06:11.000Z</time>
      </trkpt>
      <trkpt lat="42.9971346817910671234130859375" lon="-4.7741856984794139862060546875">
        <ele>2071.199951171875</ele>
        <time>2021-07-22T11:06:14.000Z</time>
      </trkpt>
      <trkpt lat="42.9971330054104328155517578125" lon="-4.774153344333171844482421875">
        <ele>2071.199951171875</ele>
        <time>2021-07-22T11:06:16.000Z</time>
      </trkpt>
      <trkpt lat="42.9971061833202838897705078125" lon="-4.77406474761664867401123046875">
        <ele>2072</ele>
        <time>2021-07-22T11:06:23.000Z</time>
      </trkpt>
      <trkpt lat="42.99710308201611042022705078125" lon="-4.774054773151874542236328125">
        <ele>2072.60009765625</ele>
        <time>2021-07-22T11:06:24.000Z</time>
      </trkpt>
      <trkpt lat="42.9970978014171123504638671875" lon="-4.774025939404964447021484375">
        <ele>2073</ele>
        <time>2021-07-22T11:06:26.000Z</time>
      </trkpt>
      <trkpt lat="42.99708581529557704925537109375" lon="-4.77398713119328022003173828125">
        <ele>2072.199951171875</ele>
        <time>2021-07-22T11:06:28.000Z</time>
      </trkpt>
      <trkpt lat="42.99707810394465923309326171875" lon="-4.7739255242049694061279296875">
        <ele>2071.39990234375</ele>
        <time>2021-07-22T11:06:31.000Z</time>
      </trkpt>
      <trkpt lat="42.9970590770244598388671875" lon="-4.77388403378427028656005859375">
        <ele>2071.199951171875</ele>
        <time>2021-07-22T11:06:34.000Z</time>
      </trkpt>
      <trkpt lat="42.99703971482813358306884765625" lon="-4.77386609651148319244384765625">
        <ele>2070.800048828125</ele>
        <time>2021-07-22T11:06:36.000Z</time>
      </trkpt>
      <trkpt lat="42.99701725132763385772705078125" lon="-4.77383508346974849700927734375">
        <ele>2070.39990234375</ele>
        <time>2021-07-22T11:06:39.000Z</time>
      </trkpt>
      <trkpt lat="42.9970035888254642486572265625" lon="-4.7738063335418701171875">
        <ele>2070</ele>
        <time>2021-07-22T11:06:41.000Z</time>
      </trkpt>
      <trkpt lat="42.9969952069222927093505859375" lon="-4.7737585566937923431396484375">
        <ele>2070</ele>
        <time>2021-07-22T11:06:44.000Z</time>
      </trkpt>
      <trkpt lat="42.99699981696903705596923828125" lon="-4.77372595109045505523681640625">
        <ele>2070.199951171875</ele>
        <time>2021-07-22T11:06:47.000Z</time>
      </trkpt>
      <trkpt lat="42.9969804547727108001708984375" lon="-4.77369577623903751373291015625">
        <ele>2070</ele>
        <time>2021-07-22T11:06:50.000Z</time>
      </trkpt>
      <trkpt lat="42.996938042342662811279296875" lon="-4.773591421544551849365234375">
        <ele>2069.199951171875</ele>
        <time>2021-07-22T11:06:55.000Z</time>
      </trkpt>
      <trkpt lat="42.99692295491695404052734375" lon="-4.7735738195478916168212890625">
        <ele>2068.39990234375</ele>
        <time>2021-07-22T11:06:57.000Z</time>
      </trkpt>
      <trkpt lat="42.996914573013782501220703125" lon="-4.7735647670924663543701171875">
        <ele>2067.800048828125</ele>
        <time>2021-07-22T11:06:58.000Z</time>
      </trkpt>
      <trkpt lat="42.99689906649291515350341796875" lon="-4.77350500412285327911376953125">
        <ele>2067.60009765625</ele>
        <time>2021-07-22T11:07:03.000Z</time>
      </trkpt>
      <trkpt lat="42.99688984639942646026611328125" lon="-4.7733967937529087066650390625">
        <ele>2068.60009765625</ele>
        <time>2021-07-22T11:07:10.000Z</time>
      </trkpt>
      <trkpt lat="42.99689169041812419891357421875" lon="-4.77333962917327880859375">
        <ele>2067.800048828125</ele>
        <time>2021-07-22T11:07:14.000Z</time>
      </trkpt>
      <trkpt lat="42.9968755133450031280517578125" lon="-4.77330400608479976654052734375">
        <ele>2067.60009765625</ele>
        <time>2021-07-22T11:07:16.000Z</time>
      </trkpt>
      <trkpt lat="42.9968651197850704193115234375" lon="-4.7732838056981563568115234375">
        <ele>2067.39990234375</ele>
        <time>2021-07-22T11:07:17.000Z</time>
      </trkpt>
      <trkpt lat="42.996837459504604339599609375" lon="-4.77324181236326694488525390625">
        <ele>2066.60009765625</ele>
        <time>2021-07-22T11:07:20.000Z</time>
      </trkpt>
      <trkpt lat="42.99681860022246837615966796875" lon="-4.77322789840400218963623046875">
        <ele>2066</ele>
        <time>2021-07-22T11:07:21.000Z</time>
      </trkpt>
      <trkpt lat="42.99678272567689418792724609375" lon="-4.77317308075726032257080078125">
        <ele>2065.39990234375</ele>
        <time>2021-07-22T11:07:24.000Z</time>
      </trkpt>
      <trkpt lat="42.99675523303449153900146484375" lon="-4.77306579239666461944580078125">
        <ele>2064.199951171875</ele>
        <time>2021-07-22T11:07:29.000Z</time>
      </trkpt>
      <trkpt lat="42.9967350326478481292724609375" lon="-4.77300795726478099822998046875">
        <ele>2063</ele>
        <time>2021-07-22T11:07:32.000Z</time>
      </trkpt>
      <trkpt lat="42.99667350947856903076171875" lon="-4.77295431308448314666748046875">
        <ele>2062.39990234375</ele>
        <time>2021-07-22T11:07:36.000Z</time>
      </trkpt>
      <trkpt lat="42.99664266407489776611328125" lon="-4.77290905080735683441162109375">
        <ele>2061.800048828125</ele>
        <time>2021-07-22T11:07:39.000Z</time>
      </trkpt>
      <trkpt lat="42.99659245647490024566650390625" lon="-4.7728321887552738189697265625">
        <ele>2061.39990234375</ele>
        <time>2021-07-22T11:07:43.000Z</time>
      </trkpt>
      <trkpt lat="42.99655012786388397216796875" lon="-4.77275901474058628082275390625">
        <ele>2061.39990234375</ele>
        <time>2021-07-22T11:07:47.000Z</time>
      </trkpt>
      <trkpt lat="42.9965298436582088470458984375" lon="-4.7727158479392528533935546875">
        <ele>2060.60009765625</ele>
        <time>2021-07-22T11:07:50.000Z</time>
      </trkpt>
      <trkpt lat="42.99653076566755771636962890625" lon="-4.7726839967072010040283203125">
        <ele>2060.60009765625</ele>
        <time>2021-07-22T11:07:52.000Z</time>
      </trkpt>
      <trkpt lat="42.99653747119009494781494140625" lon="-4.7726477868854999542236328125">
        <ele>2060.39990234375</ele>
        <time>2021-07-22T11:07:54.000Z</time>
      </trkpt>
      <trkpt lat="42.9965387284755706787109375" lon="-4.77262306027114391326904296875">
        <ele>2060.39990234375</ele>
        <time>2021-07-22T11:07:56.000Z</time>
      </trkpt>
      <trkpt lat="42.99652959220111370086669921875" lon="-4.7725928016006946563720703125">
        <ele>2060.39990234375</ele>
        <time>2021-07-22T11:07:59.000Z</time>
      </trkpt>
      <trkpt lat="42.9965145885944366455078125" lon="-4.772586934268474578857421875">
        <ele>2060.199951171875</ele>
        <time>2021-07-22T11:08:01.000Z</time>
      </trkpt>
      <trkpt lat="42.99648785032331943511962890625" lon="-4.77260344661772251129150390625">
        <ele>2059.199951171875</ele>
        <time>2021-07-22T11:08:03.000Z</time>
      </trkpt>
      <trkpt lat="42.99647259525954723358154296875" lon="-4.77257695980370044708251953125">
        <ele>2058.60009765625</ele>
        <time>2021-07-22T11:08:06.000Z</time>
      </trkpt>
      <trkpt lat="42.99642850644886493682861328125" lon="-4.7725679911673069000244140625">
        <ele>2058.199951171875</ele>
        <time>2021-07-22T11:08:10.000Z</time>
      </trkpt>
      <trkpt lat="42.9963836632668972015380859375" lon="-4.77257092483341693878173828125">
        <ele>2057.800048828125</ele>
        <time>2021-07-22T11:08:13.000Z</time>
      </trkpt>
      <trkpt lat="42.99637234769761562347412109375" lon="-4.7725649736821651458740234375">
        <ele>2057.60009765625</ele>
        <time>2021-07-22T11:08:14.000Z</time>
      </trkpt>
      <trkpt lat="42.99634669907391071319580078125" lon="-4.7725639678537845611572265625">
        <ele>2056.800048828125</ele>
        <time>2021-07-22T11:08:16.000Z</time>
      </trkpt>
      <trkpt lat="42.99631702713668346405029296875" lon="-4.7725617885589599609375">
        <ele>2055.800048828125</ele>
        <time>2021-07-22T11:08:18.000Z</time>
      </trkpt>
      <trkpt lat="42.99628995358943939208984375" lon="-4.7725468687713146209716796875">
        <ele>2055.39990234375</ele>
        <time>2021-07-22T11:08:20.000Z</time>
      </trkpt>
      <trkpt lat="42.9962415061891078948974609375" lon="-4.77254644967615604400634765625">
        <ele>2054.800048828125</ele>
        <time>2021-07-22T11:08:23.000Z</time>
      </trkpt>
      <trkpt lat="42.9962227307260036468505859375" lon="-4.772549383342266082763671875">
        <ele>2054.39990234375</ele>
        <time>2021-07-22T11:08:24.000Z</time>
      </trkpt>
      <trkpt lat="42.99618995748460292816162109375" lon="-4.77252918295562267303466796875">
        <ele>2052.800048828125</ele>
        <time>2021-07-22T11:08:27.000Z</time>
      </trkpt>
      <trkpt lat="42.99618459306657314300537109375" lon="-4.77252230979502201080322265625">
        <ele>2052.39990234375</ele>
        <time>2021-07-22T11:08:28.000Z</time>
      </trkpt>
      <trkpt lat="42.99614452756941318511962890625" lon="-4.77253404445946216583251953125">
        <ele>2051.60009765625</ele>
        <time>2021-07-22T11:08:32.000Z</time>
      </trkpt>
      <trkpt lat="42.99610714428126811981201171875" lon="-4.77252088487148284912109375">
        <ele>2051.60009765625</ele>
        <time>2021-07-22T11:08:35.000Z</time>
      </trkpt>
      <trkpt lat="42.9960939846932888031005859375" lon="-4.772529266774654388427734375">
        <ele>2051.60009765625</ele>
        <time>2021-07-22T11:08:38.000Z</time>
      </trkpt>
      <trkpt lat="42.99609272740781307220458984375" lon="-4.77254460565745830535888671875">
        <ele>2051.60009765625</ele>
        <time>2021-07-22T11:08:40.000Z</time>
      </trkpt>
      <trkpt lat="42.99606624059379100799560546875" lon="-4.7725166939198970794677734375">
        <ele>2051.60009765625</ele>
        <time>2021-07-22T11:08:46.000Z</time>
      </trkpt>
      <trkpt lat="42.99597571603953838348388671875" lon="-4.7724821604788303375244140625">
        <ele>2052.199951171875</ele>
        <time>2021-07-22T11:08:53.000Z</time>
      </trkpt>
      <trkpt lat="42.99588904716074466705322265625" lon="-4.77245743386447429656982421875">
        <ele>2051.800048828125</ele>
        <time>2021-07-22T11:08:59.000Z</time>
      </trkpt>
      <trkpt lat="42.995859794318675994873046875" lon="-4.772418625652790069580078125">
        <ele>2051.60009765625</ele>
        <time>2021-07-22T11:09:03.000Z</time>
      </trkpt>
      <trkpt lat="42.9958519153296947479248046875" lon="-4.77241183631122112274169921875">
        <ele>2051.60009765625</ele>
        <time>2021-07-22T11:09:04.000Z</time>
      </trkpt>
      <trkpt lat="42.99577421508729457855224609375" lon="-4.77241502143442630767822265625">
        <ele>2052.199951171875</ele>
        <time>2021-07-22T11:09:10.000Z</time>
      </trkpt>
      <trkpt lat="42.99572777934372425079345703125" lon="-4.77241166867315769195556640625">
        <ele>2052.60009765625</ele>
        <time>2021-07-22T11:09:14.000Z</time>
      </trkpt>
      <trkpt lat="42.9956991970539093017578125" lon="-4.772406555712223052978515625">
        <ele>2053.199951171875</ele>
        <time>2021-07-22T11:09:16.000Z</time>
      </trkpt>
      <trkpt lat="42.9956202395260334014892578125" lon="-4.77240420877933502197265625">
        <ele>2052.60009765625</ele>
        <time>2021-07-22T11:09:22.000Z</time>
      </trkpt>
      <trkpt lat="42.99556835554540157318115234375" lon="-4.7723963297903537750244140625">
        <ele>2052.39990234375</ele>
        <time>2021-07-22T11:09:26.000Z</time>
      </trkpt>
      <trkpt lat="42.99554706551134586334228515625" lon="-4.77238132618367671966552734375">
        <ele>2052</ele>
        <time>2021-07-22T11:09:28.000Z</time>
      </trkpt>
      <trkpt lat="42.9955283738672733306884765625" lon="-4.7723621316254138946533203125">
        <ele>2051.199951171875</ele>
        <time>2021-07-22T11:09:31.000Z</time>
      </trkpt>
      <trkpt lat="42.9954873025417327880859375" lon="-4.77237395010888576507568359375">
        <ele>2050</ele>
        <time>2021-07-22T11:09:34.000Z</time>
      </trkpt>
      <trkpt lat="42.99547414295375347137451171875" lon="-4.77238065563142299652099609375">
        <ele>2049.60009765625</ele>
        <time>2021-07-22T11:09:35.000Z</time>
      </trkpt>
      <trkpt lat="42.99544748850166797637939453125" lon="-4.77238945662975311279296875">
        <ele>2049.199951171875</ele>
        <time>2021-07-22T11:09:38.000Z</time>
      </trkpt>
      <trkpt lat="42.99541966058313846588134765625" lon="-4.7723782248795032501220703125">
        <ele>2049</ele>
        <time>2021-07-22T11:09:40.000Z</time>
      </trkpt>
      <trkpt lat="42.99540750682353973388671875" lon="-4.7723748721182346343994140625">
        <ele>2048.800048828125</ele>
        <time>2021-07-22T11:09:41.000Z</time>
      </trkpt>
      <trkpt lat="42.99539267085492610931396484375" lon="-4.7723658196628093719482421875">
        <ele>2048.800048828125</ele>
        <time>2021-07-22T11:09:43.000Z</time>
      </trkpt>
      <trkpt lat="42.99537691287696361541748046875" lon="-4.7723242454230785369873046875">
        <ele>2049.39990234375</ele>
        <time>2021-07-22T11:09:47.000Z</time>
      </trkpt>
      <trkpt lat="42.99536936916410923004150390625" lon="-4.77231678552925586700439453125">
        <ele>2049.60009765625</ele>
        <time>2021-07-22T11:09:48.000Z</time>
      </trkpt>
      <trkpt lat="42.9953496716916561126708984375" lon="-4.77230186574161052703857421875">
        <ele>2049.39990234375</ele>
        <time>2021-07-22T11:09:50.000Z</time>
      </trkpt>
      <trkpt lat="42.9953355900943279266357421875" lon="-4.772279150784015655517578125">
        <ele>2049.60009765625</ele>
        <time>2021-07-22T11:09:52.000Z</time>
      </trkpt>
      <trkpt lat="42.995324023067951202392578125" lon="-4.7722746245563030242919921875">
        <ele>2049.39990234375</ele>
        <time>2021-07-22T11:09:53.000Z</time>
      </trkpt>
      <trkpt lat="42.9953084327280521392822265625" lon="-4.77228476665914058685302734375">
        <ele>2049.39990234375</ele>
        <time>2021-07-22T11:09:54.000Z</time>
      </trkpt>
      <trkpt lat="42.99521011300384998321533203125" lon="-4.772301279008388519287109375">
        <ele>2049.800048828125</ele>
        <time>2021-07-22T11:10:01.000Z</time>
      </trkpt>
      <trkpt lat="42.99514205195009708404541015625" lon="-4.77227286435663700103759765625">
        <ele>2048.199951171875</ele>
        <time>2021-07-22T11:10:06.000Z</time>
      </trkpt>
      <trkpt lat="42.99510936252772808074951171875" lon="-4.772246293723583221435546875">
        <ele>2048</ele>
        <time>2021-07-22T11:10:09.000Z</time>
      </trkpt>
      <trkpt lat="42.99507700838148593902587890625" lon="-4.7722313739359378814697265625">
        <ele>2047.5999755859375</ele>
        <time>2021-07-22T11:10:12.000Z</time>
      </trkpt>
      <trkpt lat="42.995018251240253448486328125" lon="-4.77220497094094753265380859375">
        <ele>2046.800048828125</ele>
        <time>2021-07-22T11:10:17.000Z</time>
      </trkpt>
      <trkpt lat="42.9950098693370819091796875" lon="-4.772187955677509307861328125">
        <ele>2046.800048828125</ele>
        <time>2021-07-22T11:10:18.000Z</time>
      </trkpt>
      <trkpt lat="42.9949641041457653045654296875" lon="-4.77211277000606060028076171875">
        <ele>2046.5999755859375</ele>
        <time>2021-07-22T11:10:24.000Z</time>
      </trkpt>
      <trkpt lat="42.99493066035211086273193359375" lon="-4.7720499895513057708740234375">
        <ele>2046.800048828125</ele>
        <time>2021-07-22T11:10:30.000Z</time>
      </trkpt>
      <trkpt lat="42.99492613412439823150634765625" lon="-4.77204169146716594696044921875">
        <ele>2046.800048828125</ele>
        <time>2021-07-22T11:10:31.000Z</time>
      </trkpt>
      <trkpt lat="42.9949067719280719757080078125" lon="-4.7719779051840305328369140625">
        <ele>2045.5999755859375</ele>
        <time>2021-07-22T11:10:36.000Z</time>
      </trkpt>
      <trkpt lat="42.9948970489203929901123046875" lon="-4.77196566760540008544921875">
        <ele>2045.4000244140625</ele>
        <time>2021-07-22T11:10:37.000Z</time>
      </trkpt>
      <trkpt lat="42.99486930482089519500732421875" lon="-4.771955944597721099853515625">
        <ele>2044.5999755859375</ele>
        <time>2021-07-22T11:10:41.000Z</time>
      </trkpt>
      <trkpt lat="42.99485304392874240875244140625" lon="-4.771927110850811004638671875">
        <ele>2044.800048828125</ele>
        <time>2021-07-22T11:10:43.000Z</time>
      </trkpt>
      <trkpt lat="42.99479336477816104888916015625" lon="-4.77186231873929500579833984375">
        <ele>2044</ele>
        <time>2021-07-22T11:10:48.000Z</time>
      </trkpt>
      <trkpt lat="42.99477852880954742431640625" lon="-4.77184387855231761932373046875">
        <ele>2043.5999755859375</ele>
        <time>2021-07-22T11:10:50.000Z</time>
      </trkpt>
      <trkpt lat="42.994767464697360992431640625" lon="-4.77183784358203411102294921875">
        <ele>2043.5999755859375</ele>
        <time>2021-07-22T11:10:51.000Z</time>
      </trkpt>
      <trkpt lat="42.994754724204540252685546875" lon="-4.7718360833823680877685546875">
        <ele>2043.4000244140625</ele>
        <time>2021-07-22T11:10:52.000Z</time>
      </trkpt>
      <trkpt lat="42.994716502726078033447265625" lon="-4.7718223370611667633056640625">
        <ele>2042.800048828125</ele>
        <time>2021-07-22T11:10:56.000Z</time>
      </trkpt>
      <trkpt lat="42.9947059415280818939208984375" lon="-4.771797023713588714599609375">
        <ele>2042.5999755859375</ele>
        <time>2021-07-22T11:10:57.000Z</time>
      </trkpt>
      <trkpt lat="42.9946479387581348419189453125" lon="-4.77176357991993427276611328125">
        <ele>2042.199951171875</ele>
        <time>2021-07-22T11:11:01.000Z</time>
      </trkpt>
      <trkpt lat="42.994613908231258392333984375" lon="-4.77176743559539318084716796875">
        <ele>2042.199951171875</ele>
        <time>2021-07-22T11:11:03.000Z</time>
      </trkpt>
      <trkpt lat="42.99460477195680141448974609375" lon="-4.7717790864408016204833984375">
        <ele>2042.199951171875</ele>
        <time>2021-07-22T11:11:04.000Z</time>
      </trkpt>
      <trkpt lat="42.99456235952675342559814453125" lon="-4.77176391519606113433837890625">
        <ele>2042.800048828125</ele>
        <time>2021-07-22T11:11:08.000Z</time>
      </trkpt>
      <trkpt lat="42.99454056657850742340087890625" lon="-4.7716914117336273193359375">
        <ele>2041.5999755859375</ele>
        <time>2021-07-22T11:11:13.000Z</time>
      </trkpt>
      <trkpt lat="42.9945369623601436614990234375" lon="-4.7716761566698551177978515625">
        <ele>2041.5999755859375</ele>
        <time>2021-07-22T11:11:14.000Z</time>
      </trkpt>
      <trkpt lat="42.99453134648501873016357421875" lon="-4.7716550342738628387451171875">
        <ele>2040.4000244140625</ele>
        <time>2021-07-22T11:11:16.000Z</time>
      </trkpt>
      <trkpt lat="42.99452296458184719085693359375" lon="-4.77161069400608539581298828125">
        <ele>2039.5999755859375</ele>
        <time>2021-07-22T11:11:20.000Z</time>
      </trkpt>
      <trkpt lat="42.994523383677005767822265625" lon="-4.7716101072728633880615234375">
        <ele>2039.199951171875</ele>
        <time>2021-07-22T11:11:21.000Z</time>
      </trkpt>
      <trkpt lat="42.99451575614511966705322265625" lon="-4.7715842910110950469970703125">
        <ele>2038.5999755859375</ele>
        <time>2021-07-22T11:11:24.000Z</time>
      </trkpt>
      <trkpt lat="42.9944990761578083038330078125" lon="-4.77155637927353382110595703125">
        <ele>2038</ele>
        <time>2021-07-22T11:11:27.000Z</time>
      </trkpt>
      <trkpt lat="42.9944806359708309173583984375" lon="-4.7715407051146030426025390625">
        <ele>2037.800048828125</ele>
        <time>2021-07-22T11:11:29.000Z</time>
      </trkpt>
      <trkpt lat="42.99445088021457195281982421875" lon="-4.7715333290398120880126953125">
        <ele>2037.800048828125</ele>
        <time>2021-07-22T11:11:31.000Z</time>
      </trkpt>
      <trkpt lat="42.9943951405584812164306640625" lon="-4.7715175710618495941162109375">
        <ele>2037.199951171875</ele>
        <time>2021-07-22T11:11:35.000Z</time>
      </trkpt>
      <trkpt lat="42.994382567703723907470703125" lon="-4.7715185768902301788330078125">
        <ele>2036.4000244140625</ele>
        <time>2021-07-22T11:11:36.000Z</time>
      </trkpt>
      <trkpt lat="42.994370497763156890869140625" lon="-4.771514721214771270751953125">
        <ele>2035.5999755859375</ele>
        <time>2021-07-22T11:11:38.000Z</time>
      </trkpt>
      <trkpt lat="42.99436555244028568267822265625" lon="-4.77147390134632587432861328125">
        <ele>2035.199951171875</ele>
        <time>2021-07-22T11:11:40.000Z</time>
      </trkpt>
      <trkpt lat="42.99433889798820018768310546875" lon="-4.77139226160943508148193359375">
        <ele>2034.199951171875</ele>
        <time>2021-07-22T11:11:45.000Z</time>
      </trkpt>
      <trkpt lat="42.994306124746799468994140625" lon="-4.7713422216475009918212890625">
        <ele>2033</ele>
        <time>2021-07-22T11:11:49.000Z</time>
      </trkpt>
      <trkpt lat="42.99429229460656642913818359375" lon="-4.77133442647755146026611328125">
        <ele>2032.5999755859375</ele>
        <time>2021-07-22T11:11:51.000Z</time>
      </trkpt>
      <trkpt lat="42.9942891933023929595947265625" lon="-4.77132705040276050567626953125">
        <ele>2032.4000244140625</ele>
        <time>2021-07-22T11:11:53.000Z</time>
      </trkpt>
      <trkpt lat="42.9942865110933780670166015625" lon="-4.7713237814605236053466796875">
        <ele>2032</ele>
        <time>2021-07-22T11:11:56.000Z</time>
      </trkpt>
      <trkpt lat="42.99428240396082401275634765625" lon="-4.7713291458785533905029296875">
        <ele>2031.800048828125</ele>
        <time>2021-07-22T11:11:57.000Z</time>
      </trkpt>
      <trkpt lat="42.994300089776515960693359375" lon="-4.77131296880543231964111328125">
        <ele>2031.800048828125</ele>
        <time>2021-07-22T11:12:01.000Z</time>
      </trkpt>
      <trkpt lat="42.99427385441958904266357421875" lon="-4.77135638706386089324951171875">
        <ele>2031.4000244140625</ele>
        <time>2021-07-22T11:12:09.000Z</time>
      </trkpt>
      <trkpt lat="42.99426580779254436492919921875" lon="-4.7713251225650310516357421875">
        <ele>2032</ele>
        <time>2021-07-22T11:12:25.000Z</time>
      </trkpt>
      <trkpt lat="42.994265221059322357177734375" lon="-4.771322272717952728271484375">
        <ele>2032.199951171875</ele>
        <time>2021-07-22T11:12:42.000Z</time>
      </trkpt>
      <trkpt lat="42.99426111392676830291748046875" lon="-4.7712490148842334747314453125">
        <ele>2031.800048828125</ele>
        <time>2021-07-22T11:12:48.000Z</time>
      </trkpt>
      <trkpt lat="42.99423378892242908477783203125" lon="-4.77119386196136474609375">
        <ele>2030.800048828125</ele>
        <time>2021-07-22T11:12:53.000Z</time>
      </trkpt>
      <trkpt lat="42.99423001706600189208984375" lon="-4.77118556387722492218017578125">
        <ele>2030.5999755859375</ele>
        <time>2021-07-22T11:12:54.000Z</time>
      </trkpt>
      <trkpt lat="42.99422867596149444580078125" lon="-4.77117768488824367523193359375">
        <ele>2030.4000244140625</ele>
        <time>2021-07-22T11:12:55.000Z</time>
      </trkpt>
      <trkpt lat="42.99422674812376499176025390625" lon="-4.77114650420844554901123046875">
        <ele>2029.5999755859375</ele>
        <time>2021-07-22T11:12:58.000Z</time>
      </trkpt>
      <trkpt lat="42.99423462711274623870849609375" lon="-4.77111347950994968414306640625">
        <ele>2028.5999755859375</ele>
        <time>2021-07-22T11:13:01.000Z</time>
      </trkpt>
      <trkpt lat="42.9942472837865352630615234375" lon="-4.77106503210961818695068359375">
        <ele>2028.199951171875</ele>
        <time>2021-07-22T11:13:04.000Z</time>
      </trkpt>
      <trkpt lat="42.99423135817050933837890625" lon="-4.77102220058441162109375">
        <ele>2027.800048828125</ele>
        <time>2021-07-22T11:13:07.000Z</time>
      </trkpt>
      <trkpt lat="42.99422490410506725311279296875" lon="-4.77101155556738376617431640625">
        <ele>2027.4000244140625</ele>
        <time>2021-07-22T11:13:08.000Z</time>
      </trkpt>
      <trkpt lat="42.99422389827668666839599609375" lon="-4.7709978930652141571044921875">
        <ele>2027.199951171875</ele>
        <time>2021-07-22T11:13:09.000Z</time>
      </trkpt>
      <trkpt lat="42.99423479475080966949462890625" lon="-4.770946763455867767333984375">
        <ele>2026.199951171875</ele>
        <time>2021-07-22T11:13:13.000Z</time>
      </trkpt>
      <trkpt lat="42.99424485303461551666259765625" lon="-4.77092522196471691131591796875">
        <ele>2025</ele>
        <time>2021-07-22T11:13:15.000Z</time>
      </trkpt>
      <trkpt lat="42.994245775043964385986328125" lon="-4.77087560109794139862060546875">
        <ele>2024</ele>
        <time>2021-07-22T11:13:17.000Z</time>
      </trkpt>
      <trkpt lat="42.9942523129284381866455078125" lon="-4.77081474848091602325439453125">
        <ele>2023.800048828125</ele>
        <time>2021-07-22T11:13:18.000Z</time>
      </trkpt>
      <trkpt lat="42.99426245503127574920654296875" lon="-4.7707548178732395172119140625">
        <ele>2022.5999755859375</ele>
        <time>2021-07-22T11:13:20.000Z</time>
      </trkpt>
      <trkpt lat="42.994279302656650543212890625" lon="-4.7706673108041286468505859375">
        <ele>2020.5999755859375</ele>
        <time>2021-07-22T11:13:23.000Z</time>
      </trkpt>
      <trkpt lat="42.99428676255047321319580078125" lon="-4.77064677514135837554931640625">
        <ele>2019.5999755859375</ele>
        <time>2021-07-22T11:13:24.000Z</time>
      </trkpt>
      <trkpt lat="42.9942878521978855133056640625" lon="-4.770636968314647674560546875">
        <ele>2019</ele>
        <time>2021-07-22T11:13:25.000Z</time>
      </trkpt>
      <trkpt lat="42.99429698847234249114990234375" lon="-4.77060285396873950958251953125">
        <ele>2018.4000244140625</ele>
        <time>2021-07-22T11:13:27.000Z</time>
      </trkpt>
      <trkpt lat="42.99430520273745059967041015625" lon="-4.7705791331827640533447265625">
        <ele>2018</ele>
        <time>2021-07-22T11:13:28.000Z</time>
      </trkpt>
      <trkpt lat="42.9943119920790195465087890625" lon="-4.77055482566356658935546875">
        <ele>2017</ele>
        <time>2021-07-22T11:13:29.000Z</time>
      </trkpt>
      <trkpt lat="42.994317524135112762451171875" lon="-4.77052322588860988616943359375">
        <ele>2015.800048828125</ele>
        <time>2021-07-22T11:13:30.000Z</time>
      </trkpt>
      <trkpt lat="42.99432364292442798614501953125" lon="-4.77049958892166614532470703125">
        <ele>2014.4000244140625</ele>
        <time>2021-07-22T11:13:31.000Z</time>
      </trkpt>
      <trkpt lat="42.99433437176048755645751953125" lon="-4.77044644765555858612060546875">
        <ele>2012.199951171875</ele>
        <time>2021-07-22T11:13:33.000Z</time>
      </trkpt>
      <trkpt lat="42.9943312704563140869140625" lon="-4.77040822617709636688232421875">
        <ele>2011.4000244140625</ele>
        <time>2021-07-22T11:13:34.000Z</time>
      </trkpt>
      <trkpt lat="42.99432783387601375579833984375" lon="-4.7703709267079830169677734375">
        <ele>2010.800048828125</ele>
        <time>2021-07-22T11:13:35.000Z</time>
      </trkpt>
      <trkpt lat="42.99431023187935352325439453125" lon="-4.77031686343252658843994140625">
        <ele>2009.199951171875</ele>
        <time>2021-07-22T11:13:37.000Z</time>
      </trkpt>
      <trkpt lat="42.9943083040416240692138671875" lon="-4.7702834196388721466064453125">
        <ele>2008.4000244140625</ele>
        <time>2021-07-22T11:13:38.000Z</time>
      </trkpt>
      <trkpt lat="42.99431341700255870819091796875" lon="-4.770252741873264312744140625">
        <ele>2007.800048828125</ele>
        <time>2021-07-22T11:13:39.000Z</time>
      </trkpt>
      <trkpt lat="42.994364462792873382568359375" lon="-4.770144112408161163330078125">
        <ele>2006.5999755859375</ele>
        <time>2021-07-22T11:13:43.000Z</time>
      </trkpt>
      <trkpt lat="42.99439094960689544677734375" lon="-4.77009759284555912017822265625">
        <ele>2005</ele>
        <time>2021-07-22T11:13:45.000Z</time>
      </trkpt>
      <trkpt lat="42.99441416747868061065673828125" lon="-4.7700550965964794158935546875">
        <ele>2003.199951171875</ele>
        <time>2021-07-22T11:13:47.000Z</time>
      </trkpt>
      <trkpt lat="42.99443445168435573577880859375" lon="-4.76999449543654918670654296875">
        <ele>2001</ele>
        <time>2021-07-22T11:13:49.000Z</time>
      </trkpt>
      <trkpt lat="42.99444115720689296722412109375" lon="-4.76996012963354587554931640625">
        <ele>1999.800048828125</ele>
        <time>2021-07-22T11:13:50.000Z</time>
      </trkpt>
      <trkpt lat="42.99444769509136676788330078125" lon="-4.76993045769631862640380859375">
        <ele>1998.5999755859375</ele>
        <time>2021-07-22T11:13:51.000Z</time>
      </trkpt>
      <trkpt lat="42.99445389769971370697021484375" lon="-4.7699018754065036773681640625">
        <ele>1997.4000244140625</ele>
        <time>2021-07-22T11:13:52.000Z</time>
      </trkpt>
      <trkpt lat="42.99446295015513896942138671875" lon="-4.7698696888983249664306640625">
        <ele>1996.4000244140625</ele>
        <time>2021-07-22T11:13:53.000Z</time>
      </trkpt>
      <trkpt lat="42.99447275698184967041015625" lon="-4.76983373053371906280517578125">
        <ele>1995.800048828125</ele>
        <time>2021-07-22T11:13:54.000Z</time>
      </trkpt>
      <trkpt lat="42.9944819770753383636474609375" lon="-4.76980523206293582916259765625">
        <ele>1995.4000244140625</ele>
        <time>2021-07-22T11:13:55.000Z</time>
      </trkpt>
      <trkpt lat="42.9945044405758380889892578125" lon="-4.76975820958614349365234375">
        <ele>1993.4000244140625</ele>
        <time>2021-07-22T11:13:57.000Z</time>
      </trkpt>
      <trkpt lat="42.99451391212642192840576171875" lon="-4.76973365060985088348388671875">
        <ele>1992.4000244140625</ele>
        <time>2021-07-22T11:13:58.000Z</time>
      </trkpt>
      <trkpt lat="42.99452061764895915985107421875" lon="-4.7697119414806365966796875">
        <ele>1991.800048828125</ele>
        <time>2021-07-22T11:13:59.000Z</time>
      </trkpt>
      <trkpt lat="42.9945359565317630767822265625" lon="-4.76966190151870250701904296875">
        <ele>1991.4000244140625</ele>
        <time>2021-07-22T11:14:01.000Z</time>
      </trkpt>
      <trkpt lat="42.99454626627266407012939453125" lon="-4.76959836669266223907470703125">
        <ele>1989.800048828125</ele>
        <time>2021-07-22T11:14:03.000Z</time>
      </trkpt>
      <trkpt lat="42.99455766566097736358642578125" lon="-4.76953818462789058685302734375">
        <ele>1988.5999755859375</ele>
        <time>2021-07-22T11:14:05.000Z</time>
      </trkpt>
      <trkpt lat="42.99457778222858905792236328125" lon="-4.76949426345527172088623046875">
        <ele>1987.199951171875</ele>
        <time>2021-07-22T11:14:07.000Z</time>
      </trkpt>
      <trkpt lat="42.99459722824394702911376953125" lon="-4.76945671252906322479248046875">
        <ele>1986</ele>
        <time>2021-07-22T11:14:09.000Z</time>
      </trkpt>
      <trkpt lat="42.9946073703467845916748046875" lon="-4.76943961344659328460693359375">
        <ele>1984.5999755859375</ele>
        <time>2021-07-22T11:14:10.000Z</time>
      </trkpt>
      <trkpt lat="42.99461114220321178436279296875" lon="-4.76943274028599262237548828125">
        <ele>1983.800048828125</ele>
        <time>2021-07-22T11:14:11.000Z</time>
      </trkpt>
      <trkpt lat="42.99460359849035739898681640625" lon="-4.76943676359951496124267578125">
        <ele>1983.199951171875</ele>
        <time>2021-07-22T11:14:12.000Z</time>
      </trkpt>
      <trkpt lat="42.9946050234138965606689453125" lon="-4.7694502584636211395263671875">
        <ele>1982.5999755859375</ele>
        <time>2021-07-22T11:14:14.000Z</time>
      </trkpt>
      <trkpt lat="42.99460728652775287628173828125" lon="-4.7694532759487628936767578125">
        <ele>1982.5999755859375</ele>
        <time>2021-07-22T11:14:15.000Z</time>
      </trkpt>
      <trkpt lat="42.994613237679004669189453125" lon="-4.76944095455110073089599609375">
        <ele>1982.199951171875</ele>
        <time>2021-07-22T11:14:19.000Z</time>
      </trkpt>
      <trkpt lat="42.99459211528301239013671875" lon="-4.7694254480302333831787109375">
        <ele>1981.5999755859375</ele>
        <time>2021-07-22T11:14:22.000Z</time>
      </trkpt>
      <trkpt lat="42.9945902712643146514892578125" lon="-4.7694271244108676910400390625">
        <ele>1981.800048828125</ele>
        <time>2021-07-22T11:14:23.000Z</time>
      </trkpt>
      <trkpt lat="42.9946502856910228729248046875" lon="-4.7693506814539432525634765625">
        <ele>1981.5999755859375</ele>
        <time>2021-07-22T11:14:29.000Z</time>
      </trkpt>
      <trkpt lat="42.99466914497315883636474609375" lon="-4.769304580986499786376953125">
        <ele>1980.5999755859375</ele>
        <time>2021-07-22T11:14:31.000Z</time>
      </trkpt>
      <trkpt lat="42.99469797872006893157958984375" lon="-4.76919335313141345977783203125">
        <ele>1979.5999755859375</ele>
        <time>2021-07-22T11:14:35.000Z</time>
      </trkpt>
      <trkpt lat="42.99469211138784885406494140625" lon="-4.7691240347921848297119140625">
        <ele>1978.4000244140625</ele>
        <time>2021-07-22T11:14:37.000Z</time>
      </trkpt>
      <trkpt lat="42.9946784488856792449951171875" lon="-4.76905639283359050750732421875">
        <ele>1977</ele>
        <time>2021-07-22T11:14:39.000Z</time>
      </trkpt>
      <trkpt lat="42.99465715885162353515625" lon="-4.76899805478751659393310546875">
        <ele>1975.800048828125</ele>
        <time>2021-07-22T11:14:41.000Z</time>
      </trkpt>
      <trkpt lat="42.99463377334177494049072265625" lon="-4.76894893683493137359619140625">
        <ele>1974.199951171875</ele>
        <time>2021-07-22T11:14:43.000Z</time>
      </trkpt>
      <trkpt lat="42.9946211166679859161376953125" lon="-4.76892395876348018646240234375">
        <ele>1972.800048828125</ele>
        <time>2021-07-22T11:14:44.000Z</time>
      </trkpt>
      <trkpt lat="42.99459622241556644439697265625" lon="-4.76886545307934284210205078125">
        <ele>1971.5999755859375</ele>
        <time>2021-07-22T11:14:46.000Z</time>
      </trkpt>
      <trkpt lat="42.994589097797870635986328125" lon="-4.76883913390338420867919921875">
        <ele>1971.199951171875</ele>
        <time>2021-07-22T11:14:47.000Z</time>
      </trkpt>
      <trkpt lat="42.9945741780102252960205078125" lon="-4.7688155807554721832275390625">
        <ele>1971</ele>
        <time>2021-07-22T11:14:48.000Z</time>
      </trkpt>
      <trkpt lat="42.9945587553083896636962890625" lon="-4.768790267407894134521484375">
        <ele>1970.199951171875</ele>
        <time>2021-07-22T11:14:49.000Z</time>
      </trkpt>
      <trkpt lat="42.99453972838819026947021484375" lon="-4.76873360574245452880859375">
        <ele>1968.800048828125</ele>
        <time>2021-07-22T11:14:51.000Z</time>
      </trkpt>
      <trkpt lat="42.9945077933371067047119140625" lon="-4.7686502896249294281005859375">
        <ele>1967.800048828125</ele>
        <time>2021-07-22T11:14:54.000Z</time>
      </trkpt>
      <trkpt lat="42.994492538273334503173828125" lon="-4.76858071982860565185546875">
        <ele>1966.5999755859375</ele>
        <time>2021-07-22T11:14:56.000Z</time>
      </trkpt>
      <trkpt lat="42.9944836534559726715087890625" lon="-4.76850251667201519012451171875">
        <ele>1965.199951171875</ele>
        <time>2021-07-22T11:14:58.000Z</time>
      </trkpt>
      <trkpt lat="42.99447384662926197052001953125" lon="-4.768467061221599578857421875">
        <ele>1964.199951171875</ele>
        <time>2021-07-22T11:14:59.000Z</time>
      </trkpt>
      <trkpt lat="42.9944611899554729461669921875" lon="-4.76843529380857944488525390625">
        <ele>1963.199951171875</ele>
        <time>2021-07-22T11:15:00.000Z</time>
      </trkpt>
      <trkpt lat="42.9944554902613162994384765625" lon="-4.7684028558433055877685546875">
        <ele>1962</ele>
        <time>2021-07-22T11:15:01.000Z</time>
      </trkpt>
      <trkpt lat="42.99444216303527355194091796875" lon="-4.76833471097052097320556640625">
        <ele>1960.4000244140625</ele>
        <time>2021-07-22T11:15:03.000Z</time>
      </trkpt>
      <trkpt lat="42.99444098956882953643798828125" lon="-4.76827268488705158233642578125">
        <ele>1959.199951171875</ele>
        <time>2021-07-22T11:15:05.000Z</time>
      </trkpt>
      <trkpt lat="42.994430847465991973876953125" lon="-4.768192134797573089599609375">
        <ele>1957.5999755859375</ele>
        <time>2021-07-22T11:15:07.000Z</time>
      </trkpt>
      <trkpt lat="42.99442405812442302703857421875" lon="-4.76808878593146800994873046875">
        <ele>1956</ele>
        <time>2021-07-22T11:15:10.000Z</time>
      </trkpt>
      <trkpt lat="42.99443227238953113555908203125" lon="-4.76801753975450992584228515625">
        <ele>1955.199951171875</ele>
        <time>2021-07-22T11:15:12.000Z</time>
      </trkpt>
      <trkpt lat="42.99443294294178485870361328125" lon="-4.76794411428272724151611328125">
        <ele>1954.800048828125</ele>
        <time>2021-07-22T11:15:14.000Z</time>
      </trkpt>
      <trkpt lat="42.99443445168435573577880859375" lon="-4.7678721137344837188720703125">
        <ele>1952.199951171875</ele>
        <time>2021-07-22T11:15:16.000Z</time>
      </trkpt>
      <trkpt lat="42.99443562515079975128173828125" lon="-4.7678365744650363922119140625">
        <ele>1951.4000244140625</ele>
        <time>2021-07-22T11:15:17.000Z</time>
      </trkpt>
      <trkpt lat="42.99443981610238552093505859375" lon="-4.76779080927371978759765625">
        <ele>1950.800048828125</ele>
        <time>2021-07-22T11:15:18.000Z</time>
      </trkpt>
      <trkpt lat="42.994449622929096221923828125" lon="-4.76769165135920047760009765625">
        <ele>1949.5999755859375</ele>
        <time>2021-07-22T11:15:21.000Z</time>
      </trkpt>
      <trkpt lat="42.9944601841270923614501953125" lon="-4.76762124337255954742431640625">
        <ele>1948.800048828125</ele>
        <time>2021-07-22T11:15:23.000Z</time>
      </trkpt>
      <trkpt lat="42.9944578371942043304443359375" lon="-4.7675822675228118896484375">
        <ele>1947.4000244140625</ele>
        <time>2021-07-22T11:15:24.000Z</time>
      </trkpt>
      <trkpt lat="42.9944595135748386383056640625" lon="-4.76750942878425121307373046875">
        <ele>1945.199951171875</ele>
        <time>2021-07-22T11:15:26.000Z</time>
      </trkpt>
      <trkpt lat="42.99446110613644123077392578125" lon="-4.7674412839114665985107421875">
        <ele>1942.800048828125</ele>
        <time>2021-07-22T11:15:28.000Z</time>
      </trkpt>
      <trkpt lat="42.99446471035480499267578125" lon="-4.76739518344402313232421875">
        <ele>1941.4000244140625</ele>
        <time>2021-07-22T11:15:30.000Z</time>
      </trkpt>
      <trkpt lat="42.99446278251707553863525390625" lon="-4.76740918122231960296630859375">
        <ele>1940.4000244140625</ele>
        <time>2021-07-22T11:15:33.000Z</time>
      </trkpt>
      <trkpt lat="42.994459010660648345947265625" lon="-4.7674251906573772430419921875">
        <ele>1940</ele>
        <time>2021-07-22T11:15:34.000Z</time>
      </trkpt>
      <trkpt lat="42.99444015137851238250732421875" lon="-4.76742410100996494293212890625">
        <ele>1939</ele>
        <time>2021-07-22T11:15:40.000Z</time>
      </trkpt>
      <trkpt lat="42.9944353736937046051025390625" lon="-4.7674174793064594268798828125">
        <ele>1939.4000244140625</ele>
        <time>2021-07-22T11:15:44.000Z</time>
      </trkpt>
      <trkpt lat="42.99443026073276996612548828125" lon="-4.7674080915749073028564453125">
        <ele>1940.199951171875</ele>
        <time>2021-07-22T11:15:46.000Z</time>
      </trkpt>
      <trkpt lat="42.994434200227260589599609375" lon="-4.76739593781530857086181640625">
        <ele>1939</ele>
        <time>2021-07-22T11:15:50.000Z</time>
      </trkpt>
      <trkpt lat="42.9944481141865253448486328125" lon="-4.76738512516021728515625">
        <ele>1937.199951171875</ele>
        <time>2021-07-22T11:15:52.000Z</time>
      </trkpt>
      <trkpt lat="42.994458340108394622802734375" lon="-4.76734497584402561187744140625">
        <ele>1936.199951171875</ele>
        <time>2021-07-22T11:15:54.000Z</time>
      </trkpt>
      <trkpt lat="42.994461692869663238525390625" lon="-4.7673219256103038787841796875">
        <ele>1936</ele>
        <time>2021-07-22T11:15:55.000Z</time>
      </trkpt>
      <trkpt lat="42.99445993266999721527099609375" lon="-4.767272807657718658447265625">
        <ele>1935.800048828125</ele>
        <time>2021-07-22T11:15:57.000Z</time>
      </trkpt>
      <trkpt lat="42.994450964033603668212890625" lon="-4.76712956093251705169677734375">
        <ele>1934.800048828125</ele>
        <time>2021-07-22T11:16:03.000Z</time>
      </trkpt>
      <trkpt lat="42.99445473589003086090087890625" lon="-4.767074994742870330810546875">
        <ele>1933.5999755859375</ele>
        <time>2021-07-22T11:16:05.000Z</time>
      </trkpt>
      <trkpt lat="42.99446077086031436920166015625" lon="-4.767024032771587371826171875">
        <ele>1932.4000244140625</ele>
        <time>2021-07-22T11:16:07.000Z</time>
      </trkpt>
      <trkpt lat="42.99446496181190013885498046875" lon="-4.76698212325572967529296875">
        <ele>1931.199951171875</ele>
        <time>2021-07-22T11:16:09.000Z</time>
      </trkpt>
      <trkpt lat="42.99446898512542247772216796875" lon="-4.766938872635364532470703125">
        <ele>1929.5999755859375</ele>
        <time>2021-07-22T11:16:11.000Z</time>
      </trkpt>
      <trkpt lat="42.9944665543735027313232421875" lon="-4.76688916794955730438232421875">
        <ele>1928.199951171875</ele>
        <time>2021-07-22T11:16:13.000Z</time>
      </trkpt>
      <trkpt lat="42.99445775337517261505126953125" lon="-4.76683770306408405303955078125">
        <ele>1927</ele>
        <time>2021-07-22T11:16:15.000Z</time>
      </trkpt>
      <trkpt lat="42.9944454319775104522705078125" lon="-4.766777269542217254638671875">
        <ele>1925.4000244140625</ele>
        <time>2021-07-22T11:16:17.000Z</time>
      </trkpt>
      <trkpt lat="42.99443176947534084320068359375" lon="-4.76671800948679447174072265625">
        <ele>1924</ele>
        <time>2021-07-22T11:16:19.000Z</time>
      </trkpt>
      <trkpt lat="42.99442523159086704254150390625" lon="-4.7666969709098339080810546875">
        <ele>1923</ele>
        <time>2021-07-22T11:16:20.000Z</time>
      </trkpt>
      <trkpt lat="42.9944122396409511566162109375" lon="-4.76664810441434383392333984375">
        <ele>1921.5999755859375</ele>
        <time>2021-07-22T11:16:22.000Z</time>
      </trkpt>
      <trkpt lat="42.99441081471741199493408203125" lon="-4.76662362925708293914794921875">
        <ele>1921.4000244140625</ele>
        <time>2021-07-22T11:16:23.000Z</time>
      </trkpt>
      <trkpt lat="42.99441752023994922637939453125" lon="-4.76654131896793842315673828125">
        <ele>1920.5999755859375</ele>
        <time>2021-07-22T11:16:26.000Z</time>
      </trkpt>
      <trkpt lat="42.9944279976189136505126953125" lon="-4.7664475254714488983154296875">
        <ele>1919.4000244140625</ele>
        <time>2021-07-22T11:16:29.000Z</time>
      </trkpt>
      <trkpt lat="42.99442355521023273468017578125" lon="-4.76635591126978397369384765625">
        <ele>1918</ele>
        <time>2021-07-22T11:16:32.000Z</time>
      </trkpt>
      <trkpt lat="42.99439220689237117767333984375" lon="-4.766245521605014801025390625">
        <ele>1917</ele>
        <time>2021-07-22T11:16:35.000Z</time>
      </trkpt>
      <trkpt lat="42.99437980167567729949951171875" lon="-4.76621123962104320526123046875">
        <ele>1914.4000244140625</ele>
        <time>2021-07-22T11:16:36.000Z</time>
      </trkpt>
      <trkpt lat="42.99436387605965137481689453125" lon="-4.76617653854191303253173828125">
        <ele>1912</ele>
        <time>2021-07-22T11:16:37.000Z</time>
      </trkpt>
      <trkpt lat="42.994345687329769134521484375" lon="-4.7661407478153705596923828125">
        <ele>1910.5999755859375</ele>
        <time>2021-07-22T11:16:38.000Z</time>
      </trkpt>
      <trkpt lat="42.99432297237217426300048828125" lon="-4.7660877741873264312744140625">
        <ele>1909.199951171875</ele>
        <time>2021-07-22T11:16:40.000Z</time>
      </trkpt>
      <trkpt lat="42.9943071305751800537109375" lon="-4.76606338284909725189208984375">
        <ele>1908.800048828125</ele>
        <time>2021-07-22T11:16:41.000Z</time>
      </trkpt>
      <trkpt lat="42.9942556656897068023681640625" lon="-4.765963889658451080322265625">
        <ele>1907.800048828125</ele>
        <time>2021-07-22T11:16:44.000Z</time>
      </trkpt>
      <trkpt lat="42.99423269927501678466796875" lon="-4.76590815000236034393310546875">
        <ele>1907.4000244140625</ele>
        <time>2021-07-22T11:16:46.000Z</time>
      </trkpt>
      <trkpt lat="42.9942157678306102752685546875" lon="-4.76586230099201202392578125">
        <ele>1906.800048828125</ele>
        <time>2021-07-22T11:16:48.000Z</time>
      </trkpt>
      <trkpt lat="42.99420051276683807373046875" lon="-4.76581611670553684234619140625">
        <ele>1904.800048828125</ele>
        <time>2021-07-22T11:16:50.000Z</time>
      </trkpt>
      <trkpt lat="42.9941849224269390106201171875" lon="-4.76578325964510440826416015625">
        <ele>1903.4000244140625</ele>
        <time>2021-07-22T11:16:52.000Z</time>
      </trkpt>
      <trkpt lat="42.9941705055534839630126953125" lon="-4.7657702676951885223388671875">
        <ele>1903</ele>
        <time>2021-07-22T11:16:54.000Z</time>
      </trkpt>
      <trkpt lat="42.9941741935908794403076171875" lon="-4.7657742910087108612060546875">
        <ele>1902.4000244140625</ele>
        <time>2021-07-22T11:16:56.000Z</time>
      </trkpt>
      <trkpt lat="42.99415969289839267730712890625" lon="-4.76574738509953022003173828125">
        <ele>1902.199951171875</ele>
        <time>2021-07-22T11:17:20.000Z</time>
      </trkpt>
      <trkpt lat="42.99415516667068004608154296875" lon="-4.76572550833225250244140625">
        <ele>1902.199951171875</ele>
        <time>2021-07-22T11:17:21.000Z</time>
      </trkpt>
      <trkpt lat="42.9941279254853725433349609375" lon="-4.765649400651454925537109375">
        <ele>1900.800048828125</ele>
        <time>2021-07-22T11:17:24.000Z</time>
      </trkpt>
      <trkpt lat="42.9941145144402980804443359375" lon="-4.7656203992664813995361328125">
        <ele>1900</ele>
        <time>2021-07-22T11:17:25.000Z</time>
      </trkpt>
      <trkpt lat="42.99410797655582427978515625" lon="-4.76559315808117389678955078125">
        <ele>1899.5999755859375</ele>
        <time>2021-07-22T11:17:26.000Z</time>
      </trkpt>
      <trkpt lat="42.994094230234622955322265625" lon="-4.765527360141277313232421875">
        <ele>1898.4000244140625</ele>
        <time>2021-07-22T11:17:28.000Z</time>
      </trkpt>
      <trkpt lat="42.99408492632210254669189453125" lon="-4.76547648198902606964111328125">
        <ele>1898.4000244140625</ele>
        <time>2021-07-22T11:17:30.000Z</time>
      </trkpt>
      <trkpt lat="42.99405307509005069732666015625" lon="-4.76538411341607570648193359375">
        <ele>1896.800048828125</ele>
        <time>2021-07-22T11:17:33.000Z</time>
      </trkpt>
      <trkpt lat="42.99402348697185516357421875" lon="-4.765300042927265167236328125">
        <ele>1895.800048828125</ele>
        <time>2021-07-22T11:17:36.000Z</time>
      </trkpt>
      <trkpt lat="42.99401451833546161651611328125" lon="-4.76524698548018932342529296875">
        <ele>1894.4000244140625</ele>
        <time>2021-07-22T11:17:38.000Z</time>
      </trkpt>
      <trkpt lat="42.99401300959289073944091796875" lon="-4.76521530188620090484619140625">
        <ele>1894</ele>
        <time>2021-07-22T11:17:39.000Z</time>
      </trkpt>
      <trkpt lat="42.994010746479034423828125" lon="-4.76518780924379825592041015625">
        <ele>1893.800048828125</ele>
        <time>2021-07-22T11:17:40.000Z</time>
      </trkpt>
      <trkpt lat="42.99400077201426029205322265625" lon="-4.76512645371258258819580078125">
        <ele>1893.4000244140625</ele>
        <time>2021-07-22T11:17:42.000Z</time>
      </trkpt>
      <trkpt lat="42.99396154470741748809814453125" lon="-4.765017069876194000244140625">
        <ele>1893.199951171875</ele>
        <time>2021-07-22T11:17:46.000Z</time>
      </trkpt>
      <trkpt lat="42.99394260160624980926513671875" lon="-4.76497314870357513427734375">
        <ele>1891.800048828125</ele>
        <time>2021-07-22T11:17:48.000Z</time>
      </trkpt>
      <trkpt lat="42.99391929991543292999267578125" lon="-4.764919839799404144287109375">
        <ele>1890.800048828125</ele>
        <time>2021-07-22T11:17:50.000Z</time>
      </trkpt>
      <trkpt lat="42.9939047992229461669921875" lon="-4.76489176042377948760986328125">
        <ele>1889.199951171875</ele>
        <time>2021-07-22T11:17:51.000Z</time>
      </trkpt>
      <trkpt lat="42.99388208426535129547119140625" lon="-4.7648375295102596282958984375">
        <ele>1888.199951171875</ele>
        <time>2021-07-22T11:17:53.000Z</time>
      </trkpt>
      <trkpt lat="42.993863560259342193603515625" lon="-4.7647986374795436859130859375">
        <ele>1886.800048828125</ele>
        <time>2021-07-22T11:17:56.000Z</time>
      </trkpt>
      <trkpt lat="42.99385878257453441619873046875" lon="-4.76478866301476955413818359375">
        <ele>1885.800048828125</ele>
        <time>2021-07-22T11:17:57.000Z</time>
      </trkpt>
      <trkpt lat="42.9938553459942340850830078125" lon="-4.76475991308689117431640625">
        <ele>1884.800048828125</ele>
        <time>2021-07-22T11:18:00.000Z</time>
      </trkpt>
      <trkpt lat="42.99385442398488521575927734375" lon="-4.764748513698577880859375">
        <ele>1885.199951171875</ele>
        <time>2021-07-22T11:18:01.000Z</time>
      </trkpt>
      <trkpt lat="42.993852160871028900146484375" lon="-4.76473116315901279449462890625">
        <ele>1885.4000244140625</ele>
        <time>2021-07-22T11:18:02.000Z</time>
      </trkpt>
      <trkpt lat="42.99385157413780689239501953125" lon="-4.76469964720308780670166015625">
        <ele>1885.800048828125</ele>
        <time>2021-07-22T11:18:04.000Z</time>
      </trkpt>
      <trkpt lat="42.99385249614715576171875" lon="-4.7646568156778812408447265625">
        <ele>1886</ele>
        <time>2021-07-22T11:18:06.000Z</time>
      </trkpt>
      <trkpt lat="42.99383011646568775177001953125" lon="-4.764522872865200042724609375">
        <ele>1885.199951171875</ele>
        <time>2021-07-22T11:18:11.000Z</time>
      </trkpt>
      <trkpt lat="42.9938291944563388824462890625" lon="-4.76447182707488536834716796875">
        <ele>1884.800048828125</ele>
        <time>2021-07-22T11:18:13.000Z</time>
      </trkpt>
      <trkpt lat="42.9938372410833835601806640625" lon="-4.76442405022680759429931640625">
        <ele>1884.199951171875</ele>
        <time>2021-07-22T11:18:15.000Z</time>
      </trkpt>
      <trkpt lat="42.99384185113012790679931640625" lon="-4.7644033469259738922119140625">
        <ele>1883.4000244140625</ele>
        <time>2021-07-22T11:18:16.000Z</time>
      </trkpt>
      <trkpt lat="42.99384620971977710723876953125" lon="-4.76438415236771106719970703125">
        <ele>1883.199951171875</ele>
        <time>2021-07-22T11:18:17.000Z</time>
      </trkpt>
      <trkpt lat="42.99384838901460170745849609375" lon="-4.7643215395510196685791015625">
        <ele>1881.800048828125</ele>
        <time>2021-07-22T11:18:19.000Z</time>
      </trkpt>
      <trkpt lat="42.9938484728336334228515625" lon="-4.764262698590755462646484375">
        <ele>1880.4000244140625</ele>
        <time>2021-07-22T11:18:21.000Z</time>
      </trkpt>
      <trkpt lat="42.993846796452999114990234375" lon="-4.76423897780478000640869140625">
        <ele>1880</ele>
        <time>2021-07-22T11:18:22.000Z</time>
      </trkpt>
      <trkpt lat="42.9938432760536670684814453125" lon="-4.7641860879957675933837890625">
        <ele>1879.199951171875</ele>
        <time>2021-07-22T11:18:24.000Z</time>
      </trkpt>
      <trkpt lat="42.99384134821593761444091796875" lon="-4.76416052319109439849853515625">
        <ele>1879.199951171875</ele>
        <time>2021-07-22T11:18:25.000Z</time>
      </trkpt>
      <trkpt lat="42.9938214831054210662841796875" lon="-4.764018952846527099609375">
        <ele>1877.4000244140625</ele>
        <time>2021-07-22T11:18:30.000Z</time>
      </trkpt>
      <trkpt lat="42.99381695687770843505859375" lon="-4.76398902945220470428466796875">
        <ele>1877</ele>
        <time>2021-07-22T11:18:31.000Z</time>
      </trkpt>
      <trkpt lat="42.9938201420009136199951171875" lon="-4.7639312781393527984619140625">
        <ele>1876</ele>
        <time>2021-07-22T11:18:33.000Z</time>
      </trkpt>
      <trkpt lat="42.99382357858121395111083984375" lon="-4.76390034891664981842041015625">
        <ele>1875.5999755859375</ele>
        <time>2021-07-22T11:18:34.000Z</time>
      </trkpt>
      <trkpt lat="42.9938298650085926055908203125" lon="-4.76384670473635196685791015625">
        <ele>1875.199951171875</ele>
        <time>2021-07-22T11:18:36.000Z</time>
      </trkpt>
      <trkpt lat="42.9938285239040851593017578125" lon="-4.76381418295204639434814453125">
        <ele>1874.800048828125</ele>
        <time>2021-07-22T11:18:37.000Z</time>
      </trkpt>
      <trkpt lat="42.9937960021197795867919921875" lon="-4.76375316269695758819580078125">
        <ele>1873.800048828125</ele>
        <time>2021-07-22T11:18:39.000Z</time>
      </trkpt>
      <trkpt lat="42.99377228133380413055419921875" lon="-4.7637388296425342559814453125">
        <ele>1873.4000244140625</ele>
        <time>2021-07-22T11:18:40.000Z</time>
      </trkpt>
      <trkpt lat="42.99373707734048366546630859375" lon="-4.7636831738054752349853515625">
        <ele>1872.4000244140625</ele>
        <time>2021-07-22T11:18:42.000Z</time>
      </trkpt>
      <trkpt lat="42.993699945509433746337890625" lon="-4.763615615665912628173828125">
        <ele>1871.800048828125</ele>
        <time>2021-07-22T11:18:44.000Z</time>
      </trkpt>
      <trkpt lat="42.99365510232746601104736328125" lon="-4.76353422738611698150634765625">
        <ele>1871.199951171875</ele>
        <time>2021-07-22T11:18:47.000Z</time>
      </trkpt>
      <trkpt lat="42.99364219419658184051513671875" lon="-4.7635038010776042938232421875">
        <ele>1870.800048828125</ele>
        <time>2021-07-22T11:18:48.000Z</time>
      </trkpt>
      <trkpt lat="42.993581593036651611328125" lon="-4.76337949745357036590576171875">
        <ele>1870.199951171875</ele>
        <time>2021-07-22T11:18:52.000Z</time>
      </trkpt>
      <trkpt lat="42.9935629852116107940673828125" lon="-4.763355441391468048095703125">
        <ele>1869.800048828125</ele>
        <time>2021-07-22T11:18:53.000Z</time>
      </trkpt>
      <trkpt lat="42.99349509179592132568359375" lon="-4.7633019648492336273193359375">
        <ele>1868.800048828125</ele>
        <time>2021-07-22T11:18:56.000Z</time>
      </trkpt>
      <trkpt lat="42.99345762468874454498291015625" lon="-4.76320180110633373260498046875">
        <ele>1867.4000244140625</ele>
        <time>2021-07-22T11:19:00.000Z</time>
      </trkpt>
      <trkpt lat="42.99344924278557300567626953125" lon="-4.763144552707672119140625">
        <ele>1867</ele>
        <time>2021-07-22T11:19:02.000Z</time>
      </trkpt>
      <trkpt lat="42.993439100682735443115234375" lon="-4.7631262801587581634521484375">
        <ele>1866.800048828125</ele>
        <time>2021-07-22T11:19:03.000Z</time>
      </trkpt>
      <trkpt lat="42.99342392943799495697021484375" lon="-4.76310809142887592315673828125">
        <ele>1866.5999755859375</ele>
        <time>2021-07-22T11:19:04.000Z</time>
      </trkpt>
      <trkpt lat="42.9933946765959262847900390625" lon="-4.76306215859949588775634765625">
        <ele>1865.199951171875</ele>
        <time>2021-07-22T11:19:06.000Z</time>
      </trkpt>
      <trkpt lat="42.9933738894760608673095703125" lon="-4.76304103620350360870361328125">
        <ele>1864.4000244140625</ele>
        <time>2021-07-22T11:19:07.000Z</time>
      </trkpt>
      <trkpt lat="42.993350923061370849609375" lon="-4.7630225121974945068359375">
        <ele>1864</ele>
        <time>2021-07-22T11:19:08.000Z</time>
      </trkpt>
      <trkpt lat="42.99329937435686588287353515625" lon="-4.7629931755363941192626953125">
        <ele>1863</ele>
        <time>2021-07-22T11:19:10.000Z</time>
      </trkpt>
      <trkpt lat="42.99327783286571502685546875" lon="-4.7629821114242076873779296875">
        <ele>1862</ele>
        <time>2021-07-22T11:19:11.000Z</time>
      </trkpt>
      <trkpt lat="42.9932632483541965484619140625" lon="-4.76296484470367431640625">
        <ele>1861</ele>
        <time>2021-07-22T11:19:12.000Z</time>
      </trkpt>
      <trkpt lat="42.9932042397558689117431640625" lon="-4.76290139369666576385498046875">
        <ele>1859.800048828125</ele>
        <time>2021-07-22T11:19:15.000Z</time>
      </trkpt>
      <trkpt lat="42.993186973035335540771484375" lon="-4.76288563571870326995849609375">
        <ele>1859.199951171875</ele>
        <time>2021-07-22T11:19:16.000Z</time>
      </trkpt>
      <trkpt lat="42.9931757412850856781005859375" lon="-4.762853868305683135986328125">
        <ele>1858.4000244140625</ele>
        <time>2021-07-22T11:19:18.000Z</time>
      </trkpt>
      <trkpt lat="42.99316844902932643890380859375" lon="-4.76280215196311473846435546875">
        <ele>1857.800048828125</ele>
        <time>2021-07-22T11:19:20.000Z</time>
      </trkpt>
      <trkpt lat="42.99316626973450183868408203125" lon="-4.76277214474976062774658203125">
        <ele>1859</ele>
        <time>2021-07-22T11:19:21.000Z</time>
      </trkpt>
      <trkpt lat="42.99317280761897563934326171875" lon="-4.7626659460365772247314453125">
        <ele>1857.4000244140625</ele>
        <time>2021-07-22T11:19:24.000Z</time>
      </trkpt>
      <trkpt lat="42.99315503798425197601318359375" lon="-4.7625643573701381683349609375">
        <ele>1855.4000244140625</ele>
        <time>2021-07-22T11:19:27.000Z</time>
      </trkpt>
      <trkpt lat="42.99313827417790889739990234375" lon="-4.76249570958316326141357421875">
        <ele>1854.4000244140625</ele>
        <time>2021-07-22T11:19:29.000Z</time>
      </trkpt>
      <trkpt lat="42.9931214265525341033935546875" lon="-4.7624677978456020355224609375">
        <ele>1854</ele>
        <time>2021-07-22T11:19:30.000Z</time>
      </trkpt>
      <trkpt lat="42.99304070882499217987060546875" lon="-4.7624332644045352935791015625">
        <ele>1853</ele>
        <time>2021-07-22T11:19:33.000Z</time>
      </trkpt>
      <trkpt lat="42.99302428029477596282958984375" lon="-4.76241272874176502227783203125">
        <ele>1853</ele>
        <time>2021-07-22T11:19:34.000Z</time>
      </trkpt>
      <trkpt lat="42.99295387230813503265380859375" lon="-4.7623269818723201751708984375">
        <ele>1853</ele>
        <time>2021-07-22T11:19:38.000Z</time>
      </trkpt>
      <trkpt lat="42.99288363195955753326416015625" lon="-4.7622029297053813934326171875">
        <ele>1853</ele>
        <time>2021-07-22T11:19:43.000Z</time>
      </trkpt>
      <trkpt lat="42.99280643463134765625" lon="-4.76208063773810863494873046875">
        <ele>1853.4000244140625</ele>
        <time>2021-07-22T11:19:48.000Z</time>
      </trkpt>
      <trkpt lat="42.992779277265071868896484375" lon="-4.76198860444128513336181640625">
        <ele>1853.800048828125</ele>
        <time>2021-07-22T11:19:52.000Z</time>
      </trkpt>
      <trkpt lat="42.99277517013251781463623046875" lon="-4.76196060888469219207763671875">
        <ele>1853.800048828125</ele>
        <time>2021-07-22T11:19:53.000Z</time>
      </trkpt>
      <trkpt lat="42.992733679711818695068359375" lon="-4.76184292696416378021240234375">
        <ele>1854</ele>
        <time>2021-07-22T11:19:58.000Z</time>
      </trkpt>
      <trkpt lat="42.99267433583736419677734375" lon="-4.76177520118653774261474609375">
        <ele>1851.4000244140625</ele>
        <time>2021-07-22T11:20:02.000Z</time>
      </trkpt>
      <trkpt lat="42.9926602542400360107421875" lon="-4.7617476247251033782958984375">
        <ele>1850.800048828125</ele>
        <time>2021-07-22T11:20:03.000Z</time>
      </trkpt>
      <trkpt lat="42.9926490224897861480712890625" lon="-4.7617298550903797149658203125">
        <ele>1850</ele>
        <time>2021-07-22T11:20:04.000Z</time>
      </trkpt>
      <trkpt lat="42.99261323176324367523193359375" lon="-4.76170781068503856658935546875">
        <ele>1849</ele>
        <time>2021-07-22T11:20:06.000Z</time>
      </trkpt>
      <trkpt lat="42.9925963841378688812255859375" lon="-4.761693477630615234375">
        <ele>1848.800048828125</ele>
        <time>2021-07-22T11:20:07.000Z</time>
      </trkpt>
      <trkpt lat="42.99258389510214328765869140625" lon="-4.76167201995849609375">
        <ele>1848.199951171875</ele>
        <time>2021-07-22T11:20:08.000Z</time>
      </trkpt>
      <trkpt lat="42.9925745911896228790283203125" lon="-4.76164796389639377593994140625">
        <ele>1848</ele>
        <time>2021-07-22T11:20:09.000Z</time>
      </trkpt>
      <trkpt lat="42.99254885874688625335693359375" lon="-4.76160521619021892547607421875">
        <ele>1846.4000244140625</ele>
        <time>2021-07-22T11:20:11.000Z</time>
      </trkpt>
      <trkpt lat="42.992514073848724365234375" lon="-4.761550985276699066162109375">
        <ele>1845.5999755859375</ele>
        <time>2021-07-22T11:20:14.000Z</time>
      </trkpt>
      <trkpt lat="42.99248180352151393890380859375" lon="-4.761526845395565032958984375">
        <ele>1845.4000244140625</ele>
        <time>2021-07-22T11:20:16.000Z</time>
      </trkpt>
      <trkpt lat="42.99245866946876049041748046875" lon="-4.7615152783691883087158203125">
        <ele>1844.800048828125</ele>
        <time>2021-07-22T11:20:17.000Z</time>
      </trkpt>
      <trkpt lat="42.9924314282834529876708984375" lon="-4.76150966249406337738037109375">
        <ele>1844.5999755859375</ele>
        <time>2021-07-22T11:20:18.000Z</time>
      </trkpt>
      <trkpt lat="42.99240720458328723907470703125" lon="-4.761508740484714508056640625">
        <ele>1843.800048828125</ele>
        <time>2021-07-22T11:20:19.000Z</time>
      </trkpt>
      <trkpt lat="42.992330677807331085205078125" lon="-4.76149859838187694549560546875">
        <ele>1842.5999755859375</ele>
        <time>2021-07-22T11:20:22.000Z</time>
      </trkpt>
      <trkpt lat="42.99230821430683135986328125" lon="-4.761488623917102813720703125">
        <ele>1841.800048828125</ele>
        <time>2021-07-22T11:20:23.000Z</time>
      </trkpt>
      <trkpt lat="42.99228834919631481170654296875" lon="-4.761477895081043243408203125">
        <ele>1840.800048828125</ele>
        <time>2021-07-22T11:20:24.000Z</time>
      </trkpt>
      <trkpt lat="42.99218751490116119384765625" lon="-4.76146523840725421905517578125">
        <ele>1839.4000244140625</ele>
        <time>2021-07-22T11:20:28.000Z</time>
      </trkpt>
      <trkpt lat="42.99210897646844387054443359375" lon="-4.761439673602581024169921875">
        <ele>1838</ele>
        <time>2021-07-22T11:20:32.000Z</time>
      </trkpt>
      <trkpt lat="42.9920666478574275970458984375" lon="-4.761429615318775177001953125">
        <ele>1836.5999755859375</ele>
        <time>2021-07-22T11:20:34.000Z</time>
      </trkpt>
      <trkpt lat="42.99201476387679576873779296875" lon="-4.76142936386168003082275390625">
        <ele>1835.199951171875</ele>
        <time>2021-07-22T11:20:36.000Z</time>
      </trkpt>
      <trkpt lat="42.99198425374925136566162109375" lon="-4.76143606938421726226806640625">
        <ele>1834.800048828125</ele>
        <time>2021-07-22T11:20:37.000Z</time>
      </trkpt>
      <trkpt lat="42.99195944331586360931396484375" lon="-4.76143875159323215484619140625">
        <ele>1834.800048828125</ele>
        <time>2021-07-22T11:20:38.000Z</time>
      </trkpt>
      <trkpt lat="42.9918795637786388397216796875" lon="-4.761395752429962158203125">
        <ele>1835</ele>
        <time>2021-07-22T11:20:42.000Z</time>
      </trkpt>
      <trkpt lat="42.99185357987880706787109375" lon="-4.76138343103229999542236328125">
        <ele>1834.4000244140625</ele>
        <time>2021-07-22T11:20:43.000Z</time>
      </trkpt>
      <trkpt lat="42.9918279312551021575927734375" lon="-4.761359207332134246826171875">
        <ele>1834</ele>
        <time>2021-07-22T11:20:44.000Z</time>
      </trkpt>
      <trkpt lat="42.99174821935594081878662109375" lon="-4.761333726346492767333984375">
        <ele>1833</ele>
        <time>2021-07-22T11:20:47.000Z</time>
      </trkpt>
      <trkpt lat="42.99167512916028499603271484375" lon="-4.76133364252746105194091796875">
        <ele>1831.800048828125</ele>
        <time>2021-07-22T11:20:50.000Z</time>
      </trkpt>
      <trkpt lat="42.9916274361312389373779296875" lon="-4.76132861338555812835693359375">
        <ele>1832.4000244140625</ele>
        <time>2021-07-22T11:20:52.000Z</time>
      </trkpt>
      <trkpt lat="42.9915620572865009307861328125" lon="-4.7613030485808849334716796875">
        <ele>1832.800048828125</ele>
        <time>2021-07-22T11:20:55.000Z</time>
      </trkpt>
      <trkpt lat="42.991540431976318359375" lon="-4.76130120456218719482421875">
        <ele>1833</ele>
        <time>2021-07-22T11:20:56.000Z</time>
      </trkpt>
      <trkpt lat="42.99152827821671962738037109375" lon="-4.7612857818603515625">
        <ele>1833.199951171875</ele>
        <time>2021-07-22T11:20:57.000Z</time>
      </trkpt>
      <trkpt lat="42.9915281943976879119873046875" lon="-4.76127170026302337646484375">
        <ele>1833.199951171875</ele>
        <time>2021-07-22T11:21:01.000Z</time>
      </trkpt>
      <trkpt lat="42.99157203175127506256103515625" lon="-4.761319644749164581298828125">
        <ele>1833.199951171875</ele>
        <time>2021-07-22T11:21:07.000Z</time>
      </trkpt>
      <trkpt lat="42.99161352217197418212890625" lon="-4.76132743991911411285400390625">
        <ele>1833.199951171875</ele>
        <time>2021-07-22T11:21:10.000Z</time>
      </trkpt>
      <trkpt lat="42.991650737822055816650390625" lon="-4.7613462992012500762939453125">
        <ele>1833</ele>
        <time>2021-07-22T11:21:13.000Z</time>
      </trkpt>
      <trkpt lat="42.99171737395226955413818359375" lon="-4.76136624813079833984375">
        <ele>1832.5999755859375</ele>
        <time>2021-07-22T11:21:18.000Z</time>
      </trkpt>
      <trkpt lat="42.9917300306260585784912109375" lon="-4.76135929115116596221923828125">
        <ele>1832.5999755859375</ele>
        <time>2021-07-22T11:21:19.000Z</time>
      </trkpt>
      <trkpt lat="42.9917890392243862152099609375" lon="-4.76133800111711025238037109375">
        <ele>1831.800048828125</ele>
        <time>2021-07-22T11:21:25.000Z</time>
      </trkpt>
      <trkpt lat="42.99179482273757457733154296875" lon="-4.76133079268038272857666015625">
        <ele>1831.5999755859375</ele>
        <time>2021-07-22T11:21:26.000Z</time>
      </trkpt>
      <trkpt lat="42.9917970858514308929443359375" lon="-4.76133531890809535980224609375">
        <ele>1831</ele>
        <time>2021-07-22T11:21:29.000Z</time>
      </trkpt>
      <trkpt lat="42.9917947389185428619384765625" lon="-4.76133515127003192901611328125">
        <ele>1830.800048828125</ele>
        <time>2021-07-22T11:21:30.000Z</time>
      </trkpt>
      <trkpt lat="42.991790883243083953857421875" lon="-4.76133598946034908294677734375">
        <ele>1830.4000244140625</ele>
        <time>2021-07-22T11:21:31.000Z</time>
      </trkpt>
      <trkpt lat="42.9917897097766399383544921875" lon="-4.761341102421283721923828125">
        <ele>1830.199951171875</ele>
        <time>2021-07-22T11:21:32.000Z</time>
      </trkpt>
      <trkpt lat="42.99178342334926128387451171875" lon="-4.76135082542896270751953125">
        <ele>1829.800048828125</ele>
        <time>2021-07-22T11:21:34.000Z</time>
      </trkpt>
      <trkpt lat="42.9917826689779758453369140625" lon="-4.76135610602796077728271484375">
        <ele>1829.4000244140625</ele>
        <time>2021-07-22T11:21:35.000Z</time>
      </trkpt>
      <trkpt lat="42.99178308807313442230224609375" lon="-4.761358536779880523681640625">
        <ele>1829.199951171875</ele>
        <time>2021-07-22T11:21:36.000Z</time>
      </trkpt>
      <trkpt lat="42.99178057350218296051025390625" lon="-4.76135627366602420806884765625">
        <ele>1829</ele>
        <time>2021-07-22T11:21:39.000Z</time>
      </trkpt>
      <trkpt lat="42.99175660125911235809326171875" lon="-4.761312268674373626708984375">
        <ele>1829.199951171875</ele>
        <time>2021-07-22T11:21:44.000Z</time>
      </trkpt>
      <trkpt lat="42.9917052201926708221435546875" lon="-4.76126222871243953704833984375">
        <ele>1829.4000244140625</ele>
        <time>2021-07-22T11:21:49.000Z</time>
      </trkpt>
      <trkpt lat="42.9916844330728054046630859375" lon="-4.76116164587438106536865234375">
        <ele>1828.5999755859375</ele>
        <time>2021-07-22T11:21:54.000Z</time>
      </trkpt>
      <trkpt lat="42.99168099649250507354736328125" lon="-4.76113356649875640869140625">
        <ele>1828.199951171875</ele>
        <time>2021-07-22T11:21:55.000Z</time>
      </trkpt>
      <trkpt lat="42.99166725017130374908447265625" lon="-4.76105737499892711639404296875">
        <ele>1826.800048828125</ele>
        <time>2021-07-22T11:21:58.000Z</time>
      </trkpt>
      <trkpt lat="42.991648726165294647216796875" lon="-4.761011190712451934814453125">
        <ele>1826</ele>
        <time>2021-07-22T11:22:01.000Z</time>
      </trkpt>
      <trkpt lat="42.9916364885866641998291015625" lon="-4.761005155742168426513671875">
        <ele>1825.800048828125</ele>
        <time>2021-07-22T11:22:02.000Z</time>
      </trkpt>
      <trkpt lat="42.991628609597682952880859375" lon="-4.76098679937422275543212890625">
        <ele>1825.4000244140625</ele>
        <time>2021-07-22T11:22:03.000Z</time>
      </trkpt>
      <trkpt lat="42.99158007837831974029541015625" lon="-4.76092678494751453399658203125">
        <ele>1825.199951171875</ele>
        <time>2021-07-22T11:22:09.000Z</time>
      </trkpt>
      <trkpt lat="42.99156683497130870819091796875" lon="-4.76091940887272357940673828125">
        <ele>1824.4000244140625</ele>
        <time>2021-07-22T11:22:12.000Z</time>
      </trkpt>
      <trkpt lat="42.99157119356095790863037109375" lon="-4.76091002114117145538330078125">
        <ele>1824</ele>
        <time>2021-07-22T11:22:13.000Z</time>
      </trkpt>
      <trkpt lat="42.991570942103862762451171875" lon="-4.76089191623032093048095703125">
        <ele>1823.199951171875</ele>
        <time>2021-07-22T11:22:15.000Z</time>
      </trkpt>
      <trkpt lat="42.9915550164878368377685546875" lon="-4.760867021977901458740234375">
        <ele>1822.4000244140625</ele>
        <time>2021-07-22T11:22:18.000Z</time>
      </trkpt>
      <trkpt lat="42.99154420383274555206298828125" lon="-4.76086710579693317413330078125">
        <ele>1822.199951171875</ele>
        <time>2021-07-22T11:22:19.000Z</time>
      </trkpt>
      <trkpt lat="42.991533391177654266357421875" lon="-4.76086827926337718963623046875">
        <ele>1821.5999755859375</ele>
        <time>2021-07-22T11:22:20.000Z</time>
      </trkpt>
      <trkpt lat="42.9915214888751506805419921875" lon="-4.76085805334150791168212890625">
        <ele>1820.4000244140625</ele>
        <time>2021-07-22T11:22:22.000Z</time>
      </trkpt>
      <trkpt lat="42.99151235260069370269775390625" lon="-4.7608360089361667633056640625">
        <ele>1819.4000244140625</ele>
        <time>2021-07-22T11:22:25.000Z</time>
      </trkpt>
      <trkpt lat="42.99150480888783931732177734375" lon="-4.7608346678316593170166015625">
        <ele>1819</ele>
        <time>2021-07-22T11:22:26.000Z</time>
      </trkpt>
      <trkpt lat="42.9914899729192256927490234375" lon="-4.760834835469722747802734375">
        <ele>1818.4000244140625</ele>
        <time>2021-07-22T11:22:28.000Z</time>
      </trkpt>
      <trkpt lat="42.9914799146354198455810546875" lon="-4.760801307857036590576171875">
        <ele>1817.800048828125</ele>
        <time>2021-07-22T11:22:31.000Z</time>
      </trkpt>
      <trkpt lat="42.99144613556563854217529296875" lon="-4.76077943108975887298583984375">
        <ele>1817.5999755859375</ele>
        <time>2021-07-22T11:22:33.000Z</time>
      </trkpt>
      <trkpt lat="42.9913903959095478057861328125" lon="-4.760749675333499908447265625">
        <ele>1816.5999755859375</ele>
        <time>2021-07-22T11:22:36.000Z</time>
      </trkpt>
      <trkpt lat="42.9913796670734882354736328125" lon="-4.76074171252548694610595703125">
        <ele>1815.4000244140625</ele>
        <time>2021-07-22T11:22:37.000Z</time>
      </trkpt>
      <trkpt lat="42.99136466346681118011474609375" lon="-4.76073391735553741455078125">
        <ele>1814.800048828125</ele>
        <time>2021-07-22T11:22:38.000Z</time>
      </trkpt>
      <trkpt lat="42.9913451336324214935302734375" lon="-4.7607314027845859527587890625">
        <ele>1814.4000244140625</ele>
        <time>2021-07-22T11:22:39.000Z</time>
      </trkpt>
      <trkpt lat="42.99130263738334178924560546875" lon="-4.7607518546283245086669921875">
        <ele>1812.800048828125</ele>
        <time>2021-07-22T11:22:42.000Z</time>
      </trkpt>
      <trkpt lat="42.99128637649118900299072265625" lon="-4.760756380856037139892578125">
        <ele>1812.4000244140625</ele>
        <time>2021-07-22T11:22:43.000Z</time>
      </trkpt>
      <trkpt lat="42.99126726575195789337158203125" lon="-4.7607635892927646636962890625">
        <ele>1811.5999755859375</ele>
        <time>2021-07-22T11:22:44.000Z</time>
      </trkpt>
      <trkpt lat="42.9912378452718257904052734375" lon="-4.76078680716454982757568359375">
        <ele>1809.800048828125</ele>
        <time>2021-07-22T11:22:46.000Z</time>
      </trkpt>
      <trkpt lat="42.99122787080705165863037109375" lon="-4.76079116575419902801513671875">
        <ele>1809.4000244140625</ele>
        <time>2021-07-22T11:22:48.000Z</time>
      </trkpt>
      <trkpt lat="42.99122435040771961212158203125" lon="-4.7607863880693912506103515625">
        <ele>1809</ele>
        <time>2021-07-22T11:22:49.000Z</time>
      </trkpt>
      <trkpt lat="42.991219572722911834716796875" lon="-4.760778509080410003662109375">
        <ele>1808.800048828125</ele>
        <time>2021-07-22T11:22:51.000Z</time>
      </trkpt>
      <trkpt lat="42.9912137053906917572021484375" lon="-4.76078353822231292724609375">
        <ele>1807.800048828125</ele>
        <time>2021-07-22T11:22:53.000Z</time>
      </trkpt>
      <trkpt lat="42.99120959825813770294189453125" lon="-4.76078982464969158172607421875">
        <ele>1807.4000244140625</ele>
        <time>2021-07-22T11:22:54.000Z</time>
      </trkpt>
      <trkpt lat="42.9911919124424457550048828125" lon="-4.76082134060561656951904296875">
        <ele>1806.4000244140625</ele>
        <time>2021-07-22T11:22:58.000Z</time>
      </trkpt>
      <trkpt lat="42.9911823570728302001953125" lon="-4.7608279623091220855712890625">
        <ele>1806.199951171875</ele>
        <time>2021-07-22T11:22:59.000Z</time>
      </trkpt>
      <trkpt lat="42.99118445254862308502197265625" lon="-4.76085101254284381866455078125">
        <ele>1806</ele>
        <time>2021-07-22T11:23:02.000Z</time>
      </trkpt>
      <trkpt lat="42.991194427013397216796875" lon="-4.76086576469242572784423828125">
        <ele>1805.800048828125</ele>
        <time>2021-07-22T11:23:05.000Z</time>
      </trkpt>
      <trkpt lat="42.991171963512897491455078125" lon="-4.76085470058023929595947265625">
        <ele>1805</ele>
        <time>2021-07-22T11:23:09.000Z</time>
      </trkpt>
      <trkpt lat="42.99113600514829158782958984375" lon="-4.76087934337556362152099609375">
        <ele>1804.5999755859375</ele>
        <time>2021-07-22T11:23:12.000Z</time>
      </trkpt>
      <trkpt lat="42.9911020584404468536376953125" lon="-4.76089191623032093048095703125">
        <ele>1804.199951171875</ele>
        <time>2021-07-22T11:23:15.000Z</time>
      </trkpt>
      <trkpt lat="42.99108378589153289794921875" lon="-4.76090130396187305450439453125">
        <ele>1803.5999755859375</ele>
        <time>2021-07-22T11:23:17.000Z</time>
      </trkpt>
      <trkpt lat="42.9910685308277606964111328125" lon="-4.76093265227973461151123046875">
        <ele>1802.199951171875</ele>
        <time>2021-07-22T11:23:19.000Z</time>
      </trkpt>
      <trkpt lat="42.99105151556432247161865234375" lon="-4.76095763035118579864501953125">
        <ele>1801.199951171875</ele>
        <time>2021-07-22T11:23:22.000Z</time>
      </trkpt>
      <trkpt lat="42.99104011617600917816162109375" lon="-4.76096592843532562255859375">
        <ele>1801</ele>
        <time>2021-07-22T11:23:23.000Z</time>
      </trkpt>
      <trkpt lat="42.99102083779871463775634765625" lon="-4.76097472943365573883056640625">
        <ele>1799</ele>
        <time>2021-07-22T11:23:25.000Z</time>
      </trkpt>
      <trkpt lat="42.99099250696599483489990234375" lon="-4.76100222207605838775634765625">
        <ele>1797.800048828125</ele>
        <time>2021-07-22T11:23:28.000Z</time>
      </trkpt>
      <trkpt lat="42.9909780062735080718994140625" lon="-4.76101462729275226593017578125">
        <ele>1797.5999755859375</ele>
        <time>2021-07-22T11:23:29.000Z</time>
      </trkpt>
      <trkpt lat="42.99094975925981998443603515625" lon="-4.76102284155786037445068359375">
        <ele>1797.5999755859375</ele>
        <time>2021-07-22T11:23:31.000Z</time>
      </trkpt>
      <trkpt lat="42.99092193134129047393798828125" lon="-4.7610546089708805084228515625">
        <ele>1796.800048828125</ele>
        <time>2021-07-22T11:23:34.000Z</time>
      </trkpt>
      <trkpt lat="42.99091354943811893463134765625" lon="-4.76106324233114719390869140625">
        <ele>1796.4000244140625</ele>
        <time>2021-07-22T11:23:35.000Z</time>
      </trkpt>
      <trkpt lat="42.9908754117786884307861328125" lon="-4.76107212714850902557373046875">
        <ele>1795</ele>
        <time>2021-07-22T11:23:38.000Z</time>
      </trkpt>
      <trkpt lat="42.99085219390690326690673828125" lon="-4.76108402945101261138916015625">
        <ele>1794</ele>
        <time>2021-07-22T11:23:40.000Z</time>
      </trkpt>
      <trkpt lat="42.99082822166383266448974609375" lon="-4.7611049003899097442626953125">
        <ele>1792.4000244140625</ele>
        <time>2021-07-22T11:23:42.000Z</time>
      </trkpt>
      <trkpt lat="42.99081397242844104766845703125" lon="-4.76111437194049358367919921875">
        <ele>1790.800048828125</ele>
        <time>2021-07-22T11:23:44.000Z</time>
      </trkpt>
      <trkpt lat="42.9908093623816967010498046875" lon="-4.76111269555985927581787109375">
        <ele>1790.199951171875</ele>
        <time>2021-07-22T11:23:45.000Z</time>
      </trkpt>
      <trkpt lat="42.99079184420406818389892578125" lon="-4.76111613214015960693359375">
        <ele>1789.4000244140625</ele>
        <time>2021-07-22T11:23:47.000Z</time>
      </trkpt>
      <trkpt lat="42.99078262411057949066162109375" lon="-4.7611176408827304840087890625">
        <ele>1788.5999755859375</ele>
        <time>2021-07-22T11:23:49.000Z</time>
      </trkpt>
      <trkpt lat="42.9907761700451374053955078125" lon="-4.761134572327136993408203125">
        <ele>1788.199951171875</ele>
        <time>2021-07-22T11:23:51.000Z</time>
      </trkpt>
      <trkpt lat="42.99077407456934452056884765625" lon="-4.7611414454877376556396484375">
        <ele>1788</ele>
        <time>2021-07-22T11:23:52.000Z</time>
      </trkpt>
      <trkpt lat="42.99075798131525516510009765625" lon="-4.7611588798463344573974609375">
        <ele>1786.800048828125</ele>
        <time>2021-07-22T11:23:57.000Z</time>
      </trkpt>
      <trkpt lat="42.99074758775532245635986328125" lon="-4.76116164587438106536865234375">
        <ele>1786.5999755859375</ele>
        <time>2021-07-22T11:23:58.000Z</time>
      </trkpt>
      <trkpt lat="42.99071808345615863800048828125" lon="-4.7611803375184535980224609375">
        <ele>1785.5999755859375</ele>
        <time>2021-07-22T11:24:01.000Z</time>
      </trkpt>
      <trkpt lat="42.99068120308220386505126953125" lon="-4.7611867077648639678955078125">
        <ele>1784.800048828125</ele>
        <time>2021-07-22T11:24:04.000Z</time>
      </trkpt>
      <trkpt lat="42.99067248590290546417236328125" lon="-4.76118075661361217498779296875">
        <ele>1784.4000244140625</ele>
        <time>2021-07-22T11:24:05.000Z</time>
      </trkpt>
      <trkpt lat="42.9906397126615047454833984375" lon="-4.76117773912847042083740234375">
        <ele>1783.199951171875</ele>
        <time>2021-07-22T11:24:08.000Z</time>
      </trkpt>
      <trkpt lat="42.9906289838254451751708984375" lon="-4.76118318736553192138671875">
        <ele>1783</ele>
        <time>2021-07-22T11:24:09.000Z</time>
      </trkpt>
      <trkpt lat="42.99060459248721599578857421875" lon="-4.76119601167738437652587890625">
        <ele>1781.800048828125</ele>
        <time>2021-07-22T11:24:11.000Z</time>
      </trkpt>
      <trkpt lat="42.99056402407586574554443359375" lon="-4.76122073829174041748046875">
        <ele>1781</ele>
        <time>2021-07-22T11:24:15.000Z</time>
      </trkpt>
      <trkpt lat="42.990556061267852783203125" lon="-4.76123280823230743408203125">
        <ele>1780.5999755859375</ele>
        <time>2021-07-22T11:24:16.000Z</time>
      </trkpt>
      <trkpt lat="42.99053837545216083526611328125" lon="-4.76125015877187252044677734375">
        <ele>1779.4000244140625</ele>
        <time>2021-07-22T11:24:18.000Z</time>
      </trkpt>
      <trkpt lat="42.99051440320909023284912109375" lon="-4.761259295046329498291015625">
        <ele>1778.199951171875</ele>
        <time>2021-07-22T11:24:21.000Z</time>
      </trkpt>
      <trkpt lat="42.99049730412662029266357421875" lon="-4.761260636150836944580078125">
        <ele>1777.800048828125</ele>
        <time>2021-07-22T11:24:23.000Z</time>
      </trkpt>
      <trkpt lat="42.99045790918171405792236328125" lon="-4.76126843132078647613525390625">
        <ele>1777.199951171875</ele>
        <time>2021-07-22T11:24:26.000Z</time>
      </trkpt>
      <trkpt lat="42.9904338531196117401123046875" lon="-4.76129257120192050933837890625">
        <ele>1776.4000244140625</ele>
        <time>2021-07-22T11:24:28.000Z</time>
      </trkpt>
      <trkpt lat="42.99042589031159877777099609375" lon="-4.76129449903964996337890625">
        <ele>1776.4000244140625</ele>
        <time>2021-07-22T11:24:29.000Z</time>
      </trkpt>
      <trkpt lat="42.99041859805583953857421875" lon="-4.76129273883998394012451171875">
        <ele>1776</ele>
        <time>2021-07-22T11:24:30.000Z</time>
      </trkpt>
      <trkpt lat="42.990411557257175445556640625" lon="-4.76128217764198780059814453125">
        <ele>1775.4000244140625</ele>
        <time>2021-07-22T11:24:32.000Z</time>
      </trkpt>
      <trkpt lat="42.990404851734638214111328125" lon="-4.76127832196652889251708984375">
        <ele>1774.4000244140625</ele>
        <time>2021-07-22T11:24:34.000Z</time>
      </trkpt>
      <trkpt lat="42.99039504490792751312255859375" lon="-4.76128133945167064666748046875">
        <ele>1774</ele>
        <time>2021-07-22T11:24:35.000Z</time>
      </trkpt>
      <trkpt lat="42.99038230441510677337646484375" lon="-4.761286117136478424072265625">
        <ele>1773.4000244140625</ele>
        <time>2021-07-22T11:24:38.000Z</time>
      </trkpt>
      <trkpt lat="42.9903805442154407501220703125" lon="-4.76130480878055095672607421875">
        <ele>1773</ele>
        <time>2021-07-22T11:24:41.000Z</time>
      </trkpt>
      <trkpt lat="42.990332432091236114501953125" lon="-4.76127438247203826904296875">
        <ele>1772.4000244140625</ele>
        <time>2021-07-22T11:24:46.000Z</time>
      </trkpt>
      <trkpt lat="42.9902336932718753814697265625" lon="-4.76129407994449138641357421875">
        <ele>1771.4000244140625</ele>
        <time>2021-07-22T11:24:52.000Z</time>
      </trkpt>
      <trkpt lat="42.99013051204383373260498046875" lon="-4.761308245360851287841796875">
        <ele>1770.199951171875</ele>
        <time>2021-07-22T11:24:58.000Z</time>
      </trkpt>
      <trkpt lat="42.9900479502975940704345703125" lon="-4.7613389231264591217041015625">
        <ele>1769</ele>
        <time>2021-07-22T11:25:01.000Z</time>
      </trkpt>
      <trkpt lat="42.9900251515209674835205078125" lon="-4.7613449580967426300048828125">
        <ele>1767.5999755859375</ele>
        <time>2021-07-22T11:25:02.000Z</time>
      </trkpt>
      <trkpt lat="42.990005202591419219970703125" lon="-4.76134948432445526123046875">
        <ele>1766.5999755859375</ele>
        <time>2021-07-22T11:25:03.000Z</time>
      </trkpt>
      <trkpt lat="42.98999003134667873382568359375" lon="-4.76134839467704296112060546875">
        <ele>1766.199951171875</ele>
        <time>2021-07-22T11:25:04.000Z</time>
      </trkpt>
      <trkpt lat="42.9899607785046100616455078125" lon="-4.76133204996585845947265625">
        <ele>1765</ele>
        <time>2021-07-22T11:25:06.000Z</time>
      </trkpt>
      <trkpt lat="42.98994828946888446807861328125" lon="-4.76131536997854709625244140625">
        <ele>1764.4000244140625</ele>
        <time>2021-07-22T11:25:08.000Z</time>
      </trkpt>
      <trkpt lat="42.9899363033473491668701171875" lon="-4.76130799390375614166259765625">
        <ele>1763.800048828125</ele>
        <time>2021-07-22T11:25:09.000Z</time>
      </trkpt>
      <trkpt lat="42.9898876883089542388916015625" lon="-4.76130254566669464111328125">
        <ele>1762.800048828125</ele>
        <time>2021-07-22T11:25:12.000Z</time>
      </trkpt>
      <trkpt lat="42.9898648895323276519775390625" lon="-4.76128368638455867767333984375">
        <ele>1761.5999755859375</ele>
        <time>2021-07-22T11:25:15.000Z</time>
      </trkpt>
      <trkpt lat="42.98985826782882213592529296875" lon="-4.76127211935818195343017578125">
        <ele>1761.4000244140625</ele>
        <time>2021-07-22T11:25:16.000Z</time>
      </trkpt>
      <trkpt lat="42.98984888009727001190185546875" lon="-4.7612688504159450531005859375">
        <ele>1761.4000244140625</ele>
        <time>2021-07-22T11:25:17.000Z</time>
      </trkpt>
      <trkpt lat="42.989834211766719818115234375" lon="-4.76127304136753082275390625">
        <ele>1761.199951171875</ele>
        <time>2021-07-22T11:25:18.000Z</time>
      </trkpt>
      <trkpt lat="42.98980965279042720794677734375" lon="-4.76126809604465961456298828125">
        <ele>1760.199951171875</ele>
        <time>2021-07-22T11:25:20.000Z</time>
      </trkpt>
      <trkpt lat="42.98978827893733978271484375" lon="-4.7612675093114376068115234375">
        <ele>1759</ele>
        <time>2021-07-22T11:25:22.000Z</time>
      </trkpt>
      <trkpt lat="42.98977897502481937408447265625" lon="-4.761256277561187744140625">
        <ele>1758.5999755859375</ele>
        <time>2021-07-22T11:25:23.000Z</time>
      </trkpt>
      <trkpt lat="42.98973438329994678497314453125" lon="-4.7612380050122737884521484375">
        <ele>1758</ele>
        <time>2021-07-22T11:25:26.000Z</time>
      </trkpt>
      <trkpt lat="42.98966699279844760894775390625" lon="-4.7612239234149456024169921875">
        <ele>1756.4000244140625</ele>
        <time>2021-07-22T11:25:30.000Z</time>
      </trkpt>
      <trkpt lat="42.98963849432766437530517578125" lon="-4.76121813990175724029541015625">
        <ele>1754.5999755859375</ele>
        <time>2021-07-22T11:25:32.000Z</time>
      </trkpt>
      <trkpt lat="42.98961955122649669647216796875" lon="-4.761211685836315155029296875">
        <ele>1754</ele>
        <time>2021-07-22T11:25:33.000Z</time>
      </trkpt>
      <trkpt lat="42.98959658481180667877197265625" lon="-4.7612071596086025238037109375">
        <ele>1753.5999755859375</ele>
        <time>2021-07-22T11:25:34.000Z</time>
      </trkpt>
      <trkpt lat="42.989554591476917266845703125" lon="-4.76119031198322772979736328125">
        <ele>1752.5999755859375</ele>
        <time>2021-07-22T11:25:36.000Z</time>
      </trkpt>
      <trkpt lat="42.98953606747090816497802734375" lon="-4.76114295423030853271484375">
        <ele>1752</ele>
        <time>2021-07-22T11:25:38.000Z</time>
      </trkpt>
      <trkpt lat="42.989526428282260894775390625" lon="-4.761117137968540191650390625">
        <ele>1751.4000244140625</ele>
        <time>2021-07-22T11:25:39.000Z</time>
      </trkpt>
      <trkpt lat="42.9895051382482051849365234375" lon="-4.7610673494637012481689453125">
        <ele>1750.199951171875</ele>
        <time>2021-07-22T11:25:41.000Z</time>
      </trkpt>
      <trkpt lat="42.98947571776807308197021484375" lon="-4.76101881824433803558349609375">
        <ele>1749.5999755859375</ele>
        <time>2021-07-22T11:25:43.000Z</time>
      </trkpt>
      <trkpt lat="42.989451996982097625732421875" lon="-4.7610006295144557952880859375">
        <ele>1748.800048828125</ele>
        <time>2021-07-22T11:25:44.000Z</time>
      </trkpt>
      <trkpt lat="42.98940178938210010528564453125" lon="-4.7609801776707172393798828125">
        <ele>1747.5999755859375</ele>
        <time>2021-07-22T11:25:46.000Z</time>
      </trkpt>
      <trkpt lat="42.9893760569393634796142578125" lon="-4.76096802391111850738525390625">
        <ele>1747.199951171875</ele>
        <time>2021-07-22T11:25:47.000Z</time>
      </trkpt>
      <trkpt lat="42.98932685516774654388427734375" lon="-4.76094447076320648193359375">
        <ele>1746.4000244140625</ele>
        <time>2021-07-22T11:25:49.000Z</time>
      </trkpt>
      <trkpt lat="42.9892898909747600555419921875" lon="-4.76091840304434299468994140625">
        <ele>1744.800048828125</ele>
        <time>2021-07-22T11:25:51.000Z</time>
      </trkpt>
      <trkpt lat="42.9892486520111560821533203125" lon="-4.7608980350196361541748046875">
        <ele>1743.800048828125</ele>
        <time>2021-07-22T11:25:53.000Z</time>
      </trkpt>
      <trkpt lat="42.989221997559070587158203125" lon="-4.76088956929743289947509765625">
        <ele>1743.4000244140625</ele>
        <time>2021-07-22T11:25:54.000Z</time>
      </trkpt>
      <trkpt lat="42.98919693566858768463134765625" lon="-4.76087330840528011322021484375">
        <ele>1742.5999755859375</ele>
        <time>2021-07-22T11:25:55.000Z</time>
      </trkpt>
      <trkpt lat="42.98913926817476749420166015625" lon="-4.7608386911451816558837890625">
        <ele>1740.800048828125</ele>
        <time>2021-07-22T11:25:58.000Z</time>
      </trkpt>
      <trkpt lat="42.98912174999713897705078125" lon="-4.7608096897602081298828125">
        <ele>1740.4000244140625</ele>
        <time>2021-07-22T11:25:59.000Z</time>
      </trkpt>
      <trkpt lat="42.989106662571430206298828125" lon="-4.76077993400394916534423828125">
        <ele>1739.800048828125</ele>
        <time>2021-07-22T11:26:00.000Z</time>
      </trkpt>
      <trkpt lat="42.9890572093427181243896484375" lon="-4.760723523795604705810546875">
        <ele>1739</ele>
        <time>2021-07-22T11:26:03.000Z</time>
      </trkpt>
      <trkpt lat="42.989038266241550445556640625" lon="-4.760718159377574920654296875">
        <ele>1738.4000244140625</ele>
        <time>2021-07-22T11:26:04.000Z</time>
      </trkpt>
      <trkpt lat="42.98898722045123577117919921875" lon="-4.76068069227039813995361328125">
        <ele>1737.4000244140625</ele>
        <time>2021-07-22T11:26:07.000Z</time>
      </trkpt>
      <trkpt lat="42.98896525986492633819580078125" lon="-4.7606713883578777313232421875">
        <ele>1737</ele>
        <time>2021-07-22T11:26:08.000Z</time>
      </trkpt>
      <trkpt lat="42.98894430510699748992919921875" lon="-4.76066107861697673797607421875">
        <ele>1736.4000244140625</ele>
        <time>2021-07-22T11:26:09.000Z</time>
      </trkpt>
      <trkpt lat="42.9889177344739437103271484375" lon="-4.76062319241464138031005859375">
        <ele>1735</ele>
        <time>2021-07-22T11:26:11.000Z</time>
      </trkpt>
      <trkpt lat="42.98888378776609897613525390625" lon="-4.7605976276099681854248046875">
        <ele>1733.5999755859375</ele>
        <time>2021-07-22T11:26:13.000Z</time>
      </trkpt>
      <trkpt lat="42.98884372226893901824951171875" lon="-4.76057290099561214447021484375">
        <ele>1732</ele>
        <time>2021-07-22T11:26:15.000Z</time>
      </trkpt>
      <trkpt lat="42.98879762180149555206298828125" lon="-4.76055345498025417327880859375">
        <ele>1730.800048828125</ele>
        <time>2021-07-22T11:26:17.000Z</time>
      </trkpt>
      <trkpt lat="42.988766022026538848876953125" lon="-4.76052747108042240142822265625">
        <ele>1729.800048828125</ele>
        <time>2021-07-22T11:26:19.000Z</time>
      </trkpt>
      <trkpt lat="42.988751940429210662841796875" lon="-4.760510958731174468994140625">
        <ele>1729.4000244140625</ele>
        <time>2021-07-22T11:26:20.000Z</time>
      </trkpt>
      <trkpt lat="42.988733164966106414794921875" lon="-4.76045957766473293304443359375">
        <ele>1729</ele>
        <time>2021-07-22T11:26:22.000Z</time>
      </trkpt>
      <trkpt lat="42.98871983774006366729736328125" lon="-4.7604529559612274169921875">
        <ele>1729</ele>
        <time>2021-07-22T11:26:23.000Z</time>
      </trkpt>
      <trkpt lat="42.98870659433305263519287109375" lon="-4.7604420594871044158935546875">
        <ele>1728.800048828125</ele>
        <time>2021-07-22T11:26:24.000Z</time>
      </trkpt>
      <trkpt lat="42.98869259655475616455078125" lon="-4.76042286492884159088134765625">
        <ele>1727.800048828125</ele>
        <time>2021-07-22T11:26:25.000Z</time>
      </trkpt>
      <trkpt lat="42.9886783473193645477294921875" lon="-4.7604055143892765045166015625">
        <ele>1726.800048828125</ele>
        <time>2021-07-22T11:26:26.000Z</time>
      </trkpt>
      <trkpt lat="42.9886629246175289154052734375" lon="-4.76038497872650623321533203125">
        <ele>1725.800048828125</ele>
        <time>2021-07-22T11:26:27.000Z</time>
      </trkpt>
      <trkpt lat="42.98862981610000133514404296875" lon="-4.76036268286406993865966796875">
        <ele>1724.4000244140625</ele>
        <time>2021-07-22T11:26:29.000Z</time>
      </trkpt>
      <trkpt lat="42.988577596843242645263671875" lon="-4.76030853576958179473876953125">
        <ele>1723.199951171875</ele>
        <time>2021-07-22T11:26:32.000Z</time>
      </trkpt>
      <trkpt lat="42.988552115857601165771484375" lon="-4.76026277057826519012451171875">
        <ele>1721.800048828125</ele>
        <time>2021-07-22T11:26:34.000Z</time>
      </trkpt>
      <trkpt lat="42.98851632513105869293212890625" lon="-4.76022304035723209381103515625">
        <ele>1720.5999755859375</ele>
        <time>2021-07-22T11:26:36.000Z</time>
      </trkpt>
      <trkpt lat="42.9884979687631130218505859375" lon="-4.76020560599863529205322265625">
        <ele>1719.5999755859375</ele>
        <time>2021-07-22T11:26:37.000Z</time>
      </trkpt>
      <trkpt lat="42.9884808696806430816650390625" lon="-4.76019521243870258331298828125">
        <ele>1718.800048828125</ele>
        <time>2021-07-22T11:26:38.000Z</time>
      </trkpt>
      <trkpt lat="42.98842948861420154571533203125" lon="-4.76014173589646816253662109375">
        <ele>1717.5999755859375</ele>
        <time>2021-07-22T11:26:41.000Z</time>
      </trkpt>
      <trkpt lat="42.98841138370335102081298828125" lon="-4.76012262515723705291748046875">
        <ele>1717</ele>
        <time>2021-07-22T11:26:42.000Z</time>
      </trkpt>
      <trkpt lat="42.98839830793440341949462890625" lon="-4.7601077891886234283447265625">
        <ele>1716.4000244140625</ele>
        <time>2021-07-22T11:26:43.000Z</time>
      </trkpt>
      <trkpt lat="42.98835086636245250701904296875" lon="-4.76006872951984405517578125">
        <ele>1715.199951171875</ele>
        <time>2021-07-22T11:26:46.000Z</time>
      </trkpt>
      <trkpt lat="42.98833611421287059783935546875" lon="-4.76004618220031261444091796875">
        <ele>1715</ele>
        <time>2021-07-22T11:26:47.000Z</time>
      </trkpt>
      <trkpt lat="42.98831247724592685699462890625" lon="-4.760008715093135833740234375">
        <ele>1714</ele>
        <time>2021-07-22T11:26:49.000Z</time>
      </trkpt>
      <trkpt lat="42.98828230239450931549072265625" lon="-4.75997124798595905303955078125">
        <ele>1712.800048828125</ele>
        <time>2021-07-22T11:26:51.000Z</time>
      </trkpt>
      <trkpt lat="42.98826352693140506744384765625" lon="-4.7599595971405506134033203125">
        <ele>1712.199951171875</ele>
        <time>2021-07-22T11:26:52.000Z</time>
      </trkpt>
      <trkpt lat="42.98822245560586452484130859375" lon="-4.75994358770549297332763671875">
        <ele>1711.4000244140625</ele>
        <time>2021-07-22T11:26:54.000Z</time>
      </trkpt>
      <trkpt lat="42.98817601986229419708251953125" lon="-4.75992129184305667877197265625">
        <ele>1710</ele>
        <time>2021-07-22T11:26:57.000Z</time>
      </trkpt>
      <trkpt lat="42.98815959133207798004150390625" lon="-4.7599086351692676544189453125">
        <ele>1709.5999755859375</ele>
        <time>2021-07-22T11:26:58.000Z</time>
      </trkpt>
      <trkpt lat="42.988143749535083770751953125" lon="-4.75989178754389286041259765625">
        <ele>1708.4000244140625</ele>
        <time>2021-07-22T11:26:59.000Z</time>
      </trkpt>
      <trkpt lat="42.988107204437255859375" lon="-4.7598774544894695281982421875">
        <ele>1707.4000244140625</ele>
        <time>2021-07-22T11:27:01.000Z</time>
      </trkpt>
      <trkpt lat="42.98808884806931018829345703125" lon="-4.75986513309180736541748046875">
        <ele>1707.199951171875</ele>
        <time>2021-07-22T11:27:02.000Z</time>
      </trkpt>
      <trkpt lat="42.98807074315845966339111328125" lon="-4.7598191164433956146240234375">
        <ele>1706.5999755859375</ele>
        <time>2021-07-22T11:27:04.000Z</time>
      </trkpt>
      <trkpt lat="42.988055907189846038818359375" lon="-4.75980528630316257476806640625">
        <ele>1705.5999755859375</ele>
        <time>2021-07-22T11:27:05.000Z</time>
      </trkpt>
      <trkpt lat="42.9880334436893463134765625" lon="-4.75979321636259555816650390625">
        <ele>1705</ele>
        <time>2021-07-22T11:27:06.000Z</time>
      </trkpt>
      <trkpt lat="42.98801357857882976531982421875" lon="-4.75978684611618518829345703125">
        <ele>1704.4000244140625</ele>
        <time>2021-07-22T11:27:07.000Z</time>
      </trkpt>
      <trkpt lat="42.9879511334002017974853515625" lon="-4.75972901098430156707763671875">
        <ele>1703</ele>
        <time>2021-07-22T11:27:11.000Z</time>
      </trkpt>
      <trkpt lat="42.9879212938249111175537109375" lon="-4.7596833296120166778564453125">
        <ele>1701</ele>
        <time>2021-07-22T11:27:14.000Z</time>
      </trkpt>
      <trkpt lat="42.9879115708172321319580078125" lon="-4.75967042148113250732421875">
        <ele>1700</ele>
        <time>2021-07-22T11:27:15.000Z</time>
      </trkpt>
      <trkpt lat="42.98788131214678287506103515625" lon="-4.75964804179966449737548828125">
        <ele>1699</ele>
        <time>2021-07-22T11:27:17.000Z</time>
      </trkpt>
      <trkpt lat="42.98783772625029087066650390625" lon="-4.75959557108581066131591796875">
        <ele>1697.5999755859375</ele>
        <time>2021-07-22T11:27:20.000Z</time>
      </trkpt>
      <trkpt lat="42.9878217168152332305908203125" lon="-4.75957361049950122833251953125">
        <ele>1696.199951171875</ele>
        <time>2021-07-22T11:27:21.000Z</time>
      </trkpt>
      <trkpt lat="42.98777720890939235687255859375" lon="-4.75956045091152191162109375">
        <ele>1694.800048828125</ele>
        <time>2021-07-22T11:27:23.000Z</time>
      </trkpt>
      <trkpt lat="42.98775658942759037017822265625" lon="-4.75956036709249019622802734375">
        <ele>1694.4000244140625</ele>
        <time>2021-07-22T11:27:24.000Z</time>
      </trkpt>
      <trkpt lat="42.98774435184895992279052734375" lon="-4.7595458664000034332275390625">
        <ele>1693.800048828125</ele>
        <time>2021-07-22T11:27:25.000Z</time>
      </trkpt>
      <trkpt lat="42.98773077316582202911376953125" lon="-4.759535975754261016845703125">
        <ele>1693.4000244140625</ele>
        <time>2021-07-22T11:27:26.000Z</time>
      </trkpt>
      <trkpt lat="42.98770026303827762603759765625" lon="-4.7595099918544292449951171875">
        <ele>1692</ele>
        <time>2021-07-22T11:27:29.000Z</time>
      </trkpt>
      <trkpt lat="42.987693138420581817626953125" lon="-4.75951217114925384521484375">
        <ele>1691.199951171875</ele>
        <time>2021-07-22T11:27:30.000Z</time>
      </trkpt>
      <trkpt lat="42.987686432898044586181640625" lon="-4.7595244087278842926025390625">
        <ele>1690.800048828125</ele>
        <time>2021-07-22T11:27:31.000Z</time>
      </trkpt>
      <trkpt lat="42.98767997883260250091552734375" lon="-4.7595314495265483856201171875">
        <ele>1690</ele>
        <time>2021-07-22T11:27:32.000Z</time>
      </trkpt>
      <trkpt lat="42.98768584616482257843017578125" lon="-4.7595356404781341552734375">
        <ele>1689.4000244140625</ele>
        <time>2021-07-22T11:27:33.000Z</time>
      </trkpt>
      <trkpt lat="42.98769288696348667144775390625" lon="-4.75953622721135616302490234375">
        <ele>1689</ele>
        <time>2021-07-22T11:27:34.000Z</time>
      </trkpt>
      <trkpt lat="42.9876943118870258331298828125" lon="-4.75953639484941959381103515625">
        <ele>1688.5999755859375</ele>
        <time>2021-07-22T11:27:35.000Z</time>
      </trkpt>
      <trkpt lat="42.9877010174095630645751953125" lon="-4.75953421555459499359130859375">
        <ele>1688.4000244140625</ele>
        <time>2021-07-22T11:27:37.000Z</time>
      </trkpt>
      <trkpt lat="42.98769506625831127166748046875" lon="-4.7595059685409069061279296875">
        <ele>1688.199951171875</ele>
        <time>2021-07-22T11:27:40.000Z</time>
      </trkpt>
      <trkpt lat="42.9876901209354400634765625" lon="-4.75949431769549846649169921875">
        <ele>1688.199951171875</ele>
        <time>2021-07-22T11:27:41.000Z</time>
      </trkpt>
      <trkpt lat="42.98766321502625942230224609375" lon="-4.75948023609817028045654296875">
        <ele>1687.5999755859375</ele>
        <time>2021-07-22T11:27:44.000Z</time>
      </trkpt>
      <trkpt lat="42.98761091195046901702880859375" lon="-4.75949699990451335906982421875">
        <ele>1687.4000244140625</ele>
        <time>2021-07-22T11:27:47.000Z</time>
      </trkpt>
      <trkpt lat="42.987583838403224945068359375" lon="-4.75946255028247833251953125">
        <ele>1686.199951171875</ele>
        <time>2021-07-22T11:27:51.000Z</time>
      </trkpt>
      <trkpt lat="42.98756900243461132049560546875" lon="-4.75943296216428279876708984375">
        <ele>1685.4000244140625</ele>
        <time>2021-07-22T11:27:53.000Z</time>
      </trkpt>
      <trkpt lat="42.98756246455013751983642578125" lon="-4.759427011013031005859375">
        <ele>1685</ele>
        <time>2021-07-22T11:27:55.000Z</time>
      </trkpt>
      <trkpt lat="42.98756447620689868927001953125" lon="-4.7594258375465869903564453125">
        <ele>1684.800048828125</ele>
        <time>2021-07-22T11:27:59.000Z</time>
      </trkpt>
      <trkpt lat="42.98754871822893619537353515625" lon="-4.7594389133155345916748046875">
        <ele>1682.199951171875</ele>
        <time>2021-07-22T11:30:32.000Z</time>
      </trkpt>
      <trkpt lat="42.9875452816486358642578125" lon="-4.75940295495092868804931640625">
        <ele>1682</ele>
        <time>2021-07-22T11:30:33.000Z</time>
      </trkpt>
      <trkpt lat="42.98751016147434711456298828125" lon="-4.75933916866779327392578125">
        <ele>1681.199951171875</ele>
        <time>2021-07-22T11:30:36.000Z</time>
      </trkpt>
      <trkpt lat="42.98749775625765323638916015625" lon="-4.75931544788181781768798828125">
        <ele>1681.199951171875</ele>
        <time>2021-07-22T11:30:37.000Z</time>
      </trkpt>
      <trkpt lat="42.98743874765932559967041015625" lon="-4.75922592915594577789306640625">
        <ele>1680.199951171875</ele>
        <time>2021-07-22T11:30:42.000Z</time>
      </trkpt>
      <trkpt lat="42.98743438906967639923095703125" lon="-4.75919164717197418212890625">
        <ele>1679.800048828125</ele>
        <time>2021-07-22T11:30:43.000Z</time>
      </trkpt>
      <trkpt lat="42.98741360194981098175048828125" lon="-4.759140349924564361572265625">
        <ele>1678.800048828125</ele>
        <time>2021-07-22T11:30:45.000Z</time>
      </trkpt>
      <trkpt lat="42.987390719354152679443359375" lon="-4.75912216119468212127685546875">
        <ele>1678.5999755859375</ele>
        <time>2021-07-22T11:30:46.000Z</time>
      </trkpt>
      <trkpt lat="42.98736381344497203826904296875" lon="-4.7591056488454341888427734375">
        <ele>1677.4000244140625</ele>
        <time>2021-07-22T11:30:47.000Z</time>
      </trkpt>
      <trkpt lat="42.98733548261225223541259765625" lon="-4.75906214676797389984130859375">
        <ele>1676.199951171875</ele>
        <time>2021-07-22T11:30:49.000Z</time>
      </trkpt>
      <trkpt lat="42.9873146116733551025390625" lon="-4.75901051424443721771240234375">
        <ele>1675.4000244140625</ele>
        <time>2021-07-22T11:30:51.000Z</time>
      </trkpt>
      <trkpt lat="42.98730262555181980133056640625" lon="-4.75899106822907924652099609375">
        <ele>1675</ele>
        <time>2021-07-22T11:30:52.000Z</time>
      </trkpt>
      <trkpt lat="42.9872939921915531158447265625" lon="-4.758966006338596343994140625">
        <ele>1674.199951171875</ele>
        <time>2021-07-22T11:30:53.000Z</time>
      </trkpt>
      <trkpt lat="42.98728443682193756103515625" lon="-4.758940525352954864501953125">
        <ele>1673.5999755859375</ele>
        <time>2021-07-22T11:30:54.000Z</time>
      </trkpt>
      <trkpt lat="42.98726742155849933624267578125" lon="-4.75889970548450946807861328125">
        <ele>1673.5999755859375</ele>
        <time>2021-07-22T11:30:56.000Z</time>
      </trkpt>
      <trkpt lat="42.98724663443863391876220703125" lon="-4.75885528139770030975341796875">
        <ele>1671.800048828125</ele>
        <time>2021-07-22T11:30:58.000Z</time>
      </trkpt>
      <trkpt lat="42.98721997998654842376708984375" lon="-4.7588069178164005279541015625">
        <ele>1670.4000244140625</ele>
        <time>2021-07-22T11:31:00.000Z</time>
      </trkpt>
      <trkpt lat="42.98720254562795162200927734375" lon="-4.7587891481816768646240234375">
        <ele>1669.199951171875</ele>
        <time>2021-07-22T11:31:01.000Z</time>
      </trkpt>
      <trkpt lat="42.9871679283678531646728515625" lon="-4.75875067524611949920654296875">
        <ele>1668.199951171875</ele>
        <time>2021-07-22T11:31:03.000Z</time>
      </trkpt>
      <trkpt lat="42.9871390946209430694580078125" lon="-4.75866668857634067535400390625">
        <ele>1666.800048828125</ele>
        <time>2021-07-22T11:31:06.000Z</time>
      </trkpt>
      <trkpt lat="42.98711503855884075164794921875" lon="-4.758599214255809783935546875">
        <ele>1665.5999755859375</ele>
        <time>2021-07-22T11:31:09.000Z</time>
      </trkpt>
      <trkpt lat="42.9870924912393093109130859375" lon="-4.75856602191925048828125">
        <ele>1664</ele>
        <time>2021-07-22T11:31:11.000Z</time>
      </trkpt>
      <trkpt lat="42.9870770685374736785888671875" lon="-4.7585499286651611328125">
        <ele>1663.4000244140625</ele>
        <time>2021-07-22T11:31:12.000Z</time>
      </trkpt>
      <trkpt lat="42.987059466540813446044921875" lon="-4.7585316561162471771240234375">
        <ele>1662.4000244140625</ele>
        <time>2021-07-22T11:31:13.000Z</time>
      </trkpt>
      <trkpt lat="42.98702317290008068084716796875" lon="-4.75850190035998821258544921875">
        <ele>1661.199951171875</ele>
        <time>2021-07-22T11:31:15.000Z</time>
      </trkpt>
      <trkpt lat="42.98699316568672657012939453125" lon="-4.75845982320606708526611328125">
        <ele>1661</ele>
        <time>2021-07-22T11:31:17.000Z</time>
      </trkpt>
      <trkpt lat="42.98697288148105144500732421875" lon="-4.75844825617969036102294921875">
        <ele>1660.800048828125</ele>
        <time>2021-07-22T11:31:18.000Z</time>
      </trkpt>
      <trkpt lat="42.98690264113247394561767578125" lon="-4.75836896337568759918212890625">
        <ele>1660</ele>
        <time>2021-07-22T11:31:22.000Z</time>
      </trkpt>
      <trkpt lat="42.98689325340092182159423828125" lon="-4.75834432058036327362060546875">
        <ele>1659.199951171875</ele>
        <time>2021-07-22T11:31:23.000Z</time>
      </trkpt>
      <trkpt lat="42.986881770193576812744140625" lon="-4.75832395255565643310546875">
        <ele>1658.5999755859375</ele>
        <time>2021-07-22T11:31:24.000Z</time>
      </trkpt>
      <trkpt lat="42.98686190508306026458740234375" lon="-4.75826762616634368896484375">
        <ele>1657.5999755859375</ele>
        <time>2021-07-22T11:31:26.000Z</time>
      </trkpt>
      <trkpt lat="42.98683843575417995452880859375" lon="-4.7582154907286167144775390625">
        <ele>1656.4000244140625</ele>
        <time>2021-07-22T11:31:28.000Z</time>
      </trkpt>
      <trkpt lat="42.98682510852813720703125" lon="-4.75819814018905162811279296875">
        <ele>1655.4000244140625</ele>
        <time>2021-07-22T11:31:29.000Z</time>
      </trkpt>
      <trkpt lat="42.9868148826062679290771484375" lon="-4.75817970000207424163818359375">
        <ele>1654.800048828125</ele>
        <time>2021-07-22T11:31:30.000Z</time>
      </trkpt>
      <trkpt lat="42.98679568804800510406494140625" lon="-4.758162684738636016845703125">
        <ele>1653.800048828125</ele>
        <time>2021-07-22T11:31:32.000Z</time>
      </trkpt>
      <trkpt lat="42.98677121289074420928955078125" lon="-4.7581470943987369537353515625">
        <ele>1652.199951171875</ele>
        <time>2021-07-22T11:31:34.000Z</time>
      </trkpt>
      <trkpt lat="42.98675729893147945404052734375" lon="-4.75812412798404693603515625">
        <ele>1650.800048828125</ele>
        <time>2021-07-22T11:31:36.000Z</time>
      </trkpt>
      <trkpt lat="42.986714132130146026611328125" lon="-4.75809462368488311767578125">
        <ele>1649.5999755859375</ele>
        <time>2021-07-22T11:31:39.000Z</time>
      </trkpt>
      <trkpt lat="42.98670214600861072540283203125" lon="-4.758092947304248809814453125">
        <ele>1649.4000244140625</ele>
        <time>2021-07-22T11:31:40.000Z</time>
      </trkpt>
      <trkpt lat="42.98669275827705860137939453125" lon="-4.75809118710458278656005859375">
        <ele>1649</ele>
        <time>2021-07-22T11:31:41.000Z</time>
      </trkpt>
      <trkpt lat="42.9866827838122844696044921875" lon="-4.75808347575366497039794921875">
        <ele>1648.4000244140625</ele>
        <time>2021-07-22T11:31:42.000Z</time>
      </trkpt>
      <trkpt lat="42.9866291396319866180419921875" lon="-4.7580309212207794189453125">
        <ele>1648</ele>
        <time>2021-07-22T11:31:46.000Z</time>
      </trkpt>
      <trkpt lat="42.9866197519004344940185546875" lon="-4.75801826454699039459228515625">
        <ele>1648</ele>
        <time>2021-07-22T11:31:47.000Z</time>
      </trkpt>
      <trkpt lat="42.9866038262844085693359375" lon="-4.75803385488688945770263671875">
        <ele>1647.4000244140625</ele>
        <time>2021-07-22T11:31:49.000Z</time>
      </trkpt>
      <trkpt lat="42.9866013117134571075439453125" lon="-4.75804307498037815093994140625">
        <ele>1647</ele>
        <time>2021-07-22T11:31:50.000Z</time>
      </trkpt>
      <trkpt lat="42.98659670166671276092529296875" lon="-4.75805413909256458282470703125">
        <ele>1646.4000244140625</ele>
        <time>2021-07-22T11:31:51.000Z</time>
      </trkpt>
      <trkpt lat="42.98659980297088623046875" lon="-4.75806922651827335357666015625">
        <ele>1645.199951171875</ele>
        <time>2021-07-22T11:31:53.000Z</time>
      </trkpt>
      <trkpt lat="42.98660458065569400787353515625" lon="-4.758064448833465576171875">
        <ele>1645.199951171875</ele>
        <time>2021-07-22T11:31:54.000Z</time>
      </trkpt>
      <trkpt lat="42.9866083525121212005615234375" lon="-4.7580501995980739593505859375">
        <ele>1645.199951171875</ele>
        <time>2021-07-22T11:31:55.000Z</time>
      </trkpt>
      <trkpt lat="42.986594773828983306884765625" lon="-4.758023209869861602783203125">
        <ele>1644.800048828125</ele>
        <time>2021-07-22T11:32:00.000Z</time>
      </trkpt>
      <trkpt lat="42.986585386097431182861328125" lon="-4.75800636224448680877685546875">
        <ele>1644.199951171875</ele>
        <time>2021-07-22T11:32:03.000Z</time>
      </trkpt>
      <trkpt lat="42.98653475940227508544921875" lon="-4.75801818072795867919921875">
        <ele>1644</ele>
        <time>2021-07-22T11:32:07.000Z</time>
      </trkpt>
      <trkpt lat="42.9865017347037792205810546875" lon="-4.75800133310258388519287109375">
        <ele>1643.800048828125</ele>
        <time>2021-07-22T11:32:10.000Z</time>
      </trkpt>
      <trkpt lat="42.98647834919393062591552734375" lon="-4.75798540748655796051025390625">
        <ele>1643.199951171875</ele>
        <time>2021-07-22T11:32:12.000Z</time>
      </trkpt>
      <trkpt lat="42.986455298960208892822265625" lon="-4.75796814076602458953857421875">
        <ele>1642</ele>
        <time>2021-07-22T11:32:14.000Z</time>
      </trkpt>
      <trkpt lat="42.986405007541179656982421875" lon="-4.75795783102512359619140625">
        <ele>1641.199951171875</ele>
        <time>2021-07-22T11:32:16.000Z</time>
      </trkpt>
      <trkpt lat="42.98637927509844303131103515625" lon="-4.7579489462077617645263671875">
        <ele>1640.800048828125</ele>
        <time>2021-07-22T11:32:17.000Z</time>
      </trkpt>
      <trkpt lat="42.98636049963533878326416015625" lon="-4.757938049733638763427734375">
        <ele>1640.5999755859375</ele>
        <time>2021-07-22T11:32:18.000Z</time>
      </trkpt>
      <trkpt lat="42.9863183386623859405517578125" lon="-4.75788985379040241241455078125">
        <ele>1639.5999755859375</ele>
        <time>2021-07-22T11:32:21.000Z</time>
      </trkpt>
      <trkpt lat="42.98629713244736194610595703125" lon="-4.75788138806819915771484375">
        <ele>1638.5999755859375</ele>
        <time>2021-07-22T11:32:22.000Z</time>
      </trkpt>
      <trkpt lat="42.98627726733684539794921875" lon="-4.75787024013698101043701171875">
        <ele>1638</ele>
        <time>2021-07-22T11:32:23.000Z</time>
      </trkpt>
      <trkpt lat="42.98622286878526210784912109375" lon="-4.7578416578471660614013671875">
        <ele>1636.5999755859375</ele>
        <time>2021-07-22T11:32:26.000Z</time>
      </trkpt>
      <trkpt lat="42.98617810942232608795166015625" lon="-4.75781299173831939697265625">
        <ele>1635.4000244140625</ele>
        <time>2021-07-22T11:32:28.000Z</time>
      </trkpt>
      <trkpt lat="42.98609487712383270263671875" lon="-4.75775406695902347564697265625">
        <ele>1634.199951171875</ele>
        <time>2021-07-22T11:32:32.000Z</time>
      </trkpt>
      <trkpt lat="42.9860735870897769927978515625" lon="-4.75773378275334835052490234375">
        <ele>1633.5999755859375</ele>
        <time>2021-07-22T11:32:33.000Z</time>
      </trkpt>
      <trkpt lat="42.98603025265038013458251953125" lon="-4.75770075805485248565673828125">
        <ele>1632.800048828125</ele>
        <time>2021-07-22T11:32:35.000Z</time>
      </trkpt>
      <trkpt lat="42.985957749187946319580078125" lon="-4.75767745636403560638427734375">
        <ele>1632</ele>
        <time>2021-07-22T11:32:38.000Z</time>
      </trkpt>
      <trkpt lat="42.98593218438327312469482421875" lon="-4.757679216563701629638671875">
        <ele>1631</ele>
        <time>2021-07-22T11:32:39.000Z</time>
      </trkpt>
      <trkpt lat="42.98588088713586330413818359375" lon="-4.75766371004283428192138671875">
        <ele>1629.4000244140625</ele>
        <time>2021-07-22T11:32:41.000Z</time>
      </trkpt>
      <trkpt lat="42.98582757823169231414794921875" lon="-4.75765499286353588104248046875">
        <ele>1628.5999755859375</ele>
        <time>2021-07-22T11:32:43.000Z</time>
      </trkpt>
      <trkpt lat="42.98579170368611812591552734375" lon="-4.75763001479208469390869140625">
        <ele>1627.800048828125</ele>
        <time>2021-07-22T11:32:45.000Z</time>
      </trkpt>
      <trkpt lat="42.98574618995189666748046875" lon="-4.7576153464615345001220703125">
        <ele>1626.5999755859375</ele>
        <time>2021-07-22T11:32:47.000Z</time>
      </trkpt>
      <trkpt lat="42.9856816492974758148193359375" lon="-4.75760453380644321441650390625">
        <ele>1625.800048828125</ele>
        <time>2021-07-22T11:32:49.000Z</time>
      </trkpt>
      <trkpt lat="42.98565122298896312713623046875" lon="-4.7575999237596988677978515625">
        <ele>1625</ele>
        <time>2021-07-22T11:32:50.000Z</time>
      </trkpt>
      <trkpt lat="42.9855948127806186676025390625" lon="-4.7575959004461765289306640625">
        <ele>1623.800048828125</ele>
        <time>2021-07-22T11:32:52.000Z</time>
      </trkpt>
      <trkpt lat="42.985516525804996490478515625" lon="-4.75759581662714481353759765625">
        <ele>1623.4000244140625</ele>
        <time>2021-07-22T11:32:55.000Z</time>
      </trkpt>
      <trkpt lat="42.98541988246142864227294921875" lon="-4.75755558349192142486572265625">
        <ele>1622</ele>
        <time>2021-07-22T11:32:59.000Z</time>
      </trkpt>
      <trkpt lat="42.98539574258029460906982421875" lon="-4.75755424238741397857666015625">
        <ele>1621.5999755859375</ele>
        <time>2021-07-22T11:33:00.000Z</time>
      </trkpt>
      <trkpt lat="42.985346876084804534912109375" lon="-4.7575556673109531402587890625">
        <ele>1621</ele>
        <time>2021-07-22T11:33:02.000Z</time>
      </trkpt>
      <trkpt lat="42.98528057523071765899658203125" lon="-4.75755809806287288665771484375">
        <ele>1620</ele>
        <time>2021-07-22T11:33:05.000Z</time>
      </trkpt>
      <trkpt lat="42.9852568544447422027587890625" lon="-4.7575613670051097869873046875">
        <ele>1619.800048828125</ele>
        <time>2021-07-22T11:33:06.000Z</time>
      </trkpt>
      <trkpt lat="42.9852142743766307830810546875" lon="-4.7575653903186321258544921875">
        <ele>1618.5999755859375</ele>
        <time>2021-07-22T11:33:08.000Z</time>
      </trkpt>
      <trkpt lat="42.9851391725242137908935546875" lon="-4.75756363011896610260009765625">
        <ele>1617.800048828125</ele>
        <time>2021-07-22T11:33:11.000Z</time>
      </trkpt>
      <trkpt lat="42.985091395676136016845703125" lon="-4.75758139975368976593017578125">
        <ele>1617.199951171875</ele>
        <time>2021-07-22T11:33:13.000Z</time>
      </trkpt>
      <trkpt lat="42.9850459657609462738037109375" lon="-4.75760377943515777587890625">
        <ele>1616</ele>
        <time>2021-07-22T11:33:15.000Z</time>
      </trkpt>
      <trkpt lat="42.9850245080888271331787109375" lon="-4.7576197050511837005615234375">
        <ele>1615</ele>
        <time>2021-07-22T11:33:16.000Z</time>
      </trkpt>
      <trkpt lat="42.9850037209689617156982421875" lon="-4.7576217167079448699951171875">
        <ele>1614.199951171875</ele>
        <time>2021-07-22T11:33:17.000Z</time>
      </trkpt>
      <trkpt lat="42.9849601350724697113037109375" lon="-4.7575999237596988677978515625">
        <ele>1613</ele>
        <time>2021-07-22T11:33:19.000Z</time>
      </trkpt>
      <trkpt lat="42.9849088378250598907470703125" lon="-4.7575965709984302520751953125">
        <ele>1612.4000244140625</ele>
        <time>2021-07-22T11:33:21.000Z</time>
      </trkpt>
      <trkpt lat="42.98488662578165531158447265625" lon="-4.7575964033603668212890625">
        <ele>1612</ele>
        <time>2021-07-22T11:33:22.000Z</time>
      </trkpt>
      <trkpt lat="42.98480180092155933380126953125" lon="-4.75760704837739467620849609375">
        <ele>1610</ele>
        <time>2021-07-22T11:33:26.000Z</time>
      </trkpt>
      <trkpt lat="42.9847603105008602142333984375" lon="-4.7576119937002658843994140625">
        <ele>1608.4000244140625</ele>
        <time>2021-07-22T11:33:28.000Z</time>
      </trkpt>
      <trkpt lat="42.98471379093825817108154296875" lon="-4.75762984715402126312255859375">
        <ele>1607.800048828125</ele>
        <time>2021-07-22T11:33:30.000Z</time>
      </trkpt>
      <trkpt lat="42.98469350673258304595947265625" lon="-4.7576473653316497802734375">
        <ele>1607.199951171875</ele>
        <time>2021-07-22T11:33:31.000Z</time>
      </trkpt>
      <trkpt lat="42.984628714621067047119140625" lon="-4.75767930038273334503173828125">
        <ele>1606</ele>
        <time>2021-07-22T11:33:34.000Z</time>
      </trkpt>
      <trkpt lat="42.9846064187586307525634765625" lon="-4.75769723765552043914794921875">
        <ele>1605.800048828125</ele>
        <time>2021-07-22T11:33:35.000Z</time>
      </trkpt>
      <trkpt lat="42.9845876432955265045166015625" lon="-4.7577162645757198333740234375">
        <ele>1605</ele>
        <time>2021-07-22T11:33:36.000Z</time>
      </trkpt>
      <trkpt lat="42.9845487512648105621337890625" lon="-4.757726155221462249755859375">
        <ele>1603.5999755859375</ele>
        <time>2021-07-22T11:33:38.000Z</time>
      </trkpt>
      <trkpt lat="42.98448429442942142486572265625" lon="-4.757740236818790435791015625">
        <ele>1601.5999755859375</ele>
        <time>2021-07-22T11:33:41.000Z</time>
      </trkpt>
      <trkpt lat="42.98444741405546665191650390625" lon="-4.75773830898106098175048828125">
        <ele>1600.199951171875</ele>
        <time>2021-07-22T11:33:43.000Z</time>
      </trkpt>
      <trkpt lat="42.9843884892761707305908203125" lon="-4.75774769671261310577392578125">
        <ele>1598.5999755859375</ele>
        <time>2021-07-22T11:33:46.000Z</time>
      </trkpt>
      <trkpt lat="42.984326295554637908935546875" lon="-4.757784493267536163330078125">
        <ele>1597.199951171875</ele>
        <time>2021-07-22T11:33:49.000Z</time>
      </trkpt>
      <trkpt lat="42.9842778481543064117431640625" lon="-4.75779689848423004150390625">
        <ele>1596.199951171875</ele>
        <time>2021-07-22T11:33:51.000Z</time>
      </trkpt>
      <trkpt lat="42.984199561178684234619140625" lon="-4.75783939473330974578857421875">
        <ele>1595</ele>
        <time>2021-07-22T11:33:55.000Z</time>
      </trkpt>
      <trkpt lat="42.984148599207401275634765625" lon="-4.7578807175159454345703125">
        <ele>1593.199951171875</ele>
        <time>2021-07-22T11:33:58.000Z</time>
      </trkpt>
      <trkpt lat="42.98411632888019084930419921875" lon="-4.7579103894531726837158203125">
        <ele>1592.5999755859375</ele>
        <time>2021-07-22T11:34:00.000Z</time>
      </trkpt>
      <trkpt lat="42.98409788869321346282958984375" lon="-4.7579154185950756072998046875">
        <ele>1592.199951171875</ele>
        <time>2021-07-22T11:34:01.000Z</time>
      </trkpt>
      <trkpt lat="42.98404139466583728790283203125" lon="-4.75793100893497467041015625">
        <ele>1590.5999755859375</ele>
        <time>2021-07-22T11:34:04.000Z</time>
      </trkpt>
      <trkpt lat="42.98400535248219966888427734375" lon="-4.757947437465190887451171875">
        <ele>1589.4000244140625</ele>
        <time>2021-07-22T11:34:06.000Z</time>
      </trkpt>
      <trkpt lat="42.98395170830190181732177734375" lon="-4.75799001753330230712890625">
        <ele>1587.5999755859375</ele>
        <time>2021-07-22T11:34:09.000Z</time>
      </trkpt>
      <trkpt lat="42.98391382209956645965576171875" lon="-4.75804357789456844329833984375">
        <ele>1586.5999755859375</ele>
        <time>2021-07-22T11:34:12.000Z</time>
      </trkpt>
      <trkpt lat="42.98388415016233921051025390625" lon="-4.7580911032855510711669921875">
        <ele>1586.199951171875</ele>
        <time>2021-07-22T11:34:14.000Z</time>
      </trkpt>
      <trkpt lat="42.9838533885776996612548828125" lon="-4.758133180439472198486328125">
        <ele>1584.5999755859375</ele>
        <time>2021-07-22T11:34:16.000Z</time>
      </trkpt>
      <trkpt lat="42.98381944186985492706298828125" lon="-4.758159331977367401123046875">
        <ele>1583.4000244140625</ele>
        <time>2021-07-22T11:34:18.000Z</time>
      </trkpt>
      <trkpt lat="42.98380183987319469451904296875" lon="-4.75816109217703342437744140625">
        <ele>1583</ele>
        <time>2021-07-22T11:34:19.000Z</time>
      </trkpt>
      <trkpt lat="42.9837819747626781463623046875" lon="-4.75817282684147357940673828125">
        <ele>1582.199951171875</ele>
        <time>2021-07-22T11:34:20.000Z</time>
      </trkpt>
      <trkpt lat="42.983721792697906494140625" lon="-4.7582057677209377288818359375">
        <ele>1580.800048828125</ele>
        <time>2021-07-22T11:34:23.000Z</time>
      </trkpt>
      <trkpt lat="42.98365540802478790283203125" lon="-4.7582366131246089935302734375">
        <ele>1579.800048828125</ele>
        <time>2021-07-22T11:34:26.000Z</time>
      </trkpt>
      <trkpt lat="42.9836158454418182373046875" lon="-4.7582709789276123046875">
        <ele>1578.4000244140625</ele>
        <time>2021-07-22T11:34:28.000Z</time>
      </trkpt>
      <trkpt lat="42.9835791327059268951416015625" lon="-4.75833208300173282623291015625">
        <ele>1577.199951171875</ele>
        <time>2021-07-22T11:34:30.000Z</time>
      </trkpt>
      <trkpt lat="42.98355993814766407012939453125" lon="-4.75836561061441898345947265625">
        <ele>1576.4000244140625</ele>
        <time>2021-07-22T11:34:31.000Z</time>
      </trkpt>
      <trkpt lat="42.9835392348468303680419921875" lon="-4.75839159451425075531005859375">
        <ele>1576</ele>
        <time>2021-07-22T11:34:32.000Z</time>
      </trkpt>
      <trkpt lat="42.98345960676670074462890625" lon="-4.7584760002791881561279296875">
        <ele>1575.199951171875</ele>
        <time>2021-07-22T11:34:36.000Z</time>
      </trkpt>
      <trkpt lat="42.9834446869790554046630859375" lon="-4.75850005634129047393798828125">
        <ele>1574.4000244140625</ele>
        <time>2021-07-22T11:34:37.000Z</time>
      </trkpt>
      <trkpt lat="42.9834182001650333404541015625" lon="-4.75854766555130481719970703125">
        <ele>1573.199951171875</ele>
        <time>2021-07-22T11:34:39.000Z</time>
      </trkpt>
      <trkpt lat="42.98339246772229671478271484375" lon="-4.7585953585803508758544921875">
        <ele>1572.800048828125</ele>
        <time>2021-07-22T11:34:41.000Z</time>
      </trkpt>
      <trkpt lat="42.98336480744183063507080078125" lon="-4.75863969884812831878662109375">
        <ele>1572.199951171875</ele>
        <time>2021-07-22T11:34:43.000Z</time>
      </trkpt>
      <trkpt lat="42.9832968302071094512939453125" lon="-4.75874966941773891448974609375">
        <ele>1571</ele>
        <time>2021-07-22T11:34:47.000Z</time>
      </trkpt>
      <trkpt lat="42.98322784714400768280029296875" lon="-4.758852683007717132568359375">
        <ele>1569.800048828125</ele>
        <time>2021-07-22T11:34:51.000Z</time>
      </trkpt>
      <trkpt lat="42.98316079191863536834716796875" lon="-4.75892216898500919342041015625">
        <ele>1568.5999755859375</ele>
        <time>2021-07-22T11:34:55.000Z</time>
      </trkpt>
      <trkpt lat="42.98313966952264308929443359375" lon="-4.7589185647666454315185546875">
        <ele>1568.199951171875</ele>
        <time>2021-07-22T11:34:56.000Z</time>
      </trkpt>
      <trkpt lat="42.9830862767994403839111328125" lon="-4.7588411159813404083251953125">
        <ele>1567.199951171875</ele>
        <time>2021-07-22T11:34:59.000Z</time>
      </trkpt>
      <trkpt lat="42.98306842334568500518798828125" lon="-4.75880230776965618133544921875">
        <ele>1566.4000244140625</ele>
        <time>2021-07-22T11:35:00.000Z</time>
      </trkpt>
      <trkpt lat="42.9830507375299930572509765625" lon="-4.758779592812061309814453125">
        <ele>1566</ele>
        <time>2021-07-22T11:35:01.000Z</time>
      </trkpt>
      <trkpt lat="42.98302240669727325439453125" lon="-4.75873743183910846710205078125">
        <ele>1564.800048828125</ele>
        <time>2021-07-22T11:35:03.000Z</time>
      </trkpt>
      <trkpt lat="42.98298393376171588897705078125" lon="-4.7586650960147380828857421875">
        <ele>1563.5999755859375</ele>
        <time>2021-07-22T11:35:06.000Z</time>
      </trkpt>
      <trkpt lat="42.98287379555404186248779296875" lon="-4.7586429677903652191162109375">
        <ele>1562</ele>
        <time>2021-07-22T11:35:11.000Z</time>
      </trkpt>
      <trkpt lat="42.98282685689628124237060546875" lon="-4.75867222063243389129638671875">
        <ele>1560.800048828125</ele>
        <time>2021-07-22T11:35:13.000Z</time>
      </trkpt>
      <trkpt lat="42.98276768065989017486572265625" lon="-4.75871597416698932647705078125">
        <ele>1559.5999755859375</ele>
        <time>2021-07-22T11:35:16.000Z</time>
      </trkpt>
      <trkpt lat="42.98266877420246601104736328125" lon="-4.7587847895920276641845703125">
        <ele>1559</ele>
        <time>2021-07-22T11:35:21.000Z</time>
      </trkpt>
      <trkpt lat="42.98263172619044780731201171875" lon="-4.75881119258701801300048828125">
        <ele>1558.5999755859375</ele>
        <time>2021-07-22T11:35:23.000Z</time>
      </trkpt>
      <trkpt lat="42.9825602285563945770263671875" lon="-4.75883918814361095428466796875">
        <ele>1558.4000244140625</ele>
        <time>2021-07-22T11:35:26.000Z</time>
      </trkpt>
      <trkpt lat="42.982488311827182769775390625" lon="-4.75887003354728221893310546875">
        <ele>1557.199951171875</ele>
        <time>2021-07-22T11:35:29.000Z</time>
      </trkpt>
      <trkpt lat="42.9824375174939632415771484375" lon="-4.75889920257031917572021484375">
        <ele>1555.5999755859375</ele>
        <time>2021-07-22T11:35:31.000Z</time>
      </trkpt>
      <trkpt lat="42.9824187420308589935302734375" lon="-4.7589118592441082000732421875">
        <ele>1553.5999755859375</ele>
        <time>2021-07-22T11:35:33.000Z</time>
      </trkpt>
      <trkpt lat="42.98241966404020786285400390625" lon="-4.758861400187015533447265625">
        <ele>1552.199951171875</ele>
        <time>2021-07-22T11:35:35.000Z</time>
      </trkpt>
      <trkpt lat="42.9824115335941314697265625" lon="-4.75880297832190990447998046875">
        <ele>1551.4000244140625</ele>
        <time>2021-07-22T11:35:37.000Z</time>
      </trkpt>
      <trkpt lat="42.98240323550999164581298828125" lon="-4.75876978598535060882568359375">
        <ele>1551.199951171875</ele>
        <time>2021-07-22T11:35:38.000Z</time>
      </trkpt>
      <trkpt lat="42.9823992960155010223388671875" lon="-4.75872770883142948150634765625">
        <ele>1550.199951171875</ele>
        <time>2021-07-22T11:35:39.000Z</time>
      </trkpt>
      <trkpt lat="42.9823999665677547454833984375" lon="-4.758695103228092193603515625">
        <ele>1549.800048828125</ele>
        <time>2021-07-22T11:35:40.000Z</time>
      </trkpt>
      <trkpt lat="42.9824013076722621917724609375" lon="-4.75865713320672512054443359375">
        <ele>1549.5999755859375</ele>
        <time>2021-07-22T11:35:41.000Z</time>
      </trkpt>
      <trkpt lat="42.98239703290164470672607421875" lon="-4.758591838181018829345703125">
        <ele>1548.800048828125</ele>
        <time>2021-07-22T11:35:43.000Z</time>
      </trkpt>
      <trkpt lat="42.9823878966271877288818359375" lon="-4.75854967720806598663330078125">
        <ele>1547.5999755859375</ele>
        <time>2021-07-22T11:35:45.000Z</time>
      </trkpt>
      <trkpt lat="42.98238479532301425933837890625" lon="-4.75853559561073780059814453125">
        <ele>1547</ele>
        <time>2021-07-22T11:35:46.000Z</time>
      </trkpt>
      <trkpt lat="42.9823785088956356048583984375" lon="-4.75852377712726593017578125">
        <ele>1546.5999755859375</ele>
        <time>2021-07-22T11:35:47.000Z</time>
      </trkpt>
      <trkpt lat="42.98236719332635402679443359375" lon="-4.7585075162351131439208984375">
        <ele>1546</ele>
        <time>2021-07-22T11:35:50.000Z</time>
      </trkpt>
      <trkpt lat="42.9823637567460536956787109375" lon="-4.758490584790706634521484375">
        <ele>1545.4000244140625</ele>
        <time>2021-07-22T11:35:52.000Z</time>
      </trkpt>
      <trkpt lat="42.982369624078273773193359375" lon="-4.7584971226751804351806640625">
        <ele>1545</ele>
        <time>2021-07-22T11:35:56.000Z</time>
      </trkpt>
      <trkpt lat="42.98237054608762264251708984375" lon="-4.75850374437868595123291015625">
        <ele>1545</ele>
        <time>2021-07-22T11:35:57.000Z</time>
      </trkpt>
      <trkpt lat="42.9823738150298595428466796875" lon="-4.75853182375431060791015625">
        <ele>1545.199951171875</ele>
        <time>2021-07-22T11:36:01.000Z</time>
      </trkpt>
      <trkpt lat="42.98236903734505176544189453125" lon="-4.75851246155798435211181640625">
        <ele>1545.4000244140625</ele>
        <time>2021-07-22T11:36:02.000Z</time>
      </trkpt>
      <trkpt lat="42.9823355935513973236083984375" lon="-4.75843970663845539093017578125">
        <ele>1545.199951171875</ele>
        <time>2021-07-22T11:36:06.000Z</time>
      </trkpt>
      <trkpt lat="42.98231069929897785186767578125" lon="-4.7584171593189239501953125">
        <ele>1545</ele>
        <time>2021-07-22T11:36:08.000Z</time>
      </trkpt>
      <trkpt lat="42.98228907398879528045654296875" lon="-4.7583834640681743621826171875">
        <ele>1544.800048828125</ele>
        <time>2021-07-22T11:36:10.000Z</time>
      </trkpt>
      <trkpt lat="42.98220206983387470245361328125" lon="-4.75827709771692752838134765625">
        <ele>1545.4000244140625</ele>
        <time>2021-07-22T11:36:15.000Z</time>
      </trkpt>
      <trkpt lat="42.98210333101451396942138671875" lon="-4.7581668756902217864990234375">
        <ele>1546.5999755859375</ele>
        <time>2021-07-22T11:36:20.000Z</time>
      </trkpt>
      <trkpt lat="42.9820816218852996826171875" lon="-4.7581420652568340301513671875">
        <ele>1546.5999755859375</ele>
        <time>2021-07-22T11:36:21.000Z</time>
      </trkpt>
      <trkpt lat="42.98203778453171253204345703125" lon="-4.7580518759787082672119140625">
        <ele>1547.5999755859375</ele>
        <time>2021-07-22T11:36:24.000Z</time>
      </trkpt>
      <trkpt lat="42.98202856443822383880615234375" lon="-4.75801549851894378662109375">
        <ele>1548.199951171875</ele>
        <time>2021-07-22T11:36:25.000Z</time>
      </trkpt>
      <trkpt lat="42.982017584145069122314453125" lon="-4.757982306182384490966796875">
        <ele>1548.4000244140625</ele>
        <time>2021-07-22T11:36:26.000Z</time>
      </trkpt>
      <trkpt lat="42.9819962941110134124755859375" lon="-4.75791298784315586090087890625">
        <ele>1549.199951171875</ele>
        <time>2021-07-22T11:36:28.000Z</time>
      </trkpt>
      <trkpt lat="42.98196050338447093963623046875" lon="-4.75781056098639965057373046875">
        <ele>1549</ele>
        <time>2021-07-22T11:36:31.000Z</time>
      </trkpt>
      <trkpt lat="42.98190635628998279571533203125" lon="-4.757629930973052978515625">
        <ele>1548.199951171875</ele>
        <time>2021-07-22T11:36:36.000Z</time>
      </trkpt>
      <trkpt lat="42.98186101019382476806640625" lon="-4.75754133425652980804443359375">
        <ele>1547</ele>
        <time>2021-07-22T11:36:39.000Z</time>
      </trkpt>
      <trkpt lat="42.9817833937704563140869140625" lon="-4.75741292349994182586669921875">
        <ele>1546</ele>
        <time>2021-07-22T11:36:43.000Z</time>
      </trkpt>
      <trkpt lat="42.9817673005163669586181640625" lon="-4.7573809884488582611083984375">
        <ele>1545.800048828125</ele>
        <time>2021-07-22T11:36:44.000Z</time>
      </trkpt>
      <trkpt lat="42.98169873654842376708984375" lon="-4.75726339034736156463623046875">
        <ele>1545</ele>
        <time>2021-07-22T11:36:48.000Z</time>
      </trkpt>
      <trkpt lat="42.98165657557547092437744140625" lon="-4.7572126798331737518310546875">
        <ele>1544.4000244140625</ele>
        <time>2021-07-22T11:36:50.000Z</time>
      </trkpt>
      <trkpt lat="42.98158616758882999420166015625" lon="-4.75708485580980777740478515625">
        <ele>1543.5999755859375</ele>
        <time>2021-07-22T11:36:54.000Z</time>
      </trkpt>
      <trkpt lat="42.9815399833023548126220703125" lon="-4.756991900503635406494140625">
        <ele>1543.4000244140625</ele>
        <time>2021-07-22T11:36:57.000Z</time>
      </trkpt>
      <trkpt lat="42.9815084673464298248291015625" lon="-4.7569357417523860931396484375">
        <ele>1542.4000244140625</ele>
        <time>2021-07-22T11:36:59.000Z</time>
      </trkpt>
      <trkpt lat="42.9814942181110382080078125" lon="-4.75690263323485851287841796875">
        <ele>1542.199951171875</ele>
        <time>2021-07-22T11:37:00.000Z</time>
      </trkpt>
      <trkpt lat="42.981433533132076263427734375" lon="-4.75677271373569965362548828125">
        <ele>1541.4000244140625</ele>
        <time>2021-07-22T11:37:04.000Z</time>
      </trkpt>
      <trkpt lat="42.98135348595678806304931640625" lon="-4.75670599378645420074462890625">
        <ele>1540.5999755859375</ele>
        <time>2021-07-22T11:37:07.000Z</time>
      </trkpt>
      <trkpt lat="42.981304116547107696533203125" lon="-4.756668023765087127685546875">
        <ele>1539.4000244140625</ele>
        <time>2021-07-22T11:37:09.000Z</time>
      </trkpt>
      <trkpt lat="42.9812528192996978759765625" lon="-4.75662033073604106903076171875">
        <ele>1538.4000244140625</ele>
        <time>2021-07-22T11:37:11.000Z</time>
      </trkpt>
      <trkpt lat="42.98121987842023372650146484375" lon="-4.75655109621584415435791015625">
        <ele>1536.800048828125</ele>
        <time>2021-07-22T11:37:13.000Z</time>
      </trkpt>
      <trkpt lat="42.9811919666826725006103515625" lon="-4.756476581096649169921875">
        <ele>1535.4000244140625</ele>
        <time>2021-07-22T11:37:15.000Z</time>
      </trkpt>
      <trkpt lat="42.9811208881437778472900390625" lon="-4.7563148103654384613037109375">
        <ele>1534</ele>
        <time>2021-07-22T11:37:20.000Z</time>
      </trkpt>
      <trkpt lat="42.981106303632259368896484375" lon="-4.75628077983856201171875">
        <ele>1533.5999755859375</ele>
        <time>2021-07-22T11:37:21.000Z</time>
      </trkpt>
      <trkpt lat="42.9810773022472858428955078125" lon="-4.75621447898447513580322265625">
        <ele>1533</ele>
        <time>2021-07-22T11:37:23.000Z</time>
      </trkpt>
      <trkpt lat="42.9810303635895252227783203125" lon="-4.75610199384391307830810546875">
        <ele>1532.199951171875</ele>
        <time>2021-07-22T11:37:26.000Z</time>
      </trkpt>
      <trkpt lat="42.9810042120516300201416015625" lon="-4.75604130886495113372802734375">
        <ele>1531.800048828125</ele>
        <time>2021-07-22T11:37:28.000Z</time>
      </trkpt>
      <trkpt lat="42.98096381127834320068359375" lon="-4.7559924423694610595703125">
        <ele>1530.4000244140625</ele>
        <time>2021-07-22T11:37:30.000Z</time>
      </trkpt>
      <trkpt lat="42.98092517070472240447998046875" lon="-4.7559299133718013763427734375">
        <ele>1530</ele>
        <time>2021-07-22T11:37:32.000Z</time>
      </trkpt>
      <trkpt lat="42.98085778020322322845458984375" lon="-4.75580879487097263336181640625">
        <ele>1529.5999755859375</ele>
        <time>2021-07-22T11:37:36.000Z</time>
      </trkpt>
      <trkpt lat="42.98083548434078693389892578125" lon="-4.75577325560152530670166015625">
        <ele>1529</ele>
        <time>2021-07-22T11:37:37.000Z</time>
      </trkpt>
      <trkpt lat="42.9808167926967144012451171875" lon="-4.75574643351137638092041015625">
        <ele>1528</ele>
        <time>2021-07-22T11:37:38.000Z</time>
      </trkpt>
      <trkpt lat="42.9808022081851959228515625" lon="-4.7557160072028636932373046875">
        <ele>1526.800048828125</ele>
        <time>2021-07-22T11:37:39.000Z</time>
      </trkpt>
      <trkpt lat="42.98077915795147418975830078125" lon="-4.75569345988333225250244140625">
        <ele>1526.199951171875</ele>
        <time>2021-07-22T11:37:40.000Z</time>
      </trkpt>
      <trkpt lat="42.98074713908135890960693359375" lon="-4.75564333610236644744873046875">
        <ele>1525.4000244140625</ele>
        <time>2021-07-22T11:37:42.000Z</time>
      </trkpt>
      <trkpt lat="42.9807110130786895751953125" lon="-4.75560360588133335113525390625">
        <ele>1525</ele>
        <time>2021-07-22T11:37:44.000Z</time>
      </trkpt>
      <trkpt lat="42.9806575365364551544189453125" lon="-4.75556538440287113189697265625">
        <ele>1524.199951171875</ele>
        <time>2021-07-22T11:37:46.000Z</time>
      </trkpt>
      <trkpt lat="42.9806015454232692718505859375" lon="-4.755526073276996612548828125">
        <ele>1523.4000244140625</ele>
        <time>2021-07-22T11:37:48.000Z</time>
      </trkpt>
      <trkpt lat="42.9805755615234375" lon="-4.7555138356983661651611328125">
        <ele>1523</ele>
        <time>2021-07-22T11:37:49.000Z</time>
      </trkpt>
      <trkpt lat="42.98048780299723148345947265625" lon="-4.75548676215112209320068359375">
        <ele>1521.800048828125</ele>
        <time>2021-07-22T11:37:52.000Z</time>
      </trkpt>
      <trkpt lat="42.98040532507002353668212890625" lon="-4.75547133944928646087646484375">
        <ele>1520.4000244140625</ele>
        <time>2021-07-22T11:37:55.000Z</time>
      </trkpt>
      <trkpt lat="42.98037800006568431854248046875" lon="-4.75546631030738353729248046875">
        <ele>1520.199951171875</ele>
        <time>2021-07-22T11:37:56.000Z</time>
      </trkpt>
      <trkpt lat="42.98032368533313274383544921875" lon="-4.7554640471935272216796875">
        <ele>1519.4000244140625</ele>
        <time>2021-07-22T11:37:58.000Z</time>
      </trkpt>
      <trkpt lat="42.98024154268205165863037109375" lon="-4.75545323453843593597412109375">
        <ele>1518</ele>
        <time>2021-07-22T11:38:01.000Z</time>
      </trkpt>
      <trkpt lat="42.98018706031143665313720703125" lon="-4.75544502027332782745361328125">
        <ele>1517</ele>
        <time>2021-07-22T11:38:03.000Z</time>
      </trkpt>
      <trkpt lat="42.980080358684062957763671875" lon="-4.75547008216381072998046875">
        <ele>1516.199951171875</ele>
        <time>2021-07-22T11:38:07.000Z</time>
      </trkpt>
      <trkpt lat="42.98005722463130950927734375" lon="-4.7554846666753292083740234375">
        <ele>1515.5999755859375</ele>
        <time>2021-07-22T11:38:08.000Z</time>
      </trkpt>
      <trkpt lat="42.979981787502765655517578125" lon="-4.7555148415267467498779296875">
        <ele>1515</ele>
        <time>2021-07-22T11:38:11.000Z</time>
      </trkpt>
      <trkpt lat="42.97992537729442119598388671875" lon="-4.7555252350866794586181640625">
        <ele>1514.199951171875</ele>
        <time>2021-07-22T11:38:13.000Z</time>
      </trkpt>
      <trkpt lat="42.97988061793148517608642578125" lon="-4.75554191507399082183837890625">
        <ele>1512.5999755859375</ele>
        <time>2021-07-22T11:38:15.000Z</time>
      </trkpt>
      <trkpt lat="42.979844994843006134033203125" lon="-4.7555396519601345062255859375">
        <ele>1511.199951171875</ele>
        <time>2021-07-22T11:38:17.000Z</time>
      </trkpt>
      <trkpt lat="42.97977165319025516510009765625" lon="-4.75554786622524261474609375">
        <ele>1510.199951171875</ele>
        <time>2021-07-22T11:38:20.000Z</time>
      </trkpt>
      <trkpt lat="42.9797432385385036468505859375" lon="-4.75555180571973323822021484375">
        <ele>1510</ele>
        <time>2021-07-22T11:38:21.000Z</time>
      </trkpt>
      <trkpt lat="42.9796232096850872039794921875" lon="-4.75558407604694366455078125">
        <ele>1509.5999755859375</ele>
        <time>2021-07-22T11:38:26.000Z</time>
      </trkpt>
      <trkpt lat="42.97960720025002956390380859375" lon="-4.75558550097048282623291015625">
        <ele>1509</ele>
        <time>2021-07-22T11:38:28.000Z</time>
      </trkpt>
      <trkpt lat="42.9795759357511997222900390625" lon="-4.7555993311107158660888671875">
        <ele>1508.4000244140625</ele>
        <time>2021-07-22T11:38:31.000Z</time>
      </trkpt>
      <trkpt lat="42.97954022884368896484375" lon="-4.7556171007454395294189453125">
        <ele>1507.800048828125</ele>
        <time>2021-07-22T11:38:34.000Z</time>
      </trkpt>
      <trkpt lat="42.97947308979928493499755859375" lon="-4.7556295059621334075927734375">
        <ele>1507.5999755859375</ele>
        <time>2021-07-22T11:38:37.000Z</time>
      </trkpt>
      <trkpt lat="42.97935490496456623077392578125" lon="-4.755662195384502410888671875">
        <ele>1507</ele>
        <time>2021-07-22T11:38:42.000Z</time>
      </trkpt>
      <trkpt lat="42.9793137498199939727783203125" lon="-4.755678288638591766357421875">
        <ele>1507.4000244140625</ele>
        <time>2021-07-22T11:38:46.000Z</time>
      </trkpt>
      <trkpt lat="42.97930344007909297943115234375" lon="-4.755678288638591766357421875">
        <ele>1507.5999755859375</ele>
        <time>2021-07-22T11:38:47.000Z</time>
      </trkpt>
      <trkpt lat="42.979268319904804229736328125" lon="-4.75566680543124675750732421875">
        <ele>1508.5999755859375</ele>
        <time>2021-07-22T11:38:51.000Z</time>
      </trkpt>
      <trkpt lat="42.979217357933521270751953125" lon="-4.7556580044329166412353515625">
        <ele>1508.5999755859375</ele>
        <time>2021-07-22T11:38:55.000Z</time>
      </trkpt>
      <trkpt lat="42.97918148338794708251953125" lon="-4.755666889250278472900390625">
        <ele>1508.4000244140625</ele>
        <time>2021-07-22T11:38:57.000Z</time>
      </trkpt>
      <trkpt lat="42.9790834151208400726318359375" lon="-4.7556895203888416290283203125">
        <ele>1507</ele>
        <time>2021-07-22T11:39:02.000Z</time>
      </trkpt>
      <trkpt lat="42.97908115200698375701904296875" lon="-4.75565708242356777191162109375">
        <ele>1506.800048828125</ele>
        <time>2021-07-22T11:39:05.000Z</time>
      </trkpt>
      <trkpt lat="42.979075200855731964111328125" lon="-4.75565339438617229461669921875">
        <ele>1506.800048828125</ele>
        <time>2021-07-22T11:39:06.000Z</time>
      </trkpt>
      <trkpt lat="42.9790532402694225311279296875" lon="-4.75565440021455287933349609375">
        <ele>1506.800048828125</ele>
        <time>2021-07-22T11:39:08.000Z</time>
      </trkpt>
      <trkpt lat="42.97902013175189495086669921875" lon="-4.75566848181188106536865234375">
        <ele>1506.800048828125</ele>
        <time>2021-07-22T11:39:10.000Z</time>
      </trkpt>
      <trkpt lat="42.97900445759296417236328125" lon="-4.75567652843892574310302734375">
        <ele>1506.4000244140625</ele>
        <time>2021-07-22T11:39:11.000Z</time>
      </trkpt>
      <trkpt lat="42.97898434102535247802734375" lon="-4.75568926893174648284912109375">
        <ele>1505.5999755859375</ele>
        <time>2021-07-22T11:39:12.000Z</time>
      </trkpt>
      <trkpt lat="42.978920638561248779296875" lon="-4.75570209324359893798828125">
        <ele>1504.4000244140625</ele>
        <time>2021-07-22T11:39:15.000Z</time>
      </trkpt>
      <trkpt lat="42.97889758832752704620361328125" lon="-4.75570502690970897674560546875">
        <ele>1504</ele>
        <time>2021-07-22T11:39:16.000Z</time>
      </trkpt>
      <trkpt lat="42.97883539460599422454833984375" lon="-4.7556982375681400299072265625">
        <ele>1502.5999755859375</ele>
        <time>2021-07-22T11:39:19.000Z</time>
      </trkpt>
      <trkpt lat="42.97879851423203945159912109375" lon="-4.7556885145604610443115234375">
        <ele>1502.5999755859375</ele>
        <time>2021-07-22T11:39:21.000Z</time>
      </trkpt>
      <trkpt lat="42.978762723505496978759765625" lon="-4.755716510117053985595703125">
        <ele>1501.800048828125</ele>
        <time>2021-07-22T11:39:23.000Z</time>
      </trkpt>
      <trkpt lat="42.9787424392998218536376953125" lon="-4.75572288036346435546875">
        <ele>1501.199951171875</ele>
        <time>2021-07-22T11:39:24.000Z</time>
      </trkpt>
      <trkpt lat="42.97871486283838748931884765625" lon="-4.7557322680950164794921875">
        <ele>1501</ele>
        <time>2021-07-22T11:39:25.000Z</time>
      </trkpt>
      <trkpt lat="42.97864160500466823577880859375" lon="-4.75574224255979061126708984375">
        <ele>1499.5999755859375</ele>
        <time>2021-07-22T11:39:28.000Z</time>
      </trkpt>
      <trkpt lat="42.9785979352891445159912109375" lon="-4.7557538934051990509033203125">
        <ele>1497.800048828125</ele>
        <time>2021-07-22T11:39:30.000Z</time>
      </trkpt>
      <trkpt lat="42.97857706435024738311767578125" lon="-4.7557572461664676666259765625">
        <ele>1497</ele>
        <time>2021-07-22T11:39:31.000Z</time>
      </trkpt>
      <trkpt lat="42.978561557829380035400390625" lon="-4.7557642869651317596435546875">
        <ele>1496.4000244140625</ele>
        <time>2021-07-22T11:39:32.000Z</time>
      </trkpt>
      <trkpt lat="42.9785295389592647552490234375" lon="-4.75580762140452861785888671875">
        <ele>1496</ele>
        <time>2021-07-22T11:39:34.000Z</time>
      </trkpt>
      <trkpt lat="42.97850548289716243743896484375" lon="-4.7558149136602878570556640625">
        <ele>1495.4000244140625</ele>
        <time>2021-07-22T11:39:35.000Z</time>
      </trkpt>
      <trkpt lat="42.97848410904407501220703125" lon="-4.75582354702055454254150390625">
        <ele>1495</ele>
        <time>2021-07-22T11:39:36.000Z</time>
      </trkpt>
      <trkpt lat="42.97846801578998565673828125" lon="-4.7558735869824886322021484375">
        <ele>1494.4000244140625</ele>
        <time>2021-07-22T11:39:38.000Z</time>
      </trkpt>
      <trkpt lat="42.97847866080701351165771484375" lon="-4.7558994032442569732666015625">
        <ele>1494.199951171875</ele>
        <time>2021-07-22T11:39:40.000Z</time>
      </trkpt>
      <trkpt lat="42.97850112430751323699951171875" lon="-4.75592832081019878387451171875">
        <ele>1494.199951171875</ele>
        <time>2021-07-22T11:39:42.000Z</time>
      </trkpt>
      <trkpt lat="42.97852509655058383941650390625" lon="-4.755953885614871978759765625">
        <ele>1493.800048828125</ele>
        <time>2021-07-22T11:39:44.000Z</time>
      </trkpt>
      <trkpt lat="42.97851654700934886932373046875" lon="-4.75601817481219768524169921875">
        <ele>1493.4000244140625</ele>
        <time>2021-07-22T11:39:47.000Z</time>
      </trkpt>
      <trkpt lat="42.9785127751529216766357421875" lon="-4.75605480372905731201171875">
        <ele>1493</ele>
        <time>2021-07-22T11:39:48.000Z</time>
      </trkpt>
      <trkpt lat="42.978513278067111968994140625" lon="-4.75611783564090728759765625">
        <ele>1491.800048828125</ele>
        <time>2021-07-22T11:39:50.000Z</time>
      </trkpt>
      <trkpt lat="42.978516630828380584716796875" lon="-4.75616888143122196197509765625">
        <ele>1491.199951171875</ele>
        <time>2021-07-22T11:39:52.000Z</time>
      </trkpt>
      <trkpt lat="42.97851135022938251495361328125" lon="-4.75619293749332427978515625">
        <ele>1491.199951171875</ele>
        <time>2021-07-22T11:39:53.000Z</time>
      </trkpt>
      <trkpt lat="42.9784571193158626556396484375" lon="-4.7562081925570964813232421875">
        <ele>1491.5999755859375</ele>
        <time>2021-07-22T11:39:57.000Z</time>
      </trkpt>
      <trkpt lat="42.97842836938798427581787109375" lon="-4.7562061809003353118896484375">
        <ele>1491.4000244140625</ele>
        <time>2021-07-22T11:39:59.000Z</time>
      </trkpt>
      <trkpt lat="42.97840724699199199676513671875" lon="-4.75620123557746410369873046875">
        <ele>1490.5999755859375</ele>
        <time>2021-07-22T11:40:00.000Z</time>
      </trkpt>
      <trkpt lat="42.97838126309216022491455078125" lon="-4.756200648844242095947265625">
        <ele>1490</ele>
        <time>2021-07-22T11:40:01.000Z</time>
      </trkpt>
      <trkpt lat="42.97833331860601902008056640625" lon="-4.75619067437946796417236328125">
        <ele>1489.5999755859375</ele>
        <time>2021-07-22T11:40:03.000Z</time>
      </trkpt>
      <trkpt lat="42.97826928086578845977783203125" lon="-4.75619025528430938720703125">
        <ele>1488.800048828125</ele>
        <time>2021-07-22T11:40:06.000Z</time>
      </trkpt>
      <trkpt lat="42.97824807465076446533203125" lon="-4.75617743097245693206787109375">
        <ele>1489</ele>
        <time>2021-07-22T11:40:08.000Z</time>
      </trkpt>
      <trkpt lat="42.978212535381317138671875" lon="-4.75616653449833393096923828125">
        <ele>1489</ele>
        <time>2021-07-22T11:40:10.000Z</time>
      </trkpt>
      <trkpt lat="42.97819183208048343658447265625" lon="-4.7561681270599365234375">
        <ele>1489</ele>
        <time>2021-07-22T11:40:11.000Z</time>
      </trkpt>
      <trkpt lat="42.9781215079128742218017578125" lon="-4.7561947815120220184326171875">
        <ele>1489.5999755859375</ele>
        <time>2021-07-22T11:40:14.000Z</time>
      </trkpt>
      <trkpt lat="42.97806727699935436248779296875" lon="-4.75612965412437915802001953125">
        <ele>1488.4000244140625</ele>
        <time>2021-07-22T11:40:18.000Z</time>
      </trkpt>
      <trkpt lat="42.97802939079701900482177734375" lon="-4.75605723448097705841064453125">
        <ele>1487</ele>
        <time>2021-07-22T11:40:21.000Z</time>
      </trkpt>
      <trkpt lat="42.9779937677085399627685546875" lon="-4.75600543431937694549560546875">
        <ele>1486</ele>
        <time>2021-07-22T11:40:24.000Z</time>
      </trkpt>
      <trkpt lat="42.97797985374927520751953125" lon="-4.7559818811714649200439453125">
        <ele>1485.800048828125</ele>
        <time>2021-07-22T11:40:25.000Z</time>
      </trkpt>
      <trkpt lat="42.9779458232223987579345703125" lon="-4.75594240240752696990966796875">
        <ele>1484.5999755859375</ele>
        <time>2021-07-22T11:40:27.000Z</time>
      </trkpt>
      <trkpt lat="42.97791908495128154754638671875" lon="-4.75592739880084991455078125">
        <ele>1484.199951171875</ele>
        <time>2021-07-22T11:40:28.000Z</time>
      </trkpt>
      <trkpt lat="42.97785756178200244903564453125" lon="-4.755876772105693817138671875">
        <ele>1484.5999755859375</ele>
        <time>2021-07-22T11:40:32.000Z</time>
      </trkpt>
      <trkpt lat="42.9777879081666469573974609375" lon="-4.755859673023223876953125">
        <ele>1483.800048828125</ele>
        <time>2021-07-22T11:40:35.000Z</time>
      </trkpt>
      <trkpt lat="42.97775496728718280792236328125" lon="-4.7558709047734737396240234375">
        <ele>1483.199951171875</ele>
        <time>2021-07-22T11:40:36.000Z</time>
      </trkpt>
      <trkpt lat="42.9776957072317600250244140625" lon="-4.7558903507888317108154296875">
        <ele>1482</ele>
        <time>2021-07-22T11:40:38.000Z</time>
      </trkpt>
      <trkpt lat="42.97764600254595279693603515625" lon="-4.75589814595878124237060546875">
        <ele>1480.5999755859375</ele>
        <time>2021-07-22T11:40:40.000Z</time>
      </trkpt>
      <trkpt lat="42.977622449398040771484375" lon="-4.75590015761554241180419921875">
        <ele>1480.4000244140625</ele>
        <time>2021-07-22T11:40:41.000Z</time>
      </trkpt>
      <trkpt lat="42.97757257707417011260986328125" lon="-4.75589898414909839630126953125">
        <ele>1479.4000244140625</ele>
        <time>2021-07-22T11:40:45.000Z</time>
      </trkpt>
      <trkpt lat="42.97756922431290149688720703125" lon="-4.75588507018983364105224609375">
        <ele>1479.199951171875</ele>
        <time>2021-07-22T11:40:46.000Z</time>
      </trkpt>
      <trkpt lat="42.97755396924912929534912109375" lon="-4.75590116344392299652099609375">
        <ele>1478.199951171875</ele>
        <time>2021-07-22T11:40:48.000Z</time>
      </trkpt>
      <trkpt lat="42.97756955958902835845947265625" lon="-4.75588322617113590240478515625">
        <ele>1478</ele>
        <time>2021-07-22T11:40:50.000Z</time>
      </trkpt>
      <trkpt lat="42.9773664660751819610595703125" lon="-4.75586478598415851593017578125">
        <ele>1443.4000244140625</ele>
        <time>2021-07-22T11:41:43.000Z</time>
      </trkpt>
      <trkpt lat="42.97733520157635211944580078125" lon="-4.7558677196502685546875">
        <ele>1443.4000244140625</ele>
        <time>2021-07-22T11:41:44.000Z</time>
      </trkpt>
      <trkpt lat="42.9772437550127506256103515625" lon="-4.75584802217781543731689453125">
        <ele>1443.4000244140625</ele>
        <time>2021-07-22T11:41:47.000Z</time>
      </trkpt>
      <trkpt lat="42.97719036228954792022705078125" lon="-4.75582237355411052703857421875">
        <ele>1443.4000244140625</ele>
        <time>2021-07-22T11:41:49.000Z</time>
      </trkpt>
      <trkpt lat="42.977065555751323699951171875" lon="-4.75582891143858432769775390625">
        <ele>1442.5999755859375</ele>
        <time>2021-07-22T11:41:53.000Z</time>
      </trkpt>
      <trkpt lat="42.9770389012992382049560546875" lon="-4.75584290921688079833984375">
        <ele>1442</ele>
        <time>2021-07-22T11:41:54.000Z</time>
      </trkpt>
      <trkpt lat="42.97699087299406528472900390625" lon="-4.75587601773440837860107421875">
        <ele>1440.5999755859375</ele>
        <time>2021-07-22T11:41:56.000Z</time>
      </trkpt>
      <trkpt lat="42.97693588770925998687744140625" lon="-4.75588808767497539520263671875">
        <ele>1440</ele>
        <time>2021-07-22T11:41:58.000Z</time>
      </trkpt>
      <trkpt lat="42.97687687911093235015869140625" lon="-4.75588406436145305633544921875">
        <ele>1439.5999755859375</ele>
        <time>2021-07-22T11:42:00.000Z</time>
      </trkpt>
      <trkpt lat="42.97681711614131927490234375" lon="-4.7558605112135410308837890625">
        <ele>1438.4000244140625</ele>
        <time>2021-07-22T11:42:02.000Z</time>
      </trkpt>
      <trkpt lat="42.97679071314632892608642578125" lon="-4.75584902800619602203369140625">
        <ele>1438.199951171875</ele>
        <time>2021-07-22T11:42:03.000Z</time>
      </trkpt>
      <trkpt lat="42.97670404426753520965576171875" lon="-4.7558206133544445037841796875">
        <ele>1437.199951171875</ele>
        <time>2021-07-22T11:42:06.000Z</time>
      </trkpt>
      <trkpt lat="42.97667319886386394500732421875" lon="-4.75581214763224124908447265625">
        <ele>1436</ele>
        <time>2021-07-22T11:42:07.000Z</time>
      </trkpt>
      <trkpt lat="42.9766459576785564422607421875" lon="-4.7558018378913402557373046875">
        <ele>1435.199951171875</ele>
        <time>2021-07-22T11:42:08.000Z</time>
      </trkpt>
      <trkpt lat="42.97661821357905864715576171875" lon="-4.7557951323688030242919921875">
        <ele>1434.5999755859375</ele>
        <time>2021-07-22T11:42:09.000Z</time>
      </trkpt>
      <trkpt lat="42.97653414309024810791015625" lon="-4.75575615651905536651611328125">
        <ele>1433.5999755859375</ele>
        <time>2021-07-22T11:42:12.000Z</time>
      </trkpt>
      <trkpt lat="42.97647287137806415557861328125" lon="-4.75573151372373104095458984375">
        <ele>1433.199951171875</ele>
        <time>2021-07-22T11:42:14.000Z</time>
      </trkpt>
      <trkpt lat="42.97632920555770397186279296875" lon="-4.755706451833248138427734375">
        <ele>1432.800048828125</ele>
        <time>2021-07-22T11:42:19.000Z</time>
      </trkpt>
      <trkpt lat="42.9762214981019496917724609375" lon="-4.75570284761488437652587890625">
        <ele>1432.4000244140625</ele>
        <time>2021-07-22T11:42:23.000Z</time>
      </trkpt>
      <trkpt lat="42.97619224525988101959228515625" lon="-4.755711816251277923583984375">
        <ele>1432.199951171875</ele>
        <time>2021-07-22T11:42:24.000Z</time>
      </trkpt>
      <trkpt lat="42.97607774846255779266357421875" lon="-4.7557220421731472015380859375">
        <ele>1431.5999755859375</ele>
        <time>2021-07-22T11:42:28.000Z</time>
      </trkpt>
      <trkpt lat="42.9759539477527141571044921875" lon="-4.75574308075010776519775390625">
        <ele>1432.199951171875</ele>
        <time>2021-07-22T11:42:32.000Z</time>
      </trkpt>
      <trkpt lat="42.97584473155438899993896484375" lon="-4.75581617094576358795166015625">
        <ele>1431.4000244140625</ele>
        <time>2021-07-22T11:42:36.000Z</time>
      </trkpt>
      <trkpt lat="42.975824363529682159423828125" lon="-4.75583779625594615936279296875">
        <ele>1431.199951171875</ele>
        <time>2021-07-22T11:42:37.000Z</time>
      </trkpt>
      <trkpt lat="42.975735850632190704345703125" lon="-4.75593418814241886138916015625">
        <ele>1431.199951171875</ele>
        <time>2021-07-22T11:42:41.000Z</time>
      </trkpt>
      <trkpt lat="42.97571430914103984832763671875" lon="-4.7559557296335697174072265625">
        <ele>1431.4000244140625</ele>
        <time>2021-07-22T11:42:42.000Z</time>
      </trkpt>
      <trkpt lat="42.9756220243871212005615234375" lon="-4.7560603357851505279541015625">
        <ele>1431.4000244140625</ele>
        <time>2021-07-22T11:42:46.000Z</time>
      </trkpt>
      <trkpt lat="42.9756055958569049835205078125" lon="-4.75609243847429752349853515625">
        <ele>1431.199951171875</ele>
        <time>2021-07-22T11:42:47.000Z</time>
      </trkpt>
      <trkpt lat="42.97557123005390167236328125" lon="-4.75619888864457607269287109375">
        <ele>1430.199951171875</ele>
        <time>2021-07-22T11:42:50.000Z</time>
      </trkpt>
      <trkpt lat="42.9755492694675922393798828125" lon="-4.75626493804156780242919921875">
        <ele>1429.5999755859375</ele>
        <time>2021-07-22T11:42:52.000Z</time>
      </trkpt>
      <trkpt lat="42.97546922229230403900146484375" lon="-4.7564217634499073028564453125">
        <ele>1429.4000244140625</ele>
        <time>2021-07-22T11:42:57.000Z</time>
      </trkpt>
      <trkpt lat="42.97539244405925273895263671875" lon="-4.756588898599147796630859375">
        <ele>1429.5999755859375</ele>
        <time>2021-07-22T11:43:02.000Z</time>
      </trkpt>
      <trkpt lat="42.9753222875297069549560546875" lon="-4.756738431751728057861328125">
        <ele>1429.5999755859375</ele>
        <time>2021-07-22T11:43:07.000Z</time>
      </trkpt>
      <trkpt lat="42.97520510852336883544921875" lon="-4.7568794153630733489990234375">
        <ele>1429.199951171875</ele>
        <time>2021-07-22T11:43:12.000Z</time>
      </trkpt>
      <trkpt lat="42.97511869110167026519775390625" lon="-4.7570249252021312713623046875">
        <ele>1429</ele>
        <time>2021-07-22T11:43:17.000Z</time>
      </trkpt>
      <trkpt lat="42.9750386439263820648193359375" lon="-4.757163561880588531494140625">
        <ele>1429.800048828125</ele>
        <time>2021-07-22T11:43:22.000Z</time>
      </trkpt>
      <trkpt lat="42.97494183294475078582763671875" lon="-4.75730496458709239959716796875">
        <ele>1430</ele>
        <time>2021-07-22T11:43:27.000Z</time>
      </trkpt>
      <trkpt lat="42.97489422373473644256591796875" lon="-4.7573457844555377960205078125">
        <ele>1430.4000244140625</ele>
        <time>2021-07-22T11:43:29.000Z</time>
      </trkpt>
      <trkpt lat="42.9748022742569446563720703125" lon="-4.757424406707286834716796875">
        <ele>1430.800048828125</ele>
        <time>2021-07-22T11:43:33.000Z</time>
      </trkpt>
      <trkpt lat="42.974647544324398040771484375" lon="-4.75751233287155628204345703125">
        <ele>1430.5999755859375</ele>
        <time>2021-07-22T11:43:39.000Z</time>
      </trkpt>
      <trkpt lat="42.97446238808333873748779296875" lon="-4.75752054713666439056396484375">
        <ele>1430.5999755859375</ele>
        <time>2021-07-22T11:43:45.000Z</time>
      </trkpt>
      <trkpt lat="42.974367253482341766357421875" lon="-4.7575281746685504913330078125">
        <ele>1429.4000244140625</ele>
        <time>2021-07-22T11:43:48.000Z</time>
      </trkpt>
      <trkpt lat="42.9743070714175701141357421875" lon="-4.757538735866546630859375">
        <ele>1428.5999755859375</ele>
        <time>2021-07-22T11:43:50.000Z</time>
      </trkpt>
      <trkpt lat="42.97427949495613574981689453125" lon="-4.75754200480878353118896484375">
        <ele>1428.4000244140625</ele>
        <time>2021-07-22T11:43:51.000Z</time>
      </trkpt>
      <trkpt lat="42.97413356602191925048828125" lon="-4.75759950466454029083251953125">
        <ele>1427.4000244140625</ele>
        <time>2021-07-22T11:43:56.000Z</time>
      </trkpt>
      <trkpt lat="42.97410666011273860931396484375" lon="-4.7576153464615345001220703125">
        <ele>1427.4000244140625</ele>
        <time>2021-07-22T11:43:57.000Z</time>
      </trkpt>
      <trkpt lat="42.9739412851631641387939453125" lon="-4.757723473012447357177734375">
        <ele>1427.4000244140625</ele>
        <time>2021-07-22T11:44:03.000Z</time>
      </trkpt>
      <trkpt lat="42.9737964458763599395751953125" lon="-4.7577930428087711334228515625">
        <ele>1427.199951171875</ele>
        <time>2021-07-22T11:44:08.000Z</time>
      </trkpt>
      <trkpt lat="42.97368857078254222869873046875" lon="-4.75792572833597660064697265625">
        <ele>1427</ele>
        <time>2021-07-22T11:44:13.000Z</time>
      </trkpt>
      <trkpt lat="42.97359217889606952667236328125" lon="-4.7580830566585063934326171875">
        <ele>1427</ele>
        <time>2021-07-22T11:44:18.000Z</time>
      </trkpt>
      <trkpt lat="42.97349645756185054779052734375" lon="-4.7580994851887226104736328125">
        <ele>1427.5999755859375</ele>
        <time>2021-07-22T11:44:22.000Z</time>
      </trkpt>
      <trkpt lat="42.9733961261808872222900390625" lon="-4.7580575756728649139404296875">
        <ele>1427.4000244140625</ele>
        <time>2021-07-22T11:44:26.000Z</time>
      </trkpt>
      <trkpt lat="42.97322538681328296661376953125" lon="-4.75803268142044544219970703125">
        <ele>1427</ele>
        <time>2021-07-22T11:44:32.000Z</time>
      </trkpt>
      <trkpt lat="42.973056323826313018798828125" lon="-4.75801642052829265594482421875">
        <ele>1426.199951171875</ele>
        <time>2021-07-22T11:44:38.000Z</time>
      </trkpt>
      <trkpt lat="42.9729166813194751739501953125" lon="-4.75801072083413600921630859375">
        <ele>1426</ele>
        <time>2021-07-22T11:44:43.000Z</time>
      </trkpt>
      <trkpt lat="42.972790785133838653564453125" lon="-4.7580485232174396514892578125">
        <ele>1424.800048828125</ele>
        <time>2021-07-22T11:44:47.000Z</time>
      </trkpt>
      <trkpt lat="42.9727577604353427886962890625" lon="-4.7580609284341335296630859375">
        <ele>1424.4000244140625</ele>
        <time>2021-07-22T11:44:48.000Z</time>
      </trkpt>
      <trkpt lat="42.97272448427975177764892578125" lon="-4.7580760158598423004150390625">
        <ele>1423.800048828125</ele>
        <time>2021-07-22T11:44:49.000Z</time>
      </trkpt>
      <trkpt lat="42.97263287007808685302734375" lon="-4.75810392759740352630615234375">
        <ele>1422.5999755859375</ele>
        <time>2021-07-22T11:44:52.000Z</time>
      </trkpt>
      <trkpt lat="42.97260261140763759613037109375" lon="-4.7581113874912261962890625">
        <ele>1422.4000244140625</ele>
        <time>2021-07-22T11:44:53.000Z</time>
      </trkpt>
      <trkpt lat="42.97246414236724376678466796875" lon="-4.7581462562084197998046875">
        <ele>1422</ele>
        <time>2021-07-22T11:44:58.000Z</time>
      </trkpt>
      <trkpt lat="42.97237613238394260406494140625" lon="-4.75825614295899868011474609375">
        <ele>1422.4000244140625</ele>
        <time>2021-07-22T11:45:02.000Z</time>
      </trkpt>
      <trkpt lat="42.97222441993653774261474609375" lon="-4.75835806690156459808349609375">
        <ele>1422.4000244140625</ele>
        <time>2021-07-22T11:45:08.000Z</time>
      </trkpt>
      <trkpt lat="42.97210908494889736175537109375" lon="-4.75838673301041126251220703125">
        <ele>1421.5999755859375</ele>
        <time>2021-07-22T11:45:12.000Z</time>
      </trkpt>
      <trkpt lat="42.972080670297145843505859375" lon="-4.75838690064847469329833984375">
        <ele>1421.199951171875</ele>
        <time>2021-07-22T11:45:13.000Z</time>
      </trkpt>
      <trkpt lat="42.97203917987644672393798828125" lon="-4.75835488177835941314697265625">
        <ele>1420.4000244140625</ele>
        <time>2021-07-22T11:45:15.000Z</time>
      </trkpt>
      <trkpt lat="42.97196743078529834747314453125" lon="-4.75829067640006542205810546875">
        <ele>1420</ele>
        <time>2021-07-22T11:45:18.000Z</time>
      </trkpt>
      <trkpt lat="42.97190330922603607177734375" lon="-4.75823082961142063140869140625">
        <ele>1419.4000244140625</ele>
        <time>2021-07-22T11:45:21.000Z</time>
      </trkpt>
      <trkpt lat="42.97182074747979640960693359375" lon="-4.7581611759960651397705078125">
        <ele>1418.800048828125</ele>
        <time>2021-07-22T11:45:24.000Z</time>
      </trkpt>
      <trkpt lat="42.971652187407016754150390625" lon="-4.75806738249957561492919921875">
        <ele>1418.4000244140625</ele>
        <time>2021-07-22T11:45:30.000Z</time>
      </trkpt>
      <trkpt lat="42.97162435948848724365234375" lon="-4.7580515407025814056396484375">
        <ele>1418.4000244140625</ele>
        <time>2021-07-22T11:45:31.000Z</time>
      </trkpt>
      <trkpt lat="42.97150575555860996246337890625" lon="-4.75795540027320384979248046875">
        <ele>1417.199951171875</ele>
        <time>2021-07-22T11:45:36.000Z</time>
      </trkpt>
      <trkpt lat="42.97135303728282451629638671875" lon="-4.757826738059520721435546875">
        <ele>1417</ele>
        <time>2021-07-22T11:45:42.000Z</time>
      </trkpt>
      <trkpt lat="42.97120149247348308563232421875" lon="-4.75770494900643825531005859375">
        <ele>1416.800048828125</ele>
        <time>2021-07-22T11:45:48.000Z</time>
      </trkpt>
      <trkpt lat="42.9710736684501171112060546875" lon="-4.75766790099442005157470703125">
        <ele>1416</ele>
        <time>2021-07-22T11:45:52.000Z</time>
      </trkpt>
      <trkpt lat="42.97101952135562896728515625" lon="-4.7576485387980937957763671875">
        <ele>1416</ele>
        <time>2021-07-22T11:45:54.000Z</time>
      </trkpt>
      <trkpt lat="42.97085263766348361968994140625" lon="-4.75758190266788005828857421875">
        <ele>1416</ele>
        <time>2021-07-22T11:46:00.000Z</time>
      </trkpt>
      <trkpt lat="42.9706860892474651336669921875" lon="-4.757583998143672943115234375">
        <ele>1415.4000244140625</ele>
        <time>2021-07-22T11:46:06.000Z</time>
      </trkpt>
      <trkpt lat="42.970543764531612396240234375" lon="-4.7575948946177959442138671875">
        <ele>1414.800048828125</ele>
        <time>2021-07-22T11:46:11.000Z</time>
      </trkpt>
      <trkpt lat="42.9703712649643421173095703125" lon="-4.7575898654758930206298828125">
        <ele>1414.5999755859375</ele>
        <time>2021-07-22T11:46:17.000Z</time>
      </trkpt>
      <trkpt lat="42.97025148756802082061767578125" lon="-4.7575720958411693572998046875">
        <ele>1413.800048828125</ele>
        <time>2021-07-22T11:46:21.000Z</time>
      </trkpt>
      <trkpt lat="42.9702019505202770233154296875" lon="-4.75757553242146968841552734375">
        <ele>1413.5999755859375</ele>
        <time>2021-07-22T11:46:23.000Z</time>
      </trkpt>
      <trkpt lat="42.9700420238077640533447265625" lon="-4.757570922374725341796875">
        <ele>1413.199951171875</ele>
        <time>2021-07-22T11:46:29.000Z</time>
      </trkpt>
      <trkpt lat="42.96998226083815097808837890625" lon="-4.75757000036537647247314453125">
        <ele>1412.800048828125</ele>
        <time>2021-07-22T11:46:31.000Z</time>
      </trkpt>
      <trkpt lat="42.96986281871795654296875" lon="-4.75757955573499202728271484375">
        <ele>1412.4000244140625</ele>
        <time>2021-07-22T11:46:35.000Z</time>
      </trkpt>
      <trkpt lat="42.96971051953732967376708984375" lon="-4.757563881576061248779296875">
        <ele>1413</ele>
        <time>2021-07-22T11:46:40.000Z</time>
      </trkpt>
      <trkpt lat="42.96952393837273120880126953125" lon="-4.75754217244684696197509765625">
        <ele>1412</ele>
        <time>2021-07-22T11:46:46.000Z</time>
      </trkpt>
      <trkpt lat="42.96934791840612888336181640625" lon="-4.75754401646554470062255859375">
        <ele>1412</ele>
        <time>2021-07-22T11:46:52.000Z</time>
      </trkpt>
      <trkpt lat="42.96932226978242397308349609375" lon="-4.75754284299910068511962890625">
        <ele>1411.800048828125</ele>
        <time>2021-07-22T11:46:53.000Z</time>
      </trkpt>
      <trkpt lat="42.969147674739360809326171875" lon="-4.75754736922681331634521484375">
        <ele>1410.800048828125</ele>
        <time>2021-07-22T11:46:59.000Z</time>
      </trkpt>
      <trkpt lat="42.9690251313149929046630859375" lon="-4.7575305216014385223388671875">
        <ele>1409.4000244140625</ele>
        <time>2021-07-22T11:47:03.000Z</time>
      </trkpt>
      <trkpt lat="42.9689694754779338836669921875" lon="-4.757539741694927215576171875">
        <ele>1408.800048828125</ele>
        <time>2021-07-22T11:47:05.000Z</time>
      </trkpt>
      <trkpt lat="42.96879672445356845855712890625" lon="-4.7575868479907512664794921875">
        <ele>1409.4000244140625</ele>
        <time>2021-07-22T11:47:11.000Z</time>
      </trkpt>
      <trkpt lat="42.96870418824255466461181640625" lon="-4.75766337476670742034912109375">
        <ele>1409.199951171875</ele>
        <time>2021-07-22T11:47:15.000Z</time>
      </trkpt>
      <trkpt lat="42.96863746829330921173095703125" lon="-4.75774987600743770599365234375">
        <ele>1408.800048828125</ele>
        <time>2021-07-22T11:47:20.000Z</time>
      </trkpt>
      <trkpt lat="42.9686385579407215118408203125" lon="-4.75774149410426616668701171875">
        <ele>1408.800048828125</ele>
        <time>2021-07-22T11:47:25.000Z</time>
      </trkpt>
      <trkpt lat="42.968649454414844512939453125" lon="-4.75771911442279815673828125">
        <ele>1408.800048828125</ele>
        <time>2021-07-22T11:47:26.000Z</time>
      </trkpt>
      <trkpt lat="42.96868172474205493927001953125" lon="-4.75767619907855987548828125">
        <ele>1409.199951171875</ele>
        <time>2021-07-22T11:47:28.000Z</time>
      </trkpt>
      <trkpt lat="42.96871575526893138885498046875" lon="-4.75764158181846141815185546875">
        <ele>1409.199951171875</ele>
        <time>2021-07-22T11:47:30.000Z</time>
      </trkpt>
      <trkpt lat="42.968782894313335418701171875" lon="-4.7575757838785648345947265625">
        <ele>1409.800048828125</ele>
        <time>2021-07-22T11:47:33.000Z</time>
      </trkpt>
      <trkpt lat="42.96886042691767215728759765625" lon="-4.75754267536103725433349609375">
        <ele>1409.199951171875</ele>
        <time>2021-07-22T11:47:36.000Z</time>
      </trkpt>
      <trkpt lat="42.96903493814170360565185546875" lon="-4.7575482912361621856689453125">
        <ele>1410.199951171875</ele>
        <time>2021-07-22T11:47:42.000Z</time>
      </trkpt>
      <trkpt lat="42.9691532067954540252685546875" lon="-4.75754921324551105499267578125">
        <ele>1410</ele>
        <time>2021-07-22T11:47:47.000Z</time>
      </trkpt>
      <trkpt lat="42.96928974799811840057373046875" lon="-4.757558517158031463623046875">
        <ele>1410.4000244140625</ele>
        <time>2021-07-22T11:47:52.000Z</time>
      </trkpt>
      <trkpt lat="42.969319336116313934326171875" lon="-4.7575610317289829254150390625">
        <ele>1410.800048828125</ele>
        <time>2021-07-22T11:47:53.000Z</time>
      </trkpt>
      <trkpt lat="42.969465516507625579833984375" lon="-4.7575534880161285400390625">
        <ele>1411.5999755859375</ele>
        <time>2021-07-22T11:47:58.000Z</time>
      </trkpt>
      <trkpt lat="42.96949074603617191314697265625" lon="-4.7575536556541919708251953125">
        <ele>1411.800048828125</ele>
        <time>2021-07-22T11:47:59.000Z</time>
      </trkpt>
      <trkpt lat="42.96962016262114048004150390625" lon="-4.75755927152931690216064453125">
        <ele>1412.199951171875</ele>
        <time>2021-07-22T11:48:04.000Z</time>
      </trkpt>
      <trkpt lat="42.9697637446224689483642578125" lon="-4.75756631232798099517822265625">
        <ele>1412.5999755859375</ele>
        <time>2021-07-22T11:48:09.000Z</time>
      </trkpt>
      <trkpt lat="42.9698696918785572052001953125" lon="-4.757578633725643157958984375">
        <ele>1413</ele>
        <time>2021-07-22T11:48:13.000Z</time>
      </trkpt>
      <trkpt lat="42.97000388614833354949951171875" lon="-4.75758324377238750457763671875">
        <ele>1412.800048828125</ele>
        <time>2021-07-22T11:48:18.000Z</time>
      </trkpt>
      <trkpt lat="42.970121987164020538330078125" lon="-4.75757838226854801177978515625">
        <ele>1413</ele>
        <time>2021-07-22T11:48:22.000Z</time>
      </trkpt>
      <trkpt lat="42.9702720232307910919189453125" lon="-4.7575908713042736053466796875">
        <ele>1413</ele>
        <time>2021-07-22T11:48:27.000Z</time>
      </trkpt>
      <trkpt lat="42.97040135599672794342041015625" lon="-4.7575791366398334503173828125">
        <ele>1413.4000244140625</ele>
        <time>2021-07-22T11:48:32.000Z</time>
      </trkpt>
      <trkpt lat="42.970488779246807098388671875" lon="-4.7575902007520198822021484375">
        <ele>1413.800048828125</ele>
        <time>2021-07-22T11:48:35.000Z</time>
      </trkpt>
      <trkpt lat="42.97054250724613666534423828125" lon="-4.7575937211513519287109375">
        <ele>1414.5999755859375</ele>
        <time>2021-07-22T11:48:37.000Z</time>
      </trkpt>
      <trkpt lat="42.97061626799404621124267578125" lon="-4.75759011693298816680908203125">
        <ele>1415</ele>
        <time>2021-07-22T11:48:40.000Z</time>
      </trkpt>
      <trkpt lat="42.970665805041790008544921875" lon="-4.75758676417171955108642578125">
        <ele>1415.4000244140625</ele>
        <time>2021-07-22T11:48:42.000Z</time>
      </trkpt>
      <trkpt lat="42.9706956446170806884765625" lon="-4.75758232176303863525390625">
        <ele>1416</ele>
        <time>2021-07-22T11:48:43.000Z</time>
      </trkpt>
      <trkpt lat="42.97080704011023044586181640625" lon="-4.75756949745118618011474609375">
        <ele>1415.4000244140625</ele>
        <time>2021-07-22T11:48:47.000Z</time>
      </trkpt>
      <trkpt lat="42.9709506221115589141845703125" lon="-4.7575660608708858489990234375">
        <ele>1415.800048828125</ele>
        <time>2021-07-22T11:48:53.000Z</time>
      </trkpt>
      <trkpt lat="42.97098121605813503265380859375" lon="-4.75757963955402374267578125">
        <ele>1415.4000244140625</ele>
        <time>2021-07-22T11:48:56.000Z</time>
      </trkpt>
    </trkseg>
  </trk>
</gpx>
